<?xml version="1.0" encoding="UTF-8" standalone="no" ?>
<gpx xmlns="http://www.topografix.com/GPX/1/1" xmlns:xsi="http://www.w3.org/2001/XMLSchema-instance" xsi:schemaLocation="http://www.topografix.com/GPX/1/1 http://www.topografix.com/GPX/1/1/gpx.xsd" version="1.1" creator="VisuGPX - https://www.visugpx.com">
  <metadata>
    <name>2015-07-03 Bike-ride-Amberieux en Dombes O</name>
    <desc><![CDATA[2015-07-03 Bike-ride-Amberieux en Dombes O]]></desc>
  </metadata>
  <wpt lat="45.92456" lon="4.73706">
    <ele>179</ele>
    <name><![CDATA[2015-07-03 10:45 (Start)]]></name>
  </wpt>
  <wpt lat="45.92459" lon="4.73704">
    <ele>162.3</ele>
    <name><![CDATA[2015-07-03 10:45 (End)]]></name>
    <desc><![CDATA[Created by Google My Tracks on Android  Name: 2015-07-03 10:45 Activity type: biking Description: - Total distance: 46.41 km (28.8 mi) Total time: 2:10:07 Moving time: 2:05:46 Average speed: 21.40 km/h (13.3 mi/h) Average moving speed: 22.14 km/h (13.8 mi/h) Max speed: 42.81 km/h (26.6 mi/h) Average pace: 2:48 min/km (4:31 min/mi) Average moving pace: 2:43 min/km (4:22 min/mi) Fastest pace: 1:24 min/km (2:15 min/mi) Max elevation: 315 m (1032 ft) Min elevation: 162 m (531 ft) Elevation gain: 631 m (2070 ft) Max grade: 21 % Min grade: -11 % Recorded: 03/07/2015 10:45]]></desc>
  </wpt>
  <trk>
    <name><![CDATA[2015-07-03 10:45]]></name>
    <trkseg>
      <trkpt lat="45.92456" lon="4.73706">
        <ele>179</ele>
        <time>2015-07-03T08:45:26.593Z</time>
      </trkpt>
      <trkpt lat="45.92463" lon="4.73707">
        <ele>174.699996948</ele>
        <time>2015-07-03T08:45:55.521Z</time>
      </trkpt>
      <trkpt lat="45.92465" lon="4.737">
        <ele>175</ele>
        <time>2015-07-03T08:45:57.419Z</time>
      </trkpt>
      <trkpt lat="45.92466" lon="4.73689">
        <ele>174.300003052</ele>
        <time>2015-07-03T08:45:55.138Z</time>
      </trkpt>
      <trkpt lat="45.92466" lon="4.73681">
        <ele>173.199996948</ele>
        <time>2015-07-03T08:46:00.385Z</time>
      </trkpt>
      <trkpt lat="45.92468" lon="4.73669">
        <ele>172.899993896</ele>
        <time>2015-07-03T08:46:02.38Z</time>
      </trkpt>
      <trkpt lat="45.92469" lon="4.73663">
        <ele>172.399993896</ele>
        <time>2015-07-03T08:46:03.392Z</time>
      </trkpt>
      <trkpt lat="45.92472" lon="4.73653">
        <ele>171.899993896</ele>
        <time>2015-07-03T08:46:05.415Z</time>
      </trkpt>
      <trkpt lat="45.92474" lon="4.73649">
        <ele>172.199996948</ele>
        <time>2015-07-03T08:46:06.373Z</time>
      </trkpt>
      <trkpt lat="45.92481" lon="4.73646">
        <ele>172.899993896</ele>
        <time>2015-07-03T08:46:08.385Z</time>
      </trkpt>
      <trkpt lat="45.92485" lon="4.73646">
        <ele>173</ele>
        <time>2015-07-03T08:46:09.393Z</time>
      </trkpt>
      <trkpt lat="45.92489" lon="4.73646">
        <ele>172.600006104</ele>
        <time>2015-07-03T08:46:10.37Z</time>
      </trkpt>
      <trkpt lat="45.92494" lon="4.73647">
        <ele>172.600006104</ele>
        <time>2015-07-03T08:46:11.388Z</time>
      </trkpt>
      <trkpt lat="45.92506" lon="4.73645">
        <ele>172.399993896</ele>
        <time>2015-07-03T08:46:13.402Z</time>
      </trkpt>
      <trkpt lat="45.92511" lon="4.73644">
        <ele>172.300003052</ele>
        <time>2015-07-03T08:46:14.401Z</time>
      </trkpt>
      <trkpt lat="45.92515" lon="4.73644">
        <ele>172.100006104</ele>
        <time>2015-07-03T08:46:15.404Z</time>
      </trkpt>
      <trkpt lat="45.92522" lon="4.73643">
        <ele>170.100006104</ele>
        <time>2015-07-03T08:46:16.379Z</time>
      </trkpt>
      <trkpt lat="45.92533" lon="4.73641">
        <ele>169.600006104</ele>
        <time>2015-07-03T08:46:18.393Z</time>
      </trkpt>
      <trkpt lat="45.92538" lon="4.73639">
        <ele>169.100006104</ele>
        <time>2015-07-03T08:46:19.386Z</time>
      </trkpt>
      <trkpt lat="45.92543" lon="4.73639">
        <ele>168.600006104</ele>
        <time>2015-07-03T08:46:20.39Z</time>
      </trkpt>
      <trkpt lat="45.92551" lon="4.73636">
        <ele>168.699996948</ele>
        <time>2015-07-03T08:46:22.377Z</time>
      </trkpt>
      <trkpt lat="45.92554" lon="4.73633">
        <ele>168.800003052</ele>
        <time>2015-07-03T08:46:23.37Z</time>
      </trkpt>
      <trkpt lat="45.92562" lon="4.73633">
        <ele>168.600006104</ele>
        <time>2015-07-03T08:46:25.38Z</time>
      </trkpt>
      <trkpt lat="45.92566" lon="4.73631">
        <ele>168</ele>
        <time>2015-07-03T08:46:26.401Z</time>
      </trkpt>
      <trkpt lat="45.92575" lon="4.73627">
        <ele>167.800003052</ele>
        <time>2015-07-03T08:46:28.43Z</time>
      </trkpt>
      <trkpt lat="45.92579" lon="4.73625">
        <ele>167.399993896</ele>
        <time>2015-07-03T08:46:29.509Z</time>
      </trkpt>
      <trkpt lat="45.92587" lon="4.73621">
        <ele>168.300003052</ele>
        <time>2015-07-03T08:46:31.643Z</time>
      </trkpt>
      <trkpt lat="45.92592" lon="4.73621">
        <ele>169.600006104</ele>
        <time>2015-07-03T08:46:32.429Z</time>
      </trkpt>
      <trkpt lat="45.92597" lon="4.73621">
        <ele>170.300003052</ele>
        <time>2015-07-03T08:46:33.385Z</time>
      </trkpt>
      <trkpt lat="45.92602" lon="4.73624">
        <ele>170.199996948</ele>
        <time>2015-07-03T08:46:34.376Z</time>
      </trkpt>
      <trkpt lat="45.92608" lon="4.73627">
        <ele>170</ele>
        <time>2015-07-03T08:46:35.395Z</time>
      </trkpt>
      <trkpt lat="45.92612" lon="4.73629">
        <ele>170.600006104</ele>
        <time>2015-07-03T08:46:36.375Z</time>
      </trkpt>
      <trkpt lat="45.92617" lon="4.73634">
        <ele>170.199996948</ele>
        <time>2015-07-03T08:46:37.388Z</time>
      </trkpt>
      <trkpt lat="45.9262" lon="4.7364">
        <ele>170</ele>
        <time>2015-07-03T08:46:38.397Z</time>
      </trkpt>
      <trkpt lat="45.92624" lon="4.73647">
        <ele>170.399993896</ele>
        <time>2015-07-03T08:46:39.726Z</time>
      </trkpt>
      <trkpt lat="45.9263" lon="4.73655">
        <ele>172.300003052</ele>
        <time>2015-07-03T08:46:40.556Z</time>
      </trkpt>
      <trkpt lat="45.92634" lon="4.73663">
        <ele>172.600006104</ele>
        <time>2015-07-03T08:46:41.43Z</time>
      </trkpt>
      <trkpt lat="45.92637" lon="4.73671">
        <ele>171.300003052</ele>
        <time>2015-07-03T08:46:42.417Z</time>
      </trkpt>
      <trkpt lat="45.9264" lon="4.73678">
        <ele>170.300003052</ele>
        <time>2015-07-03T08:46:43.683Z</time>
      </trkpt>
      <trkpt lat="45.92644" lon="4.73683">
        <ele>169.399993896</ele>
        <time>2015-07-03T08:46:44.425Z</time>
      </trkpt>
      <trkpt lat="45.92648" lon="4.73689">
        <ele>168.899993896</ele>
        <time>2015-07-03T08:46:45.524Z</time>
      </trkpt>
      <trkpt lat="45.92652" lon="4.73694">
        <ele>168.5</ele>
        <time>2015-07-03T08:46:46.396Z</time>
      </trkpt>
      <trkpt lat="45.92657" lon="4.73698">
        <ele>168.100006104</ele>
        <time>2015-07-03T08:46:47.447Z</time>
      </trkpt>
      <trkpt lat="45.92661" lon="4.73701">
        <ele>167.800003052</ele>
        <time>2015-07-03T08:46:48.436Z</time>
      </trkpt>
      <trkpt lat="45.92666" lon="4.73704">
        <ele>167.699996948</ele>
        <time>2015-07-03T08:46:49.886Z</time>
      </trkpt>
      <trkpt lat="45.92671" lon="4.73707">
        <ele>167.300003052</ele>
        <time>2015-07-03T08:46:50.396Z</time>
      </trkpt>
      <trkpt lat="45.92676" lon="4.7371">
        <ele>167.300003052</ele>
        <time>2015-07-03T08:46:51.417Z</time>
      </trkpt>
      <trkpt lat="45.92681" lon="4.73713">
        <ele>167.600006104</ele>
        <time>2015-07-03T08:46:52.446Z</time>
      </trkpt>
      <trkpt lat="45.92686" lon="4.73715">
        <ele>167.800003052</ele>
        <time>2015-07-03T08:46:53.496Z</time>
      </trkpt>
      <trkpt lat="45.92691" lon="4.73717">
        <ele>168.199996948</ele>
        <time>2015-07-03T08:46:54.478Z</time>
      </trkpt>
      <trkpt lat="45.92697" lon="4.73716">
        <ele>168</ele>
        <time>2015-07-03T08:46:55.676Z</time>
      </trkpt>
      <trkpt lat="45.92703" lon="4.73717">
        <ele>167.100006104</ele>
        <time>2015-07-03T08:46:56.395Z</time>
      </trkpt>
      <trkpt lat="45.92708" lon="4.73717">
        <ele>167.199996948</ele>
        <time>2015-07-03T08:46:57.41Z</time>
      </trkpt>
      <trkpt lat="45.92714" lon="4.73718">
        <ele>167.199996948</ele>
        <time>2015-07-03T08:46:58.394Z</time>
      </trkpt>
      <trkpt lat="45.9272" lon="4.73719">
        <ele>168</ele>
        <time>2015-07-03T08:46:59.393Z</time>
      </trkpt>
      <trkpt lat="45.92725" lon="4.7372">
        <ele>168.699996948</ele>
        <time>2015-07-03T08:47:00.397Z</time>
      </trkpt>
      <trkpt lat="45.9273" lon="4.73721">
        <ele>169.100006104</ele>
        <time>2015-07-03T08:47:01.566Z</time>
      </trkpt>
      <trkpt lat="45.92736" lon="4.73722">
        <ele>169.300003052</ele>
        <time>2015-07-03T08:47:02.394Z</time>
      </trkpt>
      <trkpt lat="45.92741" lon="4.73723">
        <ele>169.899993896</ele>
        <time>2015-07-03T08:47:03.412Z</time>
      </trkpt>
      <trkpt lat="45.92745" lon="4.73724">
        <ele>170.600006104</ele>
        <time>2015-07-03T08:47:04.394Z</time>
      </trkpt>
      <trkpt lat="45.9275" lon="4.73725">
        <ele>172.100006104</ele>
        <time>2015-07-03T08:47:05.393Z</time>
      </trkpt>
      <trkpt lat="45.92754" lon="4.73726">
        <ele>172.5</ele>
        <time>2015-07-03T08:47:06.406Z</time>
      </trkpt>
      <trkpt lat="45.92763" lon="4.7373">
        <ele>173.800003052</ele>
        <time>2015-07-03T08:47:08.395Z</time>
      </trkpt>
      <trkpt lat="45.92766" lon="4.73732">
        <ele>174.800003052</ele>
        <time>2015-07-03T08:47:09.392Z</time>
      </trkpt>
      <trkpt lat="45.92775" lon="4.73734">
        <ele>177</ele>
        <time>2015-07-03T08:47:12.402Z</time>
      </trkpt>
      <trkpt lat="45.92778" lon="4.73735">
        <ele>177</ele>
        <time>2015-07-03T08:47:13.392Z</time>
      </trkpt>
      <trkpt lat="45.92778" lon="4.73735">
        <ele>181.199996948</ele>
        <time>2015-07-03T08:47:14.394Z</time>
      </trkpt>
      <trkpt lat="45.92779" lon="4.73735">
        <ele>183.5</ele>
        <time>2015-07-03T08:47:15.392Z</time>
      </trkpt>
      <trkpt lat="45.92778" lon="4.73733">
        <ele>185</ele>
        <time>2015-07-03T08:47:16.393Z</time>
      </trkpt>
      <trkpt lat="45.92781" lon="4.73721">
        <ele>187.600006104</ele>
        <time>2015-07-03T08:47:18.396Z</time>
      </trkpt>
      <trkpt lat="45.92782" lon="4.73715">
        <ele>188.899993896</ele>
        <time>2015-07-03T08:47:19.409Z</time>
      </trkpt>
      <trkpt lat="45.92783" lon="4.73707">
        <ele>190.300003052</ele>
        <time>2015-07-03T08:47:20.394Z</time>
      </trkpt>
      <trkpt lat="45.92784" lon="4.73701">
        <ele>191.600006104</ele>
        <time>2015-07-03T08:47:21.394Z</time>
      </trkpt>
      <trkpt lat="45.92786" lon="4.73694">
        <ele>192.800003052</ele>
        <time>2015-07-03T08:47:22.394Z</time>
      </trkpt>
      <trkpt lat="45.92787" lon="4.73687">
        <ele>193.899993896</ele>
        <time>2015-07-03T08:47:23.393Z</time>
      </trkpt>
      <trkpt lat="45.9279" lon="4.73677">
        <ele>195.699996948</ele>
        <time>2015-07-03T08:47:25.482Z</time>
      </trkpt>
      <trkpt lat="45.92795" lon="4.73671">
        <ele>194.899993896</ele>
        <time>2015-07-03T08:47:26.579Z</time>
      </trkpt>
      <trkpt lat="45.92802" lon="4.73664">
        <ele>197.100006104</ele>
        <time>2015-07-03T08:47:28.402Z</time>
      </trkpt>
      <trkpt lat="45.92804" lon="4.73661">
        <ele>198.399993896</ele>
        <time>2015-07-03T08:47:29.404Z</time>
      </trkpt>
      <trkpt lat="45.92806" lon="4.73656">
        <ele>199.399993896</ele>
        <time>2015-07-03T08:47:30.931Z</time>
      </trkpt>
      <trkpt lat="45.92808" lon="4.73649">
        <ele>200.100006104</ele>
        <time>2015-07-03T08:47:31.445Z</time>
      </trkpt>
      <trkpt lat="45.9281" lon="4.73642">
        <ele>201</ele>
        <time>2015-07-03T08:47:32.598Z</time>
      </trkpt>
      <trkpt lat="45.92811" lon="4.73633">
        <ele>201.100006104</ele>
        <time>2015-07-03T08:47:33.407Z</time>
      </trkpt>
      <trkpt lat="45.92812" lon="4.73623">
        <ele>201.300003052</ele>
        <time>2015-07-03T08:47:34.407Z</time>
      </trkpt>
      <trkpt lat="45.92813" lon="4.73611">
        <ele>200.300003052</ele>
        <time>2015-07-03T08:47:35.408Z</time>
      </trkpt>
      <trkpt lat="45.92814" lon="4.736">
        <ele>200</ele>
        <time>2015-07-03T08:47:36.478Z</time>
      </trkpt>
      <trkpt lat="45.92816" lon="4.73591">
        <ele>200.399993896</ele>
        <time>2015-07-03T08:47:37.408Z</time>
      </trkpt>
      <trkpt lat="45.92816" lon="4.73582">
        <ele>200.699996948</ele>
        <time>2015-07-03T08:47:38.402Z</time>
      </trkpt>
      <trkpt lat="45.92817" lon="4.73572">
        <ele>199.699996948</ele>
        <time>2015-07-03T08:47:39.402Z</time>
      </trkpt>
      <trkpt lat="45.92818" lon="4.73563">
        <ele>199.699996948</ele>
        <time>2015-07-03T08:47:40.418Z</time>
      </trkpt>
      <trkpt lat="45.92819" lon="4.73554">
        <ele>200</ele>
        <time>2015-07-03T08:47:41.406Z</time>
      </trkpt>
      <trkpt lat="45.9282" lon="4.73545">
        <ele>200.100006104</ele>
        <time>2015-07-03T08:47:42.446Z</time>
      </trkpt>
      <trkpt lat="45.92821" lon="4.73537">
        <ele>200</ele>
        <time>2015-07-03T08:47:43.41Z</time>
      </trkpt>
      <trkpt lat="45.92822" lon="4.73529">
        <ele>200.100006104</ele>
        <time>2015-07-03T08:47:44.417Z</time>
      </trkpt>
      <trkpt lat="45.92822" lon="4.7352">
        <ele>200.199996948</ele>
        <time>2015-07-03T08:47:45.411Z</time>
      </trkpt>
      <trkpt lat="45.92821" lon="4.73512">
        <ele>200.399993896</ele>
        <time>2015-07-03T08:47:46.405Z</time>
      </trkpt>
      <trkpt lat="45.92822" lon="4.73503">
        <ele>200.600006104</ele>
        <time>2015-07-03T08:47:47.396Z</time>
      </trkpt>
      <trkpt lat="45.92824" lon="4.73491">
        <ele>199.5</ele>
        <time>2015-07-03T08:47:48.398Z</time>
      </trkpt>
      <trkpt lat="45.92826" lon="4.7348">
        <ele>198.899993896</ele>
        <time>2015-07-03T08:47:49.396Z</time>
      </trkpt>
      <trkpt lat="45.92826" lon="4.73472">
        <ele>199</ele>
        <time>2015-07-03T08:47:50.395Z</time>
      </trkpt>
      <trkpt lat="45.92827" lon="4.73463">
        <ele>198.899993896</ele>
        <time>2015-07-03T08:47:51.397Z</time>
      </trkpt>
      <trkpt lat="45.92828" lon="4.73454">
        <ele>198.899993896</ele>
        <time>2015-07-03T08:47:52.395Z</time>
      </trkpt>
      <trkpt lat="45.92829" lon="4.73445">
        <ele>198.800003052</ele>
        <time>2015-07-03T08:47:53.395Z</time>
      </trkpt>
      <trkpt lat="45.92831" lon="4.73434">
        <ele>197.899993896</ele>
        <time>2015-07-03T08:47:54.398Z</time>
      </trkpt>
      <trkpt lat="45.92835" lon="4.7342">
        <ele>195.5</ele>
        <time>2015-07-03T08:47:55.65Z</time>
      </trkpt>
      <trkpt lat="45.92838" lon="4.73407">
        <ele>193.5</ele>
        <time>2015-07-03T08:47:56.566Z</time>
      </trkpt>
      <trkpt lat="45.92839" lon="4.73398">
        <ele>192.800003052</ele>
        <time>2015-07-03T08:47:57.574Z</time>
      </trkpt>
      <trkpt lat="45.9284" lon="4.73388">
        <ele>191.800003052</ele>
        <time>2015-07-03T08:47:58.666Z</time>
      </trkpt>
      <trkpt lat="45.92845" lon="4.73354">
        <ele>188.699996948</ele>
        <time>2015-07-03T08:48:02.647Z</time>
      </trkpt>
      <trkpt lat="45.92849" lon="4.73319">
        <ele>186.300003052</ele>
        <time>2015-07-03T08:48:07.146Z</time>
      </trkpt>
      <trkpt lat="45.92851" lon="4.73301">
        <ele>185.600006104</ele>
        <time>2015-07-03T08:48:08.656Z</time>
      </trkpt>
      <trkpt lat="45.92852" lon="4.73292">
        <ele>185.199996948</ele>
        <time>2015-07-03T08:48:09.729Z</time>
      </trkpt>
      <trkpt lat="45.92853" lon="4.73283">
        <ele>184.899993896</ele>
        <time>2015-07-03T08:48:10.478Z</time>
      </trkpt>
      <trkpt lat="45.92855" lon="4.73274">
        <ele>184.600006104</ele>
        <time>2015-07-03T08:48:11.428Z</time>
      </trkpt>
      <trkpt lat="45.92856" lon="4.73265">
        <ele>184.399993896</ele>
        <time>2015-07-03T08:48:13.46Z</time>
      </trkpt>
      <trkpt lat="45.92858" lon="4.73255">
        <ele>184.100006104</ele>
        <time>2015-07-03T08:48:13.829Z</time>
      </trkpt>
      <trkpt lat="45.92859" lon="4.73245">
        <ele>183.399993896</ele>
        <time>2015-07-03T08:48:15.042Z</time>
      </trkpt>
      <trkpt lat="45.9286" lon="4.73236">
        <ele>183.199996948</ele>
        <time>2015-07-03T08:48:15.523Z</time>
      </trkpt>
      <trkpt lat="45.92862" lon="4.73227">
        <ele>182.800003052</ele>
        <time>2015-07-03T08:48:16.599Z</time>
      </trkpt>
      <trkpt lat="45.92862" lon="4.73219">
        <ele>182.600006104</ele>
        <time>2015-07-03T08:48:17.459Z</time>
      </trkpt>
      <trkpt lat="45.92863" lon="4.7321">
        <ele>182.399993896</ele>
        <time>2015-07-03T08:48:18.401Z</time>
      </trkpt>
      <trkpt lat="45.92865" lon="4.73199">
        <ele>181.800003052</ele>
        <time>2015-07-03T08:48:19.427Z</time>
      </trkpt>
      <trkpt lat="45.92866" lon="4.7319">
        <ele>181.5</ele>
        <time>2015-07-03T08:48:20.406Z</time>
      </trkpt>
      <trkpt lat="45.92867" lon="4.73181">
        <ele>181.100006104</ele>
        <time>2015-07-03T08:48:21.42Z</time>
      </trkpt>
      <trkpt lat="45.92868" lon="4.73172">
        <ele>180.899993896</ele>
        <time>2015-07-03T08:48:22.406Z</time>
      </trkpt>
      <trkpt lat="45.92868" lon="4.73163">
        <ele>181</ele>
        <time>2015-07-03T08:48:23.453Z</time>
      </trkpt>
      <trkpt lat="45.92869" lon="4.73153">
        <ele>181</ele>
        <time>2015-07-03T08:48:24.402Z</time>
      </trkpt>
      <trkpt lat="45.9287" lon="4.73144">
        <ele>180.699996948</ele>
        <time>2015-07-03T08:48:25.408Z</time>
      </trkpt>
      <trkpt lat="45.92871" lon="4.73135">
        <ele>180.5</ele>
        <time>2015-07-03T08:48:26.406Z</time>
      </trkpt>
      <trkpt lat="45.92872" lon="4.73126">
        <ele>180.300003052</ele>
        <time>2015-07-03T08:48:27.429Z</time>
      </trkpt>
      <trkpt lat="45.92874" lon="4.73117">
        <ele>180.399993896</ele>
        <time>2015-07-03T08:48:28.417Z</time>
      </trkpt>
      <trkpt lat="45.92876" lon="4.73109">
        <ele>180.5</ele>
        <time>2015-07-03T08:48:29.395Z</time>
      </trkpt>
      <trkpt lat="45.92879" lon="4.731">
        <ele>180.399993896</ele>
        <time>2015-07-03T08:48:30.396Z</time>
      </trkpt>
      <trkpt lat="45.92882" lon="4.73092">
        <ele>180.5</ele>
        <time>2015-07-03T08:48:31.401Z</time>
      </trkpt>
      <trkpt lat="45.92885" lon="4.73085">
        <ele>180.399993896</ele>
        <time>2015-07-03T08:48:32.396Z</time>
      </trkpt>
      <trkpt lat="45.92889" lon="4.73077">
        <ele>180.399993896</ele>
        <time>2015-07-03T08:48:33.394Z</time>
      </trkpt>
      <trkpt lat="45.92892" lon="4.7307">
        <ele>180.399993896</ele>
        <time>2015-07-03T08:48:34.396Z</time>
      </trkpt>
      <trkpt lat="45.92896" lon="4.73063">
        <ele>180.399993896</ele>
        <time>2015-07-03T08:48:35.396Z</time>
      </trkpt>
      <trkpt lat="45.92899" lon="4.73057">
        <ele>180.5</ele>
        <time>2015-07-03T08:48:36.4Z</time>
      </trkpt>
      <trkpt lat="45.92903" lon="4.7305">
        <ele>180.600006104</ele>
        <time>2015-07-03T08:48:37.393Z</time>
      </trkpt>
      <trkpt lat="45.92907" lon="4.73044">
        <ele>180.800003052</ele>
        <time>2015-07-03T08:48:38.41Z</time>
      </trkpt>
      <trkpt lat="45.92911" lon="4.73038">
        <ele>181</ele>
        <time>2015-07-03T08:48:39.392Z</time>
      </trkpt>
      <trkpt lat="45.92916" lon="4.73032">
        <ele>181.199996948</ele>
        <time>2015-07-03T08:48:40.394Z</time>
      </trkpt>
      <trkpt lat="45.92921" lon="4.73026">
        <ele>181.300003052</ele>
        <time>2015-07-03T08:48:41.423Z</time>
      </trkpt>
      <trkpt lat="45.92925" lon="4.7302">
        <ele>181.600006104</ele>
        <time>2015-07-03T08:48:42.395Z</time>
      </trkpt>
      <trkpt lat="45.9293" lon="4.73014">
        <ele>181.5</ele>
        <time>2015-07-03T08:48:43.394Z</time>
      </trkpt>
      <trkpt lat="45.92934" lon="4.73009">
        <ele>181.800003052</ele>
        <time>2015-07-03T08:48:44.394Z</time>
      </trkpt>
      <trkpt lat="45.92939" lon="4.73002">
        <ele>182.399993896</ele>
        <time>2015-07-03T08:48:45.446Z</time>
      </trkpt>
      <trkpt lat="45.92943" lon="4.72995">
        <ele>182.399993896</ele>
        <time>2015-07-03T08:48:46.392Z</time>
      </trkpt>
      <trkpt lat="45.92948" lon="4.72989">
        <ele>182.5</ele>
        <time>2015-07-03T08:48:47.394Z</time>
      </trkpt>
      <trkpt lat="45.92954" lon="4.72985">
        <ele>182.800003052</ele>
        <time>2015-07-03T08:48:48.397Z</time>
      </trkpt>
      <trkpt lat="45.92958" lon="4.72978">
        <ele>183.100006104</ele>
        <time>2015-07-03T08:48:49.393Z</time>
      </trkpt>
      <trkpt lat="45.92963" lon="4.72971">
        <ele>183.399993896</ele>
        <time>2015-07-03T08:48:50.394Z</time>
      </trkpt>
      <trkpt lat="45.92969" lon="4.72966">
        <ele>183.100006104</ele>
        <time>2015-07-03T08:48:51.442Z</time>
      </trkpt>
      <trkpt lat="45.92974" lon="4.72962">
        <ele>183.100006104</ele>
        <time>2015-07-03T08:48:52.395Z</time>
      </trkpt>
      <trkpt lat="45.92979" lon="4.72956">
        <ele>183.100006104</ele>
        <time>2015-07-03T08:48:53.465Z</time>
      </trkpt>
      <trkpt lat="45.92984" lon="4.72949">
        <ele>183.100006104</ele>
        <time>2015-07-03T08:48:54.406Z</time>
      </trkpt>
      <trkpt lat="45.92989" lon="4.72943">
        <ele>183</ele>
        <time>2015-07-03T08:48:55.394Z</time>
      </trkpt>
      <trkpt lat="45.92994" lon="4.72937">
        <ele>183</ele>
        <time>2015-07-03T08:48:56.395Z</time>
      </trkpt>
      <trkpt lat="45.93" lon="4.72932">
        <ele>182.800003052</ele>
        <time>2015-07-03T08:48:57.45Z</time>
      </trkpt>
      <trkpt lat="45.93005" lon="4.72926">
        <ele>182.600006104</ele>
        <time>2015-07-03T08:48:58.393Z</time>
      </trkpt>
      <trkpt lat="45.93011" lon="4.7292">
        <ele>182.300003052</ele>
        <time>2015-07-03T08:48:59.409Z</time>
      </trkpt>
      <trkpt lat="45.93016" lon="4.72914">
        <ele>182.100006104</ele>
        <time>2015-07-03T08:49:00.398Z</time>
      </trkpt>
      <trkpt lat="45.93022" lon="4.72908">
        <ele>181.899993896</ele>
        <time>2015-07-03T08:49:01.405Z</time>
      </trkpt>
      <trkpt lat="45.93028" lon="4.72903">
        <ele>181.899993896</ele>
        <time>2015-07-03T08:49:02.756Z</time>
      </trkpt>
      <trkpt lat="45.93034" lon="4.72898">
        <ele>181.5</ele>
        <time>2015-07-03T08:49:03.456Z</time>
      </trkpt>
      <trkpt lat="45.93038" lon="4.72892">
        <ele>181.300003052</ele>
        <time>2015-07-03T08:49:04.395Z</time>
      </trkpt>
      <trkpt lat="45.93044" lon="4.72886">
        <ele>181.199996948</ele>
        <time>2015-07-03T08:49:05.393Z</time>
      </trkpt>
      <trkpt lat="45.93049" lon="4.7288">
        <ele>181.199996948</ele>
        <time>2015-07-03T08:49:06.445Z</time>
      </trkpt>
      <trkpt lat="45.93054" lon="4.72873">
        <ele>181.199996948</ele>
        <time>2015-07-03T08:49:07.399Z</time>
      </trkpt>
      <trkpt lat="45.93059" lon="4.72867">
        <ele>181.300003052</ele>
        <time>2015-07-03T08:49:08.497Z</time>
      </trkpt>
      <trkpt lat="45.93063" lon="4.72862">
        <ele>181.399993896</ele>
        <time>2015-07-03T08:49:09.483Z</time>
      </trkpt>
      <trkpt lat="45.93068" lon="4.72857">
        <ele>181.399993896</ele>
        <time>2015-07-03T08:49:10.398Z</time>
      </trkpt>
      <trkpt lat="45.93072" lon="4.72852">
        <ele>181.399993896</ele>
        <time>2015-07-03T08:49:11.417Z</time>
      </trkpt>
      <trkpt lat="45.93077" lon="4.72846">
        <ele>181.399993896</ele>
        <time>2015-07-03T08:49:12.401Z</time>
      </trkpt>
      <trkpt lat="45.93081" lon="4.7284">
        <ele>181.5</ele>
        <time>2015-07-03T08:49:13.406Z</time>
      </trkpt>
      <trkpt lat="45.93086" lon="4.72836">
        <ele>181.5</ele>
        <time>2015-07-03T08:49:14.398Z</time>
      </trkpt>
      <trkpt lat="45.93092" lon="4.7283">
        <ele>181.5</ele>
        <time>2015-07-03T08:49:15.398Z</time>
      </trkpt>
      <trkpt lat="45.93098" lon="4.72824">
        <ele>181.5</ele>
        <time>2015-07-03T08:49:16.399Z</time>
      </trkpt>
      <trkpt lat="45.93102" lon="4.72818">
        <ele>181.5</ele>
        <time>2015-07-03T08:49:17.406Z</time>
      </trkpt>
      <trkpt lat="45.93107" lon="4.72811">
        <ele>181.399993896</ele>
        <time>2015-07-03T08:49:18.398Z</time>
      </trkpt>
      <trkpt lat="45.93113" lon="4.72805">
        <ele>181.300003052</ele>
        <time>2015-07-03T08:49:19.395Z</time>
      </trkpt>
      <trkpt lat="45.93118" lon="4.72799">
        <ele>181.199996948</ele>
        <time>2015-07-03T08:49:20.411Z</time>
      </trkpt>
      <trkpt lat="45.93125" lon="4.72792">
        <ele>180.899993896</ele>
        <time>2015-07-03T08:49:21.409Z</time>
      </trkpt>
      <trkpt lat="45.9313" lon="4.72786">
        <ele>180.800003052</ele>
        <time>2015-07-03T08:49:22.399Z</time>
      </trkpt>
      <trkpt lat="45.93134" lon="4.7278">
        <ele>180.5</ele>
        <time>2015-07-03T08:49:23.455Z</time>
      </trkpt>
      <trkpt lat="45.9314" lon="4.72774">
        <ele>180.5</ele>
        <time>2015-07-03T08:49:24.395Z</time>
      </trkpt>
      <trkpt lat="45.93145" lon="4.72768">
        <ele>180.600006104</ele>
        <time>2015-07-03T08:49:25.394Z</time>
      </trkpt>
      <trkpt lat="45.9315" lon="4.72761">
        <ele>180.399993896</ele>
        <time>2015-07-03T08:49:26.398Z</time>
      </trkpt>
      <trkpt lat="45.93155" lon="4.72755">
        <ele>180.199996948</ele>
        <time>2015-07-03T08:49:27.396Z</time>
      </trkpt>
      <trkpt lat="45.9316" lon="4.72749">
        <ele>180.100006104</ele>
        <time>2015-07-03T08:49:28.395Z</time>
      </trkpt>
      <trkpt lat="45.93165" lon="4.72742">
        <ele>180.100006104</ele>
        <time>2015-07-03T08:49:29.415Z</time>
      </trkpt>
      <trkpt lat="45.9317" lon="4.72736">
        <ele>180.199996948</ele>
        <time>2015-07-03T08:49:30.586Z</time>
      </trkpt>
      <trkpt lat="45.93173" lon="4.7273">
        <ele>180</ele>
        <time>2015-07-03T08:49:31.425Z</time>
      </trkpt>
      <trkpt lat="45.93178" lon="4.72725">
        <ele>179.899993896</ele>
        <time>2015-07-03T08:49:32.443Z</time>
      </trkpt>
      <trkpt lat="45.93183" lon="4.7272">
        <ele>180</ele>
        <time>2015-07-03T08:49:33.393Z</time>
      </trkpt>
      <trkpt lat="45.93188" lon="4.72714">
        <ele>180.199996948</ele>
        <time>2015-07-03T08:49:34.42Z</time>
      </trkpt>
      <trkpt lat="45.93194" lon="4.72708">
        <ele>180.199996948</ele>
        <time>2015-07-03T08:49:35.429Z</time>
      </trkpt>
      <trkpt lat="45.93199" lon="4.72702">
        <ele>180.100006104</ele>
        <time>2015-07-03T08:49:36.395Z</time>
      </trkpt>
      <trkpt lat="45.93204" lon="4.72695">
        <ele>180.199996948</ele>
        <time>2015-07-03T08:49:37.433Z</time>
      </trkpt>
      <trkpt lat="45.93209" lon="4.72688">
        <ele>180</ele>
        <time>2015-07-03T08:49:38.394Z</time>
      </trkpt>
      <trkpt lat="45.93215" lon="4.72682">
        <ele>179.899993896</ele>
        <time>2015-07-03T08:49:39.393Z</time>
      </trkpt>
      <trkpt lat="45.9322" lon="4.72676">
        <ele>180.199996948</ele>
        <time>2015-07-03T08:49:40.392Z</time>
      </trkpt>
      <trkpt lat="45.93225" lon="4.72669">
        <ele>180.300003052</ele>
        <time>2015-07-03T08:49:41.426Z</time>
      </trkpt>
      <trkpt lat="45.93231" lon="4.72663">
        <ele>180.399993896</ele>
        <time>2015-07-03T08:49:42.396Z</time>
      </trkpt>
      <trkpt lat="45.93236" lon="4.72656">
        <ele>180.300003052</ele>
        <time>2015-07-03T08:49:43.393Z</time>
      </trkpt>
      <trkpt lat="45.93241" lon="4.7265">
        <ele>180.199996948</ele>
        <time>2015-07-03T08:49:44.395Z</time>
      </trkpt>
      <trkpt lat="45.93246" lon="4.72643">
        <ele>180.199996948</ele>
        <time>2015-07-03T08:49:45.393Z</time>
      </trkpt>
      <trkpt lat="45.93251" lon="4.72637">
        <ele>179.899993896</ele>
        <time>2015-07-03T08:49:46.395Z</time>
      </trkpt>
      <trkpt lat="45.93257" lon="4.7263">
        <ele>179.800003052</ele>
        <time>2015-07-03T08:49:47.392Z</time>
      </trkpt>
      <trkpt lat="45.93261" lon="4.72624">
        <ele>179.699996948</ele>
        <time>2015-07-03T08:49:48.395Z</time>
      </trkpt>
      <trkpt lat="45.93266" lon="4.72618">
        <ele>179.600006104</ele>
        <time>2015-07-03T08:49:49.397Z</time>
      </trkpt>
      <trkpt lat="45.93272" lon="4.72612">
        <ele>179.399993896</ele>
        <time>2015-07-03T08:49:50.396Z</time>
      </trkpt>
      <trkpt lat="45.93277" lon="4.72606">
        <ele>179.5</ele>
        <time>2015-07-03T08:49:51.409Z</time>
      </trkpt>
      <trkpt lat="45.93282" lon="4.726">
        <ele>179.399993896</ele>
        <time>2015-07-03T08:49:52.394Z</time>
      </trkpt>
      <trkpt lat="45.93287" lon="4.72594">
        <ele>179.300003052</ele>
        <time>2015-07-03T08:49:53.394Z</time>
      </trkpt>
      <trkpt lat="45.93292" lon="4.72588">
        <ele>179.300003052</ele>
        <time>2015-07-03T08:49:54.397Z</time>
      </trkpt>
      <trkpt lat="45.93298" lon="4.72581">
        <ele>179.300003052</ele>
        <time>2015-07-03T08:49:55.394Z</time>
      </trkpt>
      <trkpt lat="45.93304" lon="4.72577">
        <ele>179.5</ele>
        <time>2015-07-03T08:49:56.394Z</time>
      </trkpt>
      <trkpt lat="45.9331" lon="4.72572">
        <ele>179.5</ele>
        <time>2015-07-03T08:49:57.411Z</time>
      </trkpt>
      <trkpt lat="45.93315" lon="4.72566">
        <ele>179.5</ele>
        <time>2015-07-03T08:49:58.393Z</time>
      </trkpt>
      <trkpt lat="45.93321" lon="4.7256">
        <ele>179.399993896</ele>
        <time>2015-07-03T08:49:59.394Z</time>
      </trkpt>
      <trkpt lat="45.93325" lon="4.72554">
        <ele>179.600006104</ele>
        <time>2015-07-03T08:50:00.396Z</time>
      </trkpt>
      <trkpt lat="45.9333" lon="4.72548">
        <ele>179.899993896</ele>
        <time>2015-07-03T08:50:01.41Z</time>
      </trkpt>
      <trkpt lat="45.93335" lon="4.72542">
        <ele>179.699996948</ele>
        <time>2015-07-03T08:50:02.394Z</time>
      </trkpt>
      <trkpt lat="45.93341" lon="4.72538">
        <ele>179.899993896</ele>
        <time>2015-07-03T08:50:03.397Z</time>
      </trkpt>
      <trkpt lat="45.93347" lon="4.72531">
        <ele>180</ele>
        <time>2015-07-03T08:50:04.395Z</time>
      </trkpt>
      <trkpt lat="45.93353" lon="4.72526">
        <ele>180</ele>
        <time>2015-07-03T08:50:05.396Z</time>
      </trkpt>
      <trkpt lat="45.93358" lon="4.7252">
        <ele>180</ele>
        <time>2015-07-03T08:50:06.398Z</time>
      </trkpt>
      <trkpt lat="45.93364" lon="4.72514">
        <ele>180.100006104</ele>
        <time>2015-07-03T08:50:07.395Z</time>
      </trkpt>
      <trkpt lat="45.93369" lon="4.72508">
        <ele>180.199996948</ele>
        <time>2015-07-03T08:50:08.395Z</time>
      </trkpt>
      <trkpt lat="45.93374" lon="4.72503">
        <ele>180.300003052</ele>
        <time>2015-07-03T08:50:09.396Z</time>
      </trkpt>
      <trkpt lat="45.93379" lon="4.72497">
        <ele>180</ele>
        <time>2015-07-03T08:50:10.395Z</time>
      </trkpt>
      <trkpt lat="45.93384" lon="4.72491">
        <ele>180.199996948</ele>
        <time>2015-07-03T08:50:11.516Z</time>
      </trkpt>
      <trkpt lat="45.93388" lon="4.72485">
        <ele>180.300003052</ele>
        <time>2015-07-03T08:50:12.85Z</time>
      </trkpt>
      <trkpt lat="45.93392" lon="4.72479">
        <ele>180.199996948</ele>
        <time>2015-07-03T08:50:13.451Z</time>
      </trkpt>
      <trkpt lat="45.93394" lon="4.72473">
        <ele>180.199996948</ele>
        <time>2015-07-03T08:50:14.442Z</time>
      </trkpt>
      <trkpt lat="45.93397" lon="4.72467">
        <ele>180</ele>
        <time>2015-07-03T08:50:15.476Z</time>
      </trkpt>
      <trkpt lat="45.93398" lon="4.7246">
        <ele>179.600006104</ele>
        <time>2015-07-03T08:50:16.437Z</time>
      </trkpt>
      <trkpt lat="45.93401" lon="4.72449">
        <ele>179.100006104</ele>
        <time>2015-07-03T08:50:18.433Z</time>
      </trkpt>
      <trkpt lat="45.93404" lon="4.72443">
        <ele>179</ele>
        <time>2015-07-03T08:50:19.396Z</time>
      </trkpt>
      <trkpt lat="45.93406" lon="4.72437">
        <ele>178.800003052</ele>
        <time>2015-07-03T08:50:20.467Z</time>
      </trkpt>
      <trkpt lat="45.93409" lon="4.72432">
        <ele>178.800003052</ele>
        <time>2015-07-03T08:50:21.44Z</time>
      </trkpt>
      <trkpt lat="45.93413" lon="4.72427">
        <ele>178.699996948</ele>
        <time>2015-07-03T08:50:22.48Z</time>
      </trkpt>
      <trkpt lat="45.93417" lon="4.72423">
        <ele>178.100006104</ele>
        <time>2015-07-03T08:50:23.396Z</time>
      </trkpt>
      <trkpt lat="45.93422" lon="4.72421">
        <ele>178.199996948</ele>
        <time>2015-07-03T08:50:24.399Z</time>
      </trkpt>
      <trkpt lat="45.93427" lon="4.72418">
        <ele>178.199996948</ele>
        <time>2015-07-03T08:50:25.622Z</time>
      </trkpt>
      <trkpt lat="45.93436" lon="4.72415">
        <ele>177.800003052</ele>
        <time>2015-07-03T08:50:26.627Z</time>
      </trkpt>
      <trkpt lat="45.93441" lon="4.7241">
        <ele>176.899993896</ele>
        <time>2015-07-03T08:50:27.4Z</time>
      </trkpt>
      <trkpt lat="45.93447" lon="4.72405">
        <ele>176.100006104</ele>
        <time>2015-07-03T08:50:28.537Z</time>
      </trkpt>
      <trkpt lat="45.93452" lon="4.72401">
        <ele>175.399993896</ele>
        <time>2015-07-03T08:50:29.406Z</time>
      </trkpt>
      <trkpt lat="45.93457" lon="4.72399">
        <ele>174.899993896</ele>
        <time>2015-07-03T08:50:30.526Z</time>
      </trkpt>
      <trkpt lat="45.93462" lon="4.72395">
        <ele>174.5</ele>
        <time>2015-07-03T08:50:31.469Z</time>
      </trkpt>
      <trkpt lat="45.93467" lon="4.72391">
        <ele>174.100006104</ele>
        <time>2015-07-03T08:50:32.407Z</time>
      </trkpt>
      <trkpt lat="45.93471" lon="4.72387">
        <ele>173.899993896</ele>
        <time>2015-07-03T08:50:33.397Z</time>
      </trkpt>
      <trkpt lat="45.93476" lon="4.72378">
        <ele>173.300003052</ele>
        <time>2015-07-03T08:50:34.396Z</time>
      </trkpt>
      <trkpt lat="45.9348" lon="4.72371">
        <ele>173.100006104</ele>
        <time>2015-07-03T08:50:35.395Z</time>
      </trkpt>
      <trkpt lat="45.93484" lon="4.72365">
        <ele>172.899993896</ele>
        <time>2015-07-03T08:50:36.397Z</time>
      </trkpt>
      <trkpt lat="45.93489" lon="4.7236">
        <ele>172.800003052</ele>
        <time>2015-07-03T08:50:37.395Z</time>
      </trkpt>
      <trkpt lat="45.93494" lon="4.72355">
        <ele>172.800003052</ele>
        <time>2015-07-03T08:50:38.395Z</time>
      </trkpt>
      <trkpt lat="45.93499" lon="4.72348">
        <ele>172.699996948</ele>
        <time>2015-07-03T08:50:39.393Z</time>
      </trkpt>
      <trkpt lat="45.93504" lon="4.72342">
        <ele>172.600006104</ele>
        <time>2015-07-03T08:50:40.419Z</time>
      </trkpt>
      <trkpt lat="45.93507" lon="4.72336">
        <ele>172.600006104</ele>
        <time>2015-07-03T08:50:41.467Z</time>
      </trkpt>
      <trkpt lat="45.93513" lon="4.72329">
        <ele>173</ele>
        <time>2015-07-03T08:50:42.432Z</time>
      </trkpt>
      <trkpt lat="45.93517" lon="4.72323">
        <ele>173.100006104</ele>
        <time>2015-07-03T08:50:43.393Z</time>
      </trkpt>
      <trkpt lat="45.9352" lon="4.72316">
        <ele>173.300003052</ele>
        <time>2015-07-03T08:50:44.431Z</time>
      </trkpt>
      <trkpt lat="45.93523" lon="4.7231">
        <ele>173.5</ele>
        <time>2015-07-03T08:50:45.393Z</time>
      </trkpt>
      <trkpt lat="45.93526" lon="4.72303">
        <ele>173.699996948</ele>
        <time>2015-07-03T08:50:46.393Z</time>
      </trkpt>
      <trkpt lat="45.93528" lon="4.72297">
        <ele>174</ele>
        <time>2015-07-03T08:50:47.394Z</time>
      </trkpt>
      <trkpt lat="45.93531" lon="4.7229">
        <ele>174.300003052</ele>
        <time>2015-07-03T08:50:48.397Z</time>
      </trkpt>
      <trkpt lat="45.93533" lon="4.72283">
        <ele>174.399993896</ele>
        <time>2015-07-03T08:50:49.394Z</time>
      </trkpt>
      <trkpt lat="45.93536" lon="4.72276">
        <ele>174.399993896</ele>
        <time>2015-07-03T08:50:50.393Z</time>
      </trkpt>
      <trkpt lat="45.93538" lon="4.72269">
        <ele>174.600006104</ele>
        <time>2015-07-03T08:50:51.419Z</time>
      </trkpt>
      <trkpt lat="45.9354" lon="4.72263">
        <ele>174.699996948</ele>
        <time>2015-07-03T08:50:52.393Z</time>
      </trkpt>
      <trkpt lat="45.93543" lon="4.72257">
        <ele>175</ele>
        <time>2015-07-03T08:50:53.392Z</time>
      </trkpt>
      <trkpt lat="45.93545" lon="4.72252">
        <ele>175</ele>
        <time>2015-07-03T08:50:54.396Z</time>
      </trkpt>
      <trkpt lat="45.93548" lon="4.72246">
        <ele>174.899993896</ele>
        <time>2015-07-03T08:50:55.398Z</time>
      </trkpt>
      <trkpt lat="45.93554" lon="4.72237">
        <ele>175.699996948</ele>
        <time>2015-07-03T08:50:57.473Z</time>
      </trkpt>
      <trkpt lat="45.93559" lon="4.72234">
        <ele>176</ele>
        <time>2015-07-03T08:50:58.396Z</time>
      </trkpt>
      <trkpt lat="45.93567" lon="4.72237">
        <ele>177.199996948</ele>
        <time>2015-07-03T08:51:00.412Z</time>
      </trkpt>
      <trkpt lat="45.93571" lon="4.72242">
        <ele>177.300003052</ele>
        <time>2015-07-03T08:51:01.46Z</time>
      </trkpt>
      <trkpt lat="45.93575" lon="4.72246">
        <ele>177.600006104</ele>
        <time>2015-07-03T08:51:03.146Z</time>
      </trkpt>
      <trkpt lat="45.93578" lon="4.7225">
        <ele>178</ele>
        <time>2015-07-03T08:51:03.633Z</time>
      </trkpt>
      <trkpt lat="45.93585" lon="4.72256">
        <ele>178.600006104</ele>
        <time>2015-07-03T08:51:05.406Z</time>
      </trkpt>
      <trkpt lat="45.93589" lon="4.72259">
        <ele>179.100006104</ele>
        <time>2015-07-03T08:51:06.401Z</time>
      </trkpt>
      <trkpt lat="45.93596" lon="4.72264">
        <ele>179.800003052</ele>
        <time>2015-07-03T08:51:08.398Z</time>
      </trkpt>
      <trkpt lat="45.936" lon="4.72266">
        <ele>180.199996948</ele>
        <time>2015-07-03T08:51:09.396Z</time>
      </trkpt>
      <trkpt lat="45.93607" lon="4.72274">
        <ele>180.899993896</ele>
        <time>2015-07-03T08:51:11.427Z</time>
      </trkpt>
      <trkpt lat="45.9361" lon="4.72279">
        <ele>181.100006104</ele>
        <time>2015-07-03T08:51:12.401Z</time>
      </trkpt>
      <trkpt lat="45.93618" lon="4.72287">
        <ele>181.399993896</ele>
        <time>2015-07-03T08:51:13.396Z</time>
      </trkpt>
      <trkpt lat="45.93625" lon="4.7229">
        <ele>181.800003052</ele>
        <time>2015-07-03T08:51:14.394Z</time>
      </trkpt>
      <trkpt lat="45.93633" lon="4.72297">
        <ele>182.100006104</ele>
        <time>2015-07-03T08:51:15.399Z</time>
      </trkpt>
      <trkpt lat="45.93638" lon="4.72301">
        <ele>182.399993896</ele>
        <time>2015-07-03T08:51:16.394Z</time>
      </trkpt>
      <trkpt lat="45.93644" lon="4.72307">
        <ele>182.600006104</ele>
        <time>2015-07-03T08:51:17.394Z</time>
      </trkpt>
      <trkpt lat="45.93651" lon="4.72309">
        <ele>182.300003052</ele>
        <time>2015-07-03T08:51:18.395Z</time>
      </trkpt>
      <trkpt lat="45.93656" lon="4.72313">
        <ele>182.300003052</ele>
        <time>2015-07-03T08:51:19.395Z</time>
      </trkpt>
      <trkpt lat="45.93662" lon="4.72317">
        <ele>182.399993896</ele>
        <time>2015-07-03T08:51:20.394Z</time>
      </trkpt>
      <trkpt lat="45.93667" lon="4.72322">
        <ele>182.5</ele>
        <time>2015-07-03T08:51:21.446Z</time>
      </trkpt>
      <trkpt lat="45.93673" lon="4.72328">
        <ele>182.600006104</ele>
        <time>2015-07-03T08:51:22.394Z</time>
      </trkpt>
      <trkpt lat="45.93677" lon="4.72333">
        <ele>182.800003052</ele>
        <time>2015-07-03T08:51:23.395Z</time>
      </trkpt>
      <trkpt lat="45.93681" lon="4.72338">
        <ele>182.800003052</ele>
        <time>2015-07-03T08:51:24.395Z</time>
      </trkpt>
      <trkpt lat="45.93684" lon="4.72342">
        <ele>183</ele>
        <time>2015-07-03T08:51:25.393Z</time>
      </trkpt>
      <trkpt lat="45.93688" lon="4.72347">
        <ele>183.300003052</ele>
        <time>2015-07-03T08:51:26.403Z</time>
      </trkpt>
      <trkpt lat="45.93692" lon="4.72351">
        <ele>183.5</ele>
        <time>2015-07-03T08:51:27.395Z</time>
      </trkpt>
      <trkpt lat="45.93697" lon="4.72355">
        <ele>183.600006104</ele>
        <time>2015-07-03T08:51:28.394Z</time>
      </trkpt>
      <trkpt lat="45.93702" lon="4.72361">
        <ele>183.600006104</ele>
        <time>2015-07-03T08:51:29.396Z</time>
      </trkpt>
      <trkpt lat="45.93707" lon="4.72366">
        <ele>183.600006104</ele>
        <time>2015-07-03T08:51:30.395Z</time>
      </trkpt>
      <trkpt lat="45.93712" lon="4.72373">
        <ele>183.399993896</ele>
        <time>2015-07-03T08:51:31.427Z</time>
      </trkpt>
      <trkpt lat="45.93717" lon="4.72377">
        <ele>183.199996948</ele>
        <time>2015-07-03T08:51:32.394Z</time>
      </trkpt>
      <trkpt lat="45.93721" lon="4.72382">
        <ele>183.100006104</ele>
        <time>2015-07-03T08:51:33.393Z</time>
      </trkpt>
      <trkpt lat="45.93726" lon="4.72387">
        <ele>183.199996948</ele>
        <time>2015-07-03T08:51:34.394Z</time>
      </trkpt>
      <trkpt lat="45.93732" lon="4.72392">
        <ele>183.199996948</ele>
        <time>2015-07-03T08:51:35.392Z</time>
      </trkpt>
      <trkpt lat="45.93736" lon="4.72397">
        <ele>183.399993896</ele>
        <time>2015-07-03T08:51:36.395Z</time>
      </trkpt>
      <trkpt lat="45.93741" lon="4.72402">
        <ele>182.800003052</ele>
        <time>2015-07-03T08:51:37.446Z</time>
      </trkpt>
      <trkpt lat="45.93746" lon="4.72406">
        <ele>182.899993896</ele>
        <time>2015-07-03T08:51:38.424Z</time>
      </trkpt>
      <trkpt lat="45.93751" lon="4.72411">
        <ele>182.800003052</ele>
        <time>2015-07-03T08:51:39.394Z</time>
      </trkpt>
      <trkpt lat="45.93755" lon="4.72416">
        <ele>182.300003052</ele>
        <time>2015-07-03T08:51:40.392Z</time>
      </trkpt>
      <trkpt lat="45.9376" lon="4.72421">
        <ele>182.300003052</ele>
        <time>2015-07-03T08:51:41.427Z</time>
      </trkpt>
      <trkpt lat="45.93764" lon="4.72426">
        <ele>182.300003052</ele>
        <time>2015-07-03T08:51:42.45Z</time>
      </trkpt>
      <trkpt lat="45.93768" lon="4.72431">
        <ele>182.100006104</ele>
        <time>2015-07-03T08:51:43.395Z</time>
      </trkpt>
      <trkpt lat="45.93774" lon="4.72436">
        <ele>182.199996948</ele>
        <time>2015-07-03T08:51:44.393Z</time>
      </trkpt>
      <trkpt lat="45.93779" lon="4.72441">
        <ele>182.5</ele>
        <time>2015-07-03T08:51:45.394Z</time>
      </trkpt>
      <trkpt lat="45.93782" lon="4.72446">
        <ele>182.5</ele>
        <time>2015-07-03T08:51:46.392Z</time>
      </trkpt>
      <trkpt lat="45.93787" lon="4.72449">
        <ele>182.5</ele>
        <time>2015-07-03T08:51:47.398Z</time>
      </trkpt>
      <trkpt lat="45.93791" lon="4.72452">
        <ele>182.5</ele>
        <time>2015-07-03T08:51:48.396Z</time>
      </trkpt>
      <trkpt lat="45.93795" lon="4.72456">
        <ele>182.399993896</ele>
        <time>2015-07-03T08:51:49.436Z</time>
      </trkpt>
      <trkpt lat="45.938" lon="4.72462">
        <ele>182.5</ele>
        <time>2015-07-03T08:51:50.393Z</time>
      </trkpt>
      <trkpt lat="45.93806" lon="4.72469">
        <ele>182.199996948</ele>
        <time>2015-07-03T08:51:51.427Z</time>
      </trkpt>
      <trkpt lat="45.9381" lon="4.72473">
        <ele>182.100006104</ele>
        <time>2015-07-03T08:51:52.394Z</time>
      </trkpt>
      <trkpt lat="45.93814" lon="4.72474">
        <ele>181.800003052</ele>
        <time>2015-07-03T08:51:53.41Z</time>
      </trkpt>
      <trkpt lat="45.93821" lon="4.72481">
        <ele>181.800003052</ele>
        <time>2015-07-03T08:51:55.393Z</time>
      </trkpt>
      <trkpt lat="45.93825" lon="4.72485">
        <ele>181.800003052</ele>
        <time>2015-07-03T08:51:56.394Z</time>
      </trkpt>
      <trkpt lat="45.93829" lon="4.7249">
        <ele>181.899993896</ele>
        <time>2015-07-03T08:51:57.394Z</time>
      </trkpt>
      <trkpt lat="45.93833" lon="4.72495">
        <ele>181.899993896</ele>
        <time>2015-07-03T08:51:58.393Z</time>
      </trkpt>
      <trkpt lat="45.93837" lon="4.72499">
        <ele>182</ele>
        <time>2015-07-03T08:51:59.394Z</time>
      </trkpt>
      <trkpt lat="45.93841" lon="4.72509">
        <ele>182</ele>
        <time>2015-07-03T08:52:00.397Z</time>
      </trkpt>
      <trkpt lat="45.93847" lon="4.72512">
        <ele>182.100006104</ele>
        <time>2015-07-03T08:52:01.427Z</time>
      </trkpt>
      <trkpt lat="45.93858" lon="4.72516">
        <ele>182.399993896</ele>
        <time>2015-07-03T08:52:02.394Z</time>
      </trkpt>
      <trkpt lat="45.93873" lon="4.72523">
        <ele>182.199996948</ele>
        <time>2015-07-03T08:52:03.393Z</time>
      </trkpt>
      <trkpt lat="45.93881" lon="4.7252">
        <ele>182.300003052</ele>
        <time>2015-07-03T08:52:04.393Z</time>
      </trkpt>
      <trkpt lat="45.93886" lon="4.72515">
        <ele>182.399993896</ele>
        <time>2015-07-03T08:52:05.392Z</time>
      </trkpt>
      <trkpt lat="45.9389" lon="4.7251">
        <ele>182.600006104</ele>
        <time>2015-07-03T08:52:06.397Z</time>
      </trkpt>
      <trkpt lat="45.93894" lon="4.72505">
        <ele>182.600006104</ele>
        <time>2015-07-03T08:52:07.393Z</time>
      </trkpt>
      <trkpt lat="45.93899" lon="4.725">
        <ele>182.699996948</ele>
        <time>2015-07-03T08:52:08.393Z</time>
      </trkpt>
      <trkpt lat="45.93903" lon="4.72495">
        <ele>182.800003052</ele>
        <time>2015-07-03T08:52:09.393Z</time>
      </trkpt>
      <trkpt lat="45.93908" lon="4.72489">
        <ele>182.899993896</ele>
        <time>2015-07-03T08:52:10.393Z</time>
      </trkpt>
      <trkpt lat="45.93912" lon="4.72484">
        <ele>182.899993896</ele>
        <time>2015-07-03T08:52:11.427Z</time>
      </trkpt>
      <trkpt lat="45.93917" lon="4.72478">
        <ele>183.100006104</ele>
        <time>2015-07-03T08:52:12.398Z</time>
      </trkpt>
      <trkpt lat="45.93922" lon="4.72473">
        <ele>183.199996948</ele>
        <time>2015-07-03T08:52:13.399Z</time>
      </trkpt>
      <trkpt lat="45.93926" lon="4.72467">
        <ele>183.300003052</ele>
        <time>2015-07-03T08:52:14.394Z</time>
      </trkpt>
      <trkpt lat="45.93931" lon="4.7246">
        <ele>183.399993896</ele>
        <time>2015-07-03T08:52:15.393Z</time>
      </trkpt>
      <trkpt lat="45.93936" lon="4.72453">
        <ele>183.300003052</ele>
        <time>2015-07-03T08:52:16.393Z</time>
      </trkpt>
      <trkpt lat="45.93941" lon="4.72446">
        <ele>183.199996948</ele>
        <time>2015-07-03T08:52:17.393Z</time>
      </trkpt>
      <trkpt lat="45.93947" lon="4.72439">
        <ele>183</ele>
        <time>2015-07-03T08:52:18.396Z</time>
      </trkpt>
      <trkpt lat="45.93953" lon="4.72433">
        <ele>183</ele>
        <time>2015-07-03T08:52:19.414Z</time>
      </trkpt>
      <trkpt lat="45.93958" lon="4.72426">
        <ele>182.899993896</ele>
        <time>2015-07-03T08:52:20.393Z</time>
      </trkpt>
      <trkpt lat="45.93963" lon="4.7242">
        <ele>182.800003052</ele>
        <time>2015-07-03T08:52:21.447Z</time>
      </trkpt>
      <trkpt lat="45.93969" lon="4.72413">
        <ele>182.699996948</ele>
        <time>2015-07-03T08:52:22.402Z</time>
      </trkpt>
      <trkpt lat="45.93974" lon="4.72406">
        <ele>182.5</ele>
        <time>2015-07-03T08:52:23.394Z</time>
      </trkpt>
      <trkpt lat="45.9398" lon="4.72398">
        <ele>182.300003052</ele>
        <time>2015-07-03T08:52:24.396Z</time>
      </trkpt>
      <trkpt lat="45.93986" lon="4.72391">
        <ele>181.600006104</ele>
        <time>2015-07-03T08:52:25.516Z</time>
      </trkpt>
      <trkpt lat="45.93992" lon="4.72385">
        <ele>181.199996948</ele>
        <time>2015-07-03T08:52:26.6Z</time>
      </trkpt>
      <trkpt lat="45.93997" lon="4.72377">
        <ele>180.699996948</ele>
        <time>2015-07-03T08:52:27.517Z</time>
      </trkpt>
      <trkpt lat="45.94002" lon="4.7237">
        <ele>180.600006104</ele>
        <time>2015-07-03T08:52:28.566Z</time>
      </trkpt>
      <trkpt lat="45.94008" lon="4.72363">
        <ele>180.600006104</ele>
        <time>2015-07-03T08:52:29.538Z</time>
      </trkpt>
      <trkpt lat="45.94014" lon="4.72357">
        <ele>180.100006104</ele>
        <time>2015-07-03T08:52:30.517Z</time>
      </trkpt>
      <trkpt lat="45.94019" lon="4.7235">
        <ele>179.800003052</ele>
        <time>2015-07-03T08:52:31.739Z</time>
      </trkpt>
      <trkpt lat="45.94024" lon="4.72343">
        <ele>179.600006104</ele>
        <time>2015-07-03T08:52:32.596Z</time>
      </trkpt>
      <trkpt lat="45.94029" lon="4.72337">
        <ele>179.399993896</ele>
        <time>2015-07-03T08:52:33.606Z</time>
      </trkpt>
      <trkpt lat="45.94034" lon="4.72331">
        <ele>179.100006104</ele>
        <time>2015-07-03T08:52:34.576Z</time>
      </trkpt>
      <trkpt lat="45.94039" lon="4.72325">
        <ele>178.600006104</ele>
        <time>2015-07-03T08:52:35.517Z</time>
      </trkpt>
      <trkpt lat="45.94044" lon="4.72319">
        <ele>178.399993896</ele>
        <time>2015-07-03T08:52:36.611Z</time>
      </trkpt>
      <trkpt lat="45.94049" lon="4.72313">
        <ele>178.600006104</ele>
        <time>2015-07-03T08:52:37.546Z</time>
      </trkpt>
      <trkpt lat="45.94053" lon="4.72307">
        <ele>178.800003052</ele>
        <time>2015-07-03T08:52:38.456Z</time>
      </trkpt>
      <trkpt lat="45.94058" lon="4.72301">
        <ele>178.800003052</ele>
        <time>2015-07-03T08:52:39.406Z</time>
      </trkpt>
      <trkpt lat="45.94063" lon="4.72295">
        <ele>178.899993896</ele>
        <time>2015-07-03T08:52:40.404Z</time>
      </trkpt>
      <trkpt lat="45.94067" lon="4.72289">
        <ele>178.899993896</ele>
        <time>2015-07-03T08:52:41.461Z</time>
      </trkpt>
      <trkpt lat="45.94072" lon="4.72285">
        <ele>179</ele>
        <time>2015-07-03T08:52:42.408Z</time>
      </trkpt>
      <trkpt lat="45.94077" lon="4.7228">
        <ele>178.899993896</ele>
        <time>2015-07-03T08:52:43.436Z</time>
      </trkpt>
      <trkpt lat="45.94082" lon="4.72276">
        <ele>179</ele>
        <time>2015-07-03T08:52:44.426Z</time>
      </trkpt>
      <trkpt lat="45.94088" lon="4.72274">
        <ele>178.800003052</ele>
        <time>2015-07-03T08:52:45.446Z</time>
      </trkpt>
      <trkpt lat="45.94093" lon="4.72272">
        <ele>178.800003052</ele>
        <time>2015-07-03T08:52:46.424Z</time>
      </trkpt>
      <trkpt lat="45.94099" lon="4.72273">
        <ele>178.600006104</ele>
        <time>2015-07-03T08:52:47.434Z</time>
      </trkpt>
      <trkpt lat="45.94105" lon="4.72273">
        <ele>178.600006104</ele>
        <time>2015-07-03T08:52:48.425Z</time>
      </trkpt>
      <trkpt lat="45.94112" lon="4.72275">
        <ele>178.199996948</ele>
        <time>2015-07-03T08:52:49.456Z</time>
      </trkpt>
      <trkpt lat="45.94118" lon="4.72277">
        <ele>177.899993896</ele>
        <time>2015-07-03T08:52:50.446Z</time>
      </trkpt>
      <trkpt lat="45.94124" lon="4.7228">
        <ele>177.399993896</ele>
        <time>2015-07-03T08:52:51.468Z</time>
      </trkpt>
      <trkpt lat="45.9413" lon="4.72283">
        <ele>177.399993896</ele>
        <time>2015-07-03T08:52:52.436Z</time>
      </trkpt>
      <trkpt lat="45.94137" lon="4.72286">
        <ele>177.300003052</ele>
        <time>2015-07-03T08:52:53.394Z</time>
      </trkpt>
      <trkpt lat="45.94142" lon="4.72288">
        <ele>177.600006104</ele>
        <time>2015-07-03T08:52:54.395Z</time>
      </trkpt>
      <trkpt lat="45.94149" lon="4.7229">
        <ele>177.600006104</ele>
        <time>2015-07-03T08:52:55.392Z</time>
      </trkpt>
      <trkpt lat="45.94155" lon="4.72292">
        <ele>177.399993896</ele>
        <time>2015-07-03T08:52:56.396Z</time>
      </trkpt>
      <trkpt lat="45.94161" lon="4.72294">
        <ele>177.300003052</ele>
        <time>2015-07-03T08:52:57.396Z</time>
      </trkpt>
      <trkpt lat="45.94168" lon="4.72294">
        <ele>178.100006104</ele>
        <time>2015-07-03T08:52:58.392Z</time>
      </trkpt>
      <trkpt lat="45.94174" lon="4.72295">
        <ele>178</ele>
        <time>2015-07-03T08:52:59.392Z</time>
      </trkpt>
      <trkpt lat="45.94181" lon="4.72296">
        <ele>178</ele>
        <time>2015-07-03T08:53:00.514Z</time>
      </trkpt>
      <trkpt lat="45.94187" lon="4.72297">
        <ele>177.699996948</ele>
        <time>2015-07-03T08:53:01.445Z</time>
      </trkpt>
      <trkpt lat="45.94193" lon="4.72297">
        <ele>177.699996948</ele>
        <time>2015-07-03T08:53:02.419Z</time>
      </trkpt>
      <trkpt lat="45.942" lon="4.72298">
        <ele>177.600006104</ele>
        <time>2015-07-03T08:53:03.392Z</time>
      </trkpt>
      <trkpt lat="45.94207" lon="4.72298">
        <ele>177.800003052</ele>
        <time>2015-07-03T08:53:04.413Z</time>
      </trkpt>
      <trkpt lat="45.94213" lon="4.72297">
        <ele>177.699996948</ele>
        <time>2015-07-03T08:53:05.411Z</time>
      </trkpt>
      <trkpt lat="45.94219" lon="4.72296">
        <ele>177.600006104</ele>
        <time>2015-07-03T08:53:06.466Z</time>
      </trkpt>
      <trkpt lat="45.94226" lon="4.72295">
        <ele>177.300003052</ele>
        <time>2015-07-03T08:53:07.406Z</time>
      </trkpt>
      <trkpt lat="45.94232" lon="4.72294">
        <ele>177.199996948</ele>
        <time>2015-07-03T08:53:08.473Z</time>
      </trkpt>
      <trkpt lat="45.94238" lon="4.72293">
        <ele>176.699996948</ele>
        <time>2015-07-03T08:53:09.406Z</time>
      </trkpt>
      <trkpt lat="45.94244" lon="4.72291">
        <ele>176.600006104</ele>
        <time>2015-07-03T08:53:10.569Z</time>
      </trkpt>
      <trkpt lat="45.94249" lon="4.72289">
        <ele>176.899993896</ele>
        <time>2015-07-03T08:53:11.42Z</time>
      </trkpt>
      <trkpt lat="45.94255" lon="4.72288">
        <ele>177</ele>
        <time>2015-07-03T08:53:12.506Z</time>
      </trkpt>
      <trkpt lat="45.9426" lon="4.72286">
        <ele>176.399993896</ele>
        <time>2015-07-03T08:53:13.406Z</time>
      </trkpt>
      <trkpt lat="45.94266" lon="4.72284">
        <ele>177</ele>
        <time>2015-07-03T08:53:14.402Z</time>
      </trkpt>
      <trkpt lat="45.94271" lon="4.72281">
        <ele>177</ele>
        <time>2015-07-03T08:53:15.406Z</time>
      </trkpt>
      <trkpt lat="45.94275" lon="4.72284">
        <ele>177.300003052</ele>
        <time>2015-07-03T08:53:16.417Z</time>
      </trkpt>
      <trkpt lat="45.94279" lon="4.72289">
        <ele>177.199996948</ele>
        <time>2015-07-03T08:53:17.507Z</time>
      </trkpt>
      <trkpt lat="45.94282" lon="4.72294">
        <ele>177.199996948</ele>
        <time>2015-07-03T08:53:18.44Z</time>
      </trkpt>
      <trkpt lat="45.94283" lon="4.72302">
        <ele>175.800003052</ele>
        <time>2015-07-03T08:53:19.416Z</time>
      </trkpt>
      <trkpt lat="45.94286" lon="4.72309">
        <ele>175</ele>
        <time>2015-07-03T08:53:20.472Z</time>
      </trkpt>
      <trkpt lat="45.94289" lon="4.72316">
        <ele>174.899993896</ele>
        <time>2015-07-03T08:53:21.408Z</time>
      </trkpt>
      <trkpt lat="45.94292" lon="4.72324">
        <ele>174.800003052</ele>
        <time>2015-07-03T08:53:22.393Z</time>
      </trkpt>
      <trkpt lat="45.94296" lon="4.72331">
        <ele>174.800003052</ele>
        <time>2015-07-03T08:53:23.395Z</time>
      </trkpt>
      <trkpt lat="45.94299" lon="4.72338">
        <ele>174.600006104</ele>
        <time>2015-07-03T08:53:24.393Z</time>
      </trkpt>
      <trkpt lat="45.94303" lon="4.72345">
        <ele>174.600006104</ele>
        <time>2015-07-03T08:53:25.415Z</time>
      </trkpt>
      <trkpt lat="45.94306" lon="4.72352">
        <ele>174.199996948</ele>
        <time>2015-07-03T08:53:26.395Z</time>
      </trkpt>
      <trkpt lat="45.94309" lon="4.7236">
        <ele>173.600006104</ele>
        <time>2015-07-03T08:53:27.411Z</time>
      </trkpt>
      <trkpt lat="45.94312" lon="4.72368">
        <ele>173.300003052</ele>
        <time>2015-07-03T08:53:28.436Z</time>
      </trkpt>
      <trkpt lat="45.94314" lon="4.72378">
        <ele>172.899993896</ele>
        <time>2015-07-03T08:53:29.394Z</time>
      </trkpt>
      <trkpt lat="45.94317" lon="4.72387">
        <ele>172.800003052</ele>
        <time>2015-07-03T08:53:30.395Z</time>
      </trkpt>
      <trkpt lat="45.9432" lon="4.72395">
        <ele>172.899993896</ele>
        <time>2015-07-03T08:53:31.411Z</time>
      </trkpt>
      <trkpt lat="45.94323" lon="4.72403">
        <ele>172.899993896</ele>
        <time>2015-07-03T08:53:32.394Z</time>
      </trkpt>
      <trkpt lat="45.94327" lon="4.7241">
        <ele>172.899993896</ele>
        <time>2015-07-03T08:53:33.394Z</time>
      </trkpt>
      <trkpt lat="45.94331" lon="4.72417">
        <ele>173.100006104</ele>
        <time>2015-07-03T08:53:34.392Z</time>
      </trkpt>
      <trkpt lat="45.94335" lon="4.72424">
        <ele>173.600006104</ele>
        <time>2015-07-03T08:53:35.392Z</time>
      </trkpt>
      <trkpt lat="45.94339" lon="4.72431">
        <ele>173.899993896</ele>
        <time>2015-07-03T08:53:36.395Z</time>
      </trkpt>
      <trkpt lat="45.94342" lon="4.72437">
        <ele>174.100006104</ele>
        <time>2015-07-03T08:53:37.392Z</time>
      </trkpt>
      <trkpt lat="45.94346" lon="4.72444">
        <ele>174.399993896</ele>
        <time>2015-07-03T08:53:38.394Z</time>
      </trkpt>
      <trkpt lat="45.94349" lon="4.72451">
        <ele>174.699996948</ele>
        <time>2015-07-03T08:53:39.393Z</time>
      </trkpt>
      <trkpt lat="45.94352" lon="4.72459">
        <ele>175</ele>
        <time>2015-07-03T08:53:40.392Z</time>
      </trkpt>
      <trkpt lat="45.94356" lon="4.72465">
        <ele>175.600006104</ele>
        <time>2015-07-03T08:53:41.402Z</time>
      </trkpt>
      <trkpt lat="45.9436" lon="4.72472">
        <ele>175.699996948</ele>
        <time>2015-07-03T08:53:42.395Z</time>
      </trkpt>
      <trkpt lat="45.94362" lon="4.72481">
        <ele>175.399993896</ele>
        <time>2015-07-03T08:53:43.409Z</time>
      </trkpt>
      <trkpt lat="45.94364" lon="4.72489">
        <ele>175.699996948</ele>
        <time>2015-07-03T08:53:44.392Z</time>
      </trkpt>
      <trkpt lat="45.94366" lon="4.72496">
        <ele>175.800003052</ele>
        <time>2015-07-03T08:53:45.392Z</time>
      </trkpt>
      <trkpt lat="45.94369" lon="4.72503">
        <ele>175.699996948</ele>
        <time>2015-07-03T08:53:46.393Z</time>
      </trkpt>
      <trkpt lat="45.94372" lon="4.72511">
        <ele>175.699996948</ele>
        <time>2015-07-03T08:53:47.392Z</time>
      </trkpt>
      <trkpt lat="45.94375" lon="4.7252">
        <ele>175.699996948</ele>
        <time>2015-07-03T08:53:48.397Z</time>
      </trkpt>
      <trkpt lat="45.94377" lon="4.72528">
        <ele>175.699996948</ele>
        <time>2015-07-03T08:53:49.394Z</time>
      </trkpt>
      <trkpt lat="45.9438" lon="4.72537">
        <ele>175.800003052</ele>
        <time>2015-07-03T08:53:50.394Z</time>
      </trkpt>
      <trkpt lat="45.94383" lon="4.72543">
        <ele>175.199996948</ele>
        <time>2015-07-03T08:53:51.4Z</time>
      </trkpt>
      <trkpt lat="45.94385" lon="4.72551">
        <ele>175.100006104</ele>
        <time>2015-07-03T08:53:52.43Z</time>
      </trkpt>
      <trkpt lat="45.94387" lon="4.7256">
        <ele>175</ele>
        <time>2015-07-03T08:53:53.394Z</time>
      </trkpt>
      <trkpt lat="45.94389" lon="4.72568">
        <ele>174.699996948</ele>
        <time>2015-07-03T08:53:54.415Z</time>
      </trkpt>
      <trkpt lat="45.9439" lon="4.72575">
        <ele>174.600006104</ele>
        <time>2015-07-03T08:53:55.392Z</time>
      </trkpt>
      <trkpt lat="45.94392" lon="4.72584">
        <ele>174.5</ele>
        <time>2015-07-03T08:53:56.395Z</time>
      </trkpt>
      <trkpt lat="45.94393" lon="4.72593">
        <ele>174.600006104</ele>
        <time>2015-07-03T08:53:57.399Z</time>
      </trkpt>
      <trkpt lat="45.94394" lon="4.72602">
        <ele>174.699996948</ele>
        <time>2015-07-03T08:53:58.397Z</time>
      </trkpt>
      <trkpt lat="45.94394" lon="4.7261">
        <ele>175.300003052</ele>
        <time>2015-07-03T08:53:59.395Z</time>
      </trkpt>
      <trkpt lat="45.94395" lon="4.72618">
        <ele>175.699996948</ele>
        <time>2015-07-03T08:54:00.397Z</time>
      </trkpt>
      <trkpt lat="45.94397" lon="4.72627">
        <ele>176</ele>
        <time>2015-07-03T08:54:01.395Z</time>
      </trkpt>
      <trkpt lat="45.94398" lon="4.72636">
        <ele>176.199996948</ele>
        <time>2015-07-03T08:54:02.393Z</time>
      </trkpt>
      <trkpt lat="45.94399" lon="4.72645">
        <ele>176.399993896</ele>
        <time>2015-07-03T08:54:03.392Z</time>
      </trkpt>
      <trkpt lat="45.944" lon="4.72654">
        <ele>176.5</ele>
        <time>2015-07-03T08:54:04.394Z</time>
      </trkpt>
      <trkpt lat="45.94401" lon="4.72662">
        <ele>176.800003052</ele>
        <time>2015-07-03T08:54:05.393Z</time>
      </trkpt>
      <trkpt lat="45.94402" lon="4.7267">
        <ele>177.100006104</ele>
        <time>2015-07-03T08:54:06.397Z</time>
      </trkpt>
      <trkpt lat="45.94404" lon="4.72679">
        <ele>177.300003052</ele>
        <time>2015-07-03T08:54:07.392Z</time>
      </trkpt>
      <trkpt lat="45.94405" lon="4.72687">
        <ele>177.399993896</ele>
        <time>2015-07-03T08:54:08.393Z</time>
      </trkpt>
      <trkpt lat="45.94406" lon="4.72695">
        <ele>177.5</ele>
        <time>2015-07-03T08:54:09.393Z</time>
      </trkpt>
      <trkpt lat="45.94407" lon="4.72704">
        <ele>178.100006104</ele>
        <time>2015-07-03T08:54:10.411Z</time>
      </trkpt>
      <trkpt lat="45.94408" lon="4.72711">
        <ele>178.5</ele>
        <time>2015-07-03T08:54:11.394Z</time>
      </trkpt>
      <trkpt lat="45.94409" lon="4.7272">
        <ele>178.5</ele>
        <time>2015-07-03T08:54:12.397Z</time>
      </trkpt>
      <trkpt lat="45.9441" lon="4.72728">
        <ele>178.899993896</ele>
        <time>2015-07-03T08:54:13.415Z</time>
      </trkpt>
      <trkpt lat="45.94411" lon="4.72736">
        <ele>179.5</ele>
        <time>2015-07-03T08:54:14.395Z</time>
      </trkpt>
      <trkpt lat="45.94411" lon="4.72743">
        <ele>179.600006104</ele>
        <time>2015-07-03T08:54:15.395Z</time>
      </trkpt>
      <trkpt lat="45.94412" lon="4.72751">
        <ele>179.5</ele>
        <time>2015-07-03T08:54:16.39Z</time>
      </trkpt>
      <trkpt lat="45.94414" lon="4.72759">
        <ele>179.800003052</ele>
        <time>2015-07-03T08:54:17.395Z</time>
      </trkpt>
      <trkpt lat="45.94415" lon="4.72767">
        <ele>180</ele>
        <time>2015-07-03T08:54:18.397Z</time>
      </trkpt>
      <trkpt lat="45.94417" lon="4.72775">
        <ele>180.300003052</ele>
        <time>2015-07-03T08:54:19.415Z</time>
      </trkpt>
      <trkpt lat="45.94419" lon="4.72782">
        <ele>180.699996948</ele>
        <time>2015-07-03T08:54:20.393Z</time>
      </trkpt>
      <trkpt lat="45.9442" lon="4.72789">
        <ele>180.600006104</ele>
        <time>2015-07-03T08:54:21.39Z</time>
      </trkpt>
      <trkpt lat="45.94421" lon="4.72797">
        <ele>180.800003052</ele>
        <time>2015-07-03T08:54:22.423Z</time>
      </trkpt>
      <trkpt lat="45.94422" lon="4.72804">
        <ele>180.800003052</ele>
        <time>2015-07-03T08:54:23.396Z</time>
      </trkpt>
      <trkpt lat="45.94422" lon="4.72811">
        <ele>180.800003052</ele>
        <time>2015-07-03T08:54:24.394Z</time>
      </trkpt>
      <trkpt lat="45.94423" lon="4.72817">
        <ele>180.899993896</ele>
        <time>2015-07-03T08:54:25.392Z</time>
      </trkpt>
      <trkpt lat="45.94424" lon="4.72824">
        <ele>181.100006104</ele>
        <time>2015-07-03T08:54:26.454Z</time>
      </trkpt>
      <trkpt lat="45.94425" lon="4.7283">
        <ele>181.399993896</ele>
        <time>2015-07-03T08:54:27.396Z</time>
      </trkpt>
      <trkpt lat="45.94428" lon="4.72842">
        <ele>182.100006104</ele>
        <time>2015-07-03T08:54:29.392Z</time>
      </trkpt>
      <trkpt lat="45.94428" lon="4.72848">
        <ele>182.600006104</ele>
        <time>2015-07-03T08:54:30.395Z</time>
      </trkpt>
      <trkpt lat="45.9443" lon="4.72859">
        <ele>183.300003052</ele>
        <time>2015-07-03T08:54:32.506Z</time>
      </trkpt>
      <trkpt lat="45.94431" lon="4.72865">
        <ele>183.699996948</ele>
        <time>2015-07-03T08:54:33.393Z</time>
      </trkpt>
      <trkpt lat="45.94432" lon="4.72876">
        <ele>184.300003052</ele>
        <time>2015-07-03T08:54:35.395Z</time>
      </trkpt>
      <trkpt lat="45.94433" lon="4.72882">
        <ele>184.600006104</ele>
        <time>2015-07-03T08:54:36.394Z</time>
      </trkpt>
      <trkpt lat="45.94434" lon="4.72893">
        <ele>184.899993896</ele>
        <time>2015-07-03T08:54:38.394Z</time>
      </trkpt>
      <trkpt lat="45.94435" lon="4.72898">
        <ele>185.100006104</ele>
        <time>2015-07-03T08:54:39.393Z</time>
      </trkpt>
      <trkpt lat="45.94436" lon="4.7291">
        <ele>186.100006104</ele>
        <time>2015-07-03T08:54:41.393Z</time>
      </trkpt>
      <trkpt lat="45.94437" lon="4.72917">
        <ele>186.600006104</ele>
        <time>2015-07-03T08:54:42.405Z</time>
      </trkpt>
      <trkpt lat="45.94438" lon="4.72923">
        <ele>186.699996948</ele>
        <time>2015-07-03T08:54:43.552Z</time>
      </trkpt>
      <trkpt lat="45.94438" lon="4.7293">
        <ele>186.600006104</ele>
        <time>2015-07-03T08:54:44.395Z</time>
      </trkpt>
      <trkpt lat="45.94438" lon="4.72937">
        <ele>186.699996948</ele>
        <time>2015-07-03T08:54:45.392Z</time>
      </trkpt>
      <trkpt lat="45.94439" lon="4.72944">
        <ele>186.600006104</ele>
        <time>2015-07-03T08:54:46.393Z</time>
      </trkpt>
      <trkpt lat="45.9444" lon="4.72952">
        <ele>186.699996948</ele>
        <time>2015-07-03T08:54:47.393Z</time>
      </trkpt>
      <trkpt lat="45.94442" lon="4.7296">
        <ele>186.699996948</ele>
        <time>2015-07-03T08:54:48.394Z</time>
      </trkpt>
      <trkpt lat="45.94443" lon="4.72968">
        <ele>186.5</ele>
        <time>2015-07-03T08:54:49.398Z</time>
      </trkpt>
      <trkpt lat="45.94445" lon="4.72977">
        <ele>186.300003052</ele>
        <time>2015-07-03T08:54:50.392Z</time>
      </trkpt>
      <trkpt lat="45.94446" lon="4.72985">
        <ele>185.899993896</ele>
        <time>2015-07-03T08:54:51.392Z</time>
      </trkpt>
      <trkpt lat="45.94447" lon="4.72994">
        <ele>185.5</ele>
        <time>2015-07-03T08:54:52.392Z</time>
      </trkpt>
      <trkpt lat="45.94449" lon="4.73003">
        <ele>185.300003052</ele>
        <time>2015-07-03T08:54:53.393Z</time>
      </trkpt>
      <trkpt lat="45.9445" lon="4.73013">
        <ele>185.199996948</ele>
        <time>2015-07-03T08:54:54.395Z</time>
      </trkpt>
      <trkpt lat="45.94452" lon="4.73023">
        <ele>185.100006104</ele>
        <time>2015-07-03T08:54:55.395Z</time>
      </trkpt>
      <trkpt lat="45.94454" lon="4.73033">
        <ele>184.699996948</ele>
        <time>2015-07-03T08:54:56.394Z</time>
      </trkpt>
      <trkpt lat="45.94455" lon="4.73042">
        <ele>184.399993896</ele>
        <time>2015-07-03T08:54:57.436Z</time>
      </trkpt>
      <trkpt lat="45.94457" lon="4.73051">
        <ele>183.699996948</ele>
        <time>2015-07-03T08:54:58.409Z</time>
      </trkpt>
      <trkpt lat="45.94458" lon="4.73062">
        <ele>182.699996948</ele>
        <time>2015-07-03T08:54:59.393Z</time>
      </trkpt>
      <trkpt lat="45.9446" lon="4.73071">
        <ele>182.199996948</ele>
        <time>2015-07-03T08:55:00.395Z</time>
      </trkpt>
      <trkpt lat="45.94461" lon="4.7308">
        <ele>181.600006104</ele>
        <time>2015-07-03T08:55:01.392Z</time>
      </trkpt>
      <trkpt lat="45.94462" lon="4.73089">
        <ele>181.399993896</ele>
        <time>2015-07-03T08:55:02.392Z</time>
      </trkpt>
      <trkpt lat="45.94463" lon="4.73098">
        <ele>181</ele>
        <time>2015-07-03T08:55:03.394Z</time>
      </trkpt>
      <trkpt lat="45.94464" lon="4.73108">
        <ele>180.399993896</ele>
        <time>2015-07-03T08:55:04.395Z</time>
      </trkpt>
      <trkpt lat="45.94465" lon="4.73117">
        <ele>180.100006104</ele>
        <time>2015-07-03T08:55:05.394Z</time>
      </trkpt>
      <trkpt lat="45.94467" lon="4.73126">
        <ele>179.899993896</ele>
        <time>2015-07-03T08:55:06.395Z</time>
      </trkpt>
      <trkpt lat="45.94467" lon="4.73135">
        <ele>179.600006104</ele>
        <time>2015-07-03T08:55:07.394Z</time>
      </trkpt>
      <trkpt lat="45.94469" lon="4.73144">
        <ele>179.5</ele>
        <time>2015-07-03T08:55:08.393Z</time>
      </trkpt>
      <trkpt lat="45.9447" lon="4.73152">
        <ele>179.5</ele>
        <time>2015-07-03T08:55:09.394Z</time>
      </trkpt>
      <trkpt lat="45.94471" lon="4.73161">
        <ele>179.300003052</ele>
        <time>2015-07-03T08:55:10.391Z</time>
      </trkpt>
      <trkpt lat="45.94473" lon="4.73169">
        <ele>179.300003052</ele>
        <time>2015-07-03T08:55:11.391Z</time>
      </trkpt>
      <trkpt lat="45.94474" lon="4.73178">
        <ele>179.199996948</ele>
        <time>2015-07-03T08:55:12.395Z</time>
      </trkpt>
      <trkpt lat="45.94474" lon="4.73187">
        <ele>179.399993896</ele>
        <time>2015-07-03T08:55:13.413Z</time>
      </trkpt>
      <trkpt lat="45.94475" lon="4.73196">
        <ele>179.300003052</ele>
        <time>2015-07-03T08:55:14.409Z</time>
      </trkpt>
      <trkpt lat="45.94476" lon="4.73204">
        <ele>179.5</ele>
        <time>2015-07-03T08:55:15.397Z</time>
      </trkpt>
      <trkpt lat="45.94477" lon="4.73211">
        <ele>179.699996948</ele>
        <time>2015-07-03T08:55:16.394Z</time>
      </trkpt>
      <trkpt lat="45.94478" lon="4.73219">
        <ele>179.800003052</ele>
        <time>2015-07-03T08:55:17.393Z</time>
      </trkpt>
      <trkpt lat="45.94479" lon="4.73227">
        <ele>179.899993896</ele>
        <time>2015-07-03T08:55:18.404Z</time>
      </trkpt>
      <trkpt lat="45.9448" lon="4.73234">
        <ele>180.100006104</ele>
        <time>2015-07-03T08:55:19.523Z</time>
      </trkpt>
      <trkpt lat="45.9448" lon="4.7324">
        <ele>180.600006104</ele>
        <time>2015-07-03T08:55:20.394Z</time>
      </trkpt>
      <trkpt lat="45.94482" lon="4.73252">
        <ele>180.300003052</ele>
        <time>2015-07-03T08:55:22.393Z</time>
      </trkpt>
      <trkpt lat="45.94483" lon="4.73258">
        <ele>180.399993896</ele>
        <time>2015-07-03T08:55:23.395Z</time>
      </trkpt>
      <trkpt lat="45.94485" lon="4.7327">
        <ele>180.199996948</ele>
        <time>2015-07-03T08:55:25.393Z</time>
      </trkpt>
      <trkpt lat="45.94485" lon="4.73277">
        <ele>180.399993896</ele>
        <time>2015-07-03T08:55:26.394Z</time>
      </trkpt>
      <trkpt lat="45.94485" lon="4.73283">
        <ele>180.600006104</ele>
        <time>2015-07-03T08:55:27.488Z</time>
      </trkpt>
      <trkpt lat="45.94485" lon="4.7329">
        <ele>180.899993896</ele>
        <time>2015-07-03T08:55:28.393Z</time>
      </trkpt>
      <trkpt lat="45.94486" lon="4.73298">
        <ele>180.5</ele>
        <time>2015-07-03T08:55:29.391Z</time>
      </trkpt>
      <trkpt lat="45.94488" lon="4.73305">
        <ele>180</ele>
        <time>2015-07-03T08:55:30.413Z</time>
      </trkpt>
      <trkpt lat="45.94488" lon="4.73312">
        <ele>180</ele>
        <time>2015-07-03T08:55:31.393Z</time>
      </trkpt>
      <trkpt lat="45.9449" lon="4.73319">
        <ele>180</ele>
        <time>2015-07-03T08:55:32.394Z</time>
      </trkpt>
      <trkpt lat="45.94492" lon="4.73331">
        <ele>179.600006104</ele>
        <time>2015-07-03T08:55:34.391Z</time>
      </trkpt>
      <trkpt lat="45.94492" lon="4.73336">
        <ele>179.800003052</ele>
        <time>2015-07-03T08:55:35.394Z</time>
      </trkpt>
      <trkpt lat="45.94493" lon="4.73346">
        <ele>179.899993896</ele>
        <time>2015-07-03T08:55:37.391Z</time>
      </trkpt>
      <trkpt lat="45.94493" lon="4.7335">
        <ele>180.300003052</ele>
        <time>2015-07-03T08:55:38.393Z</time>
      </trkpt>
      <trkpt lat="45.94494" lon="4.73361">
        <ele>180.600006104</ele>
        <time>2015-07-03T08:55:40.385Z</time>
      </trkpt>
      <trkpt lat="45.94495" lon="4.73366">
        <ele>181</ele>
        <time>2015-07-03T08:55:41.398Z</time>
      </trkpt>
      <trkpt lat="45.94496" lon="4.73378">
        <ele>181.399993896</ele>
        <time>2015-07-03T08:55:43.394Z</time>
      </trkpt>
      <trkpt lat="45.94497" lon="4.73384">
        <ele>181.699996948</ele>
        <time>2015-07-03T08:55:44.392Z</time>
      </trkpt>
      <trkpt lat="45.94496" lon="4.73394">
        <ele>182</ele>
        <time>2015-07-03T08:55:46.393Z</time>
      </trkpt>
      <trkpt lat="45.94496" lon="4.734">
        <ele>182.300003052</ele>
        <time>2015-07-03T08:55:47.394Z</time>
      </trkpt>
      <trkpt lat="45.94496" lon="4.73412">
        <ele>182.699996948</ele>
        <time>2015-07-03T08:55:49.394Z</time>
      </trkpt>
      <trkpt lat="45.94497" lon="4.73419">
        <ele>183.199996948</ele>
        <time>2015-07-03T08:55:50.392Z</time>
      </trkpt>
      <trkpt lat="45.94497" lon="4.73425">
        <ele>183.600006104</ele>
        <time>2015-07-03T08:55:51.41Z</time>
      </trkpt>
      <trkpt lat="45.94497" lon="4.73432">
        <ele>184.100006104</ele>
        <time>2015-07-03T08:55:52.422Z</time>
      </trkpt>
      <trkpt lat="45.94498" lon="4.73444">
        <ele>184.899993896</ele>
        <time>2015-07-03T08:55:54.393Z</time>
      </trkpt>
      <trkpt lat="45.94498" lon="4.7345">
        <ele>185.300003052</ele>
        <time>2015-07-03T08:55:55.391Z</time>
      </trkpt>
      <trkpt lat="45.94498" lon="4.73462">
        <ele>186</ele>
        <time>2015-07-03T08:55:57.391Z</time>
      </trkpt>
      <trkpt lat="45.94499" lon="4.73467">
        <ele>186.300003052</ele>
        <time>2015-07-03T08:55:58.395Z</time>
      </trkpt>
      <trkpt lat="45.94499" lon="4.73479">
        <ele>187</ele>
        <time>2015-07-03T08:56:00.396Z</time>
      </trkpt>
      <trkpt lat="45.945" lon="4.73485">
        <ele>187.300003052</ele>
        <time>2015-07-03T08:56:01.391Z</time>
      </trkpt>
      <trkpt lat="45.94499" lon="4.73496">
        <ele>188</ele>
        <time>2015-07-03T08:56:03.395Z</time>
      </trkpt>
      <trkpt lat="45.94499" lon="4.73503">
        <ele>188.800003052</ele>
        <time>2015-07-03T08:56:04.391Z</time>
      </trkpt>
      <trkpt lat="45.94498" lon="4.73515">
        <ele>189.5</ele>
        <time>2015-07-03T08:56:06.394Z</time>
      </trkpt>
      <trkpt lat="45.94498" lon="4.73521">
        <ele>189.800003052</ele>
        <time>2015-07-03T08:56:07.397Z</time>
      </trkpt>
      <trkpt lat="45.94498" lon="4.73533">
        <ele>190.399993896</ele>
        <time>2015-07-03T08:56:09.391Z</time>
      </trkpt>
      <trkpt lat="45.94498" lon="4.73539">
        <ele>190.800003052</ele>
        <time>2015-07-03T08:56:10.395Z</time>
      </trkpt>
      <trkpt lat="45.94498" lon="4.73551">
        <ele>191.399993896</ele>
        <time>2015-07-03T08:56:12.412Z</time>
      </trkpt>
      <trkpt lat="45.94497" lon="4.73558">
        <ele>191.199996948</ele>
        <time>2015-07-03T08:56:13.394Z</time>
      </trkpt>
      <trkpt lat="45.94497" lon="4.73565">
        <ele>191.399993896</ele>
        <time>2015-07-03T08:56:14.415Z</time>
      </trkpt>
      <trkpt lat="45.94497" lon="4.73571">
        <ele>191.600006104</ele>
        <time>2015-07-03T08:56:15.39Z</time>
      </trkpt>
      <trkpt lat="45.94492" lon="4.73579">
        <ele>195</ele>
        <time>2015-07-03T08:56:18.432Z</time>
      </trkpt>
      <trkpt lat="45.94491" lon="4.73584">
        <ele>195.699996948</ele>
        <time>2015-07-03T08:56:19.412Z</time>
      </trkpt>
      <trkpt lat="45.9449" lon="4.73591">
        <ele>196.199996948</ele>
        <time>2015-07-03T08:56:20.564Z</time>
      </trkpt>
      <trkpt lat="45.9449" lon="4.73598">
        <ele>196.699996948</ele>
        <time>2015-07-03T08:56:21.472Z</time>
      </trkpt>
      <trkpt lat="45.94491" lon="4.73607">
        <ele>197.100006104</ele>
        <time>2015-07-03T08:56:22.423Z</time>
      </trkpt>
      <trkpt lat="45.94492" lon="4.73616">
        <ele>197.600006104</ele>
        <time>2015-07-03T08:56:23.399Z</time>
      </trkpt>
      <trkpt lat="45.94488" lon="4.73627">
        <ele>198</ele>
        <time>2015-07-03T08:56:25.396Z</time>
      </trkpt>
      <trkpt lat="45.94488" lon="4.73636">
        <ele>198.5</ele>
        <time>2015-07-03T08:56:26.397Z</time>
      </trkpt>
      <trkpt lat="45.94487" lon="4.73643">
        <ele>198.899993896</ele>
        <time>2015-07-03T08:56:27.398Z</time>
      </trkpt>
      <trkpt lat="45.94486" lon="4.73651">
        <ele>198.899993896</ele>
        <time>2015-07-03T08:56:28.394Z</time>
      </trkpt>
      <trkpt lat="45.94486" lon="4.73659">
        <ele>198.800003052</ele>
        <time>2015-07-03T08:56:29.393Z</time>
      </trkpt>
      <trkpt lat="45.94486" lon="4.73668">
        <ele>198.399993896</ele>
        <time>2015-07-03T08:56:30.396Z</time>
      </trkpt>
      <trkpt lat="45.94485" lon="4.73675">
        <ele>198.300003052</ele>
        <time>2015-07-03T08:56:31.416Z</time>
      </trkpt>
      <trkpt lat="45.94485" lon="4.73684">
        <ele>198.199996948</ele>
        <time>2015-07-03T08:56:32.406Z</time>
      </trkpt>
      <trkpt lat="45.94485" lon="4.73693">
        <ele>197.800003052</ele>
        <time>2015-07-03T08:56:33.394Z</time>
      </trkpt>
      <trkpt lat="45.94486" lon="4.73702">
        <ele>198</ele>
        <time>2015-07-03T08:56:34.39Z</time>
      </trkpt>
      <trkpt lat="45.94486" lon="4.73711">
        <ele>197.899993896</ele>
        <time>2015-07-03T08:56:35.403Z</time>
      </trkpt>
      <trkpt lat="45.94486" lon="4.7372">
        <ele>197.899993896</ele>
        <time>2015-07-03T08:56:36.392Z</time>
      </trkpt>
      <trkpt lat="45.94485" lon="4.73727">
        <ele>198.100006104</ele>
        <time>2015-07-03T08:56:37.394Z</time>
      </trkpt>
      <trkpt lat="45.94484" lon="4.73734">
        <ele>197.5</ele>
        <time>2015-07-03T08:56:38.496Z</time>
      </trkpt>
      <trkpt lat="45.94477" lon="4.73735">
        <ele>199.100006104</ele>
        <time>2015-07-03T08:56:39.426Z</time>
      </trkpt>
      <trkpt lat="45.94475" lon="4.7374">
        <ele>199.100006104</ele>
        <time>2015-07-03T08:56:40.446Z</time>
      </trkpt>
      <trkpt lat="45.94474" lon="4.73748">
        <ele>198.800003052</ele>
        <time>2015-07-03T08:56:41.523Z</time>
      </trkpt>
      <trkpt lat="45.94474" lon="4.73755">
        <ele>198.199996948</ele>
        <time>2015-07-03T08:56:42.396Z</time>
      </trkpt>
      <trkpt lat="45.94475" lon="4.73761">
        <ele>197.699996948</ele>
        <time>2015-07-03T08:56:43.393Z</time>
      </trkpt>
      <trkpt lat="45.94477" lon="4.73768">
        <ele>198.100006104</ele>
        <time>2015-07-03T08:56:44.394Z</time>
      </trkpt>
      <trkpt lat="45.9448" lon="4.73773">
        <ele>198.199996948</ele>
        <time>2015-07-03T08:56:45.391Z</time>
      </trkpt>
      <trkpt lat="45.94484" lon="4.73778">
        <ele>198.100006104</ele>
        <time>2015-07-03T08:56:46.394Z</time>
      </trkpt>
      <trkpt lat="45.94489" lon="4.73784">
        <ele>198</ele>
        <time>2015-07-03T08:56:47.391Z</time>
      </trkpt>
      <trkpt lat="45.94494" lon="4.73788">
        <ele>197.800003052</ele>
        <time>2015-07-03T08:56:48.393Z</time>
      </trkpt>
      <trkpt lat="45.94499" lon="4.7379">
        <ele>197.600006104</ele>
        <time>2015-07-03T08:56:49.408Z</time>
      </trkpt>
      <trkpt lat="45.94504" lon="4.73793">
        <ele>197.699996948</ele>
        <time>2015-07-03T08:56:50.393Z</time>
      </trkpt>
      <trkpt lat="45.94508" lon="4.73797">
        <ele>197.699996948</ele>
        <time>2015-07-03T08:56:51.392Z</time>
      </trkpt>
      <trkpt lat="45.94512" lon="4.73801">
        <ele>198</ele>
        <time>2015-07-03T08:56:52.393Z</time>
      </trkpt>
      <trkpt lat="45.94518" lon="4.7381">
        <ele>198.399993896</ele>
        <time>2015-07-03T08:56:54.396Z</time>
      </trkpt>
      <trkpt lat="45.9452" lon="4.73813">
        <ele>198.600006104</ele>
        <time>2015-07-03T08:56:55.395Z</time>
      </trkpt>
      <trkpt lat="45.94525" lon="4.73819">
        <ele>198.699996948</ele>
        <time>2015-07-03T08:56:56.393Z</time>
      </trkpt>
      <trkpt lat="45.9453" lon="4.73823">
        <ele>199.100006104</ele>
        <time>2015-07-03T08:56:57.391Z</time>
      </trkpt>
      <trkpt lat="45.94535" lon="4.73828">
        <ele>199.5</ele>
        <time>2015-07-03T08:56:58.392Z</time>
      </trkpt>
      <trkpt lat="45.94539" lon="4.73832">
        <ele>199.600006104</ele>
        <time>2015-07-03T08:56:59.397Z</time>
      </trkpt>
      <trkpt lat="45.94543" lon="4.73836">
        <ele>199.699996948</ele>
        <time>2015-07-03T08:57:00.429Z</time>
      </trkpt>
      <trkpt lat="45.94547" lon="4.73841">
        <ele>199.800003052</ele>
        <time>2015-07-03T08:57:01.391Z</time>
      </trkpt>
      <trkpt lat="45.94551" lon="4.73844">
        <ele>199.899993896</ele>
        <time>2015-07-03T08:57:02.422Z</time>
      </trkpt>
      <trkpt lat="45.94555" lon="4.73848">
        <ele>200.100006104</ele>
        <time>2015-07-03T08:57:03.392Z</time>
      </trkpt>
      <trkpt lat="45.94559" lon="4.73852">
        <ele>200.399993896</ele>
        <time>2015-07-03T08:57:04.391Z</time>
      </trkpt>
      <trkpt lat="45.94562" lon="4.73856">
        <ele>200.600006104</ele>
        <time>2015-07-03T08:57:05.391Z</time>
      </trkpt>
      <trkpt lat="45.94566" lon="4.73859">
        <ele>200.600006104</ele>
        <time>2015-07-03T08:57:06.392Z</time>
      </trkpt>
      <trkpt lat="45.9457" lon="4.73863">
        <ele>200.5</ele>
        <time>2015-07-03T08:57:07.391Z</time>
      </trkpt>
      <trkpt lat="45.94578" lon="4.7387">
        <ele>200.199996948</ele>
        <time>2015-07-03T08:57:09.391Z</time>
      </trkpt>
      <trkpt lat="45.94581" lon="4.73874">
        <ele>200.100006104</ele>
        <time>2015-07-03T08:57:10.395Z</time>
      </trkpt>
      <trkpt lat="45.94584" lon="4.73878">
        <ele>200.199996948</ele>
        <time>2015-07-03T08:57:11.393Z</time>
      </trkpt>
      <trkpt lat="45.94588" lon="4.73883">
        <ele>200.199996948</ele>
        <time>2015-07-03T08:57:12.391Z</time>
      </trkpt>
      <trkpt lat="45.94591" lon="4.73887">
        <ele>200.199996948</ele>
        <time>2015-07-03T08:57:13.391Z</time>
      </trkpt>
      <trkpt lat="45.94595" lon="4.73891">
        <ele>200.199996948</ele>
        <time>2015-07-03T08:57:14.392Z</time>
      </trkpt>
      <trkpt lat="45.94602" lon="4.73899">
        <ele>200.300003052</ele>
        <time>2015-07-03T08:57:16.393Z</time>
      </trkpt>
      <trkpt lat="45.94606" lon="4.73902">
        <ele>200.600006104</ele>
        <time>2015-07-03T08:57:17.412Z</time>
      </trkpt>
      <trkpt lat="45.94609" lon="4.73906">
        <ele>200.699996948</ele>
        <time>2015-07-03T08:57:18.406Z</time>
      </trkpt>
      <trkpt lat="45.94615" lon="4.73913">
        <ele>200.5</ele>
        <time>2015-07-03T08:57:19.392Z</time>
      </trkpt>
      <trkpt lat="45.94619" lon="4.73919">
        <ele>200.5</ele>
        <time>2015-07-03T08:57:20.522Z</time>
      </trkpt>
      <trkpt lat="45.94623" lon="4.73925">
        <ele>200.399993896</ele>
        <time>2015-07-03T08:57:21.431Z</time>
      </trkpt>
      <trkpt lat="45.94626" lon="4.7393">
        <ele>199.899993896</ele>
        <time>2015-07-03T08:57:22.543Z</time>
      </trkpt>
      <trkpt lat="45.94631" lon="4.73935">
        <ele>200.100006104</ele>
        <time>2015-07-03T08:57:23.406Z</time>
      </trkpt>
      <trkpt lat="45.94635" lon="4.7394">
        <ele>200.800003052</ele>
        <time>2015-07-03T08:57:24.59Z</time>
      </trkpt>
      <trkpt lat="45.94639" lon="4.73944">
        <ele>200.100006104</ele>
        <time>2015-07-03T08:57:25.399Z</time>
      </trkpt>
      <trkpt lat="45.94643" lon="4.73949">
        <ele>200.199996948</ele>
        <time>2015-07-03T08:57:26.497Z</time>
      </trkpt>
      <trkpt lat="45.94646" lon="4.73954">
        <ele>200.399993896</ele>
        <time>2015-07-03T08:57:27.426Z</time>
      </trkpt>
      <trkpt lat="45.9465" lon="4.73959">
        <ele>200.5</ele>
        <time>2015-07-03T08:57:28.406Z</time>
      </trkpt>
      <trkpt lat="45.94654" lon="4.73963">
        <ele>200.699996948</ele>
        <time>2015-07-03T08:57:29.397Z</time>
      </trkpt>
      <trkpt lat="45.94657" lon="4.73967">
        <ele>200.699996948</ele>
        <time>2015-07-03T08:57:30.401Z</time>
      </trkpt>
      <trkpt lat="45.94661" lon="4.73972">
        <ele>200.899993896</ele>
        <time>2015-07-03T08:57:31.395Z</time>
      </trkpt>
      <trkpt lat="45.94664" lon="4.73977">
        <ele>200.699996948</ele>
        <time>2015-07-03T08:57:32.433Z</time>
      </trkpt>
      <trkpt lat="45.94668" lon="4.73982">
        <ele>200.300003052</ele>
        <time>2015-07-03T08:57:33.395Z</time>
      </trkpt>
      <trkpt lat="45.94671" lon="4.73987">
        <ele>200.100006104</ele>
        <time>2015-07-03T08:57:34.397Z</time>
      </trkpt>
      <trkpt lat="45.94675" lon="4.73993">
        <ele>200.100006104</ele>
        <time>2015-07-03T08:57:35.394Z</time>
      </trkpt>
      <trkpt lat="45.94679" lon="4.73998">
        <ele>199.899993896</ele>
        <time>2015-07-03T08:57:36.408Z</time>
      </trkpt>
      <trkpt lat="45.94683" lon="4.74003">
        <ele>199.800003052</ele>
        <time>2015-07-03T08:57:37.391Z</time>
      </trkpt>
      <trkpt lat="45.94686" lon="4.74008">
        <ele>199.699996948</ele>
        <time>2015-07-03T08:57:38.392Z</time>
      </trkpt>
      <trkpt lat="45.9469" lon="4.74013">
        <ele>199.699996948</ele>
        <time>2015-07-03T08:57:39.446Z</time>
      </trkpt>
      <trkpt lat="45.94694" lon="4.74018">
        <ele>199.600006104</ele>
        <time>2015-07-03T08:57:40.446Z</time>
      </trkpt>
      <trkpt lat="45.94697" lon="4.74024">
        <ele>199.899993896</ele>
        <time>2015-07-03T08:57:41.395Z</time>
      </trkpt>
      <trkpt lat="45.947" lon="4.74029">
        <ele>200</ele>
        <time>2015-07-03T08:57:42.394Z</time>
      </trkpt>
      <trkpt lat="45.94704" lon="4.74033">
        <ele>199.800003052</ele>
        <time>2015-07-03T08:57:43.391Z</time>
      </trkpt>
      <trkpt lat="45.94707" lon="4.74038">
        <ele>199.600006104</ele>
        <time>2015-07-03T08:57:44.393Z</time>
      </trkpt>
      <trkpt lat="45.94711" lon="4.74042">
        <ele>199.300003052</ele>
        <time>2015-07-03T08:57:45.395Z</time>
      </trkpt>
      <trkpt lat="45.94714" lon="4.74047">
        <ele>199.199996948</ele>
        <time>2015-07-03T08:57:46.43Z</time>
      </trkpt>
      <trkpt lat="45.94718" lon="4.74052">
        <ele>199.300003052</ele>
        <time>2015-07-03T08:57:47.395Z</time>
      </trkpt>
      <trkpt lat="45.94721" lon="4.74056">
        <ele>199.199996948</ele>
        <time>2015-07-03T08:57:48.393Z</time>
      </trkpt>
      <trkpt lat="45.94725" lon="4.74061">
        <ele>199.100006104</ele>
        <time>2015-07-03T08:57:49.394Z</time>
      </trkpt>
      <trkpt lat="45.94728" lon="4.74066">
        <ele>198.600006104</ele>
        <time>2015-07-03T08:57:50.393Z</time>
      </trkpt>
      <trkpt lat="45.94732" lon="4.74071">
        <ele>198</ele>
        <time>2015-07-03T08:57:51.45Z</time>
      </trkpt>
      <trkpt lat="45.94736" lon="4.74075">
        <ele>197</ele>
        <time>2015-07-03T08:57:52.419Z</time>
      </trkpt>
      <trkpt lat="45.9474" lon="4.74079">
        <ele>196.5</ele>
        <time>2015-07-03T08:57:53.414Z</time>
      </trkpt>
      <trkpt lat="45.94743" lon="4.74083">
        <ele>196.100006104</ele>
        <time>2015-07-03T08:57:54.395Z</time>
      </trkpt>
      <trkpt lat="45.94747" lon="4.74087">
        <ele>195.699996948</ele>
        <time>2015-07-03T08:57:55.394Z</time>
      </trkpt>
      <trkpt lat="45.94751" lon="4.74092">
        <ele>195.600006104</ele>
        <time>2015-07-03T08:57:56.395Z</time>
      </trkpt>
      <trkpt lat="45.94754" lon="4.74096">
        <ele>195.399993896</ele>
        <time>2015-07-03T08:57:57.391Z</time>
      </trkpt>
      <trkpt lat="45.94761" lon="4.74104">
        <ele>195</ele>
        <time>2015-07-03T08:57:59.391Z</time>
      </trkpt>
      <trkpt lat="45.94764" lon="4.74109">
        <ele>194.899993896</ele>
        <time>2015-07-03T08:58:00.396Z</time>
      </trkpt>
      <trkpt lat="45.94768" lon="4.74115">
        <ele>194.800003052</ele>
        <time>2015-07-03T08:58:01.391Z</time>
      </trkpt>
      <trkpt lat="45.94772" lon="4.7412">
        <ele>194.5</ele>
        <time>2015-07-03T08:58:02.408Z</time>
      </trkpt>
      <trkpt lat="45.94775" lon="4.74126">
        <ele>194.5</ele>
        <time>2015-07-03T08:58:03.395Z</time>
      </trkpt>
      <trkpt lat="45.94779" lon="4.74131">
        <ele>194.300003052</ele>
        <time>2015-07-03T08:58:04.395Z</time>
      </trkpt>
      <trkpt lat="45.94782" lon="4.74136">
        <ele>194.100006104</ele>
        <time>2015-07-03T08:58:05.432Z</time>
      </trkpt>
      <trkpt lat="45.94785" lon="4.74141">
        <ele>193.899993896</ele>
        <time>2015-07-03T08:58:06.393Z</time>
      </trkpt>
      <trkpt lat="45.94788" lon="4.74147">
        <ele>193.699996948</ele>
        <time>2015-07-03T08:58:07.391Z</time>
      </trkpt>
      <trkpt lat="45.94792" lon="4.74153">
        <ele>193.800003052</ele>
        <time>2015-07-03T08:58:08.392Z</time>
      </trkpt>
      <trkpt lat="45.94796" lon="4.74159">
        <ele>193.199996948</ele>
        <time>2015-07-03T08:58:09.434Z</time>
      </trkpt>
      <trkpt lat="45.94799" lon="4.74165">
        <ele>193.300003052</ele>
        <time>2015-07-03T08:58:10.391Z</time>
      </trkpt>
      <trkpt lat="45.94802" lon="4.74171">
        <ele>193.199996948</ele>
        <time>2015-07-03T08:58:11.395Z</time>
      </trkpt>
      <trkpt lat="45.94804" lon="4.74177">
        <ele>193.5</ele>
        <time>2015-07-03T08:58:12.395Z</time>
      </trkpt>
      <trkpt lat="45.94808" lon="4.74184">
        <ele>193.399993896</ele>
        <time>2015-07-03T08:58:13.394Z</time>
      </trkpt>
      <trkpt lat="45.94812" lon="4.7419">
        <ele>193.199996948</ele>
        <time>2015-07-03T08:58:14.393Z</time>
      </trkpt>
      <trkpt lat="45.94816" lon="4.74197">
        <ele>193.199996948</ele>
        <time>2015-07-03T08:58:15.4Z</time>
      </trkpt>
      <trkpt lat="45.9482" lon="4.74203">
        <ele>193.199996948</ele>
        <time>2015-07-03T08:58:16.394Z</time>
      </trkpt>
      <trkpt lat="45.94823" lon="4.74209">
        <ele>193.100006104</ele>
        <time>2015-07-03T08:58:17.391Z</time>
      </trkpt>
      <trkpt lat="45.94827" lon="4.74214">
        <ele>193</ele>
        <time>2015-07-03T08:58:18.412Z</time>
      </trkpt>
      <trkpt lat="45.94831" lon="4.7422">
        <ele>192.899993896</ele>
        <time>2015-07-03T08:58:19.394Z</time>
      </trkpt>
      <trkpt lat="45.94833" lon="4.74227">
        <ele>192.899993896</ele>
        <time>2015-07-03T08:58:20.391Z</time>
      </trkpt>
      <trkpt lat="45.94836" lon="4.74234">
        <ele>192.600006104</ele>
        <time>2015-07-03T08:58:21.413Z</time>
      </trkpt>
      <trkpt lat="45.9484" lon="4.7424">
        <ele>192.399993896</ele>
        <time>2015-07-03T08:58:22.393Z</time>
      </trkpt>
      <trkpt lat="45.94843" lon="4.74246">
        <ele>192.600006104</ele>
        <time>2015-07-03T08:58:23.391Z</time>
      </trkpt>
      <trkpt lat="45.94847" lon="4.74252">
        <ele>192.600006104</ele>
        <time>2015-07-03T08:58:24.422Z</time>
      </trkpt>
      <trkpt lat="45.9485" lon="4.74258">
        <ele>192.5</ele>
        <time>2015-07-03T08:58:25.414Z</time>
      </trkpt>
      <trkpt lat="45.94853" lon="4.74264">
        <ele>192.800003052</ele>
        <time>2015-07-03T08:58:26.394Z</time>
      </trkpt>
      <trkpt lat="45.94856" lon="4.74271">
        <ele>193.199996948</ele>
        <time>2015-07-03T08:58:27.397Z</time>
      </trkpt>
      <trkpt lat="45.9486" lon="4.74277">
        <ele>193.600006104</ele>
        <time>2015-07-03T08:58:28.394Z</time>
      </trkpt>
      <trkpt lat="45.94863" lon="4.74283">
        <ele>193.600006104</ele>
        <time>2015-07-03T08:58:29.399Z</time>
      </trkpt>
      <trkpt lat="45.94866" lon="4.74289">
        <ele>193.699996948</ele>
        <time>2015-07-03T08:58:30.396Z</time>
      </trkpt>
      <trkpt lat="45.94869" lon="4.74296">
        <ele>193.899993896</ele>
        <time>2015-07-03T08:58:31.391Z</time>
      </trkpt>
      <trkpt lat="45.94872" lon="4.74303">
        <ele>193.899993896</ele>
        <time>2015-07-03T08:58:32.392Z</time>
      </trkpt>
      <trkpt lat="45.94875" lon="4.74309">
        <ele>193.899993896</ele>
        <time>2015-07-03T08:58:33.391Z</time>
      </trkpt>
      <trkpt lat="45.94878" lon="4.74315">
        <ele>193.800003052</ele>
        <time>2015-07-03T08:58:34.408Z</time>
      </trkpt>
      <trkpt lat="45.94881" lon="4.74321">
        <ele>194.100006104</ele>
        <time>2015-07-03T08:58:35.39Z</time>
      </trkpt>
      <trkpt lat="45.94884" lon="4.74327">
        <ele>194.5</ele>
        <time>2015-07-03T08:58:36.395Z</time>
      </trkpt>
      <trkpt lat="45.94887" lon="4.74333">
        <ele>194.5</ele>
        <time>2015-07-03T08:58:37.394Z</time>
      </trkpt>
      <trkpt lat="45.9489" lon="4.74339">
        <ele>194.600006104</ele>
        <time>2015-07-03T08:58:38.392Z</time>
      </trkpt>
      <trkpt lat="45.94893" lon="4.74345">
        <ele>195</ele>
        <time>2015-07-03T08:58:39.394Z</time>
      </trkpt>
      <trkpt lat="45.94896" lon="4.74351">
        <ele>195.300003052</ele>
        <time>2015-07-03T08:58:40.391Z</time>
      </trkpt>
      <trkpt lat="45.949" lon="4.74357">
        <ele>195.399993896</ele>
        <time>2015-07-03T08:58:41.799Z</time>
      </trkpt>
      <trkpt lat="45.94903" lon="4.74363">
        <ele>195.699996948</ele>
        <time>2015-07-03T08:58:42.393Z</time>
      </trkpt>
      <trkpt lat="45.94906" lon="4.74369">
        <ele>195.800003052</ele>
        <time>2015-07-03T08:58:43.393Z</time>
      </trkpt>
      <trkpt lat="45.94909" lon="4.74375">
        <ele>196.100006104</ele>
        <time>2015-07-03T08:58:44.394Z</time>
      </trkpt>
      <trkpt lat="45.94911" lon="4.74381">
        <ele>196.5</ele>
        <time>2015-07-03T08:58:45.464Z</time>
      </trkpt>
      <trkpt lat="45.94915" lon="4.74386">
        <ele>196.699996948</ele>
        <time>2015-07-03T08:58:46.397Z</time>
      </trkpt>
      <trkpt lat="45.94919" lon="4.74392">
        <ele>196.899993896</ele>
        <time>2015-07-03T08:58:47.396Z</time>
      </trkpt>
      <trkpt lat="45.94923" lon="4.74398">
        <ele>196.899993896</ele>
        <time>2015-07-03T08:58:48.396Z</time>
      </trkpt>
      <trkpt lat="45.94929" lon="4.74404">
        <ele>196.899993896</ele>
        <time>2015-07-03T08:58:49.416Z</time>
      </trkpt>
      <trkpt lat="45.94935" lon="4.74412">
        <ele>197.300003052</ele>
        <time>2015-07-03T08:58:50.469Z</time>
      </trkpt>
      <trkpt lat="45.94937" lon="4.74422">
        <ele>197.399993896</ele>
        <time>2015-07-03T08:58:52.396Z</time>
      </trkpt>
      <trkpt lat="45.94939" lon="4.74429">
        <ele>197.300003052</ele>
        <time>2015-07-03T08:58:53.405Z</time>
      </trkpt>
      <trkpt lat="45.94943" lon="4.74436">
        <ele>197.100006104</ele>
        <time>2015-07-03T08:58:54.544Z</time>
      </trkpt>
      <trkpt lat="45.94945" lon="4.7444">
        <ele>196.899993896</ele>
        <time>2015-07-03T08:58:55.399Z</time>
      </trkpt>
      <trkpt lat="45.94948" lon="4.74447">
        <ele>196.600006104</ele>
        <time>2015-07-03T08:58:56.416Z</time>
      </trkpt>
      <trkpt lat="45.94951" lon="4.74453">
        <ele>196.399993896</ele>
        <time>2015-07-03T08:58:57.393Z</time>
      </trkpt>
      <trkpt lat="45.94954" lon="4.74459">
        <ele>196.300003052</ele>
        <time>2015-07-03T08:58:58.416Z</time>
      </trkpt>
      <trkpt lat="45.94957" lon="4.74466">
        <ele>196</ele>
        <time>2015-07-03T08:58:59.386Z</time>
      </trkpt>
      <trkpt lat="45.9496" lon="4.74472">
        <ele>195.899993896</ele>
        <time>2015-07-03T08:59:00.53Z</time>
      </trkpt>
      <trkpt lat="45.94962" lon="4.74477">
        <ele>196.199996948</ele>
        <time>2015-07-03T08:59:01.406Z</time>
      </trkpt>
      <trkpt lat="45.94964" lon="4.74483">
        <ele>196.399993896</ele>
        <time>2015-07-03T08:59:02.457Z</time>
      </trkpt>
      <trkpt lat="45.94968" lon="4.74488">
        <ele>196.300003052</ele>
        <time>2015-07-03T08:59:03.392Z</time>
      </trkpt>
      <trkpt lat="45.94972" lon="4.74494">
        <ele>196.300003052</ele>
        <time>2015-07-03T08:59:04.391Z</time>
      </trkpt>
      <trkpt lat="45.94974" lon="4.74499">
        <ele>196.300003052</ele>
        <time>2015-07-03T08:59:05.391Z</time>
      </trkpt>
      <trkpt lat="45.94977" lon="4.74505">
        <ele>196.699996948</ele>
        <time>2015-07-03T08:59:06.514Z</time>
      </trkpt>
      <trkpt lat="45.9498" lon="4.74511">
        <ele>196.5</ele>
        <time>2015-07-03T08:59:07.398Z</time>
      </trkpt>
      <trkpt lat="45.94983" lon="4.74516">
        <ele>196</ele>
        <time>2015-07-03T08:59:08.677Z</time>
      </trkpt>
      <trkpt lat="45.94988" lon="4.74524">
        <ele>197</ele>
        <time>2015-07-03T08:59:09.452Z</time>
      </trkpt>
      <trkpt lat="45.94992" lon="4.74532">
        <ele>197.300003052</ele>
        <time>2015-07-03T08:59:10.506Z</time>
      </trkpt>
      <trkpt lat="45.94996" lon="4.74539">
        <ele>197.199996948</ele>
        <time>2015-07-03T08:59:11.68Z</time>
      </trkpt>
      <trkpt lat="45.94998" lon="4.74545">
        <ele>197.199996948</ele>
        <time>2015-07-03T08:59:12.88Z</time>
      </trkpt>
      <trkpt lat="45.95001" lon="4.74551">
        <ele>197.300003052</ele>
        <time>2015-07-03T08:59:13.633Z</time>
      </trkpt>
      <trkpt lat="45.95004" lon="4.74562">
        <ele>197.699996948</ele>
        <time>2015-07-03T08:59:15.851Z</time>
      </trkpt>
      <trkpt lat="45.95006" lon="4.74567">
        <ele>197.800003052</ele>
        <time>2015-07-03T08:59:16.624Z</time>
      </trkpt>
      <trkpt lat="45.95007" lon="4.74572">
        <ele>198.100006104</ele>
        <time>2015-07-03T08:59:17.536Z</time>
      </trkpt>
      <trkpt lat="45.95012" lon="4.74578">
        <ele>198.100006104</ele>
        <time>2015-07-03T08:59:18.402Z</time>
      </trkpt>
      <trkpt lat="45.95015" lon="4.74584">
        <ele>198.300003052</ele>
        <time>2015-07-03T08:59:19.488Z</time>
      </trkpt>
      <trkpt lat="45.95018" lon="4.74589">
        <ele>198.600006104</ele>
        <time>2015-07-03T08:59:20.409Z</time>
      </trkpt>
      <trkpt lat="45.95021" lon="4.74594">
        <ele>198.699996948</ele>
        <time>2015-07-03T08:59:21.592Z</time>
      </trkpt>
      <trkpt lat="45.95024" lon="4.746">
        <ele>199.100006104</ele>
        <time>2015-07-03T08:59:22.407Z</time>
      </trkpt>
      <trkpt lat="45.95028" lon="4.74605">
        <ele>199.5</ele>
        <time>2015-07-03T08:59:23.536Z</time>
      </trkpt>
      <trkpt lat="45.95031" lon="4.7461">
        <ele>199.800003052</ele>
        <time>2015-07-03T08:59:24.408Z</time>
      </trkpt>
      <trkpt lat="45.95033" lon="4.74616">
        <ele>199.399993896</ele>
        <time>2015-07-03T08:59:25.428Z</time>
      </trkpt>
      <trkpt lat="45.95037" lon="4.74622">
        <ele>199.399993896</ele>
        <time>2015-07-03T08:59:26.427Z</time>
      </trkpt>
      <trkpt lat="45.95041" lon="4.74628">
        <ele>199.199996948</ele>
        <time>2015-07-03T08:59:27.477Z</time>
      </trkpt>
      <trkpt lat="45.95044" lon="4.74634">
        <ele>199.300003052</ele>
        <time>2015-07-03T08:59:28.398Z</time>
      </trkpt>
      <trkpt lat="45.95047" lon="4.7464">
        <ele>199.699996948</ele>
        <time>2015-07-03T08:59:29.396Z</time>
      </trkpt>
      <trkpt lat="45.9505" lon="4.74646">
        <ele>199.600006104</ele>
        <time>2015-07-03T08:59:30.399Z</time>
      </trkpt>
      <trkpt lat="45.95053" lon="4.74652">
        <ele>199.800003052</ele>
        <time>2015-07-03T08:59:31.395Z</time>
      </trkpt>
      <trkpt lat="45.95056" lon="4.74658">
        <ele>200</ele>
        <time>2015-07-03T08:59:32.395Z</time>
      </trkpt>
      <trkpt lat="45.9506" lon="4.74664">
        <ele>199.800003052</ele>
        <time>2015-07-03T08:59:33.396Z</time>
      </trkpt>
      <trkpt lat="45.95064" lon="4.7467">
        <ele>199.600006104</ele>
        <time>2015-07-03T08:59:34.394Z</time>
      </trkpt>
      <trkpt lat="45.95067" lon="4.74676">
        <ele>199.600006104</ele>
        <time>2015-07-03T08:59:35.546Z</time>
      </trkpt>
      <trkpt lat="45.95071" lon="4.74682">
        <ele>200.100006104</ele>
        <time>2015-07-03T08:59:36.397Z</time>
      </trkpt>
      <trkpt lat="45.95074" lon="4.74689">
        <ele>200.100006104</ele>
        <time>2015-07-03T08:59:37.413Z</time>
      </trkpt>
      <trkpt lat="45.95078" lon="4.74695">
        <ele>200.100006104</ele>
        <time>2015-07-03T08:59:38.395Z</time>
      </trkpt>
      <trkpt lat="45.95081" lon="4.74702">
        <ele>200.399993896</ele>
        <time>2015-07-03T08:59:39.396Z</time>
      </trkpt>
      <trkpt lat="45.95084" lon="4.74708">
        <ele>200.800003052</ele>
        <time>2015-07-03T08:59:40.416Z</time>
      </trkpt>
      <trkpt lat="45.95087" lon="4.74714">
        <ele>201.100006104</ele>
        <time>2015-07-03T08:59:41.396Z</time>
      </trkpt>
      <trkpt lat="45.95091" lon="4.7472">
        <ele>201.5</ele>
        <time>2015-07-03T08:59:42.4Z</time>
      </trkpt>
      <trkpt lat="45.95095" lon="4.74726">
        <ele>201.600006104</ele>
        <time>2015-07-03T08:59:43.394Z</time>
      </trkpt>
      <trkpt lat="45.95099" lon="4.74731">
        <ele>201.5</ele>
        <time>2015-07-03T08:59:44.396Z</time>
      </trkpt>
      <trkpt lat="45.95102" lon="4.74737">
        <ele>201.5</ele>
        <time>2015-07-03T08:59:45.397Z</time>
      </trkpt>
      <trkpt lat="45.95106" lon="4.74743">
        <ele>201.699996948</ele>
        <time>2015-07-03T08:59:46.395Z</time>
      </trkpt>
      <trkpt lat="45.9511" lon="4.74749">
        <ele>201.699996948</ele>
        <time>2015-07-03T08:59:47.395Z</time>
      </trkpt>
      <trkpt lat="45.95114" lon="4.74754">
        <ele>201.899993896</ele>
        <time>2015-07-03T08:59:48.396Z</time>
      </trkpt>
      <trkpt lat="45.95117" lon="4.7476">
        <ele>202.100006104</ele>
        <time>2015-07-03T08:59:49.391Z</time>
      </trkpt>
      <trkpt lat="45.9512" lon="4.74766">
        <ele>202.399993896</ele>
        <time>2015-07-03T08:59:50.393Z</time>
      </trkpt>
      <trkpt lat="45.95124" lon="4.74771">
        <ele>202.5</ele>
        <time>2015-07-03T08:59:51.426Z</time>
      </trkpt>
      <trkpt lat="45.95128" lon="4.74777">
        <ele>202.5</ele>
        <time>2015-07-03T08:59:52.392Z</time>
      </trkpt>
      <trkpt lat="45.95131" lon="4.74783">
        <ele>202.199996948</ele>
        <time>2015-07-03T08:59:53.413Z</time>
      </trkpt>
      <trkpt lat="45.95135" lon="4.7479">
        <ele>202.899993896</ele>
        <time>2015-07-03T08:59:54.396Z</time>
      </trkpt>
      <trkpt lat="45.95138" lon="4.74797">
        <ele>203.199996948</ele>
        <time>2015-07-03T08:59:55.391Z</time>
      </trkpt>
      <trkpt lat="45.95141" lon="4.74803">
        <ele>203.399993896</ele>
        <time>2015-07-03T08:59:56.394Z</time>
      </trkpt>
      <trkpt lat="45.95145" lon="4.74809">
        <ele>203.600006104</ele>
        <time>2015-07-03T08:59:57.394Z</time>
      </trkpt>
      <trkpt lat="45.95149" lon="4.74815">
        <ele>203.800003052</ele>
        <time>2015-07-03T08:59:58.391Z</time>
      </trkpt>
      <trkpt lat="45.95153" lon="4.74821">
        <ele>204</ele>
        <time>2015-07-03T08:59:59.392Z</time>
      </trkpt>
      <trkpt lat="45.95157" lon="4.74827">
        <ele>204.399993896</ele>
        <time>2015-07-03T09:00:00.396Z</time>
      </trkpt>
      <trkpt lat="45.95161" lon="4.74834">
        <ele>204.600006104</ele>
        <time>2015-07-03T09:00:01.395Z</time>
      </trkpt>
      <trkpt lat="45.95164" lon="4.7484">
        <ele>205</ele>
        <time>2015-07-03T09:00:02.395Z</time>
      </trkpt>
      <trkpt lat="45.95168" lon="4.74845">
        <ele>205.199996948</ele>
        <time>2015-07-03T09:00:03.395Z</time>
      </trkpt>
      <trkpt lat="45.95172" lon="4.74851">
        <ele>205.100006104</ele>
        <time>2015-07-03T09:00:04.394Z</time>
      </trkpt>
      <trkpt lat="45.95175" lon="4.74856">
        <ele>205</ele>
        <time>2015-07-03T09:00:05.392Z</time>
      </trkpt>
      <trkpt lat="45.95179" lon="4.74862">
        <ele>204.800003052</ele>
        <time>2015-07-03T09:00:06.398Z</time>
      </trkpt>
      <trkpt lat="45.95182" lon="4.74867">
        <ele>204.300003052</ele>
        <time>2015-07-03T09:00:07.485Z</time>
      </trkpt>
      <trkpt lat="45.95186" lon="4.74873">
        <ele>204.100006104</ele>
        <time>2015-07-03T09:00:08.393Z</time>
      </trkpt>
      <trkpt lat="45.95191" lon="4.74879">
        <ele>204.199996948</ele>
        <time>2015-07-03T09:00:09.48Z</time>
      </trkpt>
      <trkpt lat="45.95196" lon="4.74884">
        <ele>203.800003052</ele>
        <time>2015-07-03T09:00:10.394Z</time>
      </trkpt>
      <trkpt lat="45.952" lon="4.74889">
        <ele>204</ele>
        <time>2015-07-03T09:00:12.094Z</time>
      </trkpt>
      <trkpt lat="45.95203" lon="4.74892">
        <ele>204.399993896</ele>
        <time>2015-07-03T09:00:12.902Z</time>
      </trkpt>
      <trkpt lat="45.95207" lon="4.74899">
        <ele>204.300003052</ele>
        <time>2015-07-03T09:00:13.402Z</time>
      </trkpt>
      <trkpt lat="45.95212" lon="4.74905">
        <ele>204.199996948</ele>
        <time>2015-07-03T09:00:14.724Z</time>
      </trkpt>
      <trkpt lat="45.95216" lon="4.74912">
        <ele>204</ele>
        <time>2015-07-03T09:00:15.571Z</time>
      </trkpt>
      <trkpt lat="45.9522" lon="4.74918">
        <ele>203.699996948</ele>
        <time>2015-07-03T09:00:16.451Z</time>
      </trkpt>
      <trkpt lat="45.95225" lon="4.74924">
        <ele>203.5</ele>
        <time>2015-07-03T09:00:17.643Z</time>
      </trkpt>
      <trkpt lat="45.95229" lon="4.7493">
        <ele>203</ele>
        <time>2015-07-03T09:00:18.418Z</time>
      </trkpt>
      <trkpt lat="45.95233" lon="4.74936">
        <ele>202.600006104</ele>
        <time>2015-07-03T09:00:19.421Z</time>
      </trkpt>
      <trkpt lat="45.95236" lon="4.74942">
        <ele>202.199996948</ele>
        <time>2015-07-03T09:00:20.395Z</time>
      </trkpt>
      <trkpt lat="45.9524" lon="4.74948">
        <ele>201.899993896</ele>
        <time>2015-07-03T09:00:21.405Z</time>
      </trkpt>
      <trkpt lat="45.95244" lon="4.74954">
        <ele>201.300003052</ele>
        <time>2015-07-03T09:00:22.403Z</time>
      </trkpt>
      <trkpt lat="45.95248" lon="4.7496">
        <ele>200.800003052</ele>
        <time>2015-07-03T09:00:23.463Z</time>
      </trkpt>
      <trkpt lat="45.95251" lon="4.74966">
        <ele>200.199996948</ele>
        <time>2015-07-03T09:00:24.398Z</time>
      </trkpt>
      <trkpt lat="45.95255" lon="4.74972">
        <ele>199.899993896</ele>
        <time>2015-07-03T09:00:25.395Z</time>
      </trkpt>
      <trkpt lat="45.95259" lon="4.74978">
        <ele>199.100006104</ele>
        <time>2015-07-03T09:00:26.406Z</time>
      </trkpt>
      <trkpt lat="45.95263" lon="4.74985">
        <ele>198.399993896</ele>
        <time>2015-07-03T09:00:27.399Z</time>
      </trkpt>
      <trkpt lat="45.95267" lon="4.74991">
        <ele>198.600006104</ele>
        <time>2015-07-03T09:00:28.629Z</time>
      </trkpt>
      <trkpt lat="45.9527" lon="4.74996">
        <ele>199.300003052</ele>
        <time>2015-07-03T09:00:29.417Z</time>
      </trkpt>
      <trkpt lat="45.95275" lon="4.75003">
        <ele>196.600006104</ele>
        <time>2015-07-03T09:00:30.417Z</time>
      </trkpt>
      <trkpt lat="45.9528" lon="4.7501">
        <ele>195.600006104</ele>
        <time>2015-07-03T09:00:31.6Z</time>
      </trkpt>
      <trkpt lat="45.95284" lon="4.75015">
        <ele>194.800003052</ele>
        <time>2015-07-03T09:00:32.416Z</time>
      </trkpt>
      <trkpt lat="45.95287" lon="4.7502">
        <ele>194.199996948</ele>
        <time>2015-07-03T09:00:33.565Z</time>
      </trkpt>
      <trkpt lat="45.95289" lon="4.75026">
        <ele>194</ele>
        <time>2015-07-03T09:00:34.405Z</time>
      </trkpt>
      <trkpt lat="45.95292" lon="4.75031">
        <ele>193.699996948</ele>
        <time>2015-07-03T09:00:35.406Z</time>
      </trkpt>
      <trkpt lat="45.95296" lon="4.75039">
        <ele>193.5</ele>
        <time>2015-07-03T09:00:36.423Z</time>
      </trkpt>
      <trkpt lat="45.953" lon="4.75045">
        <ele>193.399993896</ele>
        <time>2015-07-03T09:00:37.45Z</time>
      </trkpt>
      <trkpt lat="45.95304" lon="4.75051">
        <ele>193.600006104</ele>
        <time>2015-07-03T09:00:38.398Z</time>
      </trkpt>
      <trkpt lat="45.95308" lon="4.75057">
        <ele>193.5</ele>
        <time>2015-07-03T09:00:39.436Z</time>
      </trkpt>
      <trkpt lat="45.95312" lon="4.75063">
        <ele>193.300003052</ele>
        <time>2015-07-03T09:00:40.391Z</time>
      </trkpt>
      <trkpt lat="45.95316" lon="4.75071">
        <ele>193.300003052</ele>
        <time>2015-07-03T09:00:41.386Z</time>
      </trkpt>
      <trkpt lat="45.9532" lon="4.75077">
        <ele>193.199996948</ele>
        <time>2015-07-03T09:00:42.396Z</time>
      </trkpt>
      <trkpt lat="45.95324" lon="4.75084">
        <ele>193.199996948</ele>
        <time>2015-07-03T09:00:43.435Z</time>
      </trkpt>
      <trkpt lat="45.95328" lon="4.75091">
        <ele>193.300003052</ele>
        <time>2015-07-03T09:00:44.394Z</time>
      </trkpt>
      <trkpt lat="45.95331" lon="4.75097">
        <ele>193.100006104</ele>
        <time>2015-07-03T09:00:45.395Z</time>
      </trkpt>
      <trkpt lat="45.95336" lon="4.75104">
        <ele>192.800003052</ele>
        <time>2015-07-03T09:00:46.396Z</time>
      </trkpt>
      <trkpt lat="45.95341" lon="4.75111">
        <ele>192.699996948</ele>
        <time>2015-07-03T09:00:47.396Z</time>
      </trkpt>
      <trkpt lat="45.95345" lon="4.75118">
        <ele>192.5</ele>
        <time>2015-07-03T09:00:48.402Z</time>
      </trkpt>
      <trkpt lat="45.9535" lon="4.75125">
        <ele>192.100006104</ele>
        <time>2015-07-03T09:00:49.394Z</time>
      </trkpt>
      <trkpt lat="45.95354" lon="4.75132">
        <ele>192</ele>
        <time>2015-07-03T09:00:50.392Z</time>
      </trkpt>
      <trkpt lat="45.95359" lon="4.75139">
        <ele>191.899993896</ele>
        <time>2015-07-03T09:00:51.409Z</time>
      </trkpt>
      <trkpt lat="45.95363" lon="4.75145">
        <ele>191.800003052</ele>
        <time>2015-07-03T09:00:52.429Z</time>
      </trkpt>
      <trkpt lat="45.95367" lon="4.75152">
        <ele>191.899993896</ele>
        <time>2015-07-03T09:00:53.404Z</time>
      </trkpt>
      <trkpt lat="45.95371" lon="4.7516">
        <ele>192.100006104</ele>
        <time>2015-07-03T09:00:54.397Z</time>
      </trkpt>
      <trkpt lat="45.95376" lon="4.75167">
        <ele>192.600006104</ele>
        <time>2015-07-03T09:00:55.394Z</time>
      </trkpt>
      <trkpt lat="45.9538" lon="4.75174">
        <ele>192.899993896</ele>
        <time>2015-07-03T09:00:56.394Z</time>
      </trkpt>
      <trkpt lat="45.95385" lon="4.75181">
        <ele>192.800003052</ele>
        <time>2015-07-03T09:00:57.395Z</time>
      </trkpt>
      <trkpt lat="45.95389" lon="4.75188">
        <ele>192.399993896</ele>
        <time>2015-07-03T09:00:58.391Z</time>
      </trkpt>
      <trkpt lat="45.95394" lon="4.75196">
        <ele>192.600006104</ele>
        <time>2015-07-03T09:00:59.444Z</time>
      </trkpt>
      <trkpt lat="45.95397" lon="4.75204">
        <ele>192.5</ele>
        <time>2015-07-03T09:01:00.395Z</time>
      </trkpt>
      <trkpt lat="45.95402" lon="4.75212">
        <ele>192.800003052</ele>
        <time>2015-07-03T09:01:01.442Z</time>
      </trkpt>
      <trkpt lat="45.95406" lon="4.75221">
        <ele>192.699996948</ele>
        <time>2015-07-03T09:01:02.392Z</time>
      </trkpt>
      <trkpt lat="45.9541" lon="4.75228">
        <ele>192.600006104</ele>
        <time>2015-07-03T09:01:03.395Z</time>
      </trkpt>
      <trkpt lat="45.95414" lon="4.75235">
        <ele>192.699996948</ele>
        <time>2015-07-03T09:01:04.392Z</time>
      </trkpt>
      <trkpt lat="45.95418" lon="4.75242">
        <ele>193</ele>
        <time>2015-07-03T09:01:05.391Z</time>
      </trkpt>
      <trkpt lat="45.95422" lon="4.75249">
        <ele>193</ele>
        <time>2015-07-03T09:01:06.396Z</time>
      </trkpt>
      <trkpt lat="45.95426" lon="4.75256">
        <ele>193</ele>
        <time>2015-07-03T09:01:07.395Z</time>
      </trkpt>
      <trkpt lat="45.9543" lon="4.75263">
        <ele>193.100006104</ele>
        <time>2015-07-03T09:01:08.392Z</time>
      </trkpt>
      <trkpt lat="45.95434" lon="4.7527">
        <ele>193.300003052</ele>
        <time>2015-07-03T09:01:09.391Z</time>
      </trkpt>
      <trkpt lat="45.95438" lon="4.75277">
        <ele>193.199996948</ele>
        <time>2015-07-03T09:01:10.392Z</time>
      </trkpt>
      <trkpt lat="45.95441" lon="4.75284">
        <ele>193.100006104</ele>
        <time>2015-07-03T09:01:11.395Z</time>
      </trkpt>
      <trkpt lat="45.95445" lon="4.7529">
        <ele>193.100006104</ele>
        <time>2015-07-03T09:01:12.414Z</time>
      </trkpt>
      <trkpt lat="45.95449" lon="4.75297">
        <ele>193.199996948</ele>
        <time>2015-07-03T09:01:13.422Z</time>
      </trkpt>
      <trkpt lat="45.95452" lon="4.75305">
        <ele>193.199996948</ele>
        <time>2015-07-03T09:01:14.402Z</time>
      </trkpt>
      <trkpt lat="45.95454" lon="4.75311">
        <ele>193.199996948</ele>
        <time>2015-07-03T09:01:15.393Z</time>
      </trkpt>
      <trkpt lat="45.95458" lon="4.75318">
        <ele>193.300003052</ele>
        <time>2015-07-03T09:01:16.434Z</time>
      </trkpt>
      <trkpt lat="45.95462" lon="4.75325">
        <ele>193</ele>
        <time>2015-07-03T09:01:17.434Z</time>
      </trkpt>
      <trkpt lat="45.95467" lon="4.75333">
        <ele>192.899993896</ele>
        <time>2015-07-03T09:01:18.398Z</time>
      </trkpt>
      <trkpt lat="45.95471" lon="4.75341">
        <ele>192.699996948</ele>
        <time>2015-07-03T09:01:19.423Z</time>
      </trkpt>
      <trkpt lat="45.95475" lon="4.75348">
        <ele>192.699996948</ele>
        <time>2015-07-03T09:01:20.395Z</time>
      </trkpt>
      <trkpt lat="45.9548" lon="4.75356">
        <ele>192.399993896</ele>
        <time>2015-07-03T09:01:21.395Z</time>
      </trkpt>
      <trkpt lat="45.95484" lon="4.75365">
        <ele>192.300003052</ele>
        <time>2015-07-03T09:01:22.393Z</time>
      </trkpt>
      <trkpt lat="45.95488" lon="4.75373">
        <ele>192.199996948</ele>
        <time>2015-07-03T09:01:23.42Z</time>
      </trkpt>
      <trkpt lat="45.95492" lon="4.75382">
        <ele>191.899993896</ele>
        <time>2015-07-03T09:01:24.394Z</time>
      </trkpt>
      <trkpt lat="45.95495" lon="4.75391">
        <ele>191.800003052</ele>
        <time>2015-07-03T09:01:25.395Z</time>
      </trkpt>
      <trkpt lat="45.95499" lon="4.754">
        <ele>191.199996948</ele>
        <time>2015-07-03T09:01:26.395Z</time>
      </trkpt>
      <trkpt lat="45.95502" lon="4.75409">
        <ele>190.5</ele>
        <time>2015-07-03T09:01:27.416Z</time>
      </trkpt>
      <trkpt lat="45.95504" lon="4.75419">
        <ele>190.199996948</ele>
        <time>2015-07-03T09:01:28.409Z</time>
      </trkpt>
      <trkpt lat="45.95507" lon="4.75429">
        <ele>190</ele>
        <time>2015-07-03T09:01:29.435Z</time>
      </trkpt>
      <trkpt lat="45.95508" lon="4.75439">
        <ele>189.399993896</ele>
        <time>2015-07-03T09:01:30.398Z</time>
      </trkpt>
      <trkpt lat="45.9551" lon="4.75449">
        <ele>189.300003052</ele>
        <time>2015-07-03T09:01:31.434Z</time>
      </trkpt>
      <trkpt lat="45.9551" lon="4.7546">
        <ele>189.100006104</ele>
        <time>2015-07-03T09:01:32.395Z</time>
      </trkpt>
      <trkpt lat="45.9551" lon="4.75471">
        <ele>189.100006104</ele>
        <time>2015-07-03T09:01:33.398Z</time>
      </trkpt>
      <trkpt lat="45.95511" lon="4.75481">
        <ele>188.800003052</ele>
        <time>2015-07-03T09:01:34.392Z</time>
      </trkpt>
      <trkpt lat="45.95513" lon="4.7549">
        <ele>188.800003052</ele>
        <time>2015-07-03T09:01:35.393Z</time>
      </trkpt>
      <trkpt lat="45.95517" lon="4.75497">
        <ele>188.699996948</ele>
        <time>2015-07-03T09:01:36.396Z</time>
      </trkpt>
      <trkpt lat="45.95522" lon="4.75503">
        <ele>188.699996948</ele>
        <time>2015-07-03T09:01:37.392Z</time>
      </trkpt>
      <trkpt lat="45.95527" lon="4.75508">
        <ele>189.100006104</ele>
        <time>2015-07-03T09:01:38.394Z</time>
      </trkpt>
      <trkpt lat="45.95532" lon="4.75511">
        <ele>188.800003052</ele>
        <time>2015-07-03T09:01:39.393Z</time>
      </trkpt>
      <trkpt lat="45.95537" lon="4.75515">
        <ele>188.800003052</ele>
        <time>2015-07-03T09:01:40.398Z</time>
      </trkpt>
      <trkpt lat="45.95542" lon="4.75519">
        <ele>188.199996948</ele>
        <time>2015-07-03T09:01:41.392Z</time>
      </trkpt>
      <trkpt lat="45.95547" lon="4.75525">
        <ele>188.300003052</ele>
        <time>2015-07-03T09:01:42.395Z</time>
      </trkpt>
      <trkpt lat="45.95553" lon="4.7553">
        <ele>188</ele>
        <time>2015-07-03T09:01:43.396Z</time>
      </trkpt>
      <trkpt lat="45.95558" lon="4.75535">
        <ele>187.800003052</ele>
        <time>2015-07-03T09:01:44.41Z</time>
      </trkpt>
      <trkpt lat="45.95563" lon="4.7554">
        <ele>187.800003052</ele>
        <time>2015-07-03T09:01:45.392Z</time>
      </trkpt>
      <trkpt lat="45.95568" lon="4.75544">
        <ele>187.5</ele>
        <time>2015-07-03T09:01:46.393Z</time>
      </trkpt>
      <trkpt lat="45.95573" lon="4.7555">
        <ele>187.5</ele>
        <time>2015-07-03T09:01:47.394Z</time>
      </trkpt>
      <trkpt lat="45.95578" lon="4.75556">
        <ele>187.699996948</ele>
        <time>2015-07-03T09:01:48.395Z</time>
      </trkpt>
      <trkpt lat="45.95582" lon="4.75562">
        <ele>188.100006104</ele>
        <time>2015-07-03T09:01:49.395Z</time>
      </trkpt>
      <trkpt lat="45.95586" lon="4.75568">
        <ele>188.100006104</ele>
        <time>2015-07-03T09:01:50.394Z</time>
      </trkpt>
      <trkpt lat="45.9559" lon="4.75575">
        <ele>188.5</ele>
        <time>2015-07-03T09:01:51.392Z</time>
      </trkpt>
      <trkpt lat="45.95593" lon="4.75581">
        <ele>188.600006104</ele>
        <time>2015-07-03T09:01:52.391Z</time>
      </trkpt>
      <trkpt lat="45.95597" lon="4.75588">
        <ele>189.100006104</ele>
        <time>2015-07-03T09:01:53.393Z</time>
      </trkpt>
      <trkpt lat="45.95599" lon="4.75595">
        <ele>189.300003052</ele>
        <time>2015-07-03T09:01:54.395Z</time>
      </trkpt>
      <trkpt lat="45.95602" lon="4.75602">
        <ele>189.699996948</ele>
        <time>2015-07-03T09:01:55.429Z</time>
      </trkpt>
      <trkpt lat="45.95604" lon="4.75608">
        <ele>190.300003052</ele>
        <time>2015-07-03T09:01:56.386Z</time>
      </trkpt>
      <trkpt lat="45.95607" lon="4.75616">
        <ele>190.600006104</ele>
        <time>2015-07-03T09:01:57.392Z</time>
      </trkpt>
      <trkpt lat="45.95609" lon="4.75623">
        <ele>191</ele>
        <time>2015-07-03T09:01:58.391Z</time>
      </trkpt>
      <trkpt lat="45.95611" lon="4.7563">
        <ele>191.600006104</ele>
        <time>2015-07-03T09:01:59.406Z</time>
      </trkpt>
      <trkpt lat="45.95612" lon="4.75638">
        <ele>191.899993896</ele>
        <time>2015-07-03T09:02:00.395Z</time>
      </trkpt>
      <trkpt lat="45.95612" lon="4.75645">
        <ele>192.300003052</ele>
        <time>2015-07-03T09:02:01.405Z</time>
      </trkpt>
      <trkpt lat="45.95614" lon="4.75653">
        <ele>192.199996948</ele>
        <time>2015-07-03T09:02:02.393Z</time>
      </trkpt>
      <trkpt lat="45.95616" lon="4.7566">
        <ele>192.699996948</ele>
        <time>2015-07-03T09:02:03.392Z</time>
      </trkpt>
      <trkpt lat="45.95618" lon="4.75669">
        <ele>192.899993896</ele>
        <time>2015-07-03T09:02:04.392Z</time>
      </trkpt>
      <trkpt lat="45.95619" lon="4.75677">
        <ele>193.100006104</ele>
        <time>2015-07-03T09:02:05.392Z</time>
      </trkpt>
      <trkpt lat="45.95621" lon="4.75686">
        <ele>193.199996948</ele>
        <time>2015-07-03T09:02:06.399Z</time>
      </trkpt>
      <trkpt lat="45.95622" lon="4.75694">
        <ele>193.199996948</ele>
        <time>2015-07-03T09:02:07.395Z</time>
      </trkpt>
      <trkpt lat="45.95622" lon="4.75702">
        <ele>193.300003052</ele>
        <time>2015-07-03T09:02:08.392Z</time>
      </trkpt>
      <trkpt lat="45.95624" lon="4.75711">
        <ele>193.600006104</ele>
        <time>2015-07-03T09:02:09.392Z</time>
      </trkpt>
      <trkpt lat="45.95625" lon="4.75719">
        <ele>193.600006104</ele>
        <time>2015-07-03T09:02:10.408Z</time>
      </trkpt>
      <trkpt lat="45.95626" lon="4.75727">
        <ele>193.600006104</ele>
        <time>2015-07-03T09:02:11.391Z</time>
      </trkpt>
      <trkpt lat="45.95627" lon="4.75736">
        <ele>193.699996948</ele>
        <time>2015-07-03T09:02:12.397Z</time>
      </trkpt>
      <trkpt lat="45.95628" lon="4.75744">
        <ele>194</ele>
        <time>2015-07-03T09:02:13.392Z</time>
      </trkpt>
      <trkpt lat="45.95629" lon="4.75752">
        <ele>194.300003052</ele>
        <time>2015-07-03T09:02:14.392Z</time>
      </trkpt>
      <trkpt lat="45.95631" lon="4.7576">
        <ele>195</ele>
        <time>2015-07-03T09:02:15.576Z</time>
      </trkpt>
      <trkpt lat="45.9563" lon="4.75768">
        <ele>195.300003052</ele>
        <time>2015-07-03T09:02:16.396Z</time>
      </trkpt>
      <trkpt lat="45.95631" lon="4.75776">
        <ele>195</ele>
        <time>2015-07-03T09:02:17.391Z</time>
      </trkpt>
      <trkpt lat="45.95633" lon="4.75784">
        <ele>194.699996948</ele>
        <time>2015-07-03T09:02:18.395Z</time>
      </trkpt>
      <trkpt lat="45.95635" lon="4.75793">
        <ele>194.899993896</ele>
        <time>2015-07-03T09:02:19.391Z</time>
      </trkpt>
      <trkpt lat="45.95636" lon="4.75802">
        <ele>194.899993896</ele>
        <time>2015-07-03T09:02:20.415Z</time>
      </trkpt>
      <trkpt lat="45.95638" lon="4.7581">
        <ele>194.5</ele>
        <time>2015-07-03T09:02:21.392Z</time>
      </trkpt>
      <trkpt lat="45.9564" lon="4.75819">
        <ele>194</ele>
        <time>2015-07-03T09:02:22.391Z</time>
      </trkpt>
      <trkpt lat="45.95642" lon="4.75827">
        <ele>193.600006104</ele>
        <time>2015-07-03T09:02:23.391Z</time>
      </trkpt>
      <trkpt lat="45.95643" lon="4.75835">
        <ele>193.199996948</ele>
        <time>2015-07-03T09:02:24.395Z</time>
      </trkpt>
      <trkpt lat="45.95645" lon="4.75844">
        <ele>193</ele>
        <time>2015-07-03T09:02:25.392Z</time>
      </trkpt>
      <trkpt lat="45.95647" lon="4.75852">
        <ele>192.699996948</ele>
        <time>2015-07-03T09:02:26.393Z</time>
      </trkpt>
      <trkpt lat="45.9565" lon="4.7586">
        <ele>192.600006104</ele>
        <time>2015-07-03T09:02:27.394Z</time>
      </trkpt>
      <trkpt lat="45.95653" lon="4.75869">
        <ele>192.600006104</ele>
        <time>2015-07-03T09:02:28.421Z</time>
      </trkpt>
      <trkpt lat="45.95655" lon="4.75877">
        <ele>192.600006104</ele>
        <time>2015-07-03T09:02:29.394Z</time>
      </trkpt>
      <trkpt lat="45.95659" lon="4.75886">
        <ele>192.399993896</ele>
        <time>2015-07-03T09:02:30.395Z</time>
      </trkpt>
      <trkpt lat="45.95661" lon="4.75894">
        <ele>192.100006104</ele>
        <time>2015-07-03T09:02:31.554Z</time>
      </trkpt>
      <trkpt lat="45.95664" lon="4.75902">
        <ele>192.199996948</ele>
        <time>2015-07-03T09:02:32.396Z</time>
      </trkpt>
      <trkpt lat="45.95668" lon="4.75911">
        <ele>192.100006104</ele>
        <time>2015-07-03T09:02:33.391Z</time>
      </trkpt>
      <trkpt lat="45.95672" lon="4.75919">
        <ele>191.699996948</ele>
        <time>2015-07-03T09:02:34.392Z</time>
      </trkpt>
      <trkpt lat="45.95675" lon="4.75927">
        <ele>191.699996948</ele>
        <time>2015-07-03T09:02:35.394Z</time>
      </trkpt>
      <trkpt lat="45.95679" lon="4.75935">
        <ele>191.600006104</ele>
        <time>2015-07-03T09:02:36.396Z</time>
      </trkpt>
      <trkpt lat="45.95682" lon="4.75943">
        <ele>191.600006104</ele>
        <time>2015-07-03T09:02:37.436Z</time>
      </trkpt>
      <trkpt lat="45.95686" lon="4.7595">
        <ele>191.600006104</ele>
        <time>2015-07-03T09:02:38.393Z</time>
      </trkpt>
      <trkpt lat="45.9569" lon="4.75957">
        <ele>191.899993896</ele>
        <time>2015-07-03T09:02:39.395Z</time>
      </trkpt>
      <trkpt lat="45.95693" lon="4.75965">
        <ele>191.899993896</ele>
        <time>2015-07-03T09:02:40.394Z</time>
      </trkpt>
      <trkpt lat="45.95697" lon="4.75972">
        <ele>192.199996948</ele>
        <time>2015-07-03T09:02:41.391Z</time>
      </trkpt>
      <trkpt lat="45.957" lon="4.75979">
        <ele>192.199996948</ele>
        <time>2015-07-03T09:02:42.398Z</time>
      </trkpt>
      <trkpt lat="45.95704" lon="4.75987">
        <ele>192.100006104</ele>
        <time>2015-07-03T09:02:43.395Z</time>
      </trkpt>
      <trkpt lat="45.95708" lon="4.75994">
        <ele>192.199996948</ele>
        <time>2015-07-03T09:02:44.392Z</time>
      </trkpt>
      <trkpt lat="45.95711" lon="4.76001">
        <ele>192.300003052</ele>
        <time>2015-07-03T09:02:45.392Z</time>
      </trkpt>
      <trkpt lat="45.95714" lon="4.76008">
        <ele>192.100006104</ele>
        <time>2015-07-03T09:02:46.391Z</time>
      </trkpt>
      <trkpt lat="45.95716" lon="4.76015">
        <ele>192.199996948</ele>
        <time>2015-07-03T09:02:47.438Z</time>
      </trkpt>
      <trkpt lat="45.9572" lon="4.76022">
        <ele>192.300003052</ele>
        <time>2015-07-03T09:02:48.43Z</time>
      </trkpt>
      <trkpt lat="45.95723" lon="4.76029">
        <ele>192</ele>
        <time>2015-07-03T09:02:49.392Z</time>
      </trkpt>
      <trkpt lat="45.95726" lon="4.76036">
        <ele>191.699996948</ele>
        <time>2015-07-03T09:02:50.392Z</time>
      </trkpt>
      <trkpt lat="45.9573" lon="4.76043">
        <ele>191.699996948</ele>
        <time>2015-07-03T09:02:51.391Z</time>
      </trkpt>
      <trkpt lat="45.95733" lon="4.7605">
        <ele>191.399993896</ele>
        <time>2015-07-03T09:02:52.391Z</time>
      </trkpt>
      <trkpt lat="45.95736" lon="4.76057">
        <ele>191.300003052</ele>
        <time>2015-07-03T09:02:53.391Z</time>
      </trkpt>
      <trkpt lat="45.95739" lon="4.76064">
        <ele>190.899993896</ele>
        <time>2015-07-03T09:02:54.389Z</time>
      </trkpt>
      <trkpt lat="45.95743" lon="4.76071">
        <ele>190.899993896</ele>
        <time>2015-07-03T09:02:55.391Z</time>
      </trkpt>
      <trkpt lat="45.95746" lon="4.76078">
        <ele>190.699996948</ele>
        <time>2015-07-03T09:02:56.393Z</time>
      </trkpt>
      <trkpt lat="45.95748" lon="4.76085">
        <ele>190.699996948</ele>
        <time>2015-07-03T09:02:57.391Z</time>
      </trkpt>
      <trkpt lat="45.95751" lon="4.76093">
        <ele>190.699996948</ele>
        <time>2015-07-03T09:02:58.391Z</time>
      </trkpt>
      <trkpt lat="45.95753" lon="4.76101">
        <ele>190.600006104</ele>
        <time>2015-07-03T09:02:59.391Z</time>
      </trkpt>
      <trkpt lat="45.95754" lon="4.76108">
        <ele>190.5</ele>
        <time>2015-07-03T09:03:00.396Z</time>
      </trkpt>
      <trkpt lat="45.95756" lon="4.76116">
        <ele>190.399993896</ele>
        <time>2015-07-03T09:03:01.392Z</time>
      </trkpt>
      <trkpt lat="45.95757" lon="4.76124">
        <ele>190.300003052</ele>
        <time>2015-07-03T09:03:02.393Z</time>
      </trkpt>
      <trkpt lat="45.95758" lon="4.76132">
        <ele>190.300003052</ele>
        <time>2015-07-03T09:03:03.392Z</time>
      </trkpt>
      <trkpt lat="45.9576" lon="4.76141">
        <ele>190.100006104</ele>
        <time>2015-07-03T09:03:04.395Z</time>
      </trkpt>
      <trkpt lat="45.95761" lon="4.7615">
        <ele>190.199996948</ele>
        <time>2015-07-03T09:03:05.392Z</time>
      </trkpt>
      <trkpt lat="45.95762" lon="4.76158">
        <ele>190.399993896</ele>
        <time>2015-07-03T09:03:06.395Z</time>
      </trkpt>
      <trkpt lat="45.95762" lon="4.76167">
        <ele>190.5</ele>
        <time>2015-07-03T09:03:07.391Z</time>
      </trkpt>
      <trkpt lat="45.95762" lon="4.76176">
        <ele>190.699996948</ele>
        <time>2015-07-03T09:03:08.394Z</time>
      </trkpt>
      <trkpt lat="45.95762" lon="4.76184">
        <ele>190.800003052</ele>
        <time>2015-07-03T09:03:09.392Z</time>
      </trkpt>
      <trkpt lat="45.95763" lon="4.76192">
        <ele>191.100006104</ele>
        <time>2015-07-03T09:03:10.391Z</time>
      </trkpt>
      <trkpt lat="45.95763" lon="4.76199">
        <ele>191.100006104</ele>
        <time>2015-07-03T09:03:11.394Z</time>
      </trkpt>
      <trkpt lat="45.95763" lon="4.76207">
        <ele>191</ele>
        <time>2015-07-03T09:03:12.395Z</time>
      </trkpt>
      <trkpt lat="45.95764" lon="4.76215">
        <ele>191.399993896</ele>
        <time>2015-07-03T09:03:13.403Z</time>
      </trkpt>
      <trkpt lat="45.95764" lon="4.76222">
        <ele>191.899993896</ele>
        <time>2015-07-03T09:03:14.392Z</time>
      </trkpt>
      <trkpt lat="45.95764" lon="4.7623">
        <ele>191.899993896</ele>
        <time>2015-07-03T09:03:15.392Z</time>
      </trkpt>
      <trkpt lat="45.95765" lon="4.76238">
        <ele>192.300003052</ele>
        <time>2015-07-03T09:03:16.393Z</time>
      </trkpt>
      <trkpt lat="45.95763" lon="4.76244">
        <ele>192.600006104</ele>
        <time>2015-07-03T09:03:17.426Z</time>
      </trkpt>
      <trkpt lat="45.95764" lon="4.76253">
        <ele>192.600006104</ele>
        <time>2015-07-03T09:03:18.393Z</time>
      </trkpt>
      <trkpt lat="45.95764" lon="4.7626">
        <ele>192.600006104</ele>
        <time>2015-07-03T09:03:19.415Z</time>
      </trkpt>
      <trkpt lat="45.95765" lon="4.76268">
        <ele>192.600006104</ele>
        <time>2015-07-03T09:03:20.417Z</time>
      </trkpt>
      <trkpt lat="45.95765" lon="4.76276">
        <ele>192.399993896</ele>
        <time>2015-07-03T09:03:21.394Z</time>
      </trkpt>
      <trkpt lat="45.95766" lon="4.76283">
        <ele>192.300003052</ele>
        <time>2015-07-03T09:03:22.392Z</time>
      </trkpt>
      <trkpt lat="45.95766" lon="4.76291">
        <ele>192.600006104</ele>
        <time>2015-07-03T09:03:23.392Z</time>
      </trkpt>
      <trkpt lat="45.95767" lon="4.76298">
        <ele>193</ele>
        <time>2015-07-03T09:03:24.409Z</time>
      </trkpt>
      <trkpt lat="45.95767" lon="4.76306">
        <ele>193.100006104</ele>
        <time>2015-07-03T09:03:25.407Z</time>
      </trkpt>
      <trkpt lat="45.95768" lon="4.76314">
        <ele>193.5</ele>
        <time>2015-07-03T09:03:26.394Z</time>
      </trkpt>
      <trkpt lat="45.95769" lon="4.76322">
        <ele>193.5</ele>
        <time>2015-07-03T09:03:27.395Z</time>
      </trkpt>
      <trkpt lat="45.95769" lon="4.7633">
        <ele>193.800003052</ele>
        <time>2015-07-03T09:03:28.39Z</time>
      </trkpt>
      <trkpt lat="45.9577" lon="4.76338">
        <ele>193.699996948</ele>
        <time>2015-07-03T09:03:29.391Z</time>
      </trkpt>
      <trkpt lat="45.9577" lon="4.76346">
        <ele>194.199996948</ele>
        <time>2015-07-03T09:03:30.395Z</time>
      </trkpt>
      <trkpt lat="45.95771" lon="4.76354">
        <ele>194.300003052</ele>
        <time>2015-07-03T09:03:31.394Z</time>
      </trkpt>
      <trkpt lat="45.9577" lon="4.76361">
        <ele>194.300003052</ele>
        <time>2015-07-03T09:03:32.391Z</time>
      </trkpt>
      <trkpt lat="45.95771" lon="4.76369">
        <ele>194.699996948</ele>
        <time>2015-07-03T09:03:33.404Z</time>
      </trkpt>
      <trkpt lat="45.95771" lon="4.76377">
        <ele>194.600006104</ele>
        <time>2015-07-03T09:03:34.393Z</time>
      </trkpt>
      <trkpt lat="45.95772" lon="4.76385">
        <ele>194.699996948</ele>
        <time>2015-07-03T09:03:35.411Z</time>
      </trkpt>
      <trkpt lat="45.95773" lon="4.76394">
        <ele>194.5</ele>
        <time>2015-07-03T09:03:36.395Z</time>
      </trkpt>
      <trkpt lat="45.95774" lon="4.76401">
        <ele>194.699996948</ele>
        <time>2015-07-03T09:03:37.391Z</time>
      </trkpt>
      <trkpt lat="45.95775" lon="4.76409">
        <ele>194.600006104</ele>
        <time>2015-07-03T09:03:38.393Z</time>
      </trkpt>
      <trkpt lat="45.95776" lon="4.76417">
        <ele>194.5</ele>
        <time>2015-07-03T09:03:39.394Z</time>
      </trkpt>
      <trkpt lat="45.95776" lon="4.76425">
        <ele>194.600006104</ele>
        <time>2015-07-03T09:03:40.39Z</time>
      </trkpt>
      <trkpt lat="45.95777" lon="4.76432">
        <ele>194.5</ele>
        <time>2015-07-03T09:03:41.392Z</time>
      </trkpt>
      <trkpt lat="45.95778" lon="4.76439">
        <ele>194.600006104</ele>
        <time>2015-07-03T09:03:42.396Z</time>
      </trkpt>
      <trkpt lat="45.95779" lon="4.76447">
        <ele>194.600006104</ele>
        <time>2015-07-03T09:03:43.391Z</time>
      </trkpt>
      <trkpt lat="45.9578" lon="4.76454">
        <ele>194.899993896</ele>
        <time>2015-07-03T09:03:44.392Z</time>
      </trkpt>
      <trkpt lat="45.95781" lon="4.76461">
        <ele>195</ele>
        <time>2015-07-03T09:03:45.395Z</time>
      </trkpt>
      <trkpt lat="45.95783" lon="4.7647">
        <ele>194.899993896</ele>
        <time>2015-07-03T09:03:46.394Z</time>
      </trkpt>
      <trkpt lat="45.95783" lon="4.76477">
        <ele>194.899993896</ele>
        <time>2015-07-03T09:03:47.391Z</time>
      </trkpt>
      <trkpt lat="45.95783" lon="4.76484">
        <ele>194.899993896</ele>
        <time>2015-07-03T09:03:48.394Z</time>
      </trkpt>
      <trkpt lat="45.95785" lon="4.76492">
        <ele>195.199996948</ele>
        <time>2015-07-03T09:03:49.399Z</time>
      </trkpt>
      <trkpt lat="45.95787" lon="4.765">
        <ele>195.399993896</ele>
        <time>2015-07-03T09:03:50.391Z</time>
      </trkpt>
      <trkpt lat="45.95788" lon="4.76508">
        <ele>195.600006104</ele>
        <time>2015-07-03T09:03:51.405Z</time>
      </trkpt>
      <trkpt lat="45.95789" lon="4.76516">
        <ele>195.600006104</ele>
        <time>2015-07-03T09:03:52.416Z</time>
      </trkpt>
      <trkpt lat="45.9579" lon="4.76523">
        <ele>195.699996948</ele>
        <time>2015-07-03T09:03:53.407Z</time>
      </trkpt>
      <trkpt lat="45.95791" lon="4.76531">
        <ele>195.800003052</ele>
        <time>2015-07-03T09:03:54.395Z</time>
      </trkpt>
      <trkpt lat="45.95792" lon="4.76538">
        <ele>195.699996948</ele>
        <time>2015-07-03T09:03:55.391Z</time>
      </trkpt>
      <trkpt lat="45.95793" lon="4.76546">
        <ele>195.600006104</ele>
        <time>2015-07-03T09:03:56.392Z</time>
      </trkpt>
      <trkpt lat="45.95794" lon="4.76553">
        <ele>195.600006104</ele>
        <time>2015-07-03T09:03:57.39Z</time>
      </trkpt>
      <trkpt lat="45.95795" lon="4.7656">
        <ele>195.699996948</ele>
        <time>2015-07-03T09:03:58.39Z</time>
      </trkpt>
      <trkpt lat="45.95796" lon="4.76567">
        <ele>195.600006104</ele>
        <time>2015-07-03T09:03:59.391Z</time>
      </trkpt>
      <trkpt lat="45.95797" lon="4.76574">
        <ele>195.699996948</ele>
        <time>2015-07-03T09:04:00.397Z</time>
      </trkpt>
      <trkpt lat="45.95798" lon="4.76581">
        <ele>195.899993896</ele>
        <time>2015-07-03T09:04:01.392Z</time>
      </trkpt>
      <trkpt lat="45.95799" lon="4.76588">
        <ele>196.399993896</ele>
        <time>2015-07-03T09:04:02.392Z</time>
      </trkpt>
      <trkpt lat="45.95799" lon="4.76594">
        <ele>196.399993896</ele>
        <time>2015-07-03T09:04:03.394Z</time>
      </trkpt>
      <trkpt lat="45.95801" lon="4.76602">
        <ele>196.5</ele>
        <time>2015-07-03T09:04:04.392Z</time>
      </trkpt>
      <trkpt lat="45.95802" lon="4.76609">
        <ele>196.5</ele>
        <time>2015-07-03T09:04:05.392Z</time>
      </trkpt>
      <trkpt lat="45.95804" lon="4.76616">
        <ele>196.699996948</ele>
        <time>2015-07-03T09:04:06.396Z</time>
      </trkpt>
      <trkpt lat="45.95805" lon="4.76624">
        <ele>196.899993896</ele>
        <time>2015-07-03T09:04:07.434Z</time>
      </trkpt>
      <trkpt lat="45.95806" lon="4.76632">
        <ele>196.800003052</ele>
        <time>2015-07-03T09:04:08.392Z</time>
      </trkpt>
      <trkpt lat="45.95807" lon="4.7664">
        <ele>196.800003052</ele>
        <time>2015-07-03T09:04:09.391Z</time>
      </trkpt>
      <trkpt lat="45.95807" lon="4.76647">
        <ele>196.899993896</ele>
        <time>2015-07-03T09:04:10.391Z</time>
      </trkpt>
      <trkpt lat="45.95808" lon="4.76655">
        <ele>196.899993896</ele>
        <time>2015-07-03T09:04:11.389Z</time>
      </trkpt>
      <trkpt lat="45.95809" lon="4.76663">
        <ele>197</ele>
        <time>2015-07-03T09:04:12.396Z</time>
      </trkpt>
      <trkpt lat="45.9581" lon="4.7667">
        <ele>197</ele>
        <time>2015-07-03T09:04:13.391Z</time>
      </trkpt>
      <trkpt lat="45.95811" lon="4.76678">
        <ele>196.899993896</ele>
        <time>2015-07-03T09:04:14.392Z</time>
      </trkpt>
      <trkpt lat="45.95812" lon="4.76687">
        <ele>196.699996948</ele>
        <time>2015-07-03T09:04:15.39Z</time>
      </trkpt>
      <trkpt lat="45.95813" lon="4.76694">
        <ele>197.300003052</ele>
        <time>2015-07-03T09:04:16.394Z</time>
      </trkpt>
      <trkpt lat="45.95814" lon="4.76701">
        <ele>197.5</ele>
        <time>2015-07-03T09:04:17.391Z</time>
      </trkpt>
      <trkpt lat="45.95814" lon="4.76709">
        <ele>197.600006104</ele>
        <time>2015-07-03T09:04:18.396Z</time>
      </trkpt>
      <trkpt lat="45.95815" lon="4.76717">
        <ele>197.600006104</ele>
        <time>2015-07-03T09:04:19.394Z</time>
      </trkpt>
      <trkpt lat="45.95816" lon="4.76725">
        <ele>197.899993896</ele>
        <time>2015-07-03T09:04:20.394Z</time>
      </trkpt>
      <trkpt lat="45.95817" lon="4.76732">
        <ele>198.100006104</ele>
        <time>2015-07-03T09:04:21.391Z</time>
      </trkpt>
      <trkpt lat="45.95818" lon="4.76739">
        <ele>198.100006104</ele>
        <time>2015-07-03T09:04:22.391Z</time>
      </trkpt>
      <trkpt lat="45.95819" lon="4.76746">
        <ele>198.300003052</ele>
        <time>2015-07-03T09:04:23.406Z</time>
      </trkpt>
      <trkpt lat="45.9582" lon="4.76752">
        <ele>198.399993896</ele>
        <time>2015-07-03T09:04:24.395Z</time>
      </trkpt>
      <trkpt lat="45.95821" lon="4.76759">
        <ele>198.600006104</ele>
        <time>2015-07-03T09:04:25.414Z</time>
      </trkpt>
      <trkpt lat="45.95822" lon="4.76766">
        <ele>198.600006104</ele>
        <time>2015-07-03T09:04:26.395Z</time>
      </trkpt>
      <trkpt lat="45.95823" lon="4.76773">
        <ele>198.699996948</ele>
        <time>2015-07-03T09:04:27.394Z</time>
      </trkpt>
      <trkpt lat="45.95824" lon="4.7678">
        <ele>198.800003052</ele>
        <time>2015-07-03T09:04:28.391Z</time>
      </trkpt>
      <trkpt lat="45.95825" lon="4.76787">
        <ele>198.699996948</ele>
        <time>2015-07-03T09:04:29.427Z</time>
      </trkpt>
      <trkpt lat="45.95826" lon="4.76794">
        <ele>198.100006104</ele>
        <time>2015-07-03T09:04:30.395Z</time>
      </trkpt>
      <trkpt lat="45.95827" lon="4.76802">
        <ele>198.100006104</ele>
        <time>2015-07-03T09:04:31.389Z</time>
      </trkpt>
      <trkpt lat="45.95827" lon="4.76811">
        <ele>198.100006104</ele>
        <time>2015-07-03T09:04:32.392Z</time>
      </trkpt>
      <trkpt lat="45.95826" lon="4.76817">
        <ele>197.699996948</ele>
        <time>2015-07-03T09:04:33.439Z</time>
      </trkpt>
      <trkpt lat="45.95825" lon="4.76825">
        <ele>197.5</ele>
        <time>2015-07-03T09:04:34.39Z</time>
      </trkpt>
      <trkpt lat="45.95824" lon="4.76834">
        <ele>197.5</ele>
        <time>2015-07-03T09:04:35.392Z</time>
      </trkpt>
      <trkpt lat="45.95823" lon="4.76842">
        <ele>197.399993896</ele>
        <time>2015-07-03T09:04:36.395Z</time>
      </trkpt>
      <trkpt lat="45.95822" lon="4.7685">
        <ele>197.300003052</ele>
        <time>2015-07-03T09:04:37.391Z</time>
      </trkpt>
      <trkpt lat="45.95822" lon="4.76858">
        <ele>197.399993896</ele>
        <time>2015-07-03T09:04:38.392Z</time>
      </trkpt>
      <trkpt lat="45.9582" lon="4.76866">
        <ele>197.100006104</ele>
        <time>2015-07-03T09:04:39.39Z</time>
      </trkpt>
      <trkpt lat="45.95819" lon="4.76874">
        <ele>197.300003052</ele>
        <time>2015-07-03T09:04:40.407Z</time>
      </trkpt>
      <trkpt lat="45.95817" lon="4.76881">
        <ele>197.199996948</ele>
        <time>2015-07-03T09:04:41.39Z</time>
      </trkpt>
      <trkpt lat="45.95816" lon="4.76888">
        <ele>197</ele>
        <time>2015-07-03T09:04:42.396Z</time>
      </trkpt>
      <trkpt lat="45.95814" lon="4.76895">
        <ele>197.100006104</ele>
        <time>2015-07-03T09:04:43.391Z</time>
      </trkpt>
      <trkpt lat="45.95813" lon="4.76902">
        <ele>197</ele>
        <time>2015-07-03T09:04:44.408Z</time>
      </trkpt>
      <trkpt lat="45.95811" lon="4.7691">
        <ele>196.899993896</ele>
        <time>2015-07-03T09:04:45.391Z</time>
      </trkpt>
      <trkpt lat="45.9581" lon="4.76917">
        <ele>196.899993896</ele>
        <time>2015-07-03T09:04:46.446Z</time>
      </trkpt>
      <trkpt lat="45.95809" lon="4.76924">
        <ele>197</ele>
        <time>2015-07-03T09:04:47.439Z</time>
      </trkpt>
      <trkpt lat="45.95807" lon="4.76932">
        <ele>196.800003052</ele>
        <time>2015-07-03T09:04:48.395Z</time>
      </trkpt>
      <trkpt lat="45.95805" lon="4.76939">
        <ele>196.699996948</ele>
        <time>2015-07-03T09:04:49.391Z</time>
      </trkpt>
      <trkpt lat="45.95804" lon="4.76948">
        <ele>196.800003052</ele>
        <time>2015-07-03T09:04:50.388Z</time>
      </trkpt>
      <trkpt lat="45.95802" lon="4.76955">
        <ele>196.600006104</ele>
        <time>2015-07-03T09:04:51.391Z</time>
      </trkpt>
      <trkpt lat="45.95801" lon="4.76963">
        <ele>196.300003052</ele>
        <time>2015-07-03T09:04:52.393Z</time>
      </trkpt>
      <trkpt lat="45.958" lon="4.76972">
        <ele>196</ele>
        <time>2015-07-03T09:04:53.392Z</time>
      </trkpt>
      <trkpt lat="45.95799" lon="4.7698">
        <ele>195.800003052</ele>
        <time>2015-07-03T09:04:54.397Z</time>
      </trkpt>
      <trkpt lat="45.95799" lon="4.76988">
        <ele>195.699996948</ele>
        <time>2015-07-03T09:04:55.391Z</time>
      </trkpt>
      <trkpt lat="45.95799" lon="4.76997">
        <ele>195.5</ele>
        <time>2015-07-03T09:04:56.391Z</time>
      </trkpt>
      <trkpt lat="45.958" lon="4.77006">
        <ele>195.5</ele>
        <time>2015-07-03T09:04:57.446Z</time>
      </trkpt>
      <trkpt lat="45.95802" lon="4.77014">
        <ele>195.199996948</ele>
        <time>2015-07-03T09:04:58.392Z</time>
      </trkpt>
      <trkpt lat="45.95804" lon="4.77022">
        <ele>195.199996948</ele>
        <time>2015-07-03T09:04:59.391Z</time>
      </trkpt>
      <trkpt lat="45.95807" lon="4.7703">
        <ele>195</ele>
        <time>2015-07-03T09:05:00.411Z</time>
      </trkpt>
      <trkpt lat="45.9581" lon="4.77037">
        <ele>195.100006104</ele>
        <time>2015-07-03T09:05:01.413Z</time>
      </trkpt>
      <trkpt lat="45.95813" lon="4.77044">
        <ele>194.800003052</ele>
        <time>2015-07-03T09:05:02.394Z</time>
      </trkpt>
      <trkpt lat="45.95816" lon="4.77052">
        <ele>194.600006104</ele>
        <time>2015-07-03T09:05:03.391Z</time>
      </trkpt>
      <trkpt lat="45.95819" lon="4.77059">
        <ele>193.800003052</ele>
        <time>2015-07-03T09:05:04.392Z</time>
      </trkpt>
      <trkpt lat="45.95823" lon="4.77067">
        <ele>194</ele>
        <time>2015-07-03T09:05:05.402Z</time>
      </trkpt>
      <trkpt lat="45.95827" lon="4.77074">
        <ele>194.100006104</ele>
        <time>2015-07-03T09:05:06.395Z</time>
      </trkpt>
      <trkpt lat="45.9583" lon="4.77082">
        <ele>194.100006104</ele>
        <time>2015-07-03T09:05:07.392Z</time>
      </trkpt>
      <trkpt lat="45.95832" lon="4.77089">
        <ele>194</ele>
        <time>2015-07-03T09:05:08.395Z</time>
      </trkpt>
      <trkpt lat="45.95834" lon="4.77098">
        <ele>194</ele>
        <time>2015-07-03T09:05:09.391Z</time>
      </trkpt>
      <trkpt lat="45.95836" lon="4.77105">
        <ele>194.100006104</ele>
        <time>2015-07-03T09:05:10.392Z</time>
      </trkpt>
      <trkpt lat="45.95839" lon="4.77113">
        <ele>194.100006104</ele>
        <time>2015-07-03T09:05:11.392Z</time>
      </trkpt>
      <trkpt lat="45.95841" lon="4.7712">
        <ele>194.300003052</ele>
        <time>2015-07-03T09:05:12.395Z</time>
      </trkpt>
      <trkpt lat="45.95843" lon="4.77126">
        <ele>195.300003052</ele>
        <time>2015-07-03T09:05:13.394Z</time>
      </trkpt>
      <trkpt lat="45.95846" lon="4.77133">
        <ele>195.800003052</ele>
        <time>2015-07-03T09:05:14.391Z</time>
      </trkpt>
      <trkpt lat="45.95848" lon="4.7714">
        <ele>196.100006104</ele>
        <time>2015-07-03T09:05:15.39Z</time>
      </trkpt>
      <trkpt lat="45.95849" lon="4.77146">
        <ele>196.399993896</ele>
        <time>2015-07-03T09:05:16.407Z</time>
      </trkpt>
      <trkpt lat="45.95852" lon="4.77153">
        <ele>196.5</ele>
        <time>2015-07-03T09:05:17.391Z</time>
      </trkpt>
      <trkpt lat="45.95853" lon="4.7716">
        <ele>196.399993896</ele>
        <time>2015-07-03T09:05:18.4Z</time>
      </trkpt>
      <trkpt lat="45.95855" lon="4.77167">
        <ele>196.399993896</ele>
        <time>2015-07-03T09:05:19.399Z</time>
      </trkpt>
      <trkpt lat="45.95857" lon="4.77175">
        <ele>196.5</ele>
        <time>2015-07-03T09:05:20.391Z</time>
      </trkpt>
      <trkpt lat="45.95858" lon="4.77182">
        <ele>196.699996948</ele>
        <time>2015-07-03T09:05:21.392Z</time>
      </trkpt>
      <trkpt lat="45.9586" lon="4.77189">
        <ele>196.600006104</ele>
        <time>2015-07-03T09:05:22.391Z</time>
      </trkpt>
      <trkpt lat="45.95861" lon="4.77196">
        <ele>196.800003052</ele>
        <time>2015-07-03T09:05:23.39Z</time>
      </trkpt>
      <trkpt lat="45.95863" lon="4.77204">
        <ele>196.600006104</ele>
        <time>2015-07-03T09:05:24.396Z</time>
      </trkpt>
      <trkpt lat="45.95865" lon="4.77212">
        <ele>196.5</ele>
        <time>2015-07-03T09:05:25.391Z</time>
      </trkpt>
      <trkpt lat="45.95867" lon="4.77219">
        <ele>196.600006104</ele>
        <time>2015-07-03T09:05:26.394Z</time>
      </trkpt>
      <trkpt lat="45.95868" lon="4.77227">
        <ele>196.800003052</ele>
        <time>2015-07-03T09:05:27.543Z</time>
      </trkpt>
      <trkpt lat="45.9587" lon="4.77235">
        <ele>197</ele>
        <time>2015-07-03T09:05:28.391Z</time>
      </trkpt>
      <trkpt lat="45.95872" lon="4.77242">
        <ele>197.100006104</ele>
        <time>2015-07-03T09:05:29.426Z</time>
      </trkpt>
      <trkpt lat="45.95874" lon="4.7725">
        <ele>197.199996948</ele>
        <time>2015-07-03T09:05:30.396Z</time>
      </trkpt>
      <trkpt lat="45.95875" lon="4.77258">
        <ele>197.199996948</ele>
        <time>2015-07-03T09:05:31.392Z</time>
      </trkpt>
      <trkpt lat="45.95877" lon="4.77265">
        <ele>197.100006104</ele>
        <time>2015-07-03T09:05:32.396Z</time>
      </trkpt>
      <trkpt lat="45.95879" lon="4.77273">
        <ele>197.300003052</ele>
        <time>2015-07-03T09:05:33.434Z</time>
      </trkpt>
      <trkpt lat="45.95878" lon="4.77279">
        <ele>197.199996948</ele>
        <time>2015-07-03T09:05:34.39Z</time>
      </trkpt>
      <trkpt lat="45.9588" lon="4.77285">
        <ele>196.899993896</ele>
        <time>2015-07-03T09:05:35.391Z</time>
      </trkpt>
      <trkpt lat="45.95882" lon="4.77292">
        <ele>196.899993896</ele>
        <time>2015-07-03T09:05:36.396Z</time>
      </trkpt>
      <trkpt lat="45.95884" lon="4.77299">
        <ele>196.5</ele>
        <time>2015-07-03T09:05:37.408Z</time>
      </trkpt>
      <trkpt lat="45.95885" lon="4.77306">
        <ele>196.5</ele>
        <time>2015-07-03T09:05:38.391Z</time>
      </trkpt>
      <trkpt lat="45.95887" lon="4.77312">
        <ele>196.5</ele>
        <time>2015-07-03T09:05:39.426Z</time>
      </trkpt>
      <trkpt lat="45.95889" lon="4.77319">
        <ele>196.699996948</ele>
        <time>2015-07-03T09:05:40.394Z</time>
      </trkpt>
      <trkpt lat="45.95891" lon="4.77326">
        <ele>196.600006104</ele>
        <time>2015-07-03T09:05:41.391Z</time>
      </trkpt>
      <trkpt lat="45.95892" lon="4.77333">
        <ele>196.399993896</ele>
        <time>2015-07-03T09:05:42.396Z</time>
      </trkpt>
      <trkpt lat="45.95894" lon="4.7734">
        <ele>196.699996948</ele>
        <time>2015-07-03T09:05:43.391Z</time>
      </trkpt>
      <trkpt lat="45.95895" lon="4.77347">
        <ele>196.800003052</ele>
        <time>2015-07-03T09:05:44.394Z</time>
      </trkpt>
      <trkpt lat="45.95898" lon="4.77354">
        <ele>196.800003052</ele>
        <time>2015-07-03T09:05:45.395Z</time>
      </trkpt>
      <trkpt lat="45.959" lon="4.77361">
        <ele>197.100006104</ele>
        <time>2015-07-03T09:05:46.39Z</time>
      </trkpt>
      <trkpt lat="45.95903" lon="4.77368">
        <ele>197.399993896</ele>
        <time>2015-07-03T09:05:47.391Z</time>
      </trkpt>
      <trkpt lat="45.95906" lon="4.77375">
        <ele>197.800003052</ele>
        <time>2015-07-03T09:05:48.388Z</time>
      </trkpt>
      <trkpt lat="45.95907" lon="4.77381">
        <ele>198</ele>
        <time>2015-07-03T09:05:49.39Z</time>
      </trkpt>
      <trkpt lat="45.9591" lon="4.77388">
        <ele>198.100006104</ele>
        <time>2015-07-03T09:05:50.436Z</time>
      </trkpt>
      <trkpt lat="45.95912" lon="4.77395">
        <ele>198.5</ele>
        <time>2015-07-03T09:05:51.391Z</time>
      </trkpt>
      <trkpt lat="45.95915" lon="4.77401">
        <ele>198.800003052</ele>
        <time>2015-07-03T09:05:52.391Z</time>
      </trkpt>
      <trkpt lat="45.95918" lon="4.77408">
        <ele>199.100006104</ele>
        <time>2015-07-03T09:05:53.408Z</time>
      </trkpt>
      <trkpt lat="45.9592" lon="4.77415">
        <ele>199.5</ele>
        <time>2015-07-03T09:05:54.396Z</time>
      </trkpt>
      <trkpt lat="45.95923" lon="4.77422">
        <ele>199.600006104</ele>
        <time>2015-07-03T09:05:55.415Z</time>
      </trkpt>
      <trkpt lat="45.95925" lon="4.77429">
        <ele>199.699996948</ele>
        <time>2015-07-03T09:05:56.391Z</time>
      </trkpt>
      <trkpt lat="45.95927" lon="4.77435">
        <ele>200.100006104</ele>
        <time>2015-07-03T09:05:57.39Z</time>
      </trkpt>
      <trkpt lat="45.95929" lon="4.77442">
        <ele>200.5</ele>
        <time>2015-07-03T09:05:58.391Z</time>
      </trkpt>
      <trkpt lat="45.95932" lon="4.77448">
        <ele>200.800003052</ele>
        <time>2015-07-03T09:05:59.466Z</time>
      </trkpt>
      <trkpt lat="45.95934" lon="4.77455">
        <ele>201.199996948</ele>
        <time>2015-07-03T09:06:00.394Z</time>
      </trkpt>
      <trkpt lat="45.95937" lon="4.77462">
        <ele>201.399993896</ele>
        <time>2015-07-03T09:06:01.391Z</time>
      </trkpt>
      <trkpt lat="45.95939" lon="4.77468">
        <ele>201.699996948</ele>
        <time>2015-07-03T09:06:02.402Z</time>
      </trkpt>
      <trkpt lat="45.95942" lon="4.77474">
        <ele>202.199996948</ele>
        <time>2015-07-03T09:06:03.391Z</time>
      </trkpt>
      <trkpt lat="45.95945" lon="4.77481">
        <ele>202.899993896</ele>
        <time>2015-07-03T09:06:04.393Z</time>
      </trkpt>
      <trkpt lat="45.95947" lon="4.77487">
        <ele>202.899993896</ele>
        <time>2015-07-03T09:06:05.39Z</time>
      </trkpt>
      <trkpt lat="45.95949" lon="4.77494">
        <ele>202.800003052</ele>
        <time>2015-07-03T09:06:06.393Z</time>
      </trkpt>
      <trkpt lat="45.95952" lon="4.77499">
        <ele>202.600006104</ele>
        <time>2015-07-03T09:06:07.416Z</time>
      </trkpt>
      <trkpt lat="45.95955" lon="4.77505">
        <ele>202.600006104</ele>
        <time>2015-07-03T09:06:08.391Z</time>
      </trkpt>
      <trkpt lat="45.95957" lon="4.77511">
        <ele>202.600006104</ele>
        <time>2015-07-03T09:06:09.391Z</time>
      </trkpt>
      <trkpt lat="45.9596" lon="4.77517">
        <ele>202.800003052</ele>
        <time>2015-07-03T09:06:10.393Z</time>
      </trkpt>
      <trkpt lat="45.95963" lon="4.77523">
        <ele>203</ele>
        <time>2015-07-03T09:06:11.398Z</time>
      </trkpt>
      <trkpt lat="45.95966" lon="4.77529">
        <ele>202.899993896</ele>
        <time>2015-07-03T09:06:12.394Z</time>
      </trkpt>
      <trkpt lat="45.95971" lon="4.77539">
        <ele>202.699996948</ele>
        <time>2015-07-03T09:06:14.408Z</time>
      </trkpt>
      <trkpt lat="45.95972" lon="4.77544">
        <ele>202.699996948</ele>
        <time>2015-07-03T09:06:15.394Z</time>
      </trkpt>
      <trkpt lat="45.95977" lon="4.77553">
        <ele>202.5</ele>
        <time>2015-07-03T09:06:17.391Z</time>
      </trkpt>
      <trkpt lat="45.95979" lon="4.77557">
        <ele>202.800003052</ele>
        <time>2015-07-03T09:06:18.395Z</time>
      </trkpt>
      <trkpt lat="45.95982" lon="4.77568">
        <ele>203</ele>
        <time>2015-07-03T09:06:20.391Z</time>
      </trkpt>
      <trkpt lat="45.95985" lon="4.77575">
        <ele>203</ele>
        <time>2015-07-03T09:06:21.391Z</time>
      </trkpt>
      <trkpt lat="45.95986" lon="4.77583">
        <ele>202.899993896</ele>
        <time>2015-07-03T09:06:22.436Z</time>
      </trkpt>
      <trkpt lat="45.95988" lon="4.77591">
        <ele>202.699996948</ele>
        <time>2015-07-03T09:06:23.392Z</time>
      </trkpt>
      <trkpt lat="45.95992" lon="4.77597">
        <ele>202.800003052</ele>
        <time>2015-07-03T09:06:24.394Z</time>
      </trkpt>
      <trkpt lat="45.95996" lon="4.77602">
        <ele>203.399993896</ele>
        <time>2015-07-03T09:06:25.39Z</time>
      </trkpt>
      <trkpt lat="45.96" lon="4.77606">
        <ele>203.600006104</ele>
        <time>2015-07-03T09:06:26.395Z</time>
      </trkpt>
      <trkpt lat="45.96004" lon="4.7761">
        <ele>203.600006104</ele>
        <time>2015-07-03T09:06:27.396Z</time>
      </trkpt>
      <trkpt lat="45.96007" lon="4.77615">
        <ele>203.600006104</ele>
        <time>2015-07-03T09:06:28.39Z</time>
      </trkpt>
      <trkpt lat="45.96011" lon="4.7762">
        <ele>203.600006104</ele>
        <time>2015-07-03T09:06:29.39Z</time>
      </trkpt>
      <trkpt lat="45.96015" lon="4.77625">
        <ele>203.399993896</ele>
        <time>2015-07-03T09:06:30.411Z</time>
      </trkpt>
      <trkpt lat="45.96019" lon="4.77629">
        <ele>203</ele>
        <time>2015-07-03T09:06:31.39Z</time>
      </trkpt>
      <trkpt lat="45.96023" lon="4.77633">
        <ele>203.100006104</ele>
        <time>2015-07-03T09:06:32.436Z</time>
      </trkpt>
      <trkpt lat="45.96027" lon="4.77637">
        <ele>203.199996948</ele>
        <time>2015-07-03T09:06:33.391Z</time>
      </trkpt>
      <trkpt lat="45.96032" lon="4.77641">
        <ele>203.199996948</ele>
        <time>2015-07-03T09:06:34.39Z</time>
      </trkpt>
      <trkpt lat="45.96036" lon="4.77645">
        <ele>203.199996948</ele>
        <time>2015-07-03T09:06:35.447Z</time>
      </trkpt>
      <trkpt lat="45.96041" lon="4.77648">
        <ele>203.100006104</ele>
        <time>2015-07-03T09:06:36.396Z</time>
      </trkpt>
      <trkpt lat="45.96045" lon="4.7765">
        <ele>203.199996948</ele>
        <time>2015-07-03T09:06:37.395Z</time>
      </trkpt>
      <trkpt lat="45.96051" lon="4.77659">
        <ele>203.399993896</ele>
        <time>2015-07-03T09:06:39.391Z</time>
      </trkpt>
      <trkpt lat="45.96054" lon="4.77664">
        <ele>203.399993896</ele>
        <time>2015-07-03T09:06:40.392Z</time>
      </trkpt>
      <trkpt lat="45.96058" lon="4.77668">
        <ele>203.300003052</ele>
        <time>2015-07-03T09:06:41.391Z</time>
      </trkpt>
      <trkpt lat="45.96062" lon="4.77673">
        <ele>203.199996948</ele>
        <time>2015-07-03T09:06:42.395Z</time>
      </trkpt>
      <trkpt lat="45.96065" lon="4.77679">
        <ele>203.199996948</ele>
        <time>2015-07-03T09:06:43.394Z</time>
      </trkpt>
      <trkpt lat="45.96069" lon="4.77683">
        <ele>203.100006104</ele>
        <time>2015-07-03T09:06:44.391Z</time>
      </trkpt>
      <trkpt lat="45.96072" lon="4.77689">
        <ele>203.399993896</ele>
        <time>2015-07-03T09:06:45.39Z</time>
      </trkpt>
      <trkpt lat="45.96075" lon="4.77695">
        <ele>203.5</ele>
        <time>2015-07-03T09:06:46.4Z</time>
      </trkpt>
      <trkpt lat="45.96078" lon="4.777">
        <ele>203.600006104</ele>
        <time>2015-07-03T09:06:47.391Z</time>
      </trkpt>
      <trkpt lat="45.96081" lon="4.77705">
        <ele>203.699996948</ele>
        <time>2015-07-03T09:06:48.391Z</time>
      </trkpt>
      <trkpt lat="45.96086" lon="4.77711">
        <ele>203.600006104</ele>
        <time>2015-07-03T09:06:49.415Z</time>
      </trkpt>
      <trkpt lat="45.96089" lon="4.77717">
        <ele>203.699996948</ele>
        <time>2015-07-03T09:06:50.391Z</time>
      </trkpt>
      <trkpt lat="45.96091" lon="4.77723">
        <ele>204</ele>
        <time>2015-07-03T09:06:51.39Z</time>
      </trkpt>
      <trkpt lat="45.96094" lon="4.77728">
        <ele>203.800003052</ele>
        <time>2015-07-03T09:06:52.391Z</time>
      </trkpt>
      <trkpt lat="45.96097" lon="4.77733">
        <ele>203.5</ele>
        <time>2015-07-03T09:06:53.39Z</time>
      </trkpt>
      <trkpt lat="45.961" lon="4.77738">
        <ele>203.600006104</ele>
        <time>2015-07-03T09:06:54.395Z</time>
      </trkpt>
      <trkpt lat="45.96103" lon="4.77744">
        <ele>203.699996948</ele>
        <time>2015-07-03T09:06:55.398Z</time>
      </trkpt>
      <trkpt lat="45.96106" lon="4.77748">
        <ele>203.800003052</ele>
        <time>2015-07-03T09:06:56.391Z</time>
      </trkpt>
      <trkpt lat="45.96109" lon="4.77753">
        <ele>204.100006104</ele>
        <time>2015-07-03T09:06:57.413Z</time>
      </trkpt>
      <trkpt lat="45.96112" lon="4.77758">
        <ele>203.899993896</ele>
        <time>2015-07-03T09:06:58.39Z</time>
      </trkpt>
      <trkpt lat="45.96118" lon="4.77767">
        <ele>204</ele>
        <time>2015-07-03T09:07:00.394Z</time>
      </trkpt>
      <trkpt lat="45.9612" lon="4.77772">
        <ele>203.800003052</ele>
        <time>2015-07-03T09:07:01.39Z</time>
      </trkpt>
      <trkpt lat="45.96123" lon="4.77777">
        <ele>203.699996948</ele>
        <time>2015-07-03T09:07:02.397Z</time>
      </trkpt>
      <trkpt lat="45.96127" lon="4.77782">
        <ele>203.699996948</ele>
        <time>2015-07-03T09:07:03.391Z</time>
      </trkpt>
      <trkpt lat="45.9613" lon="4.77788">
        <ele>203.699996948</ele>
        <time>2015-07-03T09:07:04.39Z</time>
      </trkpt>
      <trkpt lat="45.96134" lon="4.77792">
        <ele>203.5</ele>
        <time>2015-07-03T09:07:05.389Z</time>
      </trkpt>
      <trkpt lat="45.96137" lon="4.77797">
        <ele>203.5</ele>
        <time>2015-07-03T09:07:06.396Z</time>
      </trkpt>
      <trkpt lat="45.96141" lon="4.77803">
        <ele>203.5</ele>
        <time>2015-07-03T09:07:07.408Z</time>
      </trkpt>
      <trkpt lat="45.96144" lon="4.77809">
        <ele>203.600006104</ele>
        <time>2015-07-03T09:07:08.391Z</time>
      </trkpt>
      <trkpt lat="45.96147" lon="4.77814">
        <ele>203.600006104</ele>
        <time>2015-07-03T09:07:09.39Z</time>
      </trkpt>
      <trkpt lat="45.9615" lon="4.77819">
        <ele>203.600006104</ele>
        <time>2015-07-03T09:07:10.39Z</time>
      </trkpt>
      <trkpt lat="45.96153" lon="4.77824">
        <ele>203.800003052</ele>
        <time>2015-07-03T09:07:11.39Z</time>
      </trkpt>
      <trkpt lat="45.96157" lon="4.77829">
        <ele>203.699996948</ele>
        <time>2015-07-03T09:07:12.396Z</time>
      </trkpt>
      <trkpt lat="45.9616" lon="4.77835">
        <ele>203.899993896</ele>
        <time>2015-07-03T09:07:13.392Z</time>
      </trkpt>
      <trkpt lat="45.96163" lon="4.77841">
        <ele>204.199996948</ele>
        <time>2015-07-03T09:07:14.391Z</time>
      </trkpt>
      <trkpt lat="45.96166" lon="4.77846">
        <ele>203.899993896</ele>
        <time>2015-07-03T09:07:15.39Z</time>
      </trkpt>
      <trkpt lat="45.96169" lon="4.77852">
        <ele>203.899993896</ele>
        <time>2015-07-03T09:07:16.396Z</time>
      </trkpt>
      <trkpt lat="45.96172" lon="4.77857">
        <ele>203.800003052</ele>
        <time>2015-07-03T09:07:17.392Z</time>
      </trkpt>
      <trkpt lat="45.96175" lon="4.77863">
        <ele>203.800003052</ele>
        <time>2015-07-03T09:07:18.429Z</time>
      </trkpt>
      <trkpt lat="45.96178" lon="4.77868">
        <ele>203.899993896</ele>
        <time>2015-07-03T09:07:19.392Z</time>
      </trkpt>
      <trkpt lat="45.96181" lon="4.77874">
        <ele>203.899993896</ele>
        <time>2015-07-03T09:07:20.391Z</time>
      </trkpt>
      <trkpt lat="45.96185" lon="4.77879">
        <ele>203.800003052</ele>
        <time>2015-07-03T09:07:21.39Z</time>
      </trkpt>
      <trkpt lat="45.96189" lon="4.77884">
        <ele>203.800003052</ele>
        <time>2015-07-03T09:07:22.393Z</time>
      </trkpt>
      <trkpt lat="45.96192" lon="4.7789">
        <ele>203.699996948</ele>
        <time>2015-07-03T09:07:23.39Z</time>
      </trkpt>
      <trkpt lat="45.96196" lon="4.77895">
        <ele>203.600006104</ele>
        <time>2015-07-03T09:07:24.395Z</time>
      </trkpt>
      <trkpt lat="45.96199" lon="4.779">
        <ele>203.5</ele>
        <time>2015-07-03T09:07:25.392Z</time>
      </trkpt>
      <trkpt lat="45.96202" lon="4.77906">
        <ele>203.5</ele>
        <time>2015-07-03T09:07:26.426Z</time>
      </trkpt>
      <trkpt lat="45.96206" lon="4.77912">
        <ele>203.600006104</ele>
        <time>2015-07-03T09:07:27.395Z</time>
      </trkpt>
      <trkpt lat="45.96209" lon="4.77918">
        <ele>203.600006104</ele>
        <time>2015-07-03T09:07:28.41Z</time>
      </trkpt>
      <trkpt lat="45.96212" lon="4.77924">
        <ele>203.300003052</ele>
        <time>2015-07-03T09:07:29.392Z</time>
      </trkpt>
      <trkpt lat="45.96216" lon="4.7793">
        <ele>202.899993896</ele>
        <time>2015-07-03T09:07:30.394Z</time>
      </trkpt>
      <trkpt lat="45.9622" lon="4.77936">
        <ele>202.800003052</ele>
        <time>2015-07-03T09:07:31.39Z</time>
      </trkpt>
      <trkpt lat="45.96224" lon="4.77941">
        <ele>202.600006104</ele>
        <time>2015-07-03T09:07:32.393Z</time>
      </trkpt>
      <trkpt lat="45.96228" lon="4.77947">
        <ele>202.399993896</ele>
        <time>2015-07-03T09:07:33.39Z</time>
      </trkpt>
      <trkpt lat="45.96232" lon="4.77951">
        <ele>202.199996948</ele>
        <time>2015-07-03T09:07:34.426Z</time>
      </trkpt>
      <trkpt lat="45.96235" lon="4.77955">
        <ele>202.199996948</ele>
        <time>2015-07-03T09:07:35.391Z</time>
      </trkpt>
      <trkpt lat="45.96238" lon="4.77959">
        <ele>202</ele>
        <time>2015-07-03T09:07:36.395Z</time>
      </trkpt>
      <trkpt lat="45.96243" lon="4.77962">
        <ele>201.899993896</ele>
        <time>2015-07-03T09:07:37.39Z</time>
      </trkpt>
      <trkpt lat="45.96248" lon="4.77965">
        <ele>201.800003052</ele>
        <time>2015-07-03T09:07:38.391Z</time>
      </trkpt>
      <trkpt lat="45.96253" lon="4.77969">
        <ele>201.699996948</ele>
        <time>2015-07-03T09:07:39.391Z</time>
      </trkpt>
      <trkpt lat="45.96258" lon="4.77972">
        <ele>201.699996948</ele>
        <time>2015-07-03T09:07:40.39Z</time>
      </trkpt>
      <trkpt lat="45.96264" lon="4.77975">
        <ele>201.699996948</ele>
        <time>2015-07-03T09:07:41.39Z</time>
      </trkpt>
      <trkpt lat="45.96269" lon="4.77979">
        <ele>201.600006104</ele>
        <time>2015-07-03T09:07:42.418Z</time>
      </trkpt>
      <trkpt lat="45.96274" lon="4.77982">
        <ele>201.5</ele>
        <time>2015-07-03T09:07:43.39Z</time>
      </trkpt>
      <trkpt lat="45.96279" lon="4.77988">
        <ele>201.5</ele>
        <time>2015-07-03T09:07:44.466Z</time>
      </trkpt>
      <trkpt lat="45.96284" lon="4.77992">
        <ele>201.5</ele>
        <time>2015-07-03T09:07:45.39Z</time>
      </trkpt>
      <trkpt lat="45.96289" lon="4.77998">
        <ele>201.5</ele>
        <time>2015-07-03T09:07:46.39Z</time>
      </trkpt>
      <trkpt lat="45.96293" lon="4.78004">
        <ele>201.399993896</ele>
        <time>2015-07-03T09:07:47.391Z</time>
      </trkpt>
      <trkpt lat="45.96298" lon="4.78013">
        <ele>201.600006104</ele>
        <time>2015-07-03T09:07:48.396Z</time>
      </trkpt>
      <trkpt lat="45.96302" lon="4.78019">
        <ele>201.699996948</ele>
        <time>2015-07-03T09:07:49.393Z</time>
      </trkpt>
      <trkpt lat="45.96306" lon="4.78025">
        <ele>201.800003052</ele>
        <time>2015-07-03T09:07:50.393Z</time>
      </trkpt>
      <trkpt lat="45.9631" lon="4.7803">
        <ele>201.800003052</ele>
        <time>2015-07-03T09:07:51.392Z</time>
      </trkpt>
      <trkpt lat="45.96315" lon="4.78035">
        <ele>201.699996948</ele>
        <time>2015-07-03T09:07:52.394Z</time>
      </trkpt>
      <trkpt lat="45.9632" lon="4.78042">
        <ele>201.5</ele>
        <time>2015-07-03T09:07:53.391Z</time>
      </trkpt>
      <trkpt lat="45.96324" lon="4.78048">
        <ele>201.399993896</ele>
        <time>2015-07-03T09:07:54.396Z</time>
      </trkpt>
      <trkpt lat="45.96329" lon="4.78054">
        <ele>201.100006104</ele>
        <time>2015-07-03T09:07:55.412Z</time>
      </trkpt>
      <trkpt lat="45.96334" lon="4.78059">
        <ele>200.899993896</ele>
        <time>2015-07-03T09:07:56.393Z</time>
      </trkpt>
      <trkpt lat="45.96339" lon="4.78064">
        <ele>200.699996948</ele>
        <time>2015-07-03T09:07:57.391Z</time>
      </trkpt>
      <trkpt lat="45.96343" lon="4.7807">
        <ele>200.699996948</ele>
        <time>2015-07-03T09:07:58.436Z</time>
      </trkpt>
      <trkpt lat="45.96348" lon="4.78075">
        <ele>200.699996948</ele>
        <time>2015-07-03T09:07:59.394Z</time>
      </trkpt>
      <trkpt lat="45.96352" lon="4.78079">
        <ele>200.800003052</ele>
        <time>2015-07-03T09:08:00.395Z</time>
      </trkpt>
      <trkpt lat="45.96357" lon="4.78084">
        <ele>201</ele>
        <time>2015-07-03T09:08:01.391Z</time>
      </trkpt>
      <trkpt lat="45.96361" lon="4.78088">
        <ele>201.100006104</ele>
        <time>2015-07-03T09:08:02.394Z</time>
      </trkpt>
      <trkpt lat="45.96365" lon="4.78091">
        <ele>201</ele>
        <time>2015-07-03T09:08:03.39Z</time>
      </trkpt>
      <trkpt lat="45.9637" lon="4.78095">
        <ele>201.100006104</ele>
        <time>2015-07-03T09:08:04.392Z</time>
      </trkpt>
      <trkpt lat="45.96374" lon="4.78099">
        <ele>201</ele>
        <time>2015-07-03T09:08:05.392Z</time>
      </trkpt>
      <trkpt lat="45.96378" lon="4.78103">
        <ele>201.100006104</ele>
        <time>2015-07-03T09:08:06.396Z</time>
      </trkpt>
      <trkpt lat="45.96381" lon="4.78107">
        <ele>201</ele>
        <time>2015-07-03T09:08:07.391Z</time>
      </trkpt>
      <trkpt lat="45.96385" lon="4.78112">
        <ele>200.899993896</ele>
        <time>2015-07-03T09:08:08.391Z</time>
      </trkpt>
      <trkpt lat="45.9639" lon="4.78116">
        <ele>200.899993896</ele>
        <time>2015-07-03T09:08:09.392Z</time>
      </trkpt>
      <trkpt lat="45.96395" lon="4.7812">
        <ele>200.399993896</ele>
        <time>2015-07-03T09:08:10.39Z</time>
      </trkpt>
      <trkpt lat="45.964" lon="4.78123">
        <ele>200.300003052</ele>
        <time>2015-07-03T09:08:11.413Z</time>
      </trkpt>
      <trkpt lat="45.96404" lon="4.78126">
        <ele>200</ele>
        <time>2015-07-03T09:08:12.397Z</time>
      </trkpt>
      <trkpt lat="45.96409" lon="4.7813">
        <ele>199.600006104</ele>
        <time>2015-07-03T09:08:13.39Z</time>
      </trkpt>
      <trkpt lat="45.96414" lon="4.78134">
        <ele>199.199996948</ele>
        <time>2015-07-03T09:08:14.393Z</time>
      </trkpt>
      <trkpt lat="45.96418" lon="4.78139">
        <ele>199</ele>
        <time>2015-07-03T09:08:15.39Z</time>
      </trkpt>
      <trkpt lat="45.96424" lon="4.78142">
        <ele>199.199996948</ele>
        <time>2015-07-03T09:08:16.391Z</time>
      </trkpt>
      <trkpt lat="45.96429" lon="4.78148">
        <ele>199.199996948</ele>
        <time>2015-07-03T09:08:17.391Z</time>
      </trkpt>
      <trkpt lat="45.96434" lon="4.78153">
        <ele>199.199996948</ele>
        <time>2015-07-03T09:08:18.394Z</time>
      </trkpt>
      <trkpt lat="45.96439" lon="4.78158">
        <ele>199.300003052</ele>
        <time>2015-07-03T09:08:19.393Z</time>
      </trkpt>
      <trkpt lat="45.96444" lon="4.78162">
        <ele>199.800003052</ele>
        <time>2015-07-03T09:08:20.414Z</time>
      </trkpt>
      <trkpt lat="45.96448" lon="4.78168">
        <ele>199.899993896</ele>
        <time>2015-07-03T09:08:21.393Z</time>
      </trkpt>
      <trkpt lat="45.96453" lon="4.78173">
        <ele>199.800003052</ele>
        <time>2015-07-03T09:08:22.407Z</time>
      </trkpt>
      <trkpt lat="45.96458" lon="4.78177">
        <ele>199.899993896</ele>
        <time>2015-07-03T09:08:23.39Z</time>
      </trkpt>
      <trkpt lat="45.96463" lon="4.78182">
        <ele>200</ele>
        <time>2015-07-03T09:08:24.393Z</time>
      </trkpt>
      <trkpt lat="45.96468" lon="4.78185">
        <ele>200.199996948</ele>
        <time>2015-07-03T09:08:25.39Z</time>
      </trkpt>
      <trkpt lat="45.96473" lon="4.78188">
        <ele>200.199996948</ele>
        <time>2015-07-03T09:08:26.391Z</time>
      </trkpt>
      <trkpt lat="45.96478" lon="4.78191">
        <ele>200.300003052</ele>
        <time>2015-07-03T09:08:27.393Z</time>
      </trkpt>
      <trkpt lat="45.96483" lon="4.78194">
        <ele>200.399993896</ele>
        <time>2015-07-03T09:08:28.39Z</time>
      </trkpt>
      <trkpt lat="45.96487" lon="4.78199">
        <ele>201.600006104</ele>
        <time>2015-07-03T09:08:29.39Z</time>
      </trkpt>
      <trkpt lat="45.96492" lon="4.78202">
        <ele>201.899993896</ele>
        <time>2015-07-03T09:08:30.394Z</time>
      </trkpt>
      <trkpt lat="45.96496" lon="4.78205">
        <ele>202</ele>
        <time>2015-07-03T09:08:31.391Z</time>
      </trkpt>
      <trkpt lat="45.965" lon="4.78211">
        <ele>202.300003052</ele>
        <time>2015-07-03T09:08:32.393Z</time>
      </trkpt>
      <trkpt lat="45.96504" lon="4.78216">
        <ele>202.100006104</ele>
        <time>2015-07-03T09:08:33.391Z</time>
      </trkpt>
      <trkpt lat="45.96508" lon="4.78222">
        <ele>202.100006104</ele>
        <time>2015-07-03T09:08:34.391Z</time>
      </trkpt>
      <trkpt lat="45.96511" lon="4.78227">
        <ele>202.399993896</ele>
        <time>2015-07-03T09:08:35.391Z</time>
      </trkpt>
      <trkpt lat="45.96513" lon="4.78233">
        <ele>202.699996948</ele>
        <time>2015-07-03T09:08:36.416Z</time>
      </trkpt>
      <trkpt lat="45.96518" lon="4.78239">
        <ele>202.800003052</ele>
        <time>2015-07-03T09:08:37.39Z</time>
      </trkpt>
      <trkpt lat="45.96521" lon="4.78246">
        <ele>202.899993896</ele>
        <time>2015-07-03T09:08:38.405Z</time>
      </trkpt>
      <trkpt lat="45.96525" lon="4.78252">
        <ele>203.399993896</ele>
        <time>2015-07-03T09:08:39.391Z</time>
      </trkpt>
      <trkpt lat="45.96528" lon="4.78259">
        <ele>203.600006104</ele>
        <time>2015-07-03T09:08:40.39Z</time>
      </trkpt>
      <trkpt lat="45.96532" lon="4.78265">
        <ele>203.800003052</ele>
        <time>2015-07-03T09:08:41.39Z</time>
      </trkpt>
      <trkpt lat="45.96536" lon="4.78271">
        <ele>203.899993896</ele>
        <time>2015-07-03T09:08:42.39Z</time>
      </trkpt>
      <trkpt lat="45.96542" lon="4.78276">
        <ele>204</ele>
        <time>2015-07-03T09:08:43.411Z</time>
      </trkpt>
      <trkpt lat="45.96546" lon="4.78282">
        <ele>204.199996948</ele>
        <time>2015-07-03T09:08:44.525Z</time>
      </trkpt>
      <trkpt lat="45.96551" lon="4.78289">
        <ele>204.199996948</ele>
        <time>2015-07-03T09:08:45.391Z</time>
      </trkpt>
      <trkpt lat="45.96556" lon="4.78294">
        <ele>204.5</ele>
        <time>2015-07-03T09:08:46.393Z</time>
      </trkpt>
      <trkpt lat="45.9656" lon="4.783">
        <ele>204.699996948</ele>
        <time>2015-07-03T09:08:47.392Z</time>
      </trkpt>
      <trkpt lat="45.96565" lon="4.78304">
        <ele>204.899993896</ele>
        <time>2015-07-03T09:08:48.393Z</time>
      </trkpt>
      <trkpt lat="45.96569" lon="4.78308">
        <ele>205</ele>
        <time>2015-07-03T09:08:49.39Z</time>
      </trkpt>
      <trkpt lat="45.96573" lon="4.78311">
        <ele>205</ele>
        <time>2015-07-03T09:08:50.394Z</time>
      </trkpt>
      <trkpt lat="45.96577" lon="4.78316">
        <ele>205.100006104</ele>
        <time>2015-07-03T09:08:51.396Z</time>
      </trkpt>
      <trkpt lat="45.96581" lon="4.7832">
        <ele>205.100006104</ele>
        <time>2015-07-03T09:08:52.419Z</time>
      </trkpt>
      <trkpt lat="45.96584" lon="4.78325">
        <ele>205.100006104</ele>
        <time>2015-07-03T09:08:53.391Z</time>
      </trkpt>
      <trkpt lat="45.96589" lon="4.78329">
        <ele>205.100006104</ele>
        <time>2015-07-03T09:08:54.395Z</time>
      </trkpt>
      <trkpt lat="45.96594" lon="4.78332">
        <ele>205.199996948</ele>
        <time>2015-07-03T09:08:55.391Z</time>
      </trkpt>
      <trkpt lat="45.96599" lon="4.78336">
        <ele>205.199996948</ele>
        <time>2015-07-03T09:08:56.392Z</time>
      </trkpt>
      <trkpt lat="45.96604" lon="4.7834">
        <ele>204.899993896</ele>
        <time>2015-07-03T09:08:57.389Z</time>
      </trkpt>
      <trkpt lat="45.96608" lon="4.78344">
        <ele>204.5</ele>
        <time>2015-07-03T09:08:58.391Z</time>
      </trkpt>
      <trkpt lat="45.96612" lon="4.78348">
        <ele>204.300003052</ele>
        <time>2015-07-03T09:08:59.408Z</time>
      </trkpt>
      <trkpt lat="45.96616" lon="4.78351">
        <ele>204.100006104</ele>
        <time>2015-07-03T09:09:00.452Z</time>
      </trkpt>
      <trkpt lat="45.96621" lon="4.78354">
        <ele>203.899993896</ele>
        <time>2015-07-03T09:09:01.389Z</time>
      </trkpt>
      <trkpt lat="45.96625" lon="4.78358">
        <ele>203.800003052</ele>
        <time>2015-07-03T09:09:02.426Z</time>
      </trkpt>
      <trkpt lat="45.9663" lon="4.78361">
        <ele>203.699996948</ele>
        <time>2015-07-03T09:09:03.39Z</time>
      </trkpt>
      <trkpt lat="45.96634" lon="4.78365">
        <ele>203.800003052</ele>
        <time>2015-07-03T09:09:04.39Z</time>
      </trkpt>
      <trkpt lat="45.96638" lon="4.78369">
        <ele>203.800003052</ele>
        <time>2015-07-03T09:09:05.39Z</time>
      </trkpt>
      <trkpt lat="45.96642" lon="4.78374">
        <ele>203.699996948</ele>
        <time>2015-07-03T09:09:06.394Z</time>
      </trkpt>
      <trkpt lat="45.96646" lon="4.78379">
        <ele>203.699996948</ele>
        <time>2015-07-03T09:09:07.39Z</time>
      </trkpt>
      <trkpt lat="45.9665" lon="4.78384">
        <ele>203.699996948</ele>
        <time>2015-07-03T09:09:08.399Z</time>
      </trkpt>
      <trkpt lat="45.96654" lon="4.78387">
        <ele>204</ele>
        <time>2015-07-03T09:09:09.391Z</time>
      </trkpt>
      <trkpt lat="45.96658" lon="4.78394">
        <ele>204.5</ele>
        <time>2015-07-03T09:09:10.391Z</time>
      </trkpt>
      <trkpt lat="45.96662" lon="4.78398">
        <ele>204.5</ele>
        <time>2015-07-03T09:09:11.389Z</time>
      </trkpt>
      <trkpt lat="45.96667" lon="4.78402">
        <ele>204.600006104</ele>
        <time>2015-07-03T09:09:12.399Z</time>
      </trkpt>
      <trkpt lat="45.9667" lon="4.78406">
        <ele>204.800003052</ele>
        <time>2015-07-03T09:09:13.393Z</time>
      </trkpt>
      <trkpt lat="45.96674" lon="4.7841">
        <ele>205</ele>
        <time>2015-07-03T09:09:14.435Z</time>
      </trkpt>
      <trkpt lat="45.96678" lon="4.78414">
        <ele>205.399993896</ele>
        <time>2015-07-03T09:09:15.406Z</time>
      </trkpt>
      <trkpt lat="45.96682" lon="4.78417">
        <ele>205.5</ele>
        <time>2015-07-03T09:09:16.427Z</time>
      </trkpt>
      <trkpt lat="45.96687" lon="4.78419">
        <ele>205.399993896</ele>
        <time>2015-07-03T09:09:17.39Z</time>
      </trkpt>
      <trkpt lat="45.96694" lon="4.78426">
        <ele>205.300003052</ele>
        <time>2015-07-03T09:09:19.391Z</time>
      </trkpt>
      <trkpt lat="45.96697" lon="4.7843">
        <ele>205.5</ele>
        <time>2015-07-03T09:09:20.392Z</time>
      </trkpt>
      <trkpt lat="45.96701" lon="4.78433">
        <ele>205.5</ele>
        <time>2015-07-03T09:09:21.392Z</time>
      </trkpt>
      <trkpt lat="45.96705" lon="4.78439">
        <ele>205.699996948</ele>
        <time>2015-07-03T09:09:22.393Z</time>
      </trkpt>
      <trkpt lat="45.96709" lon="4.78444">
        <ele>205.699996948</ele>
        <time>2015-07-03T09:09:23.388Z</time>
      </trkpt>
      <trkpt lat="45.96713" lon="4.78451">
        <ele>205.699996948</ele>
        <time>2015-07-03T09:09:24.394Z</time>
      </trkpt>
      <trkpt lat="45.96719" lon="4.78455">
        <ele>206.199996948</ele>
        <time>2015-07-03T09:09:25.393Z</time>
      </trkpt>
      <trkpt lat="45.96723" lon="4.7846">
        <ele>206.399993896</ele>
        <time>2015-07-03T09:09:26.394Z</time>
      </trkpt>
      <trkpt lat="45.96727" lon="4.78465">
        <ele>206</ele>
        <time>2015-07-03T09:09:27.467Z</time>
      </trkpt>
      <trkpt lat="45.96731" lon="4.7847">
        <ele>205.899993896</ele>
        <time>2015-07-03T09:09:28.391Z</time>
      </trkpt>
      <trkpt lat="45.96736" lon="4.78474">
        <ele>206.100006104</ele>
        <time>2015-07-03T09:09:29.391Z</time>
      </trkpt>
      <trkpt lat="45.9674" lon="4.78479">
        <ele>206.399993896</ele>
        <time>2015-07-03T09:09:30.417Z</time>
      </trkpt>
      <trkpt lat="45.96745" lon="4.78484">
        <ele>206.699996948</ele>
        <time>2015-07-03T09:09:31.392Z</time>
      </trkpt>
      <trkpt lat="45.9675" lon="4.78489">
        <ele>206.899993896</ele>
        <time>2015-07-03T09:09:32.393Z</time>
      </trkpt>
      <trkpt lat="45.96754" lon="4.78494">
        <ele>207.199996948</ele>
        <time>2015-07-03T09:09:33.39Z</time>
      </trkpt>
      <trkpt lat="45.96759" lon="4.78498">
        <ele>207.399993896</ele>
        <time>2015-07-03T09:09:34.393Z</time>
      </trkpt>
      <trkpt lat="45.96763" lon="4.78503">
        <ele>207.600006104</ele>
        <time>2015-07-03T09:09:35.39Z</time>
      </trkpt>
      <trkpt lat="45.96767" lon="4.78508">
        <ele>207.699996948</ele>
        <time>2015-07-03T09:09:36.41Z</time>
      </trkpt>
      <trkpt lat="45.96771" lon="4.78514">
        <ele>207.899993896</ele>
        <time>2015-07-03T09:09:37.39Z</time>
      </trkpt>
      <trkpt lat="45.96775" lon="4.7852">
        <ele>208</ele>
        <time>2015-07-03T09:09:38.393Z</time>
      </trkpt>
      <trkpt lat="45.96779" lon="4.78525">
        <ele>207.899993896</ele>
        <time>2015-07-03T09:09:39.486Z</time>
      </trkpt>
      <trkpt lat="45.96782" lon="4.78529">
        <ele>207.800003052</ele>
        <time>2015-07-03T09:09:40.424Z</time>
      </trkpt>
      <trkpt lat="45.96787" lon="4.78533">
        <ele>207.699996948</ele>
        <time>2015-07-03T09:09:41.391Z</time>
      </trkpt>
      <trkpt lat="45.9679" lon="4.78538">
        <ele>207.399993896</ele>
        <time>2015-07-03T09:09:42.398Z</time>
      </trkpt>
      <trkpt lat="45.96794" lon="4.78543">
        <ele>207</ele>
        <time>2015-07-03T09:09:43.39Z</time>
      </trkpt>
      <trkpt lat="45.96797" lon="4.78549">
        <ele>206.899993896</ele>
        <time>2015-07-03T09:09:44.392Z</time>
      </trkpt>
      <trkpt lat="45.968" lon="4.78555">
        <ele>207</ele>
        <time>2015-07-03T09:09:45.41Z</time>
      </trkpt>
      <trkpt lat="45.96803" lon="4.7856">
        <ele>207.100006104</ele>
        <time>2015-07-03T09:09:46.39Z</time>
      </trkpt>
      <trkpt lat="45.96806" lon="4.78566">
        <ele>207.300003052</ele>
        <time>2015-07-03T09:09:47.392Z</time>
      </trkpt>
      <trkpt lat="45.9681" lon="4.78574">
        <ele>207.399993896</ele>
        <time>2015-07-03T09:09:48.394Z</time>
      </trkpt>
      <trkpt lat="45.96816" lon="4.78583">
        <ele>207.5</ele>
        <time>2015-07-03T09:09:50.39Z</time>
      </trkpt>
      <trkpt lat="45.96818" lon="4.78587">
        <ele>207.300003052</ele>
        <time>2015-07-03T09:09:51.436Z</time>
      </trkpt>
      <trkpt lat="45.96821" lon="4.78597">
        <ele>206.800003052</ele>
        <time>2015-07-03T09:09:53.391Z</time>
      </trkpt>
      <trkpt lat="45.96824" lon="4.78603">
        <ele>206.699996948</ele>
        <time>2015-07-03T09:09:54.395Z</time>
      </trkpt>
      <trkpt lat="45.96826" lon="4.78615">
        <ele>206.600006104</ele>
        <time>2015-07-03T09:09:56.394Z</time>
      </trkpt>
      <trkpt lat="45.96829" lon="4.78621">
        <ele>206.399993896</ele>
        <time>2015-07-03T09:09:57.39Z</time>
      </trkpt>
      <trkpt lat="45.96832" lon="4.78628">
        <ele>206.399993896</ele>
        <time>2015-07-03T09:09:58.392Z</time>
      </trkpt>
      <trkpt lat="45.96834" lon="4.78634">
        <ele>206.399993896</ele>
        <time>2015-07-03T09:09:59.389Z</time>
      </trkpt>
      <trkpt lat="45.96837" lon="4.78641">
        <ele>206.399993896</ele>
        <time>2015-07-03T09:10:00.431Z</time>
      </trkpt>
      <trkpt lat="45.96841" lon="4.78648">
        <ele>206.300003052</ele>
        <time>2015-07-03T09:10:01.393Z</time>
      </trkpt>
      <trkpt lat="45.96844" lon="4.78653">
        <ele>205.800003052</ele>
        <time>2015-07-03T09:10:02.444Z</time>
      </trkpt>
      <trkpt lat="45.96848" lon="4.7866">
        <ele>205.399993896</ele>
        <time>2015-07-03T09:10:03.408Z</time>
      </trkpt>
      <trkpt lat="45.96851" lon="4.78666">
        <ele>205.300003052</ele>
        <time>2015-07-03T09:10:04.393Z</time>
      </trkpt>
      <trkpt lat="45.96855" lon="4.78672">
        <ele>205</ele>
        <time>2015-07-03T09:10:05.392Z</time>
      </trkpt>
      <trkpt lat="45.96858" lon="4.78678">
        <ele>205.199996948</ele>
        <time>2015-07-03T09:10:06.395Z</time>
      </trkpt>
      <trkpt lat="45.9686" lon="4.78683">
        <ele>205.100006104</ele>
        <time>2015-07-03T09:10:07.391Z</time>
      </trkpt>
      <trkpt lat="45.96863" lon="4.78689">
        <ele>205.100006104</ele>
        <time>2015-07-03T09:10:08.392Z</time>
      </trkpt>
      <trkpt lat="45.96866" lon="4.78695">
        <ele>205.300003052</ele>
        <time>2015-07-03T09:10:09.388Z</time>
      </trkpt>
      <trkpt lat="45.96869" lon="4.78706">
        <ele>205.199996948</ele>
        <time>2015-07-03T09:10:11.391Z</time>
      </trkpt>
      <trkpt lat="45.96871" lon="4.78712">
        <ele>205.100006104</ele>
        <time>2015-07-03T09:10:12.396Z</time>
      </trkpt>
      <trkpt lat="45.96873" lon="4.78719">
        <ele>205</ele>
        <time>2015-07-03T09:10:13.388Z</time>
      </trkpt>
      <trkpt lat="45.96876" lon="4.78724">
        <ele>205</ele>
        <time>2015-07-03T09:10:14.39Z</time>
      </trkpt>
      <trkpt lat="45.96879" lon="4.78731">
        <ele>205</ele>
        <time>2015-07-03T09:10:15.394Z</time>
      </trkpt>
      <trkpt lat="45.96882" lon="4.78737">
        <ele>204.899993896</ele>
        <time>2015-07-03T09:10:16.392Z</time>
      </trkpt>
      <trkpt lat="45.96885" lon="4.78743">
        <ele>204.699996948</ele>
        <time>2015-07-03T09:10:17.393Z</time>
      </trkpt>
      <trkpt lat="45.96888" lon="4.7875">
        <ele>204.399993896</ele>
        <time>2015-07-03T09:10:18.394Z</time>
      </trkpt>
      <trkpt lat="45.96893" lon="4.78757">
        <ele>204</ele>
        <time>2015-07-03T09:10:19.407Z</time>
      </trkpt>
      <trkpt lat="45.96896" lon="4.78764">
        <ele>203.699996948</ele>
        <time>2015-07-03T09:10:20.394Z</time>
      </trkpt>
      <trkpt lat="45.96899" lon="4.78771">
        <ele>203.699996948</ele>
        <time>2015-07-03T09:10:21.391Z</time>
      </trkpt>
      <trkpt lat="45.96902" lon="4.78777">
        <ele>203.600006104</ele>
        <time>2015-07-03T09:10:22.396Z</time>
      </trkpt>
      <trkpt lat="45.96905" lon="4.78783">
        <ele>204</ele>
        <time>2015-07-03T09:10:23.39Z</time>
      </trkpt>
      <trkpt lat="45.96908" lon="4.78788">
        <ele>204.399993896</ele>
        <time>2015-07-03T09:10:24.417Z</time>
      </trkpt>
      <trkpt lat="45.96911" lon="4.78794">
        <ele>204.399993896</ele>
        <time>2015-07-03T09:10:25.39Z</time>
      </trkpt>
      <trkpt lat="45.96914" lon="4.78799">
        <ele>205</ele>
        <time>2015-07-03T09:10:26.39Z</time>
      </trkpt>
      <trkpt lat="45.96917" lon="4.78805">
        <ele>205.100006104</ele>
        <time>2015-07-03T09:10:27.414Z</time>
      </trkpt>
      <trkpt lat="45.96921" lon="4.78812">
        <ele>205.199996948</ele>
        <time>2015-07-03T09:10:28.39Z</time>
      </trkpt>
      <trkpt lat="45.96925" lon="4.78818">
        <ele>205.300003052</ele>
        <time>2015-07-03T09:10:29.393Z</time>
      </trkpt>
      <trkpt lat="45.96929" lon="4.78824">
        <ele>205.300003052</ele>
        <time>2015-07-03T09:10:30.395Z</time>
      </trkpt>
      <trkpt lat="45.96933" lon="4.7883">
        <ele>205.5</ele>
        <time>2015-07-03T09:10:31.389Z</time>
      </trkpt>
      <trkpt lat="45.96937" lon="4.78835">
        <ele>205.899993896</ele>
        <time>2015-07-03T09:10:32.392Z</time>
      </trkpt>
      <trkpt lat="45.96941" lon="4.7884">
        <ele>206.100006104</ele>
        <time>2015-07-03T09:10:33.39Z</time>
      </trkpt>
      <trkpt lat="45.96945" lon="4.78845">
        <ele>206.300003052</ele>
        <time>2015-07-03T09:10:34.389Z</time>
      </trkpt>
      <trkpt lat="45.96949" lon="4.7885">
        <ele>206.399993896</ele>
        <time>2015-07-03T09:10:35.392Z</time>
      </trkpt>
      <trkpt lat="45.96953" lon="4.78855">
        <ele>206.5</ele>
        <time>2015-07-03T09:10:36.395Z</time>
      </trkpt>
      <trkpt lat="45.96958" lon="4.7886">
        <ele>206.800003052</ele>
        <time>2015-07-03T09:10:37.389Z</time>
      </trkpt>
      <trkpt lat="45.96962" lon="4.78865">
        <ele>207</ele>
        <time>2015-07-03T09:10:38.472Z</time>
      </trkpt>
      <trkpt lat="45.96967" lon="4.7887">
        <ele>207.399993896</ele>
        <time>2015-07-03T09:10:39.476Z</time>
      </trkpt>
      <trkpt lat="45.96971" lon="4.78874">
        <ele>207.600006104</ele>
        <time>2015-07-03T09:10:40.407Z</time>
      </trkpt>
      <trkpt lat="45.96974" lon="4.7888">
        <ele>208.199996948</ele>
        <time>2015-07-03T09:10:41.39Z</time>
      </trkpt>
      <trkpt lat="45.96978" lon="4.78884">
        <ele>208.699996948</ele>
        <time>2015-07-03T09:10:42.398Z</time>
      </trkpt>
      <trkpt lat="45.96983" lon="4.78889">
        <ele>209</ele>
        <time>2015-07-03T09:10:43.389Z</time>
      </trkpt>
      <trkpt lat="45.96987" lon="4.78893">
        <ele>209.100006104</ele>
        <time>2015-07-03T09:10:44.391Z</time>
      </trkpt>
      <trkpt lat="45.96991" lon="4.78898">
        <ele>209.399993896</ele>
        <time>2015-07-03T09:10:45.39Z</time>
      </trkpt>
      <trkpt lat="45.96995" lon="4.78902">
        <ele>209.699996948</ele>
        <time>2015-07-03T09:10:46.389Z</time>
      </trkpt>
      <trkpt lat="45.96999" lon="4.78907">
        <ele>209.899993896</ele>
        <time>2015-07-03T09:10:47.39Z</time>
      </trkpt>
      <trkpt lat="45.97002" lon="4.78912">
        <ele>209.800003052</ele>
        <time>2015-07-03T09:10:48.395Z</time>
      </trkpt>
      <trkpt lat="45.97006" lon="4.78918">
        <ele>210</ele>
        <time>2015-07-03T09:10:49.389Z</time>
      </trkpt>
      <trkpt lat="45.97009" lon="4.78923">
        <ele>210.100006104</ele>
        <time>2015-07-03T09:10:50.395Z</time>
      </trkpt>
      <trkpt lat="45.97013" lon="4.78929">
        <ele>210.199996948</ele>
        <time>2015-07-03T09:10:51.405Z</time>
      </trkpt>
      <trkpt lat="45.97016" lon="4.78934">
        <ele>210.300003052</ele>
        <time>2015-07-03T09:10:52.686Z</time>
      </trkpt>
      <trkpt lat="45.97019" lon="4.78939">
        <ele>210.100006104</ele>
        <time>2015-07-03T09:10:53.5Z</time>
      </trkpt>
      <trkpt lat="45.97023" lon="4.78945">
        <ele>210.199996948</ele>
        <time>2015-07-03T09:10:54.395Z</time>
      </trkpt>
      <trkpt lat="45.97026" lon="4.78951">
        <ele>210.199996948</ele>
        <time>2015-07-03T09:10:55.403Z</time>
      </trkpt>
      <trkpt lat="45.9703" lon="4.78956">
        <ele>210.300003052</ele>
        <time>2015-07-03T09:10:56.394Z</time>
      </trkpt>
      <trkpt lat="45.97033" lon="4.78961">
        <ele>210.100006104</ele>
        <time>2015-07-03T09:10:57.425Z</time>
      </trkpt>
      <trkpt lat="45.97036" lon="4.78968">
        <ele>210</ele>
        <time>2015-07-03T09:10:58.393Z</time>
      </trkpt>
      <trkpt lat="45.97039" lon="4.78975">
        <ele>209.699996948</ele>
        <time>2015-07-03T09:10:59.393Z</time>
      </trkpt>
      <trkpt lat="45.97042" lon="4.78981">
        <ele>209.300003052</ele>
        <time>2015-07-03T09:11:00.394Z</time>
      </trkpt>
      <trkpt lat="45.97044" lon="4.78987">
        <ele>208.899993896</ele>
        <time>2015-07-03T09:11:01.44Z</time>
      </trkpt>
      <trkpt lat="45.97046" lon="4.78994">
        <ele>208.5</ele>
        <time>2015-07-03T09:11:02.395Z</time>
      </trkpt>
      <trkpt lat="45.97048" lon="4.79001">
        <ele>207.899993896</ele>
        <time>2015-07-03T09:11:03.39Z</time>
      </trkpt>
      <trkpt lat="45.97051" lon="4.79006">
        <ele>207.699996948</ele>
        <time>2015-07-03T09:11:04.393Z</time>
      </trkpt>
      <trkpt lat="45.97053" lon="4.79012">
        <ele>207.300003052</ele>
        <time>2015-07-03T09:11:05.39Z</time>
      </trkpt>
      <trkpt lat="45.97055" lon="4.79019">
        <ele>207.199996948</ele>
        <time>2015-07-03T09:11:06.395Z</time>
      </trkpt>
      <trkpt lat="45.97057" lon="4.79026">
        <ele>206.899993896</ele>
        <time>2015-07-03T09:11:07.393Z</time>
      </trkpt>
      <trkpt lat="45.97059" lon="4.79032">
        <ele>206.699996948</ele>
        <time>2015-07-03T09:11:08.39Z</time>
      </trkpt>
      <trkpt lat="45.97061" lon="4.79038">
        <ele>206.699996948</ele>
        <time>2015-07-03T09:11:09.39Z</time>
      </trkpt>
      <trkpt lat="45.97063" lon="4.79045">
        <ele>206.600006104</ele>
        <time>2015-07-03T09:11:10.388Z</time>
      </trkpt>
      <trkpt lat="45.97064" lon="4.79053">
        <ele>206.800003052</ele>
        <time>2015-07-03T09:11:11.408Z</time>
      </trkpt>
      <trkpt lat="45.97066" lon="4.7906">
        <ele>206.899993896</ele>
        <time>2015-07-03T09:11:12.397Z</time>
      </trkpt>
      <trkpt lat="45.97068" lon="4.79066">
        <ele>206.899993896</ele>
        <time>2015-07-03T09:11:13.39Z</time>
      </trkpt>
      <trkpt lat="45.9707" lon="4.79073">
        <ele>207.100006104</ele>
        <time>2015-07-03T09:11:14.393Z</time>
      </trkpt>
      <trkpt lat="45.97072" lon="4.7908">
        <ele>207.100006104</ele>
        <time>2015-07-03T09:11:15.389Z</time>
      </trkpt>
      <trkpt lat="45.97074" lon="4.79087">
        <ele>206.899993896</ele>
        <time>2015-07-03T09:11:16.383Z</time>
      </trkpt>
      <trkpt lat="45.97075" lon="4.79094">
        <ele>206.899993896</ele>
        <time>2015-07-03T09:11:17.441Z</time>
      </trkpt>
      <trkpt lat="45.97077" lon="4.79102">
        <ele>206.800003052</ele>
        <time>2015-07-03T09:11:18.394Z</time>
      </trkpt>
      <trkpt lat="45.97079" lon="4.79109">
        <ele>206.699996948</ele>
        <time>2015-07-03T09:11:19.39Z</time>
      </trkpt>
      <trkpt lat="45.97081" lon="4.79115">
        <ele>206.800003052</ele>
        <time>2015-07-03T09:11:20.394Z</time>
      </trkpt>
      <trkpt lat="45.97083" lon="4.79122">
        <ele>206.600006104</ele>
        <time>2015-07-03T09:11:21.39Z</time>
      </trkpt>
      <trkpt lat="45.97087" lon="4.79129">
        <ele>206.600006104</ele>
        <time>2015-07-03T09:11:22.398Z</time>
      </trkpt>
      <trkpt lat="45.9709" lon="4.79135">
        <ele>206.399993896</ele>
        <time>2015-07-03T09:11:23.39Z</time>
      </trkpt>
      <trkpt lat="45.97093" lon="4.79141">
        <ele>206.399993896</ele>
        <time>2015-07-03T09:11:24.393Z</time>
      </trkpt>
      <trkpt lat="45.97097" lon="4.79146">
        <ele>206.300003052</ele>
        <time>2015-07-03T09:11:25.393Z</time>
      </trkpt>
      <trkpt lat="45.97101" lon="4.79153">
        <ele>205.899993896</ele>
        <time>2015-07-03T09:11:26.392Z</time>
      </trkpt>
      <trkpt lat="45.97104" lon="4.79158">
        <ele>205.399993896</ele>
        <time>2015-07-03T09:11:27.395Z</time>
      </trkpt>
      <trkpt lat="45.97106" lon="4.79164">
        <ele>205.199996948</ele>
        <time>2015-07-03T09:11:28.389Z</time>
      </trkpt>
      <trkpt lat="45.9711" lon="4.7917">
        <ele>205.199996948</ele>
        <time>2015-07-03T09:11:29.393Z</time>
      </trkpt>
      <trkpt lat="45.97113" lon="4.79177">
        <ele>205.399993896</ele>
        <time>2015-07-03T09:11:30.395Z</time>
      </trkpt>
      <trkpt lat="45.97117" lon="4.79183">
        <ele>205.5</ele>
        <time>2015-07-03T09:11:31.39Z</time>
      </trkpt>
      <trkpt lat="45.9712" lon="4.7919">
        <ele>205.600006104</ele>
        <time>2015-07-03T09:11:32.415Z</time>
      </trkpt>
      <trkpt lat="45.97123" lon="4.79197">
        <ele>205.399993896</ele>
        <time>2015-07-03T09:11:33.393Z</time>
      </trkpt>
      <trkpt lat="45.97126" lon="4.79204">
        <ele>205.399993896</ele>
        <time>2015-07-03T09:11:34.389Z</time>
      </trkpt>
      <trkpt lat="45.97129" lon="4.7921">
        <ele>205.5</ele>
        <time>2015-07-03T09:11:35.389Z</time>
      </trkpt>
      <trkpt lat="45.97132" lon="4.79217">
        <ele>205.699996948</ele>
        <time>2015-07-03T09:11:36.394Z</time>
      </trkpt>
      <trkpt lat="45.97135" lon="4.79224">
        <ele>206.100006104</ele>
        <time>2015-07-03T09:11:37.392Z</time>
      </trkpt>
      <trkpt lat="45.97138" lon="4.79231">
        <ele>206.600006104</ele>
        <time>2015-07-03T09:11:38.391Z</time>
      </trkpt>
      <trkpt lat="45.97141" lon="4.79238">
        <ele>207.300003052</ele>
        <time>2015-07-03T09:11:39.389Z</time>
      </trkpt>
      <trkpt lat="45.97144" lon="4.79245">
        <ele>207.5</ele>
        <time>2015-07-03T09:11:40.393Z</time>
      </trkpt>
      <trkpt lat="45.97147" lon="4.79252">
        <ele>207.600006104</ele>
        <time>2015-07-03T09:11:41.389Z</time>
      </trkpt>
      <trkpt lat="45.9715" lon="4.79259">
        <ele>208</ele>
        <time>2015-07-03T09:11:42.402Z</time>
      </trkpt>
      <trkpt lat="45.97152" lon="4.79265">
        <ele>207.899993896</ele>
        <time>2015-07-03T09:11:43.391Z</time>
      </trkpt>
      <trkpt lat="45.97154" lon="4.79271">
        <ele>208.100006104</ele>
        <time>2015-07-03T09:11:44.39Z</time>
      </trkpt>
      <trkpt lat="45.97157" lon="4.79278">
        <ele>208.199996948</ele>
        <time>2015-07-03T09:11:45.389Z</time>
      </trkpt>
      <trkpt lat="45.97159" lon="4.79284">
        <ele>208.100006104</ele>
        <time>2015-07-03T09:11:46.393Z</time>
      </trkpt>
      <trkpt lat="45.97161" lon="4.7929">
        <ele>207.899993896</ele>
        <time>2015-07-03T09:11:47.476Z</time>
      </trkpt>
      <trkpt lat="45.97163" lon="4.79296">
        <ele>207.899993896</ele>
        <time>2015-07-03T09:11:48.412Z</time>
      </trkpt>
      <trkpt lat="45.97165" lon="4.79302">
        <ele>207.800003052</ele>
        <time>2015-07-03T09:11:49.393Z</time>
      </trkpt>
      <trkpt lat="45.97168" lon="4.79308">
        <ele>208</ele>
        <time>2015-07-03T09:11:50.39Z</time>
      </trkpt>
      <trkpt lat="45.97171" lon="4.79314">
        <ele>207.899993896</ele>
        <time>2015-07-03T09:11:51.395Z</time>
      </trkpt>
      <trkpt lat="45.97172" lon="4.79321">
        <ele>208</ele>
        <time>2015-07-03T09:11:52.399Z</time>
      </trkpt>
      <trkpt lat="45.97175" lon="4.79327">
        <ele>208.199996948</ele>
        <time>2015-07-03T09:11:53.446Z</time>
      </trkpt>
      <trkpt lat="45.97177" lon="4.79333">
        <ele>208.399993896</ele>
        <time>2015-07-03T09:11:54.395Z</time>
      </trkpt>
      <trkpt lat="45.9718" lon="4.79338">
        <ele>208.600006104</ele>
        <time>2015-07-03T09:11:55.448Z</time>
      </trkpt>
      <trkpt lat="45.97183" lon="4.79344">
        <ele>208.800003052</ele>
        <time>2015-07-03T09:11:56.388Z</time>
      </trkpt>
      <trkpt lat="45.97185" lon="4.79351">
        <ele>208.899993896</ele>
        <time>2015-07-03T09:11:57.39Z</time>
      </trkpt>
      <trkpt lat="45.97186" lon="4.79357">
        <ele>209.300003052</ele>
        <time>2015-07-03T09:11:58.393Z</time>
      </trkpt>
      <trkpt lat="45.97189" lon="4.79362">
        <ele>209.699996948</ele>
        <time>2015-07-03T09:11:59.393Z</time>
      </trkpt>
      <trkpt lat="45.97192" lon="4.79369">
        <ele>210.300003052</ele>
        <time>2015-07-03T09:12:00.393Z</time>
      </trkpt>
      <trkpt lat="45.97194" lon="4.79375">
        <ele>211</ele>
        <time>2015-07-03T09:12:01.39Z</time>
      </trkpt>
      <trkpt lat="45.97197" lon="4.79381">
        <ele>211.199996948</ele>
        <time>2015-07-03T09:12:02.399Z</time>
      </trkpt>
      <trkpt lat="45.972" lon="4.79387">
        <ele>211.899993896</ele>
        <time>2015-07-03T09:12:03.393Z</time>
      </trkpt>
      <trkpt lat="45.97202" lon="4.79393">
        <ele>212.199996948</ele>
        <time>2015-07-03T09:12:04.408Z</time>
      </trkpt>
      <trkpt lat="45.97205" lon="4.79399">
        <ele>212.600006104</ele>
        <time>2015-07-03T09:12:05.745Z</time>
      </trkpt>
      <trkpt lat="45.97208" lon="4.79405">
        <ele>212.800003052</ele>
        <time>2015-07-03T09:12:06.394Z</time>
      </trkpt>
      <trkpt lat="45.9721" lon="4.79412">
        <ele>213</ele>
        <time>2015-07-03T09:12:07.39Z</time>
      </trkpt>
      <trkpt lat="45.97212" lon="4.79419">
        <ele>213.300003052</ele>
        <time>2015-07-03T09:12:08.39Z</time>
      </trkpt>
      <trkpt lat="45.97214" lon="4.79425">
        <ele>213.699996948</ele>
        <time>2015-07-03T09:12:09.389Z</time>
      </trkpt>
      <trkpt lat="45.97216" lon="4.7943">
        <ele>214.199996948</ele>
        <time>2015-07-03T09:12:10.389Z</time>
      </trkpt>
      <trkpt lat="45.97219" lon="4.79436">
        <ele>214.600006104</ele>
        <time>2015-07-03T09:12:11.413Z</time>
      </trkpt>
      <trkpt lat="45.97221" lon="4.79442">
        <ele>215.199996948</ele>
        <time>2015-07-03T09:12:12.404Z</time>
      </trkpt>
      <trkpt lat="45.97224" lon="4.79449">
        <ele>215.300003052</ele>
        <time>2015-07-03T09:12:13.388Z</time>
      </trkpt>
      <trkpt lat="45.97226" lon="4.79454">
        <ele>215.699996948</ele>
        <time>2015-07-03T09:12:14.388Z</time>
      </trkpt>
      <trkpt lat="45.9723" lon="4.79465">
        <ele>216</ele>
        <time>2015-07-03T09:12:16.39Z</time>
      </trkpt>
      <trkpt lat="45.97234" lon="4.79472">
        <ele>215.699996948</ele>
        <time>2015-07-03T09:12:17.391Z</time>
      </trkpt>
      <trkpt lat="45.97235" lon="4.79479">
        <ele>215.600006104</ele>
        <time>2015-07-03T09:12:18.392Z</time>
      </trkpt>
      <trkpt lat="45.97237" lon="4.79485">
        <ele>215.699996948</ele>
        <time>2015-07-03T09:12:19.391Z</time>
      </trkpt>
      <trkpt lat="45.97239" lon="4.79491">
        <ele>215.699996948</ele>
        <time>2015-07-03T09:12:20.392Z</time>
      </trkpt>
      <trkpt lat="45.97241" lon="4.79499">
        <ele>215.399993896</ele>
        <time>2015-07-03T09:12:21.391Z</time>
      </trkpt>
      <trkpt lat="45.97242" lon="4.79504">
        <ele>215.600006104</ele>
        <time>2015-07-03T09:12:22.474Z</time>
      </trkpt>
      <trkpt lat="45.97243" lon="4.79512">
        <ele>215.600006104</ele>
        <time>2015-07-03T09:12:23.389Z</time>
      </trkpt>
      <trkpt lat="45.97245" lon="4.7952">
        <ele>215.699996948</ele>
        <time>2015-07-03T09:12:24.392Z</time>
      </trkpt>
      <trkpt lat="45.97246" lon="4.79524">
        <ele>215.399993896</ele>
        <time>2015-07-03T09:12:25.405Z</time>
      </trkpt>
      <trkpt lat="45.97247" lon="4.79531">
        <ele>215.5</ele>
        <time>2015-07-03T09:12:26.392Z</time>
      </trkpt>
      <trkpt lat="45.97249" lon="4.79537">
        <ele>215.600006104</ele>
        <time>2015-07-03T09:12:27.388Z</time>
      </trkpt>
      <trkpt lat="45.97251" lon="4.79543">
        <ele>215.600006104</ele>
        <time>2015-07-03T09:12:28.42Z</time>
      </trkpt>
      <trkpt lat="45.97252" lon="4.7955">
        <ele>215.600006104</ele>
        <time>2015-07-03T09:12:29.392Z</time>
      </trkpt>
      <trkpt lat="45.97254" lon="4.79557">
        <ele>215.699996948</ele>
        <time>2015-07-03T09:12:30.394Z</time>
      </trkpt>
      <trkpt lat="45.97256" lon="4.79565">
        <ele>215.699996948</ele>
        <time>2015-07-03T09:12:31.391Z</time>
      </trkpt>
      <trkpt lat="45.97256" lon="4.79573">
        <ele>215.600006104</ele>
        <time>2015-07-03T09:12:32.404Z</time>
      </trkpt>
      <trkpt lat="45.97256" lon="4.7958">
        <ele>215.600006104</ele>
        <time>2015-07-03T09:12:33.389Z</time>
      </trkpt>
      <trkpt lat="45.97257" lon="4.79587">
        <ele>215.600006104</ele>
        <time>2015-07-03T09:12:34.389Z</time>
      </trkpt>
      <trkpt lat="45.97255" lon="4.79596">
        <ele>215.399993896</ele>
        <time>2015-07-03T09:12:35.391Z</time>
      </trkpt>
      <trkpt lat="45.97254" lon="4.79604">
        <ele>215.300003052</ele>
        <time>2015-07-03T09:12:36.399Z</time>
      </trkpt>
      <trkpt lat="45.97254" lon="4.79612">
        <ele>214.699996948</ele>
        <time>2015-07-03T09:12:37.391Z</time>
      </trkpt>
      <trkpt lat="45.97254" lon="4.79619">
        <ele>214.199996948</ele>
        <time>2015-07-03T09:12:38.388Z</time>
      </trkpt>
      <trkpt lat="45.97254" lon="4.79626">
        <ele>213.699996948</ele>
        <time>2015-07-03T09:12:39.454Z</time>
      </trkpt>
      <trkpt lat="45.97254" lon="4.79632">
        <ele>213.300003052</ele>
        <time>2015-07-03T09:12:41.077Z</time>
      </trkpt>
      <trkpt lat="45.97255" lon="4.79639">
        <ele>213.100006104</ele>
        <time>2015-07-03T09:12:41.646Z</time>
      </trkpt>
      <trkpt lat="45.97255" lon="4.79646">
        <ele>212.800003052</ele>
        <time>2015-07-03T09:12:42.574Z</time>
      </trkpt>
      <trkpt lat="45.97251" lon="4.79653">
        <ele>212.399993896</ele>
        <time>2015-07-03T09:12:43.465Z</time>
      </trkpt>
      <trkpt lat="45.97249" lon="4.7966">
        <ele>212.199996948</ele>
        <time>2015-07-03T09:12:44.548Z</time>
      </trkpt>
      <trkpt lat="45.97248" lon="4.79668">
        <ele>211.600006104</ele>
        <time>2015-07-03T09:12:45.503Z</time>
      </trkpt>
      <trkpt lat="45.97247" lon="4.79675">
        <ele>211.300003052</ele>
        <time>2015-07-03T09:12:46.837Z</time>
      </trkpt>
      <trkpt lat="45.97246" lon="4.79682">
        <ele>210.800003052</ele>
        <time>2015-07-03T09:12:47.676Z</time>
      </trkpt>
      <trkpt lat="45.97245" lon="4.79689">
        <ele>210.5</ele>
        <time>2015-07-03T09:12:48.46Z</time>
      </trkpt>
      <trkpt lat="45.97244" lon="4.79697">
        <ele>210.199996948</ele>
        <time>2015-07-03T09:12:49.4Z</time>
      </trkpt>
      <trkpt lat="45.97244" lon="4.79703">
        <ele>209.800003052</ele>
        <time>2015-07-03T09:12:50.468Z</time>
      </trkpt>
      <trkpt lat="45.97244" lon="4.79711">
        <ele>209.5</ele>
        <time>2015-07-03T09:12:51.403Z</time>
      </trkpt>
      <trkpt lat="45.97243" lon="4.79718">
        <ele>209.5</ele>
        <time>2015-07-03T09:12:53.329Z</time>
      </trkpt>
      <trkpt lat="45.97243" lon="4.79724">
        <ele>209.399993896</ele>
        <time>2015-07-03T09:12:53.622Z</time>
      </trkpt>
      <trkpt lat="45.97243" lon="4.79732">
        <ele>210.100006104</ele>
        <time>2015-07-03T09:12:54.519Z</time>
      </trkpt>
      <trkpt lat="45.97243" lon="4.79742">
        <ele>209.800003052</ele>
        <time>2015-07-03T09:12:55.4Z</time>
      </trkpt>
      <trkpt lat="45.97241" lon="4.79749">
        <ele>209.5</ele>
        <time>2015-07-03T09:12:56.91Z</time>
      </trkpt>
      <trkpt lat="45.97239" lon="4.79756">
        <ele>209</ele>
        <time>2015-07-03T09:12:57.507Z</time>
      </trkpt>
      <trkpt lat="45.97238" lon="4.79763">
        <ele>209</ele>
        <time>2015-07-03T09:12:58.819Z</time>
      </trkpt>
      <trkpt lat="45.97237" lon="4.79769">
        <ele>209</ele>
        <time>2015-07-03T09:12:59.92Z</time>
      </trkpt>
      <trkpt lat="45.97237" lon="4.79776">
        <ele>209.300003052</ele>
        <time>2015-07-03T09:13:01.167Z</time>
      </trkpt>
      <trkpt lat="45.97237" lon="4.79783">
        <ele>209.399993896</ele>
        <time>2015-07-03T09:13:01.957Z</time>
      </trkpt>
      <trkpt lat="45.97236" lon="4.79791">
        <ele>209.199996948</ele>
        <time>2015-07-03T09:13:02.511Z</time>
      </trkpt>
      <trkpt lat="45.97236" lon="4.79798">
        <ele>209</ele>
        <time>2015-07-03T09:13:03.456Z</time>
      </trkpt>
      <trkpt lat="45.97235" lon="4.79806">
        <ele>209</ele>
        <time>2015-07-03T09:13:04.528Z</time>
      </trkpt>
      <trkpt lat="45.97235" lon="4.79813">
        <ele>208.699996948</ele>
        <time>2015-07-03T09:13:05.407Z</time>
      </trkpt>
      <trkpt lat="45.97235" lon="4.7982">
        <ele>208.699996948</ele>
        <time>2015-07-03T09:13:06.408Z</time>
      </trkpt>
      <trkpt lat="45.97235" lon="4.79827">
        <ele>208.899993896</ele>
        <time>2015-07-03T09:13:07.398Z</time>
      </trkpt>
      <trkpt lat="45.97231" lon="4.79837">
        <ele>208.5</ele>
        <time>2015-07-03T09:13:09.457Z</time>
      </trkpt>
      <trkpt lat="45.9723" lon="4.79843">
        <ele>208.5</ele>
        <time>2015-07-03T09:13:11.077Z</time>
      </trkpt>
      <trkpt lat="45.9723" lon="4.79849">
        <ele>208.899993896</ele>
        <time>2015-07-03T09:13:11.616Z</time>
      </trkpt>
      <trkpt lat="45.97232" lon="4.79856">
        <ele>209.300003052</ele>
        <time>2015-07-03T09:13:12.493Z</time>
      </trkpt>
      <trkpt lat="45.97234" lon="4.79863">
        <ele>210.100006104</ele>
        <time>2015-07-03T09:13:13.47Z</time>
      </trkpt>
      <trkpt lat="45.97236" lon="4.7987">
        <ele>210.399993896</ele>
        <time>2015-07-03T09:13:14.457Z</time>
      </trkpt>
      <trkpt lat="45.97242" lon="4.79876">
        <ele>210.5</ele>
        <time>2015-07-03T09:13:15.62Z</time>
      </trkpt>
      <trkpt lat="45.97246" lon="4.79885">
        <ele>210.800003052</ele>
        <time>2015-07-03T09:13:16.452Z</time>
      </trkpt>
      <trkpt lat="45.97247" lon="4.79895">
        <ele>211.800003052</ele>
        <time>2015-07-03T09:13:18.399Z</time>
      </trkpt>
      <trkpt lat="45.97249" lon="4.79898">
        <ele>212.199996948</ele>
        <time>2015-07-03T09:13:19.414Z</time>
      </trkpt>
      <trkpt lat="45.97252" lon="4.79909">
        <ele>212.600006104</ele>
        <time>2015-07-03T09:13:23.393Z</time>
      </trkpt>
      <trkpt lat="45.97254" lon="4.79911">
        <ele>212.899993896</ele>
        <time>2015-07-03T09:13:24.393Z</time>
      </trkpt>
      <trkpt lat="45.9726" lon="4.79914">
        <ele>212.300003052</ele>
        <time>2015-07-03T09:13:26.394Z</time>
      </trkpt>
      <trkpt lat="45.97263" lon="4.79914">
        <ele>212.199996948</ele>
        <time>2015-07-03T09:13:27.394Z</time>
      </trkpt>
      <trkpt lat="45.97272" lon="4.79914">
        <ele>212.300003052</ele>
        <time>2015-07-03T09:13:29.389Z</time>
      </trkpt>
      <trkpt lat="45.97276" lon="4.79915">
        <ele>212</ele>
        <time>2015-07-03T09:13:30.391Z</time>
      </trkpt>
      <trkpt lat="45.97285" lon="4.79916">
        <ele>212.100006104</ele>
        <time>2015-07-03T09:13:32.415Z</time>
      </trkpt>
      <trkpt lat="45.97289" lon="4.79915">
        <ele>212.600006104</ele>
        <time>2015-07-03T09:13:33.393Z</time>
      </trkpt>
      <trkpt lat="45.97293" lon="4.79915">
        <ele>212.600006104</ele>
        <time>2015-07-03T09:13:34.392Z</time>
      </trkpt>
      <trkpt lat="45.97299" lon="4.79917">
        <ele>211.899993896</ele>
        <time>2015-07-03T09:13:35.392Z</time>
      </trkpt>
      <trkpt lat="45.97308" lon="4.79918">
        <ele>212.5</ele>
        <time>2015-07-03T09:13:37.389Z</time>
      </trkpt>
      <trkpt lat="45.97312" lon="4.79917">
        <ele>212.600006104</ele>
        <time>2015-07-03T09:13:38.393Z</time>
      </trkpt>
      <trkpt lat="45.97317" lon="4.79917">
        <ele>212.800003052</ele>
        <time>2015-07-03T09:13:39.393Z</time>
      </trkpt>
      <trkpt lat="45.97322" lon="4.79917">
        <ele>213.600006104</ele>
        <time>2015-07-03T09:13:40.382Z</time>
      </trkpt>
      <trkpt lat="45.97327" lon="4.79918">
        <ele>213.899993896</ele>
        <time>2015-07-03T09:13:41.39Z</time>
      </trkpt>
      <trkpt lat="45.97332" lon="4.79917">
        <ele>214.300003052</ele>
        <time>2015-07-03T09:13:42.43Z</time>
      </trkpt>
      <trkpt lat="45.97336" lon="4.79916">
        <ele>214.699996948</ele>
        <time>2015-07-03T09:13:43.433Z</time>
      </trkpt>
      <trkpt lat="45.97341" lon="4.79916">
        <ele>215.199996948</ele>
        <time>2015-07-03T09:13:44.463Z</time>
      </trkpt>
      <trkpt lat="45.97346" lon="4.79915">
        <ele>215.899993896</ele>
        <time>2015-07-03T09:13:45.396Z</time>
      </trkpt>
      <trkpt lat="45.9735" lon="4.79914">
        <ele>216.600006104</ele>
        <time>2015-07-03T09:13:46.388Z</time>
      </trkpt>
      <trkpt lat="45.97359" lon="4.79913">
        <ele>217.600006104</ele>
        <time>2015-07-03T09:13:48.392Z</time>
      </trkpt>
      <trkpt lat="45.97363" lon="4.79913">
        <ele>218.800003052</ele>
        <time>2015-07-03T09:13:49.388Z</time>
      </trkpt>
      <trkpt lat="45.97371" lon="4.79911">
        <ele>220.100006104</ele>
        <time>2015-07-03T09:13:51.389Z</time>
      </trkpt>
      <trkpt lat="45.97374" lon="4.79909">
        <ele>221.5</ele>
        <time>2015-07-03T09:13:52.414Z</time>
      </trkpt>
      <trkpt lat="45.97382" lon="4.79908">
        <ele>223.199996948</ele>
        <time>2015-07-03T09:13:54.391Z</time>
      </trkpt>
      <trkpt lat="45.97386" lon="4.79908">
        <ele>223.100006104</ele>
        <time>2015-07-03T09:13:55.391Z</time>
      </trkpt>
      <trkpt lat="45.9739" lon="4.79908">
        <ele>223</ele>
        <time>2015-07-03T09:13:56.389Z</time>
      </trkpt>
      <trkpt lat="45.97395" lon="4.7991">
        <ele>222.800003052</ele>
        <time>2015-07-03T09:13:57.393Z</time>
      </trkpt>
      <trkpt lat="45.97404" lon="4.79909">
        <ele>223.899993896</ele>
        <time>2015-07-03T09:13:59.389Z</time>
      </trkpt>
      <trkpt lat="45.97409" lon="4.79909">
        <ele>224.5</ele>
        <time>2015-07-03T09:14:00.392Z</time>
      </trkpt>
      <trkpt lat="45.97413" lon="4.79909">
        <ele>224.5</ele>
        <time>2015-07-03T09:14:01.391Z</time>
      </trkpt>
      <trkpt lat="45.97418" lon="4.79908">
        <ele>225.600006104</ele>
        <time>2015-07-03T09:14:02.415Z</time>
      </trkpt>
      <trkpt lat="45.97427" lon="4.79907">
        <ele>226.399993896</ele>
        <time>2015-07-03T09:14:04.389Z</time>
      </trkpt>
      <trkpt lat="45.97431" lon="4.79906">
        <ele>227.199996948</ele>
        <time>2015-07-03T09:14:05.388Z</time>
      </trkpt>
      <trkpt lat="45.9744" lon="4.79904">
        <ele>228.100006104</ele>
        <time>2015-07-03T09:14:07.39Z</time>
      </trkpt>
      <trkpt lat="45.97444" lon="4.79904">
        <ele>228.199996948</ele>
        <time>2015-07-03T09:14:08.394Z</time>
      </trkpt>
      <trkpt lat="45.97452" lon="4.79903">
        <ele>228.699996948</ele>
        <time>2015-07-03T09:14:10.413Z</time>
      </trkpt>
      <trkpt lat="45.97455" lon="4.79906">
        <ele>228.699996948</ele>
        <time>2015-07-03T09:14:11.39Z</time>
      </trkpt>
      <trkpt lat="45.97464" lon="4.79903">
        <ele>229.600006104</ele>
        <time>2015-07-03T09:14:13.393Z</time>
      </trkpt>
      <trkpt lat="45.97468" lon="4.79901">
        <ele>229.800003052</ele>
        <time>2015-07-03T09:14:14.39Z</time>
      </trkpt>
      <trkpt lat="45.97472" lon="4.79901">
        <ele>230.199996948</ele>
        <time>2015-07-03T09:14:15.392Z</time>
      </trkpt>
      <trkpt lat="45.97477" lon="4.799">
        <ele>230.399993896</ele>
        <time>2015-07-03T09:14:16.392Z</time>
      </trkpt>
      <trkpt lat="45.97485" lon="4.79898">
        <ele>231.199996948</ele>
        <time>2015-07-03T09:14:18.394Z</time>
      </trkpt>
      <trkpt lat="45.97488" lon="4.79897">
        <ele>231.399993896</ele>
        <time>2015-07-03T09:14:19.394Z</time>
      </trkpt>
      <trkpt lat="45.97496" lon="4.79897">
        <ele>231.899993896</ele>
        <time>2015-07-03T09:14:21.393Z</time>
      </trkpt>
      <trkpt lat="45.97499" lon="4.79895">
        <ele>232</ele>
        <time>2015-07-03T09:14:22.416Z</time>
      </trkpt>
      <trkpt lat="45.97506" lon="4.79895">
        <ele>232.399993896</ele>
        <time>2015-07-03T09:14:24.393Z</time>
      </trkpt>
      <trkpt lat="45.97509" lon="4.79896">
        <ele>232.600006104</ele>
        <time>2015-07-03T09:14:25.394Z</time>
      </trkpt>
      <trkpt lat="45.97517" lon="4.79896">
        <ele>233.399993896</ele>
        <time>2015-07-03T09:14:27.446Z</time>
      </trkpt>
      <trkpt lat="45.97521" lon="4.79895">
        <ele>233.399993896</ele>
        <time>2015-07-03T09:14:28.393Z</time>
      </trkpt>
      <trkpt lat="45.97528" lon="4.79895">
        <ele>233.899993896</ele>
        <time>2015-07-03T09:14:30.394Z</time>
      </trkpt>
      <trkpt lat="45.97532" lon="4.79895">
        <ele>234.199996948</ele>
        <time>2015-07-03T09:14:31.417Z</time>
      </trkpt>
      <trkpt lat="45.97539" lon="4.79894">
        <ele>235.100006104</ele>
        <time>2015-07-03T09:14:33.39Z</time>
      </trkpt>
      <trkpt lat="45.97542" lon="4.79894">
        <ele>235.699996948</ele>
        <time>2015-07-03T09:14:34.391Z</time>
      </trkpt>
      <trkpt lat="45.97548" lon="4.79893">
        <ele>236.600006104</ele>
        <time>2015-07-03T09:14:36.429Z</time>
      </trkpt>
      <trkpt lat="45.97552" lon="4.79892">
        <ele>236.699996948</ele>
        <time>2015-07-03T09:14:37.39Z</time>
      </trkpt>
      <trkpt lat="45.97559" lon="4.7989">
        <ele>237.199996948</ele>
        <time>2015-07-03T09:14:39.394Z</time>
      </trkpt>
      <trkpt lat="45.97563" lon="4.79889">
        <ele>237.300003052</ele>
        <time>2015-07-03T09:14:40.39Z</time>
      </trkpt>
      <trkpt lat="45.9757" lon="4.79884">
        <ele>237.300003052</ele>
        <time>2015-07-03T09:14:42.421Z</time>
      </trkpt>
      <trkpt lat="45.97574" lon="4.79879">
        <ele>236.5</ele>
        <time>2015-07-03T09:14:43.393Z</time>
      </trkpt>
      <trkpt lat="45.97583" lon="4.79876">
        <ele>236.5</ele>
        <time>2015-07-03T09:14:45.388Z</time>
      </trkpt>
      <trkpt lat="45.97587" lon="4.79876">
        <ele>236.699996948</ele>
        <time>2015-07-03T09:14:46.388Z</time>
      </trkpt>
      <trkpt lat="45.97596" lon="4.79874">
        <ele>237.199996948</ele>
        <time>2015-07-03T09:14:48.397Z</time>
      </trkpt>
      <trkpt lat="45.97601" lon="4.79871">
        <ele>237.5</ele>
        <time>2015-07-03T09:14:49.418Z</time>
      </trkpt>
      <trkpt lat="45.97606" lon="4.79867">
        <ele>236.300003052</ele>
        <time>2015-07-03T09:14:50.389Z</time>
      </trkpt>
      <trkpt lat="45.97611" lon="4.79864">
        <ele>236.199996948</ele>
        <time>2015-07-03T09:14:51.388Z</time>
      </trkpt>
      <trkpt lat="45.97615" lon="4.79862">
        <ele>235.300003052</ele>
        <time>2015-07-03T09:14:52.45Z</time>
      </trkpt>
      <trkpt lat="45.97619" lon="4.7986">
        <ele>235.199996948</ele>
        <time>2015-07-03T09:14:53.389Z</time>
      </trkpt>
      <trkpt lat="45.97623" lon="4.79858">
        <ele>235.199996948</ele>
        <time>2015-07-03T09:14:54.581Z</time>
      </trkpt>
      <trkpt lat="45.97628" lon="4.79855">
        <ele>235.100006104</ele>
        <time>2015-07-03T09:14:55.488Z</time>
      </trkpt>
      <trkpt lat="45.97635" lon="4.79852">
        <ele>234.5</ele>
        <time>2015-07-03T09:14:57.392Z</time>
      </trkpt>
      <trkpt lat="45.9764" lon="4.7985">
        <ele>233.899993896</ele>
        <time>2015-07-03T09:14:58.418Z</time>
      </trkpt>
      <trkpt lat="45.97645" lon="4.79848">
        <ele>233.5</ele>
        <time>2015-07-03T09:14:59.664Z</time>
      </trkpt>
      <trkpt lat="45.9765" lon="4.79845">
        <ele>232.699996948</ele>
        <time>2015-07-03T09:15:00.488Z</time>
      </trkpt>
      <trkpt lat="45.97654" lon="4.79844">
        <ele>232.300003052</ele>
        <time>2015-07-03T09:15:01.597Z</time>
      </trkpt>
      <trkpt lat="45.97659" lon="4.79844">
        <ele>232.199996948</ele>
        <time>2015-07-03T09:15:02.552Z</time>
      </trkpt>
      <trkpt lat="45.97664" lon="4.79843">
        <ele>231.600006104</ele>
        <time>2015-07-03T09:15:03.504Z</time>
      </trkpt>
      <trkpt lat="45.97668" lon="4.79842">
        <ele>231.199996948</ele>
        <time>2015-07-03T09:15:04.407Z</time>
      </trkpt>
      <trkpt lat="45.97673" lon="4.7984">
        <ele>231.100006104</ele>
        <time>2015-07-03T09:15:05.538Z</time>
      </trkpt>
      <trkpt lat="45.97679" lon="4.79839">
        <ele>231</ele>
        <time>2015-07-03T09:15:06.403Z</time>
      </trkpt>
      <trkpt lat="45.97684" lon="4.79837">
        <ele>230.899993896</ele>
        <time>2015-07-03T09:15:07.406Z</time>
      </trkpt>
      <trkpt lat="45.97689" lon="4.79836">
        <ele>231.199996948</ele>
        <time>2015-07-03T09:15:08.48Z</time>
      </trkpt>
      <trkpt lat="45.97693" lon="4.79835">
        <ele>231.199996948</ele>
        <time>2015-07-03T09:15:09.432Z</time>
      </trkpt>
      <trkpt lat="45.97698" lon="4.79834">
        <ele>231.800003052</ele>
        <time>2015-07-03T09:15:10.402Z</time>
      </trkpt>
      <trkpt lat="45.97703" lon="4.79834">
        <ele>232.100006104</ele>
        <time>2015-07-03T09:15:11.45Z</time>
      </trkpt>
      <trkpt lat="45.97708" lon="4.79833">
        <ele>232.600006104</ele>
        <time>2015-07-03T09:15:12.43Z</time>
      </trkpt>
      <trkpt lat="45.97713" lon="4.79831">
        <ele>232.899993896</ele>
        <time>2015-07-03T09:15:13.493Z</time>
      </trkpt>
      <trkpt lat="45.97718" lon="4.79829">
        <ele>233.100006104</ele>
        <time>2015-07-03T09:15:14.416Z</time>
      </trkpt>
      <trkpt lat="45.97723" lon="4.79829">
        <ele>233.600006104</ele>
        <time>2015-07-03T09:15:15.447Z</time>
      </trkpt>
      <trkpt lat="45.97727" lon="4.79828">
        <ele>233.899993896</ele>
        <time>2015-07-03T09:15:16.407Z</time>
      </trkpt>
      <trkpt lat="45.97733" lon="4.79827">
        <ele>234</ele>
        <time>2015-07-03T09:15:17.418Z</time>
      </trkpt>
      <trkpt lat="45.97738" lon="4.79826">
        <ele>234.399993896</ele>
        <time>2015-07-03T09:15:18.416Z</time>
      </trkpt>
      <trkpt lat="45.97744" lon="4.79825">
        <ele>234</ele>
        <time>2015-07-03T09:15:19.429Z</time>
      </trkpt>
      <trkpt lat="45.97749" lon="4.79824">
        <ele>233.699996948</ele>
        <time>2015-07-03T09:15:20.41Z</time>
      </trkpt>
      <trkpt lat="45.97755" lon="4.79824">
        <ele>233.800003052</ele>
        <time>2015-07-03T09:15:21.454Z</time>
      </trkpt>
      <trkpt lat="45.97761" lon="4.79823">
        <ele>233.399993896</ele>
        <time>2015-07-03T09:15:22.424Z</time>
      </trkpt>
      <trkpt lat="45.97767" lon="4.79821">
        <ele>232.600006104</ele>
        <time>2015-07-03T09:15:23.448Z</time>
      </trkpt>
      <trkpt lat="45.97773" lon="4.7982">
        <ele>231.800003052</ele>
        <time>2015-07-03T09:15:24.4Z</time>
      </trkpt>
      <trkpt lat="45.97779" lon="4.79819">
        <ele>231.800003052</ele>
        <time>2015-07-03T09:15:25.426Z</time>
      </trkpt>
      <trkpt lat="45.97785" lon="4.79818">
        <ele>231.600006104</ele>
        <time>2015-07-03T09:15:26.406Z</time>
      </trkpt>
      <trkpt lat="45.97791" lon="4.79818">
        <ele>231.699996948</ele>
        <time>2015-07-03T09:15:27.446Z</time>
      </trkpt>
      <trkpt lat="45.97797" lon="4.79815">
        <ele>231.199996948</ele>
        <time>2015-07-03T09:15:28.442Z</time>
      </trkpt>
      <trkpt lat="45.97803" lon="4.79814">
        <ele>231.300003052</ele>
        <time>2015-07-03T09:15:29.436Z</time>
      </trkpt>
      <trkpt lat="45.97808" lon="4.79813">
        <ele>231.300003052</ele>
        <time>2015-07-03T09:15:30.407Z</time>
      </trkpt>
      <trkpt lat="45.97814" lon="4.79812">
        <ele>231.5</ele>
        <time>2015-07-03T09:15:31.395Z</time>
      </trkpt>
      <trkpt lat="45.97819" lon="4.79811">
        <ele>231.199996948</ele>
        <time>2015-07-03T09:15:32.529Z</time>
      </trkpt>
      <trkpt lat="45.97825" lon="4.7981">
        <ele>231.100006104</ele>
        <time>2015-07-03T09:15:33.418Z</time>
      </trkpt>
      <trkpt lat="45.9783" lon="4.79809">
        <ele>231</ele>
        <time>2015-07-03T09:15:34.396Z</time>
      </trkpt>
      <trkpt lat="45.97834" lon="4.79808">
        <ele>230.899993896</ele>
        <time>2015-07-03T09:15:35.406Z</time>
      </trkpt>
      <trkpt lat="45.97839" lon="4.79808">
        <ele>231.300003052</ele>
        <time>2015-07-03T09:15:36.396Z</time>
      </trkpt>
      <trkpt lat="45.97844" lon="4.79807">
        <ele>231.399993896</ele>
        <time>2015-07-03T09:15:37.392Z</time>
      </trkpt>
      <trkpt lat="45.9785" lon="4.79806">
        <ele>231.199996948</ele>
        <time>2015-07-03T09:15:38.394Z</time>
      </trkpt>
      <trkpt lat="45.97855" lon="4.79805">
        <ele>231</ele>
        <time>2015-07-03T09:15:39.406Z</time>
      </trkpt>
      <trkpt lat="45.9786" lon="4.79805">
        <ele>231.699996948</ele>
        <time>2015-07-03T09:15:40.392Z</time>
      </trkpt>
      <trkpt lat="45.97869" lon="4.79805">
        <ele>233.199996948</ele>
        <time>2015-07-03T09:15:42.479Z</time>
      </trkpt>
      <trkpt lat="45.97874" lon="4.79804">
        <ele>233.199996948</ele>
        <time>2015-07-03T09:15:43.562Z</time>
      </trkpt>
      <trkpt lat="45.97879" lon="4.79804">
        <ele>234.100006104</ele>
        <time>2015-07-03T09:15:44.418Z</time>
      </trkpt>
      <trkpt lat="45.97885" lon="4.79803">
        <ele>234</ele>
        <time>2015-07-03T09:15:45.606Z</time>
      </trkpt>
      <trkpt lat="45.97891" lon="4.79802">
        <ele>234.899993896</ele>
        <time>2015-07-03T09:15:46.496Z</time>
      </trkpt>
      <trkpt lat="45.97897" lon="4.79801">
        <ele>235.100006104</ele>
        <time>2015-07-03T09:15:47.515Z</time>
      </trkpt>
      <trkpt lat="45.97903" lon="4.79798">
        <ele>235.300003052</ele>
        <time>2015-07-03T09:15:48.415Z</time>
      </trkpt>
      <trkpt lat="45.9791" lon="4.79796">
        <ele>235.199996948</ele>
        <time>2015-07-03T09:15:49.501Z</time>
      </trkpt>
      <trkpt lat="45.97915" lon="4.79796">
        <ele>235.399993896</ele>
        <time>2015-07-03T09:15:50.401Z</time>
      </trkpt>
      <trkpt lat="45.97921" lon="4.79794">
        <ele>235.300003052</ele>
        <time>2015-07-03T09:15:51.426Z</time>
      </trkpt>
      <trkpt lat="45.97927" lon="4.79794">
        <ele>235</ele>
        <time>2015-07-03T09:15:52.399Z</time>
      </trkpt>
      <trkpt lat="45.97933" lon="4.79792">
        <ele>234.899993896</ele>
        <time>2015-07-03T09:15:53.436Z</time>
      </trkpt>
      <trkpt lat="45.97938" lon="4.79791">
        <ele>234.699996948</ele>
        <time>2015-07-03T09:15:54.392Z</time>
      </trkpt>
      <trkpt lat="45.97945" lon="4.79788">
        <ele>234.699996948</ele>
        <time>2015-07-03T09:15:55.392Z</time>
      </trkpt>
      <trkpt lat="45.97951" lon="4.79787">
        <ele>234.699996948</ele>
        <time>2015-07-03T09:15:56.392Z</time>
      </trkpt>
      <trkpt lat="45.97956" lon="4.79787">
        <ele>234.800003052</ele>
        <time>2015-07-03T09:15:57.391Z</time>
      </trkpt>
      <trkpt lat="45.97963" lon="4.79784">
        <ele>234.600006104</ele>
        <time>2015-07-03T09:15:58.391Z</time>
      </trkpt>
      <trkpt lat="45.97969" lon="4.79782">
        <ele>234.300003052</ele>
        <time>2015-07-03T09:15:59.388Z</time>
      </trkpt>
      <trkpt lat="45.97975" lon="4.79781">
        <ele>234</ele>
        <time>2015-07-03T09:16:00.456Z</time>
      </trkpt>
      <trkpt lat="45.97981" lon="4.79782">
        <ele>233.699996948</ele>
        <time>2015-07-03T09:16:01.391Z</time>
      </trkpt>
      <trkpt lat="45.97987" lon="4.7978">
        <ele>233.300003052</ele>
        <time>2015-07-03T09:16:02.393Z</time>
      </trkpt>
      <trkpt lat="45.97992" lon="4.7978">
        <ele>232.800003052</ele>
        <time>2015-07-03T09:16:03.388Z</time>
      </trkpt>
      <trkpt lat="45.97998" lon="4.79779">
        <ele>232.199996948</ele>
        <time>2015-07-03T09:16:04.388Z</time>
      </trkpt>
      <trkpt lat="45.98004" lon="4.79779">
        <ele>231.600006104</ele>
        <time>2015-07-03T09:16:05.391Z</time>
      </trkpt>
      <trkpt lat="45.98009" lon="4.79779">
        <ele>231.300003052</ele>
        <time>2015-07-03T09:16:06.393Z</time>
      </trkpt>
      <trkpt lat="45.98015" lon="4.79778">
        <ele>231</ele>
        <time>2015-07-03T09:16:07.388Z</time>
      </trkpt>
      <trkpt lat="45.98021" lon="4.79778">
        <ele>230.800003052</ele>
        <time>2015-07-03T09:16:08.391Z</time>
      </trkpt>
      <trkpt lat="45.98027" lon="4.79778">
        <ele>230.699996948</ele>
        <time>2015-07-03T09:16:09.391Z</time>
      </trkpt>
      <trkpt lat="45.98033" lon="4.79778">
        <ele>230.399993896</ele>
        <time>2015-07-03T09:16:10.388Z</time>
      </trkpt>
      <trkpt lat="45.98039" lon="4.79777">
        <ele>230.199996948</ele>
        <time>2015-07-03T09:16:11.405Z</time>
      </trkpt>
      <trkpt lat="45.98045" lon="4.79776">
        <ele>230.100006104</ele>
        <time>2015-07-03T09:16:12.391Z</time>
      </trkpt>
      <trkpt lat="45.98052" lon="4.79776">
        <ele>229.899993896</ele>
        <time>2015-07-03T09:16:13.422Z</time>
      </trkpt>
      <trkpt lat="45.98059" lon="4.79774">
        <ele>229.699996948</ele>
        <time>2015-07-03T09:16:14.389Z</time>
      </trkpt>
      <trkpt lat="45.98065" lon="4.79773">
        <ele>229.100006104</ele>
        <time>2015-07-03T09:16:15.393Z</time>
      </trkpt>
      <trkpt lat="45.98071" lon="4.79771">
        <ele>229.100006104</ele>
        <time>2015-07-03T09:16:16.388Z</time>
      </trkpt>
      <trkpt lat="45.98076" lon="4.7977">
        <ele>228.600006104</ele>
        <time>2015-07-03T09:16:17.39Z</time>
      </trkpt>
      <trkpt lat="45.98081" lon="4.7977">
        <ele>228.399993896</ele>
        <time>2015-07-03T09:16:18.393Z</time>
      </trkpt>
      <trkpt lat="45.98086" lon="4.79769">
        <ele>228.800003052</ele>
        <time>2015-07-03T09:16:19.395Z</time>
      </trkpt>
      <trkpt lat="45.98092" lon="4.79768">
        <ele>228.699996948</ele>
        <time>2015-07-03T09:16:20.39Z</time>
      </trkpt>
      <trkpt lat="45.98097" lon="4.79767">
        <ele>228.699996948</ele>
        <time>2015-07-03T09:16:21.598Z</time>
      </trkpt>
      <trkpt lat="45.98101" lon="4.79768">
        <ele>230.300003052</ele>
        <time>2015-07-03T09:16:22.497Z</time>
      </trkpt>
      <trkpt lat="45.98106" lon="4.79765">
        <ele>228.399993896</ele>
        <time>2015-07-03T09:16:23.495Z</time>
      </trkpt>
      <trkpt lat="45.98111" lon="4.79763">
        <ele>229.100006104</ele>
        <time>2015-07-03T09:16:24.467Z</time>
      </trkpt>
      <trkpt lat="45.98116" lon="4.79763">
        <ele>229.399993896</ele>
        <time>2015-07-03T09:16:25.43Z</time>
      </trkpt>
      <trkpt lat="45.98121" lon="4.79762">
        <ele>229.699996948</ele>
        <time>2015-07-03T09:16:26.4Z</time>
      </trkpt>
      <trkpt lat="45.98126" lon="4.79762">
        <ele>229.899993896</ele>
        <time>2015-07-03T09:16:27.585Z</time>
      </trkpt>
      <trkpt lat="45.9813" lon="4.79762">
        <ele>229.699996948</ele>
        <time>2015-07-03T09:16:28.607Z</time>
      </trkpt>
      <trkpt lat="45.98139" lon="4.79762">
        <ele>230.600006104</ele>
        <time>2015-07-03T09:16:30.396Z</time>
      </trkpt>
      <trkpt lat="45.98144" lon="4.79761">
        <ele>231.100006104</ele>
        <time>2015-07-03T09:16:31.416Z</time>
      </trkpt>
      <trkpt lat="45.98148" lon="4.79761">
        <ele>230.800003052</ele>
        <time>2015-07-03T09:16:32.591Z</time>
      </trkpt>
      <trkpt lat="45.98153" lon="4.79761">
        <ele>231.300003052</ele>
        <time>2015-07-03T09:16:33.392Z</time>
      </trkpt>
      <trkpt lat="45.98157" lon="4.79762">
        <ele>231.899993896</ele>
        <time>2015-07-03T09:16:34.444Z</time>
      </trkpt>
      <trkpt lat="45.98161" lon="4.79765">
        <ele>232.300003052</ele>
        <time>2015-07-03T09:16:35.394Z</time>
      </trkpt>
      <trkpt lat="45.98165" lon="4.79769">
        <ele>232.5</ele>
        <time>2015-07-03T09:16:36.476Z</time>
      </trkpt>
      <trkpt lat="45.98169" lon="4.79774">
        <ele>232.800003052</ele>
        <time>2015-07-03T09:16:37.427Z</time>
      </trkpt>
      <trkpt lat="45.98171" lon="4.7978">
        <ele>233</ele>
        <time>2015-07-03T09:16:38.448Z</time>
      </trkpt>
      <trkpt lat="45.98174" lon="4.79785">
        <ele>232.699996948</ele>
        <time>2015-07-03T09:16:39.393Z</time>
      </trkpt>
      <trkpt lat="45.98176" lon="4.79792">
        <ele>232.600006104</ele>
        <time>2015-07-03T09:16:40.388Z</time>
      </trkpt>
      <trkpt lat="45.98178" lon="4.79798">
        <ele>232.800003052</ele>
        <time>2015-07-03T09:16:41.41Z</time>
      </trkpt>
      <trkpt lat="45.9818" lon="4.79804">
        <ele>232.600006104</ele>
        <time>2015-07-03T09:16:42.598Z</time>
      </trkpt>
      <trkpt lat="45.98182" lon="4.79811">
        <ele>232.600006104</ele>
        <time>2015-07-03T09:16:43.39Z</time>
      </trkpt>
      <trkpt lat="45.98185" lon="4.79818">
        <ele>232.5</ele>
        <time>2015-07-03T09:16:44.486Z</time>
      </trkpt>
      <trkpt lat="45.98188" lon="4.79825">
        <ele>232.199996948</ele>
        <time>2015-07-03T09:16:45.396Z</time>
      </trkpt>
      <trkpt lat="45.98191" lon="4.79833">
        <ele>231.899993896</ele>
        <time>2015-07-03T09:16:46.536Z</time>
      </trkpt>
      <trkpt lat="45.98194" lon="4.7984">
        <ele>231.5</ele>
        <time>2015-07-03T09:16:47.396Z</time>
      </trkpt>
      <trkpt lat="45.98197" lon="4.79849">
        <ele>231</ele>
        <time>2015-07-03T09:16:48.416Z</time>
      </trkpt>
      <trkpt lat="45.982" lon="4.79858">
        <ele>230.699996948</ele>
        <time>2015-07-03T09:16:49.394Z</time>
      </trkpt>
      <trkpt lat="45.98203" lon="4.79866">
        <ele>230.600006104</ele>
        <time>2015-07-03T09:16:50.427Z</time>
      </trkpt>
      <trkpt lat="45.98207" lon="4.79875">
        <ele>230.399993896</ele>
        <time>2015-07-03T09:16:51.395Z</time>
      </trkpt>
      <trkpt lat="45.9821" lon="4.79883">
        <ele>230.600006104</ele>
        <time>2015-07-03T09:16:52.496Z</time>
      </trkpt>
      <trkpt lat="45.98214" lon="4.7989">
        <ele>230.699996948</ele>
        <time>2015-07-03T09:16:53.407Z</time>
      </trkpt>
      <trkpt lat="45.98217" lon="4.79898">
        <ele>230.699996948</ele>
        <time>2015-07-03T09:16:54.416Z</time>
      </trkpt>
      <trkpt lat="45.9822" lon="4.79907">
        <ele>230.699996948</ele>
        <time>2015-07-03T09:16:55.397Z</time>
      </trkpt>
      <trkpt lat="45.98223" lon="4.79915">
        <ele>230.699996948</ele>
        <time>2015-07-03T09:16:56.446Z</time>
      </trkpt>
      <trkpt lat="45.98226" lon="4.79923">
        <ele>230.5</ele>
        <time>2015-07-03T09:16:57.416Z</time>
      </trkpt>
      <trkpt lat="45.98228" lon="4.79931">
        <ele>230.5</ele>
        <time>2015-07-03T09:16:58.396Z</time>
      </trkpt>
      <trkpt lat="45.98231" lon="4.79939">
        <ele>230.399993896</ele>
        <time>2015-07-03T09:16:59.416Z</time>
      </trkpt>
      <trkpt lat="45.98233" lon="4.79946">
        <ele>230.300003052</ele>
        <time>2015-07-03T09:17:00.393Z</time>
      </trkpt>
      <trkpt lat="45.98235" lon="4.79953">
        <ele>230.399993896</ele>
        <time>2015-07-03T09:17:01.391Z</time>
      </trkpt>
      <trkpt lat="45.98238" lon="4.7996">
        <ele>230.100006104</ele>
        <time>2015-07-03T09:17:02.391Z</time>
      </trkpt>
      <trkpt lat="45.9824" lon="4.79968">
        <ele>230</ele>
        <time>2015-07-03T09:17:03.389Z</time>
      </trkpt>
      <trkpt lat="45.98242" lon="4.79976">
        <ele>229.699996948</ele>
        <time>2015-07-03T09:17:04.389Z</time>
      </trkpt>
      <trkpt lat="45.98244" lon="4.79984">
        <ele>229.699996948</ele>
        <time>2015-07-03T09:17:05.389Z</time>
      </trkpt>
      <trkpt lat="45.98247" lon="4.79991">
        <ele>229.699996948</ele>
        <time>2015-07-03T09:17:06.393Z</time>
      </trkpt>
      <trkpt lat="45.98249" lon="4.79998">
        <ele>230</ele>
        <time>2015-07-03T09:17:07.392Z</time>
      </trkpt>
      <trkpt lat="45.98251" lon="4.80005">
        <ele>230.399993896</ele>
        <time>2015-07-03T09:17:08.393Z</time>
      </trkpt>
      <trkpt lat="45.98252" lon="4.80012">
        <ele>230.699996948</ele>
        <time>2015-07-03T09:17:09.389Z</time>
      </trkpt>
      <trkpt lat="45.98256" lon="4.8002">
        <ele>230.399993896</ele>
        <time>2015-07-03T09:17:10.407Z</time>
      </trkpt>
      <trkpt lat="45.98258" lon="4.80028">
        <ele>230.399993896</ele>
        <time>2015-07-03T09:17:11.394Z</time>
      </trkpt>
      <trkpt lat="45.98261" lon="4.80036">
        <ele>230.5</ele>
        <time>2015-07-03T09:17:12.388Z</time>
      </trkpt>
      <trkpt lat="45.98263" lon="4.80044">
        <ele>230.600006104</ele>
        <time>2015-07-03T09:17:13.417Z</time>
      </trkpt>
      <trkpt lat="45.98266" lon="4.80051">
        <ele>230.5</ele>
        <time>2015-07-03T09:17:14.393Z</time>
      </trkpt>
      <trkpt lat="45.98269" lon="4.80059">
        <ele>230.5</ele>
        <time>2015-07-03T09:17:15.386Z</time>
      </trkpt>
      <trkpt lat="45.98271" lon="4.80066">
        <ele>230.899993896</ele>
        <time>2015-07-03T09:17:16.393Z</time>
      </trkpt>
      <trkpt lat="45.98274" lon="4.80073">
        <ele>231</ele>
        <time>2015-07-03T09:17:17.393Z</time>
      </trkpt>
      <trkpt lat="45.98277" lon="4.8008">
        <ele>231</ele>
        <time>2015-07-03T09:17:18.392Z</time>
      </trkpt>
      <trkpt lat="45.98279" lon="4.80086">
        <ele>231.199996948</ele>
        <time>2015-07-03T09:17:19.392Z</time>
      </trkpt>
      <trkpt lat="45.98281" lon="4.80093">
        <ele>231.300003052</ele>
        <time>2015-07-03T09:17:20.39Z</time>
      </trkpt>
      <trkpt lat="45.98283" lon="4.801">
        <ele>231.100006104</ele>
        <time>2015-07-03T09:17:21.393Z</time>
      </trkpt>
      <trkpt lat="45.98286" lon="4.80107">
        <ele>231</ele>
        <time>2015-07-03T09:17:22.411Z</time>
      </trkpt>
      <trkpt lat="45.9829" lon="4.80116">
        <ele>230</ele>
        <time>2015-07-03T09:17:23.389Z</time>
      </trkpt>
      <trkpt lat="45.98292" lon="4.80122">
        <ele>229.800003052</ele>
        <time>2015-07-03T09:17:24.393Z</time>
      </trkpt>
      <trkpt lat="45.98295" lon="4.80128">
        <ele>229.699996948</ele>
        <time>2015-07-03T09:17:25.389Z</time>
      </trkpt>
      <trkpt lat="45.98297" lon="4.80135">
        <ele>229.600006104</ele>
        <time>2015-07-03T09:17:26.391Z</time>
      </trkpt>
      <trkpt lat="45.98299" lon="4.80141">
        <ele>229.800003052</ele>
        <time>2015-07-03T09:17:27.392Z</time>
      </trkpt>
      <trkpt lat="45.98302" lon="4.80152">
        <ele>229.899993896</ele>
        <time>2015-07-03T09:17:29.393Z</time>
      </trkpt>
      <trkpt lat="45.98304" lon="4.80158">
        <ele>229.800003052</ele>
        <time>2015-07-03T09:17:30.393Z</time>
      </trkpt>
      <trkpt lat="45.98307" lon="4.80168">
        <ele>230</ele>
        <time>2015-07-03T09:17:32.39Z</time>
      </trkpt>
      <trkpt lat="45.98309" lon="4.80174">
        <ele>230.100006104</ele>
        <time>2015-07-03T09:17:33.389Z</time>
      </trkpt>
      <trkpt lat="45.98312" lon="4.80183">
        <ele>230.300003052</ele>
        <time>2015-07-03T09:17:35.392Z</time>
      </trkpt>
      <trkpt lat="45.98314" lon="4.80188">
        <ele>230.199996948</ele>
        <time>2015-07-03T09:17:36.407Z</time>
      </trkpt>
      <trkpt lat="45.98318" lon="4.80199">
        <ele>229.800003052</ele>
        <time>2015-07-03T09:17:38.391Z</time>
      </trkpt>
      <trkpt lat="45.98319" lon="4.80205">
        <ele>229.800003052</ele>
        <time>2015-07-03T09:17:39.393Z</time>
      </trkpt>
      <trkpt lat="45.98324" lon="4.80215">
        <ele>230</ele>
        <time>2015-07-03T09:17:41.393Z</time>
      </trkpt>
      <trkpt lat="45.98326" lon="4.80222">
        <ele>230.100006104</ele>
        <time>2015-07-03T09:17:42.393Z</time>
      </trkpt>
      <trkpt lat="45.98326" lon="4.80234">
        <ele>229.5</ele>
        <time>2015-07-03T09:17:44.391Z</time>
      </trkpt>
      <trkpt lat="45.98325" lon="4.80242">
        <ele>229.399993896</ele>
        <time>2015-07-03T09:17:45.393Z</time>
      </trkpt>
      <trkpt lat="45.98324" lon="4.80249">
        <ele>229.199996948</ele>
        <time>2015-07-03T09:17:46.389Z</time>
      </trkpt>
      <trkpt lat="45.98322" lon="4.80257">
        <ele>228.899993896</ele>
        <time>2015-07-03T09:17:47.389Z</time>
      </trkpt>
      <trkpt lat="45.98321" lon="4.80266">
        <ele>228.699996948</ele>
        <time>2015-07-03T09:17:48.394Z</time>
      </trkpt>
      <trkpt lat="45.98319" lon="4.80275">
        <ele>228.699996948</ele>
        <time>2015-07-03T09:17:49.392Z</time>
      </trkpt>
      <trkpt lat="45.98316" lon="4.80284">
        <ele>228.699996948</ele>
        <time>2015-07-03T09:17:50.436Z</time>
      </trkpt>
      <trkpt lat="45.98314" lon="4.80292">
        <ele>228.699996948</ele>
        <time>2015-07-03T09:17:51.392Z</time>
      </trkpt>
      <trkpt lat="45.98312" lon="4.80302">
        <ele>228.399993896</ele>
        <time>2015-07-03T09:17:52.418Z</time>
      </trkpt>
      <trkpt lat="45.9831" lon="4.80312">
        <ele>228.399993896</ele>
        <time>2015-07-03T09:17:53.389Z</time>
      </trkpt>
      <trkpt lat="45.98307" lon="4.8032">
        <ele>228.300003052</ele>
        <time>2015-07-03T09:17:54.386Z</time>
      </trkpt>
      <trkpt lat="45.98304" lon="4.8033">
        <ele>228.199996948</ele>
        <time>2015-07-03T09:17:55.393Z</time>
      </trkpt>
      <trkpt lat="45.98302" lon="4.80339">
        <ele>228.199996948</ele>
        <time>2015-07-03T09:17:56.393Z</time>
      </trkpt>
      <trkpt lat="45.983" lon="4.80348">
        <ele>228.300003052</ele>
        <time>2015-07-03T09:17:57.39Z</time>
      </trkpt>
      <trkpt lat="45.98298" lon="4.80357">
        <ele>228.300003052</ele>
        <time>2015-07-03T09:17:58.392Z</time>
      </trkpt>
      <trkpt lat="45.98296" lon="4.80366">
        <ele>228.399993896</ele>
        <time>2015-07-03T09:17:59.389Z</time>
      </trkpt>
      <trkpt lat="45.98294" lon="4.80377">
        <ele>228.100006104</ele>
        <time>2015-07-03T09:18:00.393Z</time>
      </trkpt>
      <trkpt lat="45.98291" lon="4.80388">
        <ele>228.100006104</ele>
        <time>2015-07-03T09:18:01.389Z</time>
      </trkpt>
      <trkpt lat="45.98289" lon="4.80397">
        <ele>228.100006104</ele>
        <time>2015-07-03T09:18:02.448Z</time>
      </trkpt>
      <trkpt lat="45.98286" lon="4.80408">
        <ele>228.100006104</ele>
        <time>2015-07-03T09:18:03.407Z</time>
      </trkpt>
      <trkpt lat="45.98284" lon="4.80419">
        <ele>228</ele>
        <time>2015-07-03T09:18:04.389Z</time>
      </trkpt>
      <trkpt lat="45.98283" lon="4.8043">
        <ele>228.199996948</ele>
        <time>2015-07-03T09:18:05.389Z</time>
      </trkpt>
      <trkpt lat="45.98281" lon="4.80441">
        <ele>228</ele>
        <time>2015-07-03T09:18:06.391Z</time>
      </trkpt>
      <trkpt lat="45.98279" lon="4.80452">
        <ele>227.800003052</ele>
        <time>2015-07-03T09:18:07.389Z</time>
      </trkpt>
      <trkpt lat="45.98277" lon="4.80461">
        <ele>227.899993896</ele>
        <time>2015-07-03T09:18:08.39Z</time>
      </trkpt>
      <trkpt lat="45.98275" lon="4.8047">
        <ele>227.699996948</ele>
        <time>2015-07-03T09:18:09.391Z</time>
      </trkpt>
      <trkpt lat="45.98274" lon="4.8048">
        <ele>227.899993896</ele>
        <time>2015-07-03T09:18:10.389Z</time>
      </trkpt>
      <trkpt lat="45.98272" lon="4.8049">
        <ele>227.800003052</ele>
        <time>2015-07-03T09:18:11.389Z</time>
      </trkpt>
      <trkpt lat="45.98269" lon="4.805">
        <ele>228</ele>
        <time>2015-07-03T09:18:12.392Z</time>
      </trkpt>
      <trkpt lat="45.98267" lon="4.80509">
        <ele>228</ele>
        <time>2015-07-03T09:18:13.416Z</time>
      </trkpt>
      <trkpt lat="45.98265" lon="4.80517">
        <ele>228.100006104</ele>
        <time>2015-07-03T09:18:14.394Z</time>
      </trkpt>
      <trkpt lat="45.98263" lon="4.80526">
        <ele>228</ele>
        <time>2015-07-03T09:18:15.392Z</time>
      </trkpt>
      <trkpt lat="45.98261" lon="4.80533">
        <ele>228</ele>
        <time>2015-07-03T09:18:16.392Z</time>
      </trkpt>
      <trkpt lat="45.98259" lon="4.80541">
        <ele>227.899993896</ele>
        <time>2015-07-03T09:18:17.392Z</time>
      </trkpt>
      <trkpt lat="45.98257" lon="4.80549">
        <ele>227.899993896</ele>
        <time>2015-07-03T09:18:18.394Z</time>
      </trkpt>
      <trkpt lat="45.98255" lon="4.80556">
        <ele>227.699996948</ele>
        <time>2015-07-03T09:18:19.516Z</time>
      </trkpt>
      <trkpt lat="45.98253" lon="4.80565">
        <ele>226.899993896</ele>
        <time>2015-07-03T09:18:20.407Z</time>
      </trkpt>
      <trkpt lat="45.98251" lon="4.80575">
        <ele>226.399993896</ele>
        <time>2015-07-03T09:18:21.392Z</time>
      </trkpt>
      <trkpt lat="45.98248" lon="4.80583">
        <ele>226.300003052</ele>
        <time>2015-07-03T09:18:22.39Z</time>
      </trkpt>
      <trkpt lat="45.98245" lon="4.80592">
        <ele>226.100006104</ele>
        <time>2015-07-03T09:18:23.392Z</time>
      </trkpt>
      <trkpt lat="45.98242" lon="4.806">
        <ele>226</ele>
        <time>2015-07-03T09:18:24.395Z</time>
      </trkpt>
      <trkpt lat="45.98239" lon="4.80608">
        <ele>226.100006104</ele>
        <time>2015-07-03T09:18:25.389Z</time>
      </trkpt>
      <trkpt lat="45.98237" lon="4.80617">
        <ele>226.100006104</ele>
        <time>2015-07-03T09:18:26.404Z</time>
      </trkpt>
      <trkpt lat="45.98234" lon="4.80626">
        <ele>226.100006104</ele>
        <time>2015-07-03T09:18:27.411Z</time>
      </trkpt>
      <trkpt lat="45.98232" lon="4.80634">
        <ele>225.899993896</ele>
        <time>2015-07-03T09:18:28.417Z</time>
      </trkpt>
      <trkpt lat="45.9823" lon="4.80641">
        <ele>225.899993896</ele>
        <time>2015-07-03T09:18:29.394Z</time>
      </trkpt>
      <trkpt lat="45.98227" lon="4.80648">
        <ele>225.699996948</ele>
        <time>2015-07-03T09:18:30.393Z</time>
      </trkpt>
      <trkpt lat="45.98226" lon="4.80654">
        <ele>225.699996948</ele>
        <time>2015-07-03T09:18:31.393Z</time>
      </trkpt>
      <trkpt lat="45.98221" lon="4.80665">
        <ele>226.100006104</ele>
        <time>2015-07-03T09:18:33.391Z</time>
      </trkpt>
      <trkpt lat="45.98219" lon="4.80669">
        <ele>226.100006104</ele>
        <time>2015-07-03T09:18:34.392Z</time>
      </trkpt>
      <trkpt lat="45.98212" lon="4.80674">
        <ele>226.600006104</ele>
        <time>2015-07-03T09:18:36.393Z</time>
      </trkpt>
      <trkpt lat="45.98208" lon="4.80675">
        <ele>227.100006104</ele>
        <time>2015-07-03T09:18:37.392Z</time>
      </trkpt>
      <trkpt lat="45.98203" lon="4.80677">
        <ele>227.399993896</ele>
        <time>2015-07-03T09:18:38.467Z</time>
      </trkpt>
      <trkpt lat="45.98199" lon="4.80681">
        <ele>227.699996948</ele>
        <time>2015-07-03T09:18:39.389Z</time>
      </trkpt>
      <trkpt lat="45.98191" lon="4.80685">
        <ele>228.199996948</ele>
        <time>2015-07-03T09:18:41.392Z</time>
      </trkpt>
      <trkpt lat="45.98187" lon="4.80686">
        <ele>228.5</ele>
        <time>2015-07-03T09:18:42.395Z</time>
      </trkpt>
      <trkpt lat="45.9818" lon="4.80687">
        <ele>229.5</ele>
        <time>2015-07-03T09:18:44.392Z</time>
      </trkpt>
      <trkpt lat="45.98176" lon="4.80687">
        <ele>230.199996948</ele>
        <time>2015-07-03T09:18:45.392Z</time>
      </trkpt>
      <trkpt lat="45.98167" lon="4.80688">
        <ele>230.699996948</ele>
        <time>2015-07-03T09:18:47.389Z</time>
      </trkpt>
      <trkpt lat="45.98163" lon="4.80688">
        <ele>231</ele>
        <time>2015-07-03T09:18:48.394Z</time>
      </trkpt>
      <trkpt lat="45.98155" lon="4.80688">
        <ele>231</ele>
        <time>2015-07-03T09:18:50.39Z</time>
      </trkpt>
      <trkpt lat="45.9815" lon="4.80688">
        <ele>230.899993896</ele>
        <time>2015-07-03T09:18:51.441Z</time>
      </trkpt>
      <trkpt lat="45.98142" lon="4.80688">
        <ele>231</ele>
        <time>2015-07-03T09:18:53.389Z</time>
      </trkpt>
      <trkpt lat="45.98137" lon="4.80686">
        <ele>231.300003052</ele>
        <time>2015-07-03T09:18:54.394Z</time>
      </trkpt>
      <trkpt lat="45.98128" lon="4.80685">
        <ele>231.699996948</ele>
        <time>2015-07-03T09:18:56.389Z</time>
      </trkpt>
      <trkpt lat="45.98124" lon="4.80685">
        <ele>231.899993896</ele>
        <time>2015-07-03T09:18:57.392Z</time>
      </trkpt>
      <trkpt lat="45.98116" lon="4.80685">
        <ele>232.199996948</ele>
        <time>2015-07-03T09:18:59.392Z</time>
      </trkpt>
      <trkpt lat="45.98112" lon="4.80685">
        <ele>232.300003052</ele>
        <time>2015-07-03T09:19:00.391Z</time>
      </trkpt>
      <trkpt lat="45.98105" lon="4.80686">
        <ele>232.800003052</ele>
        <time>2015-07-03T09:19:02.39Z</time>
      </trkpt>
      <trkpt lat="45.98101" lon="4.80686">
        <ele>232.899993896</ele>
        <time>2015-07-03T09:19:03.392Z</time>
      </trkpt>
      <trkpt lat="45.98095" lon="4.80686">
        <ele>233.5</ele>
        <time>2015-07-03T09:19:05.389Z</time>
      </trkpt>
      <trkpt lat="45.98091" lon="4.80687">
        <ele>233.800003052</ele>
        <time>2015-07-03T09:19:06.391Z</time>
      </trkpt>
      <trkpt lat="45.98084" lon="4.80687">
        <ele>234.300003052</ele>
        <time>2015-07-03T09:19:08.389Z</time>
      </trkpt>
      <trkpt lat="45.9808" lon="4.80688">
        <ele>234.300003052</ele>
        <time>2015-07-03T09:19:09.389Z</time>
      </trkpt>
      <trkpt lat="45.98071" lon="4.80688">
        <ele>235.199996948</ele>
        <time>2015-07-03T09:19:12.391Z</time>
      </trkpt>
      <trkpt lat="45.98068" lon="4.80689">
        <ele>235.399993896</ele>
        <time>2015-07-03T09:19:13.391Z</time>
      </trkpt>
      <trkpt lat="45.98062" lon="4.80691">
        <ele>236</ele>
        <time>2015-07-03T09:19:15.392Z</time>
      </trkpt>
      <trkpt lat="45.98059" lon="4.80692">
        <ele>236</ele>
        <time>2015-07-03T09:19:16.392Z</time>
      </trkpt>
      <trkpt lat="45.98053" lon="4.80693">
        <ele>236.199996948</ele>
        <time>2015-07-03T09:19:18.394Z</time>
      </trkpt>
      <trkpt lat="45.9805" lon="4.80694">
        <ele>236.100006104</ele>
        <time>2015-07-03T09:19:19.389Z</time>
      </trkpt>
      <trkpt lat="45.98044" lon="4.80696">
        <ele>235.899993896</ele>
        <time>2015-07-03T09:19:21.395Z</time>
      </trkpt>
      <trkpt lat="45.98041" lon="4.80697">
        <ele>235.600006104</ele>
        <time>2015-07-03T09:19:22.39Z</time>
      </trkpt>
      <trkpt lat="45.98034" lon="4.80701">
        <ele>235.399993896</ele>
        <time>2015-07-03T09:19:24.393Z</time>
      </trkpt>
      <trkpt lat="45.98031" lon="4.80704">
        <ele>235</ele>
        <time>2015-07-03T09:19:25.392Z</time>
      </trkpt>
      <trkpt lat="45.98025" lon="4.80714">
        <ele>233.800003052</ele>
        <time>2015-07-03T09:19:28.392Z</time>
      </trkpt>
      <trkpt lat="45.98026" lon="4.80717">
        <ele>233.800003052</ele>
        <time>2015-07-03T09:19:29.394Z</time>
      </trkpt>
      <trkpt lat="45.98029" lon="4.80725">
        <ele>233.800003052</ele>
        <time>2015-07-03T09:19:32.39Z</time>
      </trkpt>
      <trkpt lat="45.98031" lon="4.80728">
        <ele>233.699996948</ele>
        <time>2015-07-03T09:19:33.407Z</time>
      </trkpt>
      <trkpt lat="45.98031" lon="4.80739">
        <ele>233.800003052</ele>
        <time>2015-07-03T09:19:36.393Z</time>
      </trkpt>
      <trkpt lat="45.98032" lon="4.80742">
        <ele>234</ele>
        <time>2015-07-03T09:19:37.392Z</time>
      </trkpt>
      <trkpt lat="45.98035" lon="4.80752">
        <ele>234.699996948</ele>
        <time>2015-07-03T09:19:40.389Z</time>
      </trkpt>
      <trkpt lat="45.98036" lon="4.80755">
        <ele>235.100006104</ele>
        <time>2015-07-03T09:19:41.389Z</time>
      </trkpt>
      <trkpt lat="45.98039" lon="4.80766">
        <ele>235.300003052</ele>
        <time>2015-07-03T09:19:44.39Z</time>
      </trkpt>
      <trkpt lat="45.9804" lon="4.8077">
        <ele>235.800003052</ele>
        <time>2015-07-03T09:19:45.392Z</time>
      </trkpt>
      <trkpt lat="45.98043" lon="4.80781">
        <ele>236.899993896</ele>
        <time>2015-07-03T09:19:48.391Z</time>
      </trkpt>
      <trkpt lat="45.98044" lon="4.80784">
        <ele>237.199996948</ele>
        <time>2015-07-03T09:19:49.409Z</time>
      </trkpt>
      <trkpt lat="45.98046" lon="4.80794">
        <ele>238.300003052</ele>
        <time>2015-07-03T09:19:52.389Z</time>
      </trkpt>
      <trkpt lat="45.98047" lon="4.80797">
        <ele>238.800003052</ele>
        <time>2015-07-03T09:19:53.389Z</time>
      </trkpt>
      <trkpt lat="45.98049" lon="4.80809">
        <ele>240.100006104</ele>
        <time>2015-07-03T09:19:57.392Z</time>
      </trkpt>
      <trkpt lat="45.9805" lon="4.80813">
        <ele>240.399993896</ele>
        <time>2015-07-03T09:19:58.39Z</time>
      </trkpt>
      <trkpt lat="45.98053" lon="4.80821">
        <ele>240.600006104</ele>
        <time>2015-07-03T09:20:00.391Z</time>
      </trkpt>
      <trkpt lat="45.98054" lon="4.80825">
        <ele>240.800003052</ele>
        <time>2015-07-03T09:20:01.388Z</time>
      </trkpt>
      <trkpt lat="45.98057" lon="4.80835">
        <ele>241.800003052</ele>
        <time>2015-07-03T09:20:04.393Z</time>
      </trkpt>
      <trkpt lat="45.98058" lon="4.80838">
        <ele>241.899993896</ele>
        <time>2015-07-03T09:20:05.392Z</time>
      </trkpt>
      <trkpt lat="45.98061" lon="4.80847">
        <ele>242.199996948</ele>
        <time>2015-07-03T09:20:08.389Z</time>
      </trkpt>
      <trkpt lat="45.98061" lon="4.8085">
        <ele>242.100006104</ele>
        <time>2015-07-03T09:20:09.387Z</time>
      </trkpt>
      <trkpt lat="45.98066" lon="4.8086">
        <ele>241.199996948</ele>
        <time>2015-07-03T09:20:12.394Z</time>
      </trkpt>
      <trkpt lat="45.98067" lon="4.80863">
        <ele>241.5</ele>
        <time>2015-07-03T09:20:13.389Z</time>
      </trkpt>
      <trkpt lat="45.9807" lon="4.80871">
        <ele>241.699996948</ele>
        <time>2015-07-03T09:20:15.431Z</time>
      </trkpt>
      <trkpt lat="45.98071" lon="4.80875">
        <ele>241.300003052</ele>
        <time>2015-07-03T09:20:16.388Z</time>
      </trkpt>
      <trkpt lat="45.98074" lon="4.80884">
        <ele>240.699996948</ele>
        <time>2015-07-03T09:20:18.389Z</time>
      </trkpt>
      <trkpt lat="45.98075" lon="4.80887">
        <ele>240.199996948</ele>
        <time>2015-07-03T09:20:19.388Z</time>
      </trkpt>
      <trkpt lat="45.98074" lon="4.80899">
        <ele>242</ele>
        <time>2015-07-03T09:20:23.392Z</time>
      </trkpt>
      <trkpt lat="45.98074" lon="4.80902">
        <ele>241.300003052</ele>
        <time>2015-07-03T09:20:24.391Z</time>
      </trkpt>
      <trkpt lat="45.98075" lon="4.80915">
        <ele>241.399993896</ele>
        <time>2015-07-03T09:20:28.393Z</time>
      </trkpt>
      <trkpt lat="45.98075" lon="4.80917">
        <ele>241.600006104</ele>
        <time>2015-07-03T09:20:29.392Z</time>
      </trkpt>
      <trkpt lat="45.98076" lon="4.8093">
        <ele>241.899993896</ele>
        <time>2015-07-03T09:20:33.388Z</time>
      </trkpt>
      <trkpt lat="45.98077" lon="4.80933">
        <ele>242.100006104</ele>
        <time>2015-07-03T09:20:34.388Z</time>
      </trkpt>
      <trkpt lat="45.98081" lon="4.80942">
        <ele>242.300003052</ele>
        <time>2015-07-03T09:20:37.391Z</time>
      </trkpt>
      <trkpt lat="45.98082" lon="4.80945">
        <ele>242.399993896</ele>
        <time>2015-07-03T09:20:38.39Z</time>
      </trkpt>
      <trkpt lat="45.98085" lon="4.80956">
        <ele>242.5</ele>
        <time>2015-07-03T09:20:41.389Z</time>
      </trkpt>
      <trkpt lat="45.98086" lon="4.80959">
        <ele>242.800003052</ele>
        <time>2015-07-03T09:20:42.391Z</time>
      </trkpt>
      <trkpt lat="45.9809" lon="4.8097">
        <ele>243.199996948</ele>
        <time>2015-07-03T09:20:46.39Z</time>
      </trkpt>
      <trkpt lat="45.9809" lon="4.80973">
        <ele>243.699996948</ele>
        <time>2015-07-03T09:20:47.405Z</time>
      </trkpt>
      <trkpt lat="45.98093" lon="4.80982">
        <ele>244.300003052</ele>
        <time>2015-07-03T09:20:50.393Z</time>
      </trkpt>
      <trkpt lat="45.98094" lon="4.80985">
        <ele>244.5</ele>
        <time>2015-07-03T09:20:51.39Z</time>
      </trkpt>
      <trkpt lat="45.98096" lon="4.80994">
        <ele>244.899993896</ele>
        <time>2015-07-03T09:20:54.394Z</time>
      </trkpt>
      <trkpt lat="45.98097" lon="4.80997">
        <ele>244.899993896</ele>
        <time>2015-07-03T09:20:55.392Z</time>
      </trkpt>
      <trkpt lat="45.981" lon="4.81006">
        <ele>245.199996948</ele>
        <time>2015-07-03T09:20:57.391Z</time>
      </trkpt>
      <trkpt lat="45.98103" lon="4.81011">
        <ele>245.199996948</ele>
        <time>2015-07-03T09:20:58.392Z</time>
      </trkpt>
      <trkpt lat="45.98107" lon="4.8102">
        <ele>245.199996948</ele>
        <time>2015-07-03T09:21:00.392Z</time>
      </trkpt>
      <trkpt lat="45.98108" lon="4.81024">
        <ele>245.100006104</ele>
        <time>2015-07-03T09:21:01.391Z</time>
      </trkpt>
      <trkpt lat="45.98112" lon="4.81033">
        <ele>245.100006104</ele>
        <time>2015-07-03T09:21:03.406Z</time>
      </trkpt>
      <trkpt lat="45.98114" lon="4.81039">
        <ele>245.600006104</ele>
        <time>2015-07-03T09:21:04.391Z</time>
      </trkpt>
      <trkpt lat="45.98118" lon="4.8105">
        <ele>245.699996948</ele>
        <time>2015-07-03T09:21:06.395Z</time>
      </trkpt>
      <trkpt lat="45.98121" lon="4.81056">
        <ele>244.899993896</ele>
        <time>2015-07-03T09:21:07.413Z</time>
      </trkpt>
      <trkpt lat="45.98123" lon="4.81066">
        <ele>244.699996948</ele>
        <time>2015-07-03T09:21:09.391Z</time>
      </trkpt>
      <trkpt lat="45.98125" lon="4.81072">
        <ele>245</ele>
        <time>2015-07-03T09:21:10.392Z</time>
      </trkpt>
      <trkpt lat="45.98127" lon="4.81077">
        <ele>245.300003052</ele>
        <time>2015-07-03T09:21:11.389Z</time>
      </trkpt>
      <trkpt lat="45.9813" lon="4.81083">
        <ele>244.899993896</ele>
        <time>2015-07-03T09:21:12.392Z</time>
      </trkpt>
      <trkpt lat="45.98132" lon="4.81089">
        <ele>244.5</ele>
        <time>2015-07-03T09:21:13.389Z</time>
      </trkpt>
      <trkpt lat="45.98134" lon="4.81095">
        <ele>244.899993896</ele>
        <time>2015-07-03T09:21:14.39Z</time>
      </trkpt>
      <trkpt lat="45.98137" lon="4.81106">
        <ele>244.699996948</ele>
        <time>2015-07-03T09:21:16.428Z</time>
      </trkpt>
      <trkpt lat="45.9814" lon="4.81112">
        <ele>244.800003052</ele>
        <time>2015-07-03T09:21:17.392Z</time>
      </trkpt>
      <trkpt lat="45.98143" lon="4.81124">
        <ele>245</ele>
        <time>2015-07-03T09:21:19.389Z</time>
      </trkpt>
      <trkpt lat="45.98145" lon="4.8113">
        <ele>245.199996948</ele>
        <time>2015-07-03T09:21:20.39Z</time>
      </trkpt>
      <trkpt lat="45.98147" lon="4.81136">
        <ele>245.199996948</ele>
        <time>2015-07-03T09:21:21.389Z</time>
      </trkpt>
      <trkpt lat="45.98149" lon="4.81143">
        <ele>245.5</ele>
        <time>2015-07-03T09:21:22.389Z</time>
      </trkpt>
      <trkpt lat="45.98151" lon="4.81149">
        <ele>245.600006104</ele>
        <time>2015-07-03T09:21:23.392Z</time>
      </trkpt>
      <trkpt lat="45.98153" lon="4.81155">
        <ele>245.5</ele>
        <time>2015-07-03T09:21:24.391Z</time>
      </trkpt>
      <trkpt lat="45.98155" lon="4.81161">
        <ele>245.600006104</ele>
        <time>2015-07-03T09:21:25.416Z</time>
      </trkpt>
      <trkpt lat="45.98157" lon="4.81167">
        <ele>245.600006104</ele>
        <time>2015-07-03T09:21:26.39Z</time>
      </trkpt>
      <trkpt lat="45.98159" lon="4.81173">
        <ele>245.800003052</ele>
        <time>2015-07-03T09:21:27.393Z</time>
      </trkpt>
      <trkpt lat="45.98162" lon="4.8118">
        <ele>245.899993896</ele>
        <time>2015-07-03T09:21:28.389Z</time>
      </trkpt>
      <trkpt lat="45.98164" lon="4.81186">
        <ele>245.899993896</ele>
        <time>2015-07-03T09:21:29.416Z</time>
      </trkpt>
      <trkpt lat="45.98166" lon="4.81192">
        <ele>245.899993896</ele>
        <time>2015-07-03T09:21:30.393Z</time>
      </trkpt>
      <trkpt lat="45.98167" lon="4.81204">
        <ele>246.199996948</ele>
        <time>2015-07-03T09:21:32.389Z</time>
      </trkpt>
      <trkpt lat="45.98168" lon="4.81208">
        <ele>246</ele>
        <time>2015-07-03T09:21:33.389Z</time>
      </trkpt>
      <trkpt lat="45.9817" lon="4.81219">
        <ele>246</ele>
        <time>2015-07-03T09:21:35.389Z</time>
      </trkpt>
      <trkpt lat="45.98171" lon="4.81225">
        <ele>246.100006104</ele>
        <time>2015-07-03T09:21:36.391Z</time>
      </trkpt>
      <trkpt lat="45.98172" lon="4.81231">
        <ele>246.300003052</ele>
        <time>2015-07-03T09:21:37.412Z</time>
      </trkpt>
      <trkpt lat="45.98173" lon="4.81239">
        <ele>246.5</ele>
        <time>2015-07-03T09:21:38.393Z</time>
      </trkpt>
      <trkpt lat="45.98175" lon="4.81251">
        <ele>247.100006104</ele>
        <time>2015-07-03T09:21:40.389Z</time>
      </trkpt>
      <trkpt lat="45.98175" lon="4.81256">
        <ele>247.300003052</ele>
        <time>2015-07-03T09:21:41.426Z</time>
      </trkpt>
      <trkpt lat="45.98177" lon="4.81266">
        <ele>247.600006104</ele>
        <time>2015-07-03T09:21:43.391Z</time>
      </trkpt>
      <trkpt lat="45.98178" lon="4.81271">
        <ele>247.800003052</ele>
        <time>2015-07-03T09:21:44.393Z</time>
      </trkpt>
      <trkpt lat="45.98179" lon="4.81281">
        <ele>248.100006104</ele>
        <time>2015-07-03T09:21:46.391Z</time>
      </trkpt>
      <trkpt lat="45.9818" lon="4.81286">
        <ele>248.399993896</ele>
        <time>2015-07-03T09:21:47.389Z</time>
      </trkpt>
      <trkpt lat="45.98181" lon="4.81297">
        <ele>248.300003052</ele>
        <time>2015-07-03T09:21:49.388Z</time>
      </trkpt>
      <trkpt lat="45.98182" lon="4.81303">
        <ele>248.199996948</ele>
        <time>2015-07-03T09:21:50.407Z</time>
      </trkpt>
      <trkpt lat="45.98185" lon="4.81315">
        <ele>248.199996948</ele>
        <time>2015-07-03T09:21:52.39Z</time>
      </trkpt>
      <trkpt lat="45.98186" lon="4.81321">
        <ele>248.800003052</ele>
        <time>2015-07-03T09:21:53.389Z</time>
      </trkpt>
      <trkpt lat="45.98188" lon="4.81331">
        <ele>250.199996948</ele>
        <time>2015-07-03T09:21:55.391Z</time>
      </trkpt>
      <trkpt lat="45.98189" lon="4.81336">
        <ele>250.399993896</ele>
        <time>2015-07-03T09:21:56.389Z</time>
      </trkpt>
      <trkpt lat="45.98192" lon="4.81348">
        <ele>250.800003052</ele>
        <time>2015-07-03T09:21:58.392Z</time>
      </trkpt>
      <trkpt lat="45.98194" lon="4.81354">
        <ele>251</ele>
        <time>2015-07-03T09:21:59.391Z</time>
      </trkpt>
      <trkpt lat="45.98196" lon="4.81366">
        <ele>251.100006104</ele>
        <time>2015-07-03T09:22:01.411Z</time>
      </trkpt>
      <trkpt lat="45.98198" lon="4.81372">
        <ele>250.899993896</ele>
        <time>2015-07-03T09:22:02.39Z</time>
      </trkpt>
      <trkpt lat="45.98201" lon="4.81384">
        <ele>251.100006104</ele>
        <time>2015-07-03T09:22:04.388Z</time>
      </trkpt>
      <trkpt lat="45.98202" lon="4.81389">
        <ele>251.399993896</ele>
        <time>2015-07-03T09:22:05.391Z</time>
      </trkpt>
      <trkpt lat="45.98206" lon="4.814">
        <ele>251.5</ele>
        <time>2015-07-03T09:22:07.388Z</time>
      </trkpt>
      <trkpt lat="45.98207" lon="4.81406">
        <ele>251.399993896</ele>
        <time>2015-07-03T09:22:08.39Z</time>
      </trkpt>
      <trkpt lat="45.9821" lon="4.81416">
        <ele>251.699996948</ele>
        <time>2015-07-03T09:22:10.388Z</time>
      </trkpt>
      <trkpt lat="45.98213" lon="4.81421">
        <ele>251.5</ele>
        <time>2015-07-03T09:22:11.388Z</time>
      </trkpt>
      <trkpt lat="45.98217" lon="4.81432">
        <ele>251.300003052</ele>
        <time>2015-07-03T09:22:13.388Z</time>
      </trkpt>
      <trkpt lat="45.98219" lon="4.81439">
        <ele>250.899993896</ele>
        <time>2015-07-03T09:22:14.392Z</time>
      </trkpt>
      <trkpt lat="45.98221" lon="4.81445">
        <ele>251</ele>
        <time>2015-07-03T09:22:15.389Z</time>
      </trkpt>
      <trkpt lat="45.98223" lon="4.81452">
        <ele>251.199996948</ele>
        <time>2015-07-03T09:22:16.391Z</time>
      </trkpt>
      <trkpt lat="45.98225" lon="4.81458">
        <ele>251.199996948</ele>
        <time>2015-07-03T09:22:17.388Z</time>
      </trkpt>
      <trkpt lat="45.98227" lon="4.81465">
        <ele>251.300003052</ele>
        <time>2015-07-03T09:22:18.393Z</time>
      </trkpt>
      <trkpt lat="45.9823" lon="4.81471">
        <ele>251.300003052</ele>
        <time>2015-07-03T09:22:19.399Z</time>
      </trkpt>
      <trkpt lat="45.98232" lon="4.81478">
        <ele>251.399993896</ele>
        <time>2015-07-03T09:22:20.395Z</time>
      </trkpt>
      <trkpt lat="45.98234" lon="4.81485">
        <ele>251.100006104</ele>
        <time>2015-07-03T09:22:21.47Z</time>
      </trkpt>
      <trkpt lat="45.98236" lon="4.81491">
        <ele>250.600006104</ele>
        <time>2015-07-03T09:22:22.392Z</time>
      </trkpt>
      <trkpt lat="45.98239" lon="4.81498">
        <ele>250.199996948</ele>
        <time>2015-07-03T09:22:23.481Z</time>
      </trkpt>
      <trkpt lat="45.98241" lon="4.81505">
        <ele>249.899993896</ele>
        <time>2015-07-03T09:22:24.424Z</time>
      </trkpt>
      <trkpt lat="45.98242" lon="4.81512">
        <ele>249.899993896</ele>
        <time>2015-07-03T09:22:25.528Z</time>
      </trkpt>
      <trkpt lat="45.98245" lon="4.81519">
        <ele>249.699996948</ele>
        <time>2015-07-03T09:22:26.406Z</time>
      </trkpt>
      <trkpt lat="45.98248" lon="4.81527">
        <ele>249.5</ele>
        <time>2015-07-03T09:22:27.446Z</time>
      </trkpt>
      <trkpt lat="45.9825" lon="4.81534">
        <ele>249</ele>
        <time>2015-07-03T09:22:28.406Z</time>
      </trkpt>
      <trkpt lat="45.98252" lon="4.81541">
        <ele>248.800003052</ele>
        <time>2015-07-03T09:22:29.406Z</time>
      </trkpt>
      <trkpt lat="45.98255" lon="4.81549">
        <ele>248.5</ele>
        <time>2015-07-03T09:22:30.402Z</time>
      </trkpt>
      <trkpt lat="45.98258" lon="4.81556">
        <ele>248.300003052</ele>
        <time>2015-07-03T09:22:31.416Z</time>
      </trkpt>
      <trkpt lat="45.98261" lon="4.81564">
        <ele>248.399993896</ele>
        <time>2015-07-03T09:22:32.406Z</time>
      </trkpt>
      <trkpt lat="45.98263" lon="4.8157">
        <ele>248.600006104</ele>
        <time>2015-07-03T09:22:33.396Z</time>
      </trkpt>
      <trkpt lat="45.98265" lon="4.81577">
        <ele>248.800003052</ele>
        <time>2015-07-03T09:22:34.416Z</time>
      </trkpt>
      <trkpt lat="45.98268" lon="4.81585">
        <ele>249</ele>
        <time>2015-07-03T09:22:35.436Z</time>
      </trkpt>
      <trkpt lat="45.9827" lon="4.81592">
        <ele>249.100006104</ele>
        <time>2015-07-03T09:22:36.406Z</time>
      </trkpt>
      <trkpt lat="45.98272" lon="4.816">
        <ele>249.5</ele>
        <time>2015-07-03T09:22:37.475Z</time>
      </trkpt>
      <trkpt lat="45.98275" lon="4.81607">
        <ele>249.699996948</ele>
        <time>2015-07-03T09:22:38.429Z</time>
      </trkpt>
      <trkpt lat="45.98278" lon="4.81614">
        <ele>249.899993896</ele>
        <time>2015-07-03T09:22:39.406Z</time>
      </trkpt>
      <trkpt lat="45.98281" lon="4.81621">
        <ele>249.699996948</ele>
        <time>2015-07-03T09:22:40.497Z</time>
      </trkpt>
      <trkpt lat="45.98286" lon="4.81627">
        <ele>249.600006104</ele>
        <time>2015-07-03T09:22:41.596Z</time>
      </trkpt>
      <trkpt lat="45.9829" lon="4.81633">
        <ele>249.600006104</ele>
        <time>2015-07-03T09:22:42.393Z</time>
      </trkpt>
      <trkpt lat="45.98294" lon="4.81639">
        <ele>249.600006104</ele>
        <time>2015-07-03T09:22:43.495Z</time>
      </trkpt>
      <trkpt lat="45.98299" lon="4.81644">
        <ele>249.699996948</ele>
        <time>2015-07-03T09:22:44.399Z</time>
      </trkpt>
      <trkpt lat="45.98304" lon="4.81648">
        <ele>249.899993896</ele>
        <time>2015-07-03T09:22:45.406Z</time>
      </trkpt>
      <trkpt lat="45.98308" lon="4.81652">
        <ele>250.199996948</ele>
        <time>2015-07-03T09:22:46.396Z</time>
      </trkpt>
      <trkpt lat="45.98313" lon="4.81656">
        <ele>250.199996948</ele>
        <time>2015-07-03T09:22:47.391Z</time>
      </trkpt>
      <trkpt lat="45.98319" lon="4.81659">
        <ele>250.300003052</ele>
        <time>2015-07-03T09:22:48.397Z</time>
      </trkpt>
      <trkpt lat="45.98324" lon="4.81663">
        <ele>250.300003052</ele>
        <time>2015-07-03T09:22:49.396Z</time>
      </trkpt>
      <trkpt lat="45.98329" lon="4.81666">
        <ele>250.100006104</ele>
        <time>2015-07-03T09:22:50.391Z</time>
      </trkpt>
      <trkpt lat="45.98334" lon="4.81669">
        <ele>250.100006104</ele>
        <time>2015-07-03T09:22:51.389Z</time>
      </trkpt>
      <trkpt lat="45.9834" lon="4.81671">
        <ele>250</ele>
        <time>2015-07-03T09:22:52.388Z</time>
      </trkpt>
      <trkpt lat="45.98346" lon="4.81672">
        <ele>249.699996948</ele>
        <time>2015-07-03T09:22:53.411Z</time>
      </trkpt>
      <trkpt lat="45.98352" lon="4.81673">
        <ele>249.100006104</ele>
        <time>2015-07-03T09:22:54.399Z</time>
      </trkpt>
      <trkpt lat="45.98359" lon="4.81673">
        <ele>248.800003052</ele>
        <time>2015-07-03T09:22:55.496Z</time>
      </trkpt>
      <trkpt lat="45.98365" lon="4.81674">
        <ele>248.800003052</ele>
        <time>2015-07-03T09:22:56.392Z</time>
      </trkpt>
      <trkpt lat="45.98371" lon="4.81674">
        <ele>248.800003052</ele>
        <time>2015-07-03T09:22:57.406Z</time>
      </trkpt>
      <trkpt lat="45.98376" lon="4.81673">
        <ele>248.399993896</ele>
        <time>2015-07-03T09:22:58.392Z</time>
      </trkpt>
      <trkpt lat="45.98382" lon="4.81672">
        <ele>248.100006104</ele>
        <time>2015-07-03T09:22:59.457Z</time>
      </trkpt>
      <trkpt lat="45.98388" lon="4.81671">
        <ele>248.199996948</ele>
        <time>2015-07-03T09:23:00.511Z</time>
      </trkpt>
      <trkpt lat="45.98394" lon="4.8167">
        <ele>247.899993896</ele>
        <time>2015-07-03T09:23:01.416Z</time>
      </trkpt>
      <trkpt lat="45.984" lon="4.81668">
        <ele>247.899993896</ele>
        <time>2015-07-03T09:23:02.392Z</time>
      </trkpt>
      <trkpt lat="45.98406" lon="4.81667">
        <ele>247.899993896</ele>
        <time>2015-07-03T09:23:03.469Z</time>
      </trkpt>
      <trkpt lat="45.98411" lon="4.81666">
        <ele>247.899993896</ele>
        <time>2015-07-03T09:23:04.396Z</time>
      </trkpt>
      <trkpt lat="45.98417" lon="4.81666">
        <ele>247.800003052</ele>
        <time>2015-07-03T09:23:05.426Z</time>
      </trkpt>
      <trkpt lat="45.98423" lon="4.81666">
        <ele>247.199996948</ele>
        <time>2015-07-03T09:23:06.391Z</time>
      </trkpt>
      <trkpt lat="45.98428" lon="4.81667">
        <ele>246.800003052</ele>
        <time>2015-07-03T09:23:07.388Z</time>
      </trkpt>
      <trkpt lat="45.98434" lon="4.8167">
        <ele>246.800003052</ele>
        <time>2015-07-03T09:23:08.389Z</time>
      </trkpt>
      <trkpt lat="45.98438" lon="4.81673">
        <ele>246.699996948</ele>
        <time>2015-07-03T09:23:09.388Z</time>
      </trkpt>
      <trkpt lat="45.98442" lon="4.81678">
        <ele>246.5</ele>
        <time>2015-07-03T09:23:10.391Z</time>
      </trkpt>
      <trkpt lat="45.98447" lon="4.81683">
        <ele>246.5</ele>
        <time>2015-07-03T09:23:11.436Z</time>
      </trkpt>
      <trkpt lat="45.98451" lon="4.8169">
        <ele>246.300003052</ele>
        <time>2015-07-03T09:23:12.404Z</time>
      </trkpt>
      <trkpt lat="45.98454" lon="4.81698">
        <ele>246.300003052</ele>
        <time>2015-07-03T09:23:13.396Z</time>
      </trkpt>
      <trkpt lat="45.98457" lon="4.81706">
        <ele>246.100006104</ele>
        <time>2015-07-03T09:23:14.417Z</time>
      </trkpt>
      <trkpt lat="45.98462" lon="4.81714">
        <ele>245.800003052</ele>
        <time>2015-07-03T09:23:15.579Z</time>
      </trkpt>
      <trkpt lat="45.98467" lon="4.81721">
        <ele>245.5</ele>
        <time>2015-07-03T09:23:16.399Z</time>
      </trkpt>
      <trkpt lat="45.98473" lon="4.81727">
        <ele>245</ele>
        <time>2015-07-03T09:23:17.392Z</time>
      </trkpt>
      <trkpt lat="45.98479" lon="4.81734">
        <ele>244.5</ele>
        <time>2015-07-03T09:23:18.416Z</time>
      </trkpt>
      <trkpt lat="45.98486" lon="4.81741">
        <ele>244.100006104</ele>
        <time>2015-07-03T09:23:19.406Z</time>
      </trkpt>
      <trkpt lat="45.98493" lon="4.81747">
        <ele>243.800003052</ele>
        <time>2015-07-03T09:23:20.416Z</time>
      </trkpt>
      <trkpt lat="45.985" lon="4.81754">
        <ele>243.199996948</ele>
        <time>2015-07-03T09:23:21.476Z</time>
      </trkpt>
      <trkpt lat="45.98507" lon="4.81761">
        <ele>242.899993896</ele>
        <time>2015-07-03T09:23:22.408Z</time>
      </trkpt>
      <trkpt lat="45.98513" lon="4.8177">
        <ele>242.800003052</ele>
        <time>2015-07-03T09:23:23.629Z</time>
      </trkpt>
      <trkpt lat="45.98519" lon="4.81779">
        <ele>242.699996948</ele>
        <time>2015-07-03T09:23:24.397Z</time>
      </trkpt>
      <trkpt lat="45.98525" lon="4.81788">
        <ele>242.600006104</ele>
        <time>2015-07-03T09:23:25.406Z</time>
      </trkpt>
      <trkpt lat="45.98532" lon="4.81797">
        <ele>242.399993896</ele>
        <time>2015-07-03T09:23:26.431Z</time>
      </trkpt>
      <trkpt lat="45.98539" lon="4.81804">
        <ele>242</ele>
        <time>2015-07-03T09:23:27.471Z</time>
      </trkpt>
      <trkpt lat="45.98545" lon="4.81806">
        <ele>242</ele>
        <time>2015-07-03T09:23:28.391Z</time>
      </trkpt>
      <trkpt lat="45.98552" lon="4.81808">
        <ele>241.899993896</ele>
        <time>2015-07-03T09:23:29.388Z</time>
      </trkpt>
      <trkpt lat="45.98558" lon="4.81806">
        <ele>241.800003052</ele>
        <time>2015-07-03T09:23:30.39Z</time>
      </trkpt>
      <trkpt lat="45.98564" lon="4.81799">
        <ele>241.899993896</ele>
        <time>2015-07-03T09:23:31.426Z</time>
      </trkpt>
      <trkpt lat="45.98569" lon="4.81792">
        <ele>241.899993896</ele>
        <time>2015-07-03T09:23:32.388Z</time>
      </trkpt>
      <trkpt lat="45.98574" lon="4.81786">
        <ele>241.800003052</ele>
        <time>2015-07-03T09:23:33.438Z</time>
      </trkpt>
      <trkpt lat="45.98579" lon="4.8178">
        <ele>241.800003052</ele>
        <time>2015-07-03T09:23:34.389Z</time>
      </trkpt>
      <trkpt lat="45.98584" lon="4.81774">
        <ele>241.699996948</ele>
        <time>2015-07-03T09:23:35.406Z</time>
      </trkpt>
      <trkpt lat="45.98589" lon="4.81769">
        <ele>241.600006104</ele>
        <time>2015-07-03T09:23:36.39Z</time>
      </trkpt>
      <trkpt lat="45.98596" lon="4.81763">
        <ele>241.300003052</ele>
        <time>2015-07-03T09:23:38.388Z</time>
      </trkpt>
      <trkpt lat="45.98599" lon="4.81761">
        <ele>241</ele>
        <time>2015-07-03T09:23:39.382Z</time>
      </trkpt>
      <trkpt lat="45.98607" lon="4.81758">
        <ele>240.800003052</ele>
        <time>2015-07-03T09:23:41.393Z</time>
      </trkpt>
      <trkpt lat="45.9861" lon="4.8176">
        <ele>240.899993896</ele>
        <time>2015-07-03T09:23:42.391Z</time>
      </trkpt>
      <trkpt lat="45.98615" lon="4.81759">
        <ele>240.800003052</ele>
        <time>2015-07-03T09:23:43.391Z</time>
      </trkpt>
      <trkpt lat="45.9862" lon="4.81759">
        <ele>240.800003052</ele>
        <time>2015-07-03T09:23:44.391Z</time>
      </trkpt>
      <trkpt lat="45.98628" lon="4.81759">
        <ele>241</ele>
        <time>2015-07-03T09:23:46.389Z</time>
      </trkpt>
      <trkpt lat="45.98633" lon="4.81758">
        <ele>241.100006104</ele>
        <time>2015-07-03T09:23:47.387Z</time>
      </trkpt>
      <trkpt lat="45.98637" lon="4.81756">
        <ele>241.199996948</ele>
        <time>2015-07-03T09:23:48.414Z</time>
      </trkpt>
      <trkpt lat="45.98642" lon="4.81755">
        <ele>241.300003052</ele>
        <time>2015-07-03T09:23:49.387Z</time>
      </trkpt>
      <trkpt lat="45.98647" lon="4.81754">
        <ele>241.5</ele>
        <time>2015-07-03T09:23:50.388Z</time>
      </trkpt>
      <trkpt lat="45.98653" lon="4.81753">
        <ele>241.600006104</ele>
        <time>2015-07-03T09:23:51.404Z</time>
      </trkpt>
      <trkpt lat="45.98658" lon="4.81751">
        <ele>241.800003052</ele>
        <time>2015-07-03T09:23:52.388Z</time>
      </trkpt>
      <trkpt lat="45.98663" lon="4.8175">
        <ele>242.399993896</ele>
        <time>2015-07-03T09:23:53.387Z</time>
      </trkpt>
      <trkpt lat="45.98669" lon="4.81749">
        <ele>242.800003052</ele>
        <time>2015-07-03T09:23:54.39Z</time>
      </trkpt>
      <trkpt lat="45.98673" lon="4.81748">
        <ele>243.300003052</ele>
        <time>2015-07-03T09:23:55.388Z</time>
      </trkpt>
      <trkpt lat="45.98678" lon="4.81747">
        <ele>243.399993896</ele>
        <time>2015-07-03T09:23:56.388Z</time>
      </trkpt>
      <trkpt lat="45.98684" lon="4.81745">
        <ele>243.600006104</ele>
        <time>2015-07-03T09:23:57.388Z</time>
      </trkpt>
      <trkpt lat="45.98689" lon="4.81743">
        <ele>244.100006104</ele>
        <time>2015-07-03T09:23:58.392Z</time>
      </trkpt>
      <trkpt lat="45.98695" lon="4.81741">
        <ele>244.199996948</ele>
        <time>2015-07-03T09:23:59.389Z</time>
      </trkpt>
      <trkpt lat="45.987" lon="4.81741">
        <ele>245</ele>
        <time>2015-07-03T09:24:00.405Z</time>
      </trkpt>
      <trkpt lat="45.98705" lon="4.81739">
        <ele>245.600006104</ele>
        <time>2015-07-03T09:24:01.389Z</time>
      </trkpt>
      <trkpt lat="45.9871" lon="4.81738">
        <ele>246.100006104</ele>
        <time>2015-07-03T09:24:02.39Z</time>
      </trkpt>
      <trkpt lat="45.98716" lon="4.81739">
        <ele>246.600006104</ele>
        <time>2015-07-03T09:24:03.388Z</time>
      </trkpt>
      <trkpt lat="45.98721" lon="4.8174">
        <ele>247</ele>
        <time>2015-07-03T09:24:04.388Z</time>
      </trkpt>
      <trkpt lat="45.98726" lon="4.81743">
        <ele>247.100006104</ele>
        <time>2015-07-03T09:24:05.388Z</time>
      </trkpt>
      <trkpt lat="45.9873" lon="4.81746">
        <ele>247.100006104</ele>
        <time>2015-07-03T09:24:06.406Z</time>
      </trkpt>
      <trkpt lat="45.98733" lon="4.81751">
        <ele>247.399993896</ele>
        <time>2015-07-03T09:24:07.402Z</time>
      </trkpt>
      <trkpt lat="45.98735" lon="4.81757">
        <ele>247.300003052</ele>
        <time>2015-07-03T09:24:08.394Z</time>
      </trkpt>
      <trkpt lat="45.98738" lon="4.81764">
        <ele>247.300003052</ele>
        <time>2015-07-03T09:24:09.395Z</time>
      </trkpt>
      <trkpt lat="45.98742" lon="4.81771">
        <ele>247.899993896</ele>
        <time>2015-07-03T09:24:10.395Z</time>
      </trkpt>
      <trkpt lat="45.98744" lon="4.81778">
        <ele>248.5</ele>
        <time>2015-07-03T09:24:11.395Z</time>
      </trkpt>
      <trkpt lat="45.98748" lon="4.81784">
        <ele>248.699996948</ele>
        <time>2015-07-03T09:24:12.428Z</time>
      </trkpt>
      <trkpt lat="45.98752" lon="4.8179">
        <ele>248.899993896</ele>
        <time>2015-07-03T09:24:13.39Z</time>
      </trkpt>
      <trkpt lat="45.98755" lon="4.81797">
        <ele>249.199996948</ele>
        <time>2015-07-03T09:24:14.394Z</time>
      </trkpt>
      <trkpt lat="45.98758" lon="4.81804">
        <ele>249.399993896</ele>
        <time>2015-07-03T09:24:15.394Z</time>
      </trkpt>
      <trkpt lat="45.98761" lon="4.81811">
        <ele>249.600006104</ele>
        <time>2015-07-03T09:24:16.497Z</time>
      </trkpt>
      <trkpt lat="45.98764" lon="4.81819">
        <ele>249.800003052</ele>
        <time>2015-07-03T09:24:17.393Z</time>
      </trkpt>
      <trkpt lat="45.98768" lon="4.81826">
        <ele>249.899993896</ele>
        <time>2015-07-03T09:24:18.395Z</time>
      </trkpt>
      <trkpt lat="45.98771" lon="4.81834">
        <ele>250</ele>
        <time>2015-07-03T09:24:19.394Z</time>
      </trkpt>
      <trkpt lat="45.98776" lon="4.81841">
        <ele>250.100006104</ele>
        <time>2015-07-03T09:24:20.393Z</time>
      </trkpt>
      <trkpt lat="45.98779" lon="4.81849">
        <ele>250.199996948</ele>
        <time>2015-07-03T09:24:21.392Z</time>
      </trkpt>
      <trkpt lat="45.98782" lon="4.81857">
        <ele>250.300003052</ele>
        <time>2015-07-03T09:24:22.393Z</time>
      </trkpt>
      <trkpt lat="45.98786" lon="4.81864">
        <ele>250.5</ele>
        <time>2015-07-03T09:24:23.408Z</time>
      </trkpt>
      <trkpt lat="45.98788" lon="4.81873">
        <ele>250.800003052</ele>
        <time>2015-07-03T09:24:24.39Z</time>
      </trkpt>
      <trkpt lat="45.98791" lon="4.81883">
        <ele>251</ele>
        <time>2015-07-03T09:24:25.392Z</time>
      </trkpt>
      <trkpt lat="45.98793" lon="4.81892">
        <ele>251.100006104</ele>
        <time>2015-07-03T09:24:26.393Z</time>
      </trkpt>
      <trkpt lat="45.98795" lon="4.81902">
        <ele>251.399993896</ele>
        <time>2015-07-03T09:24:27.397Z</time>
      </trkpt>
      <trkpt lat="45.98797" lon="4.81912">
        <ele>251.600006104</ele>
        <time>2015-07-03T09:24:28.392Z</time>
      </trkpt>
      <trkpt lat="45.98799" lon="4.81921">
        <ele>251.600006104</ele>
        <time>2015-07-03T09:24:29.392Z</time>
      </trkpt>
      <trkpt lat="45.988" lon="4.8193">
        <ele>251.5</ele>
        <time>2015-07-03T09:24:30.421Z</time>
      </trkpt>
      <trkpt lat="45.98802" lon="4.81938">
        <ele>251.399993896</ele>
        <time>2015-07-03T09:24:31.392Z</time>
      </trkpt>
      <trkpt lat="45.98804" lon="4.81946">
        <ele>250.800003052</ele>
        <time>2015-07-03T09:24:32.388Z</time>
      </trkpt>
      <trkpt lat="45.98806" lon="4.81954">
        <ele>250.5</ele>
        <time>2015-07-03T09:24:33.394Z</time>
      </trkpt>
      <trkpt lat="45.98807" lon="4.81962">
        <ele>250.399993896</ele>
        <time>2015-07-03T09:24:34.391Z</time>
      </trkpt>
      <trkpt lat="45.98807" lon="4.81968">
        <ele>249.600006104</ele>
        <time>2015-07-03T09:24:35.389Z</time>
      </trkpt>
      <trkpt lat="45.98809" lon="4.81976">
        <ele>249.300003052</ele>
        <time>2015-07-03T09:24:36.395Z</time>
      </trkpt>
      <trkpt lat="45.9881" lon="4.81984">
        <ele>248.800003052</ele>
        <time>2015-07-03T09:24:37.382Z</time>
      </trkpt>
      <trkpt lat="45.98812" lon="4.81993">
        <ele>248.600006104</ele>
        <time>2015-07-03T09:24:38.405Z</time>
      </trkpt>
      <trkpt lat="45.98813" lon="4.82002">
        <ele>248.399993896</ele>
        <time>2015-07-03T09:24:39.406Z</time>
      </trkpt>
      <trkpt lat="45.98815" lon="4.82011">
        <ele>248.399993896</ele>
        <time>2015-07-03T09:24:40.961Z</time>
      </trkpt>
      <trkpt lat="45.98817" lon="4.82021">
        <ele>247.800003052</ele>
        <time>2015-07-03T09:24:41.436Z</time>
      </trkpt>
      <trkpt lat="45.98818" lon="4.8203">
        <ele>247.899993896</ele>
        <time>2015-07-03T09:24:42.501Z</time>
      </trkpt>
      <trkpt lat="45.9882" lon="4.82039">
        <ele>247.600006104</ele>
        <time>2015-07-03T09:24:43.392Z</time>
      </trkpt>
      <trkpt lat="45.98822" lon="4.82049">
        <ele>247</ele>
        <time>2015-07-03T09:24:44.39Z</time>
      </trkpt>
      <trkpt lat="45.98824" lon="4.82059">
        <ele>246.5</ele>
        <time>2015-07-03T09:24:45.388Z</time>
      </trkpt>
      <trkpt lat="45.98826" lon="4.82068">
        <ele>246.300003052</ele>
        <time>2015-07-03T09:24:46.388Z</time>
      </trkpt>
      <trkpt lat="45.98828" lon="4.82078">
        <ele>246.199996948</ele>
        <time>2015-07-03T09:24:47.388Z</time>
      </trkpt>
      <trkpt lat="45.9883" lon="4.82086">
        <ele>245.600006104</ele>
        <time>2015-07-03T09:24:48.431Z</time>
      </trkpt>
      <trkpt lat="45.98831" lon="4.82096">
        <ele>245.600006104</ele>
        <time>2015-07-03T09:24:49.388Z</time>
      </trkpt>
      <trkpt lat="45.98833" lon="4.82104">
        <ele>245.5</ele>
        <time>2015-07-03T09:24:50.406Z</time>
      </trkpt>
      <trkpt lat="45.98834" lon="4.82113">
        <ele>245.100006104</ele>
        <time>2015-07-03T09:24:51.389Z</time>
      </trkpt>
      <trkpt lat="45.98836" lon="4.82122">
        <ele>244.100006104</ele>
        <time>2015-07-03T09:24:52.388Z</time>
      </trkpt>
      <trkpt lat="45.98837" lon="4.82131">
        <ele>243.899993896</ele>
        <time>2015-07-03T09:24:53.388Z</time>
      </trkpt>
      <trkpt lat="45.98839" lon="4.8214">
        <ele>243.899993896</ele>
        <time>2015-07-03T09:24:54.391Z</time>
      </trkpt>
      <trkpt lat="45.98842" lon="4.82148">
        <ele>243.800003052</ele>
        <time>2015-07-03T09:24:55.407Z</time>
      </trkpt>
      <trkpt lat="45.98844" lon="4.82156">
        <ele>244.100006104</ele>
        <time>2015-07-03T09:24:56.389Z</time>
      </trkpt>
      <trkpt lat="45.98846" lon="4.82164">
        <ele>244.100006104</ele>
        <time>2015-07-03T09:24:57.388Z</time>
      </trkpt>
      <trkpt lat="45.98849" lon="4.82173">
        <ele>244</ele>
        <time>2015-07-03T09:24:58.388Z</time>
      </trkpt>
      <trkpt lat="45.98852" lon="4.82182">
        <ele>243.899993896</ele>
        <time>2015-07-03T09:24:59.426Z</time>
      </trkpt>
      <trkpt lat="45.98855" lon="4.8219">
        <ele>243.899993896</ele>
        <time>2015-07-03T09:25:00.429Z</time>
      </trkpt>
      <trkpt lat="45.98858" lon="4.82198">
        <ele>243.699996948</ele>
        <time>2015-07-03T09:25:01.389Z</time>
      </trkpt>
      <trkpt lat="45.98862" lon="4.82206">
        <ele>243.399993896</ele>
        <time>2015-07-03T09:25:02.39Z</time>
      </trkpt>
      <trkpt lat="45.98865" lon="4.82214">
        <ele>243.399993896</ele>
        <time>2015-07-03T09:25:03.388Z</time>
      </trkpt>
      <trkpt lat="45.98869" lon="4.82222">
        <ele>243.300003052</ele>
        <time>2015-07-03T09:25:04.391Z</time>
      </trkpt>
      <trkpt lat="45.98872" lon="4.82231">
        <ele>243.100006104</ele>
        <time>2015-07-03T09:25:05.391Z</time>
      </trkpt>
      <trkpt lat="45.98875" lon="4.8224">
        <ele>242.800003052</ele>
        <time>2015-07-03T09:25:06.391Z</time>
      </trkpt>
      <trkpt lat="45.98879" lon="4.82248">
        <ele>242.699996948</ele>
        <time>2015-07-03T09:25:07.388Z</time>
      </trkpt>
      <trkpt lat="45.98883" lon="4.82255">
        <ele>242.5</ele>
        <time>2015-07-03T09:25:08.389Z</time>
      </trkpt>
      <trkpt lat="45.98887" lon="4.82263">
        <ele>242.100006104</ele>
        <time>2015-07-03T09:25:09.388Z</time>
      </trkpt>
      <trkpt lat="45.98891" lon="4.8227">
        <ele>241.899993896</ele>
        <time>2015-07-03T09:25:10.389Z</time>
      </trkpt>
      <trkpt lat="45.98897" lon="4.82276">
        <ele>241.800003052</ele>
        <time>2015-07-03T09:25:11.404Z</time>
      </trkpt>
      <trkpt lat="45.98901" lon="4.82283">
        <ele>242.100006104</ele>
        <time>2015-07-03T09:25:12.39Z</time>
      </trkpt>
      <trkpt lat="45.98906" lon="4.82289">
        <ele>242.199996948</ele>
        <time>2015-07-03T09:25:13.391Z</time>
      </trkpt>
      <trkpt lat="45.9891" lon="4.82295">
        <ele>242.399993896</ele>
        <time>2015-07-03T09:25:14.394Z</time>
      </trkpt>
      <trkpt lat="45.98915" lon="4.82301">
        <ele>242.5</ele>
        <time>2015-07-03T09:25:15.392Z</time>
      </trkpt>
      <trkpt lat="45.9892" lon="4.82307">
        <ele>242.699996948</ele>
        <time>2015-07-03T09:25:16.391Z</time>
      </trkpt>
      <trkpt lat="45.98925" lon="4.82312">
        <ele>242.600006104</ele>
        <time>2015-07-03T09:25:17.391Z</time>
      </trkpt>
      <trkpt lat="45.98929" lon="4.82317">
        <ele>242.600006104</ele>
        <time>2015-07-03T09:25:18.391Z</time>
      </trkpt>
      <trkpt lat="45.98934" lon="4.82323">
        <ele>242.5</ele>
        <time>2015-07-03T09:25:19.392Z</time>
      </trkpt>
      <trkpt lat="45.98938" lon="4.8233">
        <ele>242.300003052</ele>
        <time>2015-07-03T09:25:20.437Z</time>
      </trkpt>
      <trkpt lat="45.98943" lon="4.82337">
        <ele>242.100006104</ele>
        <time>2015-07-03T09:25:21.388Z</time>
      </trkpt>
      <trkpt lat="45.98946" lon="4.82344">
        <ele>242.199996948</ele>
        <time>2015-07-03T09:25:22.466Z</time>
      </trkpt>
      <trkpt lat="45.9895" lon="4.82351">
        <ele>242.100006104</ele>
        <time>2015-07-03T09:25:23.388Z</time>
      </trkpt>
      <trkpt lat="45.98953" lon="4.82359">
        <ele>242.100006104</ele>
        <time>2015-07-03T09:25:24.394Z</time>
      </trkpt>
      <trkpt lat="45.98956" lon="4.82368">
        <ele>242.399993896</ele>
        <time>2015-07-03T09:25:25.394Z</time>
      </trkpt>
      <trkpt lat="45.98959" lon="4.82375">
        <ele>242.600006104</ele>
        <time>2015-07-03T09:25:26.389Z</time>
      </trkpt>
      <trkpt lat="45.98961" lon="4.82384">
        <ele>242.699996948</ele>
        <time>2015-07-03T09:25:27.394Z</time>
      </trkpt>
      <trkpt lat="45.98963" lon="4.82393">
        <ele>242.899993896</ele>
        <time>2015-07-03T09:25:28.389Z</time>
      </trkpt>
      <trkpt lat="45.98965" lon="4.82402">
        <ele>243</ele>
        <time>2015-07-03T09:25:29.391Z</time>
      </trkpt>
      <trkpt lat="45.98968" lon="4.82411">
        <ele>243</ele>
        <time>2015-07-03T09:25:30.434Z</time>
      </trkpt>
      <trkpt lat="45.98971" lon="4.8242">
        <ele>243</ele>
        <time>2015-07-03T09:25:31.436Z</time>
      </trkpt>
      <trkpt lat="45.98973" lon="4.82429">
        <ele>243.199996948</ele>
        <time>2015-07-03T09:25:32.424Z</time>
      </trkpt>
      <trkpt lat="45.98975" lon="4.82438">
        <ele>243.100006104</ele>
        <time>2015-07-03T09:25:33.406Z</time>
      </trkpt>
      <trkpt lat="45.98977" lon="4.82447">
        <ele>243.100006104</ele>
        <time>2015-07-03T09:25:34.391Z</time>
      </trkpt>
      <trkpt lat="45.9898" lon="4.82456">
        <ele>243.100006104</ele>
        <time>2015-07-03T09:25:35.387Z</time>
      </trkpt>
      <trkpt lat="45.98982" lon="4.82466">
        <ele>243.199996948</ele>
        <time>2015-07-03T09:25:36.391Z</time>
      </trkpt>
      <trkpt lat="45.98985" lon="4.82475">
        <ele>243.300003052</ele>
        <time>2015-07-03T09:25:37.391Z</time>
      </trkpt>
      <trkpt lat="45.98988" lon="4.82483">
        <ele>243.399993896</ele>
        <time>2015-07-03T09:25:38.388Z</time>
      </trkpt>
      <trkpt lat="45.9899" lon="4.82492">
        <ele>243.399993896</ele>
        <time>2015-07-03T09:25:39.387Z</time>
      </trkpt>
      <trkpt lat="45.98993" lon="4.82499">
        <ele>243.100006104</ele>
        <time>2015-07-03T09:25:40.387Z</time>
      </trkpt>
      <trkpt lat="45.98996" lon="4.82507">
        <ele>242.800003052</ele>
        <time>2015-07-03T09:25:41.393Z</time>
      </trkpt>
      <trkpt lat="45.99" lon="4.82515">
        <ele>242.5</ele>
        <time>2015-07-03T09:25:42.452Z</time>
      </trkpt>
      <trkpt lat="45.99003" lon="4.82522">
        <ele>242.399993896</ele>
        <time>2015-07-03T09:25:43.388Z</time>
      </trkpt>
      <trkpt lat="45.99007" lon="4.82529">
        <ele>242.100006104</ele>
        <time>2015-07-03T09:25:44.576Z</time>
      </trkpt>
      <trkpt lat="45.99011" lon="4.82536">
        <ele>241.800003052</ele>
        <time>2015-07-03T09:25:45.406Z</time>
      </trkpt>
      <trkpt lat="45.99016" lon="4.82542">
        <ele>241.5</ele>
        <time>2015-07-03T09:25:46.405Z</time>
      </trkpt>
      <trkpt lat="45.99022" lon="4.82548">
        <ele>241.100006104</ele>
        <time>2015-07-03T09:25:47.399Z</time>
      </trkpt>
      <trkpt lat="45.99027" lon="4.82553">
        <ele>240.899993896</ele>
        <time>2015-07-03T09:25:48.567Z</time>
      </trkpt>
      <trkpt lat="45.99033" lon="4.82558">
        <ele>240.5</ele>
        <time>2015-07-03T09:25:49.486Z</time>
      </trkpt>
      <trkpt lat="45.9904" lon="4.82562">
        <ele>240.5</ele>
        <time>2015-07-03T09:25:50.478Z</time>
      </trkpt>
      <trkpt lat="45.99046" lon="4.82565">
        <ele>240.399993896</ele>
        <time>2015-07-03T09:25:51.436Z</time>
      </trkpt>
      <trkpt lat="45.99053" lon="4.82568">
        <ele>240.300003052</ele>
        <time>2015-07-03T09:25:52.497Z</time>
      </trkpt>
      <trkpt lat="45.99059" lon="4.8257">
        <ele>240.199996948</ele>
        <time>2015-07-03T09:25:53.406Z</time>
      </trkpt>
      <trkpt lat="45.99064" lon="4.82572">
        <ele>240.100006104</ele>
        <time>2015-07-03T09:25:54.436Z</time>
      </trkpt>
      <trkpt lat="45.99069" lon="4.82575">
        <ele>239.899993896</ele>
        <time>2015-07-03T09:25:55.406Z</time>
      </trkpt>
      <trkpt lat="45.99076" lon="4.82583">
        <ele>240.300003052</ele>
        <time>2015-07-03T09:25:57.399Z</time>
      </trkpt>
      <trkpt lat="45.99076" lon="4.82588">
        <ele>240.199996948</ele>
        <time>2015-07-03T09:25:58.407Z</time>
      </trkpt>
      <trkpt lat="45.99074" lon="4.82598">
        <ele>240.100006104</ele>
        <time>2015-07-03T09:26:00.416Z</time>
      </trkpt>
      <trkpt lat="45.99072" lon="4.82602">
        <ele>240.300003052</ele>
        <time>2015-07-03T09:26:01.406Z</time>
      </trkpt>
      <trkpt lat="45.99069" lon="4.82612">
        <ele>240.199996948</ele>
        <time>2015-07-03T09:26:03.388Z</time>
      </trkpt>
      <trkpt lat="45.99066" lon="4.82616">
        <ele>240.300003052</ele>
        <time>2015-07-03T09:26:04.391Z</time>
      </trkpt>
      <trkpt lat="45.99061" lon="4.82625">
        <ele>240.399993896</ele>
        <time>2015-07-03T09:26:06.392Z</time>
      </trkpt>
      <trkpt lat="45.99059" lon="4.82629">
        <ele>240.300003052</ele>
        <time>2015-07-03T09:26:07.391Z</time>
      </trkpt>
      <trkpt lat="45.99055" lon="4.82638">
        <ele>240.600006104</ele>
        <time>2015-07-03T09:26:09.397Z</time>
      </trkpt>
      <trkpt lat="45.99053" lon="4.82643">
        <ele>240.899993896</ele>
        <time>2015-07-03T09:26:10.39Z</time>
      </trkpt>
      <trkpt lat="45.99049" lon="4.82652">
        <ele>240.699996948</ele>
        <time>2015-07-03T09:26:12.422Z</time>
      </trkpt>
      <trkpt lat="45.99046" lon="4.82655">
        <ele>241.199996948</ele>
        <time>2015-07-03T09:26:13.389Z</time>
      </trkpt>
      <trkpt lat="45.99042" lon="4.82664">
        <ele>241.300003052</ele>
        <time>2015-07-03T09:26:15.404Z</time>
      </trkpt>
      <trkpt lat="45.9904" lon="4.82668">
        <ele>241.199996948</ele>
        <time>2015-07-03T09:26:16.388Z</time>
      </trkpt>
      <trkpt lat="45.99037" lon="4.82676">
        <ele>241.399993896</ele>
        <time>2015-07-03T09:26:18.391Z</time>
      </trkpt>
      <trkpt lat="45.99034" lon="4.8268">
        <ele>241.300003052</ele>
        <time>2015-07-03T09:26:19.388Z</time>
      </trkpt>
      <trkpt lat="45.99031" lon="4.82689">
        <ele>241.300003052</ele>
        <time>2015-07-03T09:26:21.388Z</time>
      </trkpt>
      <trkpt lat="45.99029" lon="4.82692">
        <ele>241.5</ele>
        <time>2015-07-03T09:26:22.388Z</time>
      </trkpt>
      <trkpt lat="45.99026" lon="4.827">
        <ele>241.300003052</ele>
        <time>2015-07-03T09:26:24.39Z</time>
      </trkpt>
      <trkpt lat="45.99025" lon="4.82704">
        <ele>241.5</ele>
        <time>2015-07-03T09:26:25.414Z</time>
      </trkpt>
      <trkpt lat="45.9902" lon="4.82716">
        <ele>242.300003052</ele>
        <time>2015-07-03T09:26:28.389Z</time>
      </trkpt>
      <trkpt lat="45.99019" lon="4.8272">
        <ele>242.5</ele>
        <time>2015-07-03T09:26:29.408Z</time>
      </trkpt>
      <trkpt lat="45.99017" lon="4.82729">
        <ele>242.399993896</ele>
        <time>2015-07-03T09:26:31.39Z</time>
      </trkpt>
      <trkpt lat="45.99016" lon="4.82732">
        <ele>242.600006104</ele>
        <time>2015-07-03T09:26:32.389Z</time>
      </trkpt>
      <trkpt lat="45.99011" lon="4.82743">
        <ele>243.5</ele>
        <time>2015-07-03T09:26:35.387Z</time>
      </trkpt>
      <trkpt lat="45.9901" lon="4.82746">
        <ele>243.699996948</ele>
        <time>2015-07-03T09:26:36.408Z</time>
      </trkpt>
      <trkpt lat="45.99005" lon="4.82756">
        <ele>244.600006104</ele>
        <time>2015-07-03T09:26:39.391Z</time>
      </trkpt>
      <trkpt lat="45.99004" lon="4.82759">
        <ele>245</ele>
        <time>2015-07-03T09:26:40.388Z</time>
      </trkpt>
      <trkpt lat="45.99" lon="4.82768">
        <ele>245.600006104</ele>
        <time>2015-07-03T09:26:43.397Z</time>
      </trkpt>
      <trkpt lat="45.98998" lon="4.82771">
        <ele>245.600006104</ele>
        <time>2015-07-03T09:26:44.388Z</time>
      </trkpt>
      <trkpt lat="45.98995" lon="4.82781">
        <ele>246</ele>
        <time>2015-07-03T09:26:47.389Z</time>
      </trkpt>
      <trkpt lat="45.98993" lon="4.82784">
        <ele>246.300003052</ele>
        <time>2015-07-03T09:26:48.392Z</time>
      </trkpt>
      <trkpt lat="45.98988" lon="4.82793">
        <ele>246.899993896</ele>
        <time>2015-07-03T09:26:51.381Z</time>
      </trkpt>
      <trkpt lat="45.98987" lon="4.82796">
        <ele>247.100006104</ele>
        <time>2015-07-03T09:26:52.405Z</time>
      </trkpt>
      <trkpt lat="45.98983" lon="4.82805">
        <ele>247</ele>
        <time>2015-07-03T09:26:55.387Z</time>
      </trkpt>
      <trkpt lat="45.98982" lon="4.82808">
        <ele>247.100006104</ele>
        <time>2015-07-03T09:26:56.387Z</time>
      </trkpt>
      <trkpt lat="45.98978" lon="4.82816">
        <ele>247.800003052</ele>
        <time>2015-07-03T09:26:59.39Z</time>
      </trkpt>
      <trkpt lat="45.98977" lon="4.82819">
        <ele>247.899993896</ele>
        <time>2015-07-03T09:27:00.39Z</time>
      </trkpt>
      <trkpt lat="45.98973" lon="4.82828">
        <ele>248.300003052</ele>
        <time>2015-07-03T09:27:03.387Z</time>
      </trkpt>
      <trkpt lat="45.98971" lon="4.8283">
        <ele>248.199996948</ele>
        <time>2015-07-03T09:27:04.387Z</time>
      </trkpt>
      <trkpt lat="45.98967" lon="4.82839">
        <ele>248.600006104</ele>
        <time>2015-07-03T09:27:07.392Z</time>
      </trkpt>
      <trkpt lat="45.98966" lon="4.82841">
        <ele>248.600006104</ele>
        <time>2015-07-03T09:27:08.432Z</time>
      </trkpt>
      <trkpt lat="45.98962" lon="4.8285">
        <ele>248.899993896</ele>
        <time>2015-07-03T09:27:11.389Z</time>
      </trkpt>
      <trkpt lat="45.98961" lon="4.82852">
        <ele>249.100006104</ele>
        <time>2015-07-03T09:27:12.393Z</time>
      </trkpt>
      <trkpt lat="45.98956" lon="4.8286">
        <ele>249.600006104</ele>
        <time>2015-07-03T09:27:15.388Z</time>
      </trkpt>
      <trkpt lat="45.98955" lon="4.82863">
        <ele>249.699996948</ele>
        <time>2015-07-03T09:27:16.413Z</time>
      </trkpt>
      <trkpt lat="45.98952" lon="4.82872">
        <ele>250.100006104</ele>
        <time>2015-07-03T09:27:19.406Z</time>
      </trkpt>
      <trkpt lat="45.98951" lon="4.82875">
        <ele>250.199996948</ele>
        <time>2015-07-03T09:27:20.39Z</time>
      </trkpt>
      <trkpt lat="45.98947" lon="4.82883">
        <ele>251.100006104</ele>
        <time>2015-07-03T09:27:23.39Z</time>
      </trkpt>
      <trkpt lat="45.98946" lon="4.82887">
        <ele>251.100006104</ele>
        <time>2015-07-03T09:27:24.394Z</time>
      </trkpt>
      <trkpt lat="45.98941" lon="4.82898">
        <ele>251.300003052</ele>
        <time>2015-07-03T09:27:28.388Z</time>
      </trkpt>
      <trkpt lat="45.98939" lon="4.829">
        <ele>251.100006104</ele>
        <time>2015-07-03T09:27:29.408Z</time>
      </trkpt>
      <trkpt lat="45.98936" lon="4.82908">
        <ele>251.899993896</ele>
        <time>2015-07-03T09:27:32.391Z</time>
      </trkpt>
      <trkpt lat="45.98935" lon="4.82911">
        <ele>252.100006104</ele>
        <time>2015-07-03T09:27:33.389Z</time>
      </trkpt>
      <trkpt lat="45.98931" lon="4.82922">
        <ele>252.300003052</ele>
        <time>2015-07-03T09:27:37.398Z</time>
      </trkpt>
      <trkpt lat="45.9893" lon="4.82925">
        <ele>252.199996948</ele>
        <time>2015-07-03T09:27:38.436Z</time>
      </trkpt>
      <trkpt lat="45.98927" lon="4.82934">
        <ele>252.300003052</ele>
        <time>2015-07-03T09:27:41.388Z</time>
      </trkpt>
      <trkpt lat="45.98926" lon="4.82937">
        <ele>252.5</ele>
        <time>2015-07-03T09:27:42.39Z</time>
      </trkpt>
      <trkpt lat="45.98922" lon="4.82948">
        <ele>252.300003052</ele>
        <time>2015-07-03T09:27:46.39Z</time>
      </trkpt>
      <trkpt lat="45.9892" lon="4.8295">
        <ele>252.399993896</ele>
        <time>2015-07-03T09:27:47.387Z</time>
      </trkpt>
      <trkpt lat="45.98917" lon="4.82961">
        <ele>252.600006104</ele>
        <time>2015-07-03T09:27:51.405Z</time>
      </trkpt>
      <trkpt lat="45.98915" lon="4.82963">
        <ele>252.699996948</ele>
        <time>2015-07-03T09:27:52.391Z</time>
      </trkpt>
      <trkpt lat="45.98909" lon="4.82968">
        <ele>254.199996948</ele>
        <time>2015-07-03T09:27:55.391Z</time>
      </trkpt>
      <trkpt lat="45.98906" lon="4.8297">
        <ele>254.300003052</ele>
        <time>2015-07-03T09:27:56.415Z</time>
      </trkpt>
      <trkpt lat="45.98901" lon="4.82976">
        <ele>255.399993896</ele>
        <time>2015-07-03T09:27:59.424Z</time>
      </trkpt>
      <trkpt lat="45.98899" lon="4.82978">
        <ele>255.600006104</ele>
        <time>2015-07-03T09:28:00.391Z</time>
      </trkpt>
      <trkpt lat="45.98891" lon="4.82983">
        <ele>256.5</ele>
        <time>2015-07-03T09:28:04.393Z</time>
      </trkpt>
      <trkpt lat="45.98889" lon="4.82985">
        <ele>256.700012207</ele>
        <time>2015-07-03T09:28:05.387Z</time>
      </trkpt>
      <trkpt lat="45.98882" lon="4.82993">
        <ele>257</ele>
        <time>2015-07-03T09:28:09.387Z</time>
      </trkpt>
      <trkpt lat="45.9888" lon="4.82994">
        <ele>257.299987793</ele>
        <time>2015-07-03T09:28:10.388Z</time>
      </trkpt>
      <trkpt lat="45.98873" lon="4.82999">
        <ele>257.899993896</ele>
        <time>2015-07-03T09:28:13.39Z</time>
      </trkpt>
      <trkpt lat="45.98871" lon="4.83">
        <ele>258.100006104</ele>
        <time>2015-07-03T09:28:14.391Z</time>
      </trkpt>
      <trkpt lat="45.98863" lon="4.83004">
        <ele>261.100006104</ele>
        <time>2015-07-03T09:28:18.391Z</time>
      </trkpt>
      <trkpt lat="45.98861" lon="4.83005">
        <ele>261.399993896</ele>
        <time>2015-07-03T09:28:19.388Z</time>
      </trkpt>
      <trkpt lat="45.98854" lon="4.83009">
        <ele>263.299987793</ele>
        <time>2015-07-03T09:28:23.403Z</time>
      </trkpt>
      <trkpt lat="45.98851" lon="4.8301">
        <ele>263.799987793</ele>
        <time>2015-07-03T09:28:24.398Z</time>
      </trkpt>
      <trkpt lat="45.98843" lon="4.83016">
        <ele>265.600006104</ele>
        <time>2015-07-03T09:28:28.407Z</time>
      </trkpt>
      <trkpt lat="45.9884" lon="4.83017">
        <ele>266</ele>
        <time>2015-07-03T09:28:29.451Z</time>
      </trkpt>
      <trkpt lat="45.98833" lon="4.8302">
        <ele>266.5</ele>
        <time>2015-07-03T09:28:32.406Z</time>
      </trkpt>
      <trkpt lat="45.9883" lon="4.83022">
        <ele>266.600006104</ele>
        <time>2015-07-03T09:28:33.427Z</time>
      </trkpt>
      <trkpt lat="45.98825" lon="4.83027">
        <ele>266.600006104</ele>
        <time>2015-07-03T09:28:35.416Z</time>
      </trkpt>
      <trkpt lat="45.98822" lon="4.83029">
        <ele>266.5</ele>
        <time>2015-07-03T09:28:36.414Z</time>
      </trkpt>
      <trkpt lat="45.98814" lon="4.83035">
        <ele>266.600006104</ele>
        <time>2015-07-03T09:28:39.452Z</time>
      </trkpt>
      <trkpt lat="45.98812" lon="4.83037">
        <ele>266.899993896</ele>
        <time>2015-07-03T09:28:40.407Z</time>
      </trkpt>
      <trkpt lat="45.98804" lon="4.83043">
        <ele>267.5</ele>
        <time>2015-07-03T09:28:43.41Z</time>
      </trkpt>
      <trkpt lat="45.98801" lon="4.83045">
        <ele>267.700012207</ele>
        <time>2015-07-03T09:28:44.391Z</time>
      </trkpt>
      <trkpt lat="45.98795" lon="4.83049">
        <ele>267.600006104</ele>
        <time>2015-07-03T09:28:46.416Z</time>
      </trkpt>
      <trkpt lat="45.98793" lon="4.83051">
        <ele>267.799987793</ele>
        <time>2015-07-03T09:28:47.391Z</time>
      </trkpt>
      <trkpt lat="45.98786" lon="4.8306">
        <ele>267.299987793</ele>
        <time>2015-07-03T09:28:50.39Z</time>
      </trkpt>
      <trkpt lat="45.98783" lon="4.83062">
        <ele>267.100006104</ele>
        <time>2015-07-03T09:28:51.387Z</time>
      </trkpt>
      <trkpt lat="45.98777" lon="4.83065">
        <ele>266.600006104</ele>
        <time>2015-07-03T09:28:53.392Z</time>
      </trkpt>
      <trkpt lat="45.98775" lon="4.83067">
        <ele>266.5</ele>
        <time>2015-07-03T09:28:54.39Z</time>
      </trkpt>
      <trkpt lat="45.9877" lon="4.83073">
        <ele>266.600006104</ele>
        <time>2015-07-03T09:28:56.391Z</time>
      </trkpt>
      <trkpt lat="45.98768" lon="4.83075">
        <ele>266.399993896</ele>
        <time>2015-07-03T09:28:57.387Z</time>
      </trkpt>
      <trkpt lat="45.98762" lon="4.83081">
        <ele>266.600006104</ele>
        <time>2015-07-03T09:28:59.405Z</time>
      </trkpt>
      <trkpt lat="45.98759" lon="4.83082">
        <ele>266.299987793</ele>
        <time>2015-07-03T09:29:00.39Z</time>
      </trkpt>
      <trkpt lat="45.98754" lon="4.83088">
        <ele>266.299987793</ele>
        <time>2015-07-03T09:29:02.389Z</time>
      </trkpt>
      <trkpt lat="45.98751" lon="4.83091">
        <ele>266.299987793</ele>
        <time>2015-07-03T09:29:03.466Z</time>
      </trkpt>
      <trkpt lat="45.98746" lon="4.83096">
        <ele>266</ele>
        <time>2015-07-03T09:29:05.382Z</time>
      </trkpt>
      <trkpt lat="45.98743" lon="4.83099">
        <ele>265.899993896</ele>
        <time>2015-07-03T09:29:06.39Z</time>
      </trkpt>
      <trkpt lat="45.98738" lon="4.83104">
        <ele>265.799987793</ele>
        <time>2015-07-03T09:29:08.391Z</time>
      </trkpt>
      <trkpt lat="45.98735" lon="4.83107">
        <ele>265.700012207</ele>
        <time>2015-07-03T09:29:09.388Z</time>
      </trkpt>
      <trkpt lat="45.98729" lon="4.83113">
        <ele>265.700012207</ele>
        <time>2015-07-03T09:29:11.396Z</time>
      </trkpt>
      <trkpt lat="45.98726" lon="4.83115">
        <ele>265.600006104</ele>
        <time>2015-07-03T09:29:12.395Z</time>
      </trkpt>
      <trkpt lat="45.98721" lon="4.83119">
        <ele>265.700012207</ele>
        <time>2015-07-03T09:29:14.388Z</time>
      </trkpt>
      <trkpt lat="45.98717" lon="4.8312">
        <ele>265.399993896</ele>
        <time>2015-07-03T09:29:15.391Z</time>
      </trkpt>
      <trkpt lat="45.98712" lon="4.83126">
        <ele>265.299987793</ele>
        <time>2015-07-03T09:29:17.391Z</time>
      </trkpt>
      <trkpt lat="45.98709" lon="4.83128">
        <ele>265.399993896</ele>
        <time>2015-07-03T09:29:18.394Z</time>
      </trkpt>
      <trkpt lat="45.98703" lon="4.83133">
        <ele>265.700012207</ele>
        <time>2015-07-03T09:29:20.391Z</time>
      </trkpt>
      <trkpt lat="45.98699" lon="4.83135">
        <ele>266</ele>
        <time>2015-07-03T09:29:21.387Z</time>
      </trkpt>
      <trkpt lat="45.98694" lon="4.8314">
        <ele>266.200012207</ele>
        <time>2015-07-03T09:29:23.39Z</time>
      </trkpt>
      <trkpt lat="45.98692" lon="4.83142">
        <ele>266.200012207</ele>
        <time>2015-07-03T09:29:24.406Z</time>
      </trkpt>
      <trkpt lat="45.98686" lon="4.83147">
        <ele>266.600006104</ele>
        <time>2015-07-03T09:29:26.403Z</time>
      </trkpt>
      <trkpt lat="45.98683" lon="4.83149">
        <ele>266.399993896</ele>
        <time>2015-07-03T09:29:27.394Z</time>
      </trkpt>
      <trkpt lat="45.98676" lon="4.83156">
        <ele>266.200012207</ele>
        <time>2015-07-03T09:29:29.395Z</time>
      </trkpt>
      <trkpt lat="45.98673" lon="4.83158">
        <ele>266.200012207</ele>
        <time>2015-07-03T09:29:30.396Z</time>
      </trkpt>
      <trkpt lat="45.98666" lon="4.83165">
        <ele>266.200012207</ele>
        <time>2015-07-03T09:29:32.393Z</time>
      </trkpt>
      <trkpt lat="45.98663" lon="4.83168">
        <ele>266</ele>
        <time>2015-07-03T09:29:33.395Z</time>
      </trkpt>
      <trkpt lat="45.98655" lon="4.83174">
        <ele>266.200012207</ele>
        <time>2015-07-03T09:29:35.39Z</time>
      </trkpt>
      <trkpt lat="45.98651" lon="4.83177">
        <ele>266.100006104</ele>
        <time>2015-07-03T09:29:36.438Z</time>
      </trkpt>
      <trkpt lat="45.98644" lon="4.83184">
        <ele>266.399993896</ele>
        <time>2015-07-03T09:29:38.391Z</time>
      </trkpt>
      <trkpt lat="45.98641" lon="4.83187">
        <ele>266.299987793</ele>
        <time>2015-07-03T09:29:39.392Z</time>
      </trkpt>
      <trkpt lat="45.98634" lon="4.83194">
        <ele>266.299987793</ele>
        <time>2015-07-03T09:29:41.405Z</time>
      </trkpt>
      <trkpt lat="45.9863" lon="4.83198">
        <ele>265.899993896</ele>
        <time>2015-07-03T09:29:42.395Z</time>
      </trkpt>
      <trkpt lat="45.98624" lon="4.83206">
        <ele>265.600006104</ele>
        <time>2015-07-03T09:29:44.381Z</time>
      </trkpt>
      <trkpt lat="45.98621" lon="4.83209">
        <ele>265.399993896</ele>
        <time>2015-07-03T09:29:45.393Z</time>
      </trkpt>
      <trkpt lat="45.98614" lon="4.83217">
        <ele>265.700012207</ele>
        <time>2015-07-03T09:29:47.39Z</time>
      </trkpt>
      <trkpt lat="45.98611" lon="4.83222">
        <ele>265.700012207</ele>
        <time>2015-07-03T09:29:48.396Z</time>
      </trkpt>
      <trkpt lat="45.98605" lon="4.83229">
        <ele>265.5</ele>
        <time>2015-07-03T09:29:50.387Z</time>
      </trkpt>
      <trkpt lat="45.98602" lon="4.83233">
        <ele>265.600006104</ele>
        <time>2015-07-03T09:29:51.386Z</time>
      </trkpt>
      <trkpt lat="45.98597" lon="4.8324">
        <ele>265.799987793</ele>
        <time>2015-07-03T09:29:53.387Z</time>
      </trkpt>
      <trkpt lat="45.98594" lon="4.83244">
        <ele>265.700012207</ele>
        <time>2015-07-03T09:29:54.391Z</time>
      </trkpt>
      <trkpt lat="45.98587" lon="4.83253">
        <ele>266.5</ele>
        <time>2015-07-03T09:29:56.387Z</time>
      </trkpt>
      <trkpt lat="45.98584" lon="4.83256">
        <ele>266.600006104</ele>
        <time>2015-07-03T09:29:57.403Z</time>
      </trkpt>
      <trkpt lat="45.98578" lon="4.83265">
        <ele>266.899993896</ele>
        <time>2015-07-03T09:29:59.395Z</time>
      </trkpt>
      <trkpt lat="45.98574" lon="4.83269">
        <ele>267.100006104</ele>
        <time>2015-07-03T09:30:00.39Z</time>
      </trkpt>
      <trkpt lat="45.98569" lon="4.83277">
        <ele>266.899993896</ele>
        <time>2015-07-03T09:30:02.387Z</time>
      </trkpt>
      <trkpt lat="45.98566" lon="4.8328">
        <ele>266.700012207</ele>
        <time>2015-07-03T09:30:03.448Z</time>
      </trkpt>
      <trkpt lat="45.98561" lon="4.83288">
        <ele>266.200012207</ele>
        <time>2015-07-03T09:30:05.386Z</time>
      </trkpt>
      <trkpt lat="45.98559" lon="4.83291">
        <ele>266.299987793</ele>
        <time>2015-07-03T09:30:06.39Z</time>
      </trkpt>
      <trkpt lat="45.98553" lon="4.83298">
        <ele>266.200012207</ele>
        <time>2015-07-03T09:30:08.387Z</time>
      </trkpt>
      <trkpt lat="45.9855" lon="4.83301">
        <ele>266.399993896</ele>
        <time>2015-07-03T09:30:09.387Z</time>
      </trkpt>
      <trkpt lat="45.98544" lon="4.83309">
        <ele>266.200012207</ele>
        <time>2015-07-03T09:30:11.392Z</time>
      </trkpt>
      <trkpt lat="45.98541" lon="4.83313">
        <ele>266.799987793</ele>
        <time>2015-07-03T09:30:12.39Z</time>
      </trkpt>
      <trkpt lat="45.98535" lon="4.83322">
        <ele>267.100006104</ele>
        <time>2015-07-03T09:30:14.386Z</time>
      </trkpt>
      <trkpt lat="45.98532" lon="4.83325">
        <ele>267.200012207</ele>
        <time>2015-07-03T09:30:15.39Z</time>
      </trkpt>
      <trkpt lat="45.98525" lon="4.83333">
        <ele>267.799987793</ele>
        <time>2015-07-03T09:30:17.386Z</time>
      </trkpt>
      <trkpt lat="45.98522" lon="4.83338">
        <ele>267.899993896</ele>
        <time>2015-07-03T09:30:18.39Z</time>
      </trkpt>
      <trkpt lat="45.98519" lon="4.83343">
        <ele>267.799987793</ele>
        <time>2015-07-03T09:30:19.386Z</time>
      </trkpt>
      <trkpt lat="45.98516" lon="4.83348">
        <ele>267.700012207</ele>
        <time>2015-07-03T09:30:20.391Z</time>
      </trkpt>
      <trkpt lat="45.98513" lon="4.83352">
        <ele>267.700012207</ele>
        <time>2015-07-03T09:30:21.386Z</time>
      </trkpt>
      <trkpt lat="45.9851" lon="4.83357">
        <ele>267.799987793</ele>
        <time>2015-07-03T09:30:22.387Z</time>
      </trkpt>
      <trkpt lat="45.98504" lon="4.83365">
        <ele>268</ele>
        <time>2015-07-03T09:30:24.406Z</time>
      </trkpt>
      <trkpt lat="45.985" lon="4.83369">
        <ele>268.100006104</ele>
        <time>2015-07-03T09:30:25.386Z</time>
      </trkpt>
      <trkpt lat="45.98493" lon="4.83378">
        <ele>268</ele>
        <time>2015-07-03T09:30:27.389Z</time>
      </trkpt>
      <trkpt lat="45.9849" lon="4.83382">
        <ele>268.299987793</ele>
        <time>2015-07-03T09:30:28.386Z</time>
      </trkpt>
      <trkpt lat="45.98484" lon="4.83391">
        <ele>268.899993896</ele>
        <time>2015-07-03T09:30:30.417Z</time>
      </trkpt>
      <trkpt lat="45.98481" lon="4.83395">
        <ele>268.799987793</ele>
        <time>2015-07-03T09:30:31.39Z</time>
      </trkpt>
      <trkpt lat="45.98475" lon="4.83403">
        <ele>269.100006104</ele>
        <time>2015-07-03T09:30:33.413Z</time>
      </trkpt>
      <trkpt lat="45.98472" lon="4.83408">
        <ele>268.899993896</ele>
        <time>2015-07-03T09:30:34.387Z</time>
      </trkpt>
      <trkpt lat="45.98467" lon="4.83415">
        <ele>269.200012207</ele>
        <time>2015-07-03T09:30:36.393Z</time>
      </trkpt>
      <trkpt lat="45.98464" lon="4.83419">
        <ele>269.200012207</ele>
        <time>2015-07-03T09:30:37.393Z</time>
      </trkpt>
      <trkpt lat="45.9846" lon="4.83423">
        <ele>269.100006104</ele>
        <time>2015-07-03T09:30:38.387Z</time>
      </trkpt>
      <trkpt lat="45.98457" lon="4.83428">
        <ele>269.200012207</ele>
        <time>2015-07-03T09:30:39.386Z</time>
      </trkpt>
      <trkpt lat="45.98454" lon="4.83432">
        <ele>269.100006104</ele>
        <time>2015-07-03T09:30:40.39Z</time>
      </trkpt>
      <trkpt lat="45.9845" lon="4.83437">
        <ele>269.100006104</ele>
        <time>2015-07-03T09:30:41.436Z</time>
      </trkpt>
      <trkpt lat="45.98446" lon="4.83442">
        <ele>269.200012207</ele>
        <time>2015-07-03T09:30:42.384Z</time>
      </trkpt>
      <trkpt lat="45.98442" lon="4.83447">
        <ele>269.299987793</ele>
        <time>2015-07-03T09:30:43.39Z</time>
      </trkpt>
      <trkpt lat="45.98439" lon="4.83451">
        <ele>269.399993896</ele>
        <time>2015-07-03T09:30:44.388Z</time>
      </trkpt>
      <trkpt lat="45.98435" lon="4.83456">
        <ele>269.399993896</ele>
        <time>2015-07-03T09:30:45.403Z</time>
      </trkpt>
      <trkpt lat="45.98431" lon="4.8346">
        <ele>269.299987793</ele>
        <time>2015-07-03T09:30:46.387Z</time>
      </trkpt>
      <trkpt lat="45.98427" lon="4.83465">
        <ele>269.5</ele>
        <time>2015-07-03T09:30:47.387Z</time>
      </trkpt>
      <trkpt lat="45.98424" lon="4.83471">
        <ele>269.600006104</ele>
        <time>2015-07-03T09:30:48.39Z</time>
      </trkpt>
      <trkpt lat="45.9842" lon="4.83477">
        <ele>269.799987793</ele>
        <time>2015-07-03T09:30:49.387Z</time>
      </trkpt>
      <trkpt lat="45.98416" lon="4.83481">
        <ele>270</ele>
        <time>2015-07-03T09:30:50.391Z</time>
      </trkpt>
      <trkpt lat="45.98412" lon="4.83486">
        <ele>270.100006104</ele>
        <time>2015-07-03T09:30:51.386Z</time>
      </trkpt>
      <trkpt lat="45.98409" lon="4.83491">
        <ele>270.299987793</ele>
        <time>2015-07-03T09:30:52.387Z</time>
      </trkpt>
      <trkpt lat="45.98406" lon="4.83496">
        <ele>270.299987793</ele>
        <time>2015-07-03T09:30:53.386Z</time>
      </trkpt>
      <trkpt lat="45.98402" lon="4.83501">
        <ele>270.399993896</ele>
        <time>2015-07-03T09:30:54.39Z</time>
      </trkpt>
      <trkpt lat="45.98399" lon="4.83506">
        <ele>270.5</ele>
        <time>2015-07-03T09:30:55.387Z</time>
      </trkpt>
      <trkpt lat="45.98395" lon="4.83511">
        <ele>270.700012207</ele>
        <time>2015-07-03T09:30:56.39Z</time>
      </trkpt>
      <trkpt lat="45.98391" lon="4.83516">
        <ele>271.200012207</ele>
        <time>2015-07-03T09:30:57.408Z</time>
      </trkpt>
      <trkpt lat="45.98388" lon="4.8352">
        <ele>271.299987793</ele>
        <time>2015-07-03T09:30:58.387Z</time>
      </trkpt>
      <trkpt lat="45.98384" lon="4.83525">
        <ele>271.600006104</ele>
        <time>2015-07-03T09:30:59.388Z</time>
      </trkpt>
      <trkpt lat="45.98381" lon="4.8353">
        <ele>271.700012207</ele>
        <time>2015-07-03T09:31:00.39Z</time>
      </trkpt>
      <trkpt lat="45.98377" lon="4.83535">
        <ele>271.5</ele>
        <time>2015-07-03T09:31:01.4Z</time>
      </trkpt>
      <trkpt lat="45.98373" lon="4.83537">
        <ele>272.200012207</ele>
        <time>2015-07-03T09:31:02.405Z</time>
      </trkpt>
      <trkpt lat="45.98369" lon="4.83542">
        <ele>272.299987793</ele>
        <time>2015-07-03T09:31:03.392Z</time>
      </trkpt>
      <trkpt lat="45.98366" lon="4.83547">
        <ele>272.399993896</ele>
        <time>2015-07-03T09:31:04.386Z</time>
      </trkpt>
      <trkpt lat="45.98362" lon="4.83552">
        <ele>272.5</ele>
        <time>2015-07-03T09:31:05.386Z</time>
      </trkpt>
      <trkpt lat="45.98358" lon="4.83556">
        <ele>272.799987793</ele>
        <time>2015-07-03T09:31:06.389Z</time>
      </trkpt>
      <trkpt lat="45.98355" lon="4.83561">
        <ele>272.799987793</ele>
        <time>2015-07-03T09:31:07.396Z</time>
      </trkpt>
      <trkpt lat="45.98351" lon="4.83566">
        <ele>272.799987793</ele>
        <time>2015-07-03T09:31:08.387Z</time>
      </trkpt>
      <trkpt lat="45.98347" lon="4.83571">
        <ele>272.899993896</ele>
        <time>2015-07-03T09:31:09.386Z</time>
      </trkpt>
      <trkpt lat="45.98344" lon="4.83576">
        <ele>273</ele>
        <time>2015-07-03T09:31:10.386Z</time>
      </trkpt>
      <trkpt lat="45.9834" lon="4.83581">
        <ele>273.299987793</ele>
        <time>2015-07-03T09:31:11.386Z</time>
      </trkpt>
      <trkpt lat="45.98337" lon="4.83586">
        <ele>273.299987793</ele>
        <time>2015-07-03T09:31:12.406Z</time>
      </trkpt>
      <trkpt lat="45.98334" lon="4.83591">
        <ele>273.299987793</ele>
        <time>2015-07-03T09:31:13.387Z</time>
      </trkpt>
      <trkpt lat="45.9833" lon="4.83596">
        <ele>273.5</ele>
        <time>2015-07-03T09:31:14.387Z</time>
      </trkpt>
      <trkpt lat="45.98327" lon="4.83601">
        <ele>273.600006104</ele>
        <time>2015-07-03T09:31:15.388Z</time>
      </trkpt>
      <trkpt lat="45.98323" lon="4.83606">
        <ele>273.799987793</ele>
        <time>2015-07-03T09:31:16.386Z</time>
      </trkpt>
      <trkpt lat="45.98319" lon="4.8361">
        <ele>273.700012207</ele>
        <time>2015-07-03T09:31:17.386Z</time>
      </trkpt>
      <trkpt lat="45.98316" lon="4.83616">
        <ele>273.5</ele>
        <time>2015-07-03T09:31:18.393Z</time>
      </trkpt>
      <trkpt lat="45.98313" lon="4.83622">
        <ele>273.200012207</ele>
        <time>2015-07-03T09:31:19.389Z</time>
      </trkpt>
      <trkpt lat="45.98308" lon="4.83633">
        <ele>273.399993896</ele>
        <time>2015-07-03T09:31:21.398Z</time>
      </trkpt>
      <trkpt lat="45.98305" lon="4.83638">
        <ele>273.299987793</ele>
        <time>2015-07-03T09:31:22.393Z</time>
      </trkpt>
      <trkpt lat="45.98303" lon="4.83643">
        <ele>273.799987793</ele>
        <time>2015-07-03T09:31:23.458Z</time>
      </trkpt>
      <trkpt lat="45.983" lon="4.83649">
        <ele>273.899993896</ele>
        <time>2015-07-03T09:31:24.424Z</time>
      </trkpt>
      <trkpt lat="45.98298" lon="4.83655">
        <ele>273.799987793</ele>
        <time>2015-07-03T09:31:25.497Z</time>
      </trkpt>
      <trkpt lat="45.98295" lon="4.83661">
        <ele>273.799987793</ele>
        <time>2015-07-03T09:31:26.416Z</time>
      </trkpt>
      <trkpt lat="45.98293" lon="4.83667">
        <ele>273.600006104</ele>
        <time>2015-07-03T09:31:27.404Z</time>
      </trkpt>
      <trkpt lat="45.98291" lon="4.83673">
        <ele>273.299987793</ele>
        <time>2015-07-03T09:31:28.404Z</time>
      </trkpt>
      <trkpt lat="45.98288" lon="4.83679">
        <ele>273.299987793</ele>
        <time>2015-07-03T09:31:29.507Z</time>
      </trkpt>
      <trkpt lat="45.98286" lon="4.83686">
        <ele>273.299987793</ele>
        <time>2015-07-03T09:31:30.406Z</time>
      </trkpt>
      <trkpt lat="45.98284" lon="4.83693">
        <ele>273.200012207</ele>
        <time>2015-07-03T09:31:31.476Z</time>
      </trkpt>
      <trkpt lat="45.98281" lon="4.83698">
        <ele>273.100006104</ele>
        <time>2015-07-03T09:31:32.426Z</time>
      </trkpt>
      <trkpt lat="45.98278" lon="4.83704">
        <ele>272.799987793</ele>
        <time>2015-07-03T09:31:33.416Z</time>
      </trkpt>
      <trkpt lat="45.98276" lon="4.8371">
        <ele>272.700012207</ele>
        <time>2015-07-03T09:31:34.406Z</time>
      </trkpt>
      <trkpt lat="45.98274" lon="4.83717">
        <ele>272.399993896</ele>
        <time>2015-07-03T09:31:35.406Z</time>
      </trkpt>
      <trkpt lat="45.98272" lon="4.83723">
        <ele>272.399993896</ele>
        <time>2015-07-03T09:31:36.406Z</time>
      </trkpt>
      <trkpt lat="45.9827" lon="4.83729">
        <ele>272.299987793</ele>
        <time>2015-07-03T09:31:37.406Z</time>
      </trkpt>
      <trkpt lat="45.98268" lon="4.83735">
        <ele>272.299987793</ele>
        <time>2015-07-03T09:31:38.506Z</time>
      </trkpt>
      <trkpt lat="45.98266" lon="4.83741">
        <ele>272.299987793</ele>
        <time>2015-07-03T09:31:39.466Z</time>
      </trkpt>
      <trkpt lat="45.98264" lon="4.83747">
        <ele>272.200012207</ele>
        <time>2015-07-03T09:31:40.391Z</time>
      </trkpt>
      <trkpt lat="45.98262" lon="4.83754">
        <ele>272.200012207</ele>
        <time>2015-07-03T09:31:41.427Z</time>
      </trkpt>
      <trkpt lat="45.9826" lon="4.8376">
        <ele>272.200012207</ele>
        <time>2015-07-03T09:31:42.402Z</time>
      </trkpt>
      <trkpt lat="45.98258" lon="4.83767">
        <ele>272.200012207</ele>
        <time>2015-07-03T09:31:43.438Z</time>
      </trkpt>
      <trkpt lat="45.98255" lon="4.83773">
        <ele>272.299987793</ele>
        <time>2015-07-03T09:31:44.476Z</time>
      </trkpt>
      <trkpt lat="45.98252" lon="4.8378">
        <ele>272</ele>
        <time>2015-07-03T09:31:45.396Z</time>
      </trkpt>
      <trkpt lat="45.9825" lon="4.83788">
        <ele>271.899993896</ele>
        <time>2015-07-03T09:31:46.416Z</time>
      </trkpt>
      <trkpt lat="45.98248" lon="4.83794">
        <ele>272</ele>
        <time>2015-07-03T09:31:47.516Z</time>
      </trkpt>
      <trkpt lat="45.98246" lon="4.83803">
        <ele>271.299987793</ele>
        <time>2015-07-03T09:31:48.416Z</time>
      </trkpt>
      <trkpt lat="45.98245" lon="4.83811">
        <ele>270.899993896</ele>
        <time>2015-07-03T09:31:49.456Z</time>
      </trkpt>
      <trkpt lat="45.98243" lon="4.83818">
        <ele>270.700012207</ele>
        <time>2015-07-03T09:31:50.396Z</time>
      </trkpt>
      <trkpt lat="45.9824" lon="4.83826">
        <ele>270.600006104</ele>
        <time>2015-07-03T09:31:51.441Z</time>
      </trkpt>
      <trkpt lat="45.98237" lon="4.83833">
        <ele>270.399993896</ele>
        <time>2015-07-03T09:31:52.393Z</time>
      </trkpt>
      <trkpt lat="45.98234" lon="4.83839">
        <ele>270.200012207</ele>
        <time>2015-07-03T09:31:53.406Z</time>
      </trkpt>
      <trkpt lat="45.98232" lon="4.83846">
        <ele>270.200012207</ele>
        <time>2015-07-03T09:31:54.41Z</time>
      </trkpt>
      <trkpt lat="45.98229" lon="4.83853">
        <ele>270</ele>
        <time>2015-07-03T09:31:55.431Z</time>
      </trkpt>
      <trkpt lat="45.98226" lon="4.83858">
        <ele>269.799987793</ele>
        <time>2015-07-03T09:31:56.391Z</time>
      </trkpt>
      <trkpt lat="45.98224" lon="4.83865">
        <ele>269.700012207</ele>
        <time>2015-07-03T09:31:57.396Z</time>
      </trkpt>
      <trkpt lat="45.98221" lon="4.83871">
        <ele>269.5</ele>
        <time>2015-07-03T09:31:58.392Z</time>
      </trkpt>
      <trkpt lat="45.98219" lon="4.83878">
        <ele>269.5</ele>
        <time>2015-07-03T09:31:59.446Z</time>
      </trkpt>
      <trkpt lat="45.98216" lon="4.83885">
        <ele>269.5</ele>
        <time>2015-07-03T09:32:00.393Z</time>
      </trkpt>
      <trkpt lat="45.98214" lon="4.83892">
        <ele>269.600006104</ele>
        <time>2015-07-03T09:32:01.436Z</time>
      </trkpt>
      <trkpt lat="45.98212" lon="4.83899">
        <ele>269.5</ele>
        <time>2015-07-03T09:32:02.388Z</time>
      </trkpt>
      <trkpt lat="45.98209" lon="4.83906">
        <ele>269.5</ele>
        <time>2015-07-03T09:32:03.416Z</time>
      </trkpt>
      <trkpt lat="45.98207" lon="4.83913">
        <ele>269.399993896</ele>
        <time>2015-07-03T09:32:04.407Z</time>
      </trkpt>
      <trkpt lat="45.98205" lon="4.8392">
        <ele>269.5</ele>
        <time>2015-07-03T09:32:05.48Z</time>
      </trkpt>
      <trkpt lat="45.98202" lon="4.83927">
        <ele>269.200012207</ele>
        <time>2015-07-03T09:32:06.4Z</time>
      </trkpt>
      <trkpt lat="45.982" lon="4.83934">
        <ele>269.600006104</ele>
        <time>2015-07-03T09:32:07.391Z</time>
      </trkpt>
      <trkpt lat="45.98197" lon="4.83942">
        <ele>269.600006104</ele>
        <time>2015-07-03T09:32:08.392Z</time>
      </trkpt>
      <trkpt lat="45.98194" lon="4.83949">
        <ele>269.399993896</ele>
        <time>2015-07-03T09:32:09.406Z</time>
      </trkpt>
      <trkpt lat="45.98192" lon="4.83957">
        <ele>269.200012207</ele>
        <time>2015-07-03T09:32:10.39Z</time>
      </trkpt>
      <trkpt lat="45.98188" lon="4.83964">
        <ele>269</ele>
        <time>2015-07-03T09:32:11.416Z</time>
      </trkpt>
      <trkpt lat="45.98185" lon="4.83971">
        <ele>269</ele>
        <time>2015-07-03T09:32:12.393Z</time>
      </trkpt>
      <trkpt lat="45.98183" lon="4.83979">
        <ele>268.899993896</ele>
        <time>2015-07-03T09:32:13.394Z</time>
      </trkpt>
      <trkpt lat="45.9818" lon="4.83987">
        <ele>268.899993896</ele>
        <time>2015-07-03T09:32:14.387Z</time>
      </trkpt>
      <trkpt lat="45.98178" lon="4.83994">
        <ele>269</ele>
        <time>2015-07-03T09:32:15.441Z</time>
      </trkpt>
      <trkpt lat="45.98175" lon="4.84">
        <ele>269.200012207</ele>
        <time>2015-07-03T09:32:16.39Z</time>
      </trkpt>
      <trkpt lat="45.98172" lon="4.84007">
        <ele>269.100006104</ele>
        <time>2015-07-03T09:32:17.485Z</time>
      </trkpt>
      <trkpt lat="45.98169" lon="4.84013">
        <ele>268.899993896</ele>
        <time>2015-07-03T09:32:18.393Z</time>
      </trkpt>
      <trkpt lat="45.98166" lon="4.84019">
        <ele>269</ele>
        <time>2015-07-03T09:32:19.391Z</time>
      </trkpt>
      <trkpt lat="45.98164" lon="4.84025">
        <ele>268.899993896</ele>
        <time>2015-07-03T09:32:20.387Z</time>
      </trkpt>
      <trkpt lat="45.9816" lon="4.8403">
        <ele>269.299987793</ele>
        <time>2015-07-03T09:32:21.386Z</time>
      </trkpt>
      <trkpt lat="45.98157" lon="4.84036">
        <ele>269.600006104</ele>
        <time>2015-07-03T09:32:22.387Z</time>
      </trkpt>
      <trkpt lat="45.98154" lon="4.84042">
        <ele>269.700012207</ele>
        <time>2015-07-03T09:32:23.387Z</time>
      </trkpt>
      <trkpt lat="45.9815" lon="4.84048">
        <ele>270</ele>
        <time>2015-07-03T09:32:24.392Z</time>
      </trkpt>
      <trkpt lat="45.98147" lon="4.84054">
        <ele>270.200012207</ele>
        <time>2015-07-03T09:32:25.386Z</time>
      </trkpt>
      <trkpt lat="45.98143" lon="4.84059">
        <ele>270.399993896</ele>
        <time>2015-07-03T09:32:26.387Z</time>
      </trkpt>
      <trkpt lat="45.98139" lon="4.84064">
        <ele>270.799987793</ele>
        <time>2015-07-03T09:32:27.392Z</time>
      </trkpt>
      <trkpt lat="45.98136" lon="4.8407">
        <ele>270.799987793</ele>
        <time>2015-07-03T09:32:28.386Z</time>
      </trkpt>
      <trkpt lat="45.98131" lon="4.84075">
        <ele>271</ele>
        <time>2015-07-03T09:32:29.386Z</time>
      </trkpt>
      <trkpt lat="45.98127" lon="4.8408">
        <ele>271.299987793</ele>
        <time>2015-07-03T09:32:30.389Z</time>
      </trkpt>
      <trkpt lat="45.98123" lon="4.84085">
        <ele>271.299987793</ele>
        <time>2015-07-03T09:32:31.405Z</time>
      </trkpt>
      <trkpt lat="45.98119" lon="4.84089">
        <ele>271.600006104</ele>
        <time>2015-07-03T09:32:32.446Z</time>
      </trkpt>
      <trkpt lat="45.98114" lon="4.84093">
        <ele>271.799987793</ele>
        <time>2015-07-03T09:32:33.4Z</time>
      </trkpt>
      <trkpt lat="45.98109" lon="4.84097">
        <ele>271.899993896</ele>
        <time>2015-07-03T09:32:34.387Z</time>
      </trkpt>
      <trkpt lat="45.98105" lon="4.84101">
        <ele>272</ele>
        <time>2015-07-03T09:32:35.386Z</time>
      </trkpt>
      <trkpt lat="45.981" lon="4.84106">
        <ele>271.899993896</ele>
        <time>2015-07-03T09:32:36.39Z</time>
      </trkpt>
      <trkpt lat="45.98096" lon="4.8411">
        <ele>271.899993896</ele>
        <time>2015-07-03T09:32:37.381Z</time>
      </trkpt>
      <trkpt lat="45.98092" lon="4.84114">
        <ele>272.100006104</ele>
        <time>2015-07-03T09:32:38.387Z</time>
      </trkpt>
      <trkpt lat="45.98087" lon="4.84118">
        <ele>272.399993896</ele>
        <time>2015-07-03T09:32:39.386Z</time>
      </trkpt>
      <trkpt lat="45.98083" lon="4.84122">
        <ele>272.5</ele>
        <time>2015-07-03T09:32:40.389Z</time>
      </trkpt>
      <trkpt lat="45.98077" lon="4.84125">
        <ele>272.399993896</ele>
        <time>2015-07-03T09:32:41.42Z</time>
      </trkpt>
      <trkpt lat="45.98073" lon="4.84128">
        <ele>272.399993896</ele>
        <time>2015-07-03T09:32:42.389Z</time>
      </trkpt>
      <trkpt lat="45.98068" lon="4.84133">
        <ele>272.700012207</ele>
        <time>2015-07-03T09:32:43.387Z</time>
      </trkpt>
      <trkpt lat="45.98064" lon="4.84138">
        <ele>272.600006104</ele>
        <time>2015-07-03T09:32:44.456Z</time>
      </trkpt>
      <trkpt lat="45.98059" lon="4.84143">
        <ele>272.600006104</ele>
        <time>2015-07-03T09:32:45.387Z</time>
      </trkpt>
      <trkpt lat="45.98055" lon="4.84148">
        <ele>272.5</ele>
        <time>2015-07-03T09:32:46.387Z</time>
      </trkpt>
      <trkpt lat="45.9805" lon="4.84152">
        <ele>272.399993896</ele>
        <time>2015-07-03T09:32:47.386Z</time>
      </trkpt>
      <trkpt lat="45.98045" lon="4.84156">
        <ele>272.399993896</ele>
        <time>2015-07-03T09:32:48.389Z</time>
      </trkpt>
      <trkpt lat="45.98041" lon="4.8416">
        <ele>272.600006104</ele>
        <time>2015-07-03T09:32:49.386Z</time>
      </trkpt>
      <trkpt lat="45.98036" lon="4.84165">
        <ele>272.600006104</ele>
        <time>2015-07-03T09:32:50.388Z</time>
      </trkpt>
      <trkpt lat="45.98031" lon="4.84169">
        <ele>272.700012207</ele>
        <time>2015-07-03T09:32:51.387Z</time>
      </trkpt>
      <trkpt lat="45.98027" lon="4.84173">
        <ele>272.799987793</ele>
        <time>2015-07-03T09:32:52.402Z</time>
      </trkpt>
      <trkpt lat="45.98023" lon="4.84178">
        <ele>272.899993896</ele>
        <time>2015-07-03T09:32:53.386Z</time>
      </trkpt>
      <trkpt lat="45.98019" lon="4.84182">
        <ele>273</ele>
        <time>2015-07-03T09:32:54.389Z</time>
      </trkpt>
      <trkpt lat="45.98015" lon="4.84186">
        <ele>273.200012207</ele>
        <time>2015-07-03T09:32:55.389Z</time>
      </trkpt>
      <trkpt lat="45.98011" lon="4.84189">
        <ele>273.200012207</ele>
        <time>2015-07-03T09:32:56.388Z</time>
      </trkpt>
      <trkpt lat="45.98007" lon="4.84192">
        <ele>273.299987793</ele>
        <time>2015-07-03T09:32:57.425Z</time>
      </trkpt>
      <trkpt lat="45.98003" lon="4.84196">
        <ele>273.200012207</ele>
        <time>2015-07-03T09:32:58.387Z</time>
      </trkpt>
      <trkpt lat="45.97999" lon="4.842">
        <ele>273.5</ele>
        <time>2015-07-03T09:32:59.387Z</time>
      </trkpt>
      <trkpt lat="45.97995" lon="4.84205">
        <ele>273.299987793</ele>
        <time>2015-07-03T09:33:00.394Z</time>
      </trkpt>
      <trkpt lat="45.9799" lon="4.84209">
        <ele>273.200012207</ele>
        <time>2015-07-03T09:33:01.403Z</time>
      </trkpt>
      <trkpt lat="45.97986" lon="4.84213">
        <ele>273.200012207</ele>
        <time>2015-07-03T09:33:02.387Z</time>
      </trkpt>
      <trkpt lat="45.97981" lon="4.84217">
        <ele>273.100006104</ele>
        <time>2015-07-03T09:33:03.386Z</time>
      </trkpt>
      <trkpt lat="45.97977" lon="4.84221">
        <ele>273.299987793</ele>
        <time>2015-07-03T09:33:04.386Z</time>
      </trkpt>
      <trkpt lat="45.97972" lon="4.84226">
        <ele>273.299987793</ele>
        <time>2015-07-03T09:33:05.386Z</time>
      </trkpt>
      <trkpt lat="45.97968" lon="4.8423">
        <ele>273.5</ele>
        <time>2015-07-03T09:33:06.389Z</time>
      </trkpt>
      <trkpt lat="45.97963" lon="4.84234">
        <ele>273.600006104</ele>
        <time>2015-07-03T09:33:07.386Z</time>
      </trkpt>
      <trkpt lat="45.97959" lon="4.84239">
        <ele>273.899993896</ele>
        <time>2015-07-03T09:33:08.436Z</time>
      </trkpt>
      <trkpt lat="45.97954" lon="4.84243">
        <ele>273.799987793</ele>
        <time>2015-07-03T09:33:09.405Z</time>
      </trkpt>
      <trkpt lat="45.9795" lon="4.84248">
        <ele>274</ele>
        <time>2015-07-03T09:33:10.386Z</time>
      </trkpt>
      <trkpt lat="45.97946" lon="4.84253">
        <ele>273.899993896</ele>
        <time>2015-07-03T09:33:11.386Z</time>
      </trkpt>
      <trkpt lat="45.97942" lon="4.84257">
        <ele>273.399993896</ele>
        <time>2015-07-03T09:33:12.389Z</time>
      </trkpt>
      <trkpt lat="45.97938" lon="4.84261">
        <ele>273.399993896</ele>
        <time>2015-07-03T09:33:13.386Z</time>
      </trkpt>
      <trkpt lat="45.97934" lon="4.84265">
        <ele>273.5</ele>
        <time>2015-07-03T09:33:14.387Z</time>
      </trkpt>
      <trkpt lat="45.97928" lon="4.84274">
        <ele>273.799987793</ele>
        <time>2015-07-03T09:33:16.429Z</time>
      </trkpt>
      <trkpt lat="45.97926" lon="4.8428">
        <ele>273.899993896</ele>
        <time>2015-07-03T09:33:17.386Z</time>
      </trkpt>
      <trkpt lat="45.97925" lon="4.84286">
        <ele>274.100006104</ele>
        <time>2015-07-03T09:33:18.393Z</time>
      </trkpt>
      <trkpt lat="45.97925" lon="4.84293">
        <ele>274.200012207</ele>
        <time>2015-07-03T09:33:19.403Z</time>
      </trkpt>
      <trkpt lat="45.97926" lon="4.84305">
        <ele>274.100006104</ele>
        <time>2015-07-03T09:33:21.387Z</time>
      </trkpt>
      <trkpt lat="45.97927" lon="4.84312">
        <ele>274</ele>
        <time>2015-07-03T09:33:22.387Z</time>
      </trkpt>
      <trkpt lat="45.97928" lon="4.84319">
        <ele>274.100006104</ele>
        <time>2015-07-03T09:33:23.391Z</time>
      </trkpt>
      <trkpt lat="45.97929" lon="4.84325">
        <ele>274.399993896</ele>
        <time>2015-07-03T09:33:24.394Z</time>
      </trkpt>
      <trkpt lat="45.97931" lon="4.84333">
        <ele>274.299987793</ele>
        <time>2015-07-03T09:33:25.397Z</time>
      </trkpt>
      <trkpt lat="45.97932" lon="4.8434">
        <ele>274.700012207</ele>
        <time>2015-07-03T09:33:26.393Z</time>
      </trkpt>
      <trkpt lat="45.97932" lon="4.84347">
        <ele>274.799987793</ele>
        <time>2015-07-03T09:33:27.442Z</time>
      </trkpt>
      <trkpt lat="45.97934" lon="4.84355">
        <ele>274.799987793</ele>
        <time>2015-07-03T09:33:28.386Z</time>
      </trkpt>
      <trkpt lat="45.97936" lon="4.84364">
        <ele>274.700012207</ele>
        <time>2015-07-03T09:33:29.386Z</time>
      </trkpt>
      <trkpt lat="45.97937" lon="4.84372">
        <ele>274.5</ele>
        <time>2015-07-03T09:33:30.389Z</time>
      </trkpt>
      <trkpt lat="45.97938" lon="4.8438">
        <ele>274.600006104</ele>
        <time>2015-07-03T09:33:31.436Z</time>
      </trkpt>
      <trkpt lat="45.9794" lon="4.84388">
        <ele>274.700012207</ele>
        <time>2015-07-03T09:33:32.386Z</time>
      </trkpt>
      <trkpt lat="45.97941" lon="4.84395">
        <ele>274.5</ele>
        <time>2015-07-03T09:33:33.386Z</time>
      </trkpt>
      <trkpt lat="45.97942" lon="4.84403">
        <ele>274.399993896</ele>
        <time>2015-07-03T09:33:34.387Z</time>
      </trkpt>
      <trkpt lat="45.97943" lon="4.84411">
        <ele>274.299987793</ele>
        <time>2015-07-03T09:33:35.395Z</time>
      </trkpt>
      <trkpt lat="45.97944" lon="4.84418">
        <ele>274.100006104</ele>
        <time>2015-07-03T09:33:36.393Z</time>
      </trkpt>
      <trkpt lat="45.97945" lon="4.84426">
        <ele>273.899993896</ele>
        <time>2015-07-03T09:33:37.4Z</time>
      </trkpt>
      <trkpt lat="45.97946" lon="4.84434">
        <ele>273.600006104</ele>
        <time>2015-07-03T09:33:38.387Z</time>
      </trkpt>
      <trkpt lat="45.97947" lon="4.84442">
        <ele>273.5</ele>
        <time>2015-07-03T09:33:39.386Z</time>
      </trkpt>
      <trkpt lat="45.97948" lon="4.8445">
        <ele>273.5</ele>
        <time>2015-07-03T09:33:40.387Z</time>
      </trkpt>
      <trkpt lat="45.9795" lon="4.84458">
        <ele>273.600006104</ele>
        <time>2015-07-03T09:33:41.388Z</time>
      </trkpt>
      <trkpt lat="45.9795" lon="4.84466">
        <ele>273.700012207</ele>
        <time>2015-07-03T09:33:42.391Z</time>
      </trkpt>
      <trkpt lat="45.97952" lon="4.84473">
        <ele>273.799987793</ele>
        <time>2015-07-03T09:33:43.416Z</time>
      </trkpt>
      <trkpt lat="45.97953" lon="4.84481">
        <ele>273.899993896</ele>
        <time>2015-07-03T09:33:44.388Z</time>
      </trkpt>
      <trkpt lat="45.97955" lon="4.84489">
        <ele>274.100006104</ele>
        <time>2015-07-03T09:33:45.388Z</time>
      </trkpt>
      <trkpt lat="45.97956" lon="4.84498">
        <ele>274.100006104</ele>
        <time>2015-07-03T09:33:46.386Z</time>
      </trkpt>
      <trkpt lat="45.97957" lon="4.84506">
        <ele>274</ele>
        <time>2015-07-03T09:33:47.386Z</time>
      </trkpt>
      <trkpt lat="45.97959" lon="4.84514">
        <ele>274</ele>
        <time>2015-07-03T09:33:48.389Z</time>
      </trkpt>
      <trkpt lat="45.9796" lon="4.84522">
        <ele>274</ele>
        <time>2015-07-03T09:33:49.389Z</time>
      </trkpt>
      <trkpt lat="45.97962" lon="4.84531">
        <ele>274.100006104</ele>
        <time>2015-07-03T09:33:50.388Z</time>
      </trkpt>
      <trkpt lat="45.97963" lon="4.84539">
        <ele>274.200012207</ele>
        <time>2015-07-03T09:33:51.386Z</time>
      </trkpt>
      <trkpt lat="45.97965" lon="4.84549">
        <ele>274.100006104</ele>
        <time>2015-07-03T09:33:52.386Z</time>
      </trkpt>
      <trkpt lat="45.97966" lon="4.84557">
        <ele>274.100006104</ele>
        <time>2015-07-03T09:33:53.386Z</time>
      </trkpt>
      <trkpt lat="45.97968" lon="4.84566">
        <ele>274</ele>
        <time>2015-07-03T09:33:54.389Z</time>
      </trkpt>
      <trkpt lat="45.97969" lon="4.84574">
        <ele>274</ele>
        <time>2015-07-03T09:33:55.388Z</time>
      </trkpt>
      <trkpt lat="45.97971" lon="4.84583">
        <ele>274</ele>
        <time>2015-07-03T09:33:56.405Z</time>
      </trkpt>
      <trkpt lat="45.97972" lon="4.8459">
        <ele>274.799987793</ele>
        <time>2015-07-03T09:33:57.386Z</time>
      </trkpt>
      <trkpt lat="45.97972" lon="4.84598">
        <ele>275.5</ele>
        <time>2015-07-03T09:33:58.387Z</time>
      </trkpt>
      <trkpt lat="45.97973" lon="4.84606">
        <ele>276.200012207</ele>
        <time>2015-07-03T09:33:59.386Z</time>
      </trkpt>
      <trkpt lat="45.97975" lon="4.84614">
        <ele>276.299987793</ele>
        <time>2015-07-03T09:34:00.389Z</time>
      </trkpt>
      <trkpt lat="45.97976" lon="4.84622">
        <ele>276.299987793</ele>
        <time>2015-07-03T09:34:01.388Z</time>
      </trkpt>
      <trkpt lat="45.97977" lon="4.84629">
        <ele>276.600006104</ele>
        <time>2015-07-03T09:34:02.387Z</time>
      </trkpt>
      <trkpt lat="45.97978" lon="4.84637">
        <ele>276.600006104</ele>
        <time>2015-07-03T09:34:03.386Z</time>
      </trkpt>
      <trkpt lat="45.97979" lon="4.84645">
        <ele>276.799987793</ele>
        <time>2015-07-03T09:34:04.389Z</time>
      </trkpt>
      <trkpt lat="45.9798" lon="4.84652">
        <ele>276.899993896</ele>
        <time>2015-07-03T09:34:05.386Z</time>
      </trkpt>
      <trkpt lat="45.97981" lon="4.8466">
        <ele>277.200012207</ele>
        <time>2015-07-03T09:34:06.389Z</time>
      </trkpt>
      <trkpt lat="45.97983" lon="4.84667">
        <ele>277.5</ele>
        <time>2015-07-03T09:34:07.386Z</time>
      </trkpt>
      <trkpt lat="45.97984" lon="4.84675">
        <ele>277.299987793</ele>
        <time>2015-07-03T09:34:08.387Z</time>
      </trkpt>
      <trkpt lat="45.97985" lon="4.84684">
        <ele>277.399993896</ele>
        <time>2015-07-03T09:34:09.387Z</time>
      </trkpt>
      <trkpt lat="45.97986" lon="4.84692">
        <ele>277.399993896</ele>
        <time>2015-07-03T09:34:10.385Z</time>
      </trkpt>
      <trkpt lat="45.97987" lon="4.847">
        <ele>277.799987793</ele>
        <time>2015-07-03T09:34:11.39Z</time>
      </trkpt>
      <trkpt lat="45.97987" lon="4.84708">
        <ele>278.299987793</ele>
        <time>2015-07-03T09:34:12.415Z</time>
      </trkpt>
      <trkpt lat="45.97988" lon="4.84715">
        <ele>278.399993896</ele>
        <time>2015-07-03T09:34:13.385Z</time>
      </trkpt>
      <trkpt lat="45.97988" lon="4.84722">
        <ele>278.700012207</ele>
        <time>2015-07-03T09:34:14.387Z</time>
      </trkpt>
      <trkpt lat="45.97989" lon="4.84729">
        <ele>279.100006104</ele>
        <time>2015-07-03T09:34:15.386Z</time>
      </trkpt>
      <trkpt lat="45.97989" lon="4.84736">
        <ele>279.299987793</ele>
        <time>2015-07-03T09:34:16.387Z</time>
      </trkpt>
      <trkpt lat="45.9799" lon="4.84743">
        <ele>279.600006104</ele>
        <time>2015-07-03T09:34:17.385Z</time>
      </trkpt>
      <trkpt lat="45.9799" lon="4.84749">
        <ele>279.799987793</ele>
        <time>2015-07-03T09:34:18.392Z</time>
      </trkpt>
      <trkpt lat="45.9799" lon="4.84757">
        <ele>279.899993896</ele>
        <time>2015-07-03T09:34:19.423Z</time>
      </trkpt>
      <trkpt lat="45.9799" lon="4.84764">
        <ele>280</ele>
        <time>2015-07-03T09:34:20.387Z</time>
      </trkpt>
      <trkpt lat="45.9799" lon="4.84771">
        <ele>280.5</ele>
        <time>2015-07-03T09:34:21.386Z</time>
      </trkpt>
      <trkpt lat="45.97991" lon="4.84779">
        <ele>280.600006104</ele>
        <time>2015-07-03T09:34:22.388Z</time>
      </trkpt>
      <trkpt lat="45.97992" lon="4.84789">
        <ele>281</ele>
        <time>2015-07-03T09:34:23.385Z</time>
      </trkpt>
      <trkpt lat="45.97993" lon="4.84799">
        <ele>281</ele>
        <time>2015-07-03T09:34:24.392Z</time>
      </trkpt>
      <trkpt lat="45.97994" lon="4.84808">
        <ele>281.100006104</ele>
        <time>2015-07-03T09:34:25.387Z</time>
      </trkpt>
      <trkpt lat="45.97994" lon="4.84816">
        <ele>281.399993896</ele>
        <time>2015-07-03T09:34:26.386Z</time>
      </trkpt>
      <trkpt lat="45.97994" lon="4.84828">
        <ele>281.799987793</ele>
        <time>2015-07-03T09:34:28.403Z</time>
      </trkpt>
      <trkpt lat="45.97994" lon="4.84836">
        <ele>282</ele>
        <time>2015-07-03T09:34:29.387Z</time>
      </trkpt>
      <trkpt lat="45.97995" lon="4.84843">
        <ele>282.200012207</ele>
        <time>2015-07-03T09:34:30.409Z</time>
      </trkpt>
      <trkpt lat="45.97996" lon="4.8485">
        <ele>282.299987793</ele>
        <time>2015-07-03T09:34:31.41Z</time>
      </trkpt>
      <trkpt lat="45.97996" lon="4.84863">
        <ele>282.799987793</ele>
        <time>2015-07-03T09:34:33.383Z</time>
      </trkpt>
      <trkpt lat="45.97996" lon="4.84869">
        <ele>282.899993896</ele>
        <time>2015-07-03T09:34:34.387Z</time>
      </trkpt>
      <trkpt lat="45.97997" lon="4.84876">
        <ele>283.100006104</ele>
        <time>2015-07-03T09:34:35.385Z</time>
      </trkpt>
      <trkpt lat="45.97997" lon="4.84882">
        <ele>283.200012207</ele>
        <time>2015-07-03T09:34:36.389Z</time>
      </trkpt>
      <trkpt lat="45.97998" lon="4.84889">
        <ele>283.399993896</ele>
        <time>2015-07-03T09:34:37.385Z</time>
      </trkpt>
      <trkpt lat="45.97999" lon="4.84897">
        <ele>283.700012207</ele>
        <time>2015-07-03T09:34:38.386Z</time>
      </trkpt>
      <trkpt lat="45.98001" lon="4.84908">
        <ele>282.899993896</ele>
        <time>2015-07-03T09:34:39.386Z</time>
      </trkpt>
      <trkpt lat="45.98002" lon="4.84915">
        <ele>282.899993896</ele>
        <time>2015-07-03T09:34:40.387Z</time>
      </trkpt>
      <trkpt lat="45.98002" lon="4.84923">
        <ele>282.899993896</ele>
        <time>2015-07-03T09:34:41.392Z</time>
      </trkpt>
      <trkpt lat="45.98003" lon="4.84929">
        <ele>283.100006104</ele>
        <time>2015-07-03T09:34:42.39Z</time>
      </trkpt>
      <trkpt lat="45.98004" lon="4.84936">
        <ele>283.299987793</ele>
        <time>2015-07-03T09:34:43.404Z</time>
      </trkpt>
      <trkpt lat="45.98005" lon="4.84944">
        <ele>283.399993896</ele>
        <time>2015-07-03T09:34:44.403Z</time>
      </trkpt>
      <trkpt lat="45.98006" lon="4.84954">
        <ele>283.700012207</ele>
        <time>2015-07-03T09:34:45.385Z</time>
      </trkpt>
      <trkpt lat="45.98007" lon="4.84962">
        <ele>283.600006104</ele>
        <time>2015-07-03T09:34:46.386Z</time>
      </trkpt>
      <trkpt lat="45.98008" lon="4.84972">
        <ele>283.5</ele>
        <time>2015-07-03T09:34:47.385Z</time>
      </trkpt>
      <trkpt lat="45.98009" lon="4.84981">
        <ele>283.299987793</ele>
        <time>2015-07-03T09:34:48.389Z</time>
      </trkpt>
      <trkpt lat="45.98009" lon="4.84991">
        <ele>283.299987793</ele>
        <time>2015-07-03T09:34:49.385Z</time>
      </trkpt>
      <trkpt lat="45.9801" lon="4.84999">
        <ele>283.200012207</ele>
        <time>2015-07-03T09:34:50.386Z</time>
      </trkpt>
      <trkpt lat="45.98011" lon="4.85008">
        <ele>282.899993896</ele>
        <time>2015-07-03T09:34:51.386Z</time>
      </trkpt>
      <trkpt lat="45.98011" lon="4.85017">
        <ele>282.899993896</ele>
        <time>2015-07-03T09:34:52.386Z</time>
      </trkpt>
      <trkpt lat="45.98012" lon="4.85024">
        <ele>282.799987793</ele>
        <time>2015-07-03T09:34:53.386Z</time>
      </trkpt>
      <trkpt lat="45.98012" lon="4.85032">
        <ele>283</ele>
        <time>2015-07-03T09:34:54.389Z</time>
      </trkpt>
      <trkpt lat="45.98013" lon="4.8504">
        <ele>283.200012207</ele>
        <time>2015-07-03T09:34:55.421Z</time>
      </trkpt>
      <trkpt lat="45.98013" lon="4.85047">
        <ele>283.299987793</ele>
        <time>2015-07-03T09:34:56.387Z</time>
      </trkpt>
      <trkpt lat="45.98013" lon="4.85054">
        <ele>283.399993896</ele>
        <time>2015-07-03T09:34:57.385Z</time>
      </trkpt>
      <trkpt lat="45.98013" lon="4.85062">
        <ele>283.399993896</ele>
        <time>2015-07-03T09:34:58.386Z</time>
      </trkpt>
      <trkpt lat="45.98013" lon="4.85068">
        <ele>283.600006104</ele>
        <time>2015-07-03T09:34:59.386Z</time>
      </trkpt>
      <trkpt lat="45.98014" lon="4.85076">
        <ele>283.600006104</ele>
        <time>2015-07-03T09:35:00.389Z</time>
      </trkpt>
      <trkpt lat="45.98014" lon="4.85083">
        <ele>283.600006104</ele>
        <time>2015-07-03T09:35:01.386Z</time>
      </trkpt>
      <trkpt lat="45.98016" lon="4.85091">
        <ele>283.600006104</ele>
        <time>2015-07-03T09:35:02.386Z</time>
      </trkpt>
      <trkpt lat="45.98017" lon="4.85098">
        <ele>283.5</ele>
        <time>2015-07-03T09:35:03.386Z</time>
      </trkpt>
      <trkpt lat="45.98019" lon="4.85105">
        <ele>283.399993896</ele>
        <time>2015-07-03T09:35:04.386Z</time>
      </trkpt>
      <trkpt lat="45.98021" lon="4.85113">
        <ele>283</ele>
        <time>2015-07-03T09:35:05.384Z</time>
      </trkpt>
      <trkpt lat="45.98023" lon="4.85121">
        <ele>282.600006104</ele>
        <time>2015-07-03T09:35:06.426Z</time>
      </trkpt>
      <trkpt lat="45.98026" lon="4.85128">
        <ele>282.100006104</ele>
        <time>2015-07-03T09:35:07.389Z</time>
      </trkpt>
      <trkpt lat="45.98028" lon="4.85136">
        <ele>281.600006104</ele>
        <time>2015-07-03T09:35:08.388Z</time>
      </trkpt>
      <trkpt lat="45.98031" lon="4.85143">
        <ele>281.299987793</ele>
        <time>2015-07-03T09:35:09.387Z</time>
      </trkpt>
      <trkpt lat="45.98033" lon="4.8515">
        <ele>281</ele>
        <time>2015-07-03T09:35:10.401Z</time>
      </trkpt>
      <trkpt lat="45.98035" lon="4.85156">
        <ele>280.799987793</ele>
        <time>2015-07-03T09:35:11.386Z</time>
      </trkpt>
      <trkpt lat="45.98037" lon="4.85163">
        <ele>280.799987793</ele>
        <time>2015-07-03T09:35:12.389Z</time>
      </trkpt>
      <trkpt lat="45.98038" lon="4.8517">
        <ele>280.799987793</ele>
        <time>2015-07-03T09:35:13.386Z</time>
      </trkpt>
      <trkpt lat="45.9804" lon="4.85176">
        <ele>280.799987793</ele>
        <time>2015-07-03T09:35:14.386Z</time>
      </trkpt>
      <trkpt lat="45.98042" lon="4.85183">
        <ele>280.700012207</ele>
        <time>2015-07-03T09:35:15.386Z</time>
      </trkpt>
      <trkpt lat="45.98044" lon="4.85189">
        <ele>280.399993896</ele>
        <time>2015-07-03T09:35:16.384Z</time>
      </trkpt>
      <trkpt lat="45.98048" lon="4.852">
        <ele>280.200012207</ele>
        <time>2015-07-03T09:35:18.394Z</time>
      </trkpt>
      <trkpt lat="45.98049" lon="4.85204">
        <ele>279.799987793</ele>
        <time>2015-07-03T09:35:19.506Z</time>
      </trkpt>
      <trkpt lat="45.98051" lon="4.85209">
        <ele>279.299987793</ele>
        <time>2015-07-03T09:35:21.387Z</time>
      </trkpt>
      <trkpt lat="45.98051" lon="4.8521">
        <ele>278.600006104</ele>
        <time>2015-07-03T09:35:22.386Z</time>
      </trkpt>
      <trkpt lat="45.98051" lon="4.8521">
        <ele>278</ele>
        <time>2015-07-03T09:35:31.382Z</time>
      </trkpt>
      <trkpt lat="45.98051" lon="4.85211">
        <ele>278.100006104</ele>
        <time>2015-07-03T09:35:32.387Z</time>
      </trkpt>
      <trkpt lat="45.98054" lon="4.85222">
        <ele>277.899993896</ele>
        <time>2015-07-03T09:35:36.404Z</time>
      </trkpt>
      <trkpt lat="45.98056" lon="4.85225">
        <ele>277.799987793</ele>
        <time>2015-07-03T09:35:37.387Z</time>
      </trkpt>
      <trkpt lat="45.9806" lon="4.85231">
        <ele>277.799987793</ele>
        <time>2015-07-03T09:35:39.387Z</time>
      </trkpt>
      <trkpt lat="45.98063" lon="4.85235">
        <ele>277.700012207</ele>
        <time>2015-07-03T09:35:40.387Z</time>
      </trkpt>
      <trkpt lat="45.98068" lon="4.85245">
        <ele>277.899993896</ele>
        <time>2015-07-03T09:35:42.387Z</time>
      </trkpt>
      <trkpt lat="45.9807" lon="4.85251">
        <ele>278</ele>
        <time>2015-07-03T09:35:43.407Z</time>
      </trkpt>
      <trkpt lat="45.98072" lon="4.85257">
        <ele>278.200012207</ele>
        <time>2015-07-03T09:35:44.387Z</time>
      </trkpt>
      <trkpt lat="45.98076" lon="4.85263">
        <ele>278.299987793</ele>
        <time>2015-07-03T09:35:45.387Z</time>
      </trkpt>
      <trkpt lat="45.98079" lon="4.85268">
        <ele>278.200012207</ele>
        <time>2015-07-03T09:35:46.386Z</time>
      </trkpt>
      <trkpt lat="45.98083" lon="4.85275">
        <ele>278.200012207</ele>
        <time>2015-07-03T09:35:47.386Z</time>
      </trkpt>
      <trkpt lat="45.98086" lon="4.85281">
        <ele>278.299987793</ele>
        <time>2015-07-03T09:35:48.392Z</time>
      </trkpt>
      <trkpt lat="45.98089" lon="4.85288">
        <ele>278.299987793</ele>
        <time>2015-07-03T09:35:49.385Z</time>
      </trkpt>
      <trkpt lat="45.98092" lon="4.85294">
        <ele>278.399993896</ele>
        <time>2015-07-03T09:35:50.387Z</time>
      </trkpt>
      <trkpt lat="45.98095" lon="4.85301">
        <ele>278.399993896</ele>
        <time>2015-07-03T09:35:51.386Z</time>
      </trkpt>
      <trkpt lat="45.98098" lon="4.85307">
        <ele>278.600006104</ele>
        <time>2015-07-03T09:35:52.4Z</time>
      </trkpt>
      <trkpt lat="45.98101" lon="4.85314">
        <ele>278.899993896</ele>
        <time>2015-07-03T09:35:53.386Z</time>
      </trkpt>
      <trkpt lat="45.98104" lon="4.85319">
        <ele>279.100006104</ele>
        <time>2015-07-03T09:35:54.393Z</time>
      </trkpt>
      <trkpt lat="45.98107" lon="4.85325">
        <ele>279.5</ele>
        <time>2015-07-03T09:35:55.387Z</time>
      </trkpt>
      <trkpt lat="45.9811" lon="4.85332">
        <ele>279.399993896</ele>
        <time>2015-07-03T09:35:56.39Z</time>
      </trkpt>
      <trkpt lat="45.98113" lon="4.85339">
        <ele>279.299987793</ele>
        <time>2015-07-03T09:35:57.386Z</time>
      </trkpt>
      <trkpt lat="45.98116" lon="4.85347">
        <ele>279.100006104</ele>
        <time>2015-07-03T09:35:58.388Z</time>
      </trkpt>
      <trkpt lat="45.98119" lon="4.85354">
        <ele>279.399993896</ele>
        <time>2015-07-03T09:35:59.385Z</time>
      </trkpt>
      <trkpt lat="45.98122" lon="4.85361">
        <ele>279.5</ele>
        <time>2015-07-03T09:36:00.421Z</time>
      </trkpt>
      <trkpt lat="45.98126" lon="4.85368">
        <ele>279.600006104</ele>
        <time>2015-07-03T09:36:01.387Z</time>
      </trkpt>
      <trkpt lat="45.98129" lon="4.85375">
        <ele>279.299987793</ele>
        <time>2015-07-03T09:36:02.387Z</time>
      </trkpt>
      <trkpt lat="45.98132" lon="4.85383">
        <ele>279.100006104</ele>
        <time>2015-07-03T09:36:03.385Z</time>
      </trkpt>
      <trkpt lat="45.98135" lon="4.8539">
        <ele>279</ele>
        <time>2015-07-03T09:36:04.386Z</time>
      </trkpt>
      <trkpt lat="45.98135" lon="4.85399">
        <ele>278.5</ele>
        <time>2015-07-03T09:36:05.388Z</time>
      </trkpt>
      <trkpt lat="45.98138" lon="4.85406">
        <ele>278.299987793</ele>
        <time>2015-07-03T09:36:06.392Z</time>
      </trkpt>
      <trkpt lat="45.9814" lon="4.85413">
        <ele>278.299987793</ele>
        <time>2015-07-03T09:36:07.385Z</time>
      </trkpt>
      <trkpt lat="45.98143" lon="4.85419">
        <ele>278.100006104</ele>
        <time>2015-07-03T09:36:08.39Z</time>
      </trkpt>
      <trkpt lat="45.98146" lon="4.85426">
        <ele>278</ele>
        <time>2015-07-03T09:36:09.387Z</time>
      </trkpt>
      <trkpt lat="45.98149" lon="4.85432">
        <ele>277.5</ele>
        <time>2015-07-03T09:36:10.386Z</time>
      </trkpt>
      <trkpt lat="45.98151" lon="4.85439">
        <ele>277.100006104</ele>
        <time>2015-07-03T09:36:11.388Z</time>
      </trkpt>
      <trkpt lat="45.98154" lon="4.85445">
        <ele>276.700012207</ele>
        <time>2015-07-03T09:36:12.39Z</time>
      </trkpt>
      <trkpt lat="45.98157" lon="4.85452">
        <ele>276.700012207</ele>
        <time>2015-07-03T09:36:13.405Z</time>
      </trkpt>
      <trkpt lat="45.98159" lon="4.8546">
        <ele>276.5</ele>
        <time>2015-07-03T09:36:14.39Z</time>
      </trkpt>
      <trkpt lat="45.98163" lon="4.85468">
        <ele>276.399993896</ele>
        <time>2015-07-03T09:36:15.386Z</time>
      </trkpt>
      <trkpt lat="45.98166" lon="4.85475">
        <ele>276.299987793</ele>
        <time>2015-07-03T09:36:16.385Z</time>
      </trkpt>
      <trkpt lat="45.98169" lon="4.85482">
        <ele>276.299987793</ele>
        <time>2015-07-03T09:36:17.385Z</time>
      </trkpt>
      <trkpt lat="45.98172" lon="4.85489">
        <ele>276.200012207</ele>
        <time>2015-07-03T09:36:18.391Z</time>
      </trkpt>
      <trkpt lat="45.98175" lon="4.85495">
        <ele>276</ele>
        <time>2015-07-03T09:36:19.39Z</time>
      </trkpt>
      <trkpt lat="45.98178" lon="4.85502">
        <ele>276</ele>
        <time>2015-07-03T09:36:20.39Z</time>
      </trkpt>
      <trkpt lat="45.98181" lon="4.85509">
        <ele>276.100006104</ele>
        <time>2015-07-03T09:36:21.387Z</time>
      </trkpt>
      <trkpt lat="45.98184" lon="4.85517">
        <ele>276.200012207</ele>
        <time>2015-07-03T09:36:22.386Z</time>
      </trkpt>
      <trkpt lat="45.98187" lon="4.85524">
        <ele>276.100006104</ele>
        <time>2015-07-03T09:36:23.386Z</time>
      </trkpt>
      <trkpt lat="45.98189" lon="4.85532">
        <ele>276.200012207</ele>
        <time>2015-07-03T09:36:24.405Z</time>
      </trkpt>
      <trkpt lat="45.98192" lon="4.85539">
        <ele>276.299987793</ele>
        <time>2015-07-03T09:36:25.385Z</time>
      </trkpt>
      <trkpt lat="45.98195" lon="4.85546">
        <ele>276.299987793</ele>
        <time>2015-07-03T09:36:26.39Z</time>
      </trkpt>
      <trkpt lat="45.98198" lon="4.85553">
        <ele>276.399993896</ele>
        <time>2015-07-03T09:36:27.389Z</time>
      </trkpt>
      <trkpt lat="45.98201" lon="4.8556">
        <ele>276.5</ele>
        <time>2015-07-03T09:36:28.494Z</time>
      </trkpt>
      <trkpt lat="45.98203" lon="4.85568">
        <ele>276.5</ele>
        <time>2015-07-03T09:36:29.448Z</time>
      </trkpt>
      <trkpt lat="45.98206" lon="4.85576">
        <ele>276.700012207</ele>
        <time>2015-07-03T09:36:30.401Z</time>
      </trkpt>
      <trkpt lat="45.9821" lon="4.85584">
        <ele>276.600006104</ele>
        <time>2015-07-03T09:36:31.389Z</time>
      </trkpt>
      <trkpt lat="45.98213" lon="4.85591">
        <ele>276.5</ele>
        <time>2015-07-03T09:36:32.401Z</time>
      </trkpt>
      <trkpt lat="45.98216" lon="4.85598">
        <ele>276.5</ele>
        <time>2015-07-03T09:36:33.386Z</time>
      </trkpt>
      <trkpt lat="45.98219" lon="4.85604">
        <ele>276.5</ele>
        <time>2015-07-03T09:36:34.387Z</time>
      </trkpt>
      <trkpt lat="45.98221" lon="4.85611">
        <ele>276.399993896</ele>
        <time>2015-07-03T09:36:35.387Z</time>
      </trkpt>
      <trkpt lat="45.98225" lon="4.85617">
        <ele>276.299987793</ele>
        <time>2015-07-03T09:36:36.392Z</time>
      </trkpt>
      <trkpt lat="45.98228" lon="4.85623">
        <ele>276</ele>
        <time>2015-07-03T09:36:37.386Z</time>
      </trkpt>
      <trkpt lat="45.9823" lon="4.8563">
        <ele>275.700012207</ele>
        <time>2015-07-03T09:36:38.422Z</time>
      </trkpt>
      <trkpt lat="45.98233" lon="4.85636">
        <ele>275.5</ele>
        <time>2015-07-03T09:36:39.386Z</time>
      </trkpt>
      <trkpt lat="45.98236" lon="4.85643">
        <ele>275.200012207</ele>
        <time>2015-07-03T09:36:40.414Z</time>
      </trkpt>
      <trkpt lat="45.98239" lon="4.85651">
        <ele>274.899993896</ele>
        <time>2015-07-03T09:36:41.386Z</time>
      </trkpt>
      <trkpt lat="45.98241" lon="4.85658">
        <ele>274.700012207</ele>
        <time>2015-07-03T09:36:42.389Z</time>
      </trkpt>
      <trkpt lat="45.98244" lon="4.85666">
        <ele>274.299987793</ele>
        <time>2015-07-03T09:36:43.386Z</time>
      </trkpt>
      <trkpt lat="45.98247" lon="4.85673">
        <ele>274.299987793</ele>
        <time>2015-07-03T09:36:44.39Z</time>
      </trkpt>
      <trkpt lat="45.9825" lon="4.8568">
        <ele>274.100006104</ele>
        <time>2015-07-03T09:36:45.386Z</time>
      </trkpt>
      <trkpt lat="45.98253" lon="4.85687">
        <ele>273.899993896</ele>
        <time>2015-07-03T09:36:46.388Z</time>
      </trkpt>
      <trkpt lat="45.98256" lon="4.85694">
        <ele>273.899993896</ele>
        <time>2015-07-03T09:36:47.387Z</time>
      </trkpt>
      <trkpt lat="45.98259" lon="4.85702">
        <ele>273.600006104</ele>
        <time>2015-07-03T09:36:48.383Z</time>
      </trkpt>
      <trkpt lat="45.98262" lon="4.85709">
        <ele>273.600006104</ele>
        <time>2015-07-03T09:36:49.385Z</time>
      </trkpt>
      <trkpt lat="45.98265" lon="4.85716">
        <ele>273.5</ele>
        <time>2015-07-03T09:36:50.387Z</time>
      </trkpt>
      <trkpt lat="45.98268" lon="4.85722">
        <ele>273.399993896</ele>
        <time>2015-07-03T09:36:51.386Z</time>
      </trkpt>
      <trkpt lat="45.98271" lon="4.85729">
        <ele>273.299987793</ele>
        <time>2015-07-03T09:36:52.423Z</time>
      </trkpt>
      <trkpt lat="45.98274" lon="4.85736">
        <ele>273.200012207</ele>
        <time>2015-07-03T09:36:53.386Z</time>
      </trkpt>
      <trkpt lat="45.98277" lon="4.85743">
        <ele>273</ele>
        <time>2015-07-03T09:36:54.389Z</time>
      </trkpt>
      <trkpt lat="45.9828" lon="4.85751">
        <ele>272.799987793</ele>
        <time>2015-07-03T09:36:55.386Z</time>
      </trkpt>
      <trkpt lat="45.98283" lon="4.85759">
        <ele>273</ele>
        <time>2015-07-03T09:36:56.402Z</time>
      </trkpt>
      <trkpt lat="45.98286" lon="4.85766">
        <ele>273.100006104</ele>
        <time>2015-07-03T09:36:57.386Z</time>
      </trkpt>
      <trkpt lat="45.98289" lon="4.85773">
        <ele>272.899993896</ele>
        <time>2015-07-03T09:36:58.384Z</time>
      </trkpt>
      <trkpt lat="45.98292" lon="4.85781">
        <ele>272.700012207</ele>
        <time>2015-07-03T09:36:59.385Z</time>
      </trkpt>
      <trkpt lat="45.98294" lon="4.85789">
        <ele>272.899993896</ele>
        <time>2015-07-03T09:37:00.389Z</time>
      </trkpt>
      <trkpt lat="45.98297" lon="4.85796">
        <ele>272.899993896</ele>
        <time>2015-07-03T09:37:01.386Z</time>
      </trkpt>
      <trkpt lat="45.98299" lon="4.85804">
        <ele>272.799987793</ele>
        <time>2015-07-03T09:37:02.39Z</time>
      </trkpt>
      <trkpt lat="45.98303" lon="4.85812">
        <ele>272.799987793</ele>
        <time>2015-07-03T09:37:03.386Z</time>
      </trkpt>
      <trkpt lat="45.98306" lon="4.85819">
        <ele>272.600006104</ele>
        <time>2015-07-03T09:37:04.406Z</time>
      </trkpt>
      <trkpt lat="45.98309" lon="4.85826">
        <ele>272.600006104</ele>
        <time>2015-07-03T09:37:05.385Z</time>
      </trkpt>
      <trkpt lat="45.98312" lon="4.85834">
        <ele>272.700012207</ele>
        <time>2015-07-03T09:37:06.389Z</time>
      </trkpt>
      <trkpt lat="45.98315" lon="4.8584">
        <ele>272.700012207</ele>
        <time>2015-07-03T09:37:07.385Z</time>
      </trkpt>
      <trkpt lat="45.98317" lon="4.85846">
        <ele>272.899993896</ele>
        <time>2015-07-03T09:37:08.387Z</time>
      </trkpt>
      <trkpt lat="45.9832" lon="4.85852">
        <ele>273.200012207</ele>
        <time>2015-07-03T09:37:09.384Z</time>
      </trkpt>
      <trkpt lat="45.98322" lon="4.85859">
        <ele>273.399993896</ele>
        <time>2015-07-03T09:37:10.385Z</time>
      </trkpt>
      <trkpt lat="45.98324" lon="4.85865">
        <ele>273.600006104</ele>
        <time>2015-07-03T09:37:11.385Z</time>
      </trkpt>
      <trkpt lat="45.98326" lon="4.85871">
        <ele>273.799987793</ele>
        <time>2015-07-03T09:37:12.429Z</time>
      </trkpt>
      <trkpt lat="45.98328" lon="4.85877">
        <ele>274</ele>
        <time>2015-07-03T09:37:13.384Z</time>
      </trkpt>
      <trkpt lat="45.9833" lon="4.85883">
        <ele>274.200012207</ele>
        <time>2015-07-03T09:37:14.386Z</time>
      </trkpt>
      <trkpt lat="45.98331" lon="4.8589">
        <ele>274.399993896</ele>
        <time>2015-07-03T09:37:15.385Z</time>
      </trkpt>
      <trkpt lat="45.98331" lon="4.85897">
        <ele>274.5</ele>
        <time>2015-07-03T09:37:16.385Z</time>
      </trkpt>
      <trkpt lat="45.98334" lon="4.85904">
        <ele>274.700012207</ele>
        <time>2015-07-03T09:37:17.386Z</time>
      </trkpt>
      <trkpt lat="45.98337" lon="4.85911">
        <ele>274.799987793</ele>
        <time>2015-07-03T09:37:18.39Z</time>
      </trkpt>
      <trkpt lat="45.9834" lon="4.85918">
        <ele>275</ele>
        <time>2015-07-03T09:37:19.386Z</time>
      </trkpt>
      <trkpt lat="45.98343" lon="4.85925">
        <ele>275.100006104</ele>
        <time>2015-07-03T09:37:20.39Z</time>
      </trkpt>
      <trkpt lat="45.98348" lon="4.85933">
        <ele>275.399993896</ele>
        <time>2015-07-03T09:37:21.387Z</time>
      </trkpt>
      <trkpt lat="45.98351" lon="4.85939">
        <ele>275.600006104</ele>
        <time>2015-07-03T09:37:22.385Z</time>
      </trkpt>
      <trkpt lat="45.98353" lon="4.85946">
        <ele>275.799987793</ele>
        <time>2015-07-03T09:37:23.384Z</time>
      </trkpt>
      <trkpt lat="45.98357" lon="4.85953">
        <ele>275.899993896</ele>
        <time>2015-07-03T09:37:24.389Z</time>
      </trkpt>
      <trkpt lat="45.9836" lon="4.85961">
        <ele>276.100006104</ele>
        <time>2015-07-03T09:37:25.386Z</time>
      </trkpt>
      <trkpt lat="45.98363" lon="4.85968">
        <ele>276.299987793</ele>
        <time>2015-07-03T09:37:26.387Z</time>
      </trkpt>
      <trkpt lat="45.98366" lon="4.85975">
        <ele>276.399993896</ele>
        <time>2015-07-03T09:37:27.389Z</time>
      </trkpt>
      <trkpt lat="45.98369" lon="4.85982">
        <ele>276.600006104</ele>
        <time>2015-07-03T09:37:28.402Z</time>
      </trkpt>
      <trkpt lat="45.98372" lon="4.85988">
        <ele>276.899993896</ele>
        <time>2015-07-03T09:37:29.386Z</time>
      </trkpt>
      <trkpt lat="45.98376" lon="4.85995">
        <ele>277</ele>
        <time>2015-07-03T09:37:30.392Z</time>
      </trkpt>
      <trkpt lat="45.98379" lon="4.86002">
        <ele>277.200012207</ele>
        <time>2015-07-03T09:37:31.389Z</time>
      </trkpt>
      <trkpt lat="45.98382" lon="4.86011">
        <ele>277.299987793</ele>
        <time>2015-07-03T09:37:32.387Z</time>
      </trkpt>
      <trkpt lat="45.98386" lon="4.86019">
        <ele>277</ele>
        <time>2015-07-03T09:37:33.385Z</time>
      </trkpt>
      <trkpt lat="45.98387" lon="4.86029">
        <ele>276.200012207</ele>
        <time>2015-07-03T09:37:34.387Z</time>
      </trkpt>
      <trkpt lat="45.98389" lon="4.86038">
        <ele>275.700012207</ele>
        <time>2015-07-03T09:37:35.384Z</time>
      </trkpt>
      <trkpt lat="45.98392" lon="4.86046">
        <ele>275.600006104</ele>
        <time>2015-07-03T09:37:36.389Z</time>
      </trkpt>
      <trkpt lat="45.98395" lon="4.86054">
        <ele>275.399993896</ele>
        <time>2015-07-03T09:37:37.386Z</time>
      </trkpt>
      <trkpt lat="45.98398" lon="4.86063">
        <ele>275.399993896</ele>
        <time>2015-07-03T09:37:38.417Z</time>
      </trkpt>
      <trkpt lat="45.98401" lon="4.8607">
        <ele>275</ele>
        <time>2015-07-03T09:37:39.404Z</time>
      </trkpt>
      <trkpt lat="45.98403" lon="4.86078">
        <ele>274.700012207</ele>
        <time>2015-07-03T09:37:40.386Z</time>
      </trkpt>
      <trkpt lat="45.98405" lon="4.86084">
        <ele>274.799987793</ele>
        <time>2015-07-03T09:37:41.386Z</time>
      </trkpt>
      <trkpt lat="45.98406" lon="4.8609">
        <ele>274.600006104</ele>
        <time>2015-07-03T09:37:42.389Z</time>
      </trkpt>
      <trkpt lat="45.98407" lon="4.86096">
        <ele>274.799987793</ele>
        <time>2015-07-03T09:37:43.387Z</time>
      </trkpt>
      <trkpt lat="45.98407" lon="4.86108">
        <ele>275.799987793</ele>
        <time>2015-07-03T09:37:45.384Z</time>
      </trkpt>
      <trkpt lat="45.98407" lon="4.86113">
        <ele>276.200012207</ele>
        <time>2015-07-03T09:37:46.379Z</time>
      </trkpt>
      <trkpt lat="45.98412" lon="4.86124">
        <ele>276.600006104</ele>
        <time>2015-07-03T09:37:48.389Z</time>
      </trkpt>
      <trkpt lat="45.98413" lon="4.86129">
        <ele>276.700012207</ele>
        <time>2015-07-03T09:37:49.385Z</time>
      </trkpt>
      <trkpt lat="45.98415" lon="4.8614">
        <ele>277</ele>
        <time>2015-07-03T09:37:51.385Z</time>
      </trkpt>
      <trkpt lat="45.98415" lon="4.86146">
        <ele>277.100006104</ele>
        <time>2015-07-03T09:37:52.387Z</time>
      </trkpt>
      <trkpt lat="45.98416" lon="4.86158">
        <ele>277.5</ele>
        <time>2015-07-03T09:37:54.392Z</time>
      </trkpt>
      <trkpt lat="45.98417" lon="4.86163">
        <ele>277.700012207</ele>
        <time>2015-07-03T09:37:55.4Z</time>
      </trkpt>
      <trkpt lat="45.98418" lon="4.86175">
        <ele>278.399993896</ele>
        <time>2015-07-03T09:37:57.385Z</time>
      </trkpt>
      <trkpt lat="45.98418" lon="4.86181">
        <ele>278.600006104</ele>
        <time>2015-07-03T09:37:58.384Z</time>
      </trkpt>
      <trkpt lat="45.98421" lon="4.86193">
        <ele>277.899993896</ele>
        <time>2015-07-03T09:38:00.389Z</time>
      </trkpt>
      <trkpt lat="45.98421" lon="4.86198">
        <ele>278.100006104</ele>
        <time>2015-07-03T09:38:01.386Z</time>
      </trkpt>
      <trkpt lat="45.98423" lon="4.86208">
        <ele>278.299987793</ele>
        <time>2015-07-03T09:38:03.384Z</time>
      </trkpt>
      <trkpt lat="45.98423" lon="4.86214">
        <ele>278.399993896</ele>
        <time>2015-07-03T09:38:04.388Z</time>
      </trkpt>
      <trkpt lat="45.98425" lon="4.86226">
        <ele>278.600006104</ele>
        <time>2015-07-03T09:38:06.389Z</time>
      </trkpt>
      <trkpt lat="45.98427" lon="4.86232">
        <ele>278.399993896</ele>
        <time>2015-07-03T09:38:07.385Z</time>
      </trkpt>
      <trkpt lat="45.98428" lon="4.86239">
        <ele>278.299987793</ele>
        <time>2015-07-03T09:38:08.39Z</time>
      </trkpt>
      <trkpt lat="45.9843" lon="4.86247">
        <ele>278.399993896</ele>
        <time>2015-07-03T09:38:09.388Z</time>
      </trkpt>
      <trkpt lat="45.98431" lon="4.86254">
        <ele>278.299987793</ele>
        <time>2015-07-03T09:38:10.385Z</time>
      </trkpt>
      <trkpt lat="45.98433" lon="4.86262">
        <ele>278.100006104</ele>
        <time>2015-07-03T09:38:11.389Z</time>
      </trkpt>
      <trkpt lat="45.98434" lon="4.86271">
        <ele>277.899993896</ele>
        <time>2015-07-03T09:38:12.389Z</time>
      </trkpt>
      <trkpt lat="45.98435" lon="4.86281">
        <ele>277.799987793</ele>
        <time>2015-07-03T09:38:13.384Z</time>
      </trkpt>
      <trkpt lat="45.98437" lon="4.86291">
        <ele>277.600006104</ele>
        <time>2015-07-03T09:38:14.386Z</time>
      </trkpt>
      <trkpt lat="45.98439" lon="4.863">
        <ele>277.5</ele>
        <time>2015-07-03T09:38:15.436Z</time>
      </trkpt>
      <trkpt lat="45.98439" lon="4.86311">
        <ele>277.600006104</ele>
        <time>2015-07-03T09:38:16.41Z</time>
      </trkpt>
      <trkpt lat="45.98441" lon="4.8632">
        <ele>277.700012207</ele>
        <time>2015-07-03T09:38:17.385Z</time>
      </trkpt>
      <trkpt lat="45.98443" lon="4.8633">
        <ele>277.700012207</ele>
        <time>2015-07-03T09:38:18.389Z</time>
      </trkpt>
      <trkpt lat="45.98446" lon="4.8634">
        <ele>277.600006104</ele>
        <time>2015-07-03T09:38:19.386Z</time>
      </trkpt>
      <trkpt lat="45.98448" lon="4.86349">
        <ele>277.600006104</ele>
        <time>2015-07-03T09:38:20.386Z</time>
      </trkpt>
      <trkpt lat="45.98451" lon="4.86358">
        <ele>277.5</ele>
        <time>2015-07-03T09:38:21.386Z</time>
      </trkpt>
      <trkpt lat="45.98454" lon="4.86367">
        <ele>277.600006104</ele>
        <time>2015-07-03T09:38:22.386Z</time>
      </trkpt>
      <trkpt lat="45.98456" lon="4.86375">
        <ele>277.600006104</ele>
        <time>2015-07-03T09:38:23.384Z</time>
      </trkpt>
      <trkpt lat="45.98459" lon="4.86384">
        <ele>277.5</ele>
        <time>2015-07-03T09:38:24.389Z</time>
      </trkpt>
      <trkpt lat="45.98462" lon="4.86392">
        <ele>277.399993896</ele>
        <time>2015-07-03T09:38:25.384Z</time>
      </trkpt>
      <trkpt lat="45.98465" lon="4.86399">
        <ele>277.399993896</ele>
        <time>2015-07-03T09:38:26.426Z</time>
      </trkpt>
      <trkpt lat="45.98468" lon="4.86407">
        <ele>277.399993896</ele>
        <time>2015-07-03T09:38:27.388Z</time>
      </trkpt>
      <trkpt lat="45.98471" lon="4.86415">
        <ele>277.299987793</ele>
        <time>2015-07-03T09:38:28.407Z</time>
      </trkpt>
      <trkpt lat="45.98475" lon="4.86423">
        <ele>277.200012207</ele>
        <time>2015-07-03T09:38:29.386Z</time>
      </trkpt>
      <trkpt lat="45.98478" lon="4.8643">
        <ele>277.200012207</ele>
        <time>2015-07-03T09:38:30.396Z</time>
      </trkpt>
      <trkpt lat="45.98481" lon="4.86438">
        <ele>277.299987793</ele>
        <time>2015-07-03T09:38:31.389Z</time>
      </trkpt>
      <trkpt lat="45.98485" lon="4.86445">
        <ele>277.399993896</ele>
        <time>2015-07-03T09:38:32.387Z</time>
      </trkpt>
      <trkpt lat="45.9849" lon="4.86453">
        <ele>277.200012207</ele>
        <time>2015-07-03T09:38:33.384Z</time>
      </trkpt>
      <trkpt lat="45.98494" lon="4.8646">
        <ele>277</ele>
        <time>2015-07-03T09:38:34.426Z</time>
      </trkpt>
      <trkpt lat="45.98497" lon="4.86468">
        <ele>276.899993896</ele>
        <time>2015-07-03T09:38:35.385Z</time>
      </trkpt>
      <trkpt lat="45.985" lon="4.86476">
        <ele>276.700012207</ele>
        <time>2015-07-03T09:38:36.389Z</time>
      </trkpt>
      <trkpt lat="45.98504" lon="4.86483">
        <ele>276.600006104</ele>
        <time>2015-07-03T09:38:37.399Z</time>
      </trkpt>
      <trkpt lat="45.98507" lon="4.8649">
        <ele>276.399993896</ele>
        <time>2015-07-03T09:38:38.386Z</time>
      </trkpt>
      <trkpt lat="45.9851" lon="4.86497">
        <ele>276.200012207</ele>
        <time>2015-07-03T09:38:39.385Z</time>
      </trkpt>
      <trkpt lat="45.98513" lon="4.86502">
        <ele>276.100006104</ele>
        <time>2015-07-03T09:38:40.386Z</time>
      </trkpt>
      <trkpt lat="45.98517" lon="4.86508">
        <ele>275.899993896</ele>
        <time>2015-07-03T09:38:41.387Z</time>
      </trkpt>
      <trkpt lat="45.9852" lon="4.86514">
        <ele>276</ele>
        <time>2015-07-03T09:38:42.388Z</time>
      </trkpt>
      <trkpt lat="45.98523" lon="4.86522">
        <ele>276.100006104</ele>
        <time>2015-07-03T09:38:43.386Z</time>
      </trkpt>
      <trkpt lat="45.98527" lon="4.8653">
        <ele>276</ele>
        <time>2015-07-03T09:38:44.416Z</time>
      </trkpt>
      <trkpt lat="45.98531" lon="4.86537">
        <ele>275.899993896</ele>
        <time>2015-07-03T09:38:45.386Z</time>
      </trkpt>
      <trkpt lat="45.98534" lon="4.86544">
        <ele>275.799987793</ele>
        <time>2015-07-03T09:38:46.384Z</time>
      </trkpt>
      <trkpt lat="45.98538" lon="4.86548">
        <ele>275.799987793</ele>
        <time>2015-07-03T09:38:47.386Z</time>
      </trkpt>
      <trkpt lat="45.98542" lon="4.86557">
        <ele>275.700012207</ele>
        <time>2015-07-03T09:38:48.388Z</time>
      </trkpt>
      <trkpt lat="45.98545" lon="4.86566">
        <ele>275.799987793</ele>
        <time>2015-07-03T09:38:49.384Z</time>
      </trkpt>
      <trkpt lat="45.98549" lon="4.86574">
        <ele>275.700012207</ele>
        <time>2015-07-03T09:38:50.437Z</time>
      </trkpt>
      <trkpt lat="45.98552" lon="4.86583">
        <ele>275.700012207</ele>
        <time>2015-07-03T09:38:51.388Z</time>
      </trkpt>
      <trkpt lat="45.98554" lon="4.86592">
        <ele>275.5</ele>
        <time>2015-07-03T09:38:52.386Z</time>
      </trkpt>
      <trkpt lat="45.98556" lon="4.866">
        <ele>275.5</ele>
        <time>2015-07-03T09:38:53.403Z</time>
      </trkpt>
      <trkpt lat="45.98558" lon="4.86609">
        <ele>275.399993896</ele>
        <time>2015-07-03T09:38:54.392Z</time>
      </trkpt>
      <trkpt lat="45.98559" lon="4.86618">
        <ele>275.399993896</ele>
        <time>2015-07-03T09:38:55.387Z</time>
      </trkpt>
      <trkpt lat="45.98561" lon="4.86626">
        <ele>275.399993896</ele>
        <time>2015-07-03T09:38:56.387Z</time>
      </trkpt>
      <trkpt lat="45.98562" lon="4.86634">
        <ele>275.399993896</ele>
        <time>2015-07-03T09:38:57.389Z</time>
      </trkpt>
      <trkpt lat="45.98564" lon="4.86643">
        <ele>275.399993896</ele>
        <time>2015-07-03T09:38:58.386Z</time>
      </trkpt>
      <trkpt lat="45.98565" lon="4.86651">
        <ele>275.5</ele>
        <time>2015-07-03T09:38:59.386Z</time>
      </trkpt>
      <trkpt lat="45.98566" lon="4.86661">
        <ele>275.600006104</ele>
        <time>2015-07-03T09:39:00.388Z</time>
      </trkpt>
      <trkpt lat="45.98568" lon="4.8667">
        <ele>275.700012207</ele>
        <time>2015-07-03T09:39:01.387Z</time>
      </trkpt>
      <trkpt lat="45.98568" lon="4.86677">
        <ele>275.799987793</ele>
        <time>2015-07-03T09:39:02.417Z</time>
      </trkpt>
      <trkpt lat="45.98569" lon="4.86686">
        <ele>276</ele>
        <time>2015-07-03T09:39:03.39Z</time>
      </trkpt>
      <trkpt lat="45.98569" lon="4.86695">
        <ele>276.100006104</ele>
        <time>2015-07-03T09:39:04.386Z</time>
      </trkpt>
      <trkpt lat="45.98569" lon="4.86702">
        <ele>276.200012207</ele>
        <time>2015-07-03T09:39:05.387Z</time>
      </trkpt>
      <trkpt lat="45.98569" lon="4.8671">
        <ele>276.399993896</ele>
        <time>2015-07-03T09:39:06.392Z</time>
      </trkpt>
      <trkpt lat="45.98568" lon="4.86718">
        <ele>276.700012207</ele>
        <time>2015-07-03T09:39:07.389Z</time>
      </trkpt>
      <trkpt lat="45.98567" lon="4.86726">
        <ele>276.899993896</ele>
        <time>2015-07-03T09:39:08.388Z</time>
      </trkpt>
      <trkpt lat="45.98567" lon="4.86734">
        <ele>277.299987793</ele>
        <time>2015-07-03T09:39:09.387Z</time>
      </trkpt>
      <trkpt lat="45.98568" lon="4.86741">
        <ele>277.600006104</ele>
        <time>2015-07-03T09:39:10.386Z</time>
      </trkpt>
      <trkpt lat="45.98568" lon="4.86749">
        <ele>277.899993896</ele>
        <time>2015-07-03T09:39:11.386Z</time>
      </trkpt>
      <trkpt lat="45.98569" lon="4.86758">
        <ele>278</ele>
        <time>2015-07-03T09:39:12.391Z</time>
      </trkpt>
      <trkpt lat="45.9857" lon="4.86767">
        <ele>278.399993896</ele>
        <time>2015-07-03T09:39:13.385Z</time>
      </trkpt>
      <trkpt lat="45.98571" lon="4.86774">
        <ele>278.700012207</ele>
        <time>2015-07-03T09:39:14.446Z</time>
      </trkpt>
      <trkpt lat="45.98572" lon="4.86783">
        <ele>278.799987793</ele>
        <time>2015-07-03T09:39:15.383Z</time>
      </trkpt>
      <trkpt lat="45.98574" lon="4.86791">
        <ele>278.899993896</ele>
        <time>2015-07-03T09:39:16.422Z</time>
      </trkpt>
      <trkpt lat="45.98576" lon="4.86799">
        <ele>279.100006104</ele>
        <time>2015-07-03T09:39:17.387Z</time>
      </trkpt>
      <trkpt lat="45.98577" lon="4.86806">
        <ele>279.299987793</ele>
        <time>2015-07-03T09:39:18.388Z</time>
      </trkpt>
      <trkpt lat="45.98579" lon="4.86815">
        <ele>279.700012207</ele>
        <time>2015-07-03T09:39:19.384Z</time>
      </trkpt>
      <trkpt lat="45.9858" lon="4.86824">
        <ele>279.899993896</ele>
        <time>2015-07-03T09:39:20.385Z</time>
      </trkpt>
      <trkpt lat="45.98581" lon="4.86833">
        <ele>280.100006104</ele>
        <time>2015-07-03T09:39:21.386Z</time>
      </trkpt>
      <trkpt lat="45.98581" lon="4.86843">
        <ele>280</ele>
        <time>2015-07-03T09:39:22.387Z</time>
      </trkpt>
      <trkpt lat="45.98582" lon="4.86852">
        <ele>279.700012207</ele>
        <time>2015-07-03T09:39:23.384Z</time>
      </trkpt>
      <trkpt lat="45.98581" lon="4.86862">
        <ele>279.799987793</ele>
        <time>2015-07-03T09:39:24.391Z</time>
      </trkpt>
      <trkpt lat="45.98581" lon="4.86871">
        <ele>279.600006104</ele>
        <time>2015-07-03T09:39:25.386Z</time>
      </trkpt>
      <trkpt lat="45.98581" lon="4.8688">
        <ele>279.399993896</ele>
        <time>2015-07-03T09:39:26.416Z</time>
      </trkpt>
      <trkpt lat="45.98582" lon="4.8689">
        <ele>279.5</ele>
        <time>2015-07-03T09:39:27.389Z</time>
      </trkpt>
      <trkpt lat="45.98582" lon="4.86899">
        <ele>279.700012207</ele>
        <time>2015-07-03T09:39:28.385Z</time>
      </trkpt>
      <trkpt lat="45.98583" lon="4.86908">
        <ele>279.899993896</ele>
        <time>2015-07-03T09:39:29.388Z</time>
      </trkpt>
      <trkpt lat="45.98583" lon="4.86917">
        <ele>280</ele>
        <time>2015-07-03T09:39:30.406Z</time>
      </trkpt>
      <trkpt lat="45.98581" lon="4.86926">
        <ele>280</ele>
        <time>2015-07-03T09:39:31.386Z</time>
      </trkpt>
      <trkpt lat="45.98582" lon="4.86934">
        <ele>280.100006104</ele>
        <time>2015-07-03T09:39:32.386Z</time>
      </trkpt>
      <trkpt lat="45.98582" lon="4.86943">
        <ele>280.399993896</ele>
        <time>2015-07-03T09:39:33.392Z</time>
      </trkpt>
      <trkpt lat="45.98583" lon="4.86952">
        <ele>280.5</ele>
        <time>2015-07-03T09:39:34.384Z</time>
      </trkpt>
      <trkpt lat="45.98583" lon="4.8696">
        <ele>280.700012207</ele>
        <time>2015-07-03T09:39:35.386Z</time>
      </trkpt>
      <trkpt lat="45.98583" lon="4.86969">
        <ele>280.899993896</ele>
        <time>2015-07-03T09:39:36.388Z</time>
      </trkpt>
      <trkpt lat="45.98583" lon="4.86977">
        <ele>281.100006104</ele>
        <time>2015-07-03T09:39:37.385Z</time>
      </trkpt>
      <trkpt lat="45.98585" lon="4.86986">
        <ele>280.799987793</ele>
        <time>2015-07-03T09:39:38.436Z</time>
      </trkpt>
      <trkpt lat="45.98586" lon="4.86994">
        <ele>280.5</ele>
        <time>2015-07-03T09:39:39.384Z</time>
      </trkpt>
      <trkpt lat="45.98587" lon="4.87002">
        <ele>280.5</ele>
        <time>2015-07-03T09:39:40.387Z</time>
      </trkpt>
      <trkpt lat="45.98589" lon="4.8701">
        <ele>280.600006104</ele>
        <time>2015-07-03T09:39:41.388Z</time>
      </trkpt>
      <trkpt lat="45.9859" lon="4.87018">
        <ele>280.799987793</ele>
        <time>2015-07-03T09:39:42.416Z</time>
      </trkpt>
      <trkpt lat="45.98592" lon="4.87026">
        <ele>281</ele>
        <time>2015-07-03T09:39:43.386Z</time>
      </trkpt>
      <trkpt lat="45.98593" lon="4.87034">
        <ele>281.200012207</ele>
        <time>2015-07-03T09:39:44.387Z</time>
      </trkpt>
      <trkpt lat="45.98594" lon="4.87042">
        <ele>281.399993896</ele>
        <time>2015-07-03T09:39:45.385Z</time>
      </trkpt>
      <trkpt lat="45.98596" lon="4.8705">
        <ele>281.600006104</ele>
        <time>2015-07-03T09:39:46.386Z</time>
      </trkpt>
      <trkpt lat="45.98598" lon="4.87057">
        <ele>281.799987793</ele>
        <time>2015-07-03T09:39:47.385Z</time>
      </trkpt>
      <trkpt lat="45.98601" lon="4.87066">
        <ele>282</ele>
        <time>2015-07-03T09:39:48.388Z</time>
      </trkpt>
      <trkpt lat="45.98603" lon="4.87073">
        <ele>282.299987793</ele>
        <time>2015-07-03T09:39:49.385Z</time>
      </trkpt>
      <trkpt lat="45.98606" lon="4.8708">
        <ele>282.5</ele>
        <time>2015-07-03T09:39:50.416Z</time>
      </trkpt>
      <trkpt lat="45.98607" lon="4.87088">
        <ele>282.700012207</ele>
        <time>2015-07-03T09:39:51.403Z</time>
      </trkpt>
      <trkpt lat="45.98608" lon="4.87096">
        <ele>282.700012207</ele>
        <time>2015-07-03T09:39:52.409Z</time>
      </trkpt>
      <trkpt lat="45.98608" lon="4.87103">
        <ele>282.899993896</ele>
        <time>2015-07-03T09:39:53.386Z</time>
      </trkpt>
      <trkpt lat="45.98606" lon="4.87112">
        <ele>283</ele>
        <time>2015-07-03T09:39:54.389Z</time>
      </trkpt>
      <trkpt lat="45.98605" lon="4.8712">
        <ele>283.200012207</ele>
        <time>2015-07-03T09:39:55.385Z</time>
      </trkpt>
      <trkpt lat="45.98605" lon="4.87128">
        <ele>283.399993896</ele>
        <time>2015-07-03T09:39:56.386Z</time>
      </trkpt>
      <trkpt lat="45.98605" lon="4.87135">
        <ele>283.600006104</ele>
        <time>2015-07-03T09:39:57.386Z</time>
      </trkpt>
      <trkpt lat="45.98603" lon="4.87145">
        <ele>283.799987793</ele>
        <time>2015-07-03T09:39:58.386Z</time>
      </trkpt>
      <trkpt lat="45.98602" lon="4.87154">
        <ele>284</ele>
        <time>2015-07-03T09:39:59.386Z</time>
      </trkpt>
      <trkpt lat="45.98601" lon="4.87165">
        <ele>284.200012207</ele>
        <time>2015-07-03T09:40:00.386Z</time>
      </trkpt>
      <trkpt lat="45.986" lon="4.87175">
        <ele>284.399993896</ele>
        <time>2015-07-03T09:40:01.384Z</time>
      </trkpt>
      <trkpt lat="45.98599" lon="4.87186">
        <ele>284.600006104</ele>
        <time>2015-07-03T09:40:02.388Z</time>
      </trkpt>
      <trkpt lat="45.98598" lon="4.87197">
        <ele>284.899993896</ele>
        <time>2015-07-03T09:40:03.386Z</time>
      </trkpt>
      <trkpt lat="45.98597" lon="4.87208">
        <ele>285</ele>
        <time>2015-07-03T09:40:04.386Z</time>
      </trkpt>
      <trkpt lat="45.98596" lon="4.87219">
        <ele>285.100006104</ele>
        <time>2015-07-03T09:40:05.387Z</time>
      </trkpt>
      <trkpt lat="45.98595" lon="4.87228">
        <ele>285.299987793</ele>
        <time>2015-07-03T09:40:06.389Z</time>
      </trkpt>
      <trkpt lat="45.98594" lon="4.87237">
        <ele>285.399993896</ele>
        <time>2015-07-03T09:40:07.386Z</time>
      </trkpt>
      <trkpt lat="45.98593" lon="4.87246">
        <ele>285.5</ele>
        <time>2015-07-03T09:40:08.387Z</time>
      </trkpt>
      <trkpt lat="45.98592" lon="4.87255">
        <ele>285.600006104</ele>
        <time>2015-07-03T09:40:09.389Z</time>
      </trkpt>
      <trkpt lat="45.98591" lon="4.87265">
        <ele>285.700012207</ele>
        <time>2015-07-03T09:40:10.479Z</time>
      </trkpt>
      <trkpt lat="45.98591" lon="4.87275">
        <ele>285.799987793</ele>
        <time>2015-07-03T09:40:11.386Z</time>
      </trkpt>
      <trkpt lat="45.98591" lon="4.87285">
        <ele>286</ele>
        <time>2015-07-03T09:40:12.407Z</time>
      </trkpt>
      <trkpt lat="45.98592" lon="4.87294">
        <ele>286.100006104</ele>
        <time>2015-07-03T09:40:13.386Z</time>
      </trkpt>
      <trkpt lat="45.98592" lon="4.87303">
        <ele>286.299987793</ele>
        <time>2015-07-03T09:40:14.387Z</time>
      </trkpt>
      <trkpt lat="45.98592" lon="4.87313">
        <ele>286.5</ele>
        <time>2015-07-03T09:40:15.386Z</time>
      </trkpt>
      <trkpt lat="45.98594" lon="4.87323">
        <ele>286.799987793</ele>
        <time>2015-07-03T09:40:16.386Z</time>
      </trkpt>
      <trkpt lat="45.98595" lon="4.87334">
        <ele>287</ele>
        <time>2015-07-03T09:40:17.388Z</time>
      </trkpt>
      <trkpt lat="45.98596" lon="4.87345">
        <ele>287.200012207</ele>
        <time>2015-07-03T09:40:18.388Z</time>
      </trkpt>
      <trkpt lat="45.98599" lon="4.87357">
        <ele>287.399993896</ele>
        <time>2015-07-03T09:40:19.386Z</time>
      </trkpt>
      <trkpt lat="45.98601" lon="4.87369">
        <ele>287.600006104</ele>
        <time>2015-07-03T09:40:20.428Z</time>
      </trkpt>
      <trkpt lat="45.98604" lon="4.87381">
        <ele>287.799987793</ele>
        <time>2015-07-03T09:40:21.386Z</time>
      </trkpt>
      <trkpt lat="45.98606" lon="4.87392">
        <ele>288</ele>
        <time>2015-07-03T09:40:22.387Z</time>
      </trkpt>
      <trkpt lat="45.9861" lon="4.87403">
        <ele>287.799987793</ele>
        <time>2015-07-03T09:40:23.385Z</time>
      </trkpt>
      <trkpt lat="45.98613" lon="4.87414">
        <ele>287.899993896</ele>
        <time>2015-07-03T09:40:24.389Z</time>
      </trkpt>
      <trkpt lat="45.98614" lon="4.87426">
        <ele>287.700012207</ele>
        <time>2015-07-03T09:40:25.387Z</time>
      </trkpt>
      <trkpt lat="45.98614" lon="4.87438">
        <ele>287.5</ele>
        <time>2015-07-03T09:40:26.385Z</time>
      </trkpt>
      <trkpt lat="45.98616" lon="4.8745">
        <ele>287.200012207</ele>
        <time>2015-07-03T09:40:27.393Z</time>
      </trkpt>
      <trkpt lat="45.98618" lon="4.87463">
        <ele>286.700012207</ele>
        <time>2015-07-03T09:40:28.403Z</time>
      </trkpt>
      <trkpt lat="45.98621" lon="4.87474">
        <ele>286.299987793</ele>
        <time>2015-07-03T09:40:29.386Z</time>
      </trkpt>
      <trkpt lat="45.98622" lon="4.87486">
        <ele>285.899993896</ele>
        <time>2015-07-03T09:40:30.388Z</time>
      </trkpt>
      <trkpt lat="45.98625" lon="4.87498">
        <ele>285.600006104</ele>
        <time>2015-07-03T09:40:31.386Z</time>
      </trkpt>
      <trkpt lat="45.98628" lon="4.87509">
        <ele>285.299987793</ele>
        <time>2015-07-03T09:40:32.387Z</time>
      </trkpt>
      <trkpt lat="45.9863" lon="4.87519">
        <ele>285.100006104</ele>
        <time>2015-07-03T09:40:33.385Z</time>
      </trkpt>
      <trkpt lat="45.98631" lon="4.87529">
        <ele>284.899993896</ele>
        <time>2015-07-03T09:40:34.385Z</time>
      </trkpt>
      <trkpt lat="45.98634" lon="4.87539">
        <ele>284.399993896</ele>
        <time>2015-07-03T09:40:35.386Z</time>
      </trkpt>
      <trkpt lat="45.98637" lon="4.87549">
        <ele>284.200012207</ele>
        <time>2015-07-03T09:40:36.388Z</time>
      </trkpt>
      <trkpt lat="45.98641" lon="4.87558">
        <ele>284</ele>
        <time>2015-07-03T09:40:37.387Z</time>
      </trkpt>
      <trkpt lat="45.98646" lon="4.87565">
        <ele>283.899993896</ele>
        <time>2015-07-03T09:40:38.388Z</time>
      </trkpt>
      <trkpt lat="45.98653" lon="4.87571">
        <ele>283.700012207</ele>
        <time>2015-07-03T09:40:39.384Z</time>
      </trkpt>
      <trkpt lat="45.9866" lon="4.87575">
        <ele>283.399993896</ele>
        <time>2015-07-03T09:40:40.38Z</time>
      </trkpt>
      <trkpt lat="45.98667" lon="4.87577">
        <ele>283.100006104</ele>
        <time>2015-07-03T09:40:41.386Z</time>
      </trkpt>
      <trkpt lat="45.98674" lon="4.87579">
        <ele>282.899993896</ele>
        <time>2015-07-03T09:40:42.39Z</time>
      </trkpt>
      <trkpt lat="45.98681" lon="4.87579">
        <ele>282.700012207</ele>
        <time>2015-07-03T09:40:43.384Z</time>
      </trkpt>
      <trkpt lat="45.98687" lon="4.87579">
        <ele>282.700012207</ele>
        <time>2015-07-03T09:40:44.398Z</time>
      </trkpt>
      <trkpt lat="45.98693" lon="4.87581">
        <ele>282.600006104</ele>
        <time>2015-07-03T09:40:45.386Z</time>
      </trkpt>
      <trkpt lat="45.98699" lon="4.87581">
        <ele>282.399993896</ele>
        <time>2015-07-03T09:40:46.385Z</time>
      </trkpt>
      <trkpt lat="45.98705" lon="4.87582">
        <ele>282.299987793</ele>
        <time>2015-07-03T09:40:47.387Z</time>
      </trkpt>
      <trkpt lat="45.98709" lon="4.87582">
        <ele>282</ele>
        <time>2015-07-03T09:40:48.391Z</time>
      </trkpt>
      <trkpt lat="45.98714" lon="4.8758">
        <ele>281.700012207</ele>
        <time>2015-07-03T09:40:49.385Z</time>
      </trkpt>
      <trkpt lat="45.98719" lon="4.87581">
        <ele>281.600006104</ele>
        <time>2015-07-03T09:40:50.388Z</time>
      </trkpt>
      <trkpt lat="45.98724" lon="4.87581">
        <ele>281.399993896</ele>
        <time>2015-07-03T09:40:51.387Z</time>
      </trkpt>
      <trkpt lat="45.98729" lon="4.8758">
        <ele>281.200012207</ele>
        <time>2015-07-03T09:40:52.386Z</time>
      </trkpt>
      <trkpt lat="45.98735" lon="4.87579">
        <ele>281</ele>
        <time>2015-07-03T09:40:53.386Z</time>
      </trkpt>
      <trkpt lat="45.98741" lon="4.87579">
        <ele>281.100006104</ele>
        <time>2015-07-03T09:40:54.388Z</time>
      </trkpt>
      <trkpt lat="45.98747" lon="4.87579">
        <ele>281.200012207</ele>
        <time>2015-07-03T09:40:55.385Z</time>
      </trkpt>
      <trkpt lat="45.98752" lon="4.87581">
        <ele>281</ele>
        <time>2015-07-03T09:40:56.386Z</time>
      </trkpt>
      <trkpt lat="45.9876" lon="4.87583">
        <ele>281.100006104</ele>
        <time>2015-07-03T09:40:58.392Z</time>
      </trkpt>
      <trkpt lat="45.98764" lon="4.87586">
        <ele>281.100006104</ele>
        <time>2015-07-03T09:40:59.387Z</time>
      </trkpt>
      <trkpt lat="45.98768" lon="4.87588">
        <ele>281</ele>
        <time>2015-07-03T09:41:00.421Z</time>
      </trkpt>
      <trkpt lat="45.98772" lon="4.87591">
        <ele>280.899993896</ele>
        <time>2015-07-03T09:41:01.388Z</time>
      </trkpt>
      <trkpt lat="45.98777" lon="4.87595">
        <ele>280.700012207</ele>
        <time>2015-07-03T09:41:02.388Z</time>
      </trkpt>
      <trkpt lat="45.98782" lon="4.87598">
        <ele>280.700012207</ele>
        <time>2015-07-03T09:41:03.385Z</time>
      </trkpt>
      <trkpt lat="45.98785" lon="4.87604">
        <ele>280.799987793</ele>
        <time>2015-07-03T09:41:04.386Z</time>
      </trkpt>
      <trkpt lat="45.98789" lon="4.87608">
        <ele>280.799987793</ele>
        <time>2015-07-03T09:41:05.386Z</time>
      </trkpt>
      <trkpt lat="45.98793" lon="4.87611">
        <ele>280.600006104</ele>
        <time>2015-07-03T09:41:06.416Z</time>
      </trkpt>
      <trkpt lat="45.98796" lon="4.87618">
        <ele>280.5</ele>
        <time>2015-07-03T09:41:07.385Z</time>
      </trkpt>
      <trkpt lat="45.98801" lon="4.87628">
        <ele>280.200012207</ele>
        <time>2015-07-03T09:41:09.385Z</time>
      </trkpt>
      <trkpt lat="45.98803" lon="4.87633">
        <ele>280</ele>
        <time>2015-07-03T09:41:10.402Z</time>
      </trkpt>
      <trkpt lat="45.98805" lon="4.87639">
        <ele>279.899993896</ele>
        <time>2015-07-03T09:41:11.386Z</time>
      </trkpt>
      <trkpt lat="45.98809" lon="4.87644">
        <ele>279.899993896</ele>
        <time>2015-07-03T09:41:12.387Z</time>
      </trkpt>
      <trkpt lat="45.98811" lon="4.87651">
        <ele>279.700012207</ele>
        <time>2015-07-03T09:41:13.409Z</time>
      </trkpt>
      <trkpt lat="45.98812" lon="4.87657">
        <ele>279.600006104</ele>
        <time>2015-07-03T09:41:14.386Z</time>
      </trkpt>
      <trkpt lat="45.98814" lon="4.87663">
        <ele>279.399993896</ele>
        <time>2015-07-03T09:41:15.385Z</time>
      </trkpt>
      <trkpt lat="45.98815" lon="4.8767">
        <ele>279.5</ele>
        <time>2015-07-03T09:41:16.385Z</time>
      </trkpt>
      <trkpt lat="45.98817" lon="4.87676">
        <ele>279.399993896</ele>
        <time>2015-07-03T09:41:17.385Z</time>
      </trkpt>
      <trkpt lat="45.98819" lon="4.87683">
        <ele>279.399993896</ele>
        <time>2015-07-03T09:41:18.387Z</time>
      </trkpt>
      <trkpt lat="45.9882" lon="4.87691">
        <ele>279.600006104</ele>
        <time>2015-07-03T09:41:19.385Z</time>
      </trkpt>
      <trkpt lat="45.98821" lon="4.87699">
        <ele>279.600006104</ele>
        <time>2015-07-03T09:41:20.422Z</time>
      </trkpt>
      <trkpt lat="45.98823" lon="4.87705">
        <ele>279.5</ele>
        <time>2015-07-03T09:41:21.385Z</time>
      </trkpt>
      <trkpt lat="45.98824" lon="4.87712">
        <ele>279.5</ele>
        <time>2015-07-03T09:41:22.386Z</time>
      </trkpt>
      <trkpt lat="45.98828" lon="4.87721">
        <ele>279.600006104</ele>
        <time>2015-07-03T09:41:23.386Z</time>
      </trkpt>
      <trkpt lat="45.9883" lon="4.87729">
        <ele>279.600006104</ele>
        <time>2015-07-03T09:41:24.387Z</time>
      </trkpt>
      <trkpt lat="45.98831" lon="4.87735">
        <ele>279.600006104</ele>
        <time>2015-07-03T09:41:25.414Z</time>
      </trkpt>
      <trkpt lat="45.98833" lon="4.87742">
        <ele>279.5</ele>
        <time>2015-07-03T09:41:26.386Z</time>
      </trkpt>
      <trkpt lat="45.98835" lon="4.87749">
        <ele>279.5</ele>
        <time>2015-07-03T09:41:27.391Z</time>
      </trkpt>
      <trkpt lat="45.98838" lon="4.87757">
        <ele>279.5</ele>
        <time>2015-07-03T09:41:28.385Z</time>
      </trkpt>
      <trkpt lat="45.98839" lon="4.87763">
        <ele>279.399993896</ele>
        <time>2015-07-03T09:41:29.385Z</time>
      </trkpt>
      <trkpt lat="45.98842" lon="4.87769">
        <ele>279.200012207</ele>
        <time>2015-07-03T09:41:30.389Z</time>
      </trkpt>
      <trkpt lat="45.98844" lon="4.87775">
        <ele>279.200012207</ele>
        <time>2015-07-03T09:41:31.414Z</time>
      </trkpt>
      <trkpt lat="45.98846" lon="4.87781">
        <ele>279.200012207</ele>
        <time>2015-07-03T09:41:32.386Z</time>
      </trkpt>
      <trkpt lat="45.98848" lon="4.87788">
        <ele>279.100006104</ele>
        <time>2015-07-03T09:41:33.386Z</time>
      </trkpt>
      <trkpt lat="45.98851" lon="4.87794">
        <ele>278.799987793</ele>
        <time>2015-07-03T09:41:34.384Z</time>
      </trkpt>
      <trkpt lat="45.98854" lon="4.87801">
        <ele>278.600006104</ele>
        <time>2015-07-03T09:41:35.386Z</time>
      </trkpt>
      <trkpt lat="45.98856" lon="4.87808">
        <ele>278.5</ele>
        <time>2015-07-03T09:41:36.406Z</time>
      </trkpt>
      <trkpt lat="45.98859" lon="4.87813">
        <ele>278.5</ele>
        <time>2015-07-03T09:41:37.385Z</time>
      </trkpt>
      <trkpt lat="45.98862" lon="4.8782">
        <ele>278.5</ele>
        <time>2015-07-03T09:41:38.38Z</time>
      </trkpt>
      <trkpt lat="45.98864" lon="4.87825">
        <ele>278.600006104</ele>
        <time>2015-07-03T09:41:39.406Z</time>
      </trkpt>
      <trkpt lat="45.98867" lon="4.87831">
        <ele>278.700012207</ele>
        <time>2015-07-03T09:41:40.386Z</time>
      </trkpt>
      <trkpt lat="45.9887" lon="4.87837">
        <ele>278.799987793</ele>
        <time>2015-07-03T09:41:41.386Z</time>
      </trkpt>
      <trkpt lat="45.98873" lon="4.87844">
        <ele>279</ele>
        <time>2015-07-03T09:41:42.388Z</time>
      </trkpt>
      <trkpt lat="45.98876" lon="4.8785">
        <ele>279.100006104</ele>
        <time>2015-07-03T09:41:43.385Z</time>
      </trkpt>
      <trkpt lat="45.98879" lon="4.87855">
        <ele>279</ele>
        <time>2015-07-03T09:41:44.386Z</time>
      </trkpt>
      <trkpt lat="45.98882" lon="4.8786">
        <ele>278.799987793</ele>
        <time>2015-07-03T09:41:45.385Z</time>
      </trkpt>
      <trkpt lat="45.98885" lon="4.87866">
        <ele>278.899993896</ele>
        <time>2015-07-03T09:41:46.385Z</time>
      </trkpt>
      <trkpt lat="45.98888" lon="4.87871">
        <ele>278.799987793</ele>
        <time>2015-07-03T09:41:47.401Z</time>
      </trkpt>
      <trkpt lat="45.98892" lon="4.87876">
        <ele>278.700012207</ele>
        <time>2015-07-03T09:41:48.388Z</time>
      </trkpt>
      <trkpt lat="45.98895" lon="4.87882">
        <ele>278.399993896</ele>
        <time>2015-07-03T09:41:49.387Z</time>
      </trkpt>
      <trkpt lat="45.98899" lon="4.87887">
        <ele>277.799987793</ele>
        <time>2015-07-03T09:41:50.386Z</time>
      </trkpt>
      <trkpt lat="45.98903" lon="4.87893">
        <ele>276.899993896</ele>
        <time>2015-07-03T09:41:51.386Z</time>
      </trkpt>
      <trkpt lat="45.98906" lon="4.87898">
        <ele>276.399993896</ele>
        <time>2015-07-03T09:41:52.387Z</time>
      </trkpt>
      <trkpt lat="45.98909" lon="4.87903">
        <ele>276.200012207</ele>
        <time>2015-07-03T09:41:53.388Z</time>
      </trkpt>
      <trkpt lat="45.98911" lon="4.87908">
        <ele>275.799987793</ele>
        <time>2015-07-03T09:41:54.388Z</time>
      </trkpt>
      <trkpt lat="45.98915" lon="4.87912">
        <ele>275.700012207</ele>
        <time>2015-07-03T09:41:55.387Z</time>
      </trkpt>
      <trkpt lat="45.98919" lon="4.87916">
        <ele>275.600006104</ele>
        <time>2015-07-03T09:41:56.388Z</time>
      </trkpt>
      <trkpt lat="45.98926" lon="4.87921">
        <ele>275.5</ele>
        <time>2015-07-03T09:41:58.402Z</time>
      </trkpt>
      <trkpt lat="45.98929" lon="4.87924">
        <ele>275.299987793</ele>
        <time>2015-07-03T09:41:59.387Z</time>
      </trkpt>
      <trkpt lat="45.98935" lon="4.87928">
        <ele>275.200012207</ele>
        <time>2015-07-03T09:42:01.385Z</time>
      </trkpt>
      <trkpt lat="45.98939" lon="4.87929">
        <ele>275.200012207</ele>
        <time>2015-07-03T09:42:02.386Z</time>
      </trkpt>
      <trkpt lat="45.98946" lon="4.87934">
        <ele>275.100006104</ele>
        <time>2015-07-03T09:42:04.386Z</time>
      </trkpt>
      <trkpt lat="45.98949" lon="4.87936">
        <ele>275.100006104</ele>
        <time>2015-07-03T09:42:05.386Z</time>
      </trkpt>
      <trkpt lat="45.98955" lon="4.87937">
        <ele>275.5</ele>
        <time>2015-07-03T09:42:07.385Z</time>
      </trkpt>
      <trkpt lat="45.98959" lon="4.87939">
        <ele>275.5</ele>
        <time>2015-07-03T09:42:08.385Z</time>
      </trkpt>
      <trkpt lat="45.98965" lon="4.87942">
        <ele>275.600006104</ele>
        <time>2015-07-03T09:42:10.385Z</time>
      </trkpt>
      <trkpt lat="45.98969" lon="4.87943">
        <ele>275.700012207</ele>
        <time>2015-07-03T09:42:11.388Z</time>
      </trkpt>
      <trkpt lat="45.98975" lon="4.87946">
        <ele>276.200012207</ele>
        <time>2015-07-03T09:42:13.386Z</time>
      </trkpt>
      <trkpt lat="45.98978" lon="4.87948">
        <ele>276.299987793</ele>
        <time>2015-07-03T09:42:14.386Z</time>
      </trkpt>
      <trkpt lat="45.98985" lon="4.87952">
        <ele>276.799987793</ele>
        <time>2015-07-03T09:42:16.385Z</time>
      </trkpt>
      <trkpt lat="45.98988" lon="4.87954">
        <ele>277</ele>
        <time>2015-07-03T09:42:17.386Z</time>
      </trkpt>
      <trkpt lat="45.98995" lon="4.87962">
        <ele>277.600006104</ele>
        <time>2015-07-03T09:42:20.387Z</time>
      </trkpt>
      <trkpt lat="45.98998" lon="4.87963">
        <ele>277.799987793</ele>
        <time>2015-07-03T09:42:21.425Z</time>
      </trkpt>
      <trkpt lat="45.99004" lon="4.87967">
        <ele>278.700012207</ele>
        <time>2015-07-03T09:42:23.385Z</time>
      </trkpt>
      <trkpt lat="45.99007" lon="4.87968">
        <ele>278.799987793</ele>
        <time>2015-07-03T09:42:24.387Z</time>
      </trkpt>
      <trkpt lat="45.99015" lon="4.87972">
        <ele>279.200012207</ele>
        <time>2015-07-03T09:42:26.4Z</time>
      </trkpt>
      <trkpt lat="45.99019" lon="4.87975">
        <ele>279.600006104</ele>
        <time>2015-07-03T09:42:27.388Z</time>
      </trkpt>
      <trkpt lat="45.99023" lon="4.87977">
        <ele>279.799987793</ele>
        <time>2015-07-03T09:42:28.385Z</time>
      </trkpt>
      <trkpt lat="45.99028" lon="4.87982">
        <ele>279.799987793</ele>
        <time>2015-07-03T09:42:29.385Z</time>
      </trkpt>
      <trkpt lat="45.99033" lon="4.87985">
        <ele>279.799987793</ele>
        <time>2015-07-03T09:42:30.389Z</time>
      </trkpt>
      <trkpt lat="45.99037" lon="4.87987">
        <ele>280.200012207</ele>
        <time>2015-07-03T09:42:31.386Z</time>
      </trkpt>
      <trkpt lat="45.99045" lon="4.8799">
        <ele>280.200012207</ele>
        <time>2015-07-03T09:42:33.385Z</time>
      </trkpt>
      <trkpt lat="45.99049" lon="4.87993">
        <ele>280.299987793</ele>
        <time>2015-07-03T09:42:34.405Z</time>
      </trkpt>
      <trkpt lat="45.99056" lon="4.87997">
        <ele>280.200012207</ele>
        <time>2015-07-03T09:42:36.382Z</time>
      </trkpt>
      <trkpt lat="45.9906" lon="4.87998">
        <ele>279.899993896</ele>
        <time>2015-07-03T09:42:37.386Z</time>
      </trkpt>
      <trkpt lat="45.99068" lon="4.88002">
        <ele>279.5</ele>
        <time>2015-07-03T09:42:39.385Z</time>
      </trkpt>
      <trkpt lat="45.99072" lon="4.88004">
        <ele>279.299987793</ele>
        <time>2015-07-03T09:42:40.385Z</time>
      </trkpt>
      <trkpt lat="45.9908" lon="4.88007">
        <ele>279.299987793</ele>
        <time>2015-07-03T09:42:42.389Z</time>
      </trkpt>
      <trkpt lat="45.99084" lon="4.88009">
        <ele>278.899993896</ele>
        <time>2015-07-03T09:42:43.386Z</time>
      </trkpt>
      <trkpt lat="45.99092" lon="4.88013">
        <ele>278.200012207</ele>
        <time>2015-07-03T09:42:45.414Z</time>
      </trkpt>
      <trkpt lat="45.99096" lon="4.88016">
        <ele>277.899993896</ele>
        <time>2015-07-03T09:42:46.385Z</time>
      </trkpt>
      <trkpt lat="45.99103" lon="4.8802">
        <ele>277</ele>
        <time>2015-07-03T09:42:48.388Z</time>
      </trkpt>
      <trkpt lat="45.99107" lon="4.88022">
        <ele>277.399993896</ele>
        <time>2015-07-03T09:42:49.385Z</time>
      </trkpt>
      <trkpt lat="45.99115" lon="4.88027">
        <ele>277</ele>
        <time>2015-07-03T09:42:51.386Z</time>
      </trkpt>
      <trkpt lat="45.99119" lon="4.88029">
        <ele>277.200012207</ele>
        <time>2015-07-03T09:42:52.397Z</time>
      </trkpt>
      <trkpt lat="45.99127" lon="4.88034">
        <ele>277.299987793</ele>
        <time>2015-07-03T09:42:54.389Z</time>
      </trkpt>
      <trkpt lat="45.99131" lon="4.88036">
        <ele>277.200012207</ele>
        <time>2015-07-03T09:42:55.384Z</time>
      </trkpt>
      <trkpt lat="45.99139" lon="4.8804">
        <ele>278.100006104</ele>
        <time>2015-07-03T09:42:57.387Z</time>
      </trkpt>
      <trkpt lat="45.99142" lon="4.88042">
        <ele>278.299987793</ele>
        <time>2015-07-03T09:42:58.426Z</time>
      </trkpt>
      <trkpt lat="45.9915" lon="4.88047">
        <ele>278.600006104</ele>
        <time>2015-07-03T09:43:00.388Z</time>
      </trkpt>
      <trkpt lat="45.99153" lon="4.8805">
        <ele>278.600006104</ele>
        <time>2015-07-03T09:43:01.399Z</time>
      </trkpt>
      <trkpt lat="45.99161" lon="4.88054">
        <ele>278.700012207</ele>
        <time>2015-07-03T09:43:03.401Z</time>
      </trkpt>
      <trkpt lat="45.99164" lon="4.88057">
        <ele>278.600006104</ele>
        <time>2015-07-03T09:43:04.385Z</time>
      </trkpt>
      <trkpt lat="45.9917" lon="4.88063">
        <ele>278.799987793</ele>
        <time>2015-07-03T09:43:06.391Z</time>
      </trkpt>
      <trkpt lat="45.99174" lon="4.88065">
        <ele>278.899993896</ele>
        <time>2015-07-03T09:43:07.386Z</time>
      </trkpt>
      <trkpt lat="45.99181" lon="4.88071">
        <ele>279.299987793</ele>
        <time>2015-07-03T09:43:09.408Z</time>
      </trkpt>
      <trkpt lat="45.99185" lon="4.88074">
        <ele>279.5</ele>
        <time>2015-07-03T09:43:10.385Z</time>
      </trkpt>
      <trkpt lat="45.99192" lon="4.8808">
        <ele>279.600006104</ele>
        <time>2015-07-03T09:43:12.406Z</time>
      </trkpt>
      <trkpt lat="45.99196" lon="4.88084">
        <ele>279.5</ele>
        <time>2015-07-03T09:43:13.386Z</time>
      </trkpt>
      <trkpt lat="45.992" lon="4.88087">
        <ele>279.600006104</ele>
        <time>2015-07-03T09:43:14.386Z</time>
      </trkpt>
      <trkpt lat="45.99204" lon="4.88091">
        <ele>279.700012207</ele>
        <time>2015-07-03T09:43:15.385Z</time>
      </trkpt>
      <trkpt lat="45.99208" lon="4.88094">
        <ele>280</ele>
        <time>2015-07-03T09:43:16.385Z</time>
      </trkpt>
      <trkpt lat="45.99212" lon="4.88097">
        <ele>280.100006104</ele>
        <time>2015-07-03T09:43:17.418Z</time>
      </trkpt>
      <trkpt lat="45.99216" lon="4.88101">
        <ele>280.399993896</ele>
        <time>2015-07-03T09:43:18.425Z</time>
      </trkpt>
      <trkpt lat="45.9922" lon="4.88104">
        <ele>280.299987793</ele>
        <time>2015-07-03T09:43:19.385Z</time>
      </trkpt>
      <trkpt lat="45.99224" lon="4.88108">
        <ele>280.399993896</ele>
        <time>2015-07-03T09:43:20.493Z</time>
      </trkpt>
      <trkpt lat="45.99228" lon="4.88111">
        <ele>280.600006104</ele>
        <time>2015-07-03T09:43:21.389Z</time>
      </trkpt>
      <trkpt lat="45.99231" lon="4.88114">
        <ele>280.600006104</ele>
        <time>2015-07-03T09:43:22.387Z</time>
      </trkpt>
      <trkpt lat="45.99236" lon="4.88117">
        <ele>280.600006104</ele>
        <time>2015-07-03T09:43:23.42Z</time>
      </trkpt>
      <trkpt lat="45.9924" lon="4.88121">
        <ele>280.399993896</ele>
        <time>2015-07-03T09:43:24.389Z</time>
      </trkpt>
      <trkpt lat="45.99243" lon="4.88125">
        <ele>280.399993896</ele>
        <time>2015-07-03T09:43:25.449Z</time>
      </trkpt>
      <trkpt lat="45.99247" lon="4.88129">
        <ele>280.399993896</ele>
        <time>2015-07-03T09:43:26.397Z</time>
      </trkpt>
      <trkpt lat="45.99251" lon="4.88133">
        <ele>280.399993896</ele>
        <time>2015-07-03T09:43:27.395Z</time>
      </trkpt>
      <trkpt lat="45.99255" lon="4.88136">
        <ele>280.299987793</ele>
        <time>2015-07-03T09:43:28.395Z</time>
      </trkpt>
      <trkpt lat="45.99259" lon="4.8814">
        <ele>280.299987793</ele>
        <time>2015-07-03T09:43:29.393Z</time>
      </trkpt>
      <trkpt lat="45.99263" lon="4.88143">
        <ele>280.399993896</ele>
        <time>2015-07-03T09:43:30.395Z</time>
      </trkpt>
      <trkpt lat="45.99267" lon="4.88147">
        <ele>280.399993896</ele>
        <time>2015-07-03T09:43:31.392Z</time>
      </trkpt>
      <trkpt lat="45.99271" lon="4.8815">
        <ele>280.399993896</ele>
        <time>2015-07-03T09:43:32.457Z</time>
      </trkpt>
      <trkpt lat="45.99275" lon="4.88153">
        <ele>280.200012207</ele>
        <time>2015-07-03T09:43:33.411Z</time>
      </trkpt>
      <trkpt lat="45.99279" lon="4.88156">
        <ele>280.399993896</ele>
        <time>2015-07-03T09:43:34.389Z</time>
      </trkpt>
      <trkpt lat="45.99283" lon="4.8816">
        <ele>280.5</ele>
        <time>2015-07-03T09:43:35.391Z</time>
      </trkpt>
      <trkpt lat="45.99287" lon="4.88163">
        <ele>280.5</ele>
        <time>2015-07-03T09:43:36.394Z</time>
      </trkpt>
      <trkpt lat="45.99292" lon="4.88166">
        <ele>280.399993896</ele>
        <time>2015-07-03T09:43:37.393Z</time>
      </trkpt>
      <trkpt lat="45.99297" lon="4.88169">
        <ele>280.399993896</ele>
        <time>2015-07-03T09:43:38.39Z</time>
      </trkpt>
      <trkpt lat="45.99301" lon="4.88173">
        <ele>280.399993896</ele>
        <time>2015-07-03T09:43:39.388Z</time>
      </trkpt>
      <trkpt lat="45.99306" lon="4.88177">
        <ele>280.399993896</ele>
        <time>2015-07-03T09:43:40.388Z</time>
      </trkpt>
      <trkpt lat="45.99311" lon="4.88181">
        <ele>280.299987793</ele>
        <time>2015-07-03T09:43:41.39Z</time>
      </trkpt>
      <trkpt lat="45.99315" lon="4.88185">
        <ele>280.200012207</ele>
        <time>2015-07-03T09:43:42.394Z</time>
      </trkpt>
      <trkpt lat="45.99319" lon="4.88188">
        <ele>280.100006104</ele>
        <time>2015-07-03T09:43:43.389Z</time>
      </trkpt>
      <trkpt lat="45.99323" lon="4.88193">
        <ele>280.100006104</ele>
        <time>2015-07-03T09:43:44.406Z</time>
      </trkpt>
      <trkpt lat="45.99327" lon="4.88196">
        <ele>280.200012207</ele>
        <time>2015-07-03T09:43:45.387Z</time>
      </trkpt>
      <trkpt lat="45.99331" lon="4.882">
        <ele>280.200012207</ele>
        <time>2015-07-03T09:43:46.387Z</time>
      </trkpt>
      <trkpt lat="45.99335" lon="4.88203">
        <ele>280.299987793</ele>
        <time>2015-07-03T09:43:47.389Z</time>
      </trkpt>
      <trkpt lat="45.99343" lon="4.8821">
        <ele>279.700012207</ele>
        <time>2015-07-03T09:43:49.387Z</time>
      </trkpt>
      <trkpt lat="45.99346" lon="4.88214">
        <ele>279.200012207</ele>
        <time>2015-07-03T09:43:50.388Z</time>
      </trkpt>
      <trkpt lat="45.9935" lon="4.88218">
        <ele>279.399993896</ele>
        <time>2015-07-03T09:43:51.388Z</time>
      </trkpt>
      <trkpt lat="45.99354" lon="4.8822">
        <ele>279.5</ele>
        <time>2015-07-03T09:43:52.389Z</time>
      </trkpt>
      <trkpt lat="45.99358" lon="4.88224">
        <ele>279.299987793</ele>
        <time>2015-07-03T09:43:53.386Z</time>
      </trkpt>
      <trkpt lat="45.99362" lon="4.88228">
        <ele>279.399993896</ele>
        <time>2015-07-03T09:43:54.389Z</time>
      </trkpt>
      <trkpt lat="45.99366" lon="4.88232">
        <ele>279.600006104</ele>
        <time>2015-07-03T09:43:55.392Z</time>
      </trkpt>
      <trkpt lat="45.99369" lon="4.88237">
        <ele>279.5</ele>
        <time>2015-07-03T09:43:56.389Z</time>
      </trkpt>
      <trkpt lat="45.99373" lon="4.88242">
        <ele>279.5</ele>
        <time>2015-07-03T09:43:57.387Z</time>
      </trkpt>
      <trkpt lat="45.99376" lon="4.88246">
        <ele>279.5</ele>
        <time>2015-07-03T09:43:58.389Z</time>
      </trkpt>
      <trkpt lat="45.99379" lon="4.88251">
        <ele>279.399993896</ele>
        <time>2015-07-03T09:43:59.387Z</time>
      </trkpt>
      <trkpt lat="45.99382" lon="4.88257">
        <ele>279.5</ele>
        <time>2015-07-03T09:44:00.392Z</time>
      </trkpt>
      <trkpt lat="45.99384" lon="4.88264">
        <ele>279.5</ele>
        <time>2015-07-03T09:44:01.403Z</time>
      </trkpt>
      <trkpt lat="45.99386" lon="4.8827">
        <ele>279.5</ele>
        <time>2015-07-03T09:44:02.388Z</time>
      </trkpt>
      <trkpt lat="45.99389" lon="4.88278">
        <ele>280</ele>
        <time>2015-07-03T09:44:03.388Z</time>
      </trkpt>
      <trkpt lat="45.99392" lon="4.88285">
        <ele>279.799987793</ele>
        <time>2015-07-03T09:44:04.386Z</time>
      </trkpt>
      <trkpt lat="45.99394" lon="4.88291">
        <ele>279.899993896</ele>
        <time>2015-07-03T09:44:05.392Z</time>
      </trkpt>
      <trkpt lat="45.99396" lon="4.88298">
        <ele>280</ele>
        <time>2015-07-03T09:44:06.389Z</time>
      </trkpt>
      <trkpt lat="45.99399" lon="4.88305">
        <ele>280.100006104</ele>
        <time>2015-07-03T09:44:07.387Z</time>
      </trkpt>
      <trkpt lat="45.99402" lon="4.88312">
        <ele>280.299987793</ele>
        <time>2015-07-03T09:44:08.39Z</time>
      </trkpt>
      <trkpt lat="45.99405" lon="4.88318">
        <ele>280.5</ele>
        <time>2015-07-03T09:44:09.388Z</time>
      </trkpt>
      <trkpt lat="45.99407" lon="4.88325">
        <ele>280.600006104</ele>
        <time>2015-07-03T09:44:10.406Z</time>
      </trkpt>
      <trkpt lat="45.9941" lon="4.88331">
        <ele>280.600006104</ele>
        <time>2015-07-03T09:44:11.388Z</time>
      </trkpt>
      <trkpt lat="45.99412" lon="4.88338">
        <ele>280.700012207</ele>
        <time>2015-07-03T09:44:12.436Z</time>
      </trkpt>
      <trkpt lat="45.99415" lon="4.88345">
        <ele>281.100006104</ele>
        <time>2015-07-03T09:44:13.438Z</time>
      </trkpt>
      <trkpt lat="45.99417" lon="4.88351">
        <ele>281.5</ele>
        <time>2015-07-03T09:44:14.39Z</time>
      </trkpt>
      <trkpt lat="45.99419" lon="4.88358">
        <ele>281.899993896</ele>
        <time>2015-07-03T09:44:15.386Z</time>
      </trkpt>
      <trkpt lat="45.99422" lon="4.88364">
        <ele>282.399993896</ele>
        <time>2015-07-03T09:44:16.388Z</time>
      </trkpt>
      <trkpt lat="45.99425" lon="4.88371">
        <ele>282.899993896</ele>
        <time>2015-07-03T09:44:17.385Z</time>
      </trkpt>
      <trkpt lat="45.99428" lon="4.88378">
        <ele>283.100006104</ele>
        <time>2015-07-03T09:44:18.389Z</time>
      </trkpt>
      <trkpt lat="45.9943" lon="4.88384">
        <ele>283.5</ele>
        <time>2015-07-03T09:44:19.41Z</time>
      </trkpt>
      <trkpt lat="45.99433" lon="4.8839">
        <ele>283.5</ele>
        <time>2015-07-03T09:44:20.388Z</time>
      </trkpt>
      <trkpt lat="45.99438" lon="4.88401">
        <ele>283.600006104</ele>
        <time>2015-07-03T09:44:22.391Z</time>
      </trkpt>
      <trkpt lat="45.99442" lon="4.88405">
        <ele>283.700012207</ele>
        <time>2015-07-03T09:44:23.387Z</time>
      </trkpt>
      <trkpt lat="45.99446" lon="4.88409">
        <ele>284</ele>
        <time>2015-07-03T09:44:24.446Z</time>
      </trkpt>
      <trkpt lat="45.9945" lon="4.88413">
        <ele>284</ele>
        <time>2015-07-03T09:44:25.387Z</time>
      </trkpt>
      <trkpt lat="45.99454" lon="4.88417">
        <ele>284.200012207</ele>
        <time>2015-07-03T09:44:26.409Z</time>
      </trkpt>
      <trkpt lat="45.99458" lon="4.88421">
        <ele>284.700012207</ele>
        <time>2015-07-03T09:44:27.387Z</time>
      </trkpt>
      <trkpt lat="45.99462" lon="4.88425">
        <ele>284.700012207</ele>
        <time>2015-07-03T09:44:28.386Z</time>
      </trkpt>
      <trkpt lat="45.99467" lon="4.8843">
        <ele>284.899993896</ele>
        <time>2015-07-03T09:44:29.385Z</time>
      </trkpt>
      <trkpt lat="45.99471" lon="4.88434">
        <ele>285</ele>
        <time>2015-07-03T09:44:30.392Z</time>
      </trkpt>
      <trkpt lat="45.99475" lon="4.88439">
        <ele>285.100006104</ele>
        <time>2015-07-03T09:44:31.386Z</time>
      </trkpt>
      <trkpt lat="45.99479" lon="4.88444">
        <ele>285.299987793</ele>
        <time>2015-07-03T09:44:32.422Z</time>
      </trkpt>
      <trkpt lat="45.99483" lon="4.88449">
        <ele>285.5</ele>
        <time>2015-07-03T09:44:33.387Z</time>
      </trkpt>
      <trkpt lat="45.99486" lon="4.88455">
        <ele>285.5</ele>
        <time>2015-07-03T09:44:34.385Z</time>
      </trkpt>
      <trkpt lat="45.9949" lon="4.8846">
        <ele>286.299987793</ele>
        <time>2015-07-03T09:44:35.387Z</time>
      </trkpt>
      <trkpt lat="45.99492" lon="4.88467">
        <ele>286.600006104</ele>
        <time>2015-07-03T09:44:36.446Z</time>
      </trkpt>
      <trkpt lat="45.99495" lon="4.88473">
        <ele>286.799987793</ele>
        <time>2015-07-03T09:44:37.387Z</time>
      </trkpt>
      <trkpt lat="45.99498" lon="4.88479">
        <ele>287</ele>
        <time>2015-07-03T09:44:38.388Z</time>
      </trkpt>
      <trkpt lat="45.99501" lon="4.88485">
        <ele>287.200012207</ele>
        <time>2015-07-03T09:44:39.386Z</time>
      </trkpt>
      <trkpt lat="45.99504" lon="4.88491">
        <ele>287.200012207</ele>
        <time>2015-07-03T09:44:40.386Z</time>
      </trkpt>
      <trkpt lat="45.99507" lon="4.88496">
        <ele>287.200012207</ele>
        <time>2015-07-03T09:44:41.386Z</time>
      </trkpt>
      <trkpt lat="45.9951" lon="4.88502">
        <ele>287.100006104</ele>
        <time>2015-07-03T09:44:42.39Z</time>
      </trkpt>
      <trkpt lat="45.99513" lon="4.88507">
        <ele>287.200012207</ele>
        <time>2015-07-03T09:44:43.387Z</time>
      </trkpt>
      <trkpt lat="45.99515" lon="4.88513">
        <ele>287.399993896</ele>
        <time>2015-07-03T09:44:44.386Z</time>
      </trkpt>
      <trkpt lat="45.99518" lon="4.88519">
        <ele>287.600006104</ele>
        <time>2015-07-03T09:44:45.386Z</time>
      </trkpt>
      <trkpt lat="45.99521" lon="4.88525">
        <ele>287.899993896</ele>
        <time>2015-07-03T09:44:46.386Z</time>
      </trkpt>
      <trkpt lat="45.99524" lon="4.88531">
        <ele>288.100006104</ele>
        <time>2015-07-03T09:44:47.403Z</time>
      </trkpt>
      <trkpt lat="45.99527" lon="4.88538">
        <ele>288.200012207</ele>
        <time>2015-07-03T09:44:48.388Z</time>
      </trkpt>
      <trkpt lat="45.9953" lon="4.88544">
        <ele>288.299987793</ele>
        <time>2015-07-03T09:44:49.388Z</time>
      </trkpt>
      <trkpt lat="45.99532" lon="4.88551">
        <ele>288.5</ele>
        <time>2015-07-03T09:44:50.389Z</time>
      </trkpt>
      <trkpt lat="45.99534" lon="4.88558">
        <ele>288.5</ele>
        <time>2015-07-03T09:44:51.387Z</time>
      </trkpt>
      <trkpt lat="45.99536" lon="4.88565">
        <ele>288.700012207</ele>
        <time>2015-07-03T09:44:52.395Z</time>
      </trkpt>
      <trkpt lat="45.99538" lon="4.88571">
        <ele>288.899993896</ele>
        <time>2015-07-03T09:44:53.39Z</time>
      </trkpt>
      <trkpt lat="45.9954" lon="4.88578">
        <ele>288.899993896</ele>
        <time>2015-07-03T09:44:54.388Z</time>
      </trkpt>
      <trkpt lat="45.99542" lon="4.88585">
        <ele>289.100006104</ele>
        <time>2015-07-03T09:44:55.386Z</time>
      </trkpt>
      <trkpt lat="45.99544" lon="4.88592">
        <ele>289.299987793</ele>
        <time>2015-07-03T09:44:56.387Z</time>
      </trkpt>
      <trkpt lat="45.99545" lon="4.88598">
        <ele>289.5</ele>
        <time>2015-07-03T09:44:57.386Z</time>
      </trkpt>
      <trkpt lat="45.99545" lon="4.88605">
        <ele>289.399993896</ele>
        <time>2015-07-03T09:44:58.386Z</time>
      </trkpt>
      <trkpt lat="45.99546" lon="4.88612">
        <ele>289.299987793</ele>
        <time>2015-07-03T09:44:59.386Z</time>
      </trkpt>
      <trkpt lat="45.99546" lon="4.88619">
        <ele>289.299987793</ele>
        <time>2015-07-03T09:45:00.389Z</time>
      </trkpt>
      <trkpt lat="45.99548" lon="4.88627">
        <ele>289.299987793</ele>
        <time>2015-07-03T09:45:01.387Z</time>
      </trkpt>
      <trkpt lat="45.99548" lon="4.88634">
        <ele>289.399993896</ele>
        <time>2015-07-03T09:45:02.386Z</time>
      </trkpt>
      <trkpt lat="45.99549" lon="4.88642">
        <ele>289.299987793</ele>
        <time>2015-07-03T09:45:03.4Z</time>
      </trkpt>
      <trkpt lat="45.9955" lon="4.88649">
        <ele>289.200012207</ele>
        <time>2015-07-03T09:45:04.386Z</time>
      </trkpt>
      <trkpt lat="45.99551" lon="4.88657">
        <ele>289.200012207</ele>
        <time>2015-07-03T09:45:05.386Z</time>
      </trkpt>
      <trkpt lat="45.99551" lon="4.88664">
        <ele>289.299987793</ele>
        <time>2015-07-03T09:45:06.388Z</time>
      </trkpt>
      <trkpt lat="45.99552" lon="4.88669">
        <ele>289.200012207</ele>
        <time>2015-07-03T09:45:07.386Z</time>
      </trkpt>
      <trkpt lat="45.99554" lon="4.88681">
        <ele>289</ele>
        <time>2015-07-03T09:45:09.388Z</time>
      </trkpt>
      <trkpt lat="45.99555" lon="4.88686">
        <ele>288.799987793</ele>
        <time>2015-07-03T09:45:10.386Z</time>
      </trkpt>
      <trkpt lat="45.99556" lon="4.88698">
        <ele>288.200012207</ele>
        <time>2015-07-03T09:45:12.391Z</time>
      </trkpt>
      <trkpt lat="45.99557" lon="4.88704">
        <ele>288.200012207</ele>
        <time>2015-07-03T09:45:13.387Z</time>
      </trkpt>
      <trkpt lat="45.99558" lon="4.88714">
        <ele>288.200012207</ele>
        <time>2015-07-03T09:45:15.386Z</time>
      </trkpt>
      <trkpt lat="45.99559" lon="4.88719">
        <ele>288</ele>
        <time>2015-07-03T09:45:16.386Z</time>
      </trkpt>
      <trkpt lat="45.9956" lon="4.8873">
        <ele>287.5</ele>
        <time>2015-07-03T09:45:18.391Z</time>
      </trkpt>
      <trkpt lat="45.99561" lon="4.88736">
        <ele>287.399993896</ele>
        <time>2015-07-03T09:45:19.387Z</time>
      </trkpt>
      <trkpt lat="45.99562" lon="4.88742">
        <ele>286.799987793</ele>
        <time>2015-07-03T09:45:20.388Z</time>
      </trkpt>
      <trkpt lat="45.99563" lon="4.88749">
        <ele>287.100006104</ele>
        <time>2015-07-03T09:45:21.387Z</time>
      </trkpt>
      <trkpt lat="45.99563" lon="4.88756">
        <ele>286.600006104</ele>
        <time>2015-07-03T09:45:22.385Z</time>
      </trkpt>
      <trkpt lat="45.99563" lon="4.88764">
        <ele>286.299987793</ele>
        <time>2015-07-03T09:45:23.387Z</time>
      </trkpt>
      <trkpt lat="45.99564" lon="4.88771">
        <ele>286.200012207</ele>
        <time>2015-07-03T09:45:24.406Z</time>
      </trkpt>
      <trkpt lat="45.99565" lon="4.88778">
        <ele>286</ele>
        <time>2015-07-03T09:45:25.385Z</time>
      </trkpt>
      <trkpt lat="45.99566" lon="4.88786">
        <ele>285.799987793</ele>
        <time>2015-07-03T09:45:26.387Z</time>
      </trkpt>
      <trkpt lat="45.99566" lon="4.88793">
        <ele>286</ele>
        <time>2015-07-03T09:45:27.388Z</time>
      </trkpt>
      <trkpt lat="45.99567" lon="4.88801">
        <ele>285.899993896</ele>
        <time>2015-07-03T09:45:28.386Z</time>
      </trkpt>
      <trkpt lat="45.99568" lon="4.88808">
        <ele>286.399993896</ele>
        <time>2015-07-03T09:45:29.386Z</time>
      </trkpt>
      <trkpt lat="45.99569" lon="4.88816">
        <ele>286.299987793</ele>
        <time>2015-07-03T09:45:30.416Z</time>
      </trkpt>
      <trkpt lat="45.99569" lon="4.88823">
        <ele>286.5</ele>
        <time>2015-07-03T09:45:31.385Z</time>
      </trkpt>
      <trkpt lat="45.9957" lon="4.88831">
        <ele>286.399993896</ele>
        <time>2015-07-03T09:45:32.391Z</time>
      </trkpt>
      <trkpt lat="45.9957" lon="4.8884">
        <ele>286.5</ele>
        <time>2015-07-03T09:45:33.385Z</time>
      </trkpt>
      <trkpt lat="45.99571" lon="4.88848">
        <ele>286.399993896</ele>
        <time>2015-07-03T09:45:34.385Z</time>
      </trkpt>
      <trkpt lat="45.99572" lon="4.88855">
        <ele>286.399993896</ele>
        <time>2015-07-03T09:45:35.387Z</time>
      </trkpt>
      <trkpt lat="45.99573" lon="4.88863">
        <ele>286.200012207</ele>
        <time>2015-07-03T09:45:36.389Z</time>
      </trkpt>
      <trkpt lat="45.99572" lon="4.8887">
        <ele>286.5</ele>
        <time>2015-07-03T09:45:37.387Z</time>
      </trkpt>
      <trkpt lat="45.99573" lon="4.88877">
        <ele>286.600006104</ele>
        <time>2015-07-03T09:45:38.387Z</time>
      </trkpt>
      <trkpt lat="45.99574" lon="4.88884">
        <ele>286.5</ele>
        <time>2015-07-03T09:45:39.387Z</time>
      </trkpt>
      <trkpt lat="45.99575" lon="4.8889">
        <ele>286.399993896</ele>
        <time>2015-07-03T09:45:40.385Z</time>
      </trkpt>
      <trkpt lat="45.99576" lon="4.88897">
        <ele>286.200012207</ele>
        <time>2015-07-03T09:45:41.389Z</time>
      </trkpt>
      <trkpt lat="45.99577" lon="4.88904">
        <ele>285.899993896</ele>
        <time>2015-07-03T09:45:42.391Z</time>
      </trkpt>
      <trkpt lat="45.99578" lon="4.88911">
        <ele>285.799987793</ele>
        <time>2015-07-03T09:45:43.385Z</time>
      </trkpt>
      <trkpt lat="45.99578" lon="4.88918">
        <ele>285.700012207</ele>
        <time>2015-07-03T09:45:44.389Z</time>
      </trkpt>
      <trkpt lat="45.99579" lon="4.88925">
        <ele>285.600006104</ele>
        <time>2015-07-03T09:45:45.407Z</time>
      </trkpt>
      <trkpt lat="45.9958" lon="4.88932">
        <ele>285.399993896</ele>
        <time>2015-07-03T09:45:46.386Z</time>
      </trkpt>
      <trkpt lat="45.99581" lon="4.88939">
        <ele>285</ele>
        <time>2015-07-03T09:45:47.386Z</time>
      </trkpt>
      <trkpt lat="45.99581" lon="4.88946">
        <ele>284.799987793</ele>
        <time>2015-07-03T09:45:48.388Z</time>
      </trkpt>
      <trkpt lat="45.99582" lon="4.88952">
        <ele>284.700012207</ele>
        <time>2015-07-03T09:45:49.386Z</time>
      </trkpt>
      <trkpt lat="45.99583" lon="4.88959">
        <ele>284.5</ele>
        <time>2015-07-03T09:45:50.386Z</time>
      </trkpt>
      <trkpt lat="45.99584" lon="4.88965">
        <ele>284.899993896</ele>
        <time>2015-07-03T09:45:51.386Z</time>
      </trkpt>
      <trkpt lat="45.99583" lon="4.88972">
        <ele>284.299987793</ele>
        <time>2015-07-03T09:45:52.384Z</time>
      </trkpt>
      <trkpt lat="45.99584" lon="4.88979">
        <ele>284</ele>
        <time>2015-07-03T09:45:53.385Z</time>
      </trkpt>
      <trkpt lat="45.99585" lon="4.88986">
        <ele>283.899993896</ele>
        <time>2015-07-03T09:45:54.389Z</time>
      </trkpt>
      <trkpt lat="45.99586" lon="4.88993">
        <ele>284</ele>
        <time>2015-07-03T09:45:55.387Z</time>
      </trkpt>
      <trkpt lat="45.99586" lon="4.89001">
        <ele>284</ele>
        <time>2015-07-03T09:45:56.403Z</time>
      </trkpt>
      <trkpt lat="45.99586" lon="4.89009">
        <ele>284.100006104</ele>
        <time>2015-07-03T09:45:57.386Z</time>
      </trkpt>
      <trkpt lat="45.99586" lon="4.89016">
        <ele>283.899993896</ele>
        <time>2015-07-03T09:45:58.385Z</time>
      </trkpt>
      <trkpt lat="45.99586" lon="4.89023">
        <ele>284.100006104</ele>
        <time>2015-07-03T09:45:59.386Z</time>
      </trkpt>
      <trkpt lat="45.99586" lon="4.8903">
        <ele>284.299987793</ele>
        <time>2015-07-03T09:46:00.389Z</time>
      </trkpt>
      <trkpt lat="45.99585" lon="4.89037">
        <ele>284.5</ele>
        <time>2015-07-03T09:46:01.386Z</time>
      </trkpt>
      <trkpt lat="45.99585" lon="4.89044">
        <ele>284.600006104</ele>
        <time>2015-07-03T09:46:02.386Z</time>
      </trkpt>
      <trkpt lat="45.99584" lon="4.89052">
        <ele>284.5</ele>
        <time>2015-07-03T09:46:03.385Z</time>
      </trkpt>
      <trkpt lat="45.99584" lon="4.89059">
        <ele>284.600006104</ele>
        <time>2015-07-03T09:46:04.385Z</time>
      </trkpt>
      <trkpt lat="45.99583" lon="4.89066">
        <ele>284.799987793</ele>
        <time>2015-07-03T09:46:05.387Z</time>
      </trkpt>
      <trkpt lat="45.99583" lon="4.89073">
        <ele>285.399993896</ele>
        <time>2015-07-03T09:46:06.41Z</time>
      </trkpt>
      <trkpt lat="45.99581" lon="4.8908">
        <ele>285.600006104</ele>
        <time>2015-07-03T09:46:07.385Z</time>
      </trkpt>
      <trkpt lat="45.99581" lon="4.89087">
        <ele>285.700012207</ele>
        <time>2015-07-03T09:46:08.387Z</time>
      </trkpt>
      <trkpt lat="45.9958" lon="4.89095">
        <ele>285.700012207</ele>
        <time>2015-07-03T09:46:09.386Z</time>
      </trkpt>
      <trkpt lat="45.9958" lon="4.89102">
        <ele>285.799987793</ele>
        <time>2015-07-03T09:46:10.386Z</time>
      </trkpt>
      <trkpt lat="45.99579" lon="4.89109">
        <ele>285.899993896</ele>
        <time>2015-07-03T09:46:11.387Z</time>
      </trkpt>
      <trkpt lat="45.99579" lon="4.89116">
        <ele>286</ele>
        <time>2015-07-03T09:46:12.39Z</time>
      </trkpt>
      <trkpt lat="45.99578" lon="4.89124">
        <ele>286.399993896</ele>
        <time>2015-07-03T09:46:13.43Z</time>
      </trkpt>
      <trkpt lat="45.99578" lon="4.89131">
        <ele>286.399993896</ele>
        <time>2015-07-03T09:46:14.387Z</time>
      </trkpt>
      <trkpt lat="45.99578" lon="4.89138">
        <ele>287</ele>
        <time>2015-07-03T09:46:15.385Z</time>
      </trkpt>
      <trkpt lat="45.99578" lon="4.89144">
        <ele>287.5</ele>
        <time>2015-07-03T09:46:16.386Z</time>
      </trkpt>
      <trkpt lat="45.99579" lon="4.89152">
        <ele>287.700012207</ele>
        <time>2015-07-03T09:46:17.403Z</time>
      </trkpt>
      <trkpt lat="45.99579" lon="4.89158">
        <ele>287.899993896</ele>
        <time>2015-07-03T09:46:18.387Z</time>
      </trkpt>
      <trkpt lat="45.9958" lon="4.89166">
        <ele>287.899993896</ele>
        <time>2015-07-03T09:46:19.385Z</time>
      </trkpt>
      <trkpt lat="45.9958" lon="4.89173">
        <ele>288.100006104</ele>
        <time>2015-07-03T09:46:20.386Z</time>
      </trkpt>
      <trkpt lat="45.9958" lon="4.8918">
        <ele>288</ele>
        <time>2015-07-03T09:46:21.387Z</time>
      </trkpt>
      <trkpt lat="45.9958" lon="4.89188">
        <ele>287.799987793</ele>
        <time>2015-07-03T09:46:22.385Z</time>
      </trkpt>
      <trkpt lat="45.9958" lon="4.89195">
        <ele>288.399993896</ele>
        <time>2015-07-03T09:46:23.384Z</time>
      </trkpt>
      <trkpt lat="45.99581" lon="4.89203">
        <ele>288.700012207</ele>
        <time>2015-07-03T09:46:24.391Z</time>
      </trkpt>
      <trkpt lat="45.99581" lon="4.8921">
        <ele>289.100006104</ele>
        <time>2015-07-03T09:46:25.387Z</time>
      </trkpt>
      <trkpt lat="45.99581" lon="4.89218">
        <ele>289.200012207</ele>
        <time>2015-07-03T09:46:26.386Z</time>
      </trkpt>
      <trkpt lat="45.99582" lon="4.89225">
        <ele>289.200012207</ele>
        <time>2015-07-03T09:46:27.389Z</time>
      </trkpt>
      <trkpt lat="45.99582" lon="4.89232">
        <ele>289.600006104</ele>
        <time>2015-07-03T09:46:28.406Z</time>
      </trkpt>
      <trkpt lat="45.99582" lon="4.8924">
        <ele>289.600006104</ele>
        <time>2015-07-03T09:46:29.386Z</time>
      </trkpt>
      <trkpt lat="45.99582" lon="4.89247">
        <ele>289.5</ele>
        <time>2015-07-03T09:46:30.392Z</time>
      </trkpt>
      <trkpt lat="45.99583" lon="4.89255">
        <ele>289.5</ele>
        <time>2015-07-03T09:46:31.386Z</time>
      </trkpt>
      <trkpt lat="45.99583" lon="4.89263">
        <ele>289.5</ele>
        <time>2015-07-03T09:46:32.4Z</time>
      </trkpt>
      <trkpt lat="45.99583" lon="4.89271">
        <ele>289.5</ele>
        <time>2015-07-03T09:46:33.436Z</time>
      </trkpt>
      <trkpt lat="45.99584" lon="4.89279">
        <ele>289.200012207</ele>
        <time>2015-07-03T09:46:34.387Z</time>
      </trkpt>
      <trkpt lat="45.99584" lon="4.89287">
        <ele>289.100006104</ele>
        <time>2015-07-03T09:46:35.388Z</time>
      </trkpt>
      <trkpt lat="45.99585" lon="4.89294">
        <ele>289.100006104</ele>
        <time>2015-07-03T09:46:36.397Z</time>
      </trkpt>
      <trkpt lat="45.99586" lon="4.89301">
        <ele>289.100006104</ele>
        <time>2015-07-03T09:46:37.385Z</time>
      </trkpt>
      <trkpt lat="45.99586" lon="4.89308">
        <ele>289.200012207</ele>
        <time>2015-07-03T09:46:38.387Z</time>
      </trkpt>
      <trkpt lat="45.99587" lon="4.89316">
        <ele>289.100006104</ele>
        <time>2015-07-03T09:46:39.386Z</time>
      </trkpt>
      <trkpt lat="45.99587" lon="4.89324">
        <ele>289.100006104</ele>
        <time>2015-07-03T09:46:40.387Z</time>
      </trkpt>
      <trkpt lat="45.99587" lon="4.89331">
        <ele>289.200012207</ele>
        <time>2015-07-03T09:46:41.386Z</time>
      </trkpt>
      <trkpt lat="45.99588" lon="4.89338">
        <ele>289.5</ele>
        <time>2015-07-03T09:46:42.399Z</time>
      </trkpt>
      <trkpt lat="45.99588" lon="4.89346">
        <ele>289.399993896</ele>
        <time>2015-07-03T09:46:43.385Z</time>
      </trkpt>
      <trkpt lat="45.99589" lon="4.89354">
        <ele>289.200012207</ele>
        <time>2015-07-03T09:46:44.387Z</time>
      </trkpt>
      <trkpt lat="45.9959" lon="4.89361">
        <ele>289.100006104</ele>
        <time>2015-07-03T09:46:45.436Z</time>
      </trkpt>
      <trkpt lat="45.9959" lon="4.89369">
        <ele>289</ele>
        <time>2015-07-03T09:46:46.387Z</time>
      </trkpt>
      <trkpt lat="45.99591" lon="4.89377">
        <ele>288.899993896</ele>
        <time>2015-07-03T09:46:47.392Z</time>
      </trkpt>
      <trkpt lat="45.99591" lon="4.89384">
        <ele>288.700012207</ele>
        <time>2015-07-03T09:46:48.389Z</time>
      </trkpt>
      <trkpt lat="45.99591" lon="4.89392">
        <ele>288.700012207</ele>
        <time>2015-07-03T09:46:49.385Z</time>
      </trkpt>
      <trkpt lat="45.99592" lon="4.894">
        <ele>288.600006104</ele>
        <time>2015-07-03T09:46:50.387Z</time>
      </trkpt>
      <trkpt lat="45.99593" lon="4.89408">
        <ele>288.299987793</ele>
        <time>2015-07-03T09:46:51.387Z</time>
      </trkpt>
      <trkpt lat="45.99594" lon="4.89415">
        <ele>288.100006104</ele>
        <time>2015-07-03T09:46:52.389Z</time>
      </trkpt>
      <trkpt lat="45.99593" lon="4.89423">
        <ele>288</ele>
        <time>2015-07-03T09:46:53.385Z</time>
      </trkpt>
      <trkpt lat="45.99594" lon="4.8943">
        <ele>287.600006104</ele>
        <time>2015-07-03T09:46:54.429Z</time>
      </trkpt>
      <trkpt lat="45.99595" lon="4.89437">
        <ele>287.600006104</ele>
        <time>2015-07-03T09:46:55.506Z</time>
      </trkpt>
      <trkpt lat="45.99595" lon="4.89444">
        <ele>287.399993896</ele>
        <time>2015-07-03T09:46:56.566Z</time>
      </trkpt>
      <trkpt lat="45.99596" lon="4.89451">
        <ele>287</ele>
        <time>2015-07-03T09:46:57.385Z</time>
      </trkpt>
      <trkpt lat="45.99597" lon="4.89458">
        <ele>286.5</ele>
        <time>2015-07-03T09:46:58.385Z</time>
      </trkpt>
      <trkpt lat="45.99597" lon="4.89466">
        <ele>286.299987793</ele>
        <time>2015-07-03T09:46:59.385Z</time>
      </trkpt>
      <trkpt lat="45.99598" lon="4.89473">
        <ele>286.299987793</ele>
        <time>2015-07-03T09:47:00.388Z</time>
      </trkpt>
      <trkpt lat="45.99598" lon="4.89481">
        <ele>286.5</ele>
        <time>2015-07-03T09:47:01.384Z</time>
      </trkpt>
      <trkpt lat="45.99598" lon="4.89489">
        <ele>286.5</ele>
        <time>2015-07-03T09:47:02.389Z</time>
      </trkpt>
      <trkpt lat="45.99599" lon="4.89496">
        <ele>286.100006104</ele>
        <time>2015-07-03T09:47:03.385Z</time>
      </trkpt>
      <trkpt lat="45.99599" lon="4.89505">
        <ele>286</ele>
        <time>2015-07-03T09:47:04.385Z</time>
      </trkpt>
      <trkpt lat="45.99599" lon="4.89513">
        <ele>286.200012207</ele>
        <time>2015-07-03T09:47:05.433Z</time>
      </trkpt>
      <trkpt lat="45.996" lon="4.89522">
        <ele>286.399993896</ele>
        <time>2015-07-03T09:47:06.536Z</time>
      </trkpt>
      <trkpt lat="45.99601" lon="4.8953">
        <ele>286.200012207</ele>
        <time>2015-07-03T09:47:07.387Z</time>
      </trkpt>
      <trkpt lat="45.99601" lon="4.89537">
        <ele>286.399993896</ele>
        <time>2015-07-03T09:47:08.385Z</time>
      </trkpt>
      <trkpt lat="45.99602" lon="4.89546">
        <ele>286.299987793</ele>
        <time>2015-07-03T09:47:09.385Z</time>
      </trkpt>
      <trkpt lat="45.99602" lon="4.89553">
        <ele>286.399993896</ele>
        <time>2015-07-03T09:47:10.426Z</time>
      </trkpt>
      <trkpt lat="45.99603" lon="4.89561">
        <ele>286.399993896</ele>
        <time>2015-07-03T09:47:11.406Z</time>
      </trkpt>
      <trkpt lat="45.99604" lon="4.89569">
        <ele>286.5</ele>
        <time>2015-07-03T09:47:12.463Z</time>
      </trkpt>
      <trkpt lat="45.99604" lon="4.89576">
        <ele>287</ele>
        <time>2015-07-03T09:47:13.411Z</time>
      </trkpt>
      <trkpt lat="45.99604" lon="4.89583">
        <ele>287.100006104</ele>
        <time>2015-07-03T09:47:14.397Z</time>
      </trkpt>
      <trkpt lat="45.99605" lon="4.89591">
        <ele>287.200012207</ele>
        <time>2015-07-03T09:47:15.404Z</time>
      </trkpt>
      <trkpt lat="45.99605" lon="4.89598">
        <ele>287.299987793</ele>
        <time>2015-07-03T09:47:16.499Z</time>
      </trkpt>
      <trkpt lat="45.99605" lon="4.89605">
        <ele>287.399993896</ele>
        <time>2015-07-03T09:47:17.407Z</time>
      </trkpt>
      <trkpt lat="45.99605" lon="4.89612">
        <ele>287.399993896</ele>
        <time>2015-07-03T09:47:18.406Z</time>
      </trkpt>
      <trkpt lat="45.99606" lon="4.8962">
        <ele>287.299987793</ele>
        <time>2015-07-03T09:47:19.406Z</time>
      </trkpt>
      <trkpt lat="45.99606" lon="4.89627">
        <ele>287.100006104</ele>
        <time>2015-07-03T09:47:20.406Z</time>
      </trkpt>
      <trkpt lat="45.99607" lon="4.89635">
        <ele>287.100006104</ele>
        <time>2015-07-03T09:47:21.406Z</time>
      </trkpt>
      <trkpt lat="45.99607" lon="4.89642">
        <ele>287.200012207</ele>
        <time>2015-07-03T09:47:22.422Z</time>
      </trkpt>
      <trkpt lat="45.99607" lon="4.89649">
        <ele>287.399993896</ele>
        <time>2015-07-03T09:47:23.396Z</time>
      </trkpt>
      <trkpt lat="45.99607" lon="4.89656">
        <ele>287.5</ele>
        <time>2015-07-03T09:47:24.407Z</time>
      </trkpt>
      <trkpt lat="45.99608" lon="4.89663">
        <ele>287.600006104</ele>
        <time>2015-07-03T09:47:25.396Z</time>
      </trkpt>
      <trkpt lat="45.99607" lon="4.89675">
        <ele>287.899993896</ele>
        <time>2015-07-03T09:47:27.406Z</time>
      </trkpt>
      <trkpt lat="45.99608" lon="4.89682">
        <ele>288</ele>
        <time>2015-07-03T09:47:28.406Z</time>
      </trkpt>
      <trkpt lat="45.99608" lon="4.89688">
        <ele>288.100006104</ele>
        <time>2015-07-03T09:47:29.416Z</time>
      </trkpt>
      <trkpt lat="45.99607" lon="4.89695">
        <ele>288.299987793</ele>
        <time>2015-07-03T09:47:30.416Z</time>
      </trkpt>
      <trkpt lat="45.99607" lon="4.89701">
        <ele>288.700012207</ele>
        <time>2015-07-03T09:47:31.432Z</time>
      </trkpt>
      <trkpt lat="45.99606" lon="4.89708">
        <ele>289</ele>
        <time>2015-07-03T09:47:32.417Z</time>
      </trkpt>
      <trkpt lat="45.99606" lon="4.89716">
        <ele>288.899993896</ele>
        <time>2015-07-03T09:47:33.426Z</time>
      </trkpt>
      <trkpt lat="45.99606" lon="4.89722">
        <ele>289.299987793</ele>
        <time>2015-07-03T09:47:34.396Z</time>
      </trkpt>
      <trkpt lat="45.99607" lon="4.8973">
        <ele>289.299987793</ele>
        <time>2015-07-03T09:47:35.406Z</time>
      </trkpt>
      <trkpt lat="45.99607" lon="4.89737">
        <ele>289.399993896</ele>
        <time>2015-07-03T09:47:36.406Z</time>
      </trkpt>
      <trkpt lat="45.99607" lon="4.89745">
        <ele>289.399993896</ele>
        <time>2015-07-03T09:47:37.536Z</time>
      </trkpt>
      <trkpt lat="45.99606" lon="4.89751">
        <ele>289.200012207</ele>
        <time>2015-07-03T09:47:38.407Z</time>
      </trkpt>
      <trkpt lat="45.99605" lon="4.89762">
        <ele>289.399993896</ele>
        <time>2015-07-03T09:47:40.397Z</time>
      </trkpt>
      <trkpt lat="45.99604" lon="4.8977">
        <ele>289.799987793</ele>
        <time>2015-07-03T09:47:41.388Z</time>
      </trkpt>
      <trkpt lat="45.99605" lon="4.89779">
        <ele>289.5</ele>
        <time>2015-07-03T09:47:42.412Z</time>
      </trkpt>
      <trkpt lat="45.99605" lon="4.89786">
        <ele>289.5</ele>
        <time>2015-07-03T09:47:43.406Z</time>
      </trkpt>
      <trkpt lat="45.99605" lon="4.89794">
        <ele>289.700012207</ele>
        <time>2015-07-03T09:47:44.406Z</time>
      </trkpt>
      <trkpt lat="45.99605" lon="4.89802">
        <ele>289.799987793</ele>
        <time>2015-07-03T09:47:45.406Z</time>
      </trkpt>
      <trkpt lat="45.99604" lon="4.8981">
        <ele>289.600006104</ele>
        <time>2015-07-03T09:47:46.396Z</time>
      </trkpt>
      <trkpt lat="45.99604" lon="4.89817">
        <ele>289.600006104</ele>
        <time>2015-07-03T09:47:47.406Z</time>
      </trkpt>
      <trkpt lat="45.99603" lon="4.89825">
        <ele>289.799987793</ele>
        <time>2015-07-03T09:47:48.509Z</time>
      </trkpt>
      <trkpt lat="45.99603" lon="4.89831">
        <ele>289.899993896</ele>
        <time>2015-07-03T09:47:49.416Z</time>
      </trkpt>
      <trkpt lat="45.99602" lon="4.89838">
        <ele>290.200012207</ele>
        <time>2015-07-03T09:47:50.496Z</time>
      </trkpt>
      <trkpt lat="45.99602" lon="4.89844">
        <ele>290.5</ele>
        <time>2015-07-03T09:47:51.406Z</time>
      </trkpt>
      <trkpt lat="45.99602" lon="4.89856">
        <ele>290.899993896</ele>
        <time>2015-07-03T09:47:53.423Z</time>
      </trkpt>
      <trkpt lat="45.99602" lon="4.89862">
        <ele>291</ele>
        <time>2015-07-03T09:47:54.399Z</time>
      </trkpt>
      <trkpt lat="45.99602" lon="4.89875">
        <ele>291.200012207</ele>
        <time>2015-07-03T09:47:56.407Z</time>
      </trkpt>
      <trkpt lat="45.99602" lon="4.89882">
        <ele>291</ele>
        <time>2015-07-03T09:47:57.424Z</time>
      </trkpt>
      <trkpt lat="45.99602" lon="4.89889">
        <ele>291.5</ele>
        <time>2015-07-03T09:47:58.446Z</time>
      </trkpt>
      <trkpt lat="45.99602" lon="4.89896">
        <ele>291.5</ele>
        <time>2015-07-03T09:47:59.406Z</time>
      </trkpt>
      <trkpt lat="45.99602" lon="4.89903">
        <ele>291.600006104</ele>
        <time>2015-07-03T09:48:00.416Z</time>
      </trkpt>
      <trkpt lat="45.99602" lon="4.8991">
        <ele>291.700012207</ele>
        <time>2015-07-03T09:48:01.406Z</time>
      </trkpt>
      <trkpt lat="45.99603" lon="4.89916">
        <ele>291.799987793</ele>
        <time>2015-07-03T09:48:02.464Z</time>
      </trkpt>
      <trkpt lat="45.99603" lon="4.89923">
        <ele>291.899993896</ele>
        <time>2015-07-03T09:48:03.399Z</time>
      </trkpt>
      <trkpt lat="45.99603" lon="4.89929">
        <ele>292</ele>
        <time>2015-07-03T09:48:04.406Z</time>
      </trkpt>
      <trkpt lat="45.99603" lon="4.89936">
        <ele>292.200012207</ele>
        <time>2015-07-03T09:48:05.406Z</time>
      </trkpt>
      <trkpt lat="45.99602" lon="4.89944">
        <ele>292.200012207</ele>
        <time>2015-07-03T09:48:06.394Z</time>
      </trkpt>
      <trkpt lat="45.99602" lon="4.89952">
        <ele>292.299987793</ele>
        <time>2015-07-03T09:48:07.536Z</time>
      </trkpt>
      <trkpt lat="45.99602" lon="4.89959">
        <ele>292.5</ele>
        <time>2015-07-03T09:48:08.408Z</time>
      </trkpt>
      <trkpt lat="45.99601" lon="4.89966">
        <ele>293</ele>
        <time>2015-07-03T09:48:09.406Z</time>
      </trkpt>
      <trkpt lat="45.99602" lon="4.89973">
        <ele>292.899993896</ele>
        <time>2015-07-03T09:48:10.486Z</time>
      </trkpt>
      <trkpt lat="45.99603" lon="4.8998">
        <ele>292.799987793</ele>
        <time>2015-07-03T09:48:11.406Z</time>
      </trkpt>
      <trkpt lat="45.99605" lon="4.89992">
        <ele>293.299987793</ele>
        <time>2015-07-03T09:48:13.398Z</time>
      </trkpt>
      <trkpt lat="45.99606" lon="4.89999">
        <ele>293.5</ele>
        <time>2015-07-03T09:48:14.406Z</time>
      </trkpt>
      <trkpt lat="45.99609" lon="4.9001">
        <ele>293.899993896</ele>
        <time>2015-07-03T09:48:16.385Z</time>
      </trkpt>
      <trkpt lat="45.99611" lon="4.90017">
        <ele>294.200012207</ele>
        <time>2015-07-03T09:48:17.384Z</time>
      </trkpt>
      <trkpt lat="45.99614" lon="4.90028">
        <ele>294.299987793</ele>
        <time>2015-07-03T09:48:19.384Z</time>
      </trkpt>
      <trkpt lat="45.99616" lon="4.90034">
        <ele>294.399993896</ele>
        <time>2015-07-03T09:48:20.385Z</time>
      </trkpt>
      <trkpt lat="45.99618" lon="4.9004">
        <ele>294.600006104</ele>
        <time>2015-07-03T09:48:21.384Z</time>
      </trkpt>
      <trkpt lat="45.9962" lon="4.90046">
        <ele>294.700012207</ele>
        <time>2015-07-03T09:48:22.403Z</time>
      </trkpt>
      <trkpt lat="45.99623" lon="4.90057">
        <ele>294.600006104</ele>
        <time>2015-07-03T09:48:24.416Z</time>
      </trkpt>
      <trkpt lat="45.99625" lon="4.90063">
        <ele>294.799987793</ele>
        <time>2015-07-03T09:48:25.382Z</time>
      </trkpt>
      <trkpt lat="45.9963" lon="4.90072">
        <ele>295.200012207</ele>
        <time>2015-07-03T09:48:27.388Z</time>
      </trkpt>
      <trkpt lat="45.99632" lon="4.90078">
        <ele>295.299987793</ele>
        <time>2015-07-03T09:48:28.383Z</time>
      </trkpt>
      <trkpt lat="45.99636" lon="4.90089">
        <ele>295.600006104</ele>
        <time>2015-07-03T09:48:30.388Z</time>
      </trkpt>
      <trkpt lat="45.99638" lon="4.90094">
        <ele>295.600006104</ele>
        <time>2015-07-03T09:48:31.389Z</time>
      </trkpt>
      <trkpt lat="45.99641" lon="4.901">
        <ele>295.600006104</ele>
        <time>2015-07-03T09:48:32.403Z</time>
      </trkpt>
      <trkpt lat="45.99643" lon="4.90105">
        <ele>295.799987793</ele>
        <time>2015-07-03T09:48:33.383Z</time>
      </trkpt>
      <trkpt lat="45.99646" lon="4.90116">
        <ele>296.200012207</ele>
        <time>2015-07-03T09:48:35.386Z</time>
      </trkpt>
      <trkpt lat="45.99648" lon="4.90121">
        <ele>296.399993896</ele>
        <time>2015-07-03T09:48:36.387Z</time>
      </trkpt>
      <trkpt lat="45.9965" lon="4.90127">
        <ele>296.5</ele>
        <time>2015-07-03T09:48:37.383Z</time>
      </trkpt>
      <trkpt lat="45.99652" lon="4.90134">
        <ele>296.899993896</ele>
        <time>2015-07-03T09:48:38.384Z</time>
      </trkpt>
      <trkpt lat="45.99653" lon="4.90143">
        <ele>297.299987793</ele>
        <time>2015-07-03T09:48:39.4Z</time>
      </trkpt>
      <trkpt lat="45.99653" lon="4.90148">
        <ele>297.700012207</ele>
        <time>2015-07-03T09:48:40.385Z</time>
      </trkpt>
      <trkpt lat="45.99655" lon="4.90158">
        <ele>298.299987793</ele>
        <time>2015-07-03T09:48:42.405Z</time>
      </trkpt>
      <trkpt lat="45.99656" lon="4.90162">
        <ele>298.5</ele>
        <time>2015-07-03T09:48:43.386Z</time>
      </trkpt>
      <trkpt lat="45.99658" lon="4.90174">
        <ele>299.100006104</ele>
        <time>2015-07-03T09:48:46.386Z</time>
      </trkpt>
      <trkpt lat="45.99659" lon="4.90178">
        <ele>299.299987793</ele>
        <time>2015-07-03T09:48:47.386Z</time>
      </trkpt>
      <trkpt lat="45.99662" lon="4.90185">
        <ele>300.100006104</ele>
        <time>2015-07-03T09:48:49.383Z</time>
      </trkpt>
      <trkpt lat="45.99663" lon="4.90189">
        <ele>300.299987793</ele>
        <time>2015-07-03T09:48:50.385Z</time>
      </trkpt>
      <trkpt lat="45.99666" lon="4.90199">
        <ele>301.200012207</ele>
        <time>2015-07-03T09:48:53.382Z</time>
      </trkpt>
      <trkpt lat="45.99667" lon="4.90204">
        <ele>301.299987793</ele>
        <time>2015-07-03T09:48:54.388Z</time>
      </trkpt>
      <trkpt lat="45.99668" lon="4.90213">
        <ele>301.5</ele>
        <time>2015-07-03T09:48:56.383Z</time>
      </trkpt>
      <trkpt lat="45.99669" lon="4.90217">
        <ele>301.899993896</ele>
        <time>2015-07-03T09:48:57.39Z</time>
      </trkpt>
      <trkpt lat="45.99672" lon="4.90225">
        <ele>302.100006104</ele>
        <time>2015-07-03T09:48:59.386Z</time>
      </trkpt>
      <trkpt lat="45.99672" lon="4.90229">
        <ele>302.600006104</ele>
        <time>2015-07-03T09:49:00.409Z</time>
      </trkpt>
      <trkpt lat="45.99675" lon="4.9024">
        <ele>303.700012207</ele>
        <time>2015-07-03T09:49:03.386Z</time>
      </trkpt>
      <trkpt lat="45.99675" lon="4.90244">
        <ele>304.399993896</ele>
        <time>2015-07-03T09:49:04.387Z</time>
      </trkpt>
      <trkpt lat="45.99676" lon="4.90253">
        <ele>305.600006104</ele>
        <time>2015-07-03T09:49:06.386Z</time>
      </trkpt>
      <trkpt lat="45.99675" lon="4.90257">
        <ele>306</ele>
        <time>2015-07-03T09:49:07.387Z</time>
      </trkpt>
      <trkpt lat="45.99674" lon="4.9027">
        <ele>306.700012207</ele>
        <time>2015-07-03T09:49:10.386Z</time>
      </trkpt>
      <trkpt lat="45.99675" lon="4.90276">
        <ele>306.799987793</ele>
        <time>2015-07-03T09:49:11.401Z</time>
      </trkpt>
      <trkpt lat="45.99675" lon="4.90287">
        <ele>306.600006104</ele>
        <time>2015-07-03T09:49:13.393Z</time>
      </trkpt>
      <trkpt lat="45.99674" lon="4.90291">
        <ele>306.700012207</ele>
        <time>2015-07-03T09:49:14.386Z</time>
      </trkpt>
      <trkpt lat="45.99674" lon="4.90301">
        <ele>306.799987793</ele>
        <time>2015-07-03T09:49:16.386Z</time>
      </trkpt>
      <trkpt lat="45.99674" lon="4.90305">
        <ele>307</ele>
        <time>2015-07-03T09:49:17.385Z</time>
      </trkpt>
      <trkpt lat="45.99675" lon="4.90316">
        <ele>307.399993896</ele>
        <time>2015-07-03T09:49:20.416Z</time>
      </trkpt>
      <trkpt lat="45.99675" lon="4.90318">
        <ele>307.5</ele>
        <time>2015-07-03T09:49:21.401Z</time>
      </trkpt>
      <trkpt lat="45.99671" lon="4.90328">
        <ele>307.799987793</ele>
        <time>2015-07-03T09:49:25.385Z</time>
      </trkpt>
      <trkpt lat="45.99673" lon="4.90331">
        <ele>308</ele>
        <time>2015-07-03T09:49:26.386Z</time>
      </trkpt>
      <trkpt lat="45.99678" lon="4.90335">
        <ele>308.600006104</ele>
        <time>2015-07-03T09:49:28.387Z</time>
      </trkpt>
      <trkpt lat="45.99681" lon="4.90337">
        <ele>308.799987793</ele>
        <time>2015-07-03T09:49:29.403Z</time>
      </trkpt>
      <trkpt lat="45.99687" lon="4.90342">
        <ele>309.299987793</ele>
        <time>2015-07-03T09:49:31.386Z</time>
      </trkpt>
      <trkpt lat="45.9969" lon="4.90344">
        <ele>309.600006104</ele>
        <time>2015-07-03T09:49:32.385Z</time>
      </trkpt>
      <trkpt lat="45.99692" lon="4.90355">
        <ele>310.600006104</ele>
        <time>2015-07-03T09:49:35.386Z</time>
      </trkpt>
      <trkpt lat="45.99692" lon="4.90359">
        <ele>311.100006104</ele>
        <time>2015-07-03T09:49:36.386Z</time>
      </trkpt>
      <trkpt lat="45.99686" lon="4.90365">
        <ele>311.5</ele>
        <time>2015-07-03T09:49:37.4Z</time>
      </trkpt>
      <trkpt lat="45.99683" lon="4.9037">
        <ele>311.700012207</ele>
        <time>2015-07-03T09:49:38.383Z</time>
      </trkpt>
      <trkpt lat="45.99681" lon="4.90376">
        <ele>312</ele>
        <time>2015-07-03T09:49:39.378Z</time>
      </trkpt>
      <trkpt lat="45.99682" lon="4.90387">
        <ele>312.399993896</ele>
        <time>2015-07-03T09:49:40.406Z</time>
      </trkpt>
      <trkpt lat="45.99677" lon="4.90395">
        <ele>312.700012207</ele>
        <time>2015-07-03T09:49:41.436Z</time>
      </trkpt>
      <trkpt lat="45.99671" lon="4.90404">
        <ele>312.899993896</ele>
        <time>2015-07-03T09:49:42.445Z</time>
      </trkpt>
      <trkpt lat="45.99665" lon="4.90411">
        <ele>313.100006104</ele>
        <time>2015-07-03T09:49:43.386Z</time>
      </trkpt>
      <trkpt lat="45.99661" lon="4.90415">
        <ele>313.100006104</ele>
        <time>2015-07-03T09:49:44.383Z</time>
      </trkpt>
      <trkpt lat="45.99656" lon="4.90422">
        <ele>313.299987793</ele>
        <time>2015-07-03T09:49:46.386Z</time>
      </trkpt>
      <trkpt lat="45.99654" lon="4.90425">
        <ele>313.399993896</ele>
        <time>2015-07-03T09:49:47.386Z</time>
      </trkpt>
      <trkpt lat="45.99649" lon="4.90431">
        <ele>313.899993896</ele>
        <time>2015-07-03T09:49:49.389Z</time>
      </trkpt>
      <trkpt lat="45.99645" lon="4.90434">
        <ele>314.100006104</ele>
        <time>2015-07-03T09:49:50.384Z</time>
      </trkpt>
      <trkpt lat="45.99641" lon="4.90437">
        <ele>314.200012207</ele>
        <time>2015-07-03T09:49:51.387Z</time>
      </trkpt>
      <trkpt lat="45.99637" lon="4.90439">
        <ele>314.299987793</ele>
        <time>2015-07-03T09:49:52.388Z</time>
      </trkpt>
      <trkpt lat="45.99632" lon="4.90441">
        <ele>314.5</ele>
        <time>2015-07-03T09:49:53.403Z</time>
      </trkpt>
      <trkpt lat="45.99628" lon="4.90443">
        <ele>314.700012207</ele>
        <time>2015-07-03T09:49:54.388Z</time>
      </trkpt>
      <trkpt lat="45.99623" lon="4.90443">
        <ele>315</ele>
        <time>2015-07-03T09:49:55.387Z</time>
      </trkpt>
      <trkpt lat="45.99619" lon="4.90443">
        <ele>315.100006104</ele>
        <time>2015-07-03T09:49:56.385Z</time>
      </trkpt>
      <trkpt lat="45.99614" lon="4.90443">
        <ele>315.200012207</ele>
        <time>2015-07-03T09:49:57.387Z</time>
      </trkpt>
      <trkpt lat="45.99609" lon="4.90444">
        <ele>315.5</ele>
        <time>2015-07-03T09:49:58.383Z</time>
      </trkpt>
      <trkpt lat="45.99604" lon="4.90445">
        <ele>315.700012207</ele>
        <time>2015-07-03T09:49:59.386Z</time>
      </trkpt>
      <trkpt lat="45.99599" lon="4.90448">
        <ele>315.399993896</ele>
        <time>2015-07-03T09:50:00.388Z</time>
      </trkpt>
      <trkpt lat="45.99594" lon="4.90449">
        <ele>315.399993896</ele>
        <time>2015-07-03T09:50:01.386Z</time>
      </trkpt>
      <trkpt lat="45.99589" lon="4.90451">
        <ele>315.600006104</ele>
        <time>2015-07-03T09:50:02.385Z</time>
      </trkpt>
      <trkpt lat="45.99584" lon="4.90453">
        <ele>315.600006104</ele>
        <time>2015-07-03T09:50:03.383Z</time>
      </trkpt>
      <trkpt lat="45.9958" lon="4.90458">
        <ele>315.399993896</ele>
        <time>2015-07-03T09:50:04.386Z</time>
      </trkpt>
      <trkpt lat="45.99575" lon="4.90462">
        <ele>315.5</ele>
        <time>2015-07-03T09:50:05.383Z</time>
      </trkpt>
      <trkpt lat="45.9957" lon="4.90469">
        <ele>314.5</ele>
        <time>2015-07-03T09:50:06.388Z</time>
      </trkpt>
      <trkpt lat="45.99566" lon="4.90475">
        <ele>314.299987793</ele>
        <time>2015-07-03T09:50:07.421Z</time>
      </trkpt>
      <trkpt lat="45.99561" lon="4.9048">
        <ele>314.200012207</ele>
        <time>2015-07-03T09:50:08.384Z</time>
      </trkpt>
      <trkpt lat="45.99556" lon="4.90485">
        <ele>314</ele>
        <time>2015-07-03T09:50:09.404Z</time>
      </trkpt>
      <trkpt lat="45.99551" lon="4.90491">
        <ele>313.600006104</ele>
        <time>2015-07-03T09:50:10.381Z</time>
      </trkpt>
      <trkpt lat="45.99546" lon="4.90495">
        <ele>313.100006104</ele>
        <time>2015-07-03T09:50:11.384Z</time>
      </trkpt>
      <trkpt lat="45.99541" lon="4.90499">
        <ele>312.899993896</ele>
        <time>2015-07-03T09:50:12.388Z</time>
      </trkpt>
      <trkpt lat="45.99535" lon="4.90508">
        <ele>312.399993896</ele>
        <time>2015-07-03T09:50:14.384Z</time>
      </trkpt>
      <trkpt lat="45.99531" lon="4.90513">
        <ele>312.100006104</ele>
        <time>2015-07-03T09:50:15.389Z</time>
      </trkpt>
      <trkpt lat="45.99527" lon="4.90518">
        <ele>312</ele>
        <time>2015-07-03T09:50:16.386Z</time>
      </trkpt>
      <trkpt lat="45.99523" lon="4.90523">
        <ele>311.799987793</ele>
        <time>2015-07-03T09:50:17.412Z</time>
      </trkpt>
      <trkpt lat="45.99518" lon="4.90529">
        <ele>310.5</ele>
        <time>2015-07-03T09:50:18.388Z</time>
      </trkpt>
      <trkpt lat="45.99513" lon="4.90535">
        <ele>310.200012207</ele>
        <time>2015-07-03T09:50:19.386Z</time>
      </trkpt>
      <trkpt lat="45.99509" lon="4.9054">
        <ele>310</ele>
        <time>2015-07-03T09:50:20.395Z</time>
      </trkpt>
      <trkpt lat="45.99505" lon="4.90544">
        <ele>309.399993896</ele>
        <time>2015-07-03T09:50:21.382Z</time>
      </trkpt>
      <trkpt lat="45.99501" lon="4.90549">
        <ele>309.299987793</ele>
        <time>2015-07-03T09:50:22.385Z</time>
      </trkpt>
      <trkpt lat="45.99497" lon="4.90555">
        <ele>308.5</ele>
        <time>2015-07-03T09:50:23.387Z</time>
      </trkpt>
      <trkpt lat="45.99494" lon="4.9056">
        <ele>308.399993896</ele>
        <time>2015-07-03T09:50:24.388Z</time>
      </trkpt>
      <trkpt lat="45.9949" lon="4.90564">
        <ele>308.299987793</ele>
        <time>2015-07-03T09:50:25.387Z</time>
      </trkpt>
      <trkpt lat="45.99486" lon="4.90569">
        <ele>308.200012207</ele>
        <time>2015-07-03T09:50:26.387Z</time>
      </trkpt>
      <trkpt lat="45.99481" lon="4.90573">
        <ele>308.299987793</ele>
        <time>2015-07-03T09:50:27.387Z</time>
      </trkpt>
      <trkpt lat="45.99477" lon="4.90576">
        <ele>307.899993896</ele>
        <time>2015-07-03T09:50:28.385Z</time>
      </trkpt>
      <trkpt lat="45.99473" lon="4.90581">
        <ele>307.600006104</ele>
        <time>2015-07-03T09:50:29.383Z</time>
      </trkpt>
      <trkpt lat="45.9947" lon="4.90587">
        <ele>306.899993896</ele>
        <time>2015-07-03T09:50:30.387Z</time>
      </trkpt>
      <trkpt lat="45.99466" lon="4.90592">
        <ele>306.700012207</ele>
        <time>2015-07-03T09:50:31.399Z</time>
      </trkpt>
      <trkpt lat="45.99462" lon="4.90597">
        <ele>306.700012207</ele>
        <time>2015-07-03T09:50:32.385Z</time>
      </trkpt>
      <trkpt lat="45.99458" lon="4.90601">
        <ele>306.600006104</ele>
        <time>2015-07-03T09:50:33.384Z</time>
      </trkpt>
      <trkpt lat="45.99454" lon="4.90605">
        <ele>306.299987793</ele>
        <time>2015-07-03T09:50:34.382Z</time>
      </trkpt>
      <trkpt lat="45.9945" lon="4.90609">
        <ele>306.399993896</ele>
        <time>2015-07-03T09:50:35.382Z</time>
      </trkpt>
      <trkpt lat="45.99446" lon="4.90614">
        <ele>306.200012207</ele>
        <time>2015-07-03T09:50:36.395Z</time>
      </trkpt>
      <trkpt lat="45.99442" lon="4.90619">
        <ele>306.299987793</ele>
        <time>2015-07-03T09:50:37.389Z</time>
      </trkpt>
      <trkpt lat="45.99438" lon="4.90625">
        <ele>306.200012207</ele>
        <time>2015-07-03T09:50:38.384Z</time>
      </trkpt>
      <trkpt lat="45.99434" lon="4.9063">
        <ele>306.100006104</ele>
        <time>2015-07-03T09:50:39.386Z</time>
      </trkpt>
      <trkpt lat="45.9943" lon="4.90635">
        <ele>306.200012207</ele>
        <time>2015-07-03T09:50:40.383Z</time>
      </trkpt>
      <trkpt lat="45.99426" lon="4.9064">
        <ele>306.399993896</ele>
        <time>2015-07-03T09:50:41.389Z</time>
      </trkpt>
      <trkpt lat="45.99421" lon="4.90644">
        <ele>306.299987793</ele>
        <time>2015-07-03T09:50:42.389Z</time>
      </trkpt>
      <trkpt lat="45.99416" lon="4.90648">
        <ele>306.100006104</ele>
        <time>2015-07-03T09:50:43.386Z</time>
      </trkpt>
      <trkpt lat="45.99412" lon="4.90654">
        <ele>305.899993896</ele>
        <time>2015-07-03T09:50:44.416Z</time>
      </trkpt>
      <trkpt lat="45.99408" lon="4.90659">
        <ele>305.799987793</ele>
        <time>2015-07-03T09:50:45.383Z</time>
      </trkpt>
      <trkpt lat="45.99404" lon="4.90665">
        <ele>305.399993896</ele>
        <time>2015-07-03T09:50:46.386Z</time>
      </trkpt>
      <trkpt lat="45.994" lon="4.9067">
        <ele>305.100006104</ele>
        <time>2015-07-03T09:50:47.387Z</time>
      </trkpt>
      <trkpt lat="45.99396" lon="4.90675">
        <ele>304.700012207</ele>
        <time>2015-07-03T09:50:48.388Z</time>
      </trkpt>
      <trkpt lat="45.99391" lon="4.90681">
        <ele>304.700012207</ele>
        <time>2015-07-03T09:50:49.387Z</time>
      </trkpt>
      <trkpt lat="45.99387" lon="4.90687">
        <ele>304.5</ele>
        <time>2015-07-03T09:50:50.384Z</time>
      </trkpt>
      <trkpt lat="45.99383" lon="4.90692">
        <ele>304.200012207</ele>
        <time>2015-07-03T09:50:51.397Z</time>
      </trkpt>
      <trkpt lat="45.99378" lon="4.90697">
        <ele>304.100006104</ele>
        <time>2015-07-03T09:50:52.413Z</time>
      </trkpt>
      <trkpt lat="45.99374" lon="4.90702">
        <ele>304</ele>
        <time>2015-07-03T09:50:53.385Z</time>
      </trkpt>
      <trkpt lat="45.99369" lon="4.90707">
        <ele>303.799987793</ele>
        <time>2015-07-03T09:50:54.386Z</time>
      </trkpt>
      <trkpt lat="45.99365" lon="4.90712">
        <ele>303.899993896</ele>
        <time>2015-07-03T09:50:55.383Z</time>
      </trkpt>
      <trkpt lat="45.99361" lon="4.90718">
        <ele>303.600006104</ele>
        <time>2015-07-03T09:50:56.386Z</time>
      </trkpt>
      <trkpt lat="45.99357" lon="4.90724">
        <ele>303.100006104</ele>
        <time>2015-07-03T09:50:57.383Z</time>
      </trkpt>
      <trkpt lat="45.99353" lon="4.90728">
        <ele>302.799987793</ele>
        <time>2015-07-03T09:50:58.382Z</time>
      </trkpt>
      <trkpt lat="45.99349" lon="4.90733">
        <ele>302.700012207</ele>
        <time>2015-07-03T09:50:59.385Z</time>
      </trkpt>
      <trkpt lat="45.99345" lon="4.90738">
        <ele>302.700012207</ele>
        <time>2015-07-03T09:51:00.386Z</time>
      </trkpt>
      <trkpt lat="45.99341" lon="4.90744">
        <ele>302.600006104</ele>
        <time>2015-07-03T09:51:01.382Z</time>
      </trkpt>
      <trkpt lat="45.99337" lon="4.90749">
        <ele>302.899993896</ele>
        <time>2015-07-03T09:51:02.456Z</time>
      </trkpt>
      <trkpt lat="45.99332" lon="4.90754">
        <ele>303.200012207</ele>
        <time>2015-07-03T09:51:03.401Z</time>
      </trkpt>
      <trkpt lat="45.99328" lon="4.90759">
        <ele>303.299987793</ele>
        <time>2015-07-03T09:51:04.383Z</time>
      </trkpt>
      <trkpt lat="45.99324" lon="4.90764">
        <ele>303.600006104</ele>
        <time>2015-07-03T09:51:05.382Z</time>
      </trkpt>
      <trkpt lat="45.99319" lon="4.90769">
        <ele>303.799987793</ele>
        <time>2015-07-03T09:51:06.386Z</time>
      </trkpt>
      <trkpt lat="45.99315" lon="4.90774">
        <ele>304.100006104</ele>
        <time>2015-07-03T09:51:07.388Z</time>
      </trkpt>
      <trkpt lat="45.99311" lon="4.90779">
        <ele>303.899993896</ele>
        <time>2015-07-03T09:51:08.386Z</time>
      </trkpt>
      <trkpt lat="45.99308" lon="4.90783">
        <ele>303.799987793</ele>
        <time>2015-07-03T09:51:09.382Z</time>
      </trkpt>
      <trkpt lat="45.99303" lon="4.90788">
        <ele>303.799987793</ele>
        <time>2015-07-03T09:51:10.383Z</time>
      </trkpt>
      <trkpt lat="45.993" lon="4.90792">
        <ele>304</ele>
        <time>2015-07-03T09:51:11.386Z</time>
      </trkpt>
      <trkpt lat="45.99293" lon="4.90799">
        <ele>304.100006104</ele>
        <time>2015-07-03T09:51:13.383Z</time>
      </trkpt>
      <trkpt lat="45.99288" lon="4.90805">
        <ele>304.899993896</ele>
        <time>2015-07-03T09:51:14.385Z</time>
      </trkpt>
      <trkpt lat="45.99283" lon="4.90812">
        <ele>304.899993896</ele>
        <time>2015-07-03T09:51:15.382Z</time>
      </trkpt>
      <trkpt lat="45.99279" lon="4.90818">
        <ele>304.299987793</ele>
        <time>2015-07-03T09:51:16.382Z</time>
      </trkpt>
      <trkpt lat="45.99275" lon="4.90824">
        <ele>303.899993896</ele>
        <time>2015-07-03T09:51:17.383Z</time>
      </trkpt>
      <trkpt lat="45.99271" lon="4.9083">
        <ele>303.600006104</ele>
        <time>2015-07-03T09:51:18.386Z</time>
      </trkpt>
      <trkpt lat="45.99267" lon="4.90834">
        <ele>303.200012207</ele>
        <time>2015-07-03T09:51:19.383Z</time>
      </trkpt>
      <trkpt lat="45.99263" lon="4.90839">
        <ele>302.700012207</ele>
        <time>2015-07-03T09:51:20.386Z</time>
      </trkpt>
      <trkpt lat="45.99259" lon="4.90843">
        <ele>302.5</ele>
        <time>2015-07-03T09:51:21.383Z</time>
      </trkpt>
      <trkpt lat="45.99255" lon="4.90849">
        <ele>302.200012207</ele>
        <time>2015-07-03T09:51:22.388Z</time>
      </trkpt>
      <trkpt lat="45.9925" lon="4.90854">
        <ele>302.200012207</ele>
        <time>2015-07-03T09:51:23.382Z</time>
      </trkpt>
      <trkpt lat="45.99246" lon="4.9086">
        <ele>302.299987793</ele>
        <time>2015-07-03T09:51:24.385Z</time>
      </trkpt>
      <trkpt lat="45.99242" lon="4.90865">
        <ele>302.5</ele>
        <time>2015-07-03T09:51:25.382Z</time>
      </trkpt>
      <trkpt lat="45.99237" lon="4.9087">
        <ele>302.600006104</ele>
        <time>2015-07-03T09:51:26.383Z</time>
      </trkpt>
      <trkpt lat="45.99233" lon="4.90876">
        <ele>302.5</ele>
        <time>2015-07-03T09:51:27.408Z</time>
      </trkpt>
      <trkpt lat="45.99229" lon="4.9088">
        <ele>302.399993896</ele>
        <time>2015-07-03T09:51:28.385Z</time>
      </trkpt>
      <trkpt lat="45.99225" lon="4.90885">
        <ele>302.5</ele>
        <time>2015-07-03T09:51:29.401Z</time>
      </trkpt>
      <trkpt lat="45.99222" lon="4.9089">
        <ele>302.299987793</ele>
        <time>2015-07-03T09:51:30.386Z</time>
      </trkpt>
      <trkpt lat="45.99218" lon="4.90896">
        <ele>302.399993896</ele>
        <time>2015-07-03T09:51:31.382Z</time>
      </trkpt>
      <trkpt lat="45.99215" lon="4.90901">
        <ele>302.700012207</ele>
        <time>2015-07-03T09:51:32.387Z</time>
      </trkpt>
      <trkpt lat="45.99211" lon="4.90905">
        <ele>302.799987793</ele>
        <time>2015-07-03T09:51:33.386Z</time>
      </trkpt>
      <trkpt lat="45.99207" lon="4.90911">
        <ele>303.299987793</ele>
        <time>2015-07-03T09:51:34.382Z</time>
      </trkpt>
      <trkpt lat="45.99204" lon="4.90916">
        <ele>303.799987793</ele>
        <time>2015-07-03T09:51:35.382Z</time>
      </trkpt>
      <trkpt lat="45.992" lon="4.90921">
        <ele>304.299987793</ele>
        <time>2015-07-03T09:51:36.386Z</time>
      </trkpt>
      <trkpt lat="45.99197" lon="4.90926">
        <ele>304.700012207</ele>
        <time>2015-07-03T09:51:37.384Z</time>
      </trkpt>
      <trkpt lat="45.99193" lon="4.90931">
        <ele>305.200012207</ele>
        <time>2015-07-03T09:51:38.383Z</time>
      </trkpt>
      <trkpt lat="45.99189" lon="4.90936">
        <ele>305.5</ele>
        <time>2015-07-03T09:51:39.383Z</time>
      </trkpt>
      <trkpt lat="45.99185" lon="4.90942">
        <ele>305.799987793</ele>
        <time>2015-07-03T09:51:40.401Z</time>
      </trkpt>
      <trkpt lat="45.99181" lon="4.90947">
        <ele>306.100006104</ele>
        <time>2015-07-03T09:51:41.383Z</time>
      </trkpt>
      <trkpt lat="45.99177" lon="4.90951">
        <ele>306.200012207</ele>
        <time>2015-07-03T09:51:42.413Z</time>
      </trkpt>
      <trkpt lat="45.99173" lon="4.90957">
        <ele>306.200012207</ele>
        <time>2015-07-03T09:51:43.385Z</time>
      </trkpt>
      <trkpt lat="45.9917" lon="4.90962">
        <ele>306.5</ele>
        <time>2015-07-03T09:51:44.386Z</time>
      </trkpt>
      <trkpt lat="45.99168" lon="4.90966">
        <ele>306.899993896</ele>
        <time>2015-07-03T09:51:45.426Z</time>
      </trkpt>
      <trkpt lat="45.99163" lon="4.90972">
        <ele>306.899993896</ele>
        <time>2015-07-03T09:51:46.383Z</time>
      </trkpt>
      <trkpt lat="45.99159" lon="4.90976">
        <ele>306.899993896</ele>
        <time>2015-07-03T09:51:47.382Z</time>
      </trkpt>
      <trkpt lat="45.99154" lon="4.9098">
        <ele>307</ele>
        <time>2015-07-03T09:51:48.386Z</time>
      </trkpt>
      <trkpt lat="45.9915" lon="4.90984">
        <ele>306.899993896</ele>
        <time>2015-07-03T09:51:49.382Z</time>
      </trkpt>
      <trkpt lat="45.99146" lon="4.90988">
        <ele>307.100006104</ele>
        <time>2015-07-03T09:51:50.387Z</time>
      </trkpt>
      <trkpt lat="45.99142" lon="4.90993">
        <ele>307.100006104</ele>
        <time>2015-07-03T09:51:51.382Z</time>
      </trkpt>
      <trkpt lat="45.99137" lon="4.90997">
        <ele>307.100006104</ele>
        <time>2015-07-03T09:51:52.385Z</time>
      </trkpt>
      <trkpt lat="45.99133" lon="4.91002">
        <ele>307.399993896</ele>
        <time>2015-07-03T09:51:53.382Z</time>
      </trkpt>
      <trkpt lat="45.99129" lon="4.91008">
        <ele>307.399993896</ele>
        <time>2015-07-03T09:51:54.386Z</time>
      </trkpt>
      <trkpt lat="45.99124" lon="4.91013">
        <ele>307.100006104</ele>
        <time>2015-07-03T09:51:55.385Z</time>
      </trkpt>
      <trkpt lat="45.9912" lon="4.91019">
        <ele>306.600006104</ele>
        <time>2015-07-03T09:51:56.383Z</time>
      </trkpt>
      <trkpt lat="45.99115" lon="4.91025">
        <ele>305.799987793</ele>
        <time>2015-07-03T09:51:57.384Z</time>
      </trkpt>
      <trkpt lat="45.99111" lon="4.91031">
        <ele>305.200012207</ele>
        <time>2015-07-03T09:51:58.383Z</time>
      </trkpt>
      <trkpt lat="45.99106" lon="4.91035">
        <ele>304.799987793</ele>
        <time>2015-07-03T09:51:59.391Z</time>
      </trkpt>
      <trkpt lat="45.99102" lon="4.9104">
        <ele>305</ele>
        <time>2015-07-03T09:52:00.386Z</time>
      </trkpt>
      <trkpt lat="45.99098" lon="4.91046">
        <ele>304.899993896</ele>
        <time>2015-07-03T09:52:01.426Z</time>
      </trkpt>
      <trkpt lat="45.99093" lon="4.91051">
        <ele>305.299987793</ele>
        <time>2015-07-03T09:52:02.384Z</time>
      </trkpt>
      <trkpt lat="45.99089" lon="4.91056">
        <ele>305.399993896</ele>
        <time>2015-07-03T09:52:03.385Z</time>
      </trkpt>
      <trkpt lat="45.99085" lon="4.91061">
        <ele>305.799987793</ele>
        <time>2015-07-03T09:52:04.382Z</time>
      </trkpt>
      <trkpt lat="45.99081" lon="4.91066">
        <ele>305.600006104</ele>
        <time>2015-07-03T09:52:05.383Z</time>
      </trkpt>
      <trkpt lat="45.99077" lon="4.9107">
        <ele>306</ele>
        <time>2015-07-03T09:52:06.386Z</time>
      </trkpt>
      <trkpt lat="45.99074" lon="4.91075">
        <ele>306.100006104</ele>
        <time>2015-07-03T09:52:07.383Z</time>
      </trkpt>
      <trkpt lat="45.9907" lon="4.9108">
        <ele>306.100006104</ele>
        <time>2015-07-03T09:52:08.387Z</time>
      </trkpt>
      <trkpt lat="45.99065" lon="4.91085">
        <ele>306</ele>
        <time>2015-07-03T09:52:09.382Z</time>
      </trkpt>
      <trkpt lat="45.99061" lon="4.9109">
        <ele>305.899993896</ele>
        <time>2015-07-03T09:52:10.382Z</time>
      </trkpt>
      <trkpt lat="45.99057" lon="4.91095">
        <ele>305.5</ele>
        <time>2015-07-03T09:52:11.385Z</time>
      </trkpt>
      <trkpt lat="45.99053" lon="4.911">
        <ele>305</ele>
        <time>2015-07-03T09:52:12.389Z</time>
      </trkpt>
      <trkpt lat="45.99049" lon="4.91105">
        <ele>305</ele>
        <time>2015-07-03T09:52:13.382Z</time>
      </trkpt>
      <trkpt lat="45.99044" lon="4.91109">
        <ele>304.899993896</ele>
        <time>2015-07-03T09:52:14.387Z</time>
      </trkpt>
      <trkpt lat="45.9904" lon="4.91114">
        <ele>304.799987793</ele>
        <time>2015-07-03T09:52:15.382Z</time>
      </trkpt>
      <trkpt lat="45.99035" lon="4.9112">
        <ele>304.899993896</ele>
        <time>2015-07-03T09:52:16.383Z</time>
      </trkpt>
      <trkpt lat="45.9903" lon="4.91125">
        <ele>304.799987793</ele>
        <time>2015-07-03T09:52:17.383Z</time>
      </trkpt>
      <trkpt lat="45.99026" lon="4.91131">
        <ele>304.299987793</ele>
        <time>2015-07-03T09:52:18.384Z</time>
      </trkpt>
      <trkpt lat="45.99021" lon="4.91136">
        <ele>303.899993896</ele>
        <time>2015-07-03T09:52:19.385Z</time>
      </trkpt>
      <trkpt lat="45.99016" lon="4.91141">
        <ele>303.799987793</ele>
        <time>2015-07-03T09:52:20.386Z</time>
      </trkpt>
      <trkpt lat="45.99012" lon="4.91146">
        <ele>303.299987793</ele>
        <time>2015-07-03T09:52:21.382Z</time>
      </trkpt>
      <trkpt lat="45.99007" lon="4.91152">
        <ele>303.200012207</ele>
        <time>2015-07-03T09:52:22.4Z</time>
      </trkpt>
      <trkpt lat="45.99003" lon="4.91157">
        <ele>303</ele>
        <time>2015-07-03T09:52:23.415Z</time>
      </trkpt>
      <trkpt lat="45.98999" lon="4.91163">
        <ele>303</ele>
        <time>2015-07-03T09:52:24.385Z</time>
      </trkpt>
      <trkpt lat="45.98995" lon="4.91168">
        <ele>303.100006104</ele>
        <time>2015-07-03T09:52:25.383Z</time>
      </trkpt>
      <trkpt lat="45.98991" lon="4.91173">
        <ele>302.899993896</ele>
        <time>2015-07-03T09:52:26.384Z</time>
      </trkpt>
      <trkpt lat="45.98987" lon="4.91178">
        <ele>302.700012207</ele>
        <time>2015-07-03T09:52:27.387Z</time>
      </trkpt>
      <trkpt lat="45.98983" lon="4.91183">
        <ele>302.600006104</ele>
        <time>2015-07-03T09:52:28.384Z</time>
      </trkpt>
      <trkpt lat="45.98978" lon="4.91187">
        <ele>302.700012207</ele>
        <time>2015-07-03T09:52:29.382Z</time>
      </trkpt>
      <trkpt lat="45.98974" lon="4.91192">
        <ele>302.100006104</ele>
        <time>2015-07-03T09:52:30.379Z</time>
      </trkpt>
      <trkpt lat="45.9897" lon="4.91198">
        <ele>301.899993896</ele>
        <time>2015-07-03T09:52:31.382Z</time>
      </trkpt>
      <trkpt lat="45.98966" lon="4.91203">
        <ele>301.899993896</ele>
        <time>2015-07-03T09:52:32.386Z</time>
      </trkpt>
      <trkpt lat="45.98962" lon="4.91208">
        <ele>301.899993896</ele>
        <time>2015-07-03T09:52:33.426Z</time>
      </trkpt>
      <trkpt lat="45.98957" lon="4.91213">
        <ele>301.700012207</ele>
        <time>2015-07-03T09:52:34.382Z</time>
      </trkpt>
      <trkpt lat="45.98953" lon="4.91219">
        <ele>301.399993896</ele>
        <time>2015-07-03T09:52:35.382Z</time>
      </trkpt>
      <trkpt lat="45.98949" lon="4.91224">
        <ele>301.399993896</ele>
        <time>2015-07-03T09:52:36.386Z</time>
      </trkpt>
      <trkpt lat="45.98945" lon="4.91229">
        <ele>301.600006104</ele>
        <time>2015-07-03T09:52:37.382Z</time>
      </trkpt>
      <trkpt lat="45.98941" lon="4.91234">
        <ele>301.600006104</ele>
        <time>2015-07-03T09:52:38.386Z</time>
      </trkpt>
      <trkpt lat="45.98937" lon="4.91239">
        <ele>301.5</ele>
        <time>2015-07-03T09:52:39.382Z</time>
      </trkpt>
      <trkpt lat="45.98933" lon="4.91244">
        <ele>301.5</ele>
        <time>2015-07-03T09:52:40.383Z</time>
      </trkpt>
      <trkpt lat="45.98929" lon="4.9125">
        <ele>301.399993896</ele>
        <time>2015-07-03T09:52:41.382Z</time>
      </trkpt>
      <trkpt lat="45.98924" lon="4.91255">
        <ele>301.700012207</ele>
        <time>2015-07-03T09:52:42.386Z</time>
      </trkpt>
      <trkpt lat="45.9892" lon="4.91261">
        <ele>302</ele>
        <time>2015-07-03T09:52:43.436Z</time>
      </trkpt>
      <trkpt lat="45.98916" lon="4.91267">
        <ele>302.600006104</ele>
        <time>2015-07-03T09:52:44.386Z</time>
      </trkpt>
      <trkpt lat="45.98911" lon="4.91271">
        <ele>302.200012207</ele>
        <time>2015-07-03T09:52:45.383Z</time>
      </trkpt>
      <trkpt lat="45.98907" lon="4.91277">
        <ele>301.899993896</ele>
        <time>2015-07-03T09:52:46.384Z</time>
      </trkpt>
      <trkpt lat="45.98903" lon="4.91282">
        <ele>301.600006104</ele>
        <time>2015-07-03T09:52:47.385Z</time>
      </trkpt>
      <trkpt lat="45.98899" lon="4.91287">
        <ele>301.5</ele>
        <time>2015-07-03T09:52:48.385Z</time>
      </trkpt>
      <trkpt lat="45.98895" lon="4.91292">
        <ele>301.399993896</ele>
        <time>2015-07-03T09:52:49.382Z</time>
      </trkpt>
      <trkpt lat="45.9889" lon="4.91297">
        <ele>301.299987793</ele>
        <time>2015-07-03T09:52:50.384Z</time>
      </trkpt>
      <trkpt lat="45.98886" lon="4.91303">
        <ele>301.399993896</ele>
        <time>2015-07-03T09:52:51.383Z</time>
      </trkpt>
      <trkpt lat="45.98882" lon="4.91308">
        <ele>301.200012207</ele>
        <time>2015-07-03T09:52:52.383Z</time>
      </trkpt>
      <trkpt lat="45.98877" lon="4.91314">
        <ele>301.399993896</ele>
        <time>2015-07-03T09:52:53.413Z</time>
      </trkpt>
      <trkpt lat="45.98873" lon="4.9132">
        <ele>301.5</ele>
        <time>2015-07-03T09:52:54.401Z</time>
      </trkpt>
      <trkpt lat="45.98868" lon="4.91325">
        <ele>301.399993896</ele>
        <time>2015-07-03T09:52:55.382Z</time>
      </trkpt>
      <trkpt lat="45.98864" lon="4.91331">
        <ele>301.200012207</ele>
        <time>2015-07-03T09:52:56.386Z</time>
      </trkpt>
      <trkpt lat="45.9886" lon="4.91337">
        <ele>301.100006104</ele>
        <time>2015-07-03T09:52:57.382Z</time>
      </trkpt>
      <trkpt lat="45.98856" lon="4.91342">
        <ele>301.100006104</ele>
        <time>2015-07-03T09:52:58.381Z</time>
      </trkpt>
      <trkpt lat="45.98852" lon="4.91348">
        <ele>300.799987793</ele>
        <time>2015-07-03T09:52:59.382Z</time>
      </trkpt>
      <trkpt lat="45.98848" lon="4.91352">
        <ele>300.799987793</ele>
        <time>2015-07-03T09:53:00.386Z</time>
      </trkpt>
      <trkpt lat="45.98844" lon="4.91356">
        <ele>300.600006104</ele>
        <time>2015-07-03T09:53:01.382Z</time>
      </trkpt>
      <trkpt lat="45.9884" lon="4.91362">
        <ele>300.299987793</ele>
        <time>2015-07-03T09:53:02.386Z</time>
      </trkpt>
      <trkpt lat="45.98836" lon="4.91367">
        <ele>299.899993896</ele>
        <time>2015-07-03T09:53:03.384Z</time>
      </trkpt>
      <trkpt lat="45.98832" lon="4.91372">
        <ele>299.799987793</ele>
        <time>2015-07-03T09:53:04.383Z</time>
      </trkpt>
      <trkpt lat="45.98827" lon="4.91377">
        <ele>299.5</ele>
        <time>2015-07-03T09:53:05.387Z</time>
      </trkpt>
      <trkpt lat="45.98823" lon="4.91383">
        <ele>299</ele>
        <time>2015-07-03T09:53:06.386Z</time>
      </trkpt>
      <trkpt lat="45.98819" lon="4.91388">
        <ele>298.700012207</ele>
        <time>2015-07-03T09:53:07.382Z</time>
      </trkpt>
      <trkpt lat="45.98815" lon="4.91393">
        <ele>298.200012207</ele>
        <time>2015-07-03T09:53:08.384Z</time>
      </trkpt>
      <trkpt lat="45.98811" lon="4.91398">
        <ele>297.700012207</ele>
        <time>2015-07-03T09:53:09.383Z</time>
      </trkpt>
      <trkpt lat="45.98807" lon="4.91404">
        <ele>297.299987793</ele>
        <time>2015-07-03T09:53:10.399Z</time>
      </trkpt>
      <trkpt lat="45.98802" lon="4.9141">
        <ele>297</ele>
        <time>2015-07-03T09:53:11.384Z</time>
      </trkpt>
      <trkpt lat="45.98798" lon="4.91415">
        <ele>296.799987793</ele>
        <time>2015-07-03T09:53:12.39Z</time>
      </trkpt>
      <trkpt lat="45.98793" lon="4.91421">
        <ele>296.5</ele>
        <time>2015-07-03T09:53:13.382Z</time>
      </trkpt>
      <trkpt lat="45.98788" lon="4.91427">
        <ele>296.5</ele>
        <time>2015-07-03T09:53:14.408Z</time>
      </trkpt>
      <trkpt lat="45.98783" lon="4.91431">
        <ele>296.600006104</ele>
        <time>2015-07-03T09:53:15.443Z</time>
      </trkpt>
      <trkpt lat="45.98778" lon="4.91437">
        <ele>296.399993896</ele>
        <time>2015-07-03T09:53:16.386Z</time>
      </trkpt>
      <trkpt lat="45.98773" lon="4.91443">
        <ele>296.100006104</ele>
        <time>2015-07-03T09:53:17.386Z</time>
      </trkpt>
      <trkpt lat="45.98769" lon="4.9145">
        <ele>296</ele>
        <time>2015-07-03T09:53:18.386Z</time>
      </trkpt>
      <trkpt lat="45.98764" lon="4.91456">
        <ele>296</ele>
        <time>2015-07-03T09:53:19.382Z</time>
      </trkpt>
      <trkpt lat="45.98759" lon="4.91462">
        <ele>295.899993896</ele>
        <time>2015-07-03T09:53:20.387Z</time>
      </trkpt>
      <trkpt lat="45.98754" lon="4.91468">
        <ele>295.899993896</ele>
        <time>2015-07-03T09:53:21.384Z</time>
      </trkpt>
      <trkpt lat="45.9875" lon="4.91474">
        <ele>296</ele>
        <time>2015-07-03T09:53:22.388Z</time>
      </trkpt>
      <trkpt lat="45.98745" lon="4.91479">
        <ele>296.100006104</ele>
        <time>2015-07-03T09:53:23.386Z</time>
      </trkpt>
      <trkpt lat="45.98741" lon="4.91484">
        <ele>296.200012207</ele>
        <time>2015-07-03T09:53:24.388Z</time>
      </trkpt>
      <trkpt lat="45.98737" lon="4.9149">
        <ele>296.399993896</ele>
        <time>2015-07-03T09:53:25.383Z</time>
      </trkpt>
      <trkpt lat="45.98733" lon="4.91495">
        <ele>296.600006104</ele>
        <time>2015-07-03T09:53:26.383Z</time>
      </trkpt>
      <trkpt lat="45.98729" lon="4.91501">
        <ele>297.100006104</ele>
        <time>2015-07-03T09:53:27.389Z</time>
      </trkpt>
      <trkpt lat="45.98726" lon="4.91507">
        <ele>297.299987793</ele>
        <time>2015-07-03T09:53:28.383Z</time>
      </trkpt>
      <trkpt lat="45.98722" lon="4.91512">
        <ele>297.200012207</ele>
        <time>2015-07-03T09:53:29.384Z</time>
      </trkpt>
      <trkpt lat="45.98718" lon="4.91516">
        <ele>297.5</ele>
        <time>2015-07-03T09:53:30.385Z</time>
      </trkpt>
      <trkpt lat="45.98715" lon="4.91521">
        <ele>297.399993896</ele>
        <time>2015-07-03T09:53:31.399Z</time>
      </trkpt>
      <trkpt lat="45.98711" lon="4.91525">
        <ele>297.600006104</ele>
        <time>2015-07-03T09:53:32.39Z</time>
      </trkpt>
      <trkpt lat="45.98708" lon="4.91531">
        <ele>297.700012207</ele>
        <time>2015-07-03T09:53:33.382Z</time>
      </trkpt>
      <trkpt lat="45.98703" lon="4.91536">
        <ele>298</ele>
        <time>2015-07-03T09:53:34.383Z</time>
      </trkpt>
      <trkpt lat="45.98699" lon="4.91541">
        <ele>298.299987793</ele>
        <time>2015-07-03T09:53:35.385Z</time>
      </trkpt>
      <trkpt lat="45.98694" lon="4.91546">
        <ele>298.600006104</ele>
        <time>2015-07-03T09:53:36.385Z</time>
      </trkpt>
      <trkpt lat="45.98689" lon="4.91552">
        <ele>299.100006104</ele>
        <time>2015-07-03T09:53:37.382Z</time>
      </trkpt>
      <trkpt lat="45.98685" lon="4.91556">
        <ele>299.5</ele>
        <time>2015-07-03T09:53:38.387Z</time>
      </trkpt>
      <trkpt lat="45.9868" lon="4.91561">
        <ele>299.600006104</ele>
        <time>2015-07-03T09:53:39.385Z</time>
      </trkpt>
      <trkpt lat="45.98676" lon="4.91566">
        <ele>300</ele>
        <time>2015-07-03T09:53:40.382Z</time>
      </trkpt>
      <trkpt lat="45.98672" lon="4.9157">
        <ele>300.5</ele>
        <time>2015-07-03T09:53:41.381Z</time>
      </trkpt>
      <trkpt lat="45.98668" lon="4.91575">
        <ele>300.799987793</ele>
        <time>2015-07-03T09:53:42.393Z</time>
      </trkpt>
      <trkpt lat="45.98665" lon="4.9158">
        <ele>301.200012207</ele>
        <time>2015-07-03T09:53:43.383Z</time>
      </trkpt>
      <trkpt lat="45.98661" lon="4.91585">
        <ele>301.5</ele>
        <time>2015-07-03T09:53:44.387Z</time>
      </trkpt>
      <trkpt lat="45.98657" lon="4.9159">
        <ele>301.899993896</ele>
        <time>2015-07-03T09:53:45.383Z</time>
      </trkpt>
      <trkpt lat="45.98652" lon="4.91595">
        <ele>302.200012207</ele>
        <time>2015-07-03T09:53:46.381Z</time>
      </trkpt>
      <trkpt lat="45.98648" lon="4.91601">
        <ele>303.100006104</ele>
        <time>2015-07-03T09:53:47.419Z</time>
      </trkpt>
      <trkpt lat="45.98643" lon="4.91607">
        <ele>303.5</ele>
        <time>2015-07-03T09:53:48.385Z</time>
      </trkpt>
      <trkpt lat="45.98639" lon="4.91612">
        <ele>303.899993896</ele>
        <time>2015-07-03T09:53:49.384Z</time>
      </trkpt>
      <trkpt lat="45.98633" lon="4.91618">
        <ele>304.299987793</ele>
        <time>2015-07-03T09:53:50.386Z</time>
      </trkpt>
      <trkpt lat="45.98627" lon="4.91624">
        <ele>304.600006104</ele>
        <time>2015-07-03T09:53:51.382Z</time>
      </trkpt>
      <trkpt lat="45.98621" lon="4.9163">
        <ele>304.700012207</ele>
        <time>2015-07-03T09:53:52.391Z</time>
      </trkpt>
      <trkpt lat="45.98617" lon="4.91636">
        <ele>304.899993896</ele>
        <time>2015-07-03T09:53:53.383Z</time>
      </trkpt>
      <trkpt lat="45.98611" lon="4.91643">
        <ele>305.100006104</ele>
        <time>2015-07-03T09:53:54.385Z</time>
      </trkpt>
      <trkpt lat="45.98606" lon="4.91648">
        <ele>305.299987793</ele>
        <time>2015-07-03T09:53:55.382Z</time>
      </trkpt>
      <trkpt lat="45.986" lon="4.91655">
        <ele>305.299987793</ele>
        <time>2015-07-03T09:53:56.386Z</time>
      </trkpt>
      <trkpt lat="45.98595" lon="4.91661">
        <ele>305.299987793</ele>
        <time>2015-07-03T09:53:57.383Z</time>
      </trkpt>
      <trkpt lat="45.98589" lon="4.91666">
        <ele>305.200012207</ele>
        <time>2015-07-03T09:53:58.4Z</time>
      </trkpt>
      <trkpt lat="45.98584" lon="4.91672">
        <ele>305.299987793</ele>
        <time>2015-07-03T09:53:59.385Z</time>
      </trkpt>
      <trkpt lat="45.98578" lon="4.91678">
        <ele>305.299987793</ele>
        <time>2015-07-03T09:54:00.387Z</time>
      </trkpt>
      <trkpt lat="45.98572" lon="4.91682">
        <ele>305.5</ele>
        <time>2015-07-03T09:54:01.381Z</time>
      </trkpt>
      <trkpt lat="45.98567" lon="4.91688">
        <ele>305.200012207</ele>
        <time>2015-07-03T09:54:02.394Z</time>
      </trkpt>
      <trkpt lat="45.98562" lon="4.91694">
        <ele>305.100006104</ele>
        <time>2015-07-03T09:54:03.381Z</time>
      </trkpt>
      <trkpt lat="45.98557" lon="4.917">
        <ele>305.100006104</ele>
        <time>2015-07-03T09:54:04.381Z</time>
      </trkpt>
      <trkpt lat="45.98552" lon="4.91706">
        <ele>305.100006104</ele>
        <time>2015-07-03T09:54:05.382Z</time>
      </trkpt>
      <trkpt lat="45.98547" lon="4.91712">
        <ele>304.799987793</ele>
        <time>2015-07-03T09:54:06.386Z</time>
      </trkpt>
      <trkpt lat="45.98542" lon="4.91717">
        <ele>304.5</ele>
        <time>2015-07-03T09:54:07.382Z</time>
      </trkpt>
      <trkpt lat="45.98538" lon="4.91724">
        <ele>304.299987793</ele>
        <time>2015-07-03T09:54:08.386Z</time>
      </trkpt>
      <trkpt lat="45.98533" lon="4.9173">
        <ele>304.200012207</ele>
        <time>2015-07-03T09:54:09.385Z</time>
      </trkpt>
      <trkpt lat="45.98528" lon="4.91736">
        <ele>303.600006104</ele>
        <time>2015-07-03T09:54:10.382Z</time>
      </trkpt>
      <trkpt lat="45.98524" lon="4.91742">
        <ele>303.399993896</ele>
        <time>2015-07-03T09:54:11.385Z</time>
      </trkpt>
      <trkpt lat="45.98519" lon="4.91748">
        <ele>302.799987793</ele>
        <time>2015-07-03T09:54:12.395Z</time>
      </trkpt>
      <trkpt lat="45.98514" lon="4.91754">
        <ele>302.5</ele>
        <time>2015-07-03T09:54:13.382Z</time>
      </trkpt>
      <trkpt lat="45.9851" lon="4.9176">
        <ele>302.399993896</ele>
        <time>2015-07-03T09:54:14.4Z</time>
      </trkpt>
      <trkpt lat="45.98505" lon="4.91765">
        <ele>302.299987793</ele>
        <time>2015-07-03T09:54:15.382Z</time>
      </trkpt>
      <trkpt lat="45.985" lon="4.91771">
        <ele>302.200012207</ele>
        <time>2015-07-03T09:54:16.383Z</time>
      </trkpt>
      <trkpt lat="45.98496" lon="4.91777">
        <ele>301.600006104</ele>
        <time>2015-07-03T09:54:17.381Z</time>
      </trkpt>
      <trkpt lat="45.98492" lon="4.91783">
        <ele>301.299987793</ele>
        <time>2015-07-03T09:54:18.385Z</time>
      </trkpt>
      <trkpt lat="45.98487" lon="4.91788">
        <ele>301.100006104</ele>
        <time>2015-07-03T09:54:19.381Z</time>
      </trkpt>
      <trkpt lat="45.98482" lon="4.91794">
        <ele>300.899993896</ele>
        <time>2015-07-03T09:54:20.383Z</time>
      </trkpt>
      <trkpt lat="45.98477" lon="4.91799">
        <ele>300.5</ele>
        <time>2015-07-03T09:54:21.383Z</time>
      </trkpt>
      <trkpt lat="45.98473" lon="4.91805">
        <ele>300.5</ele>
        <time>2015-07-03T09:54:22.394Z</time>
      </trkpt>
      <trkpt lat="45.98468" lon="4.9181">
        <ele>300</ele>
        <time>2015-07-03T09:54:23.382Z</time>
      </trkpt>
      <trkpt lat="45.98464" lon="4.91816">
        <ele>299.700012207</ele>
        <time>2015-07-03T09:54:24.384Z</time>
      </trkpt>
      <trkpt lat="45.9846" lon="4.91822">
        <ele>299.700012207</ele>
        <time>2015-07-03T09:54:25.381Z</time>
      </trkpt>
      <trkpt lat="45.98455" lon="4.91828">
        <ele>299.700012207</ele>
        <time>2015-07-03T09:54:26.376Z</time>
      </trkpt>
      <trkpt lat="45.98451" lon="4.91833">
        <ele>299.600006104</ele>
        <time>2015-07-03T09:54:27.386Z</time>
      </trkpt>
      <trkpt lat="45.98446" lon="4.91838">
        <ele>299.5</ele>
        <time>2015-07-03T09:54:28.383Z</time>
      </trkpt>
      <trkpt lat="45.98442" lon="4.91844">
        <ele>299.399993896</ele>
        <time>2015-07-03T09:54:29.382Z</time>
      </trkpt>
      <trkpt lat="45.98438" lon="4.9185">
        <ele>299.200012207</ele>
        <time>2015-07-03T09:54:30.436Z</time>
      </trkpt>
      <trkpt lat="45.98433" lon="4.91855">
        <ele>299.100006104</ele>
        <time>2015-07-03T09:54:31.407Z</time>
      </trkpt>
      <trkpt lat="45.98429" lon="4.9186">
        <ele>299</ele>
        <time>2015-07-03T09:54:32.4Z</time>
      </trkpt>
      <trkpt lat="45.98425" lon="4.91866">
        <ele>298.799987793</ele>
        <time>2015-07-03T09:54:33.382Z</time>
      </trkpt>
      <trkpt lat="45.98421" lon="4.91872">
        <ele>298.700012207</ele>
        <time>2015-07-03T09:54:34.382Z</time>
      </trkpt>
      <trkpt lat="45.98416" lon="4.91877">
        <ele>298.700012207</ele>
        <time>2015-07-03T09:54:35.4Z</time>
      </trkpt>
      <trkpt lat="45.98412" lon="4.91883">
        <ele>298.5</ele>
        <time>2015-07-03T09:54:36.385Z</time>
      </trkpt>
      <trkpt lat="45.98407" lon="4.91888">
        <ele>298.299987793</ele>
        <time>2015-07-03T09:54:37.382Z</time>
      </trkpt>
      <trkpt lat="45.98403" lon="4.91894">
        <ele>298.200012207</ele>
        <time>2015-07-03T09:54:38.383Z</time>
      </trkpt>
      <trkpt lat="45.98398" lon="4.91899">
        <ele>297.899993896</ele>
        <time>2015-07-03T09:54:39.383Z</time>
      </trkpt>
      <trkpt lat="45.98394" lon="4.91905">
        <ele>297.700012207</ele>
        <time>2015-07-03T09:54:40.382Z</time>
      </trkpt>
      <trkpt lat="45.98389" lon="4.9191">
        <ele>297.5</ele>
        <time>2015-07-03T09:54:41.381Z</time>
      </trkpt>
      <trkpt lat="45.98385" lon="4.91916">
        <ele>297.200012207</ele>
        <time>2015-07-03T09:54:42.399Z</time>
      </trkpt>
      <trkpt lat="45.9838" lon="4.91921">
        <ele>297.100006104</ele>
        <time>2015-07-03T09:54:43.384Z</time>
      </trkpt>
      <trkpt lat="45.98376" lon="4.91927">
        <ele>297.100006104</ele>
        <time>2015-07-03T09:54:44.385Z</time>
      </trkpt>
      <trkpt lat="45.98371" lon="4.91932">
        <ele>296.799987793</ele>
        <time>2015-07-03T09:54:45.382Z</time>
      </trkpt>
      <trkpt lat="45.98367" lon="4.91937">
        <ele>296.799987793</ele>
        <time>2015-07-03T09:54:46.398Z</time>
      </trkpt>
      <trkpt lat="45.98363" lon="4.91943">
        <ele>296.5</ele>
        <time>2015-07-03T09:54:47.382Z</time>
      </trkpt>
      <trkpt lat="45.98359" lon="4.91949">
        <ele>296.399993896</ele>
        <time>2015-07-03T09:54:48.387Z</time>
      </trkpt>
      <trkpt lat="45.98355" lon="4.91955">
        <ele>296.200012207</ele>
        <time>2015-07-03T09:54:49.383Z</time>
      </trkpt>
      <trkpt lat="45.98351" lon="4.9196">
        <ele>295.899993896</ele>
        <time>2015-07-03T09:54:50.383Z</time>
      </trkpt>
      <trkpt lat="45.98346" lon="4.91966">
        <ele>295.600006104</ele>
        <time>2015-07-03T09:54:51.383Z</time>
      </trkpt>
      <trkpt lat="45.98341" lon="4.91972">
        <ele>295.399993896</ele>
        <time>2015-07-03T09:54:52.4Z</time>
      </trkpt>
      <trkpt lat="45.98337" lon="4.91978">
        <ele>295.399993896</ele>
        <time>2015-07-03T09:54:53.413Z</time>
      </trkpt>
      <trkpt lat="45.98333" lon="4.91983">
        <ele>295.600006104</ele>
        <time>2015-07-03T09:54:54.386Z</time>
      </trkpt>
      <trkpt lat="45.98328" lon="4.91988">
        <ele>295.799987793</ele>
        <time>2015-07-03T09:54:55.382Z</time>
      </trkpt>
      <trkpt lat="45.98324" lon="4.91993">
        <ele>295.899993896</ele>
        <time>2015-07-03T09:54:56.398Z</time>
      </trkpt>
      <trkpt lat="45.98319" lon="4.91998">
        <ele>295.899993896</ele>
        <time>2015-07-03T09:54:57.378Z</time>
      </trkpt>
      <trkpt lat="45.98315" lon="4.92002">
        <ele>296</ele>
        <time>2015-07-03T09:54:58.717Z</time>
      </trkpt>
      <trkpt lat="45.98309" lon="4.92007">
        <ele>296</ele>
        <time>2015-07-03T09:54:59.447Z</time>
      </trkpt>
      <trkpt lat="45.98304" lon="4.92011">
        <ele>296.100006104</ele>
        <time>2015-07-03T09:55:00.386Z</time>
      </trkpt>
      <trkpt lat="45.98299" lon="4.92017">
        <ele>296.100006104</ele>
        <time>2015-07-03T09:55:01.467Z</time>
      </trkpt>
      <trkpt lat="45.98294" lon="4.92023">
        <ele>296.299987793</ele>
        <time>2015-07-03T09:55:02.404Z</time>
      </trkpt>
      <trkpt lat="45.9829" lon="4.92028">
        <ele>296.299987793</ele>
        <time>2015-07-03T09:55:03.413Z</time>
      </trkpt>
      <trkpt lat="45.98285" lon="4.92033">
        <ele>296.299987793</ele>
        <time>2015-07-03T09:55:04.446Z</time>
      </trkpt>
      <trkpt lat="45.98281" lon="4.92038">
        <ele>296.399993896</ele>
        <time>2015-07-03T09:55:05.587Z</time>
      </trkpt>
      <trkpt lat="45.98276" lon="4.92044">
        <ele>296.399993896</ele>
        <time>2015-07-03T09:55:06.41Z</time>
      </trkpt>
      <trkpt lat="45.98272" lon="4.92049">
        <ele>296.399993896</ele>
        <time>2015-07-03T09:55:07.437Z</time>
      </trkpt>
      <trkpt lat="45.98268" lon="4.92056">
        <ele>296.299987793</ele>
        <time>2015-07-03T09:55:08.447Z</time>
      </trkpt>
      <trkpt lat="45.98264" lon="4.92062">
        <ele>296.200012207</ele>
        <time>2015-07-03T09:55:09.853Z</time>
      </trkpt>
      <trkpt lat="45.9826" lon="4.92067">
        <ele>296.299987793</ele>
        <time>2015-07-03T09:55:10.536Z</time>
      </trkpt>
      <trkpt lat="45.98256" lon="4.92072">
        <ele>296.399993896</ele>
        <time>2015-07-03T09:55:11.453Z</time>
      </trkpt>
      <trkpt lat="45.98252" lon="4.92077">
        <ele>296.600006104</ele>
        <time>2015-07-03T09:55:12.439Z</time>
      </trkpt>
      <trkpt lat="45.98248" lon="4.92082">
        <ele>296.600006104</ele>
        <time>2015-07-03T09:55:13.456Z</time>
      </trkpt>
      <trkpt lat="45.98245" lon="4.92088">
        <ele>296.600006104</ele>
        <time>2015-07-03T09:55:14.396Z</time>
      </trkpt>
      <trkpt lat="45.98241" lon="4.92092">
        <ele>296.600006104</ele>
        <time>2015-07-03T09:55:15.436Z</time>
      </trkpt>
      <trkpt lat="45.98238" lon="4.92099">
        <ele>296.700012207</ele>
        <time>2015-07-03T09:55:16.426Z</time>
      </trkpt>
      <trkpt lat="45.98235" lon="4.92105">
        <ele>296.600006104</ele>
        <time>2015-07-03T09:55:17.446Z</time>
      </trkpt>
      <trkpt lat="45.9823" lon="4.9211">
        <ele>296.399993896</ele>
        <time>2015-07-03T09:55:18.406Z</time>
      </trkpt>
      <trkpt lat="45.98226" lon="4.92117">
        <ele>296.299987793</ele>
        <time>2015-07-03T09:55:19.403Z</time>
      </trkpt>
      <trkpt lat="45.98221" lon="4.92122">
        <ele>296.200012207</ele>
        <time>2015-07-03T09:55:20.406Z</time>
      </trkpt>
      <trkpt lat="45.98217" lon="4.92127">
        <ele>296.100006104</ele>
        <time>2015-07-03T09:55:21.396Z</time>
      </trkpt>
      <trkpt lat="45.98212" lon="4.92132">
        <ele>296.100006104</ele>
        <time>2015-07-03T09:55:22.416Z</time>
      </trkpt>
      <trkpt lat="45.98208" lon="4.92137">
        <ele>295.899993896</ele>
        <time>2015-07-03T09:55:23.593Z</time>
      </trkpt>
      <trkpt lat="45.98203" lon="4.92142">
        <ele>295.700012207</ele>
        <time>2015-07-03T09:55:24.406Z</time>
      </trkpt>
      <trkpt lat="45.98199" lon="4.92147">
        <ele>295.5</ele>
        <time>2015-07-03T09:55:25.396Z</time>
      </trkpt>
      <trkpt lat="45.98195" lon="4.92152">
        <ele>295.5</ele>
        <time>2015-07-03T09:55:26.386Z</time>
      </trkpt>
      <trkpt lat="45.98191" lon="4.92157">
        <ele>295.5</ele>
        <time>2015-07-03T09:55:27.406Z</time>
      </trkpt>
      <trkpt lat="45.98187" lon="4.92162">
        <ele>295.399993896</ele>
        <time>2015-07-03T09:55:28.396Z</time>
      </trkpt>
      <trkpt lat="45.98182" lon="4.92167">
        <ele>295.299987793</ele>
        <time>2015-07-03T09:55:29.447Z</time>
      </trkpt>
      <trkpt lat="45.98178" lon="4.9217">
        <ele>295.5</ele>
        <time>2015-07-03T09:55:30.386Z</time>
      </trkpt>
      <trkpt lat="45.98174" lon="4.92176">
        <ele>295.700012207</ele>
        <time>2015-07-03T09:55:31.382Z</time>
      </trkpt>
      <trkpt lat="45.98171" lon="4.92181">
        <ele>295.799987793</ele>
        <time>2015-07-03T09:55:32.406Z</time>
      </trkpt>
      <trkpt lat="45.98166" lon="4.92186">
        <ele>296</ele>
        <time>2015-07-03T09:55:33.529Z</time>
      </trkpt>
      <trkpt lat="45.98162" lon="4.92192">
        <ele>296.100006104</ele>
        <time>2015-07-03T09:55:34.381Z</time>
      </trkpt>
      <trkpt lat="45.98157" lon="4.92198">
        <ele>296.299987793</ele>
        <time>2015-07-03T09:55:35.394Z</time>
      </trkpt>
      <trkpt lat="45.98153" lon="4.92203">
        <ele>296.100006104</ele>
        <time>2015-07-03T09:55:36.422Z</time>
      </trkpt>
      <trkpt lat="45.98149" lon="4.92208">
        <ele>296</ele>
        <time>2015-07-03T09:55:37.382Z</time>
      </trkpt>
      <trkpt lat="45.98145" lon="4.92214">
        <ele>295.899993896</ele>
        <time>2015-07-03T09:55:38.383Z</time>
      </trkpt>
      <trkpt lat="45.98141" lon="4.92219">
        <ele>295.799987793</ele>
        <time>2015-07-03T09:55:39.383Z</time>
      </trkpt>
      <trkpt lat="45.98136" lon="4.92223">
        <ele>295.799987793</ele>
        <time>2015-07-03T09:55:40.382Z</time>
      </trkpt>
      <trkpt lat="45.98131" lon="4.92227">
        <ele>296.200012207</ele>
        <time>2015-07-03T09:55:41.381Z</time>
      </trkpt>
      <trkpt lat="45.98127" lon="4.92231">
        <ele>296.399993896</ele>
        <time>2015-07-03T09:55:42.397Z</time>
      </trkpt>
      <trkpt lat="45.98122" lon="4.92236">
        <ele>296.299987793</ele>
        <time>2015-07-03T09:55:43.382Z</time>
      </trkpt>
      <trkpt lat="45.98118" lon="4.92242">
        <ele>296.399993896</ele>
        <time>2015-07-03T09:55:44.383Z</time>
      </trkpt>
      <trkpt lat="45.98114" lon="4.92246">
        <ele>295.799987793</ele>
        <time>2015-07-03T09:55:45.383Z</time>
      </trkpt>
      <trkpt lat="45.9811" lon="4.9225">
        <ele>295.899993896</ele>
        <time>2015-07-03T09:55:46.385Z</time>
      </trkpt>
      <trkpt lat="45.98106" lon="4.92257">
        <ele>295.700012207</ele>
        <time>2015-07-03T09:55:47.383Z</time>
      </trkpt>
      <trkpt lat="45.98102" lon="4.92263">
        <ele>295.600006104</ele>
        <time>2015-07-03T09:55:48.387Z</time>
      </trkpt>
      <trkpt lat="45.98098" lon="4.92268">
        <ele>295.399993896</ele>
        <time>2015-07-03T09:55:49.4Z</time>
      </trkpt>
      <trkpt lat="45.98094" lon="4.92273">
        <ele>295.299987793</ele>
        <time>2015-07-03T09:55:50.387Z</time>
      </trkpt>
      <trkpt lat="45.98089" lon="4.92278">
        <ele>295.5</ele>
        <time>2015-07-03T09:55:51.383Z</time>
      </trkpt>
      <trkpt lat="45.98085" lon="4.92284">
        <ele>295.399993896</ele>
        <time>2015-07-03T09:55:52.409Z</time>
      </trkpt>
      <trkpt lat="45.98081" lon="4.92289">
        <ele>295.399993896</ele>
        <time>2015-07-03T09:55:53.395Z</time>
      </trkpt>
      <trkpt lat="45.98077" lon="4.92294">
        <ele>295.399993896</ele>
        <time>2015-07-03T09:55:54.41Z</time>
      </trkpt>
      <trkpt lat="45.98072" lon="4.92299">
        <ele>295.299987793</ele>
        <time>2015-07-03T09:55:55.382Z</time>
      </trkpt>
      <trkpt lat="45.98068" lon="4.92305">
        <ele>295.5</ele>
        <time>2015-07-03T09:55:56.382Z</time>
      </trkpt>
      <trkpt lat="45.98064" lon="4.92311">
        <ele>295.399993896</ele>
        <time>2015-07-03T09:55:57.382Z</time>
      </trkpt>
      <trkpt lat="45.9806" lon="4.92317">
        <ele>295.899993896</ele>
        <time>2015-07-03T09:55:58.382Z</time>
      </trkpt>
      <trkpt lat="45.98056" lon="4.92323">
        <ele>296.200012207</ele>
        <time>2015-07-03T09:55:59.384Z</time>
      </trkpt>
      <trkpt lat="45.98051" lon="4.92328">
        <ele>295.700012207</ele>
        <time>2015-07-03T09:56:00.386Z</time>
      </trkpt>
      <trkpt lat="45.98047" lon="4.92332">
        <ele>295.899993896</ele>
        <time>2015-07-03T09:56:01.377Z</time>
      </trkpt>
      <trkpt lat="45.98043" lon="4.92337">
        <ele>296</ele>
        <time>2015-07-03T09:56:02.41Z</time>
      </trkpt>
      <trkpt lat="45.98037" lon="4.92342">
        <ele>296.299987793</ele>
        <time>2015-07-03T09:56:03.384Z</time>
      </trkpt>
      <trkpt lat="45.98033" lon="4.92347">
        <ele>296.100006104</ele>
        <time>2015-07-03T09:56:04.383Z</time>
      </trkpt>
      <trkpt lat="45.98029" lon="4.92353">
        <ele>295.899993896</ele>
        <time>2015-07-03T09:56:05.383Z</time>
      </trkpt>
      <trkpt lat="45.98026" lon="4.92358">
        <ele>295.700012207</ele>
        <time>2015-07-03T09:56:06.384Z</time>
      </trkpt>
      <trkpt lat="45.98022" lon="4.92365">
        <ele>295.399993896</ele>
        <time>2015-07-03T09:56:07.382Z</time>
      </trkpt>
      <trkpt lat="45.98018" lon="4.92371">
        <ele>295</ele>
        <time>2015-07-03T09:56:08.386Z</time>
      </trkpt>
      <trkpt lat="45.98014" lon="4.92376">
        <ele>294.700012207</ele>
        <time>2015-07-03T09:56:09.382Z</time>
      </trkpt>
      <trkpt lat="45.9801" lon="4.92382">
        <ele>294.600006104</ele>
        <time>2015-07-03T09:56:10.401Z</time>
      </trkpt>
      <trkpt lat="45.98005" lon="4.92387">
        <ele>294.600006104</ele>
        <time>2015-07-03T09:56:11.381Z</time>
      </trkpt>
      <trkpt lat="45.98001" lon="4.92393">
        <ele>294.5</ele>
        <time>2015-07-03T09:56:12.412Z</time>
      </trkpt>
      <trkpt lat="45.97997" lon="4.92398">
        <ele>294.299987793</ele>
        <time>2015-07-03T09:56:13.382Z</time>
      </trkpt>
      <trkpt lat="45.97992" lon="4.92403">
        <ele>294.399993896</ele>
        <time>2015-07-03T09:56:14.383Z</time>
      </trkpt>
      <trkpt lat="45.97988" lon="4.92408">
        <ele>294.700012207</ele>
        <time>2015-07-03T09:56:15.382Z</time>
      </trkpt>
      <trkpt lat="45.97983" lon="4.92413">
        <ele>294.799987793</ele>
        <time>2015-07-03T09:56:16.381Z</time>
      </trkpt>
      <trkpt lat="45.97979" lon="4.92419">
        <ele>294.600006104</ele>
        <time>2015-07-03T09:56:17.378Z</time>
      </trkpt>
      <trkpt lat="45.97975" lon="4.92424">
        <ele>294.700012207</ele>
        <time>2015-07-03T09:56:18.385Z</time>
      </trkpt>
      <trkpt lat="45.9797" lon="4.9243">
        <ele>294.600006104</ele>
        <time>2015-07-03T09:56:19.416Z</time>
      </trkpt>
      <trkpt lat="45.97966" lon="4.92435">
        <ele>294.899993896</ele>
        <time>2015-07-03T09:56:20.386Z</time>
      </trkpt>
      <trkpt lat="45.97961" lon="4.92439">
        <ele>294.799987793</ele>
        <time>2015-07-03T09:56:21.382Z</time>
      </trkpt>
      <trkpt lat="45.97957" lon="4.92444">
        <ele>294.799987793</ele>
        <time>2015-07-03T09:56:22.413Z</time>
      </trkpt>
      <trkpt lat="45.97952" lon="4.92449">
        <ele>295</ele>
        <time>2015-07-03T09:56:23.382Z</time>
      </trkpt>
      <trkpt lat="45.97948" lon="4.92454">
        <ele>295.100006104</ele>
        <time>2015-07-03T09:56:24.386Z</time>
      </trkpt>
      <trkpt lat="45.97944" lon="4.92459">
        <ele>295</ele>
        <time>2015-07-03T09:56:25.382Z</time>
      </trkpt>
      <trkpt lat="45.9794" lon="4.92465">
        <ele>295.100006104</ele>
        <time>2015-07-03T09:56:26.383Z</time>
      </trkpt>
      <trkpt lat="45.97936" lon="4.9247">
        <ele>295.299987793</ele>
        <time>2015-07-03T09:56:27.383Z</time>
      </trkpt>
      <trkpt lat="45.97932" lon="4.92475">
        <ele>295</ele>
        <time>2015-07-03T09:56:28.381Z</time>
      </trkpt>
      <trkpt lat="45.97928" lon="4.92481">
        <ele>294</ele>
        <time>2015-07-03T09:56:29.382Z</time>
      </trkpt>
      <trkpt lat="45.97924" lon="4.92486">
        <ele>293.899993896</ele>
        <time>2015-07-03T09:56:30.386Z</time>
      </trkpt>
      <trkpt lat="45.97919" lon="4.9249">
        <ele>294.100006104</ele>
        <time>2015-07-03T09:56:31.426Z</time>
      </trkpt>
      <trkpt lat="45.97915" lon="4.92495">
        <ele>293.899993896</ele>
        <time>2015-07-03T09:56:32.415Z</time>
      </trkpt>
      <trkpt lat="45.97911" lon="4.92501">
        <ele>293.799987793</ele>
        <time>2015-07-03T09:56:33.382Z</time>
      </trkpt>
      <trkpt lat="45.97907" lon="4.92507">
        <ele>294</ele>
        <time>2015-07-03T09:56:34.382Z</time>
      </trkpt>
      <trkpt lat="45.97902" lon="4.92512">
        <ele>294.100006104</ele>
        <time>2015-07-03T09:56:35.381Z</time>
      </trkpt>
      <trkpt lat="45.97898" lon="4.92517">
        <ele>294.100006104</ele>
        <time>2015-07-03T09:56:36.385Z</time>
      </trkpt>
      <trkpt lat="45.97894" lon="4.92522">
        <ele>294.399993896</ele>
        <time>2015-07-03T09:56:37.382Z</time>
      </trkpt>
      <trkpt lat="45.9789" lon="4.92527">
        <ele>294.5</ele>
        <time>2015-07-03T09:56:38.383Z</time>
      </trkpt>
      <trkpt lat="45.97886" lon="4.92532">
        <ele>294.600006104</ele>
        <time>2015-07-03T09:56:39.381Z</time>
      </trkpt>
      <trkpt lat="45.97882" lon="4.92537">
        <ele>294.700012207</ele>
        <time>2015-07-03T09:56:40.412Z</time>
      </trkpt>
      <trkpt lat="45.97878" lon="4.92543">
        <ele>294.799987793</ele>
        <time>2015-07-03T09:56:41.385Z</time>
      </trkpt>
      <trkpt lat="45.97873" lon="4.92548">
        <ele>295</ele>
        <time>2015-07-03T09:56:42.451Z</time>
      </trkpt>
      <trkpt lat="45.97869" lon="4.92553">
        <ele>295.200012207</ele>
        <time>2015-07-03T09:56:43.381Z</time>
      </trkpt>
      <trkpt lat="45.97865" lon="4.92558">
        <ele>295.399993896</ele>
        <time>2015-07-03T09:56:44.426Z</time>
      </trkpt>
      <trkpt lat="45.97861" lon="4.92564">
        <ele>295.600006104</ele>
        <time>2015-07-03T09:56:45.384Z</time>
      </trkpt>
      <trkpt lat="45.97856" lon="4.92568">
        <ele>295.700012207</ele>
        <time>2015-07-03T09:56:46.383Z</time>
      </trkpt>
      <trkpt lat="45.97851" lon="4.92573">
        <ele>295.799987793</ele>
        <time>2015-07-03T09:56:47.383Z</time>
      </trkpt>
      <trkpt lat="45.97847" lon="4.92579">
        <ele>295.799987793</ele>
        <time>2015-07-03T09:56:48.386Z</time>
      </trkpt>
      <trkpt lat="45.97843" lon="4.92584">
        <ele>296</ele>
        <time>2015-07-03T09:56:49.381Z</time>
      </trkpt>
      <trkpt lat="45.97839" lon="4.92589">
        <ele>295.899993896</ele>
        <time>2015-07-03T09:56:50.384Z</time>
      </trkpt>
      <trkpt lat="45.97834" lon="4.92594">
        <ele>296</ele>
        <time>2015-07-03T09:56:51.378Z</time>
      </trkpt>
      <trkpt lat="45.9783" lon="4.92601">
        <ele>296.200012207</ele>
        <time>2015-07-03T09:56:52.415Z</time>
      </trkpt>
      <trkpt lat="45.97826" lon="4.92606">
        <ele>295.899993896</ele>
        <time>2015-07-03T09:56:53.381Z</time>
      </trkpt>
      <trkpt lat="45.97822" lon="4.92612">
        <ele>295.5</ele>
        <time>2015-07-03T09:56:54.384Z</time>
      </trkpt>
      <trkpt lat="45.97817" lon="4.92617">
        <ele>295.899993896</ele>
        <time>2015-07-03T09:56:55.381Z</time>
      </trkpt>
      <trkpt lat="45.97812" lon="4.92622">
        <ele>295.899993896</ele>
        <time>2015-07-03T09:56:56.383Z</time>
      </trkpt>
      <trkpt lat="45.97807" lon="4.92628">
        <ele>296.200012207</ele>
        <time>2015-07-03T09:56:57.384Z</time>
      </trkpt>
      <trkpt lat="45.97802" lon="4.92633">
        <ele>296.100006104</ele>
        <time>2015-07-03T09:56:58.383Z</time>
      </trkpt>
      <trkpt lat="45.97798" lon="4.92639">
        <ele>296</ele>
        <time>2015-07-03T09:56:59.381Z</time>
      </trkpt>
      <trkpt lat="45.97793" lon="4.92644">
        <ele>295.799987793</ele>
        <time>2015-07-03T09:57:00.388Z</time>
      </trkpt>
      <trkpt lat="45.97789" lon="4.92649">
        <ele>295.200012207</ele>
        <time>2015-07-03T09:57:01.382Z</time>
      </trkpt>
      <trkpt lat="45.97784" lon="4.92654">
        <ele>295.100006104</ele>
        <time>2015-07-03T09:57:02.434Z</time>
      </trkpt>
      <trkpt lat="45.9778" lon="4.92659">
        <ele>294.700012207</ele>
        <time>2015-07-03T09:57:03.381Z</time>
      </trkpt>
      <trkpt lat="45.97776" lon="4.92665">
        <ele>294.600006104</ele>
        <time>2015-07-03T09:57:04.382Z</time>
      </trkpt>
      <trkpt lat="45.97771" lon="4.9267">
        <ele>294.600006104</ele>
        <time>2015-07-03T09:57:05.381Z</time>
      </trkpt>
      <trkpt lat="45.97767" lon="4.92675">
        <ele>294.5</ele>
        <time>2015-07-03T09:57:06.384Z</time>
      </trkpt>
      <trkpt lat="45.97763" lon="4.9268">
        <ele>294.5</ele>
        <time>2015-07-03T09:57:07.382Z</time>
      </trkpt>
      <trkpt lat="45.97758" lon="4.92685">
        <ele>294.700012207</ele>
        <time>2015-07-03T09:57:08.383Z</time>
      </trkpt>
      <trkpt lat="45.97754" lon="4.92691">
        <ele>294.600006104</ele>
        <time>2015-07-03T09:57:09.382Z</time>
      </trkpt>
      <trkpt lat="45.9775" lon="4.92697">
        <ele>294.600006104</ele>
        <time>2015-07-03T09:57:10.381Z</time>
      </trkpt>
      <trkpt lat="45.97745" lon="4.92702">
        <ele>294.600006104</ele>
        <time>2015-07-03T09:57:11.383Z</time>
      </trkpt>
      <trkpt lat="45.97741" lon="4.92707">
        <ele>294.600006104</ele>
        <time>2015-07-03T09:57:12.42Z</time>
      </trkpt>
      <trkpt lat="45.97736" lon="4.92713">
        <ele>294.600006104</ele>
        <time>2015-07-03T09:57:13.381Z</time>
      </trkpt>
      <trkpt lat="45.97731" lon="4.92719">
        <ele>294.299987793</ele>
        <time>2015-07-03T09:57:14.383Z</time>
      </trkpt>
      <trkpt lat="45.97727" lon="4.92724">
        <ele>294.200012207</ele>
        <time>2015-07-03T09:57:15.399Z</time>
      </trkpt>
      <trkpt lat="45.97723" lon="4.92729">
        <ele>294.200012207</ele>
        <time>2015-07-03T09:57:16.381Z</time>
      </trkpt>
      <trkpt lat="45.97719" lon="4.92733">
        <ele>294.200012207</ele>
        <time>2015-07-03T09:57:17.383Z</time>
      </trkpt>
      <trkpt lat="45.97715" lon="4.92739">
        <ele>294.299987793</ele>
        <time>2015-07-03T09:57:18.402Z</time>
      </trkpt>
      <trkpt lat="45.9771" lon="4.92743">
        <ele>294.399993896</ele>
        <time>2015-07-03T09:57:19.413Z</time>
      </trkpt>
      <trkpt lat="45.97706" lon="4.92748">
        <ele>294.700012207</ele>
        <time>2015-07-03T09:57:20.388Z</time>
      </trkpt>
      <trkpt lat="45.97701" lon="4.92753">
        <ele>294.799987793</ele>
        <time>2015-07-03T09:57:21.385Z</time>
      </trkpt>
      <trkpt lat="45.97697" lon="4.92757">
        <ele>294.799987793</ele>
        <time>2015-07-03T09:57:22.42Z</time>
      </trkpt>
      <trkpt lat="45.97693" lon="4.92762">
        <ele>295.399993896</ele>
        <time>2015-07-03T09:57:23.381Z</time>
      </trkpt>
      <trkpt lat="45.97689" lon="4.92767">
        <ele>295.700012207</ele>
        <time>2015-07-03T09:57:24.385Z</time>
      </trkpt>
      <trkpt lat="45.97685" lon="4.92772">
        <ele>296</ele>
        <time>2015-07-03T09:57:25.381Z</time>
      </trkpt>
      <trkpt lat="45.9768" lon="4.92777">
        <ele>296.100006104</ele>
        <time>2015-07-03T09:57:26.383Z</time>
      </trkpt>
      <trkpt lat="45.97676" lon="4.92783">
        <ele>296.299987793</ele>
        <time>2015-07-03T09:57:27.384Z</time>
      </trkpt>
      <trkpt lat="45.97671" lon="4.92788">
        <ele>296.600006104</ele>
        <time>2015-07-03T09:57:28.383Z</time>
      </trkpt>
      <trkpt lat="45.97667" lon="4.92793">
        <ele>297.299987793</ele>
        <time>2015-07-03T09:57:29.381Z</time>
      </trkpt>
      <trkpt lat="45.97662" lon="4.92798">
        <ele>297.799987793</ele>
        <time>2015-07-03T09:57:30.387Z</time>
      </trkpt>
      <trkpt lat="45.97658" lon="4.92804">
        <ele>298.200012207</ele>
        <time>2015-07-03T09:57:31.381Z</time>
      </trkpt>
      <trkpt lat="45.97653" lon="4.92808">
        <ele>298.5</ele>
        <time>2015-07-03T09:57:32.413Z</time>
      </trkpt>
      <trkpt lat="45.97648" lon="4.92814">
        <ele>298.600006104</ele>
        <time>2015-07-03T09:57:33.381Z</time>
      </trkpt>
      <trkpt lat="45.97644" lon="4.9282">
        <ele>299.299987793</ele>
        <time>2015-07-03T09:57:34.398Z</time>
      </trkpt>
      <trkpt lat="45.9764" lon="4.92826">
        <ele>299.799987793</ele>
        <time>2015-07-03T09:57:35.382Z</time>
      </trkpt>
      <trkpt lat="45.97635" lon="4.92833">
        <ele>300.200012207</ele>
        <time>2015-07-03T09:57:36.387Z</time>
      </trkpt>
      <trkpt lat="45.9763" lon="4.92838">
        <ele>300.600006104</ele>
        <time>2015-07-03T09:57:37.381Z</time>
      </trkpt>
      <trkpt lat="45.97626" lon="4.92844">
        <ele>301.200012207</ele>
        <time>2015-07-03T09:57:38.379Z</time>
      </trkpt>
      <trkpt lat="45.97622" lon="4.9285">
        <ele>301.700012207</ele>
        <time>2015-07-03T09:57:39.381Z</time>
      </trkpt>
      <trkpt lat="45.97618" lon="4.92856">
        <ele>301.899993896</ele>
        <time>2015-07-03T09:57:40.381Z</time>
      </trkpt>
      <trkpt lat="45.97613" lon="4.92862">
        <ele>301.899993896</ele>
        <time>2015-07-03T09:57:41.404Z</time>
      </trkpt>
      <trkpt lat="45.97608" lon="4.92868">
        <ele>302.100006104</ele>
        <time>2015-07-03T09:57:42.412Z</time>
      </trkpt>
      <trkpt lat="45.97603" lon="4.92873">
        <ele>302.399993896</ele>
        <time>2015-07-03T09:57:43.398Z</time>
      </trkpt>
      <trkpt lat="45.97599" lon="4.92877">
        <ele>302.399993896</ele>
        <time>2015-07-03T09:57:44.383Z</time>
      </trkpt>
      <trkpt lat="45.97594" lon="4.92883">
        <ele>302</ele>
        <time>2015-07-03T09:57:45.398Z</time>
      </trkpt>
      <trkpt lat="45.9759" lon="4.92888">
        <ele>302.299987793</ele>
        <time>2015-07-03T09:57:46.385Z</time>
      </trkpt>
      <trkpt lat="45.97587" lon="4.92893">
        <ele>302.299987793</ele>
        <time>2015-07-03T09:57:47.385Z</time>
      </trkpt>
      <trkpt lat="45.97583" lon="4.92899">
        <ele>302.200012207</ele>
        <time>2015-07-03T09:57:48.4Z</time>
      </trkpt>
      <trkpt lat="45.97578" lon="4.92904">
        <ele>302.200012207</ele>
        <time>2015-07-03T09:57:49.382Z</time>
      </trkpt>
      <trkpt lat="45.97573" lon="4.92909">
        <ele>301.899993896</ele>
        <time>2015-07-03T09:57:50.382Z</time>
      </trkpt>
      <trkpt lat="45.97568" lon="4.92914">
        <ele>301.799987793</ele>
        <time>2015-07-03T09:57:51.382Z</time>
      </trkpt>
      <trkpt lat="45.97563" lon="4.9292">
        <ele>301.700012207</ele>
        <time>2015-07-03T09:57:52.403Z</time>
      </trkpt>
      <trkpt lat="45.97558" lon="4.92925">
        <ele>301.200012207</ele>
        <time>2015-07-03T09:57:53.378Z</time>
      </trkpt>
      <trkpt lat="45.97554" lon="4.92931">
        <ele>301</ele>
        <time>2015-07-03T09:57:54.386Z</time>
      </trkpt>
      <trkpt lat="45.97549" lon="4.92937">
        <ele>300.899993896</ele>
        <time>2015-07-03T09:57:55.382Z</time>
      </trkpt>
      <trkpt lat="45.97545" lon="4.92943">
        <ele>300.799987793</ele>
        <time>2015-07-03T09:57:56.383Z</time>
      </trkpt>
      <trkpt lat="45.9754" lon="4.92949">
        <ele>300.700012207</ele>
        <time>2015-07-03T09:57:57.381Z</time>
      </trkpt>
      <trkpt lat="45.97535" lon="4.92954">
        <ele>300.700012207</ele>
        <time>2015-07-03T09:57:58.382Z</time>
      </trkpt>
      <trkpt lat="45.9753" lon="4.92959">
        <ele>300.399993896</ele>
        <time>2015-07-03T09:57:59.381Z</time>
      </trkpt>
      <trkpt lat="45.97525" lon="4.92965">
        <ele>300.299987793</ele>
        <time>2015-07-03T09:58:00.386Z</time>
      </trkpt>
      <trkpt lat="45.97521" lon="4.92971">
        <ele>300.600006104</ele>
        <time>2015-07-03T09:58:01.399Z</time>
      </trkpt>
      <trkpt lat="45.97516" lon="4.92976">
        <ele>300.700012207</ele>
        <time>2015-07-03T09:58:02.407Z</time>
      </trkpt>
      <trkpt lat="45.97511" lon="4.9298">
        <ele>300.600006104</ele>
        <time>2015-07-03T09:58:03.381Z</time>
      </trkpt>
      <trkpt lat="45.97506" lon="4.92986">
        <ele>300.600006104</ele>
        <time>2015-07-03T09:58:04.381Z</time>
      </trkpt>
      <trkpt lat="45.97502" lon="4.92992">
        <ele>300.5</ele>
        <time>2015-07-03T09:58:05.381Z</time>
      </trkpt>
      <trkpt lat="45.97497" lon="4.92997">
        <ele>300.799987793</ele>
        <time>2015-07-03T09:58:06.385Z</time>
      </trkpt>
      <trkpt lat="45.97493" lon="4.93002">
        <ele>300.899993896</ele>
        <time>2015-07-03T09:58:07.383Z</time>
      </trkpt>
      <trkpt lat="45.97488" lon="4.93008">
        <ele>300.899993896</ele>
        <time>2015-07-03T09:58:08.382Z</time>
      </trkpt>
      <trkpt lat="45.97484" lon="4.93014">
        <ele>300.899993896</ele>
        <time>2015-07-03T09:58:09.381Z</time>
      </trkpt>
      <trkpt lat="45.97479" lon="4.9302">
        <ele>301.200012207</ele>
        <time>2015-07-03T09:58:10.382Z</time>
      </trkpt>
      <trkpt lat="45.97473" lon="4.93025">
        <ele>301.899993896</ele>
        <time>2015-07-03T09:58:11.416Z</time>
      </trkpt>
      <trkpt lat="45.97469" lon="4.93031">
        <ele>302.200012207</ele>
        <time>2015-07-03T09:58:12.408Z</time>
      </trkpt>
      <trkpt lat="45.97464" lon="4.93037">
        <ele>301.799987793</ele>
        <time>2015-07-03T09:58:13.384Z</time>
      </trkpt>
      <trkpt lat="45.9746" lon="4.93043">
        <ele>301.700012207</ele>
        <time>2015-07-03T09:58:14.384Z</time>
      </trkpt>
      <trkpt lat="45.97455" lon="4.93048">
        <ele>301.799987793</ele>
        <time>2015-07-03T09:58:15.381Z</time>
      </trkpt>
      <trkpt lat="45.97451" lon="4.93054">
        <ele>301.600006104</ele>
        <time>2015-07-03T09:58:16.381Z</time>
      </trkpt>
      <trkpt lat="45.97446" lon="4.9306">
        <ele>301.200012207</ele>
        <time>2015-07-03T09:58:17.417Z</time>
      </trkpt>
      <trkpt lat="45.97441" lon="4.93066">
        <ele>301</ele>
        <time>2015-07-03T09:58:18.386Z</time>
      </trkpt>
      <trkpt lat="45.97436" lon="4.93072">
        <ele>300.799987793</ele>
        <time>2015-07-03T09:58:19.381Z</time>
      </trkpt>
      <trkpt lat="45.97432" lon="4.93078">
        <ele>300.5</ele>
        <time>2015-07-03T09:58:20.395Z</time>
      </trkpt>
      <trkpt lat="45.97427" lon="4.93084">
        <ele>300.100006104</ele>
        <time>2015-07-03T09:58:21.381Z</time>
      </trkpt>
      <trkpt lat="45.97422" lon="4.93089">
        <ele>299.799987793</ele>
        <time>2015-07-03T09:58:22.436Z</time>
      </trkpt>
      <trkpt lat="45.97418" lon="4.93095">
        <ele>299.5</ele>
        <time>2015-07-03T09:58:23.382Z</time>
      </trkpt>
      <trkpt lat="45.97414" lon="4.93101">
        <ele>299.299987793</ele>
        <time>2015-07-03T09:58:24.385Z</time>
      </trkpt>
      <trkpt lat="45.97409" lon="4.93107">
        <ele>299.100006104</ele>
        <time>2015-07-03T09:58:25.381Z</time>
      </trkpt>
      <trkpt lat="45.97405" lon="4.93112">
        <ele>298.799987793</ele>
        <time>2015-07-03T09:58:26.382Z</time>
      </trkpt>
      <trkpt lat="45.97401" lon="4.93118">
        <ele>298.700012207</ele>
        <time>2015-07-03T09:58:27.384Z</time>
      </trkpt>
      <trkpt lat="45.97396" lon="4.93124">
        <ele>298.399993896</ele>
        <time>2015-07-03T09:58:28.381Z</time>
      </trkpt>
      <trkpt lat="45.97392" lon="4.9313">
        <ele>298.100006104</ele>
        <time>2015-07-03T09:58:29.382Z</time>
      </trkpt>
      <trkpt lat="45.97387" lon="4.93135">
        <ele>298.600006104</ele>
        <time>2015-07-03T09:58:30.385Z</time>
      </trkpt>
      <trkpt lat="45.97383" lon="4.93141">
        <ele>298.600006104</ele>
        <time>2015-07-03T09:58:31.398Z</time>
      </trkpt>
      <trkpt lat="45.97378" lon="4.93146">
        <ele>299.100006104</ele>
        <time>2015-07-03T09:58:32.395Z</time>
      </trkpt>
      <trkpt lat="45.97373" lon="4.9315">
        <ele>298.700012207</ele>
        <time>2015-07-03T09:58:33.381Z</time>
      </trkpt>
      <trkpt lat="45.97368" lon="4.93155">
        <ele>298.600006104</ele>
        <time>2015-07-03T09:58:34.381Z</time>
      </trkpt>
      <trkpt lat="45.97364" lon="4.93161">
        <ele>298.799987793</ele>
        <time>2015-07-03T09:58:35.38Z</time>
      </trkpt>
      <trkpt lat="45.97361" lon="4.93166">
        <ele>299.200012207</ele>
        <time>2015-07-03T09:58:36.384Z</time>
      </trkpt>
      <trkpt lat="45.97356" lon="4.9317">
        <ele>299.200012207</ele>
        <time>2015-07-03T09:58:37.384Z</time>
      </trkpt>
      <trkpt lat="45.97353" lon="4.93176">
        <ele>299.200012207</ele>
        <time>2015-07-03T09:58:38.398Z</time>
      </trkpt>
      <trkpt lat="45.9735" lon="4.93181">
        <ele>299.200012207</ele>
        <time>2015-07-03T09:58:39.385Z</time>
      </trkpt>
      <trkpt lat="45.97346" lon="4.93187">
        <ele>299.100006104</ele>
        <time>2015-07-03T09:58:40.383Z</time>
      </trkpt>
      <trkpt lat="45.97342" lon="4.93192">
        <ele>299</ele>
        <time>2015-07-03T09:58:41.416Z</time>
      </trkpt>
      <trkpt lat="45.97338" lon="4.93197">
        <ele>298.899993896</ele>
        <time>2015-07-03T09:58:42.398Z</time>
      </trkpt>
      <trkpt lat="45.97333" lon="4.93203">
        <ele>299.200012207</ele>
        <time>2015-07-03T09:58:43.378Z</time>
      </trkpt>
      <trkpt lat="45.97329" lon="4.93208">
        <ele>299.399993896</ele>
        <time>2015-07-03T09:58:44.386Z</time>
      </trkpt>
      <trkpt lat="45.97324" lon="4.93213">
        <ele>299.600006104</ele>
        <time>2015-07-03T09:58:45.382Z</time>
      </trkpt>
      <trkpt lat="45.9732" lon="4.93219">
        <ele>299.799987793</ele>
        <time>2015-07-03T09:58:46.382Z</time>
      </trkpt>
      <trkpt lat="45.97316" lon="4.93225">
        <ele>300.100006104</ele>
        <time>2015-07-03T09:58:47.381Z</time>
      </trkpt>
      <trkpt lat="45.97312" lon="4.93229">
        <ele>300.299987793</ele>
        <time>2015-07-03T09:58:48.386Z</time>
      </trkpt>
      <trkpt lat="45.97308" lon="4.93235">
        <ele>300.700012207</ele>
        <time>2015-07-03T09:58:49.397Z</time>
      </trkpt>
      <trkpt lat="45.97303" lon="4.93241">
        <ele>300.899993896</ele>
        <time>2015-07-03T09:58:50.382Z</time>
      </trkpt>
      <trkpt lat="45.97299" lon="4.93246">
        <ele>301.100006104</ele>
        <time>2015-07-03T09:58:51.384Z</time>
      </trkpt>
      <trkpt lat="45.97295" lon="4.93251">
        <ele>301.399993896</ele>
        <time>2015-07-03T09:58:52.387Z</time>
      </trkpt>
      <trkpt lat="45.9729" lon="4.93256">
        <ele>301.399993896</ele>
        <time>2015-07-03T09:58:53.406Z</time>
      </trkpt>
      <trkpt lat="45.97285" lon="4.93261">
        <ele>301.399993896</ele>
        <time>2015-07-03T09:58:54.385Z</time>
      </trkpt>
      <trkpt lat="45.9728" lon="4.93267">
        <ele>301.299987793</ele>
        <time>2015-07-03T09:58:55.381Z</time>
      </trkpt>
      <trkpt lat="45.97276" lon="4.93272">
        <ele>301.299987793</ele>
        <time>2015-07-03T09:58:56.383Z</time>
      </trkpt>
      <trkpt lat="45.97271" lon="4.93279">
        <ele>301.299987793</ele>
        <time>2015-07-03T09:58:57.381Z</time>
      </trkpt>
      <trkpt lat="45.97266" lon="4.93285">
        <ele>300.899993896</ele>
        <time>2015-07-03T09:58:58.417Z</time>
      </trkpt>
      <trkpt lat="45.97261" lon="4.9329">
        <ele>300.700012207</ele>
        <time>2015-07-03T09:58:59.383Z</time>
      </trkpt>
      <trkpt lat="45.97256" lon="4.93296">
        <ele>300.5</ele>
        <time>2015-07-03T09:59:00.385Z</time>
      </trkpt>
      <trkpt lat="45.97251" lon="4.93301">
        <ele>300.299987793</ele>
        <time>2015-07-03T09:59:01.381Z</time>
      </trkpt>
      <trkpt lat="45.97246" lon="4.93307">
        <ele>300</ele>
        <time>2015-07-03T09:59:02.392Z</time>
      </trkpt>
      <trkpt lat="45.97241" lon="4.93311">
        <ele>299.899993896</ele>
        <time>2015-07-03T09:59:03.385Z</time>
      </trkpt>
      <trkpt lat="45.97236" lon="4.93317">
        <ele>299.899993896</ele>
        <time>2015-07-03T09:59:04.382Z</time>
      </trkpt>
      <trkpt lat="45.97232" lon="4.93324">
        <ele>299.600006104</ele>
        <time>2015-07-03T09:59:05.426Z</time>
      </trkpt>
      <trkpt lat="45.97228" lon="4.93331">
        <ele>298.799987793</ele>
        <time>2015-07-03T09:59:06.385Z</time>
      </trkpt>
      <trkpt lat="45.97223" lon="4.93338">
        <ele>298.200012207</ele>
        <time>2015-07-03T09:59:07.381Z</time>
      </trkpt>
      <trkpt lat="45.97218" lon="4.93344">
        <ele>297.600006104</ele>
        <time>2015-07-03T09:59:08.383Z</time>
      </trkpt>
      <trkpt lat="45.97214" lon="4.9335">
        <ele>297</ele>
        <time>2015-07-03T09:59:09.384Z</time>
      </trkpt>
      <trkpt lat="45.9721" lon="4.93355">
        <ele>296.899993896</ele>
        <time>2015-07-03T09:59:10.399Z</time>
      </trkpt>
      <trkpt lat="45.97206" lon="4.9336">
        <ele>296.799987793</ele>
        <time>2015-07-03T09:59:11.383Z</time>
      </trkpt>
      <trkpt lat="45.97201" lon="4.93365">
        <ele>296.700012207</ele>
        <time>2015-07-03T09:59:12.389Z</time>
      </trkpt>
      <trkpt lat="45.97197" lon="4.9337">
        <ele>296.899993896</ele>
        <time>2015-07-03T09:59:13.383Z</time>
      </trkpt>
      <trkpt lat="45.97193" lon="4.93375">
        <ele>297.200012207</ele>
        <time>2015-07-03T09:59:14.386Z</time>
      </trkpt>
      <trkpt lat="45.97189" lon="4.9338">
        <ele>297.399993896</ele>
        <time>2015-07-03T09:59:15.381Z</time>
      </trkpt>
      <trkpt lat="45.97185" lon="4.93385">
        <ele>297.899993896</ele>
        <time>2015-07-03T09:59:16.382Z</time>
      </trkpt>
      <trkpt lat="45.97181" lon="4.93389">
        <ele>298.200012207</ele>
        <time>2015-07-03T09:59:17.382Z</time>
      </trkpt>
      <trkpt lat="45.97177" lon="4.93394">
        <ele>298.5</ele>
        <time>2015-07-03T09:59:18.386Z</time>
      </trkpt>
      <trkpt lat="45.97173" lon="4.93398">
        <ele>298.899993896</ele>
        <time>2015-07-03T09:59:19.381Z</time>
      </trkpt>
      <trkpt lat="45.97169" lon="4.93404">
        <ele>299.399993896</ele>
        <time>2015-07-03T09:59:20.384Z</time>
      </trkpt>
      <trkpt lat="45.97164" lon="4.93409">
        <ele>299.5</ele>
        <time>2015-07-03T09:59:21.383Z</time>
      </trkpt>
      <trkpt lat="45.9716" lon="4.93415">
        <ele>299.600006104</ele>
        <time>2015-07-03T09:59:22.384Z</time>
      </trkpt>
      <trkpt lat="45.97156" lon="4.93421">
        <ele>299.899993896</ele>
        <time>2015-07-03T09:59:23.383Z</time>
      </trkpt>
      <trkpt lat="45.97152" lon="4.93426">
        <ele>300.299987793</ele>
        <time>2015-07-03T09:59:24.386Z</time>
      </trkpt>
      <trkpt lat="45.97147" lon="4.93431">
        <ele>300.399993896</ele>
        <time>2015-07-03T09:59:25.381Z</time>
      </trkpt>
      <trkpt lat="45.97143" lon="4.93437">
        <ele>300.799987793</ele>
        <time>2015-07-03T09:59:26.399Z</time>
      </trkpt>
      <trkpt lat="45.97139" lon="4.93442">
        <ele>301.200012207</ele>
        <time>2015-07-03T09:59:27.383Z</time>
      </trkpt>
      <trkpt lat="45.97134" lon="4.93447">
        <ele>301.799987793</ele>
        <time>2015-07-03T09:59:28.403Z</time>
      </trkpt>
      <trkpt lat="45.9713" lon="4.93453">
        <ele>302.299987793</ele>
        <time>2015-07-03T09:59:29.382Z</time>
      </trkpt>
      <trkpt lat="45.97125" lon="4.93458">
        <ele>302.5</ele>
        <time>2015-07-03T09:59:30.386Z</time>
      </trkpt>
      <trkpt lat="45.97121" lon="4.93464">
        <ele>302.899993896</ele>
        <time>2015-07-03T09:59:31.385Z</time>
      </trkpt>
      <trkpt lat="45.97116" lon="4.93469">
        <ele>303.5</ele>
        <time>2015-07-03T09:59:32.384Z</time>
      </trkpt>
      <trkpt lat="45.97111" lon="4.93475">
        <ele>303.799987793</ele>
        <time>2015-07-03T09:59:33.382Z</time>
      </trkpt>
      <trkpt lat="45.97107" lon="4.93479">
        <ele>304.700012207</ele>
        <time>2015-07-03T09:59:34.382Z</time>
      </trkpt>
      <trkpt lat="45.97103" lon="4.93486">
        <ele>304.899993896</ele>
        <time>2015-07-03T09:59:35.383Z</time>
      </trkpt>
      <trkpt lat="45.97098" lon="4.93492">
        <ele>305.299987793</ele>
        <time>2015-07-03T09:59:36.386Z</time>
      </trkpt>
      <trkpt lat="45.97094" lon="4.93498">
        <ele>305.700012207</ele>
        <time>2015-07-03T09:59:37.399Z</time>
      </trkpt>
      <trkpt lat="45.9709" lon="4.93504">
        <ele>306.299987793</ele>
        <time>2015-07-03T09:59:38.382Z</time>
      </trkpt>
      <trkpt lat="45.97086" lon="4.93509">
        <ele>306.600006104</ele>
        <time>2015-07-03T09:59:39.382Z</time>
      </trkpt>
      <trkpt lat="45.97081" lon="4.93514">
        <ele>307.200012207</ele>
        <time>2015-07-03T09:59:40.382Z</time>
      </trkpt>
      <trkpt lat="45.97077" lon="4.93519">
        <ele>307.700012207</ele>
        <time>2015-07-03T09:59:41.382Z</time>
      </trkpt>
      <trkpt lat="45.97072" lon="4.93524">
        <ele>308.100006104</ele>
        <time>2015-07-03T09:59:42.387Z</time>
      </trkpt>
      <trkpt lat="45.97068" lon="4.93529">
        <ele>308.5</ele>
        <time>2015-07-03T09:59:43.382Z</time>
      </trkpt>
      <trkpt lat="45.97062" lon="4.93534">
        <ele>308.100006104</ele>
        <time>2015-07-03T09:59:44.382Z</time>
      </trkpt>
      <trkpt lat="45.97058" lon="4.9354">
        <ele>308.200012207</ele>
        <time>2015-07-03T09:59:45.382Z</time>
      </trkpt>
      <trkpt lat="45.97053" lon="4.93546">
        <ele>308.200012207</ele>
        <time>2015-07-03T09:59:46.382Z</time>
      </trkpt>
      <trkpt lat="45.97049" lon="4.93551">
        <ele>307.899993896</ele>
        <time>2015-07-03T09:59:47.4Z</time>
      </trkpt>
      <trkpt lat="45.97045" lon="4.93558">
        <ele>307.5</ele>
        <time>2015-07-03T09:59:48.385Z</time>
      </trkpt>
      <trkpt lat="45.97041" lon="4.93564">
        <ele>307</ele>
        <time>2015-07-03T09:59:49.382Z</time>
      </trkpt>
      <trkpt lat="45.97037" lon="4.9357">
        <ele>307.100006104</ele>
        <time>2015-07-03T09:59:50.382Z</time>
      </trkpt>
      <trkpt lat="45.97032" lon="4.93575">
        <ele>307.399993896</ele>
        <time>2015-07-03T09:59:51.383Z</time>
      </trkpt>
      <trkpt lat="45.97028" lon="4.93581">
        <ele>307.799987793</ele>
        <time>2015-07-03T09:59:52.382Z</time>
      </trkpt>
      <trkpt lat="45.97023" lon="4.93586">
        <ele>308.100006104</ele>
        <time>2015-07-03T09:59:53.399Z</time>
      </trkpt>
      <trkpt lat="45.97019" lon="4.93592">
        <ele>308.299987793</ele>
        <time>2015-07-03T09:59:54.383Z</time>
      </trkpt>
      <trkpt lat="45.97014" lon="4.93597">
        <ele>308.399993896</ele>
        <time>2015-07-03T09:59:55.382Z</time>
      </trkpt>
      <trkpt lat="45.9701" lon="4.93603">
        <ele>308.5</ele>
        <time>2015-07-03T09:59:56.383Z</time>
      </trkpt>
      <trkpt lat="45.97006" lon="4.93608">
        <ele>308.700012207</ele>
        <time>2015-07-03T09:59:57.384Z</time>
      </trkpt>
      <trkpt lat="45.97001" lon="4.93613">
        <ele>309.100006104</ele>
        <time>2015-07-03T09:59:58.381Z</time>
      </trkpt>
      <trkpt lat="45.96997" lon="4.93618">
        <ele>309.399993896</ele>
        <time>2015-07-03T09:59:59.381Z</time>
      </trkpt>
      <trkpt lat="45.96993" lon="4.93623">
        <ele>309.899993896</ele>
        <time>2015-07-03T10:00:00.398Z</time>
      </trkpt>
      <trkpt lat="45.96989" lon="4.93628">
        <ele>310.299987793</ele>
        <time>2015-07-03T10:00:01.385Z</time>
      </trkpt>
      <trkpt lat="45.96984" lon="4.93634">
        <ele>310.899993896</ele>
        <time>2015-07-03T10:00:02.386Z</time>
      </trkpt>
      <trkpt lat="45.9698" lon="4.9364">
        <ele>311.200012207</ele>
        <time>2015-07-03T10:00:03.405Z</time>
      </trkpt>
      <trkpt lat="45.96976" lon="4.93644">
        <ele>311.5</ele>
        <time>2015-07-03T10:00:04.397Z</time>
      </trkpt>
      <trkpt lat="45.96971" lon="4.9365">
        <ele>312.100006104</ele>
        <time>2015-07-03T10:00:05.423Z</time>
      </trkpt>
      <trkpt lat="45.96967" lon="4.93657">
        <ele>312.600006104</ele>
        <time>2015-07-03T10:00:06.388Z</time>
      </trkpt>
      <trkpt lat="45.96961" lon="4.93662">
        <ele>312.899993896</ele>
        <time>2015-07-03T10:00:07.385Z</time>
      </trkpt>
      <trkpt lat="45.96957" lon="4.93668">
        <ele>313.100006104</ele>
        <time>2015-07-03T10:00:08.385Z</time>
      </trkpt>
      <trkpt lat="45.96952" lon="4.93673">
        <ele>313.5</ele>
        <time>2015-07-03T10:00:09.381Z</time>
      </trkpt>
      <trkpt lat="45.96947" lon="4.93679">
        <ele>313.799987793</ele>
        <time>2015-07-03T10:00:10.381Z</time>
      </trkpt>
      <trkpt lat="45.96941" lon="4.93685">
        <ele>314.100006104</ele>
        <time>2015-07-03T10:00:11.381Z</time>
      </trkpt>
      <trkpt lat="45.96936" lon="4.93691">
        <ele>314.100006104</ele>
        <time>2015-07-03T10:00:12.385Z</time>
      </trkpt>
      <trkpt lat="45.96931" lon="4.93697">
        <ele>314</ele>
        <time>2015-07-03T10:00:13.382Z</time>
      </trkpt>
      <trkpt lat="45.96926" lon="4.93702">
        <ele>314.100006104</ele>
        <time>2015-07-03T10:00:14.399Z</time>
      </trkpt>
      <trkpt lat="45.96922" lon="4.93707">
        <ele>314.100006104</ele>
        <time>2015-07-03T10:00:15.381Z</time>
      </trkpt>
      <trkpt lat="45.96917" lon="4.93712">
        <ele>313.899993896</ele>
        <time>2015-07-03T10:00:16.382Z</time>
      </trkpt>
      <trkpt lat="45.96911" lon="4.93716">
        <ele>313.899993896</ele>
        <time>2015-07-03T10:00:17.413Z</time>
      </trkpt>
      <trkpt lat="45.96906" lon="4.9372">
        <ele>314.700012207</ele>
        <time>2015-07-03T10:00:18.385Z</time>
      </trkpt>
      <trkpt lat="45.969" lon="4.93724">
        <ele>315</ele>
        <time>2015-07-03T10:00:19.382Z</time>
      </trkpt>
      <trkpt lat="45.96895" lon="4.93727">
        <ele>315.100006104</ele>
        <time>2015-07-03T10:00:20.385Z</time>
      </trkpt>
      <trkpt lat="45.96889" lon="4.93731">
        <ele>314.799987793</ele>
        <time>2015-07-03T10:00:21.384Z</time>
      </trkpt>
      <trkpt lat="45.96883" lon="4.93734">
        <ele>313.899993896</ele>
        <time>2015-07-03T10:00:22.381Z</time>
      </trkpt>
      <trkpt lat="45.96877" lon="4.93737">
        <ele>312.899993896</ele>
        <time>2015-07-03T10:00:23.387Z</time>
      </trkpt>
      <trkpt lat="45.96871" lon="4.9374">
        <ele>312.200012207</ele>
        <time>2015-07-03T10:00:24.385Z</time>
      </trkpt>
      <trkpt lat="45.96865" lon="4.93742">
        <ele>312</ele>
        <time>2015-07-03T10:00:25.396Z</time>
      </trkpt>
      <trkpt lat="45.96859" lon="4.93744">
        <ele>311.799987793</ele>
        <time>2015-07-03T10:00:26.383Z</time>
      </trkpt>
      <trkpt lat="45.96854" lon="4.93746">
        <ele>311.600006104</ele>
        <time>2015-07-03T10:00:27.384Z</time>
      </trkpt>
      <trkpt lat="45.96849" lon="4.93748">
        <ele>311.5</ele>
        <time>2015-07-03T10:00:28.381Z</time>
      </trkpt>
      <trkpt lat="45.96843" lon="4.9375">
        <ele>311.399993896</ele>
        <time>2015-07-03T10:00:29.381Z</time>
      </trkpt>
      <trkpt lat="45.96837" lon="4.93752">
        <ele>311.200012207</ele>
        <time>2015-07-03T10:00:30.385Z</time>
      </trkpt>
      <trkpt lat="45.96831" lon="4.93754">
        <ele>310.399993896</ele>
        <time>2015-07-03T10:00:31.394Z</time>
      </trkpt>
      <trkpt lat="45.96824" lon="4.93756">
        <ele>309.600006104</ele>
        <time>2015-07-03T10:00:32.381Z</time>
      </trkpt>
      <trkpt lat="45.96817" lon="4.93759">
        <ele>309.100006104</ele>
        <time>2015-07-03T10:00:33.381Z</time>
      </trkpt>
      <trkpt lat="45.9681" lon="4.93761">
        <ele>308.399993896</ele>
        <time>2015-07-03T10:00:34.383Z</time>
      </trkpt>
      <trkpt lat="45.96804" lon="4.93763">
        <ele>308</ele>
        <time>2015-07-03T10:00:35.381Z</time>
      </trkpt>
      <trkpt lat="45.96797" lon="4.93765">
        <ele>307.200012207</ele>
        <time>2015-07-03T10:00:36.385Z</time>
      </trkpt>
      <trkpt lat="45.96791" lon="4.93768">
        <ele>306.299987793</ele>
        <time>2015-07-03T10:00:37.381Z</time>
      </trkpt>
      <trkpt lat="45.96785" lon="4.9377">
        <ele>306</ele>
        <time>2015-07-03T10:00:38.382Z</time>
      </trkpt>
      <trkpt lat="45.96779" lon="4.93772">
        <ele>305.600006104</ele>
        <time>2015-07-03T10:00:39.383Z</time>
      </trkpt>
      <trkpt lat="45.96773" lon="4.93774">
        <ele>305.100006104</ele>
        <time>2015-07-03T10:00:40.381Z</time>
      </trkpt>
      <trkpt lat="45.96767" lon="4.93776">
        <ele>304.799987793</ele>
        <time>2015-07-03T10:00:41.396Z</time>
      </trkpt>
      <trkpt lat="45.96762" lon="4.93777">
        <ele>304.5</ele>
        <time>2015-07-03T10:00:42.387Z</time>
      </trkpt>
      <trkpt lat="45.96755" lon="4.93779">
        <ele>304.399993896</ele>
        <time>2015-07-03T10:00:43.382Z</time>
      </trkpt>
      <trkpt lat="45.96749" lon="4.93781">
        <ele>304.5</ele>
        <time>2015-07-03T10:00:44.381Z</time>
      </trkpt>
      <trkpt lat="45.96744" lon="4.93784">
        <ele>304.100006104</ele>
        <time>2015-07-03T10:00:45.381Z</time>
      </trkpt>
      <trkpt lat="45.96738" lon="4.93785">
        <ele>303.399993896</ele>
        <time>2015-07-03T10:00:46.381Z</time>
      </trkpt>
      <trkpt lat="45.96732" lon="4.93787">
        <ele>302.899993896</ele>
        <time>2015-07-03T10:00:47.381Z</time>
      </trkpt>
      <trkpt lat="45.96727" lon="4.93789">
        <ele>302.5</ele>
        <time>2015-07-03T10:00:48.385Z</time>
      </trkpt>
      <trkpt lat="45.96722" lon="4.9379">
        <ele>301.899993896</ele>
        <time>2015-07-03T10:00:49.381Z</time>
      </trkpt>
      <trkpt lat="45.96717" lon="4.93791">
        <ele>301.399993896</ele>
        <time>2015-07-03T10:00:50.383Z</time>
      </trkpt>
      <trkpt lat="45.96712" lon="4.93793">
        <ele>301.200012207</ele>
        <time>2015-07-03T10:00:51.381Z</time>
      </trkpt>
      <trkpt lat="45.96707" lon="4.93795">
        <ele>300.700012207</ele>
        <time>2015-07-03T10:00:52.399Z</time>
      </trkpt>
      <trkpt lat="45.96702" lon="4.93797">
        <ele>299.899993896</ele>
        <time>2015-07-03T10:00:53.385Z</time>
      </trkpt>
      <trkpt lat="45.96698" lon="4.93799">
        <ele>299.600006104</ele>
        <time>2015-07-03T10:00:54.386Z</time>
      </trkpt>
      <trkpt lat="45.96693" lon="4.938">
        <ele>299.100006104</ele>
        <time>2015-07-03T10:00:55.383Z</time>
      </trkpt>
      <trkpt lat="45.96688" lon="4.93801">
        <ele>298.700012207</ele>
        <time>2015-07-03T10:00:56.382Z</time>
      </trkpt>
      <trkpt lat="45.96679" lon="4.93798">
        <ele>298.600006104</ele>
        <time>2015-07-03T10:00:58.382Z</time>
      </trkpt>
      <trkpt lat="45.96676" lon="4.93793">
        <ele>298.399993896</ele>
        <time>2015-07-03T10:00:59.381Z</time>
      </trkpt>
      <trkpt lat="45.96672" lon="4.93788">
        <ele>298.299987793</ele>
        <time>2015-07-03T10:01:00.392Z</time>
      </trkpt>
      <trkpt lat="45.96669" lon="4.93783">
        <ele>298.100006104</ele>
        <time>2015-07-03T10:01:01.394Z</time>
      </trkpt>
      <trkpt lat="45.96665" lon="4.93777">
        <ele>298.200012207</ele>
        <time>2015-07-03T10:01:02.414Z</time>
      </trkpt>
      <trkpt lat="45.96661" lon="4.93771">
        <ele>298.100006104</ele>
        <time>2015-07-03T10:01:03.385Z</time>
      </trkpt>
      <trkpt lat="45.96657" lon="4.93765">
        <ele>298</ele>
        <time>2015-07-03T10:01:04.382Z</time>
      </trkpt>
      <trkpt lat="45.96654" lon="4.93759">
        <ele>297.600006104</ele>
        <time>2015-07-03T10:01:05.382Z</time>
      </trkpt>
      <trkpt lat="45.96649" lon="4.93754">
        <ele>297.5</ele>
        <time>2015-07-03T10:01:06.386Z</time>
      </trkpt>
      <trkpt lat="45.96645" lon="4.93749">
        <ele>297.399993896</ele>
        <time>2015-07-03T10:01:07.381Z</time>
      </trkpt>
      <trkpt lat="45.96641" lon="4.93744">
        <ele>297.399993896</ele>
        <time>2015-07-03T10:01:08.417Z</time>
      </trkpt>
      <trkpt lat="45.96636" lon="4.93739">
        <ele>297.200012207</ele>
        <time>2015-07-03T10:01:09.381Z</time>
      </trkpt>
      <trkpt lat="45.96632" lon="4.93735">
        <ele>297.100006104</ele>
        <time>2015-07-03T10:01:10.381Z</time>
      </trkpt>
      <trkpt lat="45.96627" lon="4.9373">
        <ele>296.899993896</ele>
        <time>2015-07-03T10:01:11.378Z</time>
      </trkpt>
      <trkpt lat="45.96623" lon="4.93725">
        <ele>296.799987793</ele>
        <time>2015-07-03T10:01:12.385Z</time>
      </trkpt>
      <trkpt lat="45.96618" lon="4.93721">
        <ele>296.700012207</ele>
        <time>2015-07-03T10:01:13.398Z</time>
      </trkpt>
      <trkpt lat="45.96614" lon="4.93716">
        <ele>296.799987793</ele>
        <time>2015-07-03T10:01:14.387Z</time>
      </trkpt>
      <trkpt lat="45.9661" lon="4.93712">
        <ele>296.899993896</ele>
        <time>2015-07-03T10:01:15.404Z</time>
      </trkpt>
      <trkpt lat="45.96606" lon="4.93708">
        <ele>296.899993896</ele>
        <time>2015-07-03T10:01:16.382Z</time>
      </trkpt>
      <trkpt lat="45.96602" lon="4.93704">
        <ele>297</ele>
        <time>2015-07-03T10:01:17.382Z</time>
      </trkpt>
      <trkpt lat="45.96597" lon="4.93699">
        <ele>296.799987793</ele>
        <time>2015-07-03T10:01:18.385Z</time>
      </trkpt>
      <trkpt lat="45.96593" lon="4.93695">
        <ele>297</ele>
        <time>2015-07-03T10:01:19.383Z</time>
      </trkpt>
      <trkpt lat="45.96587" lon="4.93686">
        <ele>297.399993896</ele>
        <time>2015-07-03T10:01:21.384Z</time>
      </trkpt>
      <trkpt lat="45.96584" lon="4.93681">
        <ele>297.700012207</ele>
        <time>2015-07-03T10:01:22.382Z</time>
      </trkpt>
      <trkpt lat="45.9658" lon="4.93676">
        <ele>297.700012207</ele>
        <time>2015-07-03T10:01:23.382Z</time>
      </trkpt>
      <trkpt lat="45.96576" lon="4.93671">
        <ele>297.600006104</ele>
        <time>2015-07-03T10:01:24.385Z</time>
      </trkpt>
      <trkpt lat="45.96573" lon="4.93666">
        <ele>297.600006104</ele>
        <time>2015-07-03T10:01:25.381Z</time>
      </trkpt>
      <trkpt lat="45.96569" lon="4.93661">
        <ele>297.899993896</ele>
        <time>2015-07-03T10:01:26.384Z</time>
      </trkpt>
      <trkpt lat="45.96566" lon="4.93656">
        <ele>298</ele>
        <time>2015-07-03T10:01:27.384Z</time>
      </trkpt>
      <trkpt lat="45.96562" lon="4.9365">
        <ele>298</ele>
        <time>2015-07-03T10:01:28.384Z</time>
      </trkpt>
      <trkpt lat="45.96558" lon="4.93645">
        <ele>298.299987793</ele>
        <time>2015-07-03T10:01:29.394Z</time>
      </trkpt>
      <trkpt lat="45.96554" lon="4.93639">
        <ele>298.299987793</ele>
        <time>2015-07-03T10:01:30.382Z</time>
      </trkpt>
      <trkpt lat="45.9655" lon="4.93634">
        <ele>298.799987793</ele>
        <time>2015-07-03T10:01:31.381Z</time>
      </trkpt>
      <trkpt lat="45.96546" lon="4.93629">
        <ele>299.200012207</ele>
        <time>2015-07-03T10:01:32.382Z</time>
      </trkpt>
      <trkpt lat="45.96542" lon="4.93624">
        <ele>299.200012207</ele>
        <time>2015-07-03T10:01:33.381Z</time>
      </trkpt>
      <trkpt lat="45.96538" lon="4.93618">
        <ele>299.299987793</ele>
        <time>2015-07-03T10:01:34.381Z</time>
      </trkpt>
      <trkpt lat="45.96535" lon="4.93612">
        <ele>299.5</ele>
        <time>2015-07-03T10:01:35.381Z</time>
      </trkpt>
      <trkpt lat="45.96531" lon="4.93606">
        <ele>299.399993896</ele>
        <time>2015-07-03T10:01:36.386Z</time>
      </trkpt>
      <trkpt lat="45.96527" lon="4.93601">
        <ele>299.399993896</ele>
        <time>2015-07-03T10:01:37.384Z</time>
      </trkpt>
      <trkpt lat="45.96523" lon="4.93596">
        <ele>299.700012207</ele>
        <time>2015-07-03T10:01:38.384Z</time>
      </trkpt>
      <trkpt lat="45.96519" lon="4.9359">
        <ele>299.600006104</ele>
        <time>2015-07-03T10:01:39.383Z</time>
      </trkpt>
      <trkpt lat="45.96515" lon="4.93584">
        <ele>299.5</ele>
        <time>2015-07-03T10:01:40.384Z</time>
      </trkpt>
      <trkpt lat="45.9651" lon="4.93579">
        <ele>299.700012207</ele>
        <time>2015-07-03T10:01:41.382Z</time>
      </trkpt>
      <trkpt lat="45.96506" lon="4.93573">
        <ele>300</ele>
        <time>2015-07-03T10:01:42.384Z</time>
      </trkpt>
      <trkpt lat="45.96502" lon="4.93568">
        <ele>300.100006104</ele>
        <time>2015-07-03T10:01:43.382Z</time>
      </trkpt>
      <trkpt lat="45.96498" lon="4.93563">
        <ele>300</ele>
        <time>2015-07-03T10:01:44.385Z</time>
      </trkpt>
      <trkpt lat="45.96494" lon="4.93558">
        <ele>299.899993896</ele>
        <time>2015-07-03T10:01:45.421Z</time>
      </trkpt>
      <trkpt lat="45.9649" lon="4.93552">
        <ele>299.799987793</ele>
        <time>2015-07-03T10:01:46.381Z</time>
      </trkpt>
      <trkpt lat="45.96486" lon="4.93546">
        <ele>299.5</ele>
        <time>2015-07-03T10:01:47.381Z</time>
      </trkpt>
      <trkpt lat="45.96482" lon="4.93541">
        <ele>299.299987793</ele>
        <time>2015-07-03T10:01:48.386Z</time>
      </trkpt>
      <trkpt lat="45.96478" lon="4.93535">
        <ele>299.399993896</ele>
        <time>2015-07-03T10:01:49.381Z</time>
      </trkpt>
      <trkpt lat="45.96475" lon="4.93528">
        <ele>298.899993896</ele>
        <time>2015-07-03T10:01:50.383Z</time>
      </trkpt>
      <trkpt lat="45.96472" lon="4.93521">
        <ele>299.100006104</ele>
        <time>2015-07-03T10:01:51.382Z</time>
      </trkpt>
      <trkpt lat="45.96468" lon="4.93515">
        <ele>299.299987793</ele>
        <time>2015-07-03T10:01:52.383Z</time>
      </trkpt>
      <trkpt lat="45.96463" lon="4.9351">
        <ele>299.299987793</ele>
        <time>2015-07-03T10:01:53.381Z</time>
      </trkpt>
      <trkpt lat="45.96459" lon="4.93504">
        <ele>299.200012207</ele>
        <time>2015-07-03T10:01:54.385Z</time>
      </trkpt>
      <trkpt lat="45.96454" lon="4.93498">
        <ele>299.299987793</ele>
        <time>2015-07-03T10:01:55.381Z</time>
      </trkpt>
      <trkpt lat="45.96449" lon="4.93492">
        <ele>299.700012207</ele>
        <time>2015-07-03T10:01:56.4Z</time>
      </trkpt>
      <trkpt lat="45.96445" lon="4.93486">
        <ele>299.899993896</ele>
        <time>2015-07-03T10:01:57.384Z</time>
      </trkpt>
      <trkpt lat="45.96441" lon="4.9348">
        <ele>300</ele>
        <time>2015-07-03T10:01:58.393Z</time>
      </trkpt>
      <trkpt lat="45.96437" lon="4.93474">
        <ele>300.299987793</ele>
        <time>2015-07-03T10:01:59.381Z</time>
      </trkpt>
      <trkpt lat="45.96433" lon="4.93469">
        <ele>300.600006104</ele>
        <time>2015-07-03T10:02:00.385Z</time>
      </trkpt>
      <trkpt lat="45.96429" lon="4.93465">
        <ele>300.700012207</ele>
        <time>2015-07-03T10:02:01.381Z</time>
      </trkpt>
      <trkpt lat="45.96425" lon="4.93461">
        <ele>300.799987793</ele>
        <time>2015-07-03T10:02:02.383Z</time>
      </trkpt>
      <trkpt lat="45.9642" lon="4.93456">
        <ele>300.799987793</ele>
        <time>2015-07-03T10:02:03.384Z</time>
      </trkpt>
      <trkpt lat="45.96415" lon="4.93452">
        <ele>300.700012207</ele>
        <time>2015-07-03T10:02:04.38Z</time>
      </trkpt>
      <trkpt lat="45.96411" lon="4.93448">
        <ele>300.600006104</ele>
        <time>2015-07-03T10:02:05.384Z</time>
      </trkpt>
      <trkpt lat="45.96407" lon="4.93444">
        <ele>300.600006104</ele>
        <time>2015-07-03T10:02:06.383Z</time>
      </trkpt>
      <trkpt lat="45.96402" lon="4.93439">
        <ele>300.700012207</ele>
        <time>2015-07-03T10:02:07.381Z</time>
      </trkpt>
      <trkpt lat="45.96398" lon="4.93436">
        <ele>300.700012207</ele>
        <time>2015-07-03T10:02:08.385Z</time>
      </trkpt>
      <trkpt lat="45.96393" lon="4.93432">
        <ele>300.700012207</ele>
        <time>2015-07-03T10:02:09.415Z</time>
      </trkpt>
      <trkpt lat="45.96388" lon="4.93428">
        <ele>300.700012207</ele>
        <time>2015-07-03T10:02:10.381Z</time>
      </trkpt>
      <trkpt lat="45.96384" lon="4.93423">
        <ele>300.799987793</ele>
        <time>2015-07-03T10:02:11.381Z</time>
      </trkpt>
      <trkpt lat="45.96378" lon="4.93419">
        <ele>300.299987793</ele>
        <time>2015-07-03T10:02:12.387Z</time>
      </trkpt>
      <trkpt lat="45.96373" lon="4.93415">
        <ele>300.100006104</ele>
        <time>2015-07-03T10:02:13.416Z</time>
      </trkpt>
      <trkpt lat="45.96367" lon="4.93411">
        <ele>300</ele>
        <time>2015-07-03T10:02:14.385Z</time>
      </trkpt>
      <trkpt lat="45.96362" lon="4.93408">
        <ele>300</ele>
        <time>2015-07-03T10:02:15.381Z</time>
      </trkpt>
      <trkpt lat="45.96355" lon="4.93406">
        <ele>299.899993896</ele>
        <time>2015-07-03T10:02:16.381Z</time>
      </trkpt>
      <trkpt lat="45.96349" lon="4.93402">
        <ele>299.899993896</ele>
        <time>2015-07-03T10:02:17.396Z</time>
      </trkpt>
      <trkpt lat="45.96343" lon="4.93399">
        <ele>299.600006104</ele>
        <time>2015-07-03T10:02:18.386Z</time>
      </trkpt>
      <trkpt lat="45.96338" lon="4.93395">
        <ele>299.5</ele>
        <time>2015-07-03T10:02:19.381Z</time>
      </trkpt>
      <trkpt lat="45.96332" lon="4.93392">
        <ele>299.600006104</ele>
        <time>2015-07-03T10:02:20.382Z</time>
      </trkpt>
      <trkpt lat="45.96327" lon="4.93388">
        <ele>299.399993896</ele>
        <time>2015-07-03T10:02:21.384Z</time>
      </trkpt>
      <trkpt lat="45.96322" lon="4.93385">
        <ele>299</ele>
        <time>2015-07-03T10:02:22.381Z</time>
      </trkpt>
      <trkpt lat="45.96316" lon="4.93383">
        <ele>298.700012207</ele>
        <time>2015-07-03T10:02:23.381Z</time>
      </trkpt>
      <trkpt lat="45.96312" lon="4.9338">
        <ele>298.399993896</ele>
        <time>2015-07-03T10:02:24.386Z</time>
      </trkpt>
      <trkpt lat="45.96305" lon="4.93375">
        <ele>298.299987793</ele>
        <time>2015-07-03T10:02:26.383Z</time>
      </trkpt>
      <trkpt lat="45.96301" lon="4.93372">
        <ele>298.600006104</ele>
        <time>2015-07-03T10:02:27.384Z</time>
      </trkpt>
      <trkpt lat="45.96296" lon="4.93368">
        <ele>298.700012207</ele>
        <time>2015-07-03T10:02:28.394Z</time>
      </trkpt>
      <trkpt lat="45.96291" lon="4.93365">
        <ele>298.799987793</ele>
        <time>2015-07-03T10:02:29.381Z</time>
      </trkpt>
      <trkpt lat="45.96286" lon="4.93362">
        <ele>298.700012207</ele>
        <time>2015-07-03T10:02:30.383Z</time>
      </trkpt>
      <trkpt lat="45.96282" lon="4.93359">
        <ele>298.600006104</ele>
        <time>2015-07-03T10:02:31.381Z</time>
      </trkpt>
      <trkpt lat="45.96277" lon="4.93356">
        <ele>298.899993896</ele>
        <time>2015-07-03T10:02:32.382Z</time>
      </trkpt>
      <trkpt lat="45.96273" lon="4.93353">
        <ele>299</ele>
        <time>2015-07-03T10:02:33.397Z</time>
      </trkpt>
      <trkpt lat="45.96269" lon="4.9335">
        <ele>298.899993896</ele>
        <time>2015-07-03T10:02:34.381Z</time>
      </trkpt>
      <trkpt lat="45.96265" lon="4.93346">
        <ele>299.200012207</ele>
        <time>2015-07-03T10:02:35.381Z</time>
      </trkpt>
      <trkpt lat="45.96261" lon="4.93341">
        <ele>299.299987793</ele>
        <time>2015-07-03T10:02:36.384Z</time>
      </trkpt>
      <trkpt lat="45.96257" lon="4.93337">
        <ele>299.5</ele>
        <time>2015-07-03T10:02:37.381Z</time>
      </trkpt>
      <trkpt lat="45.96252" lon="4.93332">
        <ele>299.600006104</ele>
        <time>2015-07-03T10:02:38.382Z</time>
      </trkpt>
      <trkpt lat="45.96247" lon="4.93328">
        <ele>299.700012207</ele>
        <time>2015-07-03T10:02:39.381Z</time>
      </trkpt>
      <trkpt lat="45.96243" lon="4.93323">
        <ele>299.5</ele>
        <time>2015-07-03T10:02:40.432Z</time>
      </trkpt>
      <trkpt lat="45.96238" lon="4.93319">
        <ele>299.100006104</ele>
        <time>2015-07-03T10:02:41.381Z</time>
      </trkpt>
      <trkpt lat="45.96233" lon="4.93313">
        <ele>299</ele>
        <time>2015-07-03T10:02:42.385Z</time>
      </trkpt>
      <trkpt lat="45.96229" lon="4.93307">
        <ele>299</ele>
        <time>2015-07-03T10:02:43.382Z</time>
      </trkpt>
      <trkpt lat="45.96226" lon="4.933">
        <ele>299</ele>
        <time>2015-07-03T10:02:44.382Z</time>
      </trkpt>
      <trkpt lat="45.96222" lon="4.93294">
        <ele>298.899993896</ele>
        <time>2015-07-03T10:02:45.384Z</time>
      </trkpt>
      <trkpt lat="45.96218" lon="4.93286">
        <ele>298.799987793</ele>
        <time>2015-07-03T10:02:46.385Z</time>
      </trkpt>
      <trkpt lat="45.96214" lon="4.93279">
        <ele>298.799987793</ele>
        <time>2015-07-03T10:02:47.381Z</time>
      </trkpt>
      <trkpt lat="45.96211" lon="4.93272">
        <ele>298.600006104</ele>
        <time>2015-07-03T10:02:48.383Z</time>
      </trkpt>
      <trkpt lat="45.96208" lon="4.93264">
        <ele>298.700012207</ele>
        <time>2015-07-03T10:02:49.396Z</time>
      </trkpt>
      <trkpt lat="45.96204" lon="4.93256">
        <ele>298.700012207</ele>
        <time>2015-07-03T10:02:50.406Z</time>
      </trkpt>
      <trkpt lat="45.96202" lon="4.93248">
        <ele>298.700012207</ele>
        <time>2015-07-03T10:02:51.384Z</time>
      </trkpt>
      <trkpt lat="45.96199" lon="4.93239">
        <ele>298.799987793</ele>
        <time>2015-07-03T10:02:52.384Z</time>
      </trkpt>
      <trkpt lat="45.96196" lon="4.93232">
        <ele>298.399993896</ele>
        <time>2015-07-03T10:02:53.381Z</time>
      </trkpt>
      <trkpt lat="45.96193" lon="4.93224">
        <ele>298.100006104</ele>
        <time>2015-07-03T10:02:54.385Z</time>
      </trkpt>
      <trkpt lat="45.9619" lon="4.93216">
        <ele>297.899993896</ele>
        <time>2015-07-03T10:02:55.401Z</time>
      </trkpt>
      <trkpt lat="45.96188" lon="4.93207">
        <ele>297.799987793</ele>
        <time>2015-07-03T10:02:56.382Z</time>
      </trkpt>
      <trkpt lat="45.96186" lon="4.93199">
        <ele>298</ele>
        <time>2015-07-03T10:02:57.381Z</time>
      </trkpt>
      <trkpt lat="45.96184" lon="4.93191">
        <ele>297.600006104</ele>
        <time>2015-07-03T10:02:58.381Z</time>
      </trkpt>
      <trkpt lat="45.96181" lon="4.93183">
        <ele>297.700012207</ele>
        <time>2015-07-03T10:02:59.381Z</time>
      </trkpt>
      <trkpt lat="45.96179" lon="4.93176">
        <ele>298.299987793</ele>
        <time>2015-07-03T10:03:00.407Z</time>
      </trkpt>
      <trkpt lat="45.96177" lon="4.93168">
        <ele>298.399993896</ele>
        <time>2015-07-03T10:03:01.381Z</time>
      </trkpt>
      <trkpt lat="45.96174" lon="4.93161">
        <ele>298.399993896</ele>
        <time>2015-07-03T10:03:02.403Z</time>
      </trkpt>
      <trkpt lat="45.96172" lon="4.93153">
        <ele>298.100006104</ele>
        <time>2015-07-03T10:03:03.381Z</time>
      </trkpt>
      <trkpt lat="45.9617" lon="4.93145">
        <ele>297.899993896</ele>
        <time>2015-07-03T10:03:04.381Z</time>
      </trkpt>
      <trkpt lat="45.96168" lon="4.93137">
        <ele>298.299987793</ele>
        <time>2015-07-03T10:03:05.383Z</time>
      </trkpt>
      <trkpt lat="45.96165" lon="4.9313">
        <ele>298.299987793</ele>
        <time>2015-07-03T10:03:06.385Z</time>
      </trkpt>
      <trkpt lat="45.96163" lon="4.93122">
        <ele>298.600006104</ele>
        <time>2015-07-03T10:03:07.381Z</time>
      </trkpt>
      <trkpt lat="45.9616" lon="4.93115">
        <ele>298.700012207</ele>
        <time>2015-07-03T10:03:08.382Z</time>
      </trkpt>
      <trkpt lat="45.96157" lon="4.93107">
        <ele>299</ele>
        <time>2015-07-03T10:03:09.381Z</time>
      </trkpt>
      <trkpt lat="45.96154" lon="4.93099">
        <ele>298.799987793</ele>
        <time>2015-07-03T10:03:10.401Z</time>
      </trkpt>
      <trkpt lat="45.96151" lon="4.93091">
        <ele>298.5</ele>
        <time>2015-07-03T10:03:11.384Z</time>
      </trkpt>
      <trkpt lat="45.96149" lon="4.93083">
        <ele>298.399993896</ele>
        <time>2015-07-03T10:03:12.383Z</time>
      </trkpt>
      <trkpt lat="45.96146" lon="4.93074">
        <ele>298.399993896</ele>
        <time>2015-07-03T10:03:13.381Z</time>
      </trkpt>
      <trkpt lat="45.96144" lon="4.93066">
        <ele>298.299987793</ele>
        <time>2015-07-03T10:03:14.383Z</time>
      </trkpt>
      <trkpt lat="45.96142" lon="4.93057">
        <ele>298.200012207</ele>
        <time>2015-07-03T10:03:15.382Z</time>
      </trkpt>
      <trkpt lat="45.96139" lon="4.93049">
        <ele>298.100006104</ele>
        <time>2015-07-03T10:03:16.381Z</time>
      </trkpt>
      <trkpt lat="45.96137" lon="4.9304">
        <ele>297.899993896</ele>
        <time>2015-07-03T10:03:17.417Z</time>
      </trkpt>
      <trkpt lat="45.96134" lon="4.93032">
        <ele>298.200012207</ele>
        <time>2015-07-03T10:03:18.384Z</time>
      </trkpt>
      <trkpt lat="45.96132" lon="4.93024">
        <ele>298.299987793</ele>
        <time>2015-07-03T10:03:19.381Z</time>
      </trkpt>
      <trkpt lat="45.96129" lon="4.93016">
        <ele>298.399993896</ele>
        <time>2015-07-03T10:03:20.38Z</time>
      </trkpt>
      <trkpt lat="45.96126" lon="4.93008">
        <ele>298.5</ele>
        <time>2015-07-03T10:03:21.397Z</time>
      </trkpt>
      <trkpt lat="45.96124" lon="4.93">
        <ele>299.100006104</ele>
        <time>2015-07-03T10:03:22.384Z</time>
      </trkpt>
      <trkpt lat="45.96122" lon="4.92993">
        <ele>299.200012207</ele>
        <time>2015-07-03T10:03:23.38Z</time>
      </trkpt>
      <trkpt lat="45.9612" lon="4.92986">
        <ele>299.299987793</ele>
        <time>2015-07-03T10:03:24.383Z</time>
      </trkpt>
      <trkpt lat="45.96119" lon="4.92979">
        <ele>299.299987793</ele>
        <time>2015-07-03T10:03:25.394Z</time>
      </trkpt>
      <trkpt lat="45.96117" lon="4.92973">
        <ele>299.200012207</ele>
        <time>2015-07-03T10:03:26.376Z</time>
      </trkpt>
      <trkpt lat="45.96116" lon="4.92966">
        <ele>298.899993896</ele>
        <time>2015-07-03T10:03:27.383Z</time>
      </trkpt>
      <trkpt lat="45.96114" lon="4.9296">
        <ele>299</ele>
        <time>2015-07-03T10:03:28.426Z</time>
      </trkpt>
      <trkpt lat="45.96112" lon="4.92953">
        <ele>299</ele>
        <time>2015-07-03T10:03:29.384Z</time>
      </trkpt>
      <trkpt lat="45.9611" lon="4.92947">
        <ele>298.799987793</ele>
        <time>2015-07-03T10:03:30.384Z</time>
      </trkpt>
      <trkpt lat="45.96108" lon="4.9294">
        <ele>298.399993896</ele>
        <time>2015-07-03T10:03:31.403Z</time>
      </trkpt>
      <trkpt lat="45.96106" lon="4.92933">
        <ele>298.100006104</ele>
        <time>2015-07-03T10:03:32.426Z</time>
      </trkpt>
      <trkpt lat="45.96104" lon="4.92926">
        <ele>298.100006104</ele>
        <time>2015-07-03T10:03:33.381Z</time>
      </trkpt>
      <trkpt lat="45.96102" lon="4.92919">
        <ele>298.100006104</ele>
        <time>2015-07-03T10:03:34.381Z</time>
      </trkpt>
      <trkpt lat="45.961" lon="4.92911">
        <ele>297.600006104</ele>
        <time>2015-07-03T10:03:35.381Z</time>
      </trkpt>
      <trkpt lat="45.96098" lon="4.92904">
        <ele>297.799987793</ele>
        <time>2015-07-03T10:03:36.384Z</time>
      </trkpt>
      <trkpt lat="45.96096" lon="4.92896">
        <ele>298</ele>
        <time>2015-07-03T10:03:37.381Z</time>
      </trkpt>
      <trkpt lat="45.96094" lon="4.92889">
        <ele>298.600006104</ele>
        <time>2015-07-03T10:03:38.38Z</time>
      </trkpt>
      <trkpt lat="45.96091" lon="4.92881">
        <ele>298.700012207</ele>
        <time>2015-07-03T10:03:39.381Z</time>
      </trkpt>
      <trkpt lat="45.96088" lon="4.92874">
        <ele>299</ele>
        <time>2015-07-03T10:03:40.384Z</time>
      </trkpt>
      <trkpt lat="45.96085" lon="4.92865">
        <ele>299</ele>
        <time>2015-07-03T10:03:41.38Z</time>
      </trkpt>
      <trkpt lat="45.96083" lon="4.92857">
        <ele>298.899993896</ele>
        <time>2015-07-03T10:03:42.383Z</time>
      </trkpt>
      <trkpt lat="45.96081" lon="4.92849">
        <ele>299</ele>
        <time>2015-07-03T10:03:43.381Z</time>
      </trkpt>
      <trkpt lat="45.96078" lon="4.92841">
        <ele>299.100006104</ele>
        <time>2015-07-03T10:03:44.381Z</time>
      </trkpt>
      <trkpt lat="45.96076" lon="4.92833">
        <ele>298.700012207</ele>
        <time>2015-07-03T10:03:45.381Z</time>
      </trkpt>
      <trkpt lat="45.96074" lon="4.92825">
        <ele>298.700012207</ele>
        <time>2015-07-03T10:03:46.382Z</time>
      </trkpt>
      <trkpt lat="45.96071" lon="4.92817">
        <ele>298.700012207</ele>
        <time>2015-07-03T10:03:47.398Z</time>
      </trkpt>
      <trkpt lat="45.96069" lon="4.92808">
        <ele>298.600006104</ele>
        <time>2015-07-03T10:03:48.384Z</time>
      </trkpt>
      <trkpt lat="45.96067" lon="4.928">
        <ele>298.600006104</ele>
        <time>2015-07-03T10:03:49.416Z</time>
      </trkpt>
      <trkpt lat="45.96064" lon="4.92792">
        <ele>298.100006104</ele>
        <time>2015-07-03T10:03:50.382Z</time>
      </trkpt>
      <trkpt lat="45.96061" lon="4.92784">
        <ele>297.899993896</ele>
        <time>2015-07-03T10:03:51.384Z</time>
      </trkpt>
      <trkpt lat="45.96058" lon="4.92776">
        <ele>297.600006104</ele>
        <time>2015-07-03T10:03:52.381Z</time>
      </trkpt>
      <trkpt lat="45.96055" lon="4.92768">
        <ele>297.5</ele>
        <time>2015-07-03T10:03:53.382Z</time>
      </trkpt>
      <trkpt lat="45.96053" lon="4.92759">
        <ele>297.600006104</ele>
        <time>2015-07-03T10:03:54.385Z</time>
      </trkpt>
      <trkpt lat="45.9605" lon="4.92751">
        <ele>297.799987793</ele>
        <time>2015-07-03T10:03:55.381Z</time>
      </trkpt>
      <trkpt lat="45.96048" lon="4.92743">
        <ele>297.799987793</ele>
        <time>2015-07-03T10:03:56.382Z</time>
      </trkpt>
      <trkpt lat="45.96046" lon="4.92735">
        <ele>298</ele>
        <time>2015-07-03T10:03:57.384Z</time>
      </trkpt>
      <trkpt lat="45.96043" lon="4.92728">
        <ele>297.899993896</ele>
        <time>2015-07-03T10:03:58.381Z</time>
      </trkpt>
      <trkpt lat="45.96042" lon="4.92721">
        <ele>297.899993896</ele>
        <time>2015-07-03T10:03:59.382Z</time>
      </trkpt>
      <trkpt lat="45.9604" lon="4.92714">
        <ele>297.899993896</ele>
        <time>2015-07-03T10:04:00.384Z</time>
      </trkpt>
      <trkpt lat="45.96038" lon="4.92707">
        <ele>298</ele>
        <time>2015-07-03T10:04:01.382Z</time>
      </trkpt>
      <trkpt lat="45.96035" lon="4.927">
        <ele>298</ele>
        <time>2015-07-03T10:04:02.383Z</time>
      </trkpt>
      <trkpt lat="45.96033" lon="4.92693">
        <ele>298.100006104</ele>
        <time>2015-07-03T10:04:03.398Z</time>
      </trkpt>
      <trkpt lat="45.96031" lon="4.92686">
        <ele>298.100006104</ele>
        <time>2015-07-03T10:04:04.381Z</time>
      </trkpt>
      <trkpt lat="45.96029" lon="4.92679">
        <ele>298</ele>
        <time>2015-07-03T10:04:05.381Z</time>
      </trkpt>
      <trkpt lat="45.96027" lon="4.92672">
        <ele>298</ele>
        <time>2015-07-03T10:04:06.383Z</time>
      </trkpt>
      <trkpt lat="45.96025" lon="4.92666">
        <ele>298.399993896</ele>
        <time>2015-07-03T10:04:07.38Z</time>
      </trkpt>
      <trkpt lat="45.96022" lon="4.92659">
        <ele>298.5</ele>
        <time>2015-07-03T10:04:08.386Z</time>
      </trkpt>
      <trkpt lat="45.9602" lon="4.92652">
        <ele>298.5</ele>
        <time>2015-07-03T10:04:09.38Z</time>
      </trkpt>
      <trkpt lat="45.96017" lon="4.92645">
        <ele>298.299987793</ele>
        <time>2015-07-03T10:04:10.38Z</time>
      </trkpt>
      <trkpt lat="45.96015" lon="4.92637">
        <ele>298.200012207</ele>
        <time>2015-07-03T10:04:11.383Z</time>
      </trkpt>
      <trkpt lat="45.96013" lon="4.9263">
        <ele>298</ele>
        <time>2015-07-03T10:04:12.384Z</time>
      </trkpt>
      <trkpt lat="45.96011" lon="4.92623">
        <ele>297.899993896</ele>
        <time>2015-07-03T10:04:13.381Z</time>
      </trkpt>
      <trkpt lat="45.96009" lon="4.92615">
        <ele>297.799987793</ele>
        <time>2015-07-03T10:04:14.381Z</time>
      </trkpt>
      <trkpt lat="45.96007" lon="4.92608">
        <ele>297.5</ele>
        <time>2015-07-03T10:04:15.381Z</time>
      </trkpt>
      <trkpt lat="45.96005" lon="4.92602">
        <ele>297.299987793</ele>
        <time>2015-07-03T10:04:16.384Z</time>
      </trkpt>
      <trkpt lat="45.96004" lon="4.92595">
        <ele>297</ele>
        <time>2015-07-03T10:04:17.38Z</time>
      </trkpt>
      <trkpt lat="45.96002" lon="4.92588">
        <ele>296.799987793</ele>
        <time>2015-07-03T10:04:18.383Z</time>
      </trkpt>
      <trkpt lat="45.96001" lon="4.9258">
        <ele>296.600006104</ele>
        <time>2015-07-03T10:04:19.402Z</time>
      </trkpt>
      <trkpt lat="45.96" lon="4.92573">
        <ele>296.899993896</ele>
        <time>2015-07-03T10:04:20.381Z</time>
      </trkpt>
      <trkpt lat="45.95997" lon="4.92566">
        <ele>297</ele>
        <time>2015-07-03T10:04:21.38Z</time>
      </trkpt>
      <trkpt lat="45.95996" lon="4.92558">
        <ele>296.899993896</ele>
        <time>2015-07-03T10:04:22.383Z</time>
      </trkpt>
      <trkpt lat="45.95994" lon="4.9255">
        <ele>296.899993896</ele>
        <time>2015-07-03T10:04:23.418Z</time>
      </trkpt>
      <trkpt lat="45.95992" lon="4.92543">
        <ele>296.799987793</ele>
        <time>2015-07-03T10:04:24.436Z</time>
      </trkpt>
      <trkpt lat="45.95991" lon="4.92536">
        <ele>296.799987793</ele>
        <time>2015-07-03T10:04:25.381Z</time>
      </trkpt>
      <trkpt lat="45.95989" lon="4.92528">
        <ele>296.899993896</ele>
        <time>2015-07-03T10:04:26.383Z</time>
      </trkpt>
      <trkpt lat="45.95988" lon="4.9252">
        <ele>297</ele>
        <time>2015-07-03T10:04:27.383Z</time>
      </trkpt>
      <trkpt lat="45.95987" lon="4.92512">
        <ele>297.200012207</ele>
        <time>2015-07-03T10:04:28.381Z</time>
      </trkpt>
      <trkpt lat="45.95985" lon="4.92503">
        <ele>297.299987793</ele>
        <time>2015-07-03T10:04:29.38Z</time>
      </trkpt>
      <trkpt lat="45.95983" lon="4.92495">
        <ele>297.399993896</ele>
        <time>2015-07-03T10:04:30.385Z</time>
      </trkpt>
      <trkpt lat="45.95981" lon="4.92488">
        <ele>297.5</ele>
        <time>2015-07-03T10:04:31.38Z</time>
      </trkpt>
      <trkpt lat="45.95979" lon="4.9248">
        <ele>297.700012207</ele>
        <time>2015-07-03T10:04:32.383Z</time>
      </trkpt>
      <trkpt lat="45.95978" lon="4.92473">
        <ele>297.700012207</ele>
        <time>2015-07-03T10:04:33.38Z</time>
      </trkpt>
      <trkpt lat="45.95976" lon="4.92466">
        <ele>297.700012207</ele>
        <time>2015-07-03T10:04:34.38Z</time>
      </trkpt>
      <trkpt lat="45.95974" lon="4.92459">
        <ele>297.600006104</ele>
        <time>2015-07-03T10:04:35.395Z</time>
      </trkpt>
      <trkpt lat="45.95973" lon="4.92452">
        <ele>297.5</ele>
        <time>2015-07-03T10:04:36.381Z</time>
      </trkpt>
      <trkpt lat="45.95971" lon="4.92445">
        <ele>297.600006104</ele>
        <time>2015-07-03T10:04:37.381Z</time>
      </trkpt>
      <trkpt lat="45.95971" lon="4.92437">
        <ele>297.299987793</ele>
        <time>2015-07-03T10:04:38.382Z</time>
      </trkpt>
      <trkpt lat="45.95969" lon="4.9243">
        <ele>297.200012207</ele>
        <time>2015-07-03T10:04:39.38Z</time>
      </trkpt>
      <trkpt lat="45.95968" lon="4.92423">
        <ele>296.799987793</ele>
        <time>2015-07-03T10:04:40.381Z</time>
      </trkpt>
      <trkpt lat="45.95966" lon="4.92415">
        <ele>296.899993896</ele>
        <time>2015-07-03T10:04:41.38Z</time>
      </trkpt>
      <trkpt lat="45.95966" lon="4.92408">
        <ele>297.100006104</ele>
        <time>2015-07-03T10:04:42.384Z</time>
      </trkpt>
      <trkpt lat="45.95964" lon="4.924">
        <ele>297.299987793</ele>
        <time>2015-07-03T10:04:43.381Z</time>
      </trkpt>
      <trkpt lat="45.95964" lon="4.92393">
        <ele>297.600006104</ele>
        <time>2015-07-03T10:04:44.382Z</time>
      </trkpt>
      <trkpt lat="45.95962" lon="4.92386">
        <ele>297.399993896</ele>
        <time>2015-07-03T10:04:45.38Z</time>
      </trkpt>
      <trkpt lat="45.95961" lon="4.92379">
        <ele>297.299987793</ele>
        <time>2015-07-03T10:04:46.398Z</time>
      </trkpt>
      <trkpt lat="45.9596" lon="4.92372">
        <ele>296.899993896</ele>
        <time>2015-07-03T10:04:47.38Z</time>
      </trkpt>
      <trkpt lat="45.95959" lon="4.92364">
        <ele>296.799987793</ele>
        <time>2015-07-03T10:04:48.384Z</time>
      </trkpt>
      <trkpt lat="45.95958" lon="4.92357">
        <ele>296.700012207</ele>
        <time>2015-07-03T10:04:49.446Z</time>
      </trkpt>
      <trkpt lat="45.95956" lon="4.9235">
        <ele>296.799987793</ele>
        <time>2015-07-03T10:04:50.382Z</time>
      </trkpt>
      <trkpt lat="45.95955" lon="4.92342">
        <ele>296.799987793</ele>
        <time>2015-07-03T10:04:51.396Z</time>
      </trkpt>
      <trkpt lat="45.95954" lon="4.92335">
        <ele>297.600006104</ele>
        <time>2015-07-03T10:04:52.381Z</time>
      </trkpt>
      <trkpt lat="45.95954" lon="4.92327">
        <ele>297.600006104</ele>
        <time>2015-07-03T10:04:53.383Z</time>
      </trkpt>
      <trkpt lat="45.95952" lon="4.9232">
        <ele>297.700012207</ele>
        <time>2015-07-03T10:04:54.397Z</time>
      </trkpt>
      <trkpt lat="45.9595" lon="4.92313">
        <ele>297.700012207</ele>
        <time>2015-07-03T10:04:55.395Z</time>
      </trkpt>
      <trkpt lat="45.95948" lon="4.92305">
        <ele>297.600006104</ele>
        <time>2015-07-03T10:04:56.395Z</time>
      </trkpt>
      <trkpt lat="45.95946" lon="4.92298">
        <ele>297.700012207</ele>
        <time>2015-07-03T10:04:57.38Z</time>
      </trkpt>
      <trkpt lat="45.95945" lon="4.92291">
        <ele>297.700012207</ele>
        <time>2015-07-03T10:04:58.383Z</time>
      </trkpt>
      <trkpt lat="45.95943" lon="4.92284">
        <ele>297.799987793</ele>
        <time>2015-07-03T10:04:59.383Z</time>
      </trkpt>
      <trkpt lat="45.95942" lon="4.92278">
        <ele>297.899993896</ele>
        <time>2015-07-03T10:05:00.383Z</time>
      </trkpt>
      <trkpt lat="45.95941" lon="4.92272">
        <ele>298.200012207</ele>
        <time>2015-07-03T10:05:01.38Z</time>
      </trkpt>
      <trkpt lat="45.9594" lon="4.92265">
        <ele>298.5</ele>
        <time>2015-07-03T10:05:02.382Z</time>
      </trkpt>
      <trkpt lat="45.95939" lon="4.92258">
        <ele>299.200012207</ele>
        <time>2015-07-03T10:05:03.382Z</time>
      </trkpt>
      <trkpt lat="45.95938" lon="4.92251">
        <ele>299.299987793</ele>
        <time>2015-07-03T10:05:04.382Z</time>
      </trkpt>
      <trkpt lat="45.95937" lon="4.92244">
        <ele>299.5</ele>
        <time>2015-07-03T10:05:05.382Z</time>
      </trkpt>
      <trkpt lat="45.95936" lon="4.92237">
        <ele>299.5</ele>
        <time>2015-07-03T10:05:06.383Z</time>
      </trkpt>
      <trkpt lat="45.95936" lon="4.92229">
        <ele>299.5</ele>
        <time>2015-07-03T10:05:07.398Z</time>
      </trkpt>
      <trkpt lat="45.95935" lon="4.92221">
        <ele>299.299987793</ele>
        <time>2015-07-03T10:05:08.383Z</time>
      </trkpt>
      <trkpt lat="45.95934" lon="4.92214">
        <ele>299.399993896</ele>
        <time>2015-07-03T10:05:09.383Z</time>
      </trkpt>
      <trkpt lat="45.95933" lon="4.92206">
        <ele>299.600006104</ele>
        <time>2015-07-03T10:05:10.382Z</time>
      </trkpt>
      <trkpt lat="45.95932" lon="4.92198">
        <ele>300</ele>
        <time>2015-07-03T10:05:11.38Z</time>
      </trkpt>
      <trkpt lat="45.9593" lon="4.9219">
        <ele>300.200012207</ele>
        <time>2015-07-03T10:05:12.382Z</time>
      </trkpt>
      <trkpt lat="45.9593" lon="4.92182">
        <ele>300.799987793</ele>
        <time>2015-07-03T10:05:13.382Z</time>
      </trkpt>
      <trkpt lat="45.95929" lon="4.92174">
        <ele>301</ele>
        <time>2015-07-03T10:05:14.381Z</time>
      </trkpt>
      <trkpt lat="45.95927" lon="4.92166">
        <ele>301.200012207</ele>
        <time>2015-07-03T10:05:15.382Z</time>
      </trkpt>
      <trkpt lat="45.95925" lon="4.92159">
        <ele>301.299987793</ele>
        <time>2015-07-03T10:05:16.384Z</time>
      </trkpt>
      <trkpt lat="45.95924" lon="4.92152">
        <ele>301.399993896</ele>
        <time>2015-07-03T10:05:17.38Z</time>
      </trkpt>
      <trkpt lat="45.95924" lon="4.92144">
        <ele>301.399993896</ele>
        <time>2015-07-03T10:05:18.429Z</time>
      </trkpt>
      <trkpt lat="45.95923" lon="4.92137">
        <ele>301.399993896</ele>
        <time>2015-07-03T10:05:19.382Z</time>
      </trkpt>
      <trkpt lat="45.95922" lon="4.9213">
        <ele>301.299987793</ele>
        <time>2015-07-03T10:05:20.383Z</time>
      </trkpt>
      <trkpt lat="45.9592" lon="4.92122">
        <ele>301.200012207</ele>
        <time>2015-07-03T10:05:21.383Z</time>
      </trkpt>
      <trkpt lat="45.95919" lon="4.92115">
        <ele>301.100006104</ele>
        <time>2015-07-03T10:05:22.377Z</time>
      </trkpt>
      <trkpt lat="45.95918" lon="4.92108">
        <ele>301</ele>
        <time>2015-07-03T10:05:23.381Z</time>
      </trkpt>
      <trkpt lat="45.95917" lon="4.92101">
        <ele>301</ele>
        <time>2015-07-03T10:05:24.384Z</time>
      </trkpt>
      <trkpt lat="45.95915" lon="4.92094">
        <ele>301.100006104</ele>
        <time>2015-07-03T10:05:25.38Z</time>
      </trkpt>
      <trkpt lat="45.95914" lon="4.92087">
        <ele>301.399993896</ele>
        <time>2015-07-03T10:05:26.425Z</time>
      </trkpt>
      <trkpt lat="45.95912" lon="4.9208">
        <ele>301.600006104</ele>
        <time>2015-07-03T10:05:27.383Z</time>
      </trkpt>
      <trkpt lat="45.95911" lon="4.92072">
        <ele>301.799987793</ele>
        <time>2015-07-03T10:05:28.381Z</time>
      </trkpt>
      <trkpt lat="45.9591" lon="4.92065">
        <ele>301.899993896</ele>
        <time>2015-07-03T10:05:29.38Z</time>
      </trkpt>
      <trkpt lat="45.95909" lon="4.92057">
        <ele>302</ele>
        <time>2015-07-03T10:05:30.383Z</time>
      </trkpt>
      <trkpt lat="45.95907" lon="4.9205">
        <ele>301.899993896</ele>
        <time>2015-07-03T10:05:31.382Z</time>
      </trkpt>
      <trkpt lat="45.95906" lon="4.92042">
        <ele>301.899993896</ele>
        <time>2015-07-03T10:05:32.385Z</time>
      </trkpt>
      <trkpt lat="45.95904" lon="4.92034">
        <ele>301.799987793</ele>
        <time>2015-07-03T10:05:33.397Z</time>
      </trkpt>
      <trkpt lat="45.95903" lon="4.92026">
        <ele>301.600006104</ele>
        <time>2015-07-03T10:05:34.384Z</time>
      </trkpt>
      <trkpt lat="45.95902" lon="4.92019">
        <ele>301.299987793</ele>
        <time>2015-07-03T10:05:35.382Z</time>
      </trkpt>
      <trkpt lat="45.95901" lon="4.9201">
        <ele>301.200012207</ele>
        <time>2015-07-03T10:05:36.436Z</time>
      </trkpt>
      <trkpt lat="45.95899" lon="4.92002">
        <ele>300.899993896</ele>
        <time>2015-07-03T10:05:37.382Z</time>
      </trkpt>
      <trkpt lat="45.95897" lon="4.91994">
        <ele>300.600006104</ele>
        <time>2015-07-03T10:05:38.383Z</time>
      </trkpt>
      <trkpt lat="45.95896" lon="4.91986">
        <ele>300.700012207</ele>
        <time>2015-07-03T10:05:39.384Z</time>
      </trkpt>
      <trkpt lat="45.95894" lon="4.91979">
        <ele>300.799987793</ele>
        <time>2015-07-03T10:05:40.38Z</time>
      </trkpt>
      <trkpt lat="45.95893" lon="4.91972">
        <ele>301</ele>
        <time>2015-07-03T10:05:41.384Z</time>
      </trkpt>
      <trkpt lat="45.95892" lon="4.91965">
        <ele>301.200012207</ele>
        <time>2015-07-03T10:05:42.383Z</time>
      </trkpt>
      <trkpt lat="45.95891" lon="4.91958">
        <ele>301.700012207</ele>
        <time>2015-07-03T10:05:43.381Z</time>
      </trkpt>
      <trkpt lat="45.95889" lon="4.91951">
        <ele>301.899993896</ele>
        <time>2015-07-03T10:05:44.381Z</time>
      </trkpt>
      <trkpt lat="45.95887" lon="4.91944">
        <ele>302.399993896</ele>
        <time>2015-07-03T10:05:45.381Z</time>
      </trkpt>
      <trkpt lat="45.95886" lon="4.91938">
        <ele>302.5</ele>
        <time>2015-07-03T10:05:46.383Z</time>
      </trkpt>
      <trkpt lat="45.95885" lon="4.9193">
        <ele>302.799987793</ele>
        <time>2015-07-03T10:05:47.383Z</time>
      </trkpt>
      <trkpt lat="45.95884" lon="4.91923">
        <ele>303</ele>
        <time>2015-07-03T10:05:48.385Z</time>
      </trkpt>
      <trkpt lat="45.95882" lon="4.91916">
        <ele>303.100006104</ele>
        <time>2015-07-03T10:05:49.399Z</time>
      </trkpt>
      <trkpt lat="45.95881" lon="4.91909">
        <ele>303.200012207</ele>
        <time>2015-07-03T10:05:50.381Z</time>
      </trkpt>
      <trkpt lat="45.9588" lon="4.91901">
        <ele>303.200012207</ele>
        <time>2015-07-03T10:05:51.38Z</time>
      </trkpt>
      <trkpt lat="45.95879" lon="4.91894">
        <ele>303.200012207</ele>
        <time>2015-07-03T10:05:52.38Z</time>
      </trkpt>
      <trkpt lat="45.95876" lon="4.91886">
        <ele>303.200012207</ele>
        <time>2015-07-03T10:05:53.382Z</time>
      </trkpt>
      <trkpt lat="45.95876" lon="4.91879">
        <ele>303.200012207</ele>
        <time>2015-07-03T10:05:54.385Z</time>
      </trkpt>
      <trkpt lat="45.95875" lon="4.91871">
        <ele>303.200012207</ele>
        <time>2015-07-03T10:05:55.38Z</time>
      </trkpt>
      <trkpt lat="45.95873" lon="4.91864">
        <ele>302.899993896</ele>
        <time>2015-07-03T10:05:56.382Z</time>
      </trkpt>
      <trkpt lat="45.95872" lon="4.91856">
        <ele>302.700012207</ele>
        <time>2015-07-03T10:05:57.38Z</time>
      </trkpt>
      <trkpt lat="45.9587" lon="4.91848">
        <ele>302.399993896</ele>
        <time>2015-07-03T10:05:58.383Z</time>
      </trkpt>
      <trkpt lat="45.9587" lon="4.9184">
        <ele>302.200012207</ele>
        <time>2015-07-03T10:05:59.38Z</time>
      </trkpt>
      <trkpt lat="45.95868" lon="4.91833">
        <ele>302.100006104</ele>
        <time>2015-07-03T10:06:00.436Z</time>
      </trkpt>
      <trkpt lat="45.95867" lon="4.91826">
        <ele>301.899993896</ele>
        <time>2015-07-03T10:06:01.383Z</time>
      </trkpt>
      <trkpt lat="45.95866" lon="4.91818">
        <ele>301.799987793</ele>
        <time>2015-07-03T10:06:02.386Z</time>
      </trkpt>
      <trkpt lat="45.95865" lon="4.91811">
        <ele>301.700012207</ele>
        <time>2015-07-03T10:06:03.381Z</time>
      </trkpt>
      <trkpt lat="45.95863" lon="4.91804">
        <ele>301.5</ele>
        <time>2015-07-03T10:06:04.383Z</time>
      </trkpt>
      <trkpt lat="45.95861" lon="4.91796">
        <ele>301.399993896</ele>
        <time>2015-07-03T10:06:05.381Z</time>
      </trkpt>
      <trkpt lat="45.9586" lon="4.91788">
        <ele>301.299987793</ele>
        <time>2015-07-03T10:06:06.387Z</time>
      </trkpt>
      <trkpt lat="45.95859" lon="4.91781">
        <ele>301.299987793</ele>
        <time>2015-07-03T10:06:07.384Z</time>
      </trkpt>
      <trkpt lat="45.95858" lon="4.91774">
        <ele>301.299987793</ele>
        <time>2015-07-03T10:06:08.381Z</time>
      </trkpt>
      <trkpt lat="45.95857" lon="4.91768">
        <ele>301.299987793</ele>
        <time>2015-07-03T10:06:09.382Z</time>
      </trkpt>
      <trkpt lat="45.95855" lon="4.91755">
        <ele>301.299987793</ele>
        <time>2015-07-03T10:06:11.382Z</time>
      </trkpt>
      <trkpt lat="45.95854" lon="4.91749">
        <ele>301.299987793</ele>
        <time>2015-07-03T10:06:12.389Z</time>
      </trkpt>
      <trkpt lat="45.95852" lon="4.91743">
        <ele>301.399993896</ele>
        <time>2015-07-03T10:06:13.421Z</time>
      </trkpt>
      <trkpt lat="45.95849" lon="4.91737">
        <ele>301.5</ele>
        <time>2015-07-03T10:06:14.383Z</time>
      </trkpt>
      <trkpt lat="45.95843" lon="4.91731">
        <ele>301.600006104</ele>
        <time>2015-07-03T10:06:16.381Z</time>
      </trkpt>
      <trkpt lat="45.95839" lon="4.9173">
        <ele>301.5</ele>
        <time>2015-07-03T10:06:17.381Z</time>
      </trkpt>
      <trkpt lat="45.95834" lon="4.91737">
        <ele>301.799987793</ele>
        <time>2015-07-03T10:06:19.384Z</time>
      </trkpt>
      <trkpt lat="45.95831" lon="4.91743">
        <ele>301.799987793</ele>
        <time>2015-07-03T10:06:20.381Z</time>
      </trkpt>
      <trkpt lat="45.95828" lon="4.91748">
        <ele>302</ele>
        <time>2015-07-03T10:06:21.397Z</time>
      </trkpt>
      <trkpt lat="45.95825" lon="4.91754">
        <ele>301.899993896</ele>
        <time>2015-07-03T10:06:22.385Z</time>
      </trkpt>
      <trkpt lat="45.95819" lon="4.91761">
        <ele>301.899993896</ele>
        <time>2015-07-03T10:06:23.381Z</time>
      </trkpt>
      <trkpt lat="45.95815" lon="4.91765">
        <ele>302</ele>
        <time>2015-07-03T10:06:24.387Z</time>
      </trkpt>
      <trkpt lat="45.9581" lon="4.9177">
        <ele>302.100006104</ele>
        <time>2015-07-03T10:06:25.38Z</time>
      </trkpt>
      <trkpt lat="45.95807" lon="4.91778">
        <ele>302.299987793</ele>
        <time>2015-07-03T10:06:26.382Z</time>
      </trkpt>
      <trkpt lat="45.95803" lon="4.91785">
        <ele>302.399993896</ele>
        <time>2015-07-03T10:06:27.382Z</time>
      </trkpt>
      <trkpt lat="45.958" lon="4.91792">
        <ele>302.5</ele>
        <time>2015-07-03T10:06:28.38Z</time>
      </trkpt>
      <trkpt lat="45.95795" lon="4.91797">
        <ele>302.600006104</ele>
        <time>2015-07-03T10:06:29.384Z</time>
      </trkpt>
      <trkpt lat="45.95791" lon="4.91802">
        <ele>302.799987793</ele>
        <time>2015-07-03T10:06:30.386Z</time>
      </trkpt>
      <trkpt lat="45.95788" lon="4.91809">
        <ele>302.899993896</ele>
        <time>2015-07-03T10:06:31.38Z</time>
      </trkpt>
      <trkpt lat="45.95785" lon="4.91815">
        <ele>303</ele>
        <time>2015-07-03T10:06:32.382Z</time>
      </trkpt>
      <trkpt lat="45.95781" lon="4.91822">
        <ele>303.200012207</ele>
        <time>2015-07-03T10:06:33.382Z</time>
      </trkpt>
      <trkpt lat="45.95777" lon="4.91829">
        <ele>303.399993896</ele>
        <time>2015-07-03T10:06:34.381Z</time>
      </trkpt>
      <trkpt lat="45.95774" lon="4.91836">
        <ele>303.600006104</ele>
        <time>2015-07-03T10:06:35.38Z</time>
      </trkpt>
      <trkpt lat="45.95771" lon="4.91843">
        <ele>303.799987793</ele>
        <time>2015-07-03T10:06:36.406Z</time>
      </trkpt>
      <trkpt lat="45.95768" lon="4.9185">
        <ele>304</ele>
        <time>2015-07-03T10:06:37.402Z</time>
      </trkpt>
      <trkpt lat="45.95766" lon="4.91857">
        <ele>304</ele>
        <time>2015-07-03T10:06:38.381Z</time>
      </trkpt>
      <trkpt lat="45.95763" lon="4.91866">
        <ele>304.299987793</ele>
        <time>2015-07-03T10:06:39.381Z</time>
      </trkpt>
      <trkpt lat="45.95761" lon="4.91875">
        <ele>304.600006104</ele>
        <time>2015-07-03T10:06:40.384Z</time>
      </trkpt>
      <trkpt lat="45.95758" lon="4.91884">
        <ele>304.399993896</ele>
        <time>2015-07-03T10:06:41.384Z</time>
      </trkpt>
      <trkpt lat="45.95754" lon="4.91891">
        <ele>304.299987793</ele>
        <time>2015-07-03T10:06:42.387Z</time>
      </trkpt>
      <trkpt lat="45.95751" lon="4.91899">
        <ele>304.299987793</ele>
        <time>2015-07-03T10:06:43.394Z</time>
      </trkpt>
      <trkpt lat="45.95748" lon="4.91907">
        <ele>304.299987793</ele>
        <time>2015-07-03T10:06:44.38Z</time>
      </trkpt>
      <trkpt lat="45.95745" lon="4.91915">
        <ele>304.299987793</ele>
        <time>2015-07-03T10:06:45.38Z</time>
      </trkpt>
      <trkpt lat="45.95742" lon="4.91922">
        <ele>304.299987793</ele>
        <time>2015-07-03T10:06:46.381Z</time>
      </trkpt>
      <trkpt lat="45.95739" lon="4.9193">
        <ele>304.299987793</ele>
        <time>2015-07-03T10:06:47.384Z</time>
      </trkpt>
      <trkpt lat="45.95734" lon="4.91937">
        <ele>304.299987793</ele>
        <time>2015-07-03T10:06:48.388Z</time>
      </trkpt>
      <trkpt lat="45.9573" lon="4.91944">
        <ele>304.299987793</ele>
        <time>2015-07-03T10:06:49.444Z</time>
      </trkpt>
      <trkpt lat="45.95727" lon="4.91951">
        <ele>304.299987793</ele>
        <time>2015-07-03T10:06:50.381Z</time>
      </trkpt>
      <trkpt lat="45.95723" lon="4.91958">
        <ele>304.299987793</ele>
        <time>2015-07-03T10:06:51.38Z</time>
      </trkpt>
      <trkpt lat="45.95719" lon="4.91964">
        <ele>304.299987793</ele>
        <time>2015-07-03T10:06:52.38Z</time>
      </trkpt>
      <trkpt lat="45.95715" lon="4.91969">
        <ele>304.299987793</ele>
        <time>2015-07-03T10:06:53.411Z</time>
      </trkpt>
      <trkpt lat="45.95712" lon="4.91973">
        <ele>304.299987793</ele>
        <time>2015-07-03T10:06:54.438Z</time>
      </trkpt>
      <trkpt lat="45.95709" lon="4.91979">
        <ele>304.399993896</ele>
        <time>2015-07-03T10:06:55.384Z</time>
      </trkpt>
      <trkpt lat="45.95709" lon="4.91986">
        <ele>304.5</ele>
        <time>2015-07-03T10:06:56.381Z</time>
      </trkpt>
      <trkpt lat="45.95707" lon="4.91992">
        <ele>304.5</ele>
        <time>2015-07-03T10:06:57.38Z</time>
      </trkpt>
      <trkpt lat="45.95702" lon="4.91997">
        <ele>304.200012207</ele>
        <time>2015-07-03T10:06:58.38Z</time>
      </trkpt>
      <trkpt lat="45.95699" lon="4.92003">
        <ele>304.200012207</ele>
        <time>2015-07-03T10:06:59.416Z</time>
      </trkpt>
      <trkpt lat="45.95696" lon="4.9201">
        <ele>304.200012207</ele>
        <time>2015-07-03T10:07:00.387Z</time>
      </trkpt>
      <trkpt lat="45.95691" lon="4.92014">
        <ele>304.100006104</ele>
        <time>2015-07-03T10:07:01.381Z</time>
      </trkpt>
      <trkpt lat="45.95686" lon="4.92017">
        <ele>303.799987793</ele>
        <time>2015-07-03T10:07:02.381Z</time>
      </trkpt>
      <trkpt lat="45.95679" lon="4.92019">
        <ele>304.200012207</ele>
        <time>2015-07-03T10:07:04.38Z</time>
      </trkpt>
      <trkpt lat="45.95675" lon="4.92017">
        <ele>304.399993896</ele>
        <time>2015-07-03T10:07:05.38Z</time>
      </trkpt>
      <trkpt lat="45.95672" lon="4.92012">
        <ele>304.600006104</ele>
        <time>2015-07-03T10:07:06.383Z</time>
      </trkpt>
      <trkpt lat="45.95669" lon="4.92007">
        <ele>304.899993896</ele>
        <time>2015-07-03T10:07:07.384Z</time>
      </trkpt>
      <trkpt lat="45.95664" lon="4.91997">
        <ele>305.399993896</ele>
        <time>2015-07-03T10:07:09.397Z</time>
      </trkpt>
      <trkpt lat="45.95659" lon="4.91986">
        <ele>305.600006104</ele>
        <time>2015-07-03T10:07:10.38Z</time>
      </trkpt>
      <trkpt lat="45.95655" lon="4.91979">
        <ele>305.799987793</ele>
        <time>2015-07-03T10:07:11.378Z</time>
      </trkpt>
      <trkpt lat="45.95651" lon="4.91973">
        <ele>305.899993896</ele>
        <time>2015-07-03T10:07:12.383Z</time>
      </trkpt>
      <trkpt lat="45.95647" lon="4.91967">
        <ele>306.100006104</ele>
        <time>2015-07-03T10:07:13.38Z</time>
      </trkpt>
      <trkpt lat="45.95644" lon="4.91962">
        <ele>306.200012207</ele>
        <time>2015-07-03T10:07:14.386Z</time>
      </trkpt>
      <trkpt lat="45.95641" lon="4.91957">
        <ele>306.299987793</ele>
        <time>2015-07-03T10:07:15.38Z</time>
      </trkpt>
      <trkpt lat="45.95637" lon="4.91953">
        <ele>306.299987793</ele>
        <time>2015-07-03T10:07:16.38Z</time>
      </trkpt>
      <trkpt lat="45.95633" lon="4.91948">
        <ele>306.299987793</ele>
        <time>2015-07-03T10:07:17.38Z</time>
      </trkpt>
      <trkpt lat="45.95628" lon="4.91942">
        <ele>306.5</ele>
        <time>2015-07-03T10:07:18.383Z</time>
      </trkpt>
      <trkpt lat="45.95625" lon="4.91937">
        <ele>306.5</ele>
        <time>2015-07-03T10:07:19.383Z</time>
      </trkpt>
      <trkpt lat="45.95621" lon="4.91932">
        <ele>306.600006104</ele>
        <time>2015-07-03T10:07:20.384Z</time>
      </trkpt>
      <trkpt lat="45.95615" lon="4.91927">
        <ele>306.700012207</ele>
        <time>2015-07-03T10:07:21.38Z</time>
      </trkpt>
      <trkpt lat="45.9561" lon="4.91923">
        <ele>306.799987793</ele>
        <time>2015-07-03T10:07:22.38Z</time>
      </trkpt>
      <trkpt lat="45.95607" lon="4.9192">
        <ele>306.899993896</ele>
        <time>2015-07-03T10:07:23.38Z</time>
      </trkpt>
      <trkpt lat="45.95602" lon="4.91915">
        <ele>307</ele>
        <time>2015-07-03T10:07:24.386Z</time>
      </trkpt>
      <trkpt lat="45.95598" lon="4.91911">
        <ele>307.299987793</ele>
        <time>2015-07-03T10:07:25.398Z</time>
      </trkpt>
      <trkpt lat="45.95593" lon="4.91907">
        <ele>307.5</ele>
        <time>2015-07-03T10:07:26.381Z</time>
      </trkpt>
      <trkpt lat="45.95588" lon="4.91904">
        <ele>307.700012207</ele>
        <time>2015-07-03T10:07:27.385Z</time>
      </trkpt>
      <trkpt lat="45.95584" lon="4.91901">
        <ele>307.799987793</ele>
        <time>2015-07-03T10:07:28.38Z</time>
      </trkpt>
      <trkpt lat="45.9558" lon="4.91897">
        <ele>307.799987793</ele>
        <time>2015-07-03T10:07:29.38Z</time>
      </trkpt>
      <trkpt lat="45.95574" lon="4.91893">
        <ele>307.899993896</ele>
        <time>2015-07-03T10:07:30.383Z</time>
      </trkpt>
      <trkpt lat="45.95569" lon="4.91889">
        <ele>307.899993896</ele>
        <time>2015-07-03T10:07:31.418Z</time>
      </trkpt>
      <trkpt lat="45.95563" lon="4.91885">
        <ele>307.899993896</ele>
        <time>2015-07-03T10:07:32.381Z</time>
      </trkpt>
      <trkpt lat="45.95558" lon="4.91881">
        <ele>307.799987793</ele>
        <time>2015-07-03T10:07:33.381Z</time>
      </trkpt>
      <trkpt lat="45.95552" lon="4.91878">
        <ele>307.799987793</ele>
        <time>2015-07-03T10:07:34.381Z</time>
      </trkpt>
      <trkpt lat="45.95545" lon="4.91873">
        <ele>307.799987793</ele>
        <time>2015-07-03T10:07:35.374Z</time>
      </trkpt>
      <trkpt lat="45.95539" lon="4.91868">
        <ele>307.799987793</ele>
        <time>2015-07-03T10:07:36.387Z</time>
      </trkpt>
      <trkpt lat="45.95535" lon="4.91863">
        <ele>307.899993896</ele>
        <time>2015-07-03T10:07:37.381Z</time>
      </trkpt>
      <trkpt lat="45.9553" lon="4.9186">
        <ele>308</ele>
        <time>2015-07-03T10:07:38.381Z</time>
      </trkpt>
      <trkpt lat="45.95524" lon="4.91856">
        <ele>308.100006104</ele>
        <time>2015-07-03T10:07:39.38Z</time>
      </trkpt>
      <trkpt lat="45.9552" lon="4.91852">
        <ele>308</ele>
        <time>2015-07-03T10:07:40.384Z</time>
      </trkpt>
      <trkpt lat="45.95516" lon="4.91849">
        <ele>307.899993896</ele>
        <time>2015-07-03T10:07:41.38Z</time>
      </trkpt>
      <trkpt lat="45.9551" lon="4.91845">
        <ele>307.899993896</ele>
        <time>2015-07-03T10:07:42.383Z</time>
      </trkpt>
      <trkpt lat="45.95504" lon="4.91841">
        <ele>307.899993896</ele>
        <time>2015-07-03T10:07:43.38Z</time>
      </trkpt>
      <trkpt lat="45.95499" lon="4.91838">
        <ele>307.799987793</ele>
        <time>2015-07-03T10:07:44.384Z</time>
      </trkpt>
      <trkpt lat="45.95494" lon="4.91833">
        <ele>307.799987793</ele>
        <time>2015-07-03T10:07:45.38Z</time>
      </trkpt>
      <trkpt lat="45.9549" lon="4.91829">
        <ele>307.899993896</ele>
        <time>2015-07-03T10:07:46.38Z</time>
      </trkpt>
      <trkpt lat="45.95485" lon="4.91825">
        <ele>308</ele>
        <time>2015-07-03T10:07:47.383Z</time>
      </trkpt>
      <trkpt lat="45.95482" lon="4.91819">
        <ele>308.100006104</ele>
        <time>2015-07-03T10:07:48.385Z</time>
      </trkpt>
      <trkpt lat="45.95478" lon="4.91814">
        <ele>308.100006104</ele>
        <time>2015-07-03T10:07:49.382Z</time>
      </trkpt>
      <trkpt lat="45.95474" lon="4.91808">
        <ele>308</ele>
        <time>2015-07-03T10:07:50.381Z</time>
      </trkpt>
      <trkpt lat="45.95471" lon="4.91801">
        <ele>308.299987793</ele>
        <time>2015-07-03T10:07:51.396Z</time>
      </trkpt>
      <trkpt lat="45.95466" lon="4.91795">
        <ele>308.200012207</ele>
        <time>2015-07-03T10:07:52.381Z</time>
      </trkpt>
      <trkpt lat="45.95463" lon="4.91789">
        <ele>308.100006104</ele>
        <time>2015-07-03T10:07:53.381Z</time>
      </trkpt>
      <trkpt lat="45.95458" lon="4.91783">
        <ele>307.899993896</ele>
        <time>2015-07-03T10:07:54.385Z</time>
      </trkpt>
      <trkpt lat="45.95456" lon="4.91777">
        <ele>307.899993896</ele>
        <time>2015-07-03T10:07:55.381Z</time>
      </trkpt>
      <trkpt lat="45.95453" lon="4.9177">
        <ele>307.700012207</ele>
        <time>2015-07-03T10:07:56.385Z</time>
      </trkpt>
      <trkpt lat="45.95451" lon="4.91763">
        <ele>307.5</ele>
        <time>2015-07-03T10:07:57.383Z</time>
      </trkpt>
      <trkpt lat="45.95448" lon="4.91756">
        <ele>307.5</ele>
        <time>2015-07-03T10:07:58.38Z</time>
      </trkpt>
      <trkpt lat="45.95444" lon="4.9175">
        <ele>307.5</ele>
        <time>2015-07-03T10:07:59.512Z</time>
      </trkpt>
      <trkpt lat="45.95442" lon="4.91743">
        <ele>307.600006104</ele>
        <time>2015-07-03T10:08:00.385Z</time>
      </trkpt>
      <trkpt lat="45.9544" lon="4.91738">
        <ele>307.600006104</ele>
        <time>2015-07-03T10:08:01.38Z</time>
      </trkpt>
      <trkpt lat="45.95437" lon="4.91733">
        <ele>307.600006104</ele>
        <time>2015-07-03T10:08:02.381Z</time>
      </trkpt>
      <trkpt lat="45.95432" lon="4.91725">
        <ele>307.200012207</ele>
        <time>2015-07-03T10:08:04.381Z</time>
      </trkpt>
      <trkpt lat="45.95428" lon="4.91723">
        <ele>306.700012207</ele>
        <time>2015-07-03T10:08:05.381Z</time>
      </trkpt>
      <trkpt lat="45.95425" lon="4.91712">
        <ele>306.5</ele>
        <time>2015-07-03T10:08:08.386Z</time>
      </trkpt>
      <trkpt lat="45.95424" lon="4.91709">
        <ele>306.399993896</ele>
        <time>2015-07-03T10:08:09.399Z</time>
      </trkpt>
      <trkpt lat="45.9542" lon="4.917">
        <ele>306.200012207</ele>
        <time>2015-07-03T10:08:12.398Z</time>
      </trkpt>
      <trkpt lat="45.95417" lon="4.91696">
        <ele>306.100006104</ele>
        <time>2015-07-03T10:08:13.388Z</time>
      </trkpt>
      <trkpt lat="45.95414" lon="4.91687">
        <ele>305.700012207</ele>
        <time>2015-07-03T10:08:16.387Z</time>
      </trkpt>
      <trkpt lat="45.95414" lon="4.91683">
        <ele>305.600006104</ele>
        <time>2015-07-03T10:08:17.385Z</time>
      </trkpt>
      <trkpt lat="45.95411" lon="4.91675">
        <ele>305.200012207</ele>
        <time>2015-07-03T10:08:19.388Z</time>
      </trkpt>
      <trkpt lat="45.95409" lon="4.91671">
        <ele>305</ele>
        <time>2015-07-03T10:08:20.388Z</time>
      </trkpt>
      <trkpt lat="45.95407" lon="4.91661">
        <ele>304.600006104</ele>
        <time>2015-07-03T10:08:23.418Z</time>
      </trkpt>
      <trkpt lat="45.95406" lon="4.91658">
        <ele>304.200012207</ele>
        <time>2015-07-03T10:08:24.426Z</time>
      </trkpt>
      <trkpt lat="45.95403" lon="4.91651">
        <ele>304.100006104</ele>
        <time>2015-07-03T10:08:25.387Z</time>
      </trkpt>
      <trkpt lat="45.954" lon="4.91646">
        <ele>304.100006104</ele>
        <time>2015-07-03T10:08:26.385Z</time>
      </trkpt>
      <trkpt lat="45.95397" lon="4.91637">
        <ele>304.100006104</ele>
        <time>2015-07-03T10:08:28.382Z</time>
      </trkpt>
      <trkpt lat="45.95396" lon="4.91634">
        <ele>304.100006104</ele>
        <time>2015-07-03T10:08:29.385Z</time>
      </trkpt>
      <trkpt lat="45.95393" lon="4.91624">
        <ele>304</ele>
        <time>2015-07-03T10:08:32.388Z</time>
      </trkpt>
      <trkpt lat="45.95392" lon="4.91621">
        <ele>303.899993896</ele>
        <time>2015-07-03T10:08:33.383Z</time>
      </trkpt>
      <trkpt lat="45.95392" lon="4.91612">
        <ele>303.700012207</ele>
        <time>2015-07-03T10:08:35.381Z</time>
      </trkpt>
      <trkpt lat="45.95392" lon="4.91607">
        <ele>303.600006104</ele>
        <time>2015-07-03T10:08:36.387Z</time>
      </trkpt>
      <trkpt lat="45.9539" lon="4.91596">
        <ele>303.299987793</ele>
        <time>2015-07-03T10:08:39.396Z</time>
      </trkpt>
      <trkpt lat="45.95391" lon="4.91592">
        <ele>303.200012207</ele>
        <time>2015-07-03T10:08:40.385Z</time>
      </trkpt>
      <trkpt lat="45.95388" lon="4.91581">
        <ele>303.200012207</ele>
        <time>2015-07-03T10:08:42.387Z</time>
      </trkpt>
      <trkpt lat="45.95386" lon="4.91576">
        <ele>303.299987793</ele>
        <time>2015-07-03T10:08:43.385Z</time>
      </trkpt>
      <trkpt lat="45.95383" lon="4.91568">
        <ele>303.200012207</ele>
        <time>2015-07-03T10:08:45.381Z</time>
      </trkpt>
      <trkpt lat="45.95382" lon="4.91563">
        <ele>303.200012207</ele>
        <time>2015-07-03T10:08:46.381Z</time>
      </trkpt>
      <trkpt lat="45.95379" lon="4.91555">
        <ele>303.299987793</ele>
        <time>2015-07-03T10:08:48.385Z</time>
      </trkpt>
      <trkpt lat="45.95377" lon="4.91551">
        <ele>303.5</ele>
        <time>2015-07-03T10:08:49.395Z</time>
      </trkpt>
      <trkpt lat="45.95373" lon="4.91541">
        <ele>304.100006104</ele>
        <time>2015-07-03T10:08:52.386Z</time>
      </trkpt>
      <trkpt lat="45.95372" lon="4.91536">
        <ele>304.299987793</ele>
        <time>2015-07-03T10:08:53.383Z</time>
      </trkpt>
      <trkpt lat="45.9537" lon="4.91527">
        <ele>304.899993896</ele>
        <time>2015-07-03T10:08:55.381Z</time>
      </trkpt>
      <trkpt lat="45.95369" lon="4.91522">
        <ele>305.100006104</ele>
        <time>2015-07-03T10:08:56.385Z</time>
      </trkpt>
      <trkpt lat="45.95367" lon="4.91513">
        <ele>305.399993896</ele>
        <time>2015-07-03T10:08:58.385Z</time>
      </trkpt>
      <trkpt lat="45.95365" lon="4.91509">
        <ele>305.399993896</ele>
        <time>2015-07-03T10:08:59.383Z</time>
      </trkpt>
      <trkpt lat="45.95362" lon="4.91501">
        <ele>305.799987793</ele>
        <time>2015-07-03T10:09:01.382Z</time>
      </trkpt>
      <trkpt lat="45.9536" lon="4.91497">
        <ele>305.799987793</ele>
        <time>2015-07-03T10:09:02.382Z</time>
      </trkpt>
      <trkpt lat="45.95358" lon="4.91485">
        <ele>306.600006104</ele>
        <time>2015-07-03T10:09:05.405Z</time>
      </trkpt>
      <trkpt lat="45.95358" lon="4.91482">
        <ele>306.799987793</ele>
        <time>2015-07-03T10:09:06.387Z</time>
      </trkpt>
      <trkpt lat="45.95356" lon="4.91471">
        <ele>307.600006104</ele>
        <time>2015-07-03T10:09:10.379Z</time>
      </trkpt>
      <trkpt lat="45.95355" lon="4.91468">
        <ele>307.899993896</ele>
        <time>2015-07-03T10:09:11.436Z</time>
      </trkpt>
      <trkpt lat="45.95352" lon="4.91456">
        <ele>308.5</ele>
        <time>2015-07-03T10:09:14.383Z</time>
      </trkpt>
      <trkpt lat="45.95351" lon="4.91453">
        <ele>308.600006104</ele>
        <time>2015-07-03T10:09:15.401Z</time>
      </trkpt>
      <trkpt lat="45.95348" lon="4.91441">
        <ele>309.100006104</ele>
        <time>2015-07-03T10:09:18.387Z</time>
      </trkpt>
      <trkpt lat="45.95348" lon="4.91439">
        <ele>309.200012207</ele>
        <time>2015-07-03T10:09:19.383Z</time>
      </trkpt>
      <trkpt lat="45.95348" lon="4.91427">
        <ele>309.899993896</ele>
        <time>2015-07-03T10:09:23.416Z</time>
      </trkpt>
      <trkpt lat="45.9535" lon="4.91423">
        <ele>310.100006104</ele>
        <time>2015-07-03T10:09:24.412Z</time>
      </trkpt>
      <trkpt lat="45.9535" lon="4.91413">
        <ele>310.200012207</ele>
        <time>2015-07-03T10:09:27.385Z</time>
      </trkpt>
      <trkpt lat="45.9535" lon="4.9141">
        <ele>310.299987793</ele>
        <time>2015-07-03T10:09:28.383Z</time>
      </trkpt>
      <trkpt lat="45.95348" lon="4.914">
        <ele>310.5</ele>
        <time>2015-07-03T10:09:31.382Z</time>
      </trkpt>
      <trkpt lat="45.95347" lon="4.91397">
        <ele>310.5</ele>
        <time>2015-07-03T10:09:32.396Z</time>
      </trkpt>
      <trkpt lat="45.95343" lon="4.91387">
        <ele>310.700012207</ele>
        <time>2015-07-03T10:09:35.381Z</time>
      </trkpt>
      <trkpt lat="45.95343" lon="4.91384">
        <ele>310.5</ele>
        <time>2015-07-03T10:09:36.401Z</time>
      </trkpt>
      <trkpt lat="45.9534" lon="4.91374">
        <ele>310.600006104</ele>
        <time>2015-07-03T10:09:39.381Z</time>
      </trkpt>
      <trkpt lat="45.9534" lon="4.91371">
        <ele>310.700012207</ele>
        <time>2015-07-03T10:09:40.405Z</time>
      </trkpt>
      <trkpt lat="45.95336" lon="4.9136">
        <ele>311.100006104</ele>
        <time>2015-07-03T10:09:42.387Z</time>
      </trkpt>
      <trkpt lat="45.95334" lon="4.91357">
        <ele>311.299987793</ele>
        <time>2015-07-03T10:09:43.381Z</time>
      </trkpt>
      <trkpt lat="45.9533" lon="4.91347">
        <ele>311.600006104</ele>
        <time>2015-07-03T10:09:46.426Z</time>
      </trkpt>
      <trkpt lat="45.9533" lon="4.91344">
        <ele>311.700012207</ele>
        <time>2015-07-03T10:09:47.382Z</time>
      </trkpt>
      <trkpt lat="45.95325" lon="4.91333">
        <ele>311.799987793</ele>
        <time>2015-07-03T10:09:50.388Z</time>
      </trkpt>
      <trkpt lat="45.95326" lon="4.9133">
        <ele>311.799987793</ele>
        <time>2015-07-03T10:09:51.404Z</time>
      </trkpt>
      <trkpt lat="45.95324" lon="4.91318">
        <ele>312</ele>
        <time>2015-07-03T10:09:55.382Z</time>
      </trkpt>
      <trkpt lat="45.95322" lon="4.91314">
        <ele>312.100006104</ele>
        <time>2015-07-03T10:09:56.386Z</time>
      </trkpt>
      <trkpt lat="45.95317" lon="4.91304">
        <ele>312.200012207</ele>
        <time>2015-07-03T10:09:59.382Z</time>
      </trkpt>
      <trkpt lat="45.95318" lon="4.913">
        <ele>312.299987793</ele>
        <time>2015-07-03T10:10:00.383Z</time>
      </trkpt>
      <trkpt lat="45.95318" lon="4.91289">
        <ele>312.299987793</ele>
        <time>2015-07-03T10:10:04.406Z</time>
      </trkpt>
      <trkpt lat="45.95317" lon="4.91285">
        <ele>312.299987793</ele>
        <time>2015-07-03T10:10:05.38Z</time>
      </trkpt>
      <trkpt lat="45.95315" lon="4.91275">
        <ele>312.5</ele>
        <time>2015-07-03T10:10:08.377Z</time>
      </trkpt>
      <trkpt lat="45.95315" lon="4.91272">
        <ele>312.600006104</ele>
        <time>2015-07-03T10:10:09.387Z</time>
      </trkpt>
      <trkpt lat="45.95316" lon="4.9126">
        <ele>312.700012207</ele>
        <time>2015-07-03T10:10:13.382Z</time>
      </trkpt>
      <trkpt lat="45.95316" lon="4.91257">
        <ele>312.700012207</ele>
        <time>2015-07-03T10:10:14.384Z</time>
      </trkpt>
      <trkpt lat="45.95313" lon="4.9125">
        <ele>312.600006104</ele>
        <time>2015-07-03T10:10:16.384Z</time>
      </trkpt>
      <trkpt lat="45.95311" lon="4.91246">
        <ele>312.5</ele>
        <time>2015-07-03T10:10:17.38Z</time>
      </trkpt>
      <trkpt lat="45.95307" lon="4.91235">
        <ele>312.200012207</ele>
        <time>2015-07-03T10:10:20.388Z</time>
      </trkpt>
      <trkpt lat="45.95306" lon="4.91232">
        <ele>312.200012207</ele>
        <time>2015-07-03T10:10:21.382Z</time>
      </trkpt>
      <trkpt lat="45.95302" lon="4.91223">
        <ele>312.200012207</ele>
        <time>2015-07-03T10:10:24.386Z</time>
      </trkpt>
      <trkpt lat="45.95301" lon="4.91221">
        <ele>312.200012207</ele>
        <time>2015-07-03T10:10:25.382Z</time>
      </trkpt>
      <trkpt lat="45.95297" lon="4.91212">
        <ele>311.799987793</ele>
        <time>2015-07-03T10:10:29.385Z</time>
      </trkpt>
      <trkpt lat="45.95296" lon="4.91209">
        <ele>311.600006104</ele>
        <time>2015-07-03T10:10:30.387Z</time>
      </trkpt>
      <trkpt lat="45.95292" lon="4.91201">
        <ele>311.100006104</ele>
        <time>2015-07-03T10:10:32.385Z</time>
      </trkpt>
      <trkpt lat="45.95289" lon="4.91196">
        <ele>311</ele>
        <time>2015-07-03T10:10:33.381Z</time>
      </trkpt>
      <trkpt lat="45.95283" lon="4.91187">
        <ele>310.799987793</ele>
        <time>2015-07-03T10:10:35.382Z</time>
      </trkpt>
      <trkpt lat="45.95281" lon="4.91183">
        <ele>310.700012207</ele>
        <time>2015-07-03T10:10:36.398Z</time>
      </trkpt>
      <trkpt lat="45.95276" lon="4.91175">
        <ele>310.600006104</ele>
        <time>2015-07-03T10:10:38.381Z</time>
      </trkpt>
      <trkpt lat="45.95273" lon="4.9117">
        <ele>310.600006104</ele>
        <time>2015-07-03T10:10:39.397Z</time>
      </trkpt>
      <trkpt lat="45.95268" lon="4.91163">
        <ele>310.5</ele>
        <time>2015-07-03T10:10:41.403Z</time>
      </trkpt>
      <trkpt lat="45.95266" lon="4.9116">
        <ele>310.5</ele>
        <time>2015-07-03T10:10:42.386Z</time>
      </trkpt>
      <trkpt lat="45.95263" lon="4.9115">
        <ele>310.600006104</ele>
        <time>2015-07-03T10:10:45.381Z</time>
      </trkpt>
      <trkpt lat="45.95262" lon="4.91147">
        <ele>310.5</ele>
        <time>2015-07-03T10:10:46.38Z</time>
      </trkpt>
      <trkpt lat="45.95258" lon="4.9114">
        <ele>310.5</ele>
        <time>2015-07-03T10:10:48.389Z</time>
      </trkpt>
      <trkpt lat="45.95256" lon="4.91136">
        <ele>310.399993896</ele>
        <time>2015-07-03T10:10:49.381Z</time>
      </trkpt>
      <trkpt lat="45.9525" lon="4.91128">
        <ele>310.5</ele>
        <time>2015-07-03T10:10:52.383Z</time>
      </trkpt>
      <trkpt lat="45.95249" lon="4.91125">
        <ele>310.5</ele>
        <time>2015-07-03T10:10:53.383Z</time>
      </trkpt>
      <trkpt lat="45.95244" lon="4.91115">
        <ele>310.299987793</ele>
        <time>2015-07-03T10:10:56.385Z</time>
      </trkpt>
      <trkpt lat="45.95243" lon="4.91112">
        <ele>310.299987793</ele>
        <time>2015-07-03T10:10:57.385Z</time>
      </trkpt>
      <trkpt lat="45.95241" lon="4.91103">
        <ele>310.200012207</ele>
        <time>2015-07-03T10:11:00.436Z</time>
      </trkpt>
      <trkpt lat="45.95239" lon="4.91099">
        <ele>310.200012207</ele>
        <time>2015-07-03T10:11:01.381Z</time>
      </trkpt>
      <trkpt lat="45.95233" lon="4.91089">
        <ele>309.899993896</ele>
        <time>2015-07-03T10:11:05.38Z</time>
      </trkpt>
      <trkpt lat="45.95233" lon="4.91088">
        <ele>309.700012207</ele>
        <time>2015-07-03T10:11:06.376Z</time>
      </trkpt>
      <trkpt lat="45.95226" lon="4.91083">
        <ele>309.200012207</ele>
        <time>2015-07-03T10:11:10.382Z</time>
      </trkpt>
      <trkpt lat="45.95221" lon="4.91083">
        <ele>308.100006104</ele>
        <time>2015-07-03T10:11:11.398Z</time>
      </trkpt>
      <trkpt lat="45.95215" lon="4.91078">
        <ele>307.700012207</ele>
        <time>2015-07-03T10:11:14.381Z</time>
      </trkpt>
      <trkpt lat="45.95211" lon="4.91077">
        <ele>307.5</ele>
        <time>2015-07-03T10:11:15.382Z</time>
      </trkpt>
      <trkpt lat="45.95204" lon="4.91073">
        <ele>307.100006104</ele>
        <time>2015-07-03T10:11:18.387Z</time>
      </trkpt>
      <trkpt lat="45.95201" lon="4.91073">
        <ele>305.899993896</ele>
        <time>2015-07-03T10:11:19.447Z</time>
      </trkpt>
      <trkpt lat="45.95197" lon="4.91067">
        <ele>305.299987793</ele>
        <time>2015-07-03T10:11:21.381Z</time>
      </trkpt>
      <trkpt lat="45.95194" lon="4.91062">
        <ele>305.299987793</ele>
        <time>2015-07-03T10:11:22.38Z</time>
      </trkpt>
      <trkpt lat="45.95188" lon="4.91055">
        <ele>304.399993896</ele>
        <time>2015-07-03T10:11:24.4Z</time>
      </trkpt>
      <trkpt lat="45.95186" lon="4.9105">
        <ele>304.200012207</ele>
        <time>2015-07-03T10:11:25.382Z</time>
      </trkpt>
      <trkpt lat="45.95183" lon="4.91042">
        <ele>304.200012207</ele>
        <time>2015-07-03T10:11:27.4Z</time>
      </trkpt>
      <trkpt lat="45.95183" lon="4.91037">
        <ele>304.299987793</ele>
        <time>2015-07-03T10:11:28.381Z</time>
      </trkpt>
      <trkpt lat="45.95181" lon="4.91028">
        <ele>304.200012207</ele>
        <time>2015-07-03T10:11:30.384Z</time>
      </trkpt>
      <trkpt lat="45.9518" lon="4.91024">
        <ele>304.399993896</ele>
        <time>2015-07-03T10:11:31.382Z</time>
      </trkpt>
      <trkpt lat="45.95175" lon="4.91015">
        <ele>304.5</ele>
        <time>2015-07-03T10:11:33.381Z</time>
      </trkpt>
      <trkpt lat="45.95174" lon="4.9101">
        <ele>304.600006104</ele>
        <time>2015-07-03T10:11:34.385Z</time>
      </trkpt>
      <trkpt lat="45.95171" lon="4.91002">
        <ele>304.5</ele>
        <time>2015-07-03T10:11:36.384Z</time>
      </trkpt>
      <trkpt lat="45.95169" lon="4.90998">
        <ele>304.100006104</ele>
        <time>2015-07-03T10:11:37.385Z</time>
      </trkpt>
      <trkpt lat="45.95167" lon="4.9099">
        <ele>303.799987793</ele>
        <time>2015-07-03T10:11:39.38Z</time>
      </trkpt>
      <trkpt lat="45.95166" lon="4.90986">
        <ele>303.700012207</ele>
        <time>2015-07-03T10:11:40.407Z</time>
      </trkpt>
      <trkpt lat="45.95163" lon="4.90977">
        <ele>303.299987793</ele>
        <time>2015-07-03T10:11:42.382Z</time>
      </trkpt>
      <trkpt lat="45.95163" lon="4.90973">
        <ele>303.200012207</ele>
        <time>2015-07-03T10:11:43.4Z</time>
      </trkpt>
      <trkpt lat="45.95162" lon="4.90961">
        <ele>303.100006104</ele>
        <time>2015-07-03T10:11:46.38Z</time>
      </trkpt>
      <trkpt lat="45.95162" lon="4.90958">
        <ele>303.200012207</ele>
        <time>2015-07-03T10:11:47.38Z</time>
      </trkpt>
      <trkpt lat="45.95163" lon="4.90945">
        <ele>302.600006104</ele>
        <time>2015-07-03T10:11:51.406Z</time>
      </trkpt>
      <trkpt lat="45.95162" lon="4.90945">
        <ele>302.299987793</ele>
        <time>2015-07-03T10:11:52.381Z</time>
      </trkpt>
      <trkpt lat="45.95168" lon="4.90937">
        <ele>302</ele>
        <time>2015-07-03T10:14:28.381Z</time>
      </trkpt>
      <trkpt lat="45.95169" lon="4.90935">
        <ele>302</ele>
        <time>2015-07-03T10:14:29.398Z</time>
      </trkpt>
      <trkpt lat="45.95173" lon="4.90925">
        <ele>301.899993896</ele>
        <time>2015-07-03T10:14:32.38Z</time>
      </trkpt>
      <trkpt lat="45.95174" lon="4.9092">
        <ele>301.799987793</ele>
        <time>2015-07-03T10:14:33.381Z</time>
      </trkpt>
      <trkpt lat="45.95176" lon="4.9091">
        <ele>301.399993896</ele>
        <time>2015-07-03T10:14:35.379Z</time>
      </trkpt>
      <trkpt lat="45.95177" lon="4.90905">
        <ele>301.299987793</ele>
        <time>2015-07-03T10:14:36.401Z</time>
      </trkpt>
      <trkpt lat="45.95179" lon="4.90893">
        <ele>301.100006104</ele>
        <time>2015-07-03T10:14:38.38Z</time>
      </trkpt>
      <trkpt lat="45.9518" lon="4.90886">
        <ele>301</ele>
        <time>2015-07-03T10:14:39.379Z</time>
      </trkpt>
      <trkpt lat="45.95181" lon="4.9088">
        <ele>301.100006104</ele>
        <time>2015-07-03T10:14:40.379Z</time>
      </trkpt>
      <trkpt lat="45.95182" lon="4.90873">
        <ele>300.799987793</ele>
        <time>2015-07-03T10:14:41.406Z</time>
      </trkpt>
      <trkpt lat="45.95182" lon="4.90865">
        <ele>300.700012207</ele>
        <time>2015-07-03T10:14:42.383Z</time>
      </trkpt>
      <trkpt lat="45.95183" lon="4.90859">
        <ele>300.700012207</ele>
        <time>2015-07-03T10:14:43.383Z</time>
      </trkpt>
      <trkpt lat="45.95183" lon="4.90851">
        <ele>300.700012207</ele>
        <time>2015-07-03T10:14:44.378Z</time>
      </trkpt>
      <trkpt lat="45.95185" lon="4.90843">
        <ele>300.399993896</ele>
        <time>2015-07-03T10:14:45.382Z</time>
      </trkpt>
      <trkpt lat="45.95187" lon="4.90835">
        <ele>300.200012207</ele>
        <time>2015-07-03T10:14:46.382Z</time>
      </trkpt>
      <trkpt lat="45.95188" lon="4.90828">
        <ele>300.100006104</ele>
        <time>2015-07-03T10:14:47.382Z</time>
      </trkpt>
      <trkpt lat="45.95189" lon="4.90821">
        <ele>299.899993896</ele>
        <time>2015-07-03T10:14:48.384Z</time>
      </trkpt>
      <trkpt lat="45.95189" lon="4.90813">
        <ele>299.600006104</ele>
        <time>2015-07-03T10:14:49.378Z</time>
      </trkpt>
      <trkpt lat="45.95188" lon="4.90806">
        <ele>299.5</ele>
        <time>2015-07-03T10:14:50.38Z</time>
      </trkpt>
      <trkpt lat="45.95188" lon="4.90799">
        <ele>299.399993896</ele>
        <time>2015-07-03T10:14:51.382Z</time>
      </trkpt>
      <trkpt lat="45.95186" lon="4.90792">
        <ele>299.299987793</ele>
        <time>2015-07-03T10:14:52.416Z</time>
      </trkpt>
      <trkpt lat="45.95184" lon="4.90785">
        <ele>299.299987793</ele>
        <time>2015-07-03T10:14:53.384Z</time>
      </trkpt>
      <trkpt lat="45.95183" lon="4.90777">
        <ele>299.200012207</ele>
        <time>2015-07-03T10:14:54.382Z</time>
      </trkpt>
      <trkpt lat="45.95181" lon="4.9077">
        <ele>299.200012207</ele>
        <time>2015-07-03T10:14:55.417Z</time>
      </trkpt>
      <trkpt lat="45.9518" lon="4.90762">
        <ele>298.899993896</ele>
        <time>2015-07-03T10:14:56.38Z</time>
      </trkpt>
      <trkpt lat="45.9518" lon="4.90755">
        <ele>298.600006104</ele>
        <time>2015-07-03T10:14:57.382Z</time>
      </trkpt>
      <trkpt lat="45.9518" lon="4.90747">
        <ele>298.299987793</ele>
        <time>2015-07-03T10:14:58.379Z</time>
      </trkpt>
      <trkpt lat="45.95181" lon="4.90739">
        <ele>298.100006104</ele>
        <time>2015-07-03T10:14:59.38Z</time>
      </trkpt>
      <trkpt lat="45.95181" lon="4.90731">
        <ele>297.799987793</ele>
        <time>2015-07-03T10:15:00.384Z</time>
      </trkpt>
      <trkpt lat="45.95182" lon="4.90722">
        <ele>297.600006104</ele>
        <time>2015-07-03T10:15:01.38Z</time>
      </trkpt>
      <trkpt lat="45.95183" lon="4.90714">
        <ele>297.299987793</ele>
        <time>2015-07-03T10:15:02.383Z</time>
      </trkpt>
      <trkpt lat="45.95182" lon="4.90707">
        <ele>297.100006104</ele>
        <time>2015-07-03T10:15:03.436Z</time>
      </trkpt>
      <trkpt lat="45.95182" lon="4.90699">
        <ele>296.899993896</ele>
        <time>2015-07-03T10:15:04.382Z</time>
      </trkpt>
      <trkpt lat="45.95183" lon="4.90692">
        <ele>296.700012207</ele>
        <time>2015-07-03T10:15:05.379Z</time>
      </trkpt>
      <trkpt lat="45.95182" lon="4.90682">
        <ele>296.299987793</ele>
        <time>2015-07-03T10:15:07.382Z</time>
      </trkpt>
      <trkpt lat="45.95182" lon="4.90678">
        <ele>296.100006104</ele>
        <time>2015-07-03T10:15:08.383Z</time>
      </trkpt>
      <trkpt lat="45.95181" lon="4.90676">
        <ele>295.899993896</ele>
        <time>2015-07-03T10:15:09.382Z</time>
      </trkpt>
      <trkpt lat="45.95181" lon="4.90675">
        <ele>295.5</ele>
        <time>2015-07-03T10:15:10.379Z</time>
      </trkpt>
      <trkpt lat="45.95182" lon="4.9067">
        <ele>294.899993896</ele>
        <time>2015-07-03T10:15:22.416Z</time>
      </trkpt>
      <trkpt lat="45.95182" lon="4.90665">
        <ele>294.899993896</ele>
        <time>2015-07-03T10:15:23.397Z</time>
      </trkpt>
      <trkpt lat="45.95184" lon="4.90656">
        <ele>294.799987793</ele>
        <time>2015-07-03T10:15:25.416Z</time>
      </trkpt>
      <trkpt lat="45.95185" lon="4.90652">
        <ele>294.700012207</ele>
        <time>2015-07-03T10:15:26.39Z</time>
      </trkpt>
      <trkpt lat="45.95186" lon="4.90643">
        <ele>294.600006104</ele>
        <time>2015-07-03T10:15:28.4Z</time>
      </trkpt>
      <trkpt lat="45.95187" lon="4.90637">
        <ele>294.399993896</ele>
        <time>2015-07-03T10:15:29.396Z</time>
      </trkpt>
      <trkpt lat="45.95186" lon="4.90625">
        <ele>293.799987793</ele>
        <time>2015-07-03T10:15:31.378Z</time>
      </trkpt>
      <trkpt lat="45.95186" lon="4.90616">
        <ele>293.799987793</ele>
        <time>2015-07-03T10:15:32.406Z</time>
      </trkpt>
      <trkpt lat="45.95186" lon="4.90607">
        <ele>293.799987793</ele>
        <time>2015-07-03T10:15:33.456Z</time>
      </trkpt>
      <trkpt lat="45.95186" lon="4.90599">
        <ele>293.600006104</ele>
        <time>2015-07-03T10:15:34.396Z</time>
      </trkpt>
      <trkpt lat="45.95186" lon="4.90592">
        <ele>293.299987793</ele>
        <time>2015-07-03T10:15:35.395Z</time>
      </trkpt>
      <trkpt lat="45.95187" lon="4.90584">
        <ele>293.100006104</ele>
        <time>2015-07-03T10:15:36.396Z</time>
      </trkpt>
      <trkpt lat="45.95187" lon="4.90577">
        <ele>292.799987793</ele>
        <time>2015-07-03T10:15:37.446Z</time>
      </trkpt>
      <trkpt lat="45.95186" lon="4.90569">
        <ele>292.799987793</ele>
        <time>2015-07-03T10:15:38.396Z</time>
      </trkpt>
      <trkpt lat="45.95186" lon="4.90562">
        <ele>292.700012207</ele>
        <time>2015-07-03T10:15:39.378Z</time>
      </trkpt>
      <trkpt lat="45.95186" lon="4.90554">
        <ele>292.5</ele>
        <time>2015-07-03T10:15:40.437Z</time>
      </trkpt>
      <trkpt lat="45.95186" lon="4.90547">
        <ele>292.299987793</ele>
        <time>2015-07-03T10:15:41.379Z</time>
      </trkpt>
      <trkpt lat="45.95187" lon="4.90539">
        <ele>292</ele>
        <time>2015-07-03T10:15:42.385Z</time>
      </trkpt>
      <trkpt lat="45.95187" lon="4.9053">
        <ele>291.700012207</ele>
        <time>2015-07-03T10:15:43.383Z</time>
      </trkpt>
      <trkpt lat="45.95188" lon="4.90522">
        <ele>291.600006104</ele>
        <time>2015-07-03T10:15:44.379Z</time>
      </trkpt>
      <trkpt lat="45.95188" lon="4.90513">
        <ele>291.600006104</ele>
        <time>2015-07-03T10:15:45.379Z</time>
      </trkpt>
      <trkpt lat="45.95189" lon="4.90504">
        <ele>291.399993896</ele>
        <time>2015-07-03T10:15:46.379Z</time>
      </trkpt>
      <trkpt lat="45.9519" lon="4.90496">
        <ele>291.200012207</ele>
        <time>2015-07-03T10:15:47.38Z</time>
      </trkpt>
      <trkpt lat="45.9519" lon="4.90488">
        <ele>291.200012207</ele>
        <time>2015-07-03T10:15:48.381Z</time>
      </trkpt>
      <trkpt lat="45.95191" lon="4.90479">
        <ele>291.100006104</ele>
        <time>2015-07-03T10:15:49.382Z</time>
      </trkpt>
      <trkpt lat="45.95191" lon="4.9047">
        <ele>291.100006104</ele>
        <time>2015-07-03T10:15:50.379Z</time>
      </trkpt>
      <trkpt lat="45.95192" lon="4.9046">
        <ele>291.299987793</ele>
        <time>2015-07-03T10:15:51.382Z</time>
      </trkpt>
      <trkpt lat="45.95192" lon="4.9045">
        <ele>291.299987793</ele>
        <time>2015-07-03T10:15:52.382Z</time>
      </trkpt>
      <trkpt lat="45.95192" lon="4.90441">
        <ele>291.200012207</ele>
        <time>2015-07-03T10:15:53.381Z</time>
      </trkpt>
      <trkpt lat="45.95193" lon="4.90431">
        <ele>291.100006104</ele>
        <time>2015-07-03T10:15:54.386Z</time>
      </trkpt>
      <trkpt lat="45.95192" lon="4.9042">
        <ele>291.200012207</ele>
        <time>2015-07-03T10:15:55.379Z</time>
      </trkpt>
      <trkpt lat="45.95193" lon="4.9041">
        <ele>291.299987793</ele>
        <time>2015-07-03T10:15:56.433Z</time>
      </trkpt>
      <trkpt lat="45.95194" lon="4.904">
        <ele>291.399993896</ele>
        <time>2015-07-03T10:15:57.416Z</time>
      </trkpt>
      <trkpt lat="45.95195" lon="4.90389">
        <ele>291.299987793</ele>
        <time>2015-07-03T10:15:58.382Z</time>
      </trkpt>
      <trkpt lat="45.95197" lon="4.90379">
        <ele>291.100006104</ele>
        <time>2015-07-03T10:15:59.382Z</time>
      </trkpt>
      <trkpt lat="45.95198" lon="4.90368">
        <ele>291.299987793</ele>
        <time>2015-07-03T10:16:00.381Z</time>
      </trkpt>
      <trkpt lat="45.95202" lon="4.90358">
        <ele>290.5</ele>
        <time>2015-07-03T10:16:01.392Z</time>
      </trkpt>
      <trkpt lat="45.95205" lon="4.90349">
        <ele>290.899993896</ele>
        <time>2015-07-03T10:16:02.383Z</time>
      </trkpt>
      <trkpt lat="45.95207" lon="4.9034">
        <ele>290.899993896</ele>
        <time>2015-07-03T10:16:03.385Z</time>
      </trkpt>
      <trkpt lat="45.9521" lon="4.9033">
        <ele>290.600006104</ele>
        <time>2015-07-03T10:16:04.382Z</time>
      </trkpt>
      <trkpt lat="45.95212" lon="4.90321">
        <ele>290.399993896</ele>
        <time>2015-07-03T10:16:05.382Z</time>
      </trkpt>
      <trkpt lat="45.95213" lon="4.90312">
        <ele>290</ele>
        <time>2015-07-03T10:16:06.382Z</time>
      </trkpt>
      <trkpt lat="45.95215" lon="4.90303">
        <ele>289.799987793</ele>
        <time>2015-07-03T10:16:07.382Z</time>
      </trkpt>
      <trkpt lat="45.95216" lon="4.90295">
        <ele>289.200012207</ele>
        <time>2015-07-03T10:16:08.381Z</time>
      </trkpt>
      <trkpt lat="45.95218" lon="4.90286">
        <ele>288.600006104</ele>
        <time>2015-07-03T10:16:09.378Z</time>
      </trkpt>
      <trkpt lat="45.95219" lon="4.90277">
        <ele>288.299987793</ele>
        <time>2015-07-03T10:16:10.379Z</time>
      </trkpt>
      <trkpt lat="45.95219" lon="4.90267">
        <ele>288</ele>
        <time>2015-07-03T10:16:11.382Z</time>
      </trkpt>
      <trkpt lat="45.9522" lon="4.90258">
        <ele>288</ele>
        <time>2015-07-03T10:16:12.398Z</time>
      </trkpt>
      <trkpt lat="45.9522" lon="4.90248">
        <ele>287.899993896</ele>
        <time>2015-07-03T10:16:13.385Z</time>
      </trkpt>
      <trkpt lat="45.95219" lon="4.90238">
        <ele>287.899993896</ele>
        <time>2015-07-03T10:16:14.379Z</time>
      </trkpt>
      <trkpt lat="45.95219" lon="4.90229">
        <ele>287.700012207</ele>
        <time>2015-07-03T10:16:15.394Z</time>
      </trkpt>
      <trkpt lat="45.95217" lon="4.90219">
        <ele>287.799987793</ele>
        <time>2015-07-03T10:16:16.379Z</time>
      </trkpt>
      <trkpt lat="45.95217" lon="4.90209">
        <ele>288.100006104</ele>
        <time>2015-07-03T10:16:17.38Z</time>
      </trkpt>
      <trkpt lat="45.95216" lon="4.90199">
        <ele>288</ele>
        <time>2015-07-03T10:16:18.381Z</time>
      </trkpt>
      <trkpt lat="45.95214" lon="4.9019">
        <ele>288</ele>
        <time>2015-07-03T10:16:19.378Z</time>
      </trkpt>
      <trkpt lat="45.95212" lon="4.90182">
        <ele>288</ele>
        <time>2015-07-03T10:16:20.386Z</time>
      </trkpt>
      <trkpt lat="45.95209" lon="4.90174">
        <ele>288</ele>
        <time>2015-07-03T10:16:21.396Z</time>
      </trkpt>
      <trkpt lat="45.95204" lon="4.90168">
        <ele>287.700012207</ele>
        <time>2015-07-03T10:16:22.379Z</time>
      </trkpt>
      <trkpt lat="45.95198" lon="4.90166">
        <ele>287.399993896</ele>
        <time>2015-07-03T10:16:23.386Z</time>
      </trkpt>
      <trkpt lat="45.95192" lon="4.90165">
        <ele>287.299987793</ele>
        <time>2015-07-03T10:16:24.383Z</time>
      </trkpt>
      <trkpt lat="45.95185" lon="4.90166">
        <ele>286.899993896</ele>
        <time>2015-07-03T10:16:25.547Z</time>
      </trkpt>
      <trkpt lat="45.95179" lon="4.90168">
        <ele>286.5</ele>
        <time>2015-07-03T10:16:26.38Z</time>
      </trkpt>
      <trkpt lat="45.95172" lon="4.9017">
        <ele>286.200012207</ele>
        <time>2015-07-03T10:16:27.381Z</time>
      </trkpt>
      <trkpt lat="45.95166" lon="4.90171">
        <ele>286.100006104</ele>
        <time>2015-07-03T10:16:28.396Z</time>
      </trkpt>
      <trkpt lat="45.9516" lon="4.90171">
        <ele>286.200012207</ele>
        <time>2015-07-03T10:16:29.378Z</time>
      </trkpt>
      <trkpt lat="45.95154" lon="4.9017">
        <ele>286.200012207</ele>
        <time>2015-07-03T10:16:30.382Z</time>
      </trkpt>
      <trkpt lat="45.95148" lon="4.90169">
        <ele>286.100006104</ele>
        <time>2015-07-03T10:16:31.382Z</time>
      </trkpt>
      <trkpt lat="45.95142" lon="4.90167">
        <ele>285.700012207</ele>
        <time>2015-07-03T10:16:32.382Z</time>
      </trkpt>
      <trkpt lat="45.95136" lon="4.90165">
        <ele>285.5</ele>
        <time>2015-07-03T10:16:33.413Z</time>
      </trkpt>
      <trkpt lat="45.95129" lon="4.90162">
        <ele>285.700012207</ele>
        <time>2015-07-03T10:16:34.382Z</time>
      </trkpt>
      <trkpt lat="45.95122" lon="4.90158">
        <ele>285.799987793</ele>
        <time>2015-07-03T10:16:35.379Z</time>
      </trkpt>
      <trkpt lat="45.95116" lon="4.90154">
        <ele>285.799987793</ele>
        <time>2015-07-03T10:16:36.383Z</time>
      </trkpt>
      <trkpt lat="45.95111" lon="4.90148">
        <ele>285.700012207</ele>
        <time>2015-07-03T10:16:37.379Z</time>
      </trkpt>
      <trkpt lat="45.95105" lon="4.90143">
        <ele>285.700012207</ele>
        <time>2015-07-03T10:16:38.38Z</time>
      </trkpt>
      <trkpt lat="45.951" lon="4.90137">
        <ele>285.600006104</ele>
        <time>2015-07-03T10:16:39.497Z</time>
      </trkpt>
      <trkpt lat="45.95095" lon="4.90131">
        <ele>285.600006104</ele>
        <time>2015-07-03T10:16:40.379Z</time>
      </trkpt>
      <trkpt lat="45.9509" lon="4.90125">
        <ele>285.600006104</ele>
        <time>2015-07-03T10:16:41.382Z</time>
      </trkpt>
      <trkpt lat="45.95085" lon="4.90119">
        <ele>285.5</ele>
        <time>2015-07-03T10:16:42.381Z</time>
      </trkpt>
      <trkpt lat="45.95081" lon="4.90113">
        <ele>285.5</ele>
        <time>2015-07-03T10:16:43.39Z</time>
      </trkpt>
      <trkpt lat="45.95076" lon="4.90107">
        <ele>285.299987793</ele>
        <time>2015-07-03T10:16:44.38Z</time>
      </trkpt>
      <trkpt lat="45.95072" lon="4.90102">
        <ele>285.200012207</ele>
        <time>2015-07-03T10:16:45.379Z</time>
      </trkpt>
      <trkpt lat="45.95067" lon="4.90096">
        <ele>285</ele>
        <time>2015-07-03T10:16:46.381Z</time>
      </trkpt>
      <trkpt lat="45.95062" lon="4.9009">
        <ele>284.799987793</ele>
        <time>2015-07-03T10:16:47.379Z</time>
      </trkpt>
      <trkpt lat="45.95058" lon="4.90083">
        <ele>284.5</ele>
        <time>2015-07-03T10:16:48.381Z</time>
      </trkpt>
      <trkpt lat="45.95053" lon="4.90076">
        <ele>284.399993896</ele>
        <time>2015-07-03T10:16:49.378Z</time>
      </trkpt>
      <trkpt lat="45.95048" lon="4.9007">
        <ele>284</ele>
        <time>2015-07-03T10:16:50.416Z</time>
      </trkpt>
      <trkpt lat="45.95044" lon="4.90063">
        <ele>283.700012207</ele>
        <time>2015-07-03T10:16:51.411Z</time>
      </trkpt>
      <trkpt lat="45.95039" lon="4.90057">
        <ele>283.299987793</ele>
        <time>2015-07-03T10:16:52.382Z</time>
      </trkpt>
      <trkpt lat="45.95035" lon="4.90049">
        <ele>283</ele>
        <time>2015-07-03T10:16:53.413Z</time>
      </trkpt>
      <trkpt lat="45.9503" lon="4.90042">
        <ele>282.700012207</ele>
        <time>2015-07-03T10:16:54.39Z</time>
      </trkpt>
      <trkpt lat="45.95025" lon="4.90035">
        <ele>282.600006104</ele>
        <time>2015-07-03T10:16:55.379Z</time>
      </trkpt>
      <trkpt lat="45.9502" lon="4.90027">
        <ele>282.399993896</ele>
        <time>2015-07-03T10:16:56.383Z</time>
      </trkpt>
      <trkpt lat="45.95016" lon="4.90019">
        <ele>282.299987793</ele>
        <time>2015-07-03T10:16:57.382Z</time>
      </trkpt>
      <trkpt lat="45.95011" lon="4.90011">
        <ele>282.200012207</ele>
        <time>2015-07-03T10:16:58.382Z</time>
      </trkpt>
      <trkpt lat="45.95006" lon="4.90004">
        <ele>282.100006104</ele>
        <time>2015-07-03T10:16:59.378Z</time>
      </trkpt>
      <trkpt lat="45.95002" lon="4.89996">
        <ele>281.899993896</ele>
        <time>2015-07-03T10:17:00.382Z</time>
      </trkpt>
      <trkpt lat="45.94998" lon="4.89989">
        <ele>281.799987793</ele>
        <time>2015-07-03T10:17:01.379Z</time>
      </trkpt>
      <trkpt lat="45.94994" lon="4.89982">
        <ele>281.600006104</ele>
        <time>2015-07-03T10:17:02.423Z</time>
      </trkpt>
      <trkpt lat="45.94991" lon="4.89974">
        <ele>281.399993896</ele>
        <time>2015-07-03T10:17:03.39Z</time>
      </trkpt>
      <trkpt lat="45.94987" lon="4.89966">
        <ele>281.299987793</ele>
        <time>2015-07-03T10:17:04.426Z</time>
      </trkpt>
      <trkpt lat="45.94983" lon="4.89959">
        <ele>280.799987793</ele>
        <time>2015-07-03T10:17:05.379Z</time>
      </trkpt>
      <trkpt lat="45.94978" lon="4.89952">
        <ele>280.5</ele>
        <time>2015-07-03T10:17:06.382Z</time>
      </trkpt>
      <trkpt lat="45.94974" lon="4.89946">
        <ele>280.399993896</ele>
        <time>2015-07-03T10:17:07.379Z</time>
      </trkpt>
      <trkpt lat="45.94969" lon="4.8994">
        <ele>280.399993896</ele>
        <time>2015-07-03T10:17:08.383Z</time>
      </trkpt>
      <trkpt lat="45.94964" lon="4.89934">
        <ele>280.299987793</ele>
        <time>2015-07-03T10:17:09.378Z</time>
      </trkpt>
      <trkpt lat="45.94959" lon="4.89928">
        <ele>280.100006104</ele>
        <time>2015-07-03T10:17:10.395Z</time>
      </trkpt>
      <trkpt lat="45.94954" lon="4.89922">
        <ele>280.100006104</ele>
        <time>2015-07-03T10:17:11.378Z</time>
      </trkpt>
      <trkpt lat="45.9495" lon="4.89917">
        <ele>280</ele>
        <time>2015-07-03T10:17:12.381Z</time>
      </trkpt>
      <trkpt lat="45.94945" lon="4.89911">
        <ele>279.899993896</ele>
        <time>2015-07-03T10:17:13.383Z</time>
      </trkpt>
      <trkpt lat="45.94941" lon="4.89906">
        <ele>279.899993896</ele>
        <time>2015-07-03T10:17:14.379Z</time>
      </trkpt>
      <trkpt lat="45.94938" lon="4.899">
        <ele>279.700012207</ele>
        <time>2015-07-03T10:17:15.381Z</time>
      </trkpt>
      <trkpt lat="45.94934" lon="4.89893">
        <ele>279.399993896</ele>
        <time>2015-07-03T10:17:16.381Z</time>
      </trkpt>
      <trkpt lat="45.94931" lon="4.89887">
        <ele>279.5</ele>
        <time>2015-07-03T10:17:17.379Z</time>
      </trkpt>
      <trkpt lat="45.94927" lon="4.8988">
        <ele>279.299987793</ele>
        <time>2015-07-03T10:17:18.381Z</time>
      </trkpt>
      <trkpt lat="45.94925" lon="4.89871">
        <ele>279.100006104</ele>
        <time>2015-07-03T10:17:19.382Z</time>
      </trkpt>
      <trkpt lat="45.94923" lon="4.89862">
        <ele>279.100006104</ele>
        <time>2015-07-03T10:17:20.386Z</time>
      </trkpt>
      <trkpt lat="45.94922" lon="4.89852">
        <ele>279.600006104</ele>
        <time>2015-07-03T10:17:21.382Z</time>
      </trkpt>
      <trkpt lat="45.94922" lon="4.89843">
        <ele>280.100006104</ele>
        <time>2015-07-03T10:17:22.381Z</time>
      </trkpt>
      <trkpt lat="45.94922" lon="4.89833">
        <ele>280.100006104</ele>
        <time>2015-07-03T10:17:23.396Z</time>
      </trkpt>
      <trkpt lat="45.94922" lon="4.89823">
        <ele>280.5</ele>
        <time>2015-07-03T10:17:24.382Z</time>
      </trkpt>
      <trkpt lat="45.94923" lon="4.89813">
        <ele>280.899993896</ele>
        <time>2015-07-03T10:17:25.382Z</time>
      </trkpt>
      <trkpt lat="45.94925" lon="4.89804">
        <ele>281.399993896</ele>
        <time>2015-07-03T10:17:26.395Z</time>
      </trkpt>
      <trkpt lat="45.94927" lon="4.89795">
        <ele>281.700012207</ele>
        <time>2015-07-03T10:17:27.397Z</time>
      </trkpt>
      <trkpt lat="45.94929" lon="4.89786">
        <ele>282.200012207</ele>
        <time>2015-07-03T10:17:28.382Z</time>
      </trkpt>
      <trkpt lat="45.94931" lon="4.89776">
        <ele>282.600006104</ele>
        <time>2015-07-03T10:17:29.381Z</time>
      </trkpt>
      <trkpt lat="45.94934" lon="4.89767">
        <ele>282.399993896</ele>
        <time>2015-07-03T10:17:30.381Z</time>
      </trkpt>
      <trkpt lat="45.94936" lon="4.89758">
        <ele>282.399993896</ele>
        <time>2015-07-03T10:17:31.378Z</time>
      </trkpt>
      <trkpt lat="45.94939" lon="4.89748">
        <ele>282.600006104</ele>
        <time>2015-07-03T10:17:32.383Z</time>
      </trkpt>
      <trkpt lat="45.94942" lon="4.89739">
        <ele>282.899993896</ele>
        <time>2015-07-03T10:17:33.395Z</time>
      </trkpt>
      <trkpt lat="45.94945" lon="4.89729">
        <ele>283</ele>
        <time>2015-07-03T10:17:34.376Z</time>
      </trkpt>
      <trkpt lat="45.94948" lon="4.89719">
        <ele>282.899993896</ele>
        <time>2015-07-03T10:17:35.381Z</time>
      </trkpt>
      <trkpt lat="45.9495" lon="4.89709">
        <ele>282.899993896</ele>
        <time>2015-07-03T10:17:36.423Z</time>
      </trkpt>
      <trkpt lat="45.94953" lon="4.897">
        <ele>282.700012207</ele>
        <time>2015-07-03T10:17:37.382Z</time>
      </trkpt>
      <trkpt lat="45.94956" lon="4.89692">
        <ele>282.5</ele>
        <time>2015-07-03T10:17:38.383Z</time>
      </trkpt>
      <trkpt lat="45.94958" lon="4.89683">
        <ele>282.899993896</ele>
        <time>2015-07-03T10:17:39.382Z</time>
      </trkpt>
      <trkpt lat="45.94961" lon="4.89676">
        <ele>283.200012207</ele>
        <time>2015-07-03T10:17:40.378Z</time>
      </trkpt>
      <trkpt lat="45.94963" lon="4.89667">
        <ele>283.299987793</ele>
        <time>2015-07-03T10:17:41.38Z</time>
      </trkpt>
      <trkpt lat="45.94965" lon="4.8966">
        <ele>283.5</ele>
        <time>2015-07-03T10:17:42.381Z</time>
      </trkpt>
      <trkpt lat="45.94968" lon="4.89651">
        <ele>283.299987793</ele>
        <time>2015-07-03T10:17:43.393Z</time>
      </trkpt>
      <trkpt lat="45.9497" lon="4.89643">
        <ele>283.5</ele>
        <time>2015-07-03T10:17:44.379Z</time>
      </trkpt>
      <trkpt lat="45.94972" lon="4.89634">
        <ele>283.399993896</ele>
        <time>2015-07-03T10:17:45.378Z</time>
      </trkpt>
      <trkpt lat="45.94975" lon="4.89625">
        <ele>283.5</ele>
        <time>2015-07-03T10:17:46.376Z</time>
      </trkpt>
      <trkpt lat="45.94977" lon="4.89616">
        <ele>283.200012207</ele>
        <time>2015-07-03T10:17:47.427Z</time>
      </trkpt>
      <trkpt lat="45.94979" lon="4.89608">
        <ele>283.200012207</ele>
        <time>2015-07-03T10:17:48.381Z</time>
      </trkpt>
      <trkpt lat="45.94982" lon="4.89599">
        <ele>282.899993896</ele>
        <time>2015-07-03T10:17:49.383Z</time>
      </trkpt>
      <trkpt lat="45.94984" lon="4.89589">
        <ele>282.899993896</ele>
        <time>2015-07-03T10:17:50.383Z</time>
      </trkpt>
      <trkpt lat="45.94987" lon="4.8958">
        <ele>282.899993896</ele>
        <time>2015-07-03T10:17:51.403Z</time>
      </trkpt>
      <trkpt lat="45.94989" lon="4.8957">
        <ele>282.799987793</ele>
        <time>2015-07-03T10:17:52.378Z</time>
      </trkpt>
      <trkpt lat="45.94992" lon="4.89561">
        <ele>282.700012207</ele>
        <time>2015-07-03T10:17:53.393Z</time>
      </trkpt>
      <trkpt lat="45.94995" lon="4.89552">
        <ele>282.399993896</ele>
        <time>2015-07-03T10:17:54.381Z</time>
      </trkpt>
      <trkpt lat="45.94998" lon="4.89543">
        <ele>282.5</ele>
        <time>2015-07-03T10:17:55.391Z</time>
      </trkpt>
      <trkpt lat="45.95003" lon="4.89535">
        <ele>282.5</ele>
        <time>2015-07-03T10:17:56.379Z</time>
      </trkpt>
      <trkpt lat="45.95008" lon="4.89529">
        <ele>282.399993896</ele>
        <time>2015-07-03T10:17:57.379Z</time>
      </trkpt>
      <trkpt lat="45.95014" lon="4.89524">
        <ele>282.799987793</ele>
        <time>2015-07-03T10:17:58.393Z</time>
      </trkpt>
      <trkpt lat="45.95021" lon="4.89519">
        <ele>282.5</ele>
        <time>2015-07-03T10:17:59.379Z</time>
      </trkpt>
      <trkpt lat="45.95028" lon="4.89517">
        <ele>282.299987793</ele>
        <time>2015-07-03T10:18:00.424Z</time>
      </trkpt>
      <trkpt lat="45.95035" lon="4.89515">
        <ele>282.299987793</ele>
        <time>2015-07-03T10:18:01.409Z</time>
      </trkpt>
      <trkpt lat="45.95042" lon="4.89514">
        <ele>282.700012207</ele>
        <time>2015-07-03T10:18:02.412Z</time>
      </trkpt>
      <trkpt lat="45.95049" lon="4.89511">
        <ele>282.399993896</ele>
        <time>2015-07-03T10:18:03.435Z</time>
      </trkpt>
      <trkpt lat="45.95056" lon="4.89511">
        <ele>282.600006104</ele>
        <time>2015-07-03T10:18:04.378Z</time>
      </trkpt>
      <trkpt lat="45.95063" lon="4.89508">
        <ele>282.600006104</ele>
        <time>2015-07-03T10:18:05.378Z</time>
      </trkpt>
      <trkpt lat="45.95069" lon="4.89505">
        <ele>282.299987793</ele>
        <time>2015-07-03T10:18:06.381Z</time>
      </trkpt>
      <trkpt lat="45.95075" lon="4.89501">
        <ele>282.200012207</ele>
        <time>2015-07-03T10:18:07.378Z</time>
      </trkpt>
      <trkpt lat="45.9508" lon="4.89494">
        <ele>282.100006104</ele>
        <time>2015-07-03T10:18:08.407Z</time>
      </trkpt>
      <trkpt lat="45.95084" lon="4.89486">
        <ele>281.799987793</ele>
        <time>2015-07-03T10:18:09.388Z</time>
      </trkpt>
      <trkpt lat="45.95086" lon="4.89475">
        <ele>281.5</ele>
        <time>2015-07-03T10:18:10.379Z</time>
      </trkpt>
      <trkpt lat="45.95085" lon="4.89466">
        <ele>281.299987793</ele>
        <time>2015-07-03T10:18:11.382Z</time>
      </trkpt>
      <trkpt lat="45.95083" lon="4.89457">
        <ele>281.200012207</ele>
        <time>2015-07-03T10:18:12.404Z</time>
      </trkpt>
      <trkpt lat="45.95081" lon="4.89447">
        <ele>281</ele>
        <time>2015-07-03T10:18:13.403Z</time>
      </trkpt>
      <trkpt lat="45.95079" lon="4.89438">
        <ele>280.799987793</ele>
        <time>2015-07-03T10:18:14.382Z</time>
      </trkpt>
      <trkpt lat="45.95077" lon="4.89429">
        <ele>280.700012207</ele>
        <time>2015-07-03T10:18:15.379Z</time>
      </trkpt>
      <trkpt lat="45.95076" lon="4.89419">
        <ele>280.399993896</ele>
        <time>2015-07-03T10:18:16.379Z</time>
      </trkpt>
      <trkpt lat="45.95074" lon="4.8941">
        <ele>280.200012207</ele>
        <time>2015-07-03T10:18:17.376Z</time>
      </trkpt>
      <trkpt lat="45.95073" lon="4.894">
        <ele>280.299987793</ele>
        <time>2015-07-03T10:18:18.379Z</time>
      </trkpt>
      <trkpt lat="45.95072" lon="4.89391">
        <ele>280.700012207</ele>
        <time>2015-07-03T10:18:19.396Z</time>
      </trkpt>
      <trkpt lat="45.95073" lon="4.89381">
        <ele>280.600006104</ele>
        <time>2015-07-03T10:18:20.379Z</time>
      </trkpt>
      <trkpt lat="45.95072" lon="4.89371">
        <ele>280.899993896</ele>
        <time>2015-07-03T10:18:21.379Z</time>
      </trkpt>
      <trkpt lat="45.95072" lon="4.89361">
        <ele>280.700012207</ele>
        <time>2015-07-03T10:18:22.382Z</time>
      </trkpt>
      <trkpt lat="45.95072" lon="4.89352">
        <ele>280.700012207</ele>
        <time>2015-07-03T10:18:23.402Z</time>
      </trkpt>
      <trkpt lat="45.95072" lon="4.89342">
        <ele>280.600006104</ele>
        <time>2015-07-03T10:18:24.382Z</time>
      </trkpt>
      <trkpt lat="45.95072" lon="4.89332">
        <ele>280.899993896</ele>
        <time>2015-07-03T10:18:25.376Z</time>
      </trkpt>
      <trkpt lat="45.95073" lon="4.89323">
        <ele>281.200012207</ele>
        <time>2015-07-03T10:18:26.381Z</time>
      </trkpt>
      <trkpt lat="45.95073" lon="4.89313">
        <ele>281.399993896</ele>
        <time>2015-07-03T10:18:27.381Z</time>
      </trkpt>
      <trkpt lat="45.95073" lon="4.89303">
        <ele>281.299987793</ele>
        <time>2015-07-03T10:18:28.382Z</time>
      </trkpt>
      <trkpt lat="45.95073" lon="4.89293">
        <ele>281.299987793</ele>
        <time>2015-07-03T10:18:29.381Z</time>
      </trkpt>
      <trkpt lat="45.95073" lon="4.89283">
        <ele>281.299987793</ele>
        <time>2015-07-03T10:18:30.375Z</time>
      </trkpt>
      <trkpt lat="45.95073" lon="4.89274">
        <ele>281.399993896</ele>
        <time>2015-07-03T10:18:31.378Z</time>
      </trkpt>
      <trkpt lat="45.95073" lon="4.89264">
        <ele>281.299987793</ele>
        <time>2015-07-03T10:18:32.379Z</time>
      </trkpt>
      <trkpt lat="45.95074" lon="4.89254">
        <ele>281.399993896</ele>
        <time>2015-07-03T10:18:33.419Z</time>
      </trkpt>
      <trkpt lat="45.95075" lon="4.89244">
        <ele>281.200012207</ele>
        <time>2015-07-03T10:18:34.379Z</time>
      </trkpt>
      <trkpt lat="45.95075" lon="4.89233">
        <ele>281.399993896</ele>
        <time>2015-07-03T10:18:35.394Z</time>
      </trkpt>
      <trkpt lat="45.95075" lon="4.89223">
        <ele>281.5</ele>
        <time>2015-07-03T10:18:36.381Z</time>
      </trkpt>
      <trkpt lat="45.95075" lon="4.89214">
        <ele>281.399993896</ele>
        <time>2015-07-03T10:18:37.378Z</time>
      </trkpt>
      <trkpt lat="45.95075" lon="4.89205">
        <ele>281.299987793</ele>
        <time>2015-07-03T10:18:38.379Z</time>
      </trkpt>
      <trkpt lat="45.95076" lon="4.89196">
        <ele>281.399993896</ele>
        <time>2015-07-03T10:18:39.381Z</time>
      </trkpt>
      <trkpt lat="45.95076" lon="4.89188">
        <ele>281.399993896</ele>
        <time>2015-07-03T10:18:40.382Z</time>
      </trkpt>
      <trkpt lat="45.95076" lon="4.89179">
        <ele>281.5</ele>
        <time>2015-07-03T10:18:41.379Z</time>
      </trkpt>
      <trkpt lat="45.95076" lon="4.8917">
        <ele>281.899993896</ele>
        <time>2015-07-03T10:18:42.381Z</time>
      </trkpt>
      <trkpt lat="45.95077" lon="4.8916">
        <ele>281.899993896</ele>
        <time>2015-07-03T10:18:43.401Z</time>
      </trkpt>
      <trkpt lat="45.95077" lon="4.89151">
        <ele>282.200012207</ele>
        <time>2015-07-03T10:18:44.379Z</time>
      </trkpt>
      <trkpt lat="45.95078" lon="4.89142">
        <ele>282.299987793</ele>
        <time>2015-07-03T10:18:45.432Z</time>
      </trkpt>
      <trkpt lat="45.95078" lon="4.89133">
        <ele>283</ele>
        <time>2015-07-03T10:18:46.381Z</time>
      </trkpt>
      <trkpt lat="45.95079" lon="4.89125">
        <ele>283.5</ele>
        <time>2015-07-03T10:18:47.378Z</time>
      </trkpt>
      <trkpt lat="45.95079" lon="4.89116">
        <ele>284</ele>
        <time>2015-07-03T10:18:48.381Z</time>
      </trkpt>
      <trkpt lat="45.9508" lon="4.89109">
        <ele>284</ele>
        <time>2015-07-03T10:18:49.376Z</time>
      </trkpt>
      <trkpt lat="45.95081" lon="4.89101">
        <ele>284.200012207</ele>
        <time>2015-07-03T10:18:50.379Z</time>
      </trkpt>
      <trkpt lat="45.95081" lon="4.89092">
        <ele>284.299987793</ele>
        <time>2015-07-03T10:18:51.382Z</time>
      </trkpt>
      <trkpt lat="45.95081" lon="4.89084">
        <ele>284.600006104</ele>
        <time>2015-07-03T10:18:52.378Z</time>
      </trkpt>
      <trkpt lat="45.95083" lon="4.89075">
        <ele>284.799987793</ele>
        <time>2015-07-03T10:18:53.419Z</time>
      </trkpt>
      <trkpt lat="45.95084" lon="4.89067">
        <ele>285</ele>
        <time>2015-07-03T10:18:54.381Z</time>
      </trkpt>
      <trkpt lat="45.95084" lon="4.89059">
        <ele>285.100006104</ele>
        <time>2015-07-03T10:18:55.378Z</time>
      </trkpt>
      <trkpt lat="45.95085" lon="4.8905">
        <ele>284.799987793</ele>
        <time>2015-07-03T10:18:56.396Z</time>
      </trkpt>
      <trkpt lat="45.95086" lon="4.89041">
        <ele>284.700012207</ele>
        <time>2015-07-03T10:18:57.379Z</time>
      </trkpt>
      <trkpt lat="45.95087" lon="4.89032">
        <ele>284.700012207</ele>
        <time>2015-07-03T10:18:58.382Z</time>
      </trkpt>
      <trkpt lat="45.95088" lon="4.89023">
        <ele>284.700012207</ele>
        <time>2015-07-03T10:18:59.381Z</time>
      </trkpt>
      <trkpt lat="45.95089" lon="4.89014">
        <ele>284.799987793</ele>
        <time>2015-07-03T10:19:00.381Z</time>
      </trkpt>
      <trkpt lat="45.9509" lon="4.89005">
        <ele>284.700012207</ele>
        <time>2015-07-03T10:19:01.381Z</time>
      </trkpt>
      <trkpt lat="45.95091" lon="4.88996">
        <ele>284.899993896</ele>
        <time>2015-07-03T10:19:02.38Z</time>
      </trkpt>
      <trkpt lat="45.95092" lon="4.88988">
        <ele>285.100006104</ele>
        <time>2015-07-03T10:19:03.405Z</time>
      </trkpt>
      <trkpt lat="45.95094" lon="4.88979">
        <ele>286.200012207</ele>
        <time>2015-07-03T10:19:04.379Z</time>
      </trkpt>
      <trkpt lat="45.95095" lon="4.8897">
        <ele>286.399993896</ele>
        <time>2015-07-03T10:19:05.378Z</time>
      </trkpt>
      <trkpt lat="45.95095" lon="4.88961">
        <ele>286.799987793</ele>
        <time>2015-07-03T10:19:06.382Z</time>
      </trkpt>
      <trkpt lat="45.95096" lon="4.88952">
        <ele>286.899993896</ele>
        <time>2015-07-03T10:19:07.416Z</time>
      </trkpt>
      <trkpt lat="45.95097" lon="4.88943">
        <ele>286.899993896</ele>
        <time>2015-07-03T10:19:08.38Z</time>
      </trkpt>
      <trkpt lat="45.95098" lon="4.88935">
        <ele>287.100006104</ele>
        <time>2015-07-03T10:19:09.383Z</time>
      </trkpt>
      <trkpt lat="45.95099" lon="4.88926">
        <ele>287.5</ele>
        <time>2015-07-03T10:19:10.382Z</time>
      </trkpt>
      <trkpt lat="45.95099" lon="4.88918">
        <ele>287.799987793</ele>
        <time>2015-07-03T10:19:11.379Z</time>
      </trkpt>
      <trkpt lat="45.95099" lon="4.88909">
        <ele>288</ele>
        <time>2015-07-03T10:19:12.398Z</time>
      </trkpt>
      <trkpt lat="45.95099" lon="4.889">
        <ele>288.299987793</ele>
        <time>2015-07-03T10:19:13.405Z</time>
      </trkpt>
      <trkpt lat="45.951" lon="4.88891">
        <ele>288.200012207</ele>
        <time>2015-07-03T10:19:14.379Z</time>
      </trkpt>
      <trkpt lat="45.95101" lon="4.88882">
        <ele>288.299987793</ele>
        <time>2015-07-03T10:19:15.379Z</time>
      </trkpt>
      <trkpt lat="45.95101" lon="4.88872">
        <ele>288.399993896</ele>
        <time>2015-07-03T10:19:16.378Z</time>
      </trkpt>
      <trkpt lat="45.95102" lon="4.88864">
        <ele>288.5</ele>
        <time>2015-07-03T10:19:17.379Z</time>
      </trkpt>
      <trkpt lat="45.95103" lon="4.88854">
        <ele>288.700012207</ele>
        <time>2015-07-03T10:19:18.383Z</time>
      </trkpt>
      <trkpt lat="45.95104" lon="4.88845">
        <ele>288.700012207</ele>
        <time>2015-07-03T10:19:19.378Z</time>
      </trkpt>
      <trkpt lat="45.95105" lon="4.88836">
        <ele>288.899993896</ele>
        <time>2015-07-03T10:19:20.38Z</time>
      </trkpt>
      <trkpt lat="45.95106" lon="4.88829">
        <ele>289.200012207</ele>
        <time>2015-07-03T10:19:21.378Z</time>
      </trkpt>
      <trkpt lat="45.95106" lon="4.8882">
        <ele>289.200012207</ele>
        <time>2015-07-03T10:19:22.378Z</time>
      </trkpt>
      <trkpt lat="45.95106" lon="4.88811">
        <ele>289.100006104</ele>
        <time>2015-07-03T10:19:23.43Z</time>
      </trkpt>
      <trkpt lat="45.95106" lon="4.88803">
        <ele>288.600006104</ele>
        <time>2015-07-03T10:19:24.381Z</time>
      </trkpt>
      <trkpt lat="45.95106" lon="4.88794">
        <ele>288.299987793</ele>
        <time>2015-07-03T10:19:25.378Z</time>
      </trkpt>
      <trkpt lat="45.95107" lon="4.88786">
        <ele>288.100006104</ele>
        <time>2015-07-03T10:19:26.379Z</time>
      </trkpt>
      <trkpt lat="45.95107" lon="4.88779">
        <ele>288.299987793</ele>
        <time>2015-07-03T10:19:27.383Z</time>
      </trkpt>
      <trkpt lat="45.95107" lon="4.88771">
        <ele>288.200012207</ele>
        <time>2015-07-03T10:19:28.373Z</time>
      </trkpt>
      <trkpt lat="45.95107" lon="4.88764">
        <ele>288.200012207</ele>
        <time>2015-07-03T10:19:29.379Z</time>
      </trkpt>
      <trkpt lat="45.95107" lon="4.88756">
        <ele>288.5</ele>
        <time>2015-07-03T10:19:30.377Z</time>
      </trkpt>
      <trkpt lat="45.95107" lon="4.88749">
        <ele>288.600006104</ele>
        <time>2015-07-03T10:19:31.379Z</time>
      </trkpt>
      <trkpt lat="45.95107" lon="4.88743">
        <ele>288.600006104</ele>
        <time>2015-07-03T10:19:32.426Z</time>
      </trkpt>
      <trkpt lat="45.95108" lon="4.88736">
        <ele>288.899993896</ele>
        <time>2015-07-03T10:19:33.436Z</time>
      </trkpt>
      <trkpt lat="45.95108" lon="4.8873">
        <ele>289.100006104</ele>
        <time>2015-07-03T10:19:34.399Z</time>
      </trkpt>
      <trkpt lat="45.9511" lon="4.88721">
        <ele>289.200012207</ele>
        <time>2015-07-03T10:19:35.378Z</time>
      </trkpt>
      <trkpt lat="45.95111" lon="4.88716">
        <ele>289.600006104</ele>
        <time>2015-07-03T10:19:36.381Z</time>
      </trkpt>
      <trkpt lat="45.95111" lon="4.88709">
        <ele>289.600006104</ele>
        <time>2015-07-03T10:19:37.378Z</time>
      </trkpt>
      <trkpt lat="45.95111" lon="4.88703">
        <ele>289.600006104</ele>
        <time>2015-07-03T10:19:38.38Z</time>
      </trkpt>
      <trkpt lat="45.95111" lon="4.88697">
        <ele>289.799987793</ele>
        <time>2015-07-03T10:19:39.382Z</time>
      </trkpt>
      <trkpt lat="45.95111" lon="4.8869">
        <ele>290</ele>
        <time>2015-07-03T10:19:40.381Z</time>
      </trkpt>
      <trkpt lat="45.95111" lon="4.88683">
        <ele>290.200012207</ele>
        <time>2015-07-03T10:19:41.378Z</time>
      </trkpt>
      <trkpt lat="45.9511" lon="4.88676">
        <ele>290.299987793</ele>
        <time>2015-07-03T10:19:42.381Z</time>
      </trkpt>
      <trkpt lat="45.95111" lon="4.8867">
        <ele>290.5</ele>
        <time>2015-07-03T10:19:43.403Z</time>
      </trkpt>
      <trkpt lat="45.95111" lon="4.88663">
        <ele>290.899993896</ele>
        <time>2015-07-03T10:19:44.426Z</time>
      </trkpt>
      <trkpt lat="45.95112" lon="4.88656">
        <ele>291.299987793</ele>
        <time>2015-07-03T10:19:45.378Z</time>
      </trkpt>
      <trkpt lat="45.95113" lon="4.88649">
        <ele>291.700012207</ele>
        <time>2015-07-03T10:19:46.378Z</time>
      </trkpt>
      <trkpt lat="45.95114" lon="4.88643">
        <ele>291.799987793</ele>
        <time>2015-07-03T10:19:47.378Z</time>
      </trkpt>
      <trkpt lat="45.95114" lon="4.88636">
        <ele>291.899993896</ele>
        <time>2015-07-03T10:19:48.381Z</time>
      </trkpt>
      <trkpt lat="45.95114" lon="4.88624">
        <ele>291.799987793</ele>
        <time>2015-07-03T10:19:50.381Z</time>
      </trkpt>
      <trkpt lat="45.95116" lon="4.88619">
        <ele>292.100006104</ele>
        <time>2015-07-03T10:19:51.38Z</time>
      </trkpt>
      <trkpt lat="45.95117" lon="4.88613">
        <ele>292.299987793</ele>
        <time>2015-07-03T10:19:52.381Z</time>
      </trkpt>
      <trkpt lat="45.95119" lon="4.88606">
        <ele>292.5</ele>
        <time>2015-07-03T10:19:53.403Z</time>
      </trkpt>
      <trkpt lat="45.95121" lon="4.886">
        <ele>292.600006104</ele>
        <time>2015-07-03T10:19:54.414Z</time>
      </trkpt>
      <trkpt lat="45.95122" lon="4.88593">
        <ele>292.700012207</ele>
        <time>2015-07-03T10:19:55.378Z</time>
      </trkpt>
      <trkpt lat="45.95122" lon="4.88586">
        <ele>292.700012207</ele>
        <time>2015-07-03T10:19:56.421Z</time>
      </trkpt>
      <trkpt lat="45.95123" lon="4.88579">
        <ele>292.899993896</ele>
        <time>2015-07-03T10:19:57.382Z</time>
      </trkpt>
      <trkpt lat="45.95123" lon="4.88573">
        <ele>292.899993896</ele>
        <time>2015-07-03T10:19:58.384Z</time>
      </trkpt>
      <trkpt lat="45.95123" lon="4.88566">
        <ele>293</ele>
        <time>2015-07-03T10:19:59.405Z</time>
      </trkpt>
      <trkpt lat="45.95122" lon="4.88559">
        <ele>293.200012207</ele>
        <time>2015-07-03T10:20:00.381Z</time>
      </trkpt>
      <trkpt lat="45.95122" lon="4.88553">
        <ele>293.200012207</ele>
        <time>2015-07-03T10:20:01.378Z</time>
      </trkpt>
      <trkpt lat="45.9512" lon="4.88546">
        <ele>293.399993896</ele>
        <time>2015-07-03T10:20:02.379Z</time>
      </trkpt>
      <trkpt lat="45.95118" lon="4.88538">
        <ele>293.5</ele>
        <time>2015-07-03T10:20:03.403Z</time>
      </trkpt>
      <trkpt lat="45.95116" lon="4.88531">
        <ele>293.700012207</ele>
        <time>2015-07-03T10:20:04.381Z</time>
      </trkpt>
      <trkpt lat="45.95115" lon="4.88524">
        <ele>294</ele>
        <time>2015-07-03T10:20:05.378Z</time>
      </trkpt>
      <trkpt lat="45.95113" lon="4.88517">
        <ele>294.200012207</ele>
        <time>2015-07-03T10:20:06.38Z</time>
      </trkpt>
      <trkpt lat="45.95112" lon="4.88512">
        <ele>294.100006104</ele>
        <time>2015-07-03T10:20:07.378Z</time>
      </trkpt>
      <trkpt lat="45.95109" lon="4.885">
        <ele>294.299987793</ele>
        <time>2015-07-03T10:20:09.378Z</time>
      </trkpt>
      <trkpt lat="45.95107" lon="4.88493">
        <ele>294.5</ele>
        <time>2015-07-03T10:20:10.394Z</time>
      </trkpt>
      <trkpt lat="45.95106" lon="4.88486">
        <ele>294.600006104</ele>
        <time>2015-07-03T10:20:11.378Z</time>
      </trkpt>
      <trkpt lat="45.95105" lon="4.88479">
        <ele>294.799987793</ele>
        <time>2015-07-03T10:20:12.381Z</time>
      </trkpt>
      <trkpt lat="45.95103" lon="4.88473">
        <ele>294.799987793</ele>
        <time>2015-07-03T10:20:13.395Z</time>
      </trkpt>
      <trkpt lat="45.95102" lon="4.88466">
        <ele>294.899993896</ele>
        <time>2015-07-03T10:20:14.382Z</time>
      </trkpt>
      <trkpt lat="45.95102" lon="4.88459">
        <ele>295</ele>
        <time>2015-07-03T10:20:15.378Z</time>
      </trkpt>
      <trkpt lat="45.95102" lon="4.88452">
        <ele>295.299987793</ele>
        <time>2015-07-03T10:20:16.378Z</time>
      </trkpt>
      <trkpt lat="45.95102" lon="4.88445">
        <ele>295.5</ele>
        <time>2015-07-03T10:20:17.379Z</time>
      </trkpt>
      <trkpt lat="45.95102" lon="4.88438">
        <ele>295.700012207</ele>
        <time>2015-07-03T10:20:18.383Z</time>
      </trkpt>
      <trkpt lat="45.95102" lon="4.8843">
        <ele>295.600006104</ele>
        <time>2015-07-03T10:20:19.379Z</time>
      </trkpt>
      <trkpt lat="45.95102" lon="4.88424">
        <ele>295.700012207</ele>
        <time>2015-07-03T10:20:20.407Z</time>
      </trkpt>
      <trkpt lat="45.95102" lon="4.88417">
        <ele>295.700012207</ele>
        <time>2015-07-03T10:20:21.378Z</time>
      </trkpt>
      <trkpt lat="45.95102" lon="4.88411">
        <ele>295.799987793</ele>
        <time>2015-07-03T10:20:22.381Z</time>
      </trkpt>
      <trkpt lat="45.95102" lon="4.88404">
        <ele>295.799987793</ele>
        <time>2015-07-03T10:20:23.395Z</time>
      </trkpt>
      <trkpt lat="45.95103" lon="4.88397">
        <ele>295.799987793</ele>
        <time>2015-07-03T10:20:24.381Z</time>
      </trkpt>
      <trkpt lat="45.95104" lon="4.88391">
        <ele>295.799987793</ele>
        <time>2015-07-03T10:20:25.383Z</time>
      </trkpt>
      <trkpt lat="45.95105" lon="4.88385">
        <ele>295.899993896</ele>
        <time>2015-07-03T10:20:26.373Z</time>
      </trkpt>
      <trkpt lat="45.95107" lon="4.88378">
        <ele>296.100006104</ele>
        <time>2015-07-03T10:20:27.38Z</time>
      </trkpt>
      <trkpt lat="45.95108" lon="4.88371">
        <ele>296.299987793</ele>
        <time>2015-07-03T10:20:28.378Z</time>
      </trkpt>
      <trkpt lat="45.95109" lon="4.88364">
        <ele>296.399993896</ele>
        <time>2015-07-03T10:20:29.379Z</time>
      </trkpt>
      <trkpt lat="45.9511" lon="4.88357">
        <ele>296.5</ele>
        <time>2015-07-03T10:20:30.381Z</time>
      </trkpt>
      <trkpt lat="45.95112" lon="4.88349">
        <ele>296.5</ele>
        <time>2015-07-03T10:20:31.396Z</time>
      </trkpt>
      <trkpt lat="45.95114" lon="4.88341">
        <ele>296.5</ele>
        <time>2015-07-03T10:20:32.382Z</time>
      </trkpt>
      <trkpt lat="45.95116" lon="4.88333">
        <ele>296.5</ele>
        <time>2015-07-03T10:20:33.395Z</time>
      </trkpt>
      <trkpt lat="45.95117" lon="4.88325">
        <ele>296.5</ele>
        <time>2015-07-03T10:20:34.379Z</time>
      </trkpt>
      <trkpt lat="45.95118" lon="4.88317">
        <ele>296.399993896</ele>
        <time>2015-07-03T10:20:35.378Z</time>
      </trkpt>
      <trkpt lat="45.95121" lon="4.88309">
        <ele>296.299987793</ele>
        <time>2015-07-03T10:20:36.383Z</time>
      </trkpt>
      <trkpt lat="45.95122" lon="4.883">
        <ele>296.399993896</ele>
        <time>2015-07-03T10:20:37.378Z</time>
      </trkpt>
      <trkpt lat="45.95123" lon="4.88291">
        <ele>296.299987793</ele>
        <time>2015-07-03T10:20:38.382Z</time>
      </trkpt>
      <trkpt lat="45.95123" lon="4.88282">
        <ele>296.200012207</ele>
        <time>2015-07-03T10:20:39.381Z</time>
      </trkpt>
      <trkpt lat="45.95123" lon="4.88273">
        <ele>296.100006104</ele>
        <time>2015-07-03T10:20:40.378Z</time>
      </trkpt>
      <trkpt lat="45.95124" lon="4.88265">
        <ele>295.899993896</ele>
        <time>2015-07-03T10:20:41.381Z</time>
      </trkpt>
      <trkpt lat="45.95124" lon="4.88259">
        <ele>295.799987793</ele>
        <time>2015-07-03T10:20:42.381Z</time>
      </trkpt>
      <trkpt lat="45.95124" lon="4.88248">
        <ele>295.399993896</ele>
        <time>2015-07-03T10:20:44.378Z</time>
      </trkpt>
      <trkpt lat="45.95124" lon="4.88242">
        <ele>295.200012207</ele>
        <time>2015-07-03T10:20:45.381Z</time>
      </trkpt>
      <trkpt lat="45.95124" lon="4.8823">
        <ele>295</ele>
        <time>2015-07-03T10:20:47.395Z</time>
      </trkpt>
      <trkpt lat="45.95124" lon="4.88223">
        <ele>295.100006104</ele>
        <time>2015-07-03T10:20:48.384Z</time>
      </trkpt>
      <trkpt lat="45.95126" lon="4.88216">
        <ele>295.200012207</ele>
        <time>2015-07-03T10:20:49.379Z</time>
      </trkpt>
      <trkpt lat="45.95127" lon="4.88209">
        <ele>295.399993896</ele>
        <time>2015-07-03T10:20:50.38Z</time>
      </trkpt>
      <trkpt lat="45.95131" lon="4.88198">
        <ele>295.899993896</ele>
        <time>2015-07-03T10:20:52.378Z</time>
      </trkpt>
      <trkpt lat="45.95134" lon="4.88193">
        <ele>296.100006104</ele>
        <time>2015-07-03T10:20:53.424Z</time>
      </trkpt>
      <trkpt lat="45.95139" lon="4.88187">
        <ele>295.5</ele>
        <time>2015-07-03T10:20:55.379Z</time>
      </trkpt>
      <trkpt lat="45.95141" lon="4.88183">
        <ele>295.299987793</ele>
        <time>2015-07-03T10:20:56.417Z</time>
      </trkpt>
      <trkpt lat="45.95141" lon="4.88172">
        <ele>295.100006104</ele>
        <time>2015-07-03T10:20:59.378Z</time>
      </trkpt>
      <trkpt lat="45.95139" lon="4.88169">
        <ele>294.899993896</ele>
        <time>2015-07-03T10:21:00.382Z</time>
      </trkpt>
      <trkpt lat="45.95134" lon="4.88159">
        <ele>294.5</ele>
        <time>2015-07-03T10:21:02.382Z</time>
      </trkpt>
      <trkpt lat="45.95132" lon="4.88154">
        <ele>294.200012207</ele>
        <time>2015-07-03T10:21:03.379Z</time>
      </trkpt>
      <trkpt lat="45.9513" lon="4.88148">
        <ele>294</ele>
        <time>2015-07-03T10:21:04.398Z</time>
      </trkpt>
      <trkpt lat="45.95129" lon="4.88141">
        <ele>293.799987793</ele>
        <time>2015-07-03T10:21:05.382Z</time>
      </trkpt>
      <trkpt lat="45.95127" lon="4.88134">
        <ele>293.700012207</ele>
        <time>2015-07-03T10:21:06.384Z</time>
      </trkpt>
      <trkpt lat="45.95125" lon="4.88125">
        <ele>293.600006104</ele>
        <time>2015-07-03T10:21:07.379Z</time>
      </trkpt>
      <trkpt lat="45.95122" lon="4.88117">
        <ele>293.700012207</ele>
        <time>2015-07-03T10:21:08.394Z</time>
      </trkpt>
      <trkpt lat="45.95119" lon="4.8811">
        <ele>293.700012207</ele>
        <time>2015-07-03T10:21:09.379Z</time>
      </trkpt>
      <trkpt lat="45.95116" lon="4.88103">
        <ele>293.700012207</ele>
        <time>2015-07-03T10:21:10.381Z</time>
      </trkpt>
      <trkpt lat="45.95113" lon="4.88096">
        <ele>293.700012207</ele>
        <time>2015-07-03T10:21:11.379Z</time>
      </trkpt>
      <trkpt lat="45.95111" lon="4.88089">
        <ele>293.799987793</ele>
        <time>2015-07-03T10:21:12.384Z</time>
      </trkpt>
      <trkpt lat="45.95107" lon="4.8808">
        <ele>294</ele>
        <time>2015-07-03T10:21:13.378Z</time>
      </trkpt>
      <trkpt lat="45.95104" lon="4.88072">
        <ele>294.100006104</ele>
        <time>2015-07-03T10:21:14.38Z</time>
      </trkpt>
      <trkpt lat="45.95101" lon="4.88064">
        <ele>294.399993896</ele>
        <time>2015-07-03T10:21:15.381Z</time>
      </trkpt>
      <trkpt lat="45.95098" lon="4.88055">
        <ele>294.5</ele>
        <time>2015-07-03T10:21:16.38Z</time>
      </trkpt>
      <trkpt lat="45.95095" lon="4.88045">
        <ele>294.700012207</ele>
        <time>2015-07-03T10:21:17.382Z</time>
      </trkpt>
      <trkpt lat="45.95093" lon="4.88036">
        <ele>294.799987793</ele>
        <time>2015-07-03T10:21:18.381Z</time>
      </trkpt>
      <trkpt lat="45.95092" lon="4.88026">
        <ele>294.899993896</ele>
        <time>2015-07-03T10:21:19.377Z</time>
      </trkpt>
      <trkpt lat="45.9509" lon="4.88017">
        <ele>294.700012207</ele>
        <time>2015-07-03T10:21:20.38Z</time>
      </trkpt>
      <trkpt lat="45.95088" lon="4.88007">
        <ele>294.600006104</ele>
        <time>2015-07-03T10:21:21.377Z</time>
      </trkpt>
      <trkpt lat="45.95087" lon="4.87997">
        <ele>294.5</ele>
        <time>2015-07-03T10:21:22.381Z</time>
      </trkpt>
      <trkpt lat="45.95088" lon="4.87989">
        <ele>294.399993896</ele>
        <time>2015-07-03T10:21:23.378Z</time>
      </trkpt>
      <trkpt lat="45.95091" lon="4.8798">
        <ele>294.299987793</ele>
        <time>2015-07-03T10:21:24.377Z</time>
      </trkpt>
      <trkpt lat="45.95094" lon="4.87972">
        <ele>293.899993896</ele>
        <time>2015-07-03T10:21:25.377Z</time>
      </trkpt>
      <trkpt lat="45.95098" lon="4.87965">
        <ele>293.799987793</ele>
        <time>2015-07-03T10:21:26.378Z</time>
      </trkpt>
      <trkpt lat="45.951" lon="4.87958">
        <ele>293.399993896</ele>
        <time>2015-07-03T10:21:27.379Z</time>
      </trkpt>
      <trkpt lat="45.95103" lon="4.87946">
        <ele>292.399993896</ele>
        <time>2015-07-03T10:21:29.393Z</time>
      </trkpt>
      <trkpt lat="45.95105" lon="4.87941">
        <ele>292.100006104</ele>
        <time>2015-07-03T10:21:30.381Z</time>
      </trkpt>
      <trkpt lat="45.95108" lon="4.87931">
        <ele>291.5</ele>
        <time>2015-07-03T10:21:32.378Z</time>
      </trkpt>
      <trkpt lat="45.9511" lon="4.87926">
        <ele>291.399993896</ele>
        <time>2015-07-03T10:21:33.379Z</time>
      </trkpt>
      <trkpt lat="45.95113" lon="4.87917">
        <ele>290.899993896</ele>
        <time>2015-07-03T10:21:36.384Z</time>
      </trkpt>
      <trkpt lat="45.95114" lon="4.87913">
        <ele>290.899993896</ele>
        <time>2015-07-03T10:21:37.381Z</time>
      </trkpt>
      <trkpt lat="45.95114" lon="4.8792">
        <ele>288.200012207</ele>
        <time>2015-07-03T10:21:48.383Z</time>
      </trkpt>
      <trkpt lat="45.95111" lon="4.87925">
        <ele>288.200012207</ele>
        <time>2015-07-03T10:21:49.381Z</time>
      </trkpt>
      <trkpt lat="45.95108" lon="4.8793">
        <ele>288.100006104</ele>
        <time>2015-07-03T10:21:50.38Z</time>
      </trkpt>
      <trkpt lat="45.95105" lon="4.87937">
        <ele>288</ele>
        <time>2015-07-03T10:21:51.377Z</time>
      </trkpt>
      <trkpt lat="45.95102" lon="4.87942">
        <ele>287.700012207</ele>
        <time>2015-07-03T10:21:52.377Z</time>
      </trkpt>
      <trkpt lat="45.95098" lon="4.87948">
        <ele>287.799987793</ele>
        <time>2015-07-03T10:21:53.377Z</time>
      </trkpt>
      <trkpt lat="45.95095" lon="4.87955">
        <ele>287.799987793</ele>
        <time>2015-07-03T10:21:54.38Z</time>
      </trkpt>
      <trkpt lat="45.95093" lon="4.87962">
        <ele>287.700012207</ele>
        <time>2015-07-03T10:21:55.377Z</time>
      </trkpt>
      <trkpt lat="45.9509" lon="4.87969">
        <ele>287.600006104</ele>
        <time>2015-07-03T10:21:56.402Z</time>
      </trkpt>
      <trkpt lat="45.95087" lon="4.87976">
        <ele>287.600006104</ele>
        <time>2015-07-03T10:21:57.38Z</time>
      </trkpt>
      <trkpt lat="45.95084" lon="4.87983">
        <ele>287.700012207</ele>
        <time>2015-07-03T10:21:58.38Z</time>
      </trkpt>
      <trkpt lat="45.95083" lon="4.87992">
        <ele>287.600006104</ele>
        <time>2015-07-03T10:21:59.377Z</time>
      </trkpt>
      <trkpt lat="45.95083" lon="4.88">
        <ele>287.5</ele>
        <time>2015-07-03T10:22:00.407Z</time>
      </trkpt>
      <trkpt lat="45.95083" lon="4.88008">
        <ele>287.399993896</ele>
        <time>2015-07-03T10:22:01.395Z</time>
      </trkpt>
      <trkpt lat="45.95084" lon="4.88016">
        <ele>287.200012207</ele>
        <time>2015-07-03T10:22:02.379Z</time>
      </trkpt>
      <trkpt lat="45.95085" lon="4.88023">
        <ele>287.200012207</ele>
        <time>2015-07-03T10:22:03.378Z</time>
      </trkpt>
      <trkpt lat="45.95086" lon="4.88031">
        <ele>287.200012207</ele>
        <time>2015-07-03T10:22:04.381Z</time>
      </trkpt>
      <trkpt lat="45.95087" lon="4.88038">
        <ele>287.100006104</ele>
        <time>2015-07-03T10:22:05.381Z</time>
      </trkpt>
      <trkpt lat="45.95088" lon="4.88045">
        <ele>287</ele>
        <time>2015-07-03T10:22:06.383Z</time>
      </trkpt>
      <trkpt lat="45.95089" lon="4.88054">
        <ele>286.799987793</ele>
        <time>2015-07-03T10:22:07.377Z</time>
      </trkpt>
      <trkpt lat="45.95091" lon="4.88061">
        <ele>286.700012207</ele>
        <time>2015-07-03T10:22:08.384Z</time>
      </trkpt>
      <trkpt lat="45.95092" lon="4.88067">
        <ele>286.899993896</ele>
        <time>2015-07-03T10:22:09.378Z</time>
      </trkpt>
      <trkpt lat="45.95095" lon="4.88073">
        <ele>286.899993896</ele>
        <time>2015-07-03T10:22:10.377Z</time>
      </trkpt>
      <trkpt lat="45.95098" lon="4.88081">
        <ele>286.799987793</ele>
        <time>2015-07-03T10:22:11.378Z</time>
      </trkpt>
      <trkpt lat="45.951" lon="4.88088">
        <ele>286.5</ele>
        <time>2015-07-03T10:22:12.381Z</time>
      </trkpt>
      <trkpt lat="45.95102" lon="4.88097">
        <ele>286.299987793</ele>
        <time>2015-07-03T10:22:13.379Z</time>
      </trkpt>
      <trkpt lat="45.95106" lon="4.88104">
        <ele>286.200012207</ele>
        <time>2015-07-03T10:22:14.379Z</time>
      </trkpt>
      <trkpt lat="45.95109" lon="4.88112">
        <ele>285.899993896</ele>
        <time>2015-07-03T10:22:15.377Z</time>
      </trkpt>
      <trkpt lat="45.95111" lon="4.88119">
        <ele>285.799987793</ele>
        <time>2015-07-03T10:22:16.377Z</time>
      </trkpt>
      <trkpt lat="45.95114" lon="4.88126">
        <ele>285.5</ele>
        <time>2015-07-03T10:22:17.393Z</time>
      </trkpt>
      <trkpt lat="45.95118" lon="4.88132">
        <ele>285.5</ele>
        <time>2015-07-03T10:22:18.381Z</time>
      </trkpt>
      <trkpt lat="45.95121" lon="4.88137">
        <ele>285.600006104</ele>
        <time>2015-07-03T10:22:19.377Z</time>
      </trkpt>
      <trkpt lat="45.95124" lon="4.88142">
        <ele>285.600006104</ele>
        <time>2015-07-03T10:22:20.387Z</time>
      </trkpt>
      <trkpt lat="45.95127" lon="4.88148">
        <ele>285.600006104</ele>
        <time>2015-07-03T10:22:21.379Z</time>
      </trkpt>
      <trkpt lat="45.95133" lon="4.88158">
        <ele>285.700012207</ele>
        <time>2015-07-03T10:22:23.377Z</time>
      </trkpt>
      <trkpt lat="45.95134" lon="4.88162">
        <ele>285.399993896</ele>
        <time>2015-07-03T10:22:24.382Z</time>
      </trkpt>
      <trkpt lat="45.95142" lon="4.88163">
        <ele>284.799987793</ele>
        <time>2015-07-03T10:22:27.382Z</time>
      </trkpt>
      <trkpt lat="45.95145" lon="4.88161">
        <ele>284.700012207</ele>
        <time>2015-07-03T10:22:28.381Z</time>
      </trkpt>
      <trkpt lat="45.95152" lon="4.88157">
        <ele>284.700012207</ele>
        <time>2015-07-03T10:22:30.384Z</time>
      </trkpt>
      <trkpt lat="45.95156" lon="4.88156">
        <ele>284.799987793</ele>
        <time>2015-07-03T10:22:31.378Z</time>
      </trkpt>
      <trkpt lat="45.95164" lon="4.88153">
        <ele>285.100006104</ele>
        <time>2015-07-03T10:22:33.377Z</time>
      </trkpt>
      <trkpt lat="45.95167" lon="4.8815">
        <ele>285</ele>
        <time>2015-07-03T10:22:34.379Z</time>
      </trkpt>
      <trkpt lat="45.9517" lon="4.88145">
        <ele>285.100006104</ele>
        <time>2015-07-03T10:22:35.381Z</time>
      </trkpt>
      <trkpt lat="45.95173" lon="4.88139">
        <ele>285.100006104</ele>
        <time>2015-07-03T10:22:36.384Z</time>
      </trkpt>
      <trkpt lat="45.95174" lon="4.88132">
        <ele>285</ele>
        <time>2015-07-03T10:22:37.416Z</time>
      </trkpt>
      <trkpt lat="45.95175" lon="4.88125">
        <ele>285</ele>
        <time>2015-07-03T10:22:38.396Z</time>
      </trkpt>
      <trkpt lat="45.95177" lon="4.88119">
        <ele>284.899993896</ele>
        <time>2015-07-03T10:22:39.38Z</time>
      </trkpt>
      <trkpt lat="45.95179" lon="4.8811">
        <ele>284.899993896</ele>
        <time>2015-07-03T10:22:40.38Z</time>
      </trkpt>
      <trkpt lat="45.95181" lon="4.88102">
        <ele>284.899993896</ele>
        <time>2015-07-03T10:22:41.402Z</time>
      </trkpt>
      <trkpt lat="45.95182" lon="4.88094">
        <ele>284.799987793</ele>
        <time>2015-07-03T10:22:42.38Z</time>
      </trkpt>
      <trkpt lat="45.95184" lon="4.88086">
        <ele>284.700012207</ele>
        <time>2015-07-03T10:22:43.379Z</time>
      </trkpt>
      <trkpt lat="45.95186" lon="4.88077">
        <ele>284.600006104</ele>
        <time>2015-07-03T10:22:44.381Z</time>
      </trkpt>
      <trkpt lat="45.95188" lon="4.88069">
        <ele>284.600006104</ele>
        <time>2015-07-03T10:22:45.377Z</time>
      </trkpt>
      <trkpt lat="45.95191" lon="4.88061">
        <ele>284.600006104</ele>
        <time>2015-07-03T10:22:46.377Z</time>
      </trkpt>
      <trkpt lat="45.95193" lon="4.88053">
        <ele>284.799987793</ele>
        <time>2015-07-03T10:22:47.377Z</time>
      </trkpt>
      <trkpt lat="45.95197" lon="4.88045">
        <ele>284.899993896</ele>
        <time>2015-07-03T10:22:48.38Z</time>
      </trkpt>
      <trkpt lat="45.952" lon="4.88037">
        <ele>284.799987793</ele>
        <time>2015-07-03T10:22:49.377Z</time>
      </trkpt>
      <trkpt lat="45.95205" lon="4.8803">
        <ele>284.700012207</ele>
        <time>2015-07-03T10:22:50.413Z</time>
      </trkpt>
      <trkpt lat="45.9521" lon="4.88023">
        <ele>284.5</ele>
        <time>2015-07-03T10:22:51.38Z</time>
      </trkpt>
      <trkpt lat="45.95215" lon="4.88016">
        <ele>283.899993896</ele>
        <time>2015-07-03T10:22:52.376Z</time>
      </trkpt>
      <trkpt lat="45.9522" lon="4.88009">
        <ele>284.100006104</ele>
        <time>2015-07-03T10:22:53.377Z</time>
      </trkpt>
      <trkpt lat="45.95224" lon="4.88003">
        <ele>283.299987793</ele>
        <time>2015-07-03T10:22:54.393Z</time>
      </trkpt>
      <trkpt lat="45.95229" lon="4.87997">
        <ele>283.399993896</ele>
        <time>2015-07-03T10:22:55.38Z</time>
      </trkpt>
      <trkpt lat="45.95234" lon="4.8799">
        <ele>283.299987793</ele>
        <time>2015-07-03T10:22:56.379Z</time>
      </trkpt>
      <trkpt lat="45.95238" lon="4.87984">
        <ele>283.399993896</ele>
        <time>2015-07-03T10:22:57.38Z</time>
      </trkpt>
      <trkpt lat="45.95242" lon="4.87977">
        <ele>283.200012207</ele>
        <time>2015-07-03T10:22:58.378Z</time>
      </trkpt>
      <trkpt lat="45.95245" lon="4.87972">
        <ele>283.5</ele>
        <time>2015-07-03T10:22:59.377Z</time>
      </trkpt>
      <trkpt lat="45.95249" lon="4.87966">
        <ele>283.700012207</ele>
        <time>2015-07-03T10:23:00.382Z</time>
      </trkpt>
      <trkpt lat="45.95252" lon="4.8796">
        <ele>283.799987793</ele>
        <time>2015-07-03T10:23:01.381Z</time>
      </trkpt>
      <trkpt lat="45.95255" lon="4.87953">
        <ele>284</ele>
        <time>2015-07-03T10:23:02.378Z</time>
      </trkpt>
      <trkpt lat="45.95259" lon="4.87945">
        <ele>283.899993896</ele>
        <time>2015-07-03T10:23:03.422Z</time>
      </trkpt>
      <trkpt lat="45.95261" lon="4.87936">
        <ele>284</ele>
        <time>2015-07-03T10:23:04.38Z</time>
      </trkpt>
      <trkpt lat="45.95262" lon="4.87927">
        <ele>284.100006104</ele>
        <time>2015-07-03T10:23:05.377Z</time>
      </trkpt>
      <trkpt lat="45.95263" lon="4.87918">
        <ele>284.600006104</ele>
        <time>2015-07-03T10:23:06.381Z</time>
      </trkpt>
      <trkpt lat="45.95263" lon="4.87909">
        <ele>285.100006104</ele>
        <time>2015-07-03T10:23:07.377Z</time>
      </trkpt>
      <trkpt lat="45.95262" lon="4.87899">
        <ele>285.899993896</ele>
        <time>2015-07-03T10:23:08.378Z</time>
      </trkpt>
      <trkpt lat="45.95261" lon="4.87889">
        <ele>286</ele>
        <time>2015-07-03T10:23:09.378Z</time>
      </trkpt>
      <trkpt lat="45.95258" lon="4.87879">
        <ele>286.200012207</ele>
        <time>2015-07-03T10:23:10.392Z</time>
      </trkpt>
      <trkpt lat="45.95256" lon="4.8787">
        <ele>286.100006104</ele>
        <time>2015-07-03T10:23:11.378Z</time>
      </trkpt>
      <trkpt lat="45.95253" lon="4.8786">
        <ele>286.299987793</ele>
        <time>2015-07-03T10:23:12.38Z</time>
      </trkpt>
      <trkpt lat="45.95251" lon="4.87851">
        <ele>286.200012207</ele>
        <time>2015-07-03T10:23:13.377Z</time>
      </trkpt>
      <trkpt lat="45.95249" lon="4.87842">
        <ele>286.100006104</ele>
        <time>2015-07-03T10:23:14.378Z</time>
      </trkpt>
      <trkpt lat="45.95248" lon="4.87832">
        <ele>286.100006104</ele>
        <time>2015-07-03T10:23:15.377Z</time>
      </trkpt>
      <trkpt lat="45.95247" lon="4.87822">
        <ele>286.100006104</ele>
        <time>2015-07-03T10:23:16.377Z</time>
      </trkpt>
      <trkpt lat="45.95246" lon="4.87813">
        <ele>286.100006104</ele>
        <time>2015-07-03T10:23:17.377Z</time>
      </trkpt>
      <trkpt lat="45.95244" lon="4.87803">
        <ele>286.100006104</ele>
        <time>2015-07-03T10:23:18.383Z</time>
      </trkpt>
      <trkpt lat="45.95242" lon="4.87794">
        <ele>286.100006104</ele>
        <time>2015-07-03T10:23:19.377Z</time>
      </trkpt>
      <trkpt lat="45.9524" lon="4.87784">
        <ele>286.100006104</ele>
        <time>2015-07-03T10:23:20.376Z</time>
      </trkpt>
      <trkpt lat="45.95239" lon="4.87775">
        <ele>286.100006104</ele>
        <time>2015-07-03T10:23:21.377Z</time>
      </trkpt>
      <trkpt lat="45.95238" lon="4.87766">
        <ele>286.100006104</ele>
        <time>2015-07-03T10:23:22.377Z</time>
      </trkpt>
      <trkpt lat="45.95236" lon="4.87758">
        <ele>286</ele>
        <time>2015-07-03T10:23:23.377Z</time>
      </trkpt>
      <trkpt lat="45.95234" lon="4.87749">
        <ele>286</ele>
        <time>2015-07-03T10:23:24.384Z</time>
      </trkpt>
      <trkpt lat="45.95233" lon="4.87739">
        <ele>286</ele>
        <time>2015-07-03T10:23:25.377Z</time>
      </trkpt>
      <trkpt lat="45.9523" lon="4.87729">
        <ele>286</ele>
        <time>2015-07-03T10:23:26.381Z</time>
      </trkpt>
      <trkpt lat="45.9523" lon="4.8772">
        <ele>285.899993896</ele>
        <time>2015-07-03T10:23:27.382Z</time>
      </trkpt>
      <trkpt lat="45.95227" lon="4.87711">
        <ele>285.899993896</ele>
        <time>2015-07-03T10:23:28.377Z</time>
      </trkpt>
      <trkpt lat="45.95225" lon="4.87701">
        <ele>285.899993896</ele>
        <time>2015-07-03T10:23:29.38Z</time>
      </trkpt>
      <trkpt lat="45.95223" lon="4.87692">
        <ele>285.700012207</ele>
        <time>2015-07-03T10:23:30.381Z</time>
      </trkpt>
      <trkpt lat="45.95221" lon="4.87682">
        <ele>285.600006104</ele>
        <time>2015-07-03T10:23:31.377Z</time>
      </trkpt>
      <trkpt lat="45.95221" lon="4.87672">
        <ele>285.5</ele>
        <time>2015-07-03T10:23:32.378Z</time>
      </trkpt>
      <trkpt lat="45.9522" lon="4.87662">
        <ele>285.5</ele>
        <time>2015-07-03T10:23:33.377Z</time>
      </trkpt>
      <trkpt lat="45.95219" lon="4.87651">
        <ele>285.399993896</ele>
        <time>2015-07-03T10:23:34.376Z</time>
      </trkpt>
      <trkpt lat="45.95218" lon="4.87641">
        <ele>285.399993896</ele>
        <time>2015-07-03T10:23:35.4Z</time>
      </trkpt>
      <trkpt lat="45.95216" lon="4.87629">
        <ele>285.299987793</ele>
        <time>2015-07-03T10:23:36.394Z</time>
      </trkpt>
      <trkpt lat="45.95215" lon="4.87618">
        <ele>285.700012207</ele>
        <time>2015-07-03T10:23:37.38Z</time>
      </trkpt>
      <trkpt lat="45.95214" lon="4.87606">
        <ele>286.299987793</ele>
        <time>2015-07-03T10:23:38.381Z</time>
      </trkpt>
      <trkpt lat="45.95215" lon="4.87594">
        <ele>286.299987793</ele>
        <time>2015-07-03T10:23:39.377Z</time>
      </trkpt>
      <trkpt lat="45.95215" lon="4.87581">
        <ele>286.5</ele>
        <time>2015-07-03T10:23:40.38Z</time>
      </trkpt>
      <trkpt lat="45.95214" lon="4.87569">
        <ele>286.600006104</ele>
        <time>2015-07-03T10:23:41.38Z</time>
      </trkpt>
      <trkpt lat="45.95213" lon="4.87556">
        <ele>286.5</ele>
        <time>2015-07-03T10:23:42.38Z</time>
      </trkpt>
      <trkpt lat="45.95212" lon="4.87543">
        <ele>286.5</ele>
        <time>2015-07-03T10:23:43.377Z</time>
      </trkpt>
      <trkpt lat="45.9521" lon="4.87531">
        <ele>286.399993896</ele>
        <time>2015-07-03T10:23:44.379Z</time>
      </trkpt>
      <trkpt lat="45.95208" lon="4.87518">
        <ele>286.399993896</ele>
        <time>2015-07-03T10:23:45.377Z</time>
      </trkpt>
      <trkpt lat="45.95206" lon="4.87506">
        <ele>286.299987793</ele>
        <time>2015-07-03T10:23:46.376Z</time>
      </trkpt>
      <trkpt lat="45.95203" lon="4.87494">
        <ele>286.200012207</ele>
        <time>2015-07-03T10:23:47.38Z</time>
      </trkpt>
      <trkpt lat="45.952" lon="4.87483">
        <ele>286</ele>
        <time>2015-07-03T10:23:48.38Z</time>
      </trkpt>
      <trkpt lat="45.95198" lon="4.87472">
        <ele>285.899993896</ele>
        <time>2015-07-03T10:23:49.377Z</time>
      </trkpt>
      <trkpt lat="45.95195" lon="4.87461">
        <ele>285.700012207</ele>
        <time>2015-07-03T10:23:50.377Z</time>
      </trkpt>
      <trkpt lat="45.95192" lon="4.87451">
        <ele>285.700012207</ele>
        <time>2015-07-03T10:23:51.38Z</time>
      </trkpt>
      <trkpt lat="45.9519" lon="4.8744">
        <ele>285.600006104</ele>
        <time>2015-07-03T10:23:52.379Z</time>
      </trkpt>
      <trkpt lat="45.95187" lon="4.8743">
        <ele>285.5</ele>
        <time>2015-07-03T10:23:53.398Z</time>
      </trkpt>
      <trkpt lat="45.95185" lon="4.8742">
        <ele>285.399993896</ele>
        <time>2015-07-03T10:23:54.38Z</time>
      </trkpt>
      <trkpt lat="45.95183" lon="4.87411">
        <ele>285.299987793</ele>
        <time>2015-07-03T10:23:55.38Z</time>
      </trkpt>
      <trkpt lat="45.95182" lon="4.87401">
        <ele>285.299987793</ele>
        <time>2015-07-03T10:23:56.379Z</time>
      </trkpt>
      <trkpt lat="45.9518" lon="4.87392">
        <ele>285.100006104</ele>
        <time>2015-07-03T10:23:57.394Z</time>
      </trkpt>
      <trkpt lat="45.95176" lon="4.87383">
        <ele>284.600006104</ele>
        <time>2015-07-03T10:23:58.38Z</time>
      </trkpt>
      <trkpt lat="45.95173" lon="4.87373">
        <ele>284</ele>
        <time>2015-07-03T10:23:59.375Z</time>
      </trkpt>
      <trkpt lat="45.95172" lon="4.87364">
        <ele>284</ele>
        <time>2015-07-03T10:24:00.38Z</time>
      </trkpt>
      <trkpt lat="45.9517" lon="4.87354">
        <ele>284</ele>
        <time>2015-07-03T10:24:01.376Z</time>
      </trkpt>
      <trkpt lat="45.95168" lon="4.87345">
        <ele>284</ele>
        <time>2015-07-03T10:24:02.377Z</time>
      </trkpt>
      <trkpt lat="45.95165" lon="4.87336">
        <ele>283.5</ele>
        <time>2015-07-03T10:24:03.377Z</time>
      </trkpt>
      <trkpt lat="45.95163" lon="4.87326">
        <ele>283.299987793</ele>
        <time>2015-07-03T10:24:04.376Z</time>
      </trkpt>
      <trkpt lat="45.9516" lon="4.87317">
        <ele>283.200012207</ele>
        <time>2015-07-03T10:24:05.377Z</time>
      </trkpt>
      <trkpt lat="45.95157" lon="4.87308">
        <ele>283</ele>
        <time>2015-07-03T10:24:06.38Z</time>
      </trkpt>
      <trkpt lat="45.95154" lon="4.87299">
        <ele>282.799987793</ele>
        <time>2015-07-03T10:24:07.377Z</time>
      </trkpt>
      <trkpt lat="45.95152" lon="4.8729">
        <ele>282.799987793</ele>
        <time>2015-07-03T10:24:08.378Z</time>
      </trkpt>
      <trkpt lat="45.9515" lon="4.87281">
        <ele>282.799987793</ele>
        <time>2015-07-03T10:24:09.422Z</time>
      </trkpt>
      <trkpt lat="45.95147" lon="4.87272">
        <ele>282.600006104</ele>
        <time>2015-07-03T10:24:10.376Z</time>
      </trkpt>
      <trkpt lat="45.95146" lon="4.87264">
        <ele>282.799987793</ele>
        <time>2015-07-03T10:24:11.376Z</time>
      </trkpt>
      <trkpt lat="45.95144" lon="4.87257">
        <ele>282.799987793</ele>
        <time>2015-07-03T10:24:12.382Z</time>
      </trkpt>
      <trkpt lat="45.95142" lon="4.87249">
        <ele>282.5</ele>
        <time>2015-07-03T10:24:13.378Z</time>
      </trkpt>
      <trkpt lat="45.9514" lon="4.87242">
        <ele>282.799987793</ele>
        <time>2015-07-03T10:24:14.379Z</time>
      </trkpt>
      <trkpt lat="45.95138" lon="4.87234">
        <ele>282.600006104</ele>
        <time>2015-07-03T10:24:15.377Z</time>
      </trkpt>
      <trkpt lat="45.95136" lon="4.87226">
        <ele>282.899993896</ele>
        <time>2015-07-03T10:24:16.377Z</time>
      </trkpt>
      <trkpt lat="45.95134" lon="4.87219">
        <ele>282.700012207</ele>
        <time>2015-07-03T10:24:17.377Z</time>
      </trkpt>
      <trkpt lat="45.95132" lon="4.87213">
        <ele>283</ele>
        <time>2015-07-03T10:24:18.394Z</time>
      </trkpt>
      <trkpt lat="45.9513" lon="4.87206">
        <ele>283.200012207</ele>
        <time>2015-07-03T10:24:19.378Z</time>
      </trkpt>
      <trkpt lat="45.95129" lon="4.87199">
        <ele>283.600006104</ele>
        <time>2015-07-03T10:24:20.377Z</time>
      </trkpt>
      <trkpt lat="45.9513" lon="4.87193">
        <ele>283.600006104</ele>
        <time>2015-07-03T10:24:21.38Z</time>
      </trkpt>
      <trkpt lat="45.95129" lon="4.87186">
        <ele>284.299987793</ele>
        <time>2015-07-03T10:24:22.376Z</time>
      </trkpt>
      <trkpt lat="45.9513" lon="4.87173">
        <ele>284.5</ele>
        <time>2015-07-03T10:24:24.38Z</time>
      </trkpt>
      <trkpt lat="45.9513" lon="4.87168">
        <ele>284</ele>
        <time>2015-07-03T10:24:25.38Z</time>
      </trkpt>
      <trkpt lat="45.95128" lon="4.87156">
        <ele>284.299987793</ele>
        <time>2015-07-03T10:24:27.381Z</time>
      </trkpt>
      <trkpt lat="45.95128" lon="4.87149">
        <ele>284.200012207</ele>
        <time>2015-07-03T10:24:28.377Z</time>
      </trkpt>
      <trkpt lat="45.95127" lon="4.87142">
        <ele>284.200012207</ele>
        <time>2015-07-03T10:24:29.41Z</time>
      </trkpt>
      <trkpt lat="45.95126" lon="4.87135">
        <ele>284.299987793</ele>
        <time>2015-07-03T10:24:30.383Z</time>
      </trkpt>
      <trkpt lat="45.95125" lon="4.87129">
        <ele>284.5</ele>
        <time>2015-07-03T10:24:31.376Z</time>
      </trkpt>
      <trkpt lat="45.95123" lon="4.87121">
        <ele>284.799987793</ele>
        <time>2015-07-03T10:24:32.377Z</time>
      </trkpt>
      <trkpt lat="45.95121" lon="4.87114">
        <ele>284.899993896</ele>
        <time>2015-07-03T10:24:33.377Z</time>
      </trkpt>
      <trkpt lat="45.95119" lon="4.87107">
        <ele>284.899993896</ele>
        <time>2015-07-03T10:24:34.393Z</time>
      </trkpt>
      <trkpt lat="45.95117" lon="4.871">
        <ele>284.899993896</ele>
        <time>2015-07-03T10:24:35.376Z</time>
      </trkpt>
      <trkpt lat="45.95115" lon="4.87093">
        <ele>285</ele>
        <time>2015-07-03T10:24:36.38Z</time>
      </trkpt>
      <trkpt lat="45.95113" lon="4.87086">
        <ele>285</ele>
        <time>2015-07-03T10:24:37.376Z</time>
      </trkpt>
      <trkpt lat="45.9511" lon="4.8708">
        <ele>285.100006104</ele>
        <time>2015-07-03T10:24:38.377Z</time>
      </trkpt>
      <trkpt lat="45.95107" lon="4.87074">
        <ele>285.100006104</ele>
        <time>2015-07-03T10:24:39.38Z</time>
      </trkpt>
      <trkpt lat="45.95106" lon="4.87068">
        <ele>285.200012207</ele>
        <time>2015-07-03T10:24:40.38Z</time>
      </trkpt>
      <trkpt lat="45.95105" lon="4.87059">
        <ele>285.5</ele>
        <time>2015-07-03T10:24:42.381Z</time>
      </trkpt>
      <trkpt lat="45.95103" lon="4.87055">
        <ele>285.600006104</ele>
        <time>2015-07-03T10:24:43.378Z</time>
      </trkpt>
      <trkpt lat="45.95099" lon="4.87047">
        <ele>285.799987793</ele>
        <time>2015-07-03T10:24:45.397Z</time>
      </trkpt>
      <trkpt lat="45.95097" lon="4.87042">
        <ele>285.799987793</ele>
        <time>2015-07-03T10:24:46.376Z</time>
      </trkpt>
      <trkpt lat="45.95092" lon="4.87032">
        <ele>285.899993896</ele>
        <time>2015-07-03T10:24:48.38Z</time>
      </trkpt>
      <trkpt lat="45.95087" lon="4.87026">
        <ele>285.5</ele>
        <time>2015-07-03T10:24:49.376Z</time>
      </trkpt>
      <trkpt lat="45.95084" lon="4.87021">
        <ele>285.299987793</ele>
        <time>2015-07-03T10:24:50.378Z</time>
      </trkpt>
      <trkpt lat="45.9508" lon="4.87016">
        <ele>284.799987793</ele>
        <time>2015-07-03T10:24:51.379Z</time>
      </trkpt>
      <trkpt lat="45.95076" lon="4.8701">
        <ele>284.5</ele>
        <time>2015-07-03T10:24:52.376Z</time>
      </trkpt>
      <trkpt lat="45.95072" lon="4.87004">
        <ele>284.100006104</ele>
        <time>2015-07-03T10:24:53.38Z</time>
      </trkpt>
      <trkpt lat="45.95069" lon="4.86998">
        <ele>284</ele>
        <time>2015-07-03T10:24:54.38Z</time>
      </trkpt>
      <trkpt lat="45.95067" lon="4.8699">
        <ele>283.899993896</ele>
        <time>2015-07-03T10:24:55.379Z</time>
      </trkpt>
      <trkpt lat="45.95063" lon="4.86984">
        <ele>283.799987793</ele>
        <time>2015-07-03T10:24:56.394Z</time>
      </trkpt>
      <trkpt lat="45.95059" lon="4.86976">
        <ele>283.700012207</ele>
        <time>2015-07-03T10:24:57.37Z</time>
      </trkpt>
      <trkpt lat="45.95054" lon="4.86968">
        <ele>283.200012207</ele>
        <time>2015-07-03T10:24:58.377Z</time>
      </trkpt>
      <trkpt lat="45.95052" lon="4.86961">
        <ele>282.899993896</ele>
        <time>2015-07-03T10:24:59.376Z</time>
      </trkpt>
      <trkpt lat="45.95049" lon="4.86952">
        <ele>282.5</ele>
        <time>2015-07-03T10:25:00.38Z</time>
      </trkpt>
      <trkpt lat="45.95047" lon="4.86943">
        <ele>282.399993896</ele>
        <time>2015-07-03T10:25:01.377Z</time>
      </trkpt>
      <trkpt lat="45.95044" lon="4.86935">
        <ele>281.799987793</ele>
        <time>2015-07-03T10:25:02.377Z</time>
      </trkpt>
      <trkpt lat="45.95041" lon="4.86927">
        <ele>281.600006104</ele>
        <time>2015-07-03T10:25:03.416Z</time>
      </trkpt>
      <trkpt lat="45.95038" lon="4.86919">
        <ele>281.399993896</ele>
        <time>2015-07-03T10:25:04.377Z</time>
      </trkpt>
      <trkpt lat="45.95035" lon="4.86911">
        <ele>281.200012207</ele>
        <time>2015-07-03T10:25:05.377Z</time>
      </trkpt>
      <trkpt lat="45.95032" lon="4.86903">
        <ele>280.799987793</ele>
        <time>2015-07-03T10:25:06.38Z</time>
      </trkpt>
      <trkpt lat="45.9503" lon="4.86895">
        <ele>280.600006104</ele>
        <time>2015-07-03T10:25:07.38Z</time>
      </trkpt>
      <trkpt lat="45.95028" lon="4.86887">
        <ele>280.299987793</ele>
        <time>2015-07-03T10:25:08.383Z</time>
      </trkpt>
      <trkpt lat="45.95025" lon="4.86879">
        <ele>280.200012207</ele>
        <time>2015-07-03T10:25:09.439Z</time>
      </trkpt>
      <trkpt lat="45.95023" lon="4.86871">
        <ele>279.899993896</ele>
        <time>2015-07-03T10:25:10.377Z</time>
      </trkpt>
      <trkpt lat="45.9502" lon="4.86862">
        <ele>279.200012207</ele>
        <time>2015-07-03T10:25:11.376Z</time>
      </trkpt>
      <trkpt lat="45.95017" lon="4.86854">
        <ele>279.100006104</ele>
        <time>2015-07-03T10:25:12.395Z</time>
      </trkpt>
      <trkpt lat="45.95014" lon="4.86846">
        <ele>278.899993896</ele>
        <time>2015-07-03T10:25:13.376Z</time>
      </trkpt>
      <trkpt lat="45.95011" lon="4.86839">
        <ele>278.200012207</ele>
        <time>2015-07-03T10:25:14.378Z</time>
      </trkpt>
      <trkpt lat="45.95006" lon="4.86832">
        <ele>277.700012207</ele>
        <time>2015-07-03T10:25:15.377Z</time>
      </trkpt>
      <trkpt lat="45.95001" lon="4.86825">
        <ele>277.399993896</ele>
        <time>2015-07-03T10:25:16.375Z</time>
      </trkpt>
      <trkpt lat="45.94998" lon="4.86818">
        <ele>277.100006104</ele>
        <time>2015-07-03T10:25:17.377Z</time>
      </trkpt>
      <trkpt lat="45.94994" lon="4.8681">
        <ele>276.700012207</ele>
        <time>2015-07-03T10:25:18.381Z</time>
      </trkpt>
      <trkpt lat="45.94991" lon="4.86803">
        <ele>276.5</ele>
        <time>2015-07-03T10:25:19.376Z</time>
      </trkpt>
      <trkpt lat="45.94988" lon="4.86797">
        <ele>276.299987793</ele>
        <time>2015-07-03T10:25:20.381Z</time>
      </trkpt>
      <trkpt lat="45.94985" lon="4.86791">
        <ele>276.100006104</ele>
        <time>2015-07-03T10:25:21.377Z</time>
      </trkpt>
      <trkpt lat="45.94982" lon="4.86784">
        <ele>275.899993896</ele>
        <time>2015-07-03T10:25:22.377Z</time>
      </trkpt>
      <trkpt lat="45.94978" lon="4.86777">
        <ele>275.5</ele>
        <time>2015-07-03T10:25:23.414Z</time>
      </trkpt>
      <trkpt lat="45.94974" lon="4.86771">
        <ele>275.5</ele>
        <time>2015-07-03T10:25:24.381Z</time>
      </trkpt>
      <trkpt lat="45.9497" lon="4.86764">
        <ele>275.100006104</ele>
        <time>2015-07-03T10:25:25.377Z</time>
      </trkpt>
      <trkpt lat="45.94967" lon="4.86757">
        <ele>274.700012207</ele>
        <time>2015-07-03T10:25:26.381Z</time>
      </trkpt>
      <trkpt lat="45.94964" lon="4.8675">
        <ele>274.5</ele>
        <time>2015-07-03T10:25:27.381Z</time>
      </trkpt>
      <trkpt lat="45.94961" lon="4.86743">
        <ele>274.200012207</ele>
        <time>2015-07-03T10:25:28.377Z</time>
      </trkpt>
      <trkpt lat="45.94958" lon="4.86736">
        <ele>274</ele>
        <time>2015-07-03T10:25:29.377Z</time>
      </trkpt>
      <trkpt lat="45.94955" lon="4.86729">
        <ele>273.799987793</ele>
        <time>2015-07-03T10:25:30.38Z</time>
      </trkpt>
      <trkpt lat="45.94952" lon="4.86722">
        <ele>273.899993896</ele>
        <time>2015-07-03T10:25:31.377Z</time>
      </trkpt>
      <trkpt lat="45.9495" lon="4.86713">
        <ele>273.5</ele>
        <time>2015-07-03T10:25:32.381Z</time>
      </trkpt>
      <trkpt lat="45.94947" lon="4.86706">
        <ele>273.600006104</ele>
        <time>2015-07-03T10:25:33.376Z</time>
      </trkpt>
      <trkpt lat="45.94946" lon="4.86698">
        <ele>273.299987793</ele>
        <time>2015-07-03T10:25:34.384Z</time>
      </trkpt>
      <trkpt lat="45.94944" lon="4.86691">
        <ele>273.299987793</ele>
        <time>2015-07-03T10:25:35.377Z</time>
      </trkpt>
      <trkpt lat="45.94943" lon="4.86683">
        <ele>273.399993896</ele>
        <time>2015-07-03T10:25:36.38Z</time>
      </trkpt>
      <trkpt lat="45.94943" lon="4.86676">
        <ele>273.5</ele>
        <time>2015-07-03T10:25:37.38Z</time>
      </trkpt>
      <trkpt lat="45.94942" lon="4.86669">
        <ele>273.799987793</ele>
        <time>2015-07-03T10:25:38.377Z</time>
      </trkpt>
      <trkpt lat="45.94943" lon="4.86661">
        <ele>274</ele>
        <time>2015-07-03T10:25:39.38Z</time>
      </trkpt>
      <trkpt lat="45.94944" lon="4.86654">
        <ele>274.100006104</ele>
        <time>2015-07-03T10:25:40.377Z</time>
      </trkpt>
      <trkpt lat="45.94946" lon="4.86647">
        <ele>274.299987793</ele>
        <time>2015-07-03T10:25:41.376Z</time>
      </trkpt>
      <trkpt lat="45.94949" lon="4.8664">
        <ele>274.299987793</ele>
        <time>2015-07-03T10:25:42.38Z</time>
      </trkpt>
      <trkpt lat="45.94952" lon="4.86634">
        <ele>274.299987793</ele>
        <time>2015-07-03T10:25:43.377Z</time>
      </trkpt>
      <trkpt lat="45.94956" lon="4.86629">
        <ele>274.5</ele>
        <time>2015-07-03T10:25:44.397Z</time>
      </trkpt>
      <trkpt lat="45.94961" lon="4.86624">
        <ele>274.5</ele>
        <time>2015-07-03T10:25:45.377Z</time>
      </trkpt>
      <trkpt lat="45.94965" lon="4.86621">
        <ele>274.600006104</ele>
        <time>2015-07-03T10:25:46.377Z</time>
      </trkpt>
      <trkpt lat="45.9497" lon="4.86619">
        <ele>275.100006104</ele>
        <time>2015-07-03T10:25:47.38Z</time>
      </trkpt>
      <trkpt lat="45.94975" lon="4.86617">
        <ele>275.299987793</ele>
        <time>2015-07-03T10:25:48.38Z</time>
      </trkpt>
      <trkpt lat="45.94979" lon="4.86616">
        <ele>275.299987793</ele>
        <time>2015-07-03T10:25:49.381Z</time>
      </trkpt>
      <trkpt lat="45.94985" lon="4.86615">
        <ele>275.5</ele>
        <time>2015-07-03T10:25:50.377Z</time>
      </trkpt>
      <trkpt lat="45.94991" lon="4.86613">
        <ele>275.299987793</ele>
        <time>2015-07-03T10:25:51.376Z</time>
      </trkpt>
      <trkpt lat="45.94996" lon="4.86612">
        <ele>275.399993896</ele>
        <time>2015-07-03T10:25:52.426Z</time>
      </trkpt>
      <trkpt lat="45.95002" lon="4.8661">
        <ele>275.399993896</ele>
        <time>2015-07-03T10:25:53.38Z</time>
      </trkpt>
      <trkpt lat="45.95008" lon="4.8661">
        <ele>275</ele>
        <time>2015-07-03T10:25:54.382Z</time>
      </trkpt>
      <trkpt lat="45.95015" lon="4.86609">
        <ele>274.600006104</ele>
        <time>2015-07-03T10:25:55.371Z</time>
      </trkpt>
      <trkpt lat="45.95021" lon="4.8661">
        <ele>274.700012207</ele>
        <time>2015-07-03T10:25:56.381Z</time>
      </trkpt>
      <trkpt lat="45.95028" lon="4.86611">
        <ele>275.600006104</ele>
        <time>2015-07-03T10:25:57.377Z</time>
      </trkpt>
      <trkpt lat="45.95035" lon="4.86609">
        <ele>275.299987793</ele>
        <time>2015-07-03T10:25:58.377Z</time>
      </trkpt>
      <trkpt lat="45.95042" lon="4.86607">
        <ele>275.200012207</ele>
        <time>2015-07-03T10:25:59.38Z</time>
      </trkpt>
      <trkpt lat="45.95049" lon="4.86605">
        <ele>275.299987793</ele>
        <time>2015-07-03T10:26:00.384Z</time>
      </trkpt>
      <trkpt lat="45.95056" lon="4.86603">
        <ele>275.299987793</ele>
        <time>2015-07-03T10:26:01.376Z</time>
      </trkpt>
      <trkpt lat="45.95064" lon="4.866">
        <ele>275.200012207</ele>
        <time>2015-07-03T10:26:02.378Z</time>
      </trkpt>
      <trkpt lat="45.95071" lon="4.86598">
        <ele>275.399993896</ele>
        <time>2015-07-03T10:26:03.377Z</time>
      </trkpt>
      <trkpt lat="45.95078" lon="4.86595">
        <ele>275.399993896</ele>
        <time>2015-07-03T10:26:04.377Z</time>
      </trkpt>
      <trkpt lat="45.95086" lon="4.86594">
        <ele>275.299987793</ele>
        <time>2015-07-03T10:26:05.377Z</time>
      </trkpt>
      <trkpt lat="45.95093" lon="4.86592">
        <ele>275.299987793</ele>
        <time>2015-07-03T10:26:06.38Z</time>
      </trkpt>
      <trkpt lat="45.95102" lon="4.8659">
        <ele>275</ele>
        <time>2015-07-03T10:26:07.38Z</time>
      </trkpt>
      <trkpt lat="45.9511" lon="4.86589">
        <ele>274.700012207</ele>
        <time>2015-07-03T10:26:08.378Z</time>
      </trkpt>
      <trkpt lat="45.95118" lon="4.86588">
        <ele>274.700012207</ele>
        <time>2015-07-03T10:26:09.376Z</time>
      </trkpt>
      <trkpt lat="45.95126" lon="4.86587">
        <ele>274.600006104</ele>
        <time>2015-07-03T10:26:10.393Z</time>
      </trkpt>
      <trkpt lat="45.95134" lon="4.86586">
        <ele>274.799987793</ele>
        <time>2015-07-03T10:26:11.378Z</time>
      </trkpt>
      <trkpt lat="45.95142" lon="4.86587">
        <ele>275</ele>
        <time>2015-07-03T10:26:12.379Z</time>
      </trkpt>
      <trkpt lat="45.95151" lon="4.86585">
        <ele>275</ele>
        <time>2015-07-03T10:26:13.376Z</time>
      </trkpt>
      <trkpt lat="45.95159" lon="4.86583">
        <ele>274.700012207</ele>
        <time>2015-07-03T10:26:14.406Z</time>
      </trkpt>
      <trkpt lat="45.95168" lon="4.86582">
        <ele>274.200012207</ele>
        <time>2015-07-03T10:26:15.376Z</time>
      </trkpt>
      <trkpt lat="45.95177" lon="4.86581">
        <ele>274.100006104</ele>
        <time>2015-07-03T10:26:16.405Z</time>
      </trkpt>
      <trkpt lat="45.95186" lon="4.8658">
        <ele>273.600006104</ele>
        <time>2015-07-03T10:26:17.399Z</time>
      </trkpt>
      <trkpt lat="45.95194" lon="4.8658">
        <ele>273.299987793</ele>
        <time>2015-07-03T10:26:18.383Z</time>
      </trkpt>
      <trkpt lat="45.95203" lon="4.86581">
        <ele>273.299987793</ele>
        <time>2015-07-03T10:26:19.376Z</time>
      </trkpt>
      <trkpt lat="45.95211" lon="4.86582">
        <ele>272.799987793</ele>
        <time>2015-07-03T10:26:20.377Z</time>
      </trkpt>
      <trkpt lat="45.95218" lon="4.86583">
        <ele>272.600006104</ele>
        <time>2015-07-03T10:26:21.379Z</time>
      </trkpt>
      <trkpt lat="45.95226" lon="4.86584">
        <ele>271.5</ele>
        <time>2015-07-03T10:26:22.376Z</time>
      </trkpt>
      <trkpt lat="45.95233" lon="4.86585">
        <ele>270.899993896</ele>
        <time>2015-07-03T10:26:23.377Z</time>
      </trkpt>
      <trkpt lat="45.9524" lon="4.86585">
        <ele>270.5</ele>
        <time>2015-07-03T10:26:24.376Z</time>
      </trkpt>
      <trkpt lat="45.95246" lon="4.86585">
        <ele>270.5</ele>
        <time>2015-07-03T10:26:25.376Z</time>
      </trkpt>
      <trkpt lat="45.95254" lon="4.86586">
        <ele>270.700012207</ele>
        <time>2015-07-03T10:26:27.381Z</time>
      </trkpt>
      <trkpt lat="45.95257" lon="4.86585">
        <ele>270.700012207</ele>
        <time>2015-07-03T10:26:28.378Z</time>
      </trkpt>
      <trkpt lat="45.9526" lon="4.86582">
        <ele>270.899993896</ele>
        <time>2015-07-03T10:26:30.382Z</time>
      </trkpt>
      <trkpt lat="45.95261" lon="4.86581">
        <ele>270.799987793</ele>
        <time>2015-07-03T10:26:31.377Z</time>
      </trkpt>
      <trkpt lat="45.95264" lon="4.8657">
        <ele>270.5</ele>
        <time>2015-07-03T10:26:41.376Z</time>
      </trkpt>
      <trkpt lat="45.95264" lon="4.86567">
        <ele>270.299987793</ele>
        <time>2015-07-03T10:26:42.394Z</time>
      </trkpt>
      <trkpt lat="45.95259" lon="4.86559">
        <ele>269.899993896</ele>
        <time>2015-07-03T10:26:45.379Z</time>
      </trkpt>
      <trkpt lat="45.95257" lon="4.86555">
        <ele>269.799987793</ele>
        <time>2015-07-03T10:26:46.38Z</time>
      </trkpt>
      <trkpt lat="45.95253" lon="4.86547">
        <ele>269.700012207</ele>
        <time>2015-07-03T10:26:48.382Z</time>
      </trkpt>
      <trkpt lat="45.95249" lon="4.86542">
        <ele>269.700012207</ele>
        <time>2015-07-03T10:26:49.377Z</time>
      </trkpt>
      <trkpt lat="45.95245" lon="4.86538">
        <ele>269.700012207</ele>
        <time>2015-07-03T10:26:50.378Z</time>
      </trkpt>
      <trkpt lat="45.95241" lon="4.86532">
        <ele>269.700012207</ele>
        <time>2015-07-03T10:26:51.376Z</time>
      </trkpt>
      <trkpt lat="45.95237" lon="4.86527">
        <ele>269.600006104</ele>
        <time>2015-07-03T10:26:52.382Z</time>
      </trkpt>
      <trkpt lat="45.95233" lon="4.86522">
        <ele>269.600006104</ele>
        <time>2015-07-03T10:26:53.371Z</time>
      </trkpt>
      <trkpt lat="45.95229" lon="4.86517">
        <ele>269.600006104</ele>
        <time>2015-07-03T10:26:54.382Z</time>
      </trkpt>
      <trkpt lat="45.95225" lon="4.86512">
        <ele>269.600006104</ele>
        <time>2015-07-03T10:26:55.378Z</time>
      </trkpt>
      <trkpt lat="45.95221" lon="4.86508">
        <ele>269.5</ele>
        <time>2015-07-03T10:26:56.377Z</time>
      </trkpt>
      <trkpt lat="45.95215" lon="4.86501">
        <ele>269.399993896</ele>
        <time>2015-07-03T10:26:57.377Z</time>
      </trkpt>
      <trkpt lat="45.9521" lon="4.86497">
        <ele>269.399993896</ele>
        <time>2015-07-03T10:26:58.393Z</time>
      </trkpt>
      <trkpt lat="45.95206" lon="4.86493">
        <ele>269.299987793</ele>
        <time>2015-07-03T10:26:59.376Z</time>
      </trkpt>
      <trkpt lat="45.95203" lon="4.8649">
        <ele>269.100006104</ele>
        <time>2015-07-03T10:27:00.379Z</time>
      </trkpt>
      <trkpt lat="45.95199" lon="4.86485">
        <ele>269</ele>
        <time>2015-07-03T10:27:01.376Z</time>
      </trkpt>
      <trkpt lat="45.95195" lon="4.86479">
        <ele>268.899993896</ele>
        <time>2015-07-03T10:27:02.378Z</time>
      </trkpt>
      <trkpt lat="45.95192" lon="4.86474">
        <ele>268.700012207</ele>
        <time>2015-07-03T10:27:03.376Z</time>
      </trkpt>
      <trkpt lat="45.95186" lon="4.86466">
        <ele>268.399993896</ele>
        <time>2015-07-03T10:27:05.377Z</time>
      </trkpt>
      <trkpt lat="45.95182" lon="4.86462">
        <ele>268.299987793</ele>
        <time>2015-07-03T10:27:06.383Z</time>
      </trkpt>
      <trkpt lat="45.95176" lon="4.86454">
        <ele>268</ele>
        <time>2015-07-03T10:27:08.377Z</time>
      </trkpt>
      <trkpt lat="45.95173" lon="4.8645">
        <ele>267.799987793</ele>
        <time>2015-07-03T10:27:09.376Z</time>
      </trkpt>
      <trkpt lat="45.9517" lon="4.86445">
        <ele>267.700012207</ele>
        <time>2015-07-03T10:27:10.376Z</time>
      </trkpt>
      <trkpt lat="45.95165" lon="4.86441">
        <ele>267.600006104</ele>
        <time>2015-07-03T10:27:11.427Z</time>
      </trkpt>
      <trkpt lat="45.95161" lon="4.86436">
        <ele>267.200012207</ele>
        <time>2015-07-03T10:27:12.406Z</time>
      </trkpt>
      <trkpt lat="45.95157" lon="4.86432">
        <ele>267</ele>
        <time>2015-07-03T10:27:13.378Z</time>
      </trkpt>
      <trkpt lat="45.9515" lon="4.86424">
        <ele>266.5</ele>
        <time>2015-07-03T10:27:15.414Z</time>
      </trkpt>
      <trkpt lat="45.95146" lon="4.8642">
        <ele>266.200012207</ele>
        <time>2015-07-03T10:27:16.377Z</time>
      </trkpt>
      <trkpt lat="45.95142" lon="4.86416">
        <ele>265.799987793</ele>
        <time>2015-07-03T10:27:17.416Z</time>
      </trkpt>
      <trkpt lat="45.95138" lon="4.86412">
        <ele>265.399993896</ele>
        <time>2015-07-03T10:27:18.384Z</time>
      </trkpt>
      <trkpt lat="45.95135" lon="4.86407">
        <ele>265.100006104</ele>
        <time>2015-07-03T10:27:19.376Z</time>
      </trkpt>
      <trkpt lat="45.95131" lon="4.86402">
        <ele>264.899993896</ele>
        <time>2015-07-03T10:27:20.377Z</time>
      </trkpt>
      <trkpt lat="45.95127" lon="4.86397">
        <ele>264.700012207</ele>
        <time>2015-07-03T10:27:21.375Z</time>
      </trkpt>
      <trkpt lat="45.95123" lon="4.86392">
        <ele>264.5</ele>
        <time>2015-07-03T10:27:22.376Z</time>
      </trkpt>
      <trkpt lat="45.9512" lon="4.86387">
        <ele>264.299987793</ele>
        <time>2015-07-03T10:27:23.378Z</time>
      </trkpt>
      <trkpt lat="45.95116" lon="4.86383">
        <ele>264</ele>
        <time>2015-07-03T10:27:24.378Z</time>
      </trkpt>
      <trkpt lat="45.95112" lon="4.86378">
        <ele>263.799987793</ele>
        <time>2015-07-03T10:27:25.376Z</time>
      </trkpt>
      <trkpt lat="45.95108" lon="4.86373">
        <ele>263.600006104</ele>
        <time>2015-07-03T10:27:26.395Z</time>
      </trkpt>
      <trkpt lat="45.95104" lon="4.86368">
        <ele>263.299987793</ele>
        <time>2015-07-03T10:27:27.379Z</time>
      </trkpt>
      <trkpt lat="45.95101" lon="4.86363">
        <ele>263.200012207</ele>
        <time>2015-07-03T10:27:28.376Z</time>
      </trkpt>
      <trkpt lat="45.95097" lon="4.86358">
        <ele>262.899993896</ele>
        <time>2015-07-03T10:27:29.376Z</time>
      </trkpt>
      <trkpt lat="45.95093" lon="4.86353">
        <ele>262.600006104</ele>
        <time>2015-07-03T10:27:30.394Z</time>
      </trkpt>
      <trkpt lat="45.9509" lon="4.86348">
        <ele>262.200012207</ele>
        <time>2015-07-03T10:27:31.376Z</time>
      </trkpt>
      <trkpt lat="45.95085" lon="4.86343">
        <ele>261.899993896</ele>
        <time>2015-07-03T10:27:32.377Z</time>
      </trkpt>
      <trkpt lat="45.95081" lon="4.86338">
        <ele>261.700012207</ele>
        <time>2015-07-03T10:27:33.378Z</time>
      </trkpt>
      <trkpt lat="45.95077" lon="4.86333">
        <ele>261.5</ele>
        <time>2015-07-03T10:27:34.376Z</time>
      </trkpt>
      <trkpt lat="45.95072" lon="4.86328">
        <ele>261.399993896</ele>
        <time>2015-07-03T10:27:35.376Z</time>
      </trkpt>
      <trkpt lat="45.95068" lon="4.86323">
        <ele>261.299987793</ele>
        <time>2015-07-03T10:27:36.378Z</time>
      </trkpt>
      <trkpt lat="45.95064" lon="4.86319">
        <ele>261.299987793</ele>
        <time>2015-07-03T10:27:37.376Z</time>
      </trkpt>
      <trkpt lat="45.9506" lon="4.86314">
        <ele>261.200012207</ele>
        <time>2015-07-03T10:27:38.378Z</time>
      </trkpt>
      <trkpt lat="45.95056" lon="4.86309">
        <ele>261.100006104</ele>
        <time>2015-07-03T10:27:39.376Z</time>
      </trkpt>
      <trkpt lat="45.95052" lon="4.86304">
        <ele>261.200012207</ele>
        <time>2015-07-03T10:27:40.375Z</time>
      </trkpt>
      <trkpt lat="45.95048" lon="4.86299">
        <ele>261.200012207</ele>
        <time>2015-07-03T10:27:41.392Z</time>
      </trkpt>
      <trkpt lat="45.95044" lon="4.86294">
        <ele>260.899993896</ele>
        <time>2015-07-03T10:27:42.379Z</time>
      </trkpt>
      <trkpt lat="45.9504" lon="4.86289">
        <ele>261.200012207</ele>
        <time>2015-07-03T10:27:43.379Z</time>
      </trkpt>
      <trkpt lat="45.95036" lon="4.86284">
        <ele>261</ele>
        <time>2015-07-03T10:27:44.382Z</time>
      </trkpt>
      <trkpt lat="45.95033" lon="4.86279">
        <ele>260.899993896</ele>
        <time>2015-07-03T10:27:45.376Z</time>
      </trkpt>
      <trkpt lat="45.95029" lon="4.86274">
        <ele>260.899993896</ele>
        <time>2015-07-03T10:27:46.376Z</time>
      </trkpt>
      <trkpt lat="45.95025" lon="4.86269">
        <ele>260.799987793</ele>
        <time>2015-07-03T10:27:47.376Z</time>
      </trkpt>
      <trkpt lat="45.95022" lon="4.86265">
        <ele>260.799987793</ele>
        <time>2015-07-03T10:27:48.378Z</time>
      </trkpt>
      <trkpt lat="45.95016" lon="4.86257">
        <ele>260.799987793</ele>
        <time>2015-07-03T10:27:50.379Z</time>
      </trkpt>
      <trkpt lat="45.95012" lon="4.86252">
        <ele>260.899993896</ele>
        <time>2015-07-03T10:27:51.373Z</time>
      </trkpt>
      <trkpt lat="45.95009" lon="4.86248">
        <ele>261.100006104</ele>
        <time>2015-07-03T10:27:52.376Z</time>
      </trkpt>
      <trkpt lat="45.95006" lon="4.86244">
        <ele>260.899993896</ele>
        <time>2015-07-03T10:27:53.376Z</time>
      </trkpt>
      <trkpt lat="45.95002" lon="4.86239">
        <ele>261</ele>
        <time>2015-07-03T10:27:54.381Z</time>
      </trkpt>
      <trkpt lat="45.94999" lon="4.86235">
        <ele>261.100006104</ele>
        <time>2015-07-03T10:27:55.378Z</time>
      </trkpt>
      <trkpt lat="45.94996" lon="4.8623">
        <ele>260.799987793</ele>
        <time>2015-07-03T10:27:56.377Z</time>
      </trkpt>
      <trkpt lat="45.94992" lon="4.86227">
        <ele>260.799987793</ele>
        <time>2015-07-03T10:27:57.376Z</time>
      </trkpt>
      <trkpt lat="45.94988" lon="4.86222">
        <ele>261</ele>
        <time>2015-07-03T10:27:58.376Z</time>
      </trkpt>
      <trkpt lat="45.94985" lon="4.86218">
        <ele>261.100006104</ele>
        <time>2015-07-03T10:27:59.375Z</time>
      </trkpt>
      <trkpt lat="45.94979" lon="4.86211">
        <ele>261.700012207</ele>
        <time>2015-07-03T10:28:01.377Z</time>
      </trkpt>
      <trkpt lat="45.94976" lon="4.86206">
        <ele>261.899993896</ele>
        <time>2015-07-03T10:28:02.393Z</time>
      </trkpt>
      <trkpt lat="45.94972" lon="4.86202">
        <ele>262.399993896</ele>
        <time>2015-07-03T10:28:03.374Z</time>
      </trkpt>
      <trkpt lat="45.94969" lon="4.86198">
        <ele>262.600006104</ele>
        <time>2015-07-03T10:28:04.377Z</time>
      </trkpt>
      <trkpt lat="45.94965" lon="4.86193">
        <ele>262.700012207</ele>
        <time>2015-07-03T10:28:05.399Z</time>
      </trkpt>
      <trkpt lat="45.94962" lon="4.86189">
        <ele>262.799987793</ele>
        <time>2015-07-03T10:28:06.379Z</time>
      </trkpt>
      <trkpt lat="45.94958" lon="4.86184">
        <ele>263.200012207</ele>
        <time>2015-07-03T10:28:07.376Z</time>
      </trkpt>
      <trkpt lat="45.94954" lon="4.8618">
        <ele>263.399993896</ele>
        <time>2015-07-03T10:28:08.377Z</time>
      </trkpt>
      <trkpt lat="45.9495" lon="4.86175">
        <ele>263.600006104</ele>
        <time>2015-07-03T10:28:09.376Z</time>
      </trkpt>
      <trkpt lat="45.94946" lon="4.8617">
        <ele>263.899993896</ele>
        <time>2015-07-03T10:28:10.379Z</time>
      </trkpt>
      <trkpt lat="45.94942" lon="4.86166">
        <ele>264.100006104</ele>
        <time>2015-07-03T10:28:11.376Z</time>
      </trkpt>
      <trkpt lat="45.94938" lon="4.86161">
        <ele>264.100006104</ele>
        <time>2015-07-03T10:28:12.381Z</time>
      </trkpt>
      <trkpt lat="45.94933" lon="4.8615">
        <ele>265</ele>
        <time>2015-07-03T10:28:14.38Z</time>
      </trkpt>
      <trkpt lat="45.94929" lon="4.86145">
        <ele>265.200012207</ele>
        <time>2015-07-03T10:28:15.412Z</time>
      </trkpt>
      <trkpt lat="45.94926" lon="4.8614">
        <ele>265.299987793</ele>
        <time>2015-07-03T10:28:16.375Z</time>
      </trkpt>
      <trkpt lat="45.94922" lon="4.86135">
        <ele>265.299987793</ele>
        <time>2015-07-03T10:28:17.376Z</time>
      </trkpt>
      <trkpt lat="45.94919" lon="4.8613">
        <ele>265.700012207</ele>
        <time>2015-07-03T10:28:18.395Z</time>
      </trkpt>
      <trkpt lat="45.94915" lon="4.86124">
        <ele>266.100006104</ele>
        <time>2015-07-03T10:28:19.377Z</time>
      </trkpt>
      <trkpt lat="45.94912" lon="4.86118">
        <ele>266.5</ele>
        <time>2015-07-03T10:28:20.377Z</time>
      </trkpt>
      <trkpt lat="45.94909" lon="4.86113">
        <ele>266.700012207</ele>
        <time>2015-07-03T10:28:21.376Z</time>
      </trkpt>
      <trkpt lat="45.94906" lon="4.86107">
        <ele>267.200012207</ele>
        <time>2015-07-03T10:28:22.378Z</time>
      </trkpt>
      <trkpt lat="45.94903" lon="4.86101">
        <ele>267.600006104</ele>
        <time>2015-07-03T10:28:23.377Z</time>
      </trkpt>
      <trkpt lat="45.949" lon="4.86096">
        <ele>267.899993896</ele>
        <time>2015-07-03T10:28:24.379Z</time>
      </trkpt>
      <trkpt lat="45.94898" lon="4.8609">
        <ele>268.200012207</ele>
        <time>2015-07-03T10:28:25.376Z</time>
      </trkpt>
      <trkpt lat="45.94895" lon="4.86084">
        <ele>268.600006104</ele>
        <time>2015-07-03T10:28:26.377Z</time>
      </trkpt>
      <trkpt lat="45.94892" lon="4.86078">
        <ele>269</ele>
        <time>2015-07-03T10:28:27.38Z</time>
      </trkpt>
      <trkpt lat="45.94891" lon="4.86071">
        <ele>269.399993896</ele>
        <time>2015-07-03T10:28:28.376Z</time>
      </trkpt>
      <trkpt lat="45.94889" lon="4.86065">
        <ele>269.899993896</ele>
        <time>2015-07-03T10:28:29.376Z</time>
      </trkpt>
      <trkpt lat="45.94886" lon="4.86058">
        <ele>270</ele>
        <time>2015-07-03T10:28:30.406Z</time>
      </trkpt>
      <trkpt lat="45.94883" lon="4.86051">
        <ele>270.399993896</ele>
        <time>2015-07-03T10:28:31.376Z</time>
      </trkpt>
      <trkpt lat="45.94881" lon="4.86045">
        <ele>270.899993896</ele>
        <time>2015-07-03T10:28:32.377Z</time>
      </trkpt>
      <trkpt lat="45.9488" lon="4.86039">
        <ele>270.899993896</ele>
        <time>2015-07-03T10:28:33.376Z</time>
      </trkpt>
      <trkpt lat="45.94878" lon="4.86031">
        <ele>271.100006104</ele>
        <time>2015-07-03T10:28:34.376Z</time>
      </trkpt>
      <trkpt lat="45.94876" lon="4.86024">
        <ele>271.5</ele>
        <time>2015-07-03T10:28:35.376Z</time>
      </trkpt>
      <trkpt lat="45.94874" lon="4.86017">
        <ele>271.899993896</ele>
        <time>2015-07-03T10:28:36.385Z</time>
      </trkpt>
      <trkpt lat="45.94872" lon="4.8601">
        <ele>272.5</ele>
        <time>2015-07-03T10:28:37.375Z</time>
      </trkpt>
      <trkpt lat="45.94871" lon="4.86003">
        <ele>273.299987793</ele>
        <time>2015-07-03T10:28:38.377Z</time>
      </trkpt>
      <trkpt lat="45.94869" lon="4.85997">
        <ele>274.200012207</ele>
        <time>2015-07-03T10:28:39.392Z</time>
      </trkpt>
      <trkpt lat="45.94867" lon="4.8599">
        <ele>274.899993896</ele>
        <time>2015-07-03T10:28:40.375Z</time>
      </trkpt>
      <trkpt lat="45.94865" lon="4.85984">
        <ele>275.200012207</ele>
        <time>2015-07-03T10:28:41.376Z</time>
      </trkpt>
      <trkpt lat="45.94863" lon="4.85978">
        <ele>275.399993896</ele>
        <time>2015-07-03T10:28:42.377Z</time>
      </trkpt>
      <trkpt lat="45.94861" lon="4.85972">
        <ele>275.799987793</ele>
        <time>2015-07-03T10:28:43.376Z</time>
      </trkpt>
      <trkpt lat="45.94859" lon="4.85966">
        <ele>275.799987793</ele>
        <time>2015-07-03T10:28:44.377Z</time>
      </trkpt>
      <trkpt lat="45.94858" lon="4.85959">
        <ele>276</ele>
        <time>2015-07-03T10:28:45.376Z</time>
      </trkpt>
      <trkpt lat="45.94856" lon="4.85952">
        <ele>276</ele>
        <time>2015-07-03T10:28:46.376Z</time>
      </trkpt>
      <trkpt lat="45.94854" lon="4.85946">
        <ele>275.899993896</ele>
        <time>2015-07-03T10:28:47.375Z</time>
      </trkpt>
      <trkpt lat="45.94853" lon="4.85939">
        <ele>275.899993896</ele>
        <time>2015-07-03T10:28:48.379Z</time>
      </trkpt>
      <trkpt lat="45.94852" lon="4.85933">
        <ele>275.899993896</ele>
        <time>2015-07-03T10:28:49.373Z</time>
      </trkpt>
      <trkpt lat="45.9485" lon="4.85926">
        <ele>276.200012207</ele>
        <time>2015-07-03T10:28:50.377Z</time>
      </trkpt>
      <trkpt lat="45.94848" lon="4.85919">
        <ele>276.5</ele>
        <time>2015-07-03T10:28:51.376Z</time>
      </trkpt>
      <trkpt lat="45.94846" lon="4.85913">
        <ele>277</ele>
        <time>2015-07-03T10:28:52.377Z</time>
      </trkpt>
      <trkpt lat="45.94845" lon="4.85906">
        <ele>278.100006104</ele>
        <time>2015-07-03T10:28:53.376Z</time>
      </trkpt>
      <trkpt lat="45.94844" lon="4.859">
        <ele>278.799987793</ele>
        <time>2015-07-03T10:28:54.379Z</time>
      </trkpt>
      <trkpt lat="45.94842" lon="4.85893">
        <ele>279.299987793</ele>
        <time>2015-07-03T10:28:55.376Z</time>
      </trkpt>
      <trkpt lat="45.94841" lon="4.85887">
        <ele>279.600006104</ele>
        <time>2015-07-03T10:28:56.377Z</time>
      </trkpt>
      <trkpt lat="45.94839" lon="4.8588">
        <ele>279.899993896</ele>
        <time>2015-07-03T10:28:57.376Z</time>
      </trkpt>
      <trkpt lat="45.94836" lon="4.85873">
        <ele>280.200012207</ele>
        <time>2015-07-03T10:28:58.39Z</time>
      </trkpt>
      <trkpt lat="45.94836" lon="4.85866">
        <ele>280.600006104</ele>
        <time>2015-07-03T10:28:59.399Z</time>
      </trkpt>
      <trkpt lat="45.94834" lon="4.8586">
        <ele>280.899993896</ele>
        <time>2015-07-03T10:29:00.402Z</time>
      </trkpt>
      <trkpt lat="45.94831" lon="4.85853">
        <ele>280.799987793</ele>
        <time>2015-07-03T10:29:01.376Z</time>
      </trkpt>
      <trkpt lat="45.94829" lon="4.85846">
        <ele>280.700012207</ele>
        <time>2015-07-03T10:29:02.376Z</time>
      </trkpt>
      <trkpt lat="45.94827" lon="4.8584">
        <ele>280.700012207</ele>
        <time>2015-07-03T10:29:03.376Z</time>
      </trkpt>
      <trkpt lat="45.94825" lon="4.85833">
        <ele>280.700012207</ele>
        <time>2015-07-03T10:29:04.376Z</time>
      </trkpt>
      <trkpt lat="45.94823" lon="4.85826">
        <ele>280.700012207</ele>
        <time>2015-07-03T10:29:05.376Z</time>
      </trkpt>
      <trkpt lat="45.94821" lon="4.85819">
        <ele>280.700012207</ele>
        <time>2015-07-03T10:29:06.379Z</time>
      </trkpt>
      <trkpt lat="45.9482" lon="4.85812">
        <ele>280.700012207</ele>
        <time>2015-07-03T10:29:07.376Z</time>
      </trkpt>
      <trkpt lat="45.94818" lon="4.85805">
        <ele>280.799987793</ele>
        <time>2015-07-03T10:29:08.375Z</time>
      </trkpt>
      <trkpt lat="45.94815" lon="4.85798">
        <ele>281.200012207</ele>
        <time>2015-07-03T10:29:09.376Z</time>
      </trkpt>
      <trkpt lat="45.94814" lon="4.8579">
        <ele>281</ele>
        <time>2015-07-03T10:29:10.376Z</time>
      </trkpt>
      <trkpt lat="45.94812" lon="4.85783">
        <ele>281.100006104</ele>
        <time>2015-07-03T10:29:11.376Z</time>
      </trkpt>
      <trkpt lat="45.9481" lon="4.85776">
        <ele>280.899993896</ele>
        <time>2015-07-03T10:29:12.381Z</time>
      </trkpt>
      <trkpt lat="45.94808" lon="4.85769">
        <ele>280.799987793</ele>
        <time>2015-07-03T10:29:13.378Z</time>
      </trkpt>
      <trkpt lat="45.94806" lon="4.85762">
        <ele>280.899993896</ele>
        <time>2015-07-03T10:29:14.376Z</time>
      </trkpt>
      <trkpt lat="45.94805" lon="4.85754">
        <ele>280.899993896</ele>
        <time>2015-07-03T10:29:15.376Z</time>
      </trkpt>
      <trkpt lat="45.94803" lon="4.85747">
        <ele>280.899993896</ele>
        <time>2015-07-03T10:29:16.376Z</time>
      </trkpt>
      <trkpt lat="45.94802" lon="4.85739">
        <ele>280.899993896</ele>
        <time>2015-07-03T10:29:17.375Z</time>
      </trkpt>
      <trkpt lat="45.948" lon="4.85732">
        <ele>281.200012207</ele>
        <time>2015-07-03T10:29:18.379Z</time>
      </trkpt>
      <trkpt lat="45.94798" lon="4.85725">
        <ele>281.100006104</ele>
        <time>2015-07-03T10:29:19.376Z</time>
      </trkpt>
      <trkpt lat="45.94796" lon="4.85718">
        <ele>281</ele>
        <time>2015-07-03T10:29:20.377Z</time>
      </trkpt>
      <trkpt lat="45.94794" lon="4.8571">
        <ele>280.899993896</ele>
        <time>2015-07-03T10:29:21.392Z</time>
      </trkpt>
      <trkpt lat="45.94792" lon="4.85703">
        <ele>281.299987793</ele>
        <time>2015-07-03T10:29:22.412Z</time>
      </trkpt>
      <trkpt lat="45.9479" lon="4.85696">
        <ele>281.100006104</ele>
        <time>2015-07-03T10:29:23.376Z</time>
      </trkpt>
      <trkpt lat="45.94788" lon="4.85689">
        <ele>281</ele>
        <time>2015-07-03T10:29:24.379Z</time>
      </trkpt>
      <trkpt lat="45.94786" lon="4.85682">
        <ele>280.799987793</ele>
        <time>2015-07-03T10:29:25.376Z</time>
      </trkpt>
      <trkpt lat="45.94785" lon="4.85675">
        <ele>280.600006104</ele>
        <time>2015-07-03T10:29:26.377Z</time>
      </trkpt>
      <trkpt lat="45.94783" lon="4.85668">
        <ele>280.299987793</ele>
        <time>2015-07-03T10:29:27.378Z</time>
      </trkpt>
      <trkpt lat="45.94781" lon="4.85661">
        <ele>279.899993896</ele>
        <time>2015-07-03T10:29:28.375Z</time>
      </trkpt>
      <trkpt lat="45.94779" lon="4.85653">
        <ele>279.899993896</ele>
        <time>2015-07-03T10:29:29.377Z</time>
      </trkpt>
      <trkpt lat="45.94776" lon="4.85645">
        <ele>279.799987793</ele>
        <time>2015-07-03T10:29:30.376Z</time>
      </trkpt>
      <trkpt lat="45.94775" lon="4.85638">
        <ele>279.600006104</ele>
        <time>2015-07-03T10:29:31.376Z</time>
      </trkpt>
      <trkpt lat="45.94773" lon="4.85631">
        <ele>279.5</ele>
        <time>2015-07-03T10:29:32.376Z</time>
      </trkpt>
      <trkpt lat="45.94771" lon="4.85625">
        <ele>279.600006104</ele>
        <time>2015-07-03T10:29:33.377Z</time>
      </trkpt>
      <trkpt lat="45.94769" lon="4.85617">
        <ele>279.5</ele>
        <time>2015-07-03T10:29:34.377Z</time>
      </trkpt>
      <trkpt lat="45.94767" lon="4.85609">
        <ele>279.299987793</ele>
        <time>2015-07-03T10:29:35.376Z</time>
      </trkpt>
      <trkpt lat="45.94765" lon="4.85601">
        <ele>278.899993896</ele>
        <time>2015-07-03T10:29:36.379Z</time>
      </trkpt>
      <trkpt lat="45.94763" lon="4.85592">
        <ele>278.700012207</ele>
        <time>2015-07-03T10:29:37.377Z</time>
      </trkpt>
      <trkpt lat="45.94761" lon="4.85583">
        <ele>279.100006104</ele>
        <time>2015-07-03T10:29:38.38Z</time>
      </trkpt>
      <trkpt lat="45.9476" lon="4.85574">
        <ele>280.100006104</ele>
        <time>2015-07-03T10:29:39.374Z</time>
      </trkpt>
      <trkpt lat="45.94757" lon="4.85565">
        <ele>280.700012207</ele>
        <time>2015-07-03T10:29:40.376Z</time>
      </trkpt>
      <trkpt lat="45.94756" lon="4.85555">
        <ele>281.700012207</ele>
        <time>2015-07-03T10:29:41.377Z</time>
      </trkpt>
      <trkpt lat="45.94755" lon="4.85545">
        <ele>282</ele>
        <time>2015-07-03T10:29:42.395Z</time>
      </trkpt>
      <trkpt lat="45.94753" lon="4.85534">
        <ele>282</ele>
        <time>2015-07-03T10:29:43.383Z</time>
      </trkpt>
      <trkpt lat="45.94752" lon="4.85523">
        <ele>281.600006104</ele>
        <time>2015-07-03T10:29:44.403Z</time>
      </trkpt>
      <trkpt lat="45.9475" lon="4.85511">
        <ele>281.5</ele>
        <time>2015-07-03T10:29:45.376Z</time>
      </trkpt>
      <trkpt lat="45.94748" lon="4.85499">
        <ele>281.5</ele>
        <time>2015-07-03T10:29:46.374Z</time>
      </trkpt>
      <trkpt lat="45.94747" lon="4.85487">
        <ele>281.5</ele>
        <time>2015-07-03T10:29:47.373Z</time>
      </trkpt>
      <trkpt lat="45.94746" lon="4.85475">
        <ele>281.399993896</ele>
        <time>2015-07-03T10:29:48.379Z</time>
      </trkpt>
      <trkpt lat="45.94745" lon="4.85463">
        <ele>281.399993896</ele>
        <time>2015-07-03T10:29:49.376Z</time>
      </trkpt>
      <trkpt lat="45.94743" lon="4.85451">
        <ele>281.299987793</ele>
        <time>2015-07-03T10:29:50.376Z</time>
      </trkpt>
      <trkpt lat="45.94742" lon="4.85438">
        <ele>280.799987793</ele>
        <time>2015-07-03T10:29:51.376Z</time>
      </trkpt>
      <trkpt lat="45.9474" lon="4.85425">
        <ele>280.299987793</ele>
        <time>2015-07-03T10:29:52.376Z</time>
      </trkpt>
      <trkpt lat="45.94739" lon="4.85413">
        <ele>279.700012207</ele>
        <time>2015-07-03T10:29:53.399Z</time>
      </trkpt>
      <trkpt lat="45.94738" lon="4.854">
        <ele>279.399993896</ele>
        <time>2015-07-03T10:29:54.379Z</time>
      </trkpt>
      <trkpt lat="45.94736" lon="4.85387">
        <ele>279.200012207</ele>
        <time>2015-07-03T10:29:55.375Z</time>
      </trkpt>
      <trkpt lat="45.94735" lon="4.85375">
        <ele>278.700012207</ele>
        <time>2015-07-03T10:29:56.377Z</time>
      </trkpt>
      <trkpt lat="45.94734" lon="4.85362">
        <ele>278.600006104</ele>
        <time>2015-07-03T10:29:57.376Z</time>
      </trkpt>
      <trkpt lat="45.94733" lon="4.8535">
        <ele>278.5</ele>
        <time>2015-07-03T10:29:58.375Z</time>
      </trkpt>
      <trkpt lat="45.94731" lon="4.85338">
        <ele>278.299987793</ele>
        <time>2015-07-03T10:29:59.376Z</time>
      </trkpt>
      <trkpt lat="45.9473" lon="4.85326">
        <ele>278.200012207</ele>
        <time>2015-07-03T10:30:00.379Z</time>
      </trkpt>
      <trkpt lat="45.94729" lon="4.85315">
        <ele>278</ele>
        <time>2015-07-03T10:30:01.376Z</time>
      </trkpt>
      <trkpt lat="45.94727" lon="4.85303">
        <ele>277.700012207</ele>
        <time>2015-07-03T10:30:02.376Z</time>
      </trkpt>
      <trkpt lat="45.94726" lon="4.85292">
        <ele>277.399993896</ele>
        <time>2015-07-03T10:30:03.376Z</time>
      </trkpt>
      <trkpt lat="45.94725" lon="4.85281">
        <ele>276.799987793</ele>
        <time>2015-07-03T10:30:04.376Z</time>
      </trkpt>
      <trkpt lat="45.94724" lon="4.8527">
        <ele>276.5</ele>
        <time>2015-07-03T10:30:05.375Z</time>
      </trkpt>
      <trkpt lat="45.94723" lon="4.85259">
        <ele>275.899993896</ele>
        <time>2015-07-03T10:30:06.436Z</time>
      </trkpt>
      <trkpt lat="45.94721" lon="4.85248">
        <ele>275.399993896</ele>
        <time>2015-07-03T10:30:07.375Z</time>
      </trkpt>
      <trkpt lat="45.9472" lon="4.85237">
        <ele>275.100006104</ele>
        <time>2015-07-03T10:30:08.393Z</time>
      </trkpt>
      <trkpt lat="45.94719" lon="4.85227">
        <ele>274.600006104</ele>
        <time>2015-07-03T10:30:09.374Z</time>
      </trkpt>
      <trkpt lat="45.94718" lon="4.85217">
        <ele>274.299987793</ele>
        <time>2015-07-03T10:30:10.376Z</time>
      </trkpt>
      <trkpt lat="45.94717" lon="4.85207">
        <ele>274</ele>
        <time>2015-07-03T10:30:11.374Z</time>
      </trkpt>
      <trkpt lat="45.94715" lon="4.85197">
        <ele>274</ele>
        <time>2015-07-03T10:30:12.379Z</time>
      </trkpt>
      <trkpt lat="45.94714" lon="4.85187">
        <ele>274</ele>
        <time>2015-07-03T10:30:13.376Z</time>
      </trkpt>
      <trkpt lat="45.94714" lon="4.85176">
        <ele>273.799987793</ele>
        <time>2015-07-03T10:30:14.38Z</time>
      </trkpt>
      <trkpt lat="45.94713" lon="4.85166">
        <ele>273.5</ele>
        <time>2015-07-03T10:30:15.38Z</time>
      </trkpt>
      <trkpt lat="45.94713" lon="4.85156">
        <ele>273.799987793</ele>
        <time>2015-07-03T10:30:16.376Z</time>
      </trkpt>
      <trkpt lat="45.94711" lon="4.85146">
        <ele>273.799987793</ele>
        <time>2015-07-03T10:30:17.376Z</time>
      </trkpt>
      <trkpt lat="45.9471" lon="4.85135">
        <ele>273.600006104</ele>
        <time>2015-07-03T10:30:18.379Z</time>
      </trkpt>
      <trkpt lat="45.94709" lon="4.85125">
        <ele>273.600006104</ele>
        <time>2015-07-03T10:30:19.375Z</time>
      </trkpt>
      <trkpt lat="45.94707" lon="4.85114">
        <ele>273.299987793</ele>
        <time>2015-07-03T10:30:20.377Z</time>
      </trkpt>
      <trkpt lat="45.94706" lon="4.85104">
        <ele>273</ele>
        <time>2015-07-03T10:30:21.376Z</time>
      </trkpt>
      <trkpt lat="45.94704" lon="4.85093">
        <ele>272.600006104</ele>
        <time>2015-07-03T10:30:22.376Z</time>
      </trkpt>
      <trkpt lat="45.94703" lon="4.85082">
        <ele>272.5</ele>
        <time>2015-07-03T10:30:23.375Z</time>
      </trkpt>
      <trkpt lat="45.94702" lon="4.85071">
        <ele>272.100006104</ele>
        <time>2015-07-03T10:30:24.379Z</time>
      </trkpt>
      <trkpt lat="45.947" lon="4.8506">
        <ele>271.799987793</ele>
        <time>2015-07-03T10:30:25.376Z</time>
      </trkpt>
      <trkpt lat="45.94699" lon="4.85049">
        <ele>271.299987793</ele>
        <time>2015-07-03T10:30:26.377Z</time>
      </trkpt>
      <trkpt lat="45.94698" lon="4.85038">
        <ele>270.899993896</ele>
        <time>2015-07-03T10:30:27.38Z</time>
      </trkpt>
      <trkpt lat="45.94697" lon="4.85027">
        <ele>270.600006104</ele>
        <time>2015-07-03T10:30:28.376Z</time>
      </trkpt>
      <trkpt lat="45.94696" lon="4.85016">
        <ele>270</ele>
        <time>2015-07-03T10:30:29.392Z</time>
      </trkpt>
      <trkpt lat="45.94695" lon="4.85005">
        <ele>269.700012207</ele>
        <time>2015-07-03T10:30:30.379Z</time>
      </trkpt>
      <trkpt lat="45.94694" lon="4.84994">
        <ele>268.799987793</ele>
        <time>2015-07-03T10:30:31.376Z</time>
      </trkpt>
      <trkpt lat="45.94692" lon="4.84982">
        <ele>268.299987793</ele>
        <time>2015-07-03T10:30:32.376Z</time>
      </trkpt>
      <trkpt lat="45.9469" lon="4.84972">
        <ele>267.899993896</ele>
        <time>2015-07-03T10:30:33.374Z</time>
      </trkpt>
      <trkpt lat="45.94689" lon="4.84961">
        <ele>267.399993896</ele>
        <time>2015-07-03T10:30:34.376Z</time>
      </trkpt>
      <trkpt lat="45.94688" lon="4.84951">
        <ele>267.100006104</ele>
        <time>2015-07-03T10:30:35.376Z</time>
      </trkpt>
      <trkpt lat="45.94687" lon="4.84941">
        <ele>266.600006104</ele>
        <time>2015-07-03T10:30:36.378Z</time>
      </trkpt>
      <trkpt lat="45.94686" lon="4.84931">
        <ele>266.5</ele>
        <time>2015-07-03T10:30:37.379Z</time>
      </trkpt>
      <trkpt lat="45.94685" lon="4.84921">
        <ele>266.399993896</ele>
        <time>2015-07-03T10:30:38.375Z</time>
      </trkpt>
      <trkpt lat="45.94684" lon="4.8491">
        <ele>266.200012207</ele>
        <time>2015-07-03T10:30:39.374Z</time>
      </trkpt>
      <trkpt lat="45.94683" lon="4.84901">
        <ele>266</ele>
        <time>2015-07-03T10:30:40.375Z</time>
      </trkpt>
      <trkpt lat="45.94683" lon="4.84891">
        <ele>265.799987793</ele>
        <time>2015-07-03T10:30:41.375Z</time>
      </trkpt>
      <trkpt lat="45.94682" lon="4.84881">
        <ele>265.600006104</ele>
        <time>2015-07-03T10:30:42.378Z</time>
      </trkpt>
      <trkpt lat="45.94681" lon="4.84871">
        <ele>265.600006104</ele>
        <time>2015-07-03T10:30:43.406Z</time>
      </trkpt>
      <trkpt lat="45.9468" lon="4.84862">
        <ele>265.299987793</ele>
        <time>2015-07-03T10:30:44.377Z</time>
      </trkpt>
      <trkpt lat="45.94679" lon="4.84853">
        <ele>265.299987793</ele>
        <time>2015-07-03T10:30:45.387Z</time>
      </trkpt>
      <trkpt lat="45.94679" lon="4.84844">
        <ele>265.5</ele>
        <time>2015-07-03T10:30:46.376Z</time>
      </trkpt>
      <trkpt lat="45.94679" lon="4.84833">
        <ele>265.299987793</ele>
        <time>2015-07-03T10:30:47.382Z</time>
      </trkpt>
      <trkpt lat="45.94679" lon="4.84823">
        <ele>264.700012207</ele>
        <time>2015-07-03T10:30:48.379Z</time>
      </trkpt>
      <trkpt lat="45.94678" lon="4.84814">
        <ele>264.600006104</ele>
        <time>2015-07-03T10:30:49.375Z</time>
      </trkpt>
      <trkpt lat="45.94677" lon="4.84804">
        <ele>264.399993896</ele>
        <time>2015-07-03T10:30:50.376Z</time>
      </trkpt>
      <trkpt lat="45.94677" lon="4.84795">
        <ele>264.5</ele>
        <time>2015-07-03T10:30:51.376Z</time>
      </trkpt>
      <trkpt lat="45.94676" lon="4.84785">
        <ele>264.600006104</ele>
        <time>2015-07-03T10:30:52.377Z</time>
      </trkpt>
      <trkpt lat="45.94676" lon="4.84775">
        <ele>264.5</ele>
        <time>2015-07-03T10:30:53.376Z</time>
      </trkpt>
      <trkpt lat="45.94675" lon="4.84766">
        <ele>264.5</ele>
        <time>2015-07-03T10:30:54.377Z</time>
      </trkpt>
      <trkpt lat="45.94674" lon="4.84756">
        <ele>264.399993896</ele>
        <time>2015-07-03T10:30:55.375Z</time>
      </trkpt>
      <trkpt lat="45.94674" lon="4.84746">
        <ele>264.299987793</ele>
        <time>2015-07-03T10:30:56.391Z</time>
      </trkpt>
      <trkpt lat="45.94673" lon="4.84737">
        <ele>264.299987793</ele>
        <time>2015-07-03T10:30:57.375Z</time>
      </trkpt>
      <trkpt lat="45.94672" lon="4.84727">
        <ele>264.299987793</ele>
        <time>2015-07-03T10:30:58.376Z</time>
      </trkpt>
      <trkpt lat="45.94672" lon="4.84717">
        <ele>264.100006104</ele>
        <time>2015-07-03T10:30:59.374Z</time>
      </trkpt>
      <trkpt lat="45.94672" lon="4.84706">
        <ele>263.600006104</ele>
        <time>2015-07-03T10:31:00.398Z</time>
      </trkpt>
      <trkpt lat="45.94673" lon="4.84697">
        <ele>263.899993896</ele>
        <time>2015-07-03T10:31:01.374Z</time>
      </trkpt>
      <trkpt lat="45.94673" lon="4.84686">
        <ele>263.700012207</ele>
        <time>2015-07-03T10:31:02.38Z</time>
      </trkpt>
      <trkpt lat="45.94672" lon="4.84676">
        <ele>263.799987793</ele>
        <time>2015-07-03T10:31:03.377Z</time>
      </trkpt>
      <trkpt lat="45.94672" lon="4.84665">
        <ele>264</ele>
        <time>2015-07-03T10:31:04.371Z</time>
      </trkpt>
      <trkpt lat="45.94671" lon="4.84655">
        <ele>263.899993896</ele>
        <time>2015-07-03T10:31:05.376Z</time>
      </trkpt>
      <trkpt lat="45.94671" lon="4.84644">
        <ele>263.899993896</ele>
        <time>2015-07-03T10:31:06.378Z</time>
      </trkpt>
      <trkpt lat="45.94669" lon="4.84633">
        <ele>263.799987793</ele>
        <time>2015-07-03T10:31:07.412Z</time>
      </trkpt>
      <trkpt lat="45.94669" lon="4.84623">
        <ele>263.799987793</ele>
        <time>2015-07-03T10:31:08.376Z</time>
      </trkpt>
      <trkpt lat="45.94668" lon="4.84613">
        <ele>263.799987793</ele>
        <time>2015-07-03T10:31:09.376Z</time>
      </trkpt>
      <trkpt lat="45.94667" lon="4.84603">
        <ele>263.700012207</ele>
        <time>2015-07-03T10:31:10.376Z</time>
      </trkpt>
      <trkpt lat="45.94667" lon="4.84593">
        <ele>263.899993896</ele>
        <time>2015-07-03T10:31:11.376Z</time>
      </trkpt>
      <trkpt lat="45.94666" lon="4.84583">
        <ele>264</ele>
        <time>2015-07-03T10:31:12.378Z</time>
      </trkpt>
      <trkpt lat="45.94666" lon="4.84575">
        <ele>263.799987793</ele>
        <time>2015-07-03T10:31:13.376Z</time>
      </trkpt>
      <trkpt lat="45.94665" lon="4.84566">
        <ele>263.899993896</ele>
        <time>2015-07-03T10:31:14.376Z</time>
      </trkpt>
      <trkpt lat="45.94664" lon="4.84558">
        <ele>264.100006104</ele>
        <time>2015-07-03T10:31:15.384Z</time>
      </trkpt>
      <trkpt lat="45.94664" lon="4.8455">
        <ele>264.100006104</ele>
        <time>2015-07-03T10:31:16.374Z</time>
      </trkpt>
      <trkpt lat="45.94663" lon="4.84541">
        <ele>264.299987793</ele>
        <time>2015-07-03T10:31:17.39Z</time>
      </trkpt>
      <trkpt lat="45.94662" lon="4.84532">
        <ele>264.299987793</ele>
        <time>2015-07-03T10:31:18.381Z</time>
      </trkpt>
      <trkpt lat="45.9466" lon="4.84523">
        <ele>264.600006104</ele>
        <time>2015-07-03T10:31:19.486Z</time>
      </trkpt>
      <trkpt lat="45.94659" lon="4.84514">
        <ele>264.600006104</ele>
        <time>2015-07-03T10:31:20.375Z</time>
      </trkpt>
      <trkpt lat="45.94659" lon="4.84505">
        <ele>264.899993896</ele>
        <time>2015-07-03T10:31:21.377Z</time>
      </trkpt>
      <trkpt lat="45.94658" lon="4.84495">
        <ele>265.200012207</ele>
        <time>2015-07-03T10:31:22.376Z</time>
      </trkpt>
      <trkpt lat="45.94657" lon="4.84486">
        <ele>265.5</ele>
        <time>2015-07-03T10:31:23.377Z</time>
      </trkpt>
      <trkpt lat="45.94656" lon="4.84475">
        <ele>265.5</ele>
        <time>2015-07-03T10:31:24.377Z</time>
      </trkpt>
      <trkpt lat="45.94655" lon="4.84466">
        <ele>265.5</ele>
        <time>2015-07-03T10:31:25.376Z</time>
      </trkpt>
      <trkpt lat="45.94654" lon="4.84455">
        <ele>265.700012207</ele>
        <time>2015-07-03T10:31:26.376Z</time>
      </trkpt>
      <trkpt lat="45.94653" lon="4.84445">
        <ele>265.899993896</ele>
        <time>2015-07-03T10:31:27.377Z</time>
      </trkpt>
      <trkpt lat="45.94652" lon="4.84435">
        <ele>265.899993896</ele>
        <time>2015-07-03T10:31:28.375Z</time>
      </trkpt>
      <trkpt lat="45.94651" lon="4.84425">
        <ele>265.899993896</ele>
        <time>2015-07-03T10:31:29.379Z</time>
      </trkpt>
      <trkpt lat="45.94651" lon="4.84414">
        <ele>266.100006104</ele>
        <time>2015-07-03T10:31:30.378Z</time>
      </trkpt>
      <trkpt lat="45.9465" lon="4.84403">
        <ele>266.100006104</ele>
        <time>2015-07-03T10:31:31.377Z</time>
      </trkpt>
      <trkpt lat="45.94649" lon="4.84393">
        <ele>266.200012207</ele>
        <time>2015-07-03T10:31:32.376Z</time>
      </trkpt>
      <trkpt lat="45.94647" lon="4.84383">
        <ele>266</ele>
        <time>2015-07-03T10:31:33.379Z</time>
      </trkpt>
      <trkpt lat="45.94646" lon="4.84374">
        <ele>266.200012207</ele>
        <time>2015-07-03T10:31:34.376Z</time>
      </trkpt>
      <trkpt lat="45.94645" lon="4.84364">
        <ele>266.200012207</ele>
        <time>2015-07-03T10:31:35.376Z</time>
      </trkpt>
      <trkpt lat="45.94645" lon="4.84355">
        <ele>266.299987793</ele>
        <time>2015-07-03T10:31:36.38Z</time>
      </trkpt>
      <trkpt lat="45.94643" lon="4.84346">
        <ele>266.200012207</ele>
        <time>2015-07-03T10:31:37.375Z</time>
      </trkpt>
      <trkpt lat="45.94642" lon="4.84337">
        <ele>266.399993896</ele>
        <time>2015-07-03T10:31:38.392Z</time>
      </trkpt>
      <trkpt lat="45.9464" lon="4.84329">
        <ele>266.600006104</ele>
        <time>2015-07-03T10:31:39.375Z</time>
      </trkpt>
      <trkpt lat="45.94639" lon="4.8432">
        <ele>266.799987793</ele>
        <time>2015-07-03T10:31:40.375Z</time>
      </trkpt>
      <trkpt lat="45.94637" lon="4.84311">
        <ele>266.799987793</ele>
        <time>2015-07-03T10:31:41.377Z</time>
      </trkpt>
      <trkpt lat="45.94636" lon="4.84301">
        <ele>266.799987793</ele>
        <time>2015-07-03T10:31:42.378Z</time>
      </trkpt>
      <trkpt lat="45.94635" lon="4.84292">
        <ele>266.700012207</ele>
        <time>2015-07-03T10:31:43.436Z</time>
      </trkpt>
      <trkpt lat="45.94633" lon="4.84282">
        <ele>266.700012207</ele>
        <time>2015-07-03T10:31:44.376Z</time>
      </trkpt>
      <trkpt lat="45.94632" lon="4.84273">
        <ele>266.799987793</ele>
        <time>2015-07-03T10:31:45.376Z</time>
      </trkpt>
      <trkpt lat="45.9463" lon="4.84263">
        <ele>266.799987793</ele>
        <time>2015-07-03T10:31:46.375Z</time>
      </trkpt>
      <trkpt lat="45.94629" lon="4.84254">
        <ele>267.100006104</ele>
        <time>2015-07-03T10:31:47.376Z</time>
      </trkpt>
      <trkpt lat="45.94627" lon="4.84244">
        <ele>267.5</ele>
        <time>2015-07-03T10:31:48.381Z</time>
      </trkpt>
      <trkpt lat="45.94626" lon="4.84233">
        <ele>267.700012207</ele>
        <time>2015-07-03T10:31:49.377Z</time>
      </trkpt>
      <trkpt lat="45.94624" lon="4.84223">
        <ele>267.899993896</ele>
        <time>2015-07-03T10:31:50.378Z</time>
      </trkpt>
      <trkpt lat="45.94622" lon="4.84212">
        <ele>267.700012207</ele>
        <time>2015-07-03T10:31:51.375Z</time>
      </trkpt>
      <trkpt lat="45.9462" lon="4.84202">
        <ele>267.5</ele>
        <time>2015-07-03T10:31:52.375Z</time>
      </trkpt>
      <trkpt lat="45.94619" lon="4.84192">
        <ele>267.399993896</ele>
        <time>2015-07-03T10:31:53.409Z</time>
      </trkpt>
      <trkpt lat="45.94618" lon="4.84183">
        <ele>267.200012207</ele>
        <time>2015-07-03T10:31:54.393Z</time>
      </trkpt>
      <trkpt lat="45.94616" lon="4.84173">
        <ele>267.299987793</ele>
        <time>2015-07-03T10:31:55.375Z</time>
      </trkpt>
      <trkpt lat="45.94615" lon="4.84164">
        <ele>267.5</ele>
        <time>2015-07-03T10:31:56.377Z</time>
      </trkpt>
      <trkpt lat="45.94614" lon="4.84155">
        <ele>267.700012207</ele>
        <time>2015-07-03T10:31:57.376Z</time>
      </trkpt>
      <trkpt lat="45.94613" lon="4.84145">
        <ele>267.799987793</ele>
        <time>2015-07-03T10:31:58.378Z</time>
      </trkpt>
      <trkpt lat="45.94612" lon="4.84136">
        <ele>268.100006104</ele>
        <time>2015-07-03T10:31:59.379Z</time>
      </trkpt>
      <trkpt lat="45.94611" lon="4.84127">
        <ele>268.600006104</ele>
        <time>2015-07-03T10:32:00.379Z</time>
      </trkpt>
      <trkpt lat="45.9461" lon="4.84118">
        <ele>268.5</ele>
        <time>2015-07-03T10:32:01.377Z</time>
      </trkpt>
      <trkpt lat="45.94609" lon="4.84109">
        <ele>269.399993896</ele>
        <time>2015-07-03T10:32:02.376Z</time>
      </trkpt>
      <trkpt lat="45.94607" lon="4.84101">
        <ele>269.899993896</ele>
        <time>2015-07-03T10:32:03.375Z</time>
      </trkpt>
      <trkpt lat="45.94605" lon="4.84092">
        <ele>270.700012207</ele>
        <time>2015-07-03T10:32:04.375Z</time>
      </trkpt>
      <trkpt lat="45.94603" lon="4.84083">
        <ele>271.100006104</ele>
        <time>2015-07-03T10:32:05.376Z</time>
      </trkpt>
      <trkpt lat="45.94601" lon="4.84073">
        <ele>271.399993896</ele>
        <time>2015-07-03T10:32:06.378Z</time>
      </trkpt>
      <trkpt lat="45.946" lon="4.84064">
        <ele>271.600006104</ele>
        <time>2015-07-03T10:32:07.406Z</time>
      </trkpt>
      <trkpt lat="45.94598" lon="4.84055">
        <ele>271.899993896</ele>
        <time>2015-07-03T10:32:08.377Z</time>
      </trkpt>
      <trkpt lat="45.94595" lon="4.84046">
        <ele>272.200012207</ele>
        <time>2015-07-03T10:32:09.473Z</time>
      </trkpt>
      <trkpt lat="45.94594" lon="4.84037">
        <ele>272.5</ele>
        <time>2015-07-03T10:32:10.392Z</time>
      </trkpt>
      <trkpt lat="45.94592" lon="4.84028">
        <ele>272.600006104</ele>
        <time>2015-07-03T10:32:11.377Z</time>
      </trkpt>
      <trkpt lat="45.94591" lon="4.8402">
        <ele>272.700012207</ele>
        <time>2015-07-03T10:32:12.42Z</time>
      </trkpt>
      <trkpt lat="45.94589" lon="4.84011">
        <ele>272.799987793</ele>
        <time>2015-07-03T10:32:13.376Z</time>
      </trkpt>
      <trkpt lat="45.94588" lon="4.84002">
        <ele>272.799987793</ele>
        <time>2015-07-03T10:32:14.376Z</time>
      </trkpt>
      <trkpt lat="45.94587" lon="4.83994">
        <ele>272.799987793</ele>
        <time>2015-07-03T10:32:15.373Z</time>
      </trkpt>
      <trkpt lat="45.94585" lon="4.83984">
        <ele>272.899993896</ele>
        <time>2015-07-03T10:32:16.377Z</time>
      </trkpt>
      <trkpt lat="45.94584" lon="4.83975">
        <ele>273.399993896</ele>
        <time>2015-07-03T10:32:17.377Z</time>
      </trkpt>
      <trkpt lat="45.94582" lon="4.83966">
        <ele>273.700012207</ele>
        <time>2015-07-03T10:32:18.381Z</time>
      </trkpt>
      <trkpt lat="45.9458" lon="4.83958">
        <ele>273.799987793</ele>
        <time>2015-07-03T10:32:19.376Z</time>
      </trkpt>
      <trkpt lat="45.94579" lon="4.8395">
        <ele>273.799987793</ele>
        <time>2015-07-03T10:32:20.374Z</time>
      </trkpt>
      <trkpt lat="45.94579" lon="4.83941">
        <ele>273.899993896</ele>
        <time>2015-07-03T10:32:21.377Z</time>
      </trkpt>
      <trkpt lat="45.94578" lon="4.83932">
        <ele>273.799987793</ele>
        <time>2015-07-03T10:32:22.378Z</time>
      </trkpt>
      <trkpt lat="45.94577" lon="4.83922">
        <ele>273.799987793</ele>
        <time>2015-07-03T10:32:23.376Z</time>
      </trkpt>
      <trkpt lat="45.94575" lon="4.83912">
        <ele>273.799987793</ele>
        <time>2015-07-03T10:32:24.377Z</time>
      </trkpt>
      <trkpt lat="45.94574" lon="4.83902">
        <ele>273.700012207</ele>
        <time>2015-07-03T10:32:25.375Z</time>
      </trkpt>
      <trkpt lat="45.94572" lon="4.83891">
        <ele>273.600006104</ele>
        <time>2015-07-03T10:32:26.39Z</time>
      </trkpt>
      <trkpt lat="45.9457" lon="4.83881">
        <ele>273.600006104</ele>
        <time>2015-07-03T10:32:27.378Z</time>
      </trkpt>
      <trkpt lat="45.94569" lon="4.8387">
        <ele>273.299987793</ele>
        <time>2015-07-03T10:32:28.375Z</time>
      </trkpt>
      <trkpt lat="45.94567" lon="4.83859">
        <ele>272.899993896</ele>
        <time>2015-07-03T10:32:29.377Z</time>
      </trkpt>
      <trkpt lat="45.94565" lon="4.83848">
        <ele>272.5</ele>
        <time>2015-07-03T10:32:30.38Z</time>
      </trkpt>
      <trkpt lat="45.94563" lon="4.83837">
        <ele>272.399993896</ele>
        <time>2015-07-03T10:32:31.376Z</time>
      </trkpt>
      <trkpt lat="45.94562" lon="4.83826">
        <ele>272</ele>
        <time>2015-07-03T10:32:32.378Z</time>
      </trkpt>
      <trkpt lat="45.9456" lon="4.83815">
        <ele>272</ele>
        <time>2015-07-03T10:32:33.375Z</time>
      </trkpt>
      <trkpt lat="45.94557" lon="4.83804">
        <ele>272.100006104</ele>
        <time>2015-07-03T10:32:34.399Z</time>
      </trkpt>
      <trkpt lat="45.94555" lon="4.83793">
        <ele>272.100006104</ele>
        <time>2015-07-03T10:32:35.376Z</time>
      </trkpt>
      <trkpt lat="45.94553" lon="4.83781">
        <ele>271.899993896</ele>
        <time>2015-07-03T10:32:36.38Z</time>
      </trkpt>
      <trkpt lat="45.94551" lon="4.8377">
        <ele>271.700012207</ele>
        <time>2015-07-03T10:32:37.375Z</time>
      </trkpt>
      <trkpt lat="45.9455" lon="4.8376">
        <ele>271.600006104</ele>
        <time>2015-07-03T10:32:38.376Z</time>
      </trkpt>
      <trkpt lat="45.94548" lon="4.83749">
        <ele>271.600006104</ele>
        <time>2015-07-03T10:32:39.375Z</time>
      </trkpt>
      <trkpt lat="45.94546" lon="4.83738">
        <ele>271.799987793</ele>
        <time>2015-07-03T10:32:40.375Z</time>
      </trkpt>
      <trkpt lat="45.94545" lon="4.83727">
        <ele>271.700012207</ele>
        <time>2015-07-03T10:32:41.372Z</time>
      </trkpt>
      <trkpt lat="45.94544" lon="4.83716">
        <ele>271.100006104</ele>
        <time>2015-07-03T10:32:42.394Z</time>
      </trkpt>
      <trkpt lat="45.94543" lon="4.83706">
        <ele>270.700012207</ele>
        <time>2015-07-03T10:32:43.376Z</time>
      </trkpt>
      <trkpt lat="45.94541" lon="4.83696">
        <ele>270.200012207</ele>
        <time>2015-07-03T10:32:44.376Z</time>
      </trkpt>
      <trkpt lat="45.94539" lon="4.83686">
        <ele>269.600006104</ele>
        <time>2015-07-03T10:32:45.375Z</time>
      </trkpt>
      <trkpt lat="45.94538" lon="4.83676">
        <ele>269.299987793</ele>
        <time>2015-07-03T10:32:46.377Z</time>
      </trkpt>
      <trkpt lat="45.94537" lon="4.83666">
        <ele>268.600006104</ele>
        <time>2015-07-03T10:32:47.377Z</time>
      </trkpt>
      <trkpt lat="45.94534" lon="4.83656">
        <ele>267.799987793</ele>
        <time>2015-07-03T10:32:48.377Z</time>
      </trkpt>
      <trkpt lat="45.94532" lon="4.83646">
        <ele>267.200012207</ele>
        <time>2015-07-03T10:32:49.375Z</time>
      </trkpt>
      <trkpt lat="45.9453" lon="4.83636">
        <ele>266.5</ele>
        <time>2015-07-03T10:32:50.376Z</time>
      </trkpt>
      <trkpt lat="45.94528" lon="4.83627">
        <ele>265.899993896</ele>
        <time>2015-07-03T10:32:51.379Z</time>
      </trkpt>
      <trkpt lat="45.94526" lon="4.83617">
        <ele>265.299987793</ele>
        <time>2015-07-03T10:32:52.375Z</time>
      </trkpt>
      <trkpt lat="45.94525" lon="4.83607">
        <ele>265.100006104</ele>
        <time>2015-07-03T10:32:53.392Z</time>
      </trkpt>
      <trkpt lat="45.94522" lon="4.83598">
        <ele>264.200012207</ele>
        <time>2015-07-03T10:32:54.377Z</time>
      </trkpt>
      <trkpt lat="45.9452" lon="4.83588">
        <ele>263.799987793</ele>
        <time>2015-07-03T10:32:55.376Z</time>
      </trkpt>
      <trkpt lat="45.94517" lon="4.83579">
        <ele>263.600006104</ele>
        <time>2015-07-03T10:32:56.375Z</time>
      </trkpt>
      <trkpt lat="45.94515" lon="4.8357">
        <ele>263.600006104</ele>
        <time>2015-07-03T10:32:57.375Z</time>
      </trkpt>
      <trkpt lat="45.94512" lon="4.83561">
        <ele>263.5</ele>
        <time>2015-07-03T10:32:58.376Z</time>
      </trkpt>
      <trkpt lat="45.94509" lon="4.83553">
        <ele>263.200012207</ele>
        <time>2015-07-03T10:32:59.375Z</time>
      </trkpt>
      <trkpt lat="45.94505" lon="4.83545">
        <ele>263.200012207</ele>
        <time>2015-07-03T10:33:00.377Z</time>
      </trkpt>
      <trkpt lat="45.94502" lon="4.83537">
        <ele>263.100006104</ele>
        <time>2015-07-03T10:33:01.395Z</time>
      </trkpt>
      <trkpt lat="45.94498" lon="4.8353">
        <ele>262.899993896</ele>
        <time>2015-07-03T10:33:02.376Z</time>
      </trkpt>
      <trkpt lat="45.94494" lon="4.83522">
        <ele>262.899993896</ele>
        <time>2015-07-03T10:33:03.375Z</time>
      </trkpt>
      <trkpt lat="45.94489" lon="4.83515">
        <ele>262.5</ele>
        <time>2015-07-03T10:33:04.375Z</time>
      </trkpt>
      <trkpt lat="45.94485" lon="4.83508">
        <ele>262.200012207</ele>
        <time>2015-07-03T10:33:05.376Z</time>
      </trkpt>
      <trkpt lat="45.9448" lon="4.83501">
        <ele>262.100006104</ele>
        <time>2015-07-03T10:33:06.377Z</time>
      </trkpt>
      <trkpt lat="45.94476" lon="4.83493">
        <ele>262</ele>
        <time>2015-07-03T10:33:07.374Z</time>
      </trkpt>
      <trkpt lat="45.94472" lon="4.83486">
        <ele>262.100006104</ele>
        <time>2015-07-03T10:33:08.376Z</time>
      </trkpt>
      <trkpt lat="45.94468" lon="4.83478">
        <ele>262.100006104</ele>
        <time>2015-07-03T10:33:09.395Z</time>
      </trkpt>
      <trkpt lat="45.94464" lon="4.83471">
        <ele>262.100006104</ele>
        <time>2015-07-03T10:33:10.375Z</time>
      </trkpt>
      <trkpt lat="45.94459" lon="4.83463">
        <ele>262.200012207</ele>
        <time>2015-07-03T10:33:11.375Z</time>
      </trkpt>
      <trkpt lat="45.94455" lon="4.83456">
        <ele>261.899993896</ele>
        <time>2015-07-03T10:33:12.378Z</time>
      </trkpt>
      <trkpt lat="45.94451" lon="4.83449">
        <ele>262.100006104</ele>
        <time>2015-07-03T10:33:13.375Z</time>
      </trkpt>
      <trkpt lat="45.94447" lon="4.83442">
        <ele>262</ele>
        <time>2015-07-03T10:33:14.376Z</time>
      </trkpt>
      <trkpt lat="45.94444" lon="4.83435">
        <ele>262.299987793</ele>
        <time>2015-07-03T10:33:15.375Z</time>
      </trkpt>
      <trkpt lat="45.94441" lon="4.83428">
        <ele>262.299987793</ele>
        <time>2015-07-03T10:33:16.378Z</time>
      </trkpt>
      <trkpt lat="45.94437" lon="4.8342">
        <ele>262.299987793</ele>
        <time>2015-07-03T10:33:17.375Z</time>
      </trkpt>
      <trkpt lat="45.94433" lon="4.83413">
        <ele>262.399993896</ele>
        <time>2015-07-03T10:33:18.377Z</time>
      </trkpt>
      <trkpt lat="45.94429" lon="4.83406">
        <ele>262.600006104</ele>
        <time>2015-07-03T10:33:19.416Z</time>
      </trkpt>
      <trkpt lat="45.94426" lon="4.83399">
        <ele>262.5</ele>
        <time>2015-07-03T10:33:20.389Z</time>
      </trkpt>
      <trkpt lat="45.94423" lon="4.83392">
        <ele>262.299987793</ele>
        <time>2015-07-03T10:33:21.375Z</time>
      </trkpt>
      <trkpt lat="45.94419" lon="4.83385">
        <ele>262.200012207</ele>
        <time>2015-07-03T10:33:22.375Z</time>
      </trkpt>
      <trkpt lat="45.94416" lon="4.83379">
        <ele>262.299987793</ele>
        <time>2015-07-03T10:33:23.374Z</time>
      </trkpt>
      <trkpt lat="45.94413" lon="4.83373">
        <ele>262.200012207</ele>
        <time>2015-07-03T10:33:24.377Z</time>
      </trkpt>
      <trkpt lat="45.94411" lon="4.83367">
        <ele>262</ele>
        <time>2015-07-03T10:33:25.375Z</time>
      </trkpt>
      <trkpt lat="45.94409" lon="4.83361">
        <ele>262</ele>
        <time>2015-07-03T10:33:26.375Z</time>
      </trkpt>
      <trkpt lat="45.94406" lon="4.83354">
        <ele>262.100006104</ele>
        <time>2015-07-03T10:33:27.377Z</time>
      </trkpt>
      <trkpt lat="45.94404" lon="4.83348">
        <ele>261.899993896</ele>
        <time>2015-07-03T10:33:28.398Z</time>
      </trkpt>
      <trkpt lat="45.94401" lon="4.83341">
        <ele>261.600006104</ele>
        <time>2015-07-03T10:33:29.446Z</time>
      </trkpt>
      <trkpt lat="45.94398" lon="4.83334">
        <ele>261.600006104</ele>
        <time>2015-07-03T10:33:30.386Z</time>
      </trkpt>
      <trkpt lat="45.94396" lon="4.83328">
        <ele>261.399993896</ele>
        <time>2015-07-03T10:33:31.374Z</time>
      </trkpt>
      <trkpt lat="45.94393" lon="4.8332">
        <ele>261.100006104</ele>
        <time>2015-07-03T10:33:32.376Z</time>
      </trkpt>
      <trkpt lat="45.94392" lon="4.83313">
        <ele>261.700012207</ele>
        <time>2015-07-03T10:33:33.377Z</time>
      </trkpt>
      <trkpt lat="45.9439" lon="4.83307">
        <ele>261.399993896</ele>
        <time>2015-07-03T10:33:34.376Z</time>
      </trkpt>
      <trkpt lat="45.94388" lon="4.833">
        <ele>261.399993896</ele>
        <time>2015-07-03T10:33:35.375Z</time>
      </trkpt>
      <trkpt lat="45.94385" lon="4.83292">
        <ele>261.200012207</ele>
        <time>2015-07-03T10:33:36.377Z</time>
      </trkpt>
      <trkpt lat="45.94383" lon="4.83285">
        <ele>261</ele>
        <time>2015-07-03T10:33:37.375Z</time>
      </trkpt>
      <trkpt lat="45.9438" lon="4.83278">
        <ele>261</ele>
        <time>2015-07-03T10:33:38.376Z</time>
      </trkpt>
      <trkpt lat="45.94377" lon="4.83271">
        <ele>261.200012207</ele>
        <time>2015-07-03T10:33:39.374Z</time>
      </trkpt>
      <trkpt lat="45.94374" lon="4.83263">
        <ele>261</ele>
        <time>2015-07-03T10:33:40.416Z</time>
      </trkpt>
      <trkpt lat="45.94372" lon="4.83256">
        <ele>261</ele>
        <time>2015-07-03T10:33:41.375Z</time>
      </trkpt>
      <trkpt lat="45.94369" lon="4.8325">
        <ele>261.200012207</ele>
        <time>2015-07-03T10:33:42.377Z</time>
      </trkpt>
      <trkpt lat="45.94366" lon="4.83243">
        <ele>261.299987793</ele>
        <time>2015-07-03T10:33:43.378Z</time>
      </trkpt>
      <trkpt lat="45.94364" lon="4.83236">
        <ele>261.399993896</ele>
        <time>2015-07-03T10:33:44.376Z</time>
      </trkpt>
      <trkpt lat="45.94361" lon="4.83228">
        <ele>261.5</ele>
        <time>2015-07-03T10:33:45.375Z</time>
      </trkpt>
      <trkpt lat="45.94358" lon="4.83221">
        <ele>261.5</ele>
        <time>2015-07-03T10:33:46.375Z</time>
      </trkpt>
      <trkpt lat="45.94357" lon="4.83214">
        <ele>262.100006104</ele>
        <time>2015-07-03T10:33:47.376Z</time>
      </trkpt>
      <trkpt lat="45.94355" lon="4.83207">
        <ele>262.600006104</ele>
        <time>2015-07-03T10:33:48.377Z</time>
      </trkpt>
      <trkpt lat="45.94353" lon="4.83199">
        <ele>263.399993896</ele>
        <time>2015-07-03T10:33:49.376Z</time>
      </trkpt>
      <trkpt lat="45.9435" lon="4.83192">
        <ele>263.899993896</ele>
        <time>2015-07-03T10:33:50.377Z</time>
      </trkpt>
      <trkpt lat="45.94348" lon="4.83185">
        <ele>264.299987793</ele>
        <time>2015-07-03T10:33:51.416Z</time>
      </trkpt>
      <trkpt lat="45.94345" lon="4.83177">
        <ele>264.399993896</ele>
        <time>2015-07-03T10:33:52.376Z</time>
      </trkpt>
      <trkpt lat="45.94344" lon="4.8317">
        <ele>264.700012207</ele>
        <time>2015-07-03T10:33:53.424Z</time>
      </trkpt>
      <trkpt lat="45.94341" lon="4.83163">
        <ele>265</ele>
        <time>2015-07-03T10:33:54.381Z</time>
      </trkpt>
      <trkpt lat="45.94338" lon="4.83156">
        <ele>265.299987793</ele>
        <time>2015-07-03T10:33:55.394Z</time>
      </trkpt>
      <trkpt lat="45.94335" lon="4.83149">
        <ele>265.200012207</ele>
        <time>2015-07-03T10:33:56.377Z</time>
      </trkpt>
      <trkpt lat="45.94331" lon="4.83142">
        <ele>265</ele>
        <time>2015-07-03T10:33:57.375Z</time>
      </trkpt>
      <trkpt lat="45.94328" lon="4.83135">
        <ele>265.100006104</ele>
        <time>2015-07-03T10:33:58.448Z</time>
      </trkpt>
      <trkpt lat="45.94325" lon="4.83128">
        <ele>265.100006104</ele>
        <time>2015-07-03T10:33:59.402Z</time>
      </trkpt>
      <trkpt lat="45.94322" lon="4.8312">
        <ele>265.299987793</ele>
        <time>2015-07-03T10:34:00.378Z</time>
      </trkpt>
      <trkpt lat="45.94319" lon="4.83113">
        <ele>265.100006104</ele>
        <time>2015-07-03T10:34:01.375Z</time>
      </trkpt>
      <trkpt lat="45.94316" lon="4.83105">
        <ele>265.299987793</ele>
        <time>2015-07-03T10:34:02.375Z</time>
      </trkpt>
      <trkpt lat="45.94314" lon="4.83098">
        <ele>265.5</ele>
        <time>2015-07-03T10:34:03.376Z</time>
      </trkpt>
      <trkpt lat="45.9431" lon="4.83091">
        <ele>265.5</ele>
        <time>2015-07-03T10:34:04.376Z</time>
      </trkpt>
      <trkpt lat="45.94308" lon="4.83084">
        <ele>265.600006104</ele>
        <time>2015-07-03T10:34:05.375Z</time>
      </trkpt>
      <trkpt lat="45.94306" lon="4.83077">
        <ele>265.399993896</ele>
        <time>2015-07-03T10:34:06.377Z</time>
      </trkpt>
      <trkpt lat="45.94303" lon="4.8307">
        <ele>265.299987793</ele>
        <time>2015-07-03T10:34:07.4Z</time>
      </trkpt>
      <trkpt lat="45.94301" lon="4.83062">
        <ele>265.200012207</ele>
        <time>2015-07-03T10:34:08.375Z</time>
      </trkpt>
      <trkpt lat="45.94299" lon="4.83055">
        <ele>264.600006104</ele>
        <time>2015-07-03T10:34:09.375Z</time>
      </trkpt>
      <trkpt lat="45.94297" lon="4.83048">
        <ele>264.299987793</ele>
        <time>2015-07-03T10:34:10.375Z</time>
      </trkpt>
      <trkpt lat="45.94296" lon="4.8304">
        <ele>264.399993896</ele>
        <time>2015-07-03T10:34:11.377Z</time>
      </trkpt>
      <trkpt lat="45.94294" lon="4.83033">
        <ele>264.100006104</ele>
        <time>2015-07-03T10:34:12.377Z</time>
      </trkpt>
      <trkpt lat="45.94294" lon="4.83025">
        <ele>264.100006104</ele>
        <time>2015-07-03T10:34:13.375Z</time>
      </trkpt>
      <trkpt lat="45.94292" lon="4.83017">
        <ele>264</ele>
        <time>2015-07-03T10:34:14.374Z</time>
      </trkpt>
      <trkpt lat="45.9429" lon="4.83009">
        <ele>264.299987793</ele>
        <time>2015-07-03T10:34:15.374Z</time>
      </trkpt>
      <trkpt lat="45.94288" lon="4.83001">
        <ele>264.299987793</ele>
        <time>2015-07-03T10:34:16.376Z</time>
      </trkpt>
      <trkpt lat="45.94287" lon="4.82993">
        <ele>264.799987793</ele>
        <time>2015-07-03T10:34:17.374Z</time>
      </trkpt>
      <trkpt lat="45.94286" lon="4.82985">
        <ele>264.600006104</ele>
        <time>2015-07-03T10:34:18.378Z</time>
      </trkpt>
      <trkpt lat="45.94284" lon="4.82978">
        <ele>264.399993896</ele>
        <time>2015-07-03T10:34:19.374Z</time>
      </trkpt>
      <trkpt lat="45.94282" lon="4.82971">
        <ele>264.399993896</ele>
        <time>2015-07-03T10:34:20.376Z</time>
      </trkpt>
      <trkpt lat="45.94279" lon="4.82965">
        <ele>263.899993896</ele>
        <time>2015-07-03T10:34:21.375Z</time>
      </trkpt>
      <trkpt lat="45.94276" lon="4.82959">
        <ele>263.399993896</ele>
        <time>2015-07-03T10:34:22.4Z</time>
      </trkpt>
      <trkpt lat="45.94275" lon="4.82948">
        <ele>263.899993896</ele>
        <time>2015-07-03T10:34:24.38Z</time>
      </trkpt>
      <trkpt lat="45.94276" lon="4.82941">
        <ele>263.600006104</ele>
        <time>2015-07-03T10:34:25.374Z</time>
      </trkpt>
      <trkpt lat="45.94278" lon="4.82934">
        <ele>263.700012207</ele>
        <time>2015-07-03T10:34:26.374Z</time>
      </trkpt>
      <trkpt lat="45.9428" lon="4.82927">
        <ele>263.5</ele>
        <time>2015-07-03T10:34:27.376Z</time>
      </trkpt>
      <trkpt lat="45.94282" lon="4.82919">
        <ele>263.5</ele>
        <time>2015-07-03T10:34:28.39Z</time>
      </trkpt>
      <trkpt lat="45.94283" lon="4.82912">
        <ele>263.5</ele>
        <time>2015-07-03T10:34:29.375Z</time>
      </trkpt>
      <trkpt lat="45.94285" lon="4.82904">
        <ele>263.399993896</ele>
        <time>2015-07-03T10:34:30.377Z</time>
      </trkpt>
      <trkpt lat="45.94286" lon="4.82896">
        <ele>263.5</ele>
        <time>2015-07-03T10:34:31.375Z</time>
      </trkpt>
      <trkpt lat="45.94287" lon="4.82887">
        <ele>263.100006104</ele>
        <time>2015-07-03T10:34:32.376Z</time>
      </trkpt>
      <trkpt lat="45.94288" lon="4.82879">
        <ele>262.899993896</ele>
        <time>2015-07-03T10:34:33.376Z</time>
      </trkpt>
      <trkpt lat="45.94289" lon="4.82872">
        <ele>262.600006104</ele>
        <time>2015-07-03T10:34:34.416Z</time>
      </trkpt>
      <trkpt lat="45.9429" lon="4.82863">
        <ele>262.700012207</ele>
        <time>2015-07-03T10:34:35.376Z</time>
      </trkpt>
      <trkpt lat="45.94289" lon="4.82854">
        <ele>262.399993896</ele>
        <time>2015-07-03T10:34:36.378Z</time>
      </trkpt>
      <trkpt lat="45.94289" lon="4.82844">
        <ele>262.5</ele>
        <time>2015-07-03T10:34:37.375Z</time>
      </trkpt>
      <trkpt lat="45.9429" lon="4.82835">
        <ele>262.5</ele>
        <time>2015-07-03T10:34:38.376Z</time>
      </trkpt>
      <trkpt lat="45.9429" lon="4.82825">
        <ele>261.899993896</ele>
        <time>2015-07-03T10:34:39.374Z</time>
      </trkpt>
      <trkpt lat="45.9429" lon="4.82815">
        <ele>261.399993896</ele>
        <time>2015-07-03T10:34:40.374Z</time>
      </trkpt>
      <trkpt lat="45.9429" lon="4.82805">
        <ele>261</ele>
        <time>2015-07-03T10:34:41.374Z</time>
      </trkpt>
      <trkpt lat="45.94291" lon="4.82795">
        <ele>260.899993896</ele>
        <time>2015-07-03T10:34:42.377Z</time>
      </trkpt>
      <trkpt lat="45.94291" lon="4.82786">
        <ele>260.700012207</ele>
        <time>2015-07-03T10:34:43.375Z</time>
      </trkpt>
      <trkpt lat="45.94291" lon="4.82775">
        <ele>260.5</ele>
        <time>2015-07-03T10:34:44.377Z</time>
      </trkpt>
      <trkpt lat="45.94291" lon="4.82765">
        <ele>260.299987793</ele>
        <time>2015-07-03T10:34:45.376Z</time>
      </trkpt>
      <trkpt lat="45.94291" lon="4.82755">
        <ele>260.200012207</ele>
        <time>2015-07-03T10:34:46.385Z</time>
      </trkpt>
      <trkpt lat="45.94291" lon="4.82746">
        <ele>260.100006104</ele>
        <time>2015-07-03T10:34:47.373Z</time>
      </trkpt>
      <trkpt lat="45.94291" lon="4.82736">
        <ele>259.799987793</ele>
        <time>2015-07-03T10:34:48.446Z</time>
      </trkpt>
      <trkpt lat="45.94291" lon="4.82727">
        <ele>259.700012207</ele>
        <time>2015-07-03T10:34:49.376Z</time>
      </trkpt>
      <trkpt lat="45.94291" lon="4.82716">
        <ele>259.600006104</ele>
        <time>2015-07-03T10:34:50.377Z</time>
      </trkpt>
      <trkpt lat="45.94291" lon="4.82706">
        <ele>259.399993896</ele>
        <time>2015-07-03T10:34:51.374Z</time>
      </trkpt>
      <trkpt lat="45.94291" lon="4.82696">
        <ele>259.200012207</ele>
        <time>2015-07-03T10:34:52.375Z</time>
      </trkpt>
      <trkpt lat="45.94291" lon="4.82686">
        <ele>259.399993896</ele>
        <time>2015-07-03T10:34:53.426Z</time>
      </trkpt>
      <trkpt lat="45.94291" lon="4.82676">
        <ele>259.5</ele>
        <time>2015-07-03T10:34:54.395Z</time>
      </trkpt>
      <trkpt lat="45.94291" lon="4.82666">
        <ele>260</ele>
        <time>2015-07-03T10:34:55.391Z</time>
      </trkpt>
      <trkpt lat="45.94291" lon="4.82657">
        <ele>260.200012207</ele>
        <time>2015-07-03T10:34:56.369Z</time>
      </trkpt>
      <trkpt lat="45.94291" lon="4.82647">
        <ele>260.399993896</ele>
        <time>2015-07-03T10:34:57.375Z</time>
      </trkpt>
      <trkpt lat="45.94291" lon="4.82638">
        <ele>260.200012207</ele>
        <time>2015-07-03T10:34:58.398Z</time>
      </trkpt>
      <trkpt lat="45.9429" lon="4.82629">
        <ele>260</ele>
        <time>2015-07-03T10:34:59.376Z</time>
      </trkpt>
      <trkpt lat="45.94291" lon="4.82621">
        <ele>260.299987793</ele>
        <time>2015-07-03T10:35:00.378Z</time>
      </trkpt>
      <trkpt lat="45.94291" lon="4.82612">
        <ele>260.200012207</ele>
        <time>2015-07-03T10:35:01.375Z</time>
      </trkpt>
      <trkpt lat="45.94291" lon="4.82603">
        <ele>260.200012207</ele>
        <time>2015-07-03T10:35:02.375Z</time>
      </trkpt>
      <trkpt lat="45.94291" lon="4.82595">
        <ele>260.200012207</ele>
        <time>2015-07-03T10:35:03.376Z</time>
      </trkpt>
      <trkpt lat="45.94292" lon="4.82586">
        <ele>260.200012207</ele>
        <time>2015-07-03T10:35:04.396Z</time>
      </trkpt>
      <trkpt lat="45.94293" lon="4.82577">
        <ele>260.200012207</ele>
        <time>2015-07-03T10:35:05.373Z</time>
      </trkpt>
      <trkpt lat="45.94293" lon="4.82567">
        <ele>260.200012207</ele>
        <time>2015-07-03T10:35:06.381Z</time>
      </trkpt>
      <trkpt lat="45.94294" lon="4.82557">
        <ele>260.100006104</ele>
        <time>2015-07-03T10:35:07.374Z</time>
      </trkpt>
      <trkpt lat="45.94294" lon="4.82547">
        <ele>259.899993896</ele>
        <time>2015-07-03T10:35:08.376Z</time>
      </trkpt>
      <trkpt lat="45.94294" lon="4.82537">
        <ele>259.799987793</ele>
        <time>2015-07-03T10:35:09.374Z</time>
      </trkpt>
      <trkpt lat="45.94294" lon="4.82526">
        <ele>259.600006104</ele>
        <time>2015-07-03T10:35:10.374Z</time>
      </trkpt>
      <trkpt lat="45.94294" lon="4.82516">
        <ele>259.5</ele>
        <time>2015-07-03T10:35:11.391Z</time>
      </trkpt>
      <trkpt lat="45.94294" lon="4.82506">
        <ele>259.5</ele>
        <time>2015-07-03T10:35:12.377Z</time>
      </trkpt>
      <trkpt lat="45.94293" lon="4.82495">
        <ele>259.600006104</ele>
        <time>2015-07-03T10:35:13.376Z</time>
      </trkpt>
      <trkpt lat="45.94293" lon="4.82485">
        <ele>259.600006104</ele>
        <time>2015-07-03T10:35:14.375Z</time>
      </trkpt>
      <trkpt lat="45.94292" lon="4.82475">
        <ele>259.799987793</ele>
        <time>2015-07-03T10:35:15.371Z</time>
      </trkpt>
      <trkpt lat="45.94292" lon="4.82465">
        <ele>260</ele>
        <time>2015-07-03T10:35:16.381Z</time>
      </trkpt>
      <trkpt lat="45.94291" lon="4.82456">
        <ele>260.100006104</ele>
        <time>2015-07-03T10:35:17.375Z</time>
      </trkpt>
      <trkpt lat="45.9429" lon="4.82446">
        <ele>260.200012207</ele>
        <time>2015-07-03T10:35:18.381Z</time>
      </trkpt>
      <trkpt lat="45.9429" lon="4.82436">
        <ele>260.399993896</ele>
        <time>2015-07-03T10:35:19.375Z</time>
      </trkpt>
      <trkpt lat="45.94289" lon="4.82426">
        <ele>260.5</ele>
        <time>2015-07-03T10:35:20.377Z</time>
      </trkpt>
      <trkpt lat="45.94288" lon="4.82415">
        <ele>260.600006104</ele>
        <time>2015-07-03T10:35:21.38Z</time>
      </trkpt>
      <trkpt lat="45.94287" lon="4.82405">
        <ele>260.399993896</ele>
        <time>2015-07-03T10:35:22.377Z</time>
      </trkpt>
      <trkpt lat="45.94287" lon="4.82395">
        <ele>260</ele>
        <time>2015-07-03T10:35:23.377Z</time>
      </trkpt>
      <trkpt lat="45.94287" lon="4.82384">
        <ele>259.700012207</ele>
        <time>2015-07-03T10:35:24.426Z</time>
      </trkpt>
      <trkpt lat="45.94286" lon="4.82374">
        <ele>259.700012207</ele>
        <time>2015-07-03T10:35:25.391Z</time>
      </trkpt>
      <trkpt lat="45.94285" lon="4.82363">
        <ele>259.399993896</ele>
        <time>2015-07-03T10:35:26.383Z</time>
      </trkpt>
      <trkpt lat="45.94284" lon="4.82352">
        <ele>259.399993896</ele>
        <time>2015-07-03T10:35:27.409Z</time>
      </trkpt>
      <trkpt lat="45.94283" lon="4.82341">
        <ele>259.399993896</ele>
        <time>2015-07-03T10:35:28.381Z</time>
      </trkpt>
      <trkpt lat="45.94283" lon="4.8233">
        <ele>259.200012207</ele>
        <time>2015-07-03T10:35:29.385Z</time>
      </trkpt>
      <trkpt lat="45.94282" lon="4.82318">
        <ele>259.100006104</ele>
        <time>2015-07-03T10:35:30.467Z</time>
      </trkpt>
      <trkpt lat="45.94282" lon="4.82307">
        <ele>258.700012207</ele>
        <time>2015-07-03T10:35:31.382Z</time>
      </trkpt>
      <trkpt lat="45.94282" lon="4.82296">
        <ele>258.5</ele>
        <time>2015-07-03T10:35:32.383Z</time>
      </trkpt>
      <trkpt lat="45.94281" lon="4.82285">
        <ele>258.200012207</ele>
        <time>2015-07-03T10:35:33.382Z</time>
      </trkpt>
      <trkpt lat="45.94281" lon="4.82274">
        <ele>257.899993896</ele>
        <time>2015-07-03T10:35:34.379Z</time>
      </trkpt>
      <trkpt lat="45.9428" lon="4.82264">
        <ele>258.100006104</ele>
        <time>2015-07-03T10:35:35.38Z</time>
      </trkpt>
      <trkpt lat="45.94279" lon="4.82253">
        <ele>258</ele>
        <time>2015-07-03T10:35:36.382Z</time>
      </trkpt>
      <trkpt lat="45.94279" lon="4.82243">
        <ele>257.799987793</ele>
        <time>2015-07-03T10:35:37.376Z</time>
      </trkpt>
      <trkpt lat="45.94279" lon="4.82233">
        <ele>257.600006104</ele>
        <time>2015-07-03T10:35:38.427Z</time>
      </trkpt>
      <trkpt lat="45.94279" lon="4.82223">
        <ele>257.299987793</ele>
        <time>2015-07-03T10:35:39.382Z</time>
      </trkpt>
      <trkpt lat="45.94279" lon="4.82213">
        <ele>257.299987793</ele>
        <time>2015-07-03T10:35:40.376Z</time>
      </trkpt>
      <trkpt lat="45.94278" lon="4.82203">
        <ele>257</ele>
        <time>2015-07-03T10:35:41.377Z</time>
      </trkpt>
      <trkpt lat="45.94276" lon="4.82194">
        <ele>257</ele>
        <time>2015-07-03T10:35:42.586Z</time>
      </trkpt>
      <trkpt lat="45.94274" lon="4.82184">
        <ele>257.100006104</ele>
        <time>2015-07-03T10:35:43.455Z</time>
      </trkpt>
      <trkpt lat="45.94273" lon="4.82174">
        <ele>257.200012207</ele>
        <time>2015-07-03T10:35:44.426Z</time>
      </trkpt>
      <trkpt lat="45.94271" lon="4.82164">
        <ele>257.200012207</ele>
        <time>2015-07-03T10:35:45.378Z</time>
      </trkpt>
      <trkpt lat="45.94277" lon="4.82156">
        <ele>258.799987793</ele>
        <time>2015-07-03T10:35:46.375Z</time>
      </trkpt>
      <trkpt lat="45.94275" lon="4.82146">
        <ele>258.899993896</ele>
        <time>2015-07-03T10:35:47.377Z</time>
      </trkpt>
      <trkpt lat="45.94272" lon="4.82135">
        <ele>259.200012207</ele>
        <time>2015-07-03T10:35:48.382Z</time>
      </trkpt>
      <trkpt lat="45.9427" lon="4.82124">
        <ele>259.600006104</ele>
        <time>2015-07-03T10:35:49.378Z</time>
      </trkpt>
      <trkpt lat="45.94267" lon="4.82114">
        <ele>259.899993896</ele>
        <time>2015-07-03T10:35:50.378Z</time>
      </trkpt>
      <trkpt lat="45.94264" lon="4.82103">
        <ele>260.200012207</ele>
        <time>2015-07-03T10:35:51.375Z</time>
      </trkpt>
      <trkpt lat="45.94261" lon="4.82092">
        <ele>260.299987793</ele>
        <time>2015-07-03T10:35:52.378Z</time>
      </trkpt>
      <trkpt lat="45.94259" lon="4.82081">
        <ele>260.200012207</ele>
        <time>2015-07-03T10:35:53.416Z</time>
      </trkpt>
      <trkpt lat="45.94256" lon="4.8207">
        <ele>260.200012207</ele>
        <time>2015-07-03T10:35:54.378Z</time>
      </trkpt>
      <trkpt lat="45.94254" lon="4.8206">
        <ele>260.299987793</ele>
        <time>2015-07-03T10:35:55.376Z</time>
      </trkpt>
      <trkpt lat="45.94251" lon="4.82049">
        <ele>260.200012207</ele>
        <time>2015-07-03T10:35:56.377Z</time>
      </trkpt>
      <trkpt lat="45.94248" lon="4.82039">
        <ele>260.399993896</ele>
        <time>2015-07-03T10:35:57.377Z</time>
      </trkpt>
      <trkpt lat="45.94246" lon="4.82028">
        <ele>260.200012207</ele>
        <time>2015-07-03T10:35:58.377Z</time>
      </trkpt>
      <trkpt lat="45.94243" lon="4.82018">
        <ele>260.200012207</ele>
        <time>2015-07-03T10:35:59.375Z</time>
      </trkpt>
      <trkpt lat="45.94241" lon="4.82007">
        <ele>260.299987793</ele>
        <time>2015-07-03T10:36:00.383Z</time>
      </trkpt>
      <trkpt lat="45.94239" lon="4.81996">
        <ele>260.100006104</ele>
        <time>2015-07-03T10:36:01.379Z</time>
      </trkpt>
      <trkpt lat="45.94237" lon="4.81986">
        <ele>260.100006104</ele>
        <time>2015-07-03T10:36:02.376Z</time>
      </trkpt>
      <trkpt lat="45.94234" lon="4.81975">
        <ele>260.100006104</ele>
        <time>2015-07-03T10:36:03.376Z</time>
      </trkpt>
      <trkpt lat="45.94232" lon="4.81964">
        <ele>260</ele>
        <time>2015-07-03T10:36:04.392Z</time>
      </trkpt>
      <trkpt lat="45.94231" lon="4.81952">
        <ele>260.100006104</ele>
        <time>2015-07-03T10:36:05.376Z</time>
      </trkpt>
      <trkpt lat="45.94229" lon="4.81941">
        <ele>260.100006104</ele>
        <time>2015-07-03T10:36:06.382Z</time>
      </trkpt>
      <trkpt lat="45.94226" lon="4.8193">
        <ele>260</ele>
        <time>2015-07-03T10:36:07.377Z</time>
      </trkpt>
      <trkpt lat="45.94223" lon="4.8192">
        <ele>259.899993896</ele>
        <time>2015-07-03T10:36:08.378Z</time>
      </trkpt>
      <trkpt lat="45.9422" lon="4.81909">
        <ele>259.799987793</ele>
        <time>2015-07-03T10:36:09.377Z</time>
      </trkpt>
      <trkpt lat="45.94218" lon="4.81899">
        <ele>259.700012207</ele>
        <time>2015-07-03T10:36:10.399Z</time>
      </trkpt>
      <trkpt lat="45.94216" lon="4.81888">
        <ele>259.700012207</ele>
        <time>2015-07-03T10:36:11.377Z</time>
      </trkpt>
      <trkpt lat="45.94214" lon="4.81878">
        <ele>259.799987793</ele>
        <time>2015-07-03T10:36:12.371Z</time>
      </trkpt>
      <trkpt lat="45.94212" lon="4.81867">
        <ele>259.899993896</ele>
        <time>2015-07-03T10:36:13.376Z</time>
      </trkpt>
      <trkpt lat="45.9421" lon="4.81857">
        <ele>259.899993896</ele>
        <time>2015-07-03T10:36:14.377Z</time>
      </trkpt>
      <trkpt lat="45.94209" lon="4.81847">
        <ele>259.700012207</ele>
        <time>2015-07-03T10:36:15.375Z</time>
      </trkpt>
      <trkpt lat="45.94207" lon="4.81838">
        <ele>259.5</ele>
        <time>2015-07-03T10:36:16.374Z</time>
      </trkpt>
      <trkpt lat="45.94206" lon="4.81829">
        <ele>259.299987793</ele>
        <time>2015-07-03T10:36:17.375Z</time>
      </trkpt>
      <trkpt lat="45.94205" lon="4.81819">
        <ele>258.799987793</ele>
        <time>2015-07-03T10:36:18.38Z</time>
      </trkpt>
      <trkpt lat="45.94205" lon="4.81809">
        <ele>258.600006104</ele>
        <time>2015-07-03T10:36:19.383Z</time>
      </trkpt>
      <trkpt lat="45.94205" lon="4.818">
        <ele>258.299987793</ele>
        <time>2015-07-03T10:36:20.395Z</time>
      </trkpt>
      <trkpt lat="45.94205" lon="4.8179">
        <ele>258.600006104</ele>
        <time>2015-07-03T10:36:21.376Z</time>
      </trkpt>
      <trkpt lat="45.94207" lon="4.8178">
        <ele>258.399993896</ele>
        <time>2015-07-03T10:36:22.377Z</time>
      </trkpt>
      <trkpt lat="45.94209" lon="4.81771">
        <ele>258.200012207</ele>
        <time>2015-07-03T10:36:23.377Z</time>
      </trkpt>
      <trkpt lat="45.94211" lon="4.81763">
        <ele>257.799987793</ele>
        <time>2015-07-03T10:36:24.378Z</time>
      </trkpt>
      <trkpt lat="45.94214" lon="4.81755">
        <ele>257.600006104</ele>
        <time>2015-07-03T10:36:25.377Z</time>
      </trkpt>
      <trkpt lat="45.94217" lon="4.81747">
        <ele>257.399993896</ele>
        <time>2015-07-03T10:36:26.376Z</time>
      </trkpt>
      <trkpt lat="45.9422" lon="4.81739">
        <ele>257.399993896</ele>
        <time>2015-07-03T10:36:27.379Z</time>
      </trkpt>
      <trkpt lat="45.9422" lon="4.81729">
        <ele>257.399993896</ele>
        <time>2015-07-03T10:36:28.377Z</time>
      </trkpt>
      <trkpt lat="45.9422" lon="4.8172">
        <ele>257.399993896</ele>
        <time>2015-07-03T10:36:29.376Z</time>
      </trkpt>
      <trkpt lat="45.94218" lon="4.81711">
        <ele>257.299987793</ele>
        <time>2015-07-03T10:36:30.377Z</time>
      </trkpt>
      <trkpt lat="45.94216" lon="4.81705">
        <ele>257.299987793</ele>
        <time>2015-07-03T10:36:31.377Z</time>
      </trkpt>
      <trkpt lat="45.9421" lon="4.81701">
        <ele>257.200012207</ele>
        <time>2015-07-03T10:36:32.376Z</time>
      </trkpt>
      <trkpt lat="45.94203" lon="4.81698">
        <ele>257</ele>
        <time>2015-07-03T10:36:33.377Z</time>
      </trkpt>
      <trkpt lat="45.94196" lon="4.81693">
        <ele>257</ele>
        <time>2015-07-03T10:36:34.416Z</time>
      </trkpt>
      <trkpt lat="45.9419" lon="4.81685">
        <ele>256.899993896</ele>
        <time>2015-07-03T10:36:35.382Z</time>
      </trkpt>
      <trkpt lat="45.94184" lon="4.81677">
        <ele>257.100006104</ele>
        <time>2015-07-03T10:36:36.396Z</time>
      </trkpt>
      <trkpt lat="45.94178" lon="4.81666">
        <ele>257.299987793</ele>
        <time>2015-07-03T10:36:37.376Z</time>
      </trkpt>
      <trkpt lat="45.94174" lon="4.81655">
        <ele>257.399993896</ele>
        <time>2015-07-03T10:36:38.376Z</time>
      </trkpt>
      <trkpt lat="45.9417" lon="4.81645">
        <ele>257.399993896</ele>
        <time>2015-07-03T10:36:39.378Z</time>
      </trkpt>
      <trkpt lat="45.94168" lon="4.81632">
        <ele>257.399993896</ele>
        <time>2015-07-03T10:36:40.377Z</time>
      </trkpt>
      <trkpt lat="45.94164" lon="4.81621">
        <ele>257.299987793</ele>
        <time>2015-07-03T10:36:41.377Z</time>
      </trkpt>
      <trkpt lat="45.94162" lon="4.81609">
        <ele>257.200012207</ele>
        <time>2015-07-03T10:36:42.378Z</time>
      </trkpt>
      <trkpt lat="45.9416" lon="4.81597">
        <ele>257.200012207</ele>
        <time>2015-07-03T10:36:43.377Z</time>
      </trkpt>
      <trkpt lat="45.94157" lon="4.81584">
        <ele>257.200012207</ele>
        <time>2015-07-03T10:36:44.377Z</time>
      </trkpt>
      <trkpt lat="45.94155" lon="4.81572">
        <ele>257.200012207</ele>
        <time>2015-07-03T10:36:45.374Z</time>
      </trkpt>
      <trkpt lat="45.94155" lon="4.81558">
        <ele>257.200012207</ele>
        <time>2015-07-03T10:36:46.376Z</time>
      </trkpt>
      <trkpt lat="45.94153" lon="4.81546">
        <ele>257.100006104</ele>
        <time>2015-07-03T10:36:47.374Z</time>
      </trkpt>
      <trkpt lat="45.94153" lon="4.81533">
        <ele>257.100006104</ele>
        <time>2015-07-03T10:36:48.377Z</time>
      </trkpt>
      <trkpt lat="45.94153" lon="4.81521">
        <ele>257</ele>
        <time>2015-07-03T10:36:49.377Z</time>
      </trkpt>
      <trkpt lat="45.94152" lon="4.81507">
        <ele>256.899993896</ele>
        <time>2015-07-03T10:36:50.377Z</time>
      </trkpt>
      <trkpt lat="45.94151" lon="4.81493">
        <ele>256.799987793</ele>
        <time>2015-07-03T10:36:51.376Z</time>
      </trkpt>
      <trkpt lat="45.94151" lon="4.8148">
        <ele>256.700012207</ele>
        <time>2015-07-03T10:36:52.393Z</time>
      </trkpt>
      <trkpt lat="45.94152" lon="4.81466">
        <ele>256.600006104</ele>
        <time>2015-07-03T10:36:53.375Z</time>
      </trkpt>
      <trkpt lat="45.94153" lon="4.81453">
        <ele>256.399993896</ele>
        <time>2015-07-03T10:36:54.378Z</time>
      </trkpt>
      <trkpt lat="45.94154" lon="4.8144">
        <ele>256.200012207</ele>
        <time>2015-07-03T10:36:55.374Z</time>
      </trkpt>
      <trkpt lat="45.94156" lon="4.81427">
        <ele>256.100006104</ele>
        <time>2015-07-03T10:36:56.378Z</time>
      </trkpt>
      <trkpt lat="45.94157" lon="4.81414">
        <ele>256.100006104</ele>
        <time>2015-07-03T10:36:57.375Z</time>
      </trkpt>
      <trkpt lat="45.94157" lon="4.814">
        <ele>256</ele>
        <time>2015-07-03T10:36:58.375Z</time>
      </trkpt>
      <trkpt lat="45.94159" lon="4.81387">
        <ele>255.899993896</ele>
        <time>2015-07-03T10:36:59.375Z</time>
      </trkpt>
      <trkpt lat="45.9416" lon="4.81373">
        <ele>255.699996948</ele>
        <time>2015-07-03T10:37:00.377Z</time>
      </trkpt>
      <trkpt lat="45.94162" lon="4.8136">
        <ele>255.600006104</ele>
        <time>2015-07-03T10:37:01.376Z</time>
      </trkpt>
      <trkpt lat="45.94163" lon="4.81347">
        <ele>255.5</ele>
        <time>2015-07-03T10:37:02.376Z</time>
      </trkpt>
      <trkpt lat="45.94164" lon="4.81331">
        <ele>255.399993896</ele>
        <time>2015-07-03T10:37:03.39Z</time>
      </trkpt>
      <trkpt lat="45.94164" lon="4.81316">
        <ele>255.100006104</ele>
        <time>2015-07-03T10:37:04.397Z</time>
      </trkpt>
      <trkpt lat="45.94163" lon="4.81303">
        <ele>254.699996948</ele>
        <time>2015-07-03T10:37:05.376Z</time>
      </trkpt>
      <trkpt lat="45.94162" lon="4.81286">
        <ele>254.699996948</ele>
        <time>2015-07-03T10:37:06.378Z</time>
      </trkpt>
      <trkpt lat="45.94162" lon="4.81268">
        <ele>254.600006104</ele>
        <time>2015-07-03T10:37:07.421Z</time>
      </trkpt>
      <trkpt lat="45.9416" lon="4.81255">
        <ele>254.399993896</ele>
        <time>2015-07-03T10:37:08.378Z</time>
      </trkpt>
      <trkpt lat="45.94159" lon="4.81241">
        <ele>254.199996948</ele>
        <time>2015-07-03T10:37:09.463Z</time>
      </trkpt>
      <trkpt lat="45.94158" lon="4.81228">
        <ele>253.899993896</ele>
        <time>2015-07-03T10:37:10.431Z</time>
      </trkpt>
      <trkpt lat="45.94156" lon="4.81214">
        <ele>253.5</ele>
        <time>2015-07-03T10:37:11.384Z</time>
      </trkpt>
      <trkpt lat="45.94153" lon="4.81201">
        <ele>253.100006104</ele>
        <time>2015-07-03T10:37:12.377Z</time>
      </trkpt>
      <trkpt lat="45.9415" lon="4.81188">
        <ele>252.800003052</ele>
        <time>2015-07-03T10:37:13.392Z</time>
      </trkpt>
      <trkpt lat="45.94146" lon="4.81175">
        <ele>252.5</ele>
        <time>2015-07-03T10:37:14.376Z</time>
      </trkpt>
      <trkpt lat="45.94141" lon="4.81162">
        <ele>252.199996948</ele>
        <time>2015-07-03T10:37:15.381Z</time>
      </trkpt>
      <trkpt lat="45.94134" lon="4.81148">
        <ele>251.899993896</ele>
        <time>2015-07-03T10:37:16.381Z</time>
      </trkpt>
      <trkpt lat="45.94127" lon="4.81136">
        <ele>251.699996948</ele>
        <time>2015-07-03T10:37:17.373Z</time>
      </trkpt>
      <trkpt lat="45.94121" lon="4.81124">
        <ele>251.399993896</ele>
        <time>2015-07-03T10:37:18.378Z</time>
      </trkpt>
      <trkpt lat="45.94114" lon="4.81111">
        <ele>251.300003052</ele>
        <time>2015-07-03T10:37:19.377Z</time>
      </trkpt>
      <trkpt lat="45.94108" lon="4.81099">
        <ele>251</ele>
        <time>2015-07-03T10:37:20.376Z</time>
      </trkpt>
      <trkpt lat="45.94101" lon="4.81086">
        <ele>250.899993896</ele>
        <time>2015-07-03T10:37:21.375Z</time>
      </trkpt>
      <trkpt lat="45.94096" lon="4.81073">
        <ele>250.5</ele>
        <time>2015-07-03T10:37:22.378Z</time>
      </trkpt>
      <trkpt lat="45.9409" lon="4.81059">
        <ele>250.199996948</ele>
        <time>2015-07-03T10:37:23.377Z</time>
      </trkpt>
      <trkpt lat="45.94085" lon="4.81047">
        <ele>249.899993896</ele>
        <time>2015-07-03T10:37:24.398Z</time>
      </trkpt>
      <trkpt lat="45.9408" lon="4.81033">
        <ele>249.600006104</ele>
        <time>2015-07-03T10:37:25.373Z</time>
      </trkpt>
      <trkpt lat="45.94076" lon="4.8102">
        <ele>249</ele>
        <time>2015-07-03T10:37:26.377Z</time>
      </trkpt>
      <trkpt lat="45.94072" lon="4.81005">
        <ele>248.5</ele>
        <time>2015-07-03T10:37:27.379Z</time>
      </trkpt>
      <trkpt lat="45.9407" lon="4.8099">
        <ele>248.100006104</ele>
        <time>2015-07-03T10:37:28.377Z</time>
      </trkpt>
      <trkpt lat="45.94068" lon="4.80975">
        <ele>247.600006104</ele>
        <time>2015-07-03T10:37:29.369Z</time>
      </trkpt>
      <trkpt lat="45.94067" lon="4.80961">
        <ele>247.100006104</ele>
        <time>2015-07-03T10:37:30.377Z</time>
      </trkpt>
      <trkpt lat="45.94064" lon="4.80946">
        <ele>246.699996948</ele>
        <time>2015-07-03T10:37:31.375Z</time>
      </trkpt>
      <trkpt lat="45.94062" lon="4.80931">
        <ele>246.199996948</ele>
        <time>2015-07-03T10:37:32.377Z</time>
      </trkpt>
      <trkpt lat="45.9406" lon="4.80916">
        <ele>245.699996948</ele>
        <time>2015-07-03T10:37:33.377Z</time>
      </trkpt>
      <trkpt lat="45.94058" lon="4.80902">
        <ele>245.100006104</ele>
        <time>2015-07-03T10:37:34.376Z</time>
      </trkpt>
      <trkpt lat="45.94056" lon="4.80887">
        <ele>244.699996948</ele>
        <time>2015-07-03T10:37:35.377Z</time>
      </trkpt>
      <trkpt lat="45.94054" lon="4.80872">
        <ele>244.199996948</ele>
        <time>2015-07-03T10:37:36.377Z</time>
      </trkpt>
      <trkpt lat="45.94052" lon="4.80857">
        <ele>243.800003052</ele>
        <time>2015-07-03T10:37:37.381Z</time>
      </trkpt>
      <trkpt lat="45.94051" lon="4.80842">
        <ele>243.600006104</ele>
        <time>2015-07-03T10:37:38.378Z</time>
      </trkpt>
      <trkpt lat="45.94048" lon="4.80827">
        <ele>243.100006104</ele>
        <time>2015-07-03T10:37:39.375Z</time>
      </trkpt>
      <trkpt lat="45.94046" lon="4.80813">
        <ele>242.600006104</ele>
        <time>2015-07-03T10:37:40.391Z</time>
      </trkpt>
      <trkpt lat="45.94045" lon="4.80799">
        <ele>242</ele>
        <time>2015-07-03T10:37:41.375Z</time>
      </trkpt>
      <trkpt lat="45.94043" lon="4.80784">
        <ele>241.5</ele>
        <time>2015-07-03T10:37:42.378Z</time>
      </trkpt>
      <trkpt lat="45.9404" lon="4.8077">
        <ele>241.100006104</ele>
        <time>2015-07-03T10:37:43.377Z</time>
      </trkpt>
      <trkpt lat="45.94037" lon="4.80755">
        <ele>240.800003052</ele>
        <time>2015-07-03T10:37:44.377Z</time>
      </trkpt>
      <trkpt lat="45.94035" lon="4.80741">
        <ele>240.399993896</ele>
        <time>2015-07-03T10:37:45.377Z</time>
      </trkpt>
      <trkpt lat="45.94034" lon="4.80725">
        <ele>240</ele>
        <time>2015-07-03T10:37:46.375Z</time>
      </trkpt>
      <trkpt lat="45.94031" lon="4.80711">
        <ele>239.5</ele>
        <time>2015-07-03T10:37:47.375Z</time>
      </trkpt>
      <trkpt lat="45.94029" lon="4.80695">
        <ele>238.899993896</ele>
        <time>2015-07-03T10:37:48.377Z</time>
      </trkpt>
      <trkpt lat="45.94027" lon="4.80679">
        <ele>238.199996948</ele>
        <time>2015-07-03T10:37:49.375Z</time>
      </trkpt>
      <trkpt lat="45.94025" lon="4.80664">
        <ele>237.5</ele>
        <time>2015-07-03T10:37:50.379Z</time>
      </trkpt>
      <trkpt lat="45.94026" lon="4.80649">
        <ele>236.600006104</ele>
        <time>2015-07-03T10:37:51.373Z</time>
      </trkpt>
      <trkpt lat="45.94024" lon="4.80633">
        <ele>236.399993896</ele>
        <time>2015-07-03T10:37:52.376Z</time>
      </trkpt>
      <trkpt lat="45.94023" lon="4.80619">
        <ele>235.899993896</ele>
        <time>2015-07-03T10:37:53.396Z</time>
      </trkpt>
      <trkpt lat="45.94022" lon="4.80603">
        <ele>235.600006104</ele>
        <time>2015-07-03T10:37:54.378Z</time>
      </trkpt>
      <trkpt lat="45.94021" lon="4.80589">
        <ele>235.300003052</ele>
        <time>2015-07-03T10:37:55.374Z</time>
      </trkpt>
      <trkpt lat="45.94021" lon="4.80572">
        <ele>234.899993896</ele>
        <time>2015-07-03T10:37:56.393Z</time>
      </trkpt>
      <trkpt lat="45.94021" lon="4.80557">
        <ele>234.600006104</ele>
        <time>2015-07-03T10:37:57.375Z</time>
      </trkpt>
      <trkpt lat="45.9402" lon="4.80542">
        <ele>234.300003052</ele>
        <time>2015-07-03T10:37:58.375Z</time>
      </trkpt>
      <trkpt lat="45.94021" lon="4.80528">
        <ele>234</ele>
        <time>2015-07-03T10:37:59.375Z</time>
      </trkpt>
      <trkpt lat="45.9402" lon="4.80513">
        <ele>233.699996948</ele>
        <time>2015-07-03T10:38:00.38Z</time>
      </trkpt>
      <trkpt lat="45.9402" lon="4.80497">
        <ele>233.300003052</ele>
        <time>2015-07-03T10:38:01.375Z</time>
      </trkpt>
      <trkpt lat="45.94018" lon="4.80481">
        <ele>232.800003052</ele>
        <time>2015-07-03T10:38:02.376Z</time>
      </trkpt>
      <trkpt lat="45.94016" lon="4.80465">
        <ele>232.399993896</ele>
        <time>2015-07-03T10:38:03.38Z</time>
      </trkpt>
      <trkpt lat="45.94013" lon="4.8045">
        <ele>232</ele>
        <time>2015-07-03T10:38:04.375Z</time>
      </trkpt>
      <trkpt lat="45.94011" lon="4.80436">
        <ele>231.600006104</ele>
        <time>2015-07-03T10:38:05.376Z</time>
      </trkpt>
      <trkpt lat="45.94009" lon="4.80423">
        <ele>231.199996948</ele>
        <time>2015-07-03T10:38:06.379Z</time>
      </trkpt>
      <trkpt lat="45.94006" lon="4.80411">
        <ele>230.899993896</ele>
        <time>2015-07-03T10:38:07.392Z</time>
      </trkpt>
      <trkpt lat="45.94003" lon="4.80398">
        <ele>230.5</ele>
        <time>2015-07-03T10:38:08.378Z</time>
      </trkpt>
      <trkpt lat="45.94001" lon="4.80382">
        <ele>229.800003052</ele>
        <time>2015-07-03T10:38:09.377Z</time>
      </trkpt>
      <trkpt lat="45.93997" lon="4.80366">
        <ele>229.100006104</ele>
        <time>2015-07-03T10:38:10.377Z</time>
      </trkpt>
      <trkpt lat="45.93992" lon="4.8035">
        <ele>228.5</ele>
        <time>2015-07-03T10:38:11.375Z</time>
      </trkpt>
      <trkpt lat="45.93988" lon="4.80334">
        <ele>227.899993896</ele>
        <time>2015-07-03T10:38:12.377Z</time>
      </trkpt>
      <trkpt lat="45.93983" lon="4.80318">
        <ele>227.300003052</ele>
        <time>2015-07-03T10:38:13.379Z</time>
      </trkpt>
      <trkpt lat="45.93977" lon="4.80302">
        <ele>226.800003052</ele>
        <time>2015-07-03T10:38:14.379Z</time>
      </trkpt>
      <trkpt lat="45.93971" lon="4.80286">
        <ele>226.600006104</ele>
        <time>2015-07-03T10:38:15.375Z</time>
      </trkpt>
      <trkpt lat="45.93966" lon="4.8027">
        <ele>226.199996948</ele>
        <time>2015-07-03T10:38:16.375Z</time>
      </trkpt>
      <trkpt lat="45.93962" lon="4.80254">
        <ele>225.800003052</ele>
        <time>2015-07-03T10:38:17.375Z</time>
      </trkpt>
      <trkpt lat="45.93958" lon="4.80239">
        <ele>225.399993896</ele>
        <time>2015-07-03T10:38:18.376Z</time>
      </trkpt>
      <trkpt lat="45.93954" lon="4.80225">
        <ele>225.100006104</ele>
        <time>2015-07-03T10:38:19.374Z</time>
      </trkpt>
      <trkpt lat="45.93952" lon="4.80211">
        <ele>224.699996948</ele>
        <time>2015-07-03T10:38:20.377Z</time>
      </trkpt>
      <trkpt lat="45.9395" lon="4.80198">
        <ele>224.399993896</ele>
        <time>2015-07-03T10:38:21.376Z</time>
      </trkpt>
      <trkpt lat="45.93946" lon="4.80185">
        <ele>224</ele>
        <time>2015-07-03T10:38:22.377Z</time>
      </trkpt>
      <trkpt lat="45.93943" lon="4.80171">
        <ele>223.800003052</ele>
        <time>2015-07-03T10:38:23.393Z</time>
      </trkpt>
      <trkpt lat="45.93941" lon="4.80157">
        <ele>223.699996948</ele>
        <time>2015-07-03T10:38:24.379Z</time>
      </trkpt>
      <trkpt lat="45.93938" lon="4.80145">
        <ele>223.399993896</ele>
        <time>2015-07-03T10:38:25.373Z</time>
      </trkpt>
      <trkpt lat="45.93937" lon="4.80133">
        <ele>223</ele>
        <time>2015-07-03T10:38:26.377Z</time>
      </trkpt>
      <trkpt lat="45.93937" lon="4.8012">
        <ele>222.699996948</ele>
        <time>2015-07-03T10:38:27.372Z</time>
      </trkpt>
      <trkpt lat="45.93936" lon="4.80108">
        <ele>222.199996948</ele>
        <time>2015-07-03T10:38:28.375Z</time>
      </trkpt>
      <trkpt lat="45.93935" lon="4.80096">
        <ele>221.800003052</ele>
        <time>2015-07-03T10:38:29.377Z</time>
      </trkpt>
      <trkpt lat="45.93936" lon="4.80083">
        <ele>221.300003052</ele>
        <time>2015-07-03T10:38:30.377Z</time>
      </trkpt>
      <trkpt lat="45.93937" lon="4.80071">
        <ele>221</ele>
        <time>2015-07-03T10:38:31.377Z</time>
      </trkpt>
      <trkpt lat="45.93938" lon="4.8006">
        <ele>220.600006104</ele>
        <time>2015-07-03T10:38:32.376Z</time>
      </trkpt>
      <trkpt lat="45.93939" lon="4.80049">
        <ele>220.300003052</ele>
        <time>2015-07-03T10:38:33.376Z</time>
      </trkpt>
      <trkpt lat="45.9394" lon="4.80038">
        <ele>220.100006104</ele>
        <time>2015-07-03T10:38:34.393Z</time>
      </trkpt>
      <trkpt lat="45.93942" lon="4.80026">
        <ele>219.800003052</ele>
        <time>2015-07-03T10:38:35.376Z</time>
      </trkpt>
      <trkpt lat="45.93943" lon="4.80015">
        <ele>219.699996948</ele>
        <time>2015-07-03T10:38:36.378Z</time>
      </trkpt>
      <trkpt lat="45.93945" lon="4.80004">
        <ele>219.100006104</ele>
        <time>2015-07-03T10:38:37.426Z</time>
      </trkpt>
      <trkpt lat="45.93949" lon="4.79992">
        <ele>218.699996948</ele>
        <time>2015-07-03T10:38:38.378Z</time>
      </trkpt>
      <trkpt lat="45.93951" lon="4.7998">
        <ele>218.399993896</ele>
        <time>2015-07-03T10:38:39.376Z</time>
      </trkpt>
      <trkpt lat="45.93953" lon="4.79968">
        <ele>217.899993896</ele>
        <time>2015-07-03T10:38:40.38Z</time>
      </trkpt>
      <trkpt lat="45.93955" lon="4.79956">
        <ele>217.199996948</ele>
        <time>2015-07-03T10:38:41.376Z</time>
      </trkpt>
      <trkpt lat="45.93957" lon="4.79945">
        <ele>216.5</ele>
        <time>2015-07-03T10:38:42.38Z</time>
      </trkpt>
      <trkpt lat="45.93958" lon="4.79933">
        <ele>216.300003052</ele>
        <time>2015-07-03T10:38:43.377Z</time>
      </trkpt>
      <trkpt lat="45.93958" lon="4.79921">
        <ele>216.199996948</ele>
        <time>2015-07-03T10:38:44.377Z</time>
      </trkpt>
      <trkpt lat="45.93959" lon="4.79909">
        <ele>215.899993896</ele>
        <time>2015-07-03T10:38:45.373Z</time>
      </trkpt>
      <trkpt lat="45.9396" lon="4.79898">
        <ele>215.300003052</ele>
        <time>2015-07-03T10:38:46.419Z</time>
      </trkpt>
      <trkpt lat="45.93962" lon="4.79886">
        <ele>214.899993896</ele>
        <time>2015-07-03T10:38:47.406Z</time>
      </trkpt>
      <trkpt lat="45.93964" lon="4.79875">
        <ele>214.5</ele>
        <time>2015-07-03T10:38:48.377Z</time>
      </trkpt>
      <trkpt lat="45.93965" lon="4.79864">
        <ele>214.199996948</ele>
        <time>2015-07-03T10:38:49.375Z</time>
      </trkpt>
      <trkpt lat="45.93967" lon="4.79853">
        <ele>213.800003052</ele>
        <time>2015-07-03T10:38:50.393Z</time>
      </trkpt>
      <trkpt lat="45.93968" lon="4.79843">
        <ele>213.399993896</ele>
        <time>2015-07-03T10:38:51.399Z</time>
      </trkpt>
      <trkpt lat="45.93968" lon="4.79832">
        <ele>213.300003052</ele>
        <time>2015-07-03T10:38:52.375Z</time>
      </trkpt>
      <trkpt lat="45.93971" lon="4.79822">
        <ele>213</ele>
        <time>2015-07-03T10:38:53.376Z</time>
      </trkpt>
      <trkpt lat="45.93971" lon="4.7981">
        <ele>213.100006104</ele>
        <time>2015-07-03T10:38:54.376Z</time>
      </trkpt>
      <trkpt lat="45.93971" lon="4.798">
        <ele>213</ele>
        <time>2015-07-03T10:38:55.373Z</time>
      </trkpt>
      <trkpt lat="45.93971" lon="4.7979">
        <ele>212.800003052</ele>
        <time>2015-07-03T10:38:56.376Z</time>
      </trkpt>
      <trkpt lat="45.93971" lon="4.79779">
        <ele>212.5</ele>
        <time>2015-07-03T10:38:57.375Z</time>
      </trkpt>
      <trkpt lat="45.93972" lon="4.79769">
        <ele>212.399993896</ele>
        <time>2015-07-03T10:38:58.374Z</time>
      </trkpt>
      <trkpt lat="45.93971" lon="4.79759">
        <ele>212.199996948</ele>
        <time>2015-07-03T10:38:59.374Z</time>
      </trkpt>
      <trkpt lat="45.93969" lon="4.79749">
        <ele>212</ele>
        <time>2015-07-03T10:39:00.377Z</time>
      </trkpt>
      <trkpt lat="45.93968" lon="4.79739">
        <ele>211.899993896</ele>
        <time>2015-07-03T10:39:01.375Z</time>
      </trkpt>
      <trkpt lat="45.93967" lon="4.79728">
        <ele>211.600006104</ele>
        <time>2015-07-03T10:39:02.376Z</time>
      </trkpt>
      <trkpt lat="45.93966" lon="4.79717">
        <ele>211.399993896</ele>
        <time>2015-07-03T10:39:03.375Z</time>
      </trkpt>
      <trkpt lat="45.93966" lon="4.79707">
        <ele>211.100006104</ele>
        <time>2015-07-03T10:39:04.377Z</time>
      </trkpt>
      <trkpt lat="45.93965" lon="4.79697">
        <ele>210.800003052</ele>
        <time>2015-07-03T10:39:05.379Z</time>
      </trkpt>
      <trkpt lat="45.93965" lon="4.79686">
        <ele>210.199996948</ele>
        <time>2015-07-03T10:39:06.399Z</time>
      </trkpt>
      <trkpt lat="45.93967" lon="4.79679">
        <ele>209.800003052</ele>
        <time>2015-07-03T10:39:07.376Z</time>
      </trkpt>
      <trkpt lat="45.93967" lon="4.79669">
        <ele>209.399993896</ele>
        <time>2015-07-03T10:39:08.374Z</time>
      </trkpt>
      <trkpt lat="45.93967" lon="4.79658">
        <ele>209.199996948</ele>
        <time>2015-07-03T10:39:09.377Z</time>
      </trkpt>
      <trkpt lat="45.93964" lon="4.79646">
        <ele>209.100006104</ele>
        <time>2015-07-03T10:39:10.376Z</time>
      </trkpt>
      <trkpt lat="45.93962" lon="4.79632">
        <ele>209</ele>
        <time>2015-07-03T10:39:11.377Z</time>
      </trkpt>
      <trkpt lat="45.93961" lon="4.79625">
        <ele>209</ele>
        <time>2015-07-03T10:39:12.379Z</time>
      </trkpt>
      <trkpt lat="45.9396" lon="4.79616">
        <ele>208.800003052</ele>
        <time>2015-07-03T10:39:13.374Z</time>
      </trkpt>
      <trkpt lat="45.93954" lon="4.79605">
        <ele>208.5</ele>
        <time>2015-07-03T10:39:14.406Z</time>
      </trkpt>
      <trkpt lat="45.9395" lon="4.79596">
        <ele>208</ele>
        <time>2015-07-03T10:39:15.374Z</time>
      </trkpt>
      <trkpt lat="45.93954" lon="4.79585">
        <ele>207.800003052</ele>
        <time>2015-07-03T10:39:16.376Z</time>
      </trkpt>
      <trkpt lat="45.93953" lon="4.79575">
        <ele>207.600006104</ele>
        <time>2015-07-03T10:39:17.373Z</time>
      </trkpt>
      <trkpt lat="45.93954" lon="4.79564">
        <ele>207.199996948</ele>
        <time>2015-07-03T10:39:18.378Z</time>
      </trkpt>
      <trkpt lat="45.93955" lon="4.79554">
        <ele>206.5</ele>
        <time>2015-07-03T10:39:19.376Z</time>
      </trkpt>
      <trkpt lat="45.93955" lon="4.79544">
        <ele>205.899993896</ele>
        <time>2015-07-03T10:39:20.376Z</time>
      </trkpt>
      <trkpt lat="45.93954" lon="4.79534">
        <ele>205.300003052</ele>
        <time>2015-07-03T10:39:21.377Z</time>
      </trkpt>
      <trkpt lat="45.93954" lon="4.79524">
        <ele>205</ele>
        <time>2015-07-03T10:39:22.389Z</time>
      </trkpt>
      <trkpt lat="45.93956" lon="4.79513">
        <ele>204.5</ele>
        <time>2015-07-03T10:39:23.375Z</time>
      </trkpt>
      <trkpt lat="45.93956" lon="4.79502">
        <ele>204.199996948</ele>
        <time>2015-07-03T10:39:24.376Z</time>
      </trkpt>
      <trkpt lat="45.93957" lon="4.79492">
        <ele>204</ele>
        <time>2015-07-03T10:39:25.369Z</time>
      </trkpt>
      <trkpt lat="45.93958" lon="4.79482">
        <ele>203.800003052</ele>
        <time>2015-07-03T10:39:26.375Z</time>
      </trkpt>
      <trkpt lat="45.93959" lon="4.79471">
        <ele>203.699996948</ele>
        <time>2015-07-03T10:39:27.377Z</time>
      </trkpt>
      <trkpt lat="45.93959" lon="4.7946">
        <ele>203.300003052</ele>
        <time>2015-07-03T10:39:28.376Z</time>
      </trkpt>
      <trkpt lat="45.93959" lon="4.79448">
        <ele>203.300003052</ele>
        <time>2015-07-03T10:39:29.374Z</time>
      </trkpt>
      <trkpt lat="45.93957" lon="4.79437">
        <ele>203.600006104</ele>
        <time>2015-07-03T10:39:30.378Z</time>
      </trkpt>
      <trkpt lat="45.93956" lon="4.79426">
        <ele>203.800003052</ele>
        <time>2015-07-03T10:39:31.377Z</time>
      </trkpt>
      <trkpt lat="45.93956" lon="4.79416">
        <ele>203.899993896</ele>
        <time>2015-07-03T10:39:32.407Z</time>
      </trkpt>
      <trkpt lat="45.93955" lon="4.79405">
        <ele>203.899993896</ele>
        <time>2015-07-03T10:39:33.375Z</time>
      </trkpt>
      <trkpt lat="45.93957" lon="4.79395">
        <ele>204</ele>
        <time>2015-07-03T10:39:34.376Z</time>
      </trkpt>
      <trkpt lat="45.93958" lon="4.79384">
        <ele>204.199996948</ele>
        <time>2015-07-03T10:39:35.374Z</time>
      </trkpt>
      <trkpt lat="45.93956" lon="4.79372">
        <ele>204.199996948</ele>
        <time>2015-07-03T10:39:36.376Z</time>
      </trkpt>
      <trkpt lat="45.93956" lon="4.7936">
        <ele>204.399993896</ele>
        <time>2015-07-03T10:39:37.374Z</time>
      </trkpt>
      <trkpt lat="45.93956" lon="4.79348">
        <ele>204.5</ele>
        <time>2015-07-03T10:39:38.375Z</time>
      </trkpt>
      <trkpt lat="45.93956" lon="4.79337">
        <ele>204.600006104</ele>
        <time>2015-07-03T10:39:39.374Z</time>
      </trkpt>
      <trkpt lat="45.93956" lon="4.79325">
        <ele>204.5</ele>
        <time>2015-07-03T10:39:40.374Z</time>
      </trkpt>
      <trkpt lat="45.93956" lon="4.79313">
        <ele>204.5</ele>
        <time>2015-07-03T10:39:41.374Z</time>
      </trkpt>
      <trkpt lat="45.93956" lon="4.79301">
        <ele>204.600006104</ele>
        <time>2015-07-03T10:39:42.376Z</time>
      </trkpt>
      <trkpt lat="45.93955" lon="4.7929">
        <ele>204.600006104</ele>
        <time>2015-07-03T10:39:43.39Z</time>
      </trkpt>
      <trkpt lat="45.93953" lon="4.79278">
        <ele>204.5</ele>
        <time>2015-07-03T10:39:44.377Z</time>
      </trkpt>
      <trkpt lat="45.93952" lon="4.79267">
        <ele>204.199996948</ele>
        <time>2015-07-03T10:39:45.396Z</time>
      </trkpt>
      <trkpt lat="45.93952" lon="4.79255">
        <ele>204</ele>
        <time>2015-07-03T10:39:46.375Z</time>
      </trkpt>
      <trkpt lat="45.93952" lon="4.79244">
        <ele>203.899993896</ele>
        <time>2015-07-03T10:39:47.375Z</time>
      </trkpt>
      <trkpt lat="45.93951" lon="4.79232">
        <ele>203.699996948</ele>
        <time>2015-07-03T10:39:48.378Z</time>
      </trkpt>
      <trkpt lat="45.9395" lon="4.7922">
        <ele>203.699996948</ele>
        <time>2015-07-03T10:39:49.376Z</time>
      </trkpt>
      <trkpt lat="45.93949" lon="4.79208">
        <ele>203.199996948</ele>
        <time>2015-07-03T10:39:50.375Z</time>
      </trkpt>
      <trkpt lat="45.93951" lon="4.79195">
        <ele>203</ele>
        <time>2015-07-03T10:39:51.376Z</time>
      </trkpt>
      <trkpt lat="45.93953" lon="4.79183">
        <ele>202.800003052</ele>
        <time>2015-07-03T10:39:52.375Z</time>
      </trkpt>
      <trkpt lat="45.93953" lon="4.79172">
        <ele>202.399993896</ele>
        <time>2015-07-03T10:39:53.374Z</time>
      </trkpt>
      <trkpt lat="45.93953" lon="4.7916">
        <ele>202.100006104</ele>
        <time>2015-07-03T10:39:54.377Z</time>
      </trkpt>
      <trkpt lat="45.93952" lon="4.79148">
        <ele>201.600006104</ele>
        <time>2015-07-03T10:39:55.373Z</time>
      </trkpt>
      <trkpt lat="45.9395" lon="4.79136">
        <ele>201.300003052</ele>
        <time>2015-07-03T10:39:56.377Z</time>
      </trkpt>
      <trkpt lat="45.9395" lon="4.79124">
        <ele>201.100006104</ele>
        <time>2015-07-03T10:39:57.376Z</time>
      </trkpt>
      <trkpt lat="45.93949" lon="4.79113">
        <ele>200.800003052</ele>
        <time>2015-07-03T10:39:58.375Z</time>
      </trkpt>
      <trkpt lat="45.93949" lon="4.79101">
        <ele>200.300003052</ele>
        <time>2015-07-03T10:39:59.374Z</time>
      </trkpt>
      <trkpt lat="45.93948" lon="4.79089">
        <ele>199.899993896</ele>
        <time>2015-07-03T10:40:00.377Z</time>
      </trkpt>
      <trkpt lat="45.93948" lon="4.79077">
        <ele>199.5</ele>
        <time>2015-07-03T10:40:01.374Z</time>
      </trkpt>
      <trkpt lat="45.93949" lon="4.79066">
        <ele>199.199996948</ele>
        <time>2015-07-03T10:40:02.375Z</time>
      </trkpt>
      <trkpt lat="45.93948" lon="4.79055">
        <ele>198.800003052</ele>
        <time>2015-07-03T10:40:03.373Z</time>
      </trkpt>
      <trkpt lat="45.9395" lon="4.79046">
        <ele>198.699996948</ele>
        <time>2015-07-03T10:40:04.409Z</time>
      </trkpt>
      <trkpt lat="45.9395" lon="4.79036">
        <ele>198.899993896</ele>
        <time>2015-07-03T10:40:05.561Z</time>
      </trkpt>
      <trkpt lat="45.93946" lon="4.79024">
        <ele>199.300003052</ele>
        <time>2015-07-03T10:40:06.836Z</time>
      </trkpt>
      <trkpt lat="45.93944" lon="4.79013">
        <ele>199.399993896</ele>
        <time>2015-07-03T10:40:07.621Z</time>
      </trkpt>
      <trkpt lat="45.93941" lon="4.79003">
        <ele>199.600006104</ele>
        <time>2015-07-03T10:40:08.624Z</time>
      </trkpt>
      <trkpt lat="45.93938" lon="4.78993">
        <ele>199.300003052</ele>
        <time>2015-07-03T10:40:09.426Z</time>
      </trkpt>
      <trkpt lat="45.93936" lon="4.78982">
        <ele>198.699996948</ele>
        <time>2015-07-03T10:40:10.663Z</time>
      </trkpt>
      <trkpt lat="45.93935" lon="4.78972">
        <ele>198.600006104</ele>
        <time>2015-07-03T10:40:11.478Z</time>
      </trkpt>
      <trkpt lat="45.93934" lon="4.78964">
        <ele>198.5</ele>
        <time>2015-07-03T10:40:12.636Z</time>
      </trkpt>
      <trkpt lat="45.93938" lon="4.78954">
        <ele>198.399993896</ele>
        <time>2015-07-03T10:40:13.6Z</time>
      </trkpt>
      <trkpt lat="45.93935" lon="4.78945">
        <ele>197.699996948</ele>
        <time>2015-07-03T10:40:14.403Z</time>
      </trkpt>
      <trkpt lat="45.93933" lon="4.78936">
        <ele>197</ele>
        <time>2015-07-03T10:40:15.571Z</time>
      </trkpt>
      <trkpt lat="45.93929" lon="4.78926">
        <ele>196.399993896</ele>
        <time>2015-07-03T10:40:16.539Z</time>
      </trkpt>
      <trkpt lat="45.93927" lon="4.78917">
        <ele>195.5</ele>
        <time>2015-07-03T10:40:17.509Z</time>
      </trkpt>
      <trkpt lat="45.93925" lon="4.78909">
        <ele>194.699996948</ele>
        <time>2015-07-03T10:40:18.461Z</time>
      </trkpt>
      <trkpt lat="45.93932" lon="4.78897">
        <ele>194.300003052</ele>
        <time>2015-07-03T10:40:19.396Z</time>
      </trkpt>
      <trkpt lat="45.93931" lon="4.78888">
        <ele>194</ele>
        <time>2015-07-03T10:40:20.383Z</time>
      </trkpt>
      <trkpt lat="45.93929" lon="4.78879">
        <ele>193.399993896</ele>
        <time>2015-07-03T10:40:21.648Z</time>
      </trkpt>
      <trkpt lat="45.93928" lon="4.7887">
        <ele>193</ele>
        <time>2015-07-03T10:40:22.423Z</time>
      </trkpt>
      <trkpt lat="45.93927" lon="4.78861">
        <ele>192.199996948</ele>
        <time>2015-07-03T10:40:23.382Z</time>
      </trkpt>
      <trkpt lat="45.93925" lon="4.78852">
        <ele>190.899993896</ele>
        <time>2015-07-03T10:40:24.576Z</time>
      </trkpt>
      <trkpt lat="45.93924" lon="4.78843">
        <ele>190.199996948</ele>
        <time>2015-07-03T10:40:25.567Z</time>
      </trkpt>
      <trkpt lat="45.93926" lon="4.78835">
        <ele>189.300003052</ele>
        <time>2015-07-03T10:40:26.463Z</time>
      </trkpt>
      <trkpt lat="45.93927" lon="4.78826">
        <ele>188.600006104</ele>
        <time>2015-07-03T10:40:27.557Z</time>
      </trkpt>
      <trkpt lat="45.93927" lon="4.78816">
        <ele>188</ele>
        <time>2015-07-03T10:40:28.666Z</time>
      </trkpt>
      <trkpt lat="45.93927" lon="4.78807">
        <ele>187.399993896</ele>
        <time>2015-07-03T10:40:29.42Z</time>
      </trkpt>
      <trkpt lat="45.93927" lon="4.78797">
        <ele>186.800003052</ele>
        <time>2015-07-03T10:40:30.538Z</time>
      </trkpt>
      <trkpt lat="45.93928" lon="4.78788">
        <ele>186.199996948</ele>
        <time>2015-07-03T10:40:31.379Z</time>
      </trkpt>
      <trkpt lat="45.93928" lon="4.78778">
        <ele>185.5</ele>
        <time>2015-07-03T10:40:32.376Z</time>
      </trkpt>
      <trkpt lat="45.93927" lon="4.78769">
        <ele>185</ele>
        <time>2015-07-03T10:40:33.375Z</time>
      </trkpt>
      <trkpt lat="45.9393" lon="4.78759">
        <ele>184.699996948</ele>
        <time>2015-07-03T10:40:34.374Z</time>
      </trkpt>
      <trkpt lat="45.93932" lon="4.7875">
        <ele>184.199996948</ele>
        <time>2015-07-03T10:40:35.392Z</time>
      </trkpt>
      <trkpt lat="45.93933" lon="4.78742">
        <ele>183.699996948</ele>
        <time>2015-07-03T10:40:36.378Z</time>
      </trkpt>
      <trkpt lat="45.93934" lon="4.78732">
        <ele>183.199996948</ele>
        <time>2015-07-03T10:40:37.375Z</time>
      </trkpt>
      <trkpt lat="45.93936" lon="4.78724">
        <ele>182.899993896</ele>
        <time>2015-07-03T10:40:38.4Z</time>
      </trkpt>
      <trkpt lat="45.93937" lon="4.78715">
        <ele>182.600006104</ele>
        <time>2015-07-03T10:40:39.374Z</time>
      </trkpt>
      <trkpt lat="45.93939" lon="4.78705">
        <ele>182.100006104</ele>
        <time>2015-07-03T10:40:40.376Z</time>
      </trkpt>
      <trkpt lat="45.9394" lon="4.78696">
        <ele>181.800003052</ele>
        <time>2015-07-03T10:40:41.373Z</time>
      </trkpt>
      <trkpt lat="45.93939" lon="4.78686">
        <ele>181.600006104</ele>
        <time>2015-07-03T10:40:42.379Z</time>
      </trkpt>
      <trkpt lat="45.93938" lon="4.78676">
        <ele>181.399993896</ele>
        <time>2015-07-03T10:40:43.375Z</time>
      </trkpt>
      <trkpt lat="45.93938" lon="4.78666">
        <ele>181.199996948</ele>
        <time>2015-07-03T10:40:44.375Z</time>
      </trkpt>
      <trkpt lat="45.93938" lon="4.78656">
        <ele>180.699996948</ele>
        <time>2015-07-03T10:40:45.372Z</time>
      </trkpt>
      <trkpt lat="45.93939" lon="4.78647">
        <ele>180.199996948</ele>
        <time>2015-07-03T10:40:46.373Z</time>
      </trkpt>
      <trkpt lat="45.9394" lon="4.78637">
        <ele>179.600006104</ele>
        <time>2015-07-03T10:40:47.377Z</time>
      </trkpt>
      <trkpt lat="45.9394" lon="4.78627">
        <ele>179.100006104</ele>
        <time>2015-07-03T10:40:48.376Z</time>
      </trkpt>
      <trkpt lat="45.93941" lon="4.78618">
        <ele>178.600006104</ele>
        <time>2015-07-03T10:40:49.41Z</time>
      </trkpt>
      <trkpt lat="45.93941" lon="4.7861">
        <ele>178.300003052</ele>
        <time>2015-07-03T10:40:50.372Z</time>
      </trkpt>
      <trkpt lat="45.9394" lon="4.78601">
        <ele>178</ele>
        <time>2015-07-03T10:40:51.393Z</time>
      </trkpt>
      <trkpt lat="45.93941" lon="4.78592">
        <ele>177.600006104</ele>
        <time>2015-07-03T10:40:52.376Z</time>
      </trkpt>
      <trkpt lat="45.9394" lon="4.78583">
        <ele>177.300003052</ele>
        <time>2015-07-03T10:40:53.377Z</time>
      </trkpt>
      <trkpt lat="45.9394" lon="4.78576">
        <ele>177.100006104</ele>
        <time>2015-07-03T10:40:54.38Z</time>
      </trkpt>
      <trkpt lat="45.93937" lon="4.78568">
        <ele>177</ele>
        <time>2015-07-03T10:40:55.375Z</time>
      </trkpt>
      <trkpt lat="45.93935" lon="4.78561">
        <ele>176.899993896</ele>
        <time>2015-07-03T10:40:56.376Z</time>
      </trkpt>
      <trkpt lat="45.93934" lon="4.78554">
        <ele>176.699996948</ele>
        <time>2015-07-03T10:40:57.373Z</time>
      </trkpt>
      <trkpt lat="45.93932" lon="4.78547">
        <ele>176.600006104</ele>
        <time>2015-07-03T10:40:58.376Z</time>
      </trkpt>
      <trkpt lat="45.93931" lon="4.7854">
        <ele>176.699996948</ele>
        <time>2015-07-03T10:40:59.375Z</time>
      </trkpt>
      <trkpt lat="45.93931" lon="4.78533">
        <ele>176.800003052</ele>
        <time>2015-07-03T10:41:00.401Z</time>
      </trkpt>
      <trkpt lat="45.93932" lon="4.78527">
        <ele>177</ele>
        <time>2015-07-03T10:41:01.373Z</time>
      </trkpt>
      <trkpt lat="45.93932" lon="4.78521">
        <ele>176.800003052</ele>
        <time>2015-07-03T10:41:02.377Z</time>
      </trkpt>
      <trkpt lat="45.93931" lon="4.78513">
        <ele>176.699996948</ele>
        <time>2015-07-03T10:41:03.375Z</time>
      </trkpt>
      <trkpt lat="45.93932" lon="4.78501">
        <ele>176.600006104</ele>
        <time>2015-07-03T10:41:05.374Z</time>
      </trkpt>
      <trkpt lat="45.93935" lon="4.78496">
        <ele>176.600006104</ele>
        <time>2015-07-03T10:41:06.375Z</time>
      </trkpt>
      <trkpt lat="45.93938" lon="4.78489">
        <ele>176.5</ele>
        <time>2015-07-03T10:41:07.392Z</time>
      </trkpt>
      <trkpt lat="45.93939" lon="4.7848">
        <ele>176.5</ele>
        <time>2015-07-03T10:41:08.377Z</time>
      </trkpt>
      <trkpt lat="45.9394" lon="4.7847">
        <ele>176.399993896</ele>
        <time>2015-07-03T10:41:09.377Z</time>
      </trkpt>
      <trkpt lat="45.93941" lon="4.78458">
        <ele>176.199996948</ele>
        <time>2015-07-03T10:41:10.374Z</time>
      </trkpt>
      <trkpt lat="45.93941" lon="4.78447">
        <ele>176</ele>
        <time>2015-07-03T10:41:11.374Z</time>
      </trkpt>
      <trkpt lat="45.93941" lon="4.78437">
        <ele>176.100006104</ele>
        <time>2015-07-03T10:41:12.375Z</time>
      </trkpt>
      <trkpt lat="45.93944" lon="4.78431">
        <ele>176</ele>
        <time>2015-07-03T10:41:15.374Z</time>
      </trkpt>
      <trkpt lat="45.93944" lon="4.78424">
        <ele>175.800003052</ele>
        <time>2015-07-03T10:41:16.376Z</time>
      </trkpt>
      <trkpt lat="45.93945" lon="4.78418">
        <ele>175.699996948</ele>
        <time>2015-07-03T10:41:17.376Z</time>
      </trkpt>
      <trkpt lat="45.93947" lon="4.78411">
        <ele>175.5</ele>
        <time>2015-07-03T10:41:18.386Z</time>
      </trkpt>
      <trkpt lat="45.93948" lon="4.78404">
        <ele>175.399993896</ele>
        <time>2015-07-03T10:41:19.372Z</time>
      </trkpt>
      <trkpt lat="45.9395" lon="4.78397">
        <ele>175</ele>
        <time>2015-07-03T10:41:20.375Z</time>
      </trkpt>
      <trkpt lat="45.93952" lon="4.7839">
        <ele>174.600006104</ele>
        <time>2015-07-03T10:41:21.391Z</time>
      </trkpt>
      <trkpt lat="45.93952" lon="4.78383">
        <ele>174.399993896</ele>
        <time>2015-07-03T10:41:22.376Z</time>
      </trkpt>
      <trkpt lat="45.93953" lon="4.78375">
        <ele>174.100006104</ele>
        <time>2015-07-03T10:41:23.376Z</time>
      </trkpt>
      <trkpt lat="45.93955" lon="4.78368">
        <ele>173.800003052</ele>
        <time>2015-07-03T10:41:24.377Z</time>
      </trkpt>
      <trkpt lat="45.93958" lon="4.78361">
        <ele>173.399993896</ele>
        <time>2015-07-03T10:41:25.374Z</time>
      </trkpt>
      <trkpt lat="45.9396" lon="4.78354">
        <ele>172.899993896</ele>
        <time>2015-07-03T10:41:26.375Z</time>
      </trkpt>
      <trkpt lat="45.93963" lon="4.78347">
        <ele>172.199996948</ele>
        <time>2015-07-03T10:41:27.568Z</time>
      </trkpt>
      <trkpt lat="45.93965" lon="4.78338">
        <ele>171.699996948</ele>
        <time>2015-07-03T10:41:28.495Z</time>
      </trkpt>
      <trkpt lat="45.93966" lon="4.7833">
        <ele>171.100006104</ele>
        <time>2015-07-03T10:41:29.478Z</time>
      </trkpt>
      <trkpt lat="45.93967" lon="4.78322">
        <ele>170.800003052</ele>
        <time>2015-07-03T10:41:30.508Z</time>
      </trkpt>
      <trkpt lat="45.93969" lon="4.78315">
        <ele>170.399993896</ele>
        <time>2015-07-03T10:41:31.448Z</time>
      </trkpt>
      <trkpt lat="45.93971" lon="4.78308">
        <ele>170.100006104</ele>
        <time>2015-07-03T10:41:32.568Z</time>
      </trkpt>
      <trkpt lat="45.93971" lon="4.783">
        <ele>169.699996948</ele>
        <time>2015-07-03T10:41:33.477Z</time>
      </trkpt>
      <trkpt lat="45.93972" lon="4.78293">
        <ele>169.5</ele>
        <time>2015-07-03T10:41:34.417Z</time>
      </trkpt>
      <trkpt lat="45.93973" lon="4.78285">
        <ele>169</ele>
        <time>2015-07-03T10:41:35.416Z</time>
      </trkpt>
      <trkpt lat="45.93974" lon="4.78277">
        <ele>168.699996948</ele>
        <time>2015-07-03T10:41:36.381Z</time>
      </trkpt>
      <trkpt lat="45.93969" lon="4.78266">
        <ele>169.199996948</ele>
        <time>2015-07-03T10:41:37.374Z</time>
      </trkpt>
      <trkpt lat="45.9397" lon="4.78259">
        <ele>169</ele>
        <time>2015-07-03T10:41:38.376Z</time>
      </trkpt>
      <trkpt lat="45.93971" lon="4.78252">
        <ele>168.899993896</ele>
        <time>2015-07-03T10:41:39.376Z</time>
      </trkpt>
      <trkpt lat="45.93972" lon="4.78244">
        <ele>168.800003052</ele>
        <time>2015-07-03T10:41:40.375Z</time>
      </trkpt>
      <trkpt lat="45.93974" lon="4.78237">
        <ele>169.100006104</ele>
        <time>2015-07-03T10:41:41.375Z</time>
      </trkpt>
      <trkpt lat="45.93973" lon="4.78229">
        <ele>169.199996948</ele>
        <time>2015-07-03T10:41:42.376Z</time>
      </trkpt>
      <trkpt lat="45.93974" lon="4.78222">
        <ele>169</ele>
        <time>2015-07-03T10:41:43.374Z</time>
      </trkpt>
      <trkpt lat="45.93975" lon="4.78215">
        <ele>168.899993896</ele>
        <time>2015-07-03T10:41:44.389Z</time>
      </trkpt>
      <trkpt lat="45.93976" lon="4.78208">
        <ele>168.800003052</ele>
        <time>2015-07-03T10:41:45.375Z</time>
      </trkpt>
      <trkpt lat="45.93977" lon="4.78202">
        <ele>168.899993896</ele>
        <time>2015-07-03T10:41:46.373Z</time>
      </trkpt>
      <trkpt lat="45.93979" lon="4.78195">
        <ele>168.600006104</ele>
        <time>2015-07-03T10:41:47.725Z</time>
      </trkpt>
      <trkpt lat="45.9398" lon="4.78189">
        <ele>168.300003052</ele>
        <time>2015-07-03T10:41:48.405Z</time>
      </trkpt>
      <trkpt lat="45.93983" lon="4.78184">
        <ele>168.600006104</ele>
        <time>2015-07-03T10:41:49.375Z</time>
      </trkpt>
      <trkpt lat="45.93986" lon="4.78179">
        <ele>168.399993896</ele>
        <time>2015-07-03T10:41:50.727Z</time>
      </trkpt>
      <trkpt lat="45.9399" lon="4.78169">
        <ele>167.899993896</ele>
        <time>2015-07-03T10:41:52.564Z</time>
      </trkpt>
      <trkpt lat="45.93992" lon="4.78164">
        <ele>167.699996948</ele>
        <time>2015-07-03T10:41:53.407Z</time>
      </trkpt>
      <trkpt lat="45.93995" lon="4.78159">
        <ele>167.800003052</ele>
        <time>2015-07-03T10:41:54.841Z</time>
      </trkpt>
      <trkpt lat="45.94002" lon="4.78155">
        <ele>169.5</ele>
        <time>2015-07-03T10:41:55.74Z</time>
      </trkpt>
      <trkpt lat="45.94005" lon="4.7815">
        <ele>170</ele>
        <time>2015-07-03T10:41:56.436Z</time>
      </trkpt>
      <trkpt lat="45.94007" lon="4.78143">
        <ele>169.899993896</ele>
        <time>2015-07-03T10:41:57.386Z</time>
      </trkpt>
      <trkpt lat="45.94008" lon="4.78135">
        <ele>169.300003052</ele>
        <time>2015-07-03T10:41:59.376Z</time>
      </trkpt>
      <trkpt lat="45.94008" lon="4.78129">
        <ele>169.100006104</ele>
        <time>2015-07-03T10:42:00.378Z</time>
      </trkpt>
      <trkpt lat="45.9401" lon="4.78124">
        <ele>169.199996948</ele>
        <time>2015-07-03T10:42:01.375Z</time>
      </trkpt>
      <trkpt lat="45.94012" lon="4.78118">
        <ele>169.399993896</ele>
        <time>2015-07-03T10:42:02.376Z</time>
      </trkpt>
      <trkpt lat="45.94012" lon="4.78105">
        <ele>170.600006104</ele>
        <time>2015-07-03T10:42:04.598Z</time>
      </trkpt>
      <trkpt lat="45.94013" lon="4.78098">
        <ele>171.100006104</ele>
        <time>2015-07-03T10:42:05.561Z</time>
      </trkpt>
      <trkpt lat="45.94013" lon="4.78091">
        <ele>171.199996948</ele>
        <time>2015-07-03T10:42:06.378Z</time>
      </trkpt>
      <trkpt lat="45.94016" lon="4.78083">
        <ele>171.5</ele>
        <time>2015-07-03T10:42:07.374Z</time>
      </trkpt>
      <trkpt lat="45.94016" lon="4.78074">
        <ele>171.600006104</ele>
        <time>2015-07-03T10:42:08.731Z</time>
      </trkpt>
      <trkpt lat="45.94016" lon="4.78066">
        <ele>171.600006104</ele>
        <time>2015-07-03T10:42:09.413Z</time>
      </trkpt>
      <trkpt lat="45.94017" lon="4.78059">
        <ele>171.600006104</ele>
        <time>2015-07-03T10:42:10.466Z</time>
      </trkpt>
      <trkpt lat="45.94017" lon="4.78051">
        <ele>171.800003052</ele>
        <time>2015-07-03T10:42:11.386Z</time>
      </trkpt>
      <trkpt lat="45.94018" lon="4.78044">
        <ele>171.899993896</ele>
        <time>2015-07-03T10:42:12.376Z</time>
      </trkpt>
      <trkpt lat="45.94018" lon="4.78036">
        <ele>172</ele>
        <time>2015-07-03T10:42:13.376Z</time>
      </trkpt>
      <trkpt lat="45.94018" lon="4.78028">
        <ele>172.100006104</ele>
        <time>2015-07-03T10:42:14.373Z</time>
      </trkpt>
      <trkpt lat="45.94018" lon="4.7802">
        <ele>172.399993896</ele>
        <time>2015-07-03T10:42:15.394Z</time>
      </trkpt>
      <trkpt lat="45.9402" lon="4.78012">
        <ele>172.300003052</ele>
        <time>2015-07-03T10:42:16.373Z</time>
      </trkpt>
      <trkpt lat="45.94021" lon="4.78004">
        <ele>172.199996948</ele>
        <time>2015-07-03T10:42:17.376Z</time>
      </trkpt>
      <trkpt lat="45.94022" lon="4.77995">
        <ele>172.300003052</ele>
        <time>2015-07-03T10:42:18.38Z</time>
      </trkpt>
      <trkpt lat="45.94022" lon="4.77987">
        <ele>172.5</ele>
        <time>2015-07-03T10:42:19.372Z</time>
      </trkpt>
      <trkpt lat="45.94022" lon="4.77979">
        <ele>172.800003052</ele>
        <time>2015-07-03T10:42:20.377Z</time>
      </trkpt>
      <trkpt lat="45.94023" lon="4.77971">
        <ele>173.100006104</ele>
        <time>2015-07-03T10:42:21.373Z</time>
      </trkpt>
      <trkpt lat="45.94025" lon="4.77962">
        <ele>173.300003052</ele>
        <time>2015-07-03T10:42:22.373Z</time>
      </trkpt>
      <trkpt lat="45.94025" lon="4.77954">
        <ele>173.300003052</ele>
        <time>2015-07-03T10:42:23.379Z</time>
      </trkpt>
      <trkpt lat="45.94027" lon="4.77946">
        <ele>173.5</ele>
        <time>2015-07-03T10:42:24.409Z</time>
      </trkpt>
      <trkpt lat="45.94029" lon="4.77939">
        <ele>173.899993896</ele>
        <time>2015-07-03T10:42:25.376Z</time>
      </trkpt>
      <trkpt lat="45.94029" lon="4.77931">
        <ele>174.5</ele>
        <time>2015-07-03T10:42:26.409Z</time>
      </trkpt>
      <trkpt lat="45.94028" lon="4.77924">
        <ele>174.699996948</ele>
        <time>2015-07-03T10:42:27.378Z</time>
      </trkpt>
      <trkpt lat="45.94022" lon="4.77921">
        <ele>174.699996948</ele>
        <time>2015-07-03T10:42:28.394Z</time>
      </trkpt>
      <trkpt lat="45.94017" lon="4.77919">
        <ele>174.800003052</ele>
        <time>2015-07-03T10:42:29.374Z</time>
      </trkpt>
      <trkpt lat="45.94013" lon="4.77919">
        <ele>174.800003052</ele>
        <time>2015-07-03T10:42:30.372Z</time>
      </trkpt>
      <trkpt lat="45.94007" lon="4.77919">
        <ele>174.800003052</ele>
        <time>2015-07-03T10:42:31.375Z</time>
      </trkpt>
      <trkpt lat="45.93999" lon="4.77922">
        <ele>174.899993896</ele>
        <time>2015-07-03T10:42:32.377Z</time>
      </trkpt>
      <trkpt lat="45.93992" lon="4.77926">
        <ele>175.100006104</ele>
        <time>2015-07-03T10:42:33.375Z</time>
      </trkpt>
      <trkpt lat="45.93985" lon="4.77929">
        <ele>175.100006104</ele>
        <time>2015-07-03T10:42:34.371Z</time>
      </trkpt>
      <trkpt lat="45.93977" lon="4.77936">
        <ele>175.199996948</ele>
        <time>2015-07-03T10:42:35.406Z</time>
      </trkpt>
      <trkpt lat="45.93968" lon="4.77945">
        <ele>175.399993896</ele>
        <time>2015-07-03T10:42:36.373Z</time>
      </trkpt>
      <trkpt lat="45.93961" lon="4.77954">
        <ele>175.300003052</ele>
        <time>2015-07-03T10:42:37.372Z</time>
      </trkpt>
      <trkpt lat="45.93952" lon="4.77962">
        <ele>175.100006104</ele>
        <time>2015-07-03T10:42:38.378Z</time>
      </trkpt>
      <trkpt lat="45.93944" lon="4.77967">
        <ele>175.300003052</ele>
        <time>2015-07-03T10:42:39.376Z</time>
      </trkpt>
      <trkpt lat="45.93936" lon="4.77973">
        <ele>175.199996948</ele>
        <time>2015-07-03T10:42:40.378Z</time>
      </trkpt>
      <trkpt lat="45.93928" lon="4.77978">
        <ele>175.199996948</ele>
        <time>2015-07-03T10:42:41.372Z</time>
      </trkpt>
      <trkpt lat="45.9392" lon="4.77982">
        <ele>175.300003052</ele>
        <time>2015-07-03T10:42:42.389Z</time>
      </trkpt>
      <trkpt lat="45.93911" lon="4.77985">
        <ele>174.600006104</ele>
        <time>2015-07-03T10:42:43.377Z</time>
      </trkpt>
      <trkpt lat="45.93904" lon="4.7799">
        <ele>174.300003052</ele>
        <time>2015-07-03T10:42:44.381Z</time>
      </trkpt>
      <trkpt lat="45.939" lon="4.77995">
        <ele>174</ele>
        <time>2015-07-03T10:42:45.373Z</time>
      </trkpt>
      <trkpt lat="45.93896" lon="4.77999">
        <ele>173.800003052</ele>
        <time>2015-07-03T10:42:46.376Z</time>
      </trkpt>
      <trkpt lat="45.93889" lon="4.78007">
        <ele>173.300003052</ele>
        <time>2015-07-03T10:42:48.375Z</time>
      </trkpt>
      <trkpt lat="45.93886" lon="4.78009">
        <ele>173</ele>
        <time>2015-07-03T10:42:49.372Z</time>
      </trkpt>
      <trkpt lat="45.93878" lon="4.78015">
        <ele>172.100006104</ele>
        <time>2015-07-03T10:42:52.374Z</time>
      </trkpt>
      <trkpt lat="45.93875" lon="4.78016">
        <ele>172</ele>
        <time>2015-07-03T10:42:53.375Z</time>
      </trkpt>
      <trkpt lat="45.93866" lon="4.78014">
        <ele>171.5</ele>
        <time>2015-07-03T10:42:56.377Z</time>
      </trkpt>
      <trkpt lat="45.93861" lon="4.78005">
        <ele>171.399993896</ele>
        <time>2015-07-03T10:42:57.377Z</time>
      </trkpt>
      <trkpt lat="45.93855" lon="4.77996">
        <ele>171.199996948</ele>
        <time>2015-07-03T10:42:59.47Z</time>
      </trkpt>
      <trkpt lat="45.93853" lon="4.7799">
        <ele>171</ele>
        <time>2015-07-03T10:43:00.4Z</time>
      </trkpt>
      <trkpt lat="45.93851" lon="4.77986">
        <ele>170.800003052</ele>
        <time>2015-07-03T10:43:01.629Z</time>
      </trkpt>
      <trkpt lat="45.93846" lon="4.77982">
        <ele>170.399993896</ele>
        <time>2015-07-03T10:43:02.381Z</time>
      </trkpt>
      <trkpt lat="45.93842" lon="4.77971">
        <ele>169.699996948</ele>
        <time>2015-07-03T10:43:03.394Z</time>
      </trkpt>
      <trkpt lat="45.93836" lon="4.77961">
        <ele>169.100006104</ele>
        <time>2015-07-03T10:43:04.38Z</time>
      </trkpt>
      <trkpt lat="45.93827" lon="4.77958">
        <ele>170.399993896</ele>
        <time>2015-07-03T10:43:05.396Z</time>
      </trkpt>
      <trkpt lat="45.93822" lon="4.77952">
        <ele>170.399993896</ele>
        <time>2015-07-03T10:43:06.381Z</time>
      </trkpt>
      <trkpt lat="45.93816" lon="4.77947">
        <ele>170.300003052</ele>
        <time>2015-07-03T10:43:07.373Z</time>
      </trkpt>
      <trkpt lat="45.93811" lon="4.77942">
        <ele>170.100006104</ele>
        <time>2015-07-03T10:43:08.375Z</time>
      </trkpt>
      <trkpt lat="45.93805" lon="4.77937">
        <ele>169.600006104</ele>
        <time>2015-07-03T10:43:09.376Z</time>
      </trkpt>
      <trkpt lat="45.93801" lon="4.77931">
        <ele>169.800003052</ele>
        <time>2015-07-03T10:43:10.406Z</time>
      </trkpt>
      <trkpt lat="45.93797" lon="4.77925">
        <ele>169.600006104</ele>
        <time>2015-07-03T10:43:11.379Z</time>
      </trkpt>
      <trkpt lat="45.93792" lon="4.77919">
        <ele>169.5</ele>
        <time>2015-07-03T10:43:12.376Z</time>
      </trkpt>
      <trkpt lat="45.93788" lon="4.77913">
        <ele>169.5</ele>
        <time>2015-07-03T10:43:13.374Z</time>
      </trkpt>
      <trkpt lat="45.93783" lon="4.77907">
        <ele>169.300003052</ele>
        <time>2015-07-03T10:43:14.392Z</time>
      </trkpt>
      <trkpt lat="45.93778" lon="4.77901">
        <ele>169.199996948</ele>
        <time>2015-07-03T10:43:15.374Z</time>
      </trkpt>
      <trkpt lat="45.93773" lon="4.77895">
        <ele>169.199996948</ele>
        <time>2015-07-03T10:43:16.376Z</time>
      </trkpt>
      <trkpt lat="45.93768" lon="4.77889">
        <ele>169.300003052</ele>
        <time>2015-07-03T10:43:17.376Z</time>
      </trkpt>
      <trkpt lat="45.93764" lon="4.77884">
        <ele>169.5</ele>
        <time>2015-07-03T10:43:18.375Z</time>
      </trkpt>
      <trkpt lat="45.93759" lon="4.77878">
        <ele>169.399993896</ele>
        <time>2015-07-03T10:43:19.397Z</time>
      </trkpt>
      <trkpt lat="45.93755" lon="4.77872">
        <ele>169.300003052</ele>
        <time>2015-07-03T10:43:20.417Z</time>
      </trkpt>
      <trkpt lat="45.9375" lon="4.77867">
        <ele>169.399993896</ele>
        <time>2015-07-03T10:43:21.376Z</time>
      </trkpt>
      <trkpt lat="45.93746" lon="4.77862">
        <ele>169.300003052</ele>
        <time>2015-07-03T10:43:22.376Z</time>
      </trkpt>
      <trkpt lat="45.93741" lon="4.77856">
        <ele>169.399993896</ele>
        <time>2015-07-03T10:43:23.374Z</time>
      </trkpt>
      <trkpt lat="45.93737" lon="4.7785">
        <ele>169.300003052</ele>
        <time>2015-07-03T10:43:24.377Z</time>
      </trkpt>
      <trkpt lat="45.93732" lon="4.77844">
        <ele>169.199996948</ele>
        <time>2015-07-03T10:43:25.375Z</time>
      </trkpt>
      <trkpt lat="45.93729" lon="4.77837">
        <ele>168.699996948</ele>
        <time>2015-07-03T10:43:26.459Z</time>
      </trkpt>
      <trkpt lat="45.93725" lon="4.77831">
        <ele>168.5</ele>
        <time>2015-07-03T10:43:27.376Z</time>
      </trkpt>
      <trkpt lat="45.9372" lon="4.77827">
        <ele>168.300003052</ele>
        <time>2015-07-03T10:43:28.375Z</time>
      </trkpt>
      <trkpt lat="45.93715" lon="4.77821">
        <ele>168.199996948</ele>
        <time>2015-07-03T10:43:29.378Z</time>
      </trkpt>
      <trkpt lat="45.93709" lon="4.77814">
        <ele>168.100006104</ele>
        <time>2015-07-03T10:43:30.399Z</time>
      </trkpt>
      <trkpt lat="45.93704" lon="4.77808">
        <ele>167.899993896</ele>
        <time>2015-07-03T10:43:31.376Z</time>
      </trkpt>
      <trkpt lat="45.93699" lon="4.77801">
        <ele>167.699996948</ele>
        <time>2015-07-03T10:43:32.456Z</time>
      </trkpt>
      <trkpt lat="45.93693" lon="4.77794">
        <ele>167.600006104</ele>
        <time>2015-07-03T10:43:33.374Z</time>
      </trkpt>
      <trkpt lat="45.93688" lon="4.77787">
        <ele>167.5</ele>
        <time>2015-07-03T10:43:34.376Z</time>
      </trkpt>
      <trkpt lat="45.93683" lon="4.77779">
        <ele>167.5</ele>
        <time>2015-07-03T10:43:35.377Z</time>
      </trkpt>
      <trkpt lat="45.93678" lon="4.77772">
        <ele>167.199996948</ele>
        <time>2015-07-03T10:43:36.381Z</time>
      </trkpt>
      <trkpt lat="45.93674" lon="4.77765">
        <ele>167.199996948</ele>
        <time>2015-07-03T10:43:37.376Z</time>
      </trkpt>
      <trkpt lat="45.93669" lon="4.77757">
        <ele>167.100006104</ele>
        <time>2015-07-03T10:43:38.374Z</time>
      </trkpt>
      <trkpt lat="45.93664" lon="4.77749">
        <ele>167</ele>
        <time>2015-07-03T10:43:39.377Z</time>
      </trkpt>
      <trkpt lat="45.93658" lon="4.7774">
        <ele>166.800003052</ele>
        <time>2015-07-03T10:43:40.4Z</time>
      </trkpt>
      <trkpt lat="45.93653" lon="4.77731">
        <ele>166.5</ele>
        <time>2015-07-03T10:43:41.392Z</time>
      </trkpt>
      <trkpt lat="45.93648" lon="4.77721">
        <ele>166.300003052</ele>
        <time>2015-07-03T10:43:42.377Z</time>
      </trkpt>
      <trkpt lat="45.93643" lon="4.77712">
        <ele>165.899993896</ele>
        <time>2015-07-03T10:43:43.377Z</time>
      </trkpt>
      <trkpt lat="45.93638" lon="4.77703">
        <ele>165.5</ele>
        <time>2015-07-03T10:43:44.375Z</time>
      </trkpt>
      <trkpt lat="45.93632" lon="4.77694">
        <ele>165.199996948</ele>
        <time>2015-07-03T10:43:45.374Z</time>
      </trkpt>
      <trkpt lat="45.93627" lon="4.77684">
        <ele>165.100006104</ele>
        <time>2015-07-03T10:43:46.376Z</time>
      </trkpt>
      <trkpt lat="45.93623" lon="4.77674">
        <ele>165.399993896</ele>
        <time>2015-07-03T10:43:47.377Z</time>
      </trkpt>
      <trkpt lat="45.93618" lon="4.77664">
        <ele>165.399993896</ele>
        <time>2015-07-03T10:43:48.378Z</time>
      </trkpt>
      <trkpt lat="45.93614" lon="4.77654">
        <ele>165.800003052</ele>
        <time>2015-07-03T10:43:49.377Z</time>
      </trkpt>
      <trkpt lat="45.93609" lon="4.77644">
        <ele>165.800003052</ele>
        <time>2015-07-03T10:43:50.391Z</time>
      </trkpt>
      <trkpt lat="45.93605" lon="4.77634">
        <ele>166</ele>
        <time>2015-07-03T10:43:51.375Z</time>
      </trkpt>
      <trkpt lat="45.93602" lon="4.77624">
        <ele>166.100006104</ele>
        <time>2015-07-03T10:43:52.391Z</time>
      </trkpt>
      <trkpt lat="45.93598" lon="4.77614">
        <ele>166.5</ele>
        <time>2015-07-03T10:43:53.419Z</time>
      </trkpt>
      <trkpt lat="45.93595" lon="4.77604">
        <ele>166.100006104</ele>
        <time>2015-07-03T10:43:54.376Z</time>
      </trkpt>
      <trkpt lat="45.93592" lon="4.77594">
        <ele>166.199996948</ele>
        <time>2015-07-03T10:43:55.378Z</time>
      </trkpt>
      <trkpt lat="45.93589" lon="4.77585">
        <ele>166.600006104</ele>
        <time>2015-07-03T10:43:56.376Z</time>
      </trkpt>
      <trkpt lat="45.93587" lon="4.77575">
        <ele>166</ele>
        <time>2015-07-03T10:43:57.373Z</time>
      </trkpt>
      <trkpt lat="45.93584" lon="4.77566">
        <ele>166.5</ele>
        <time>2015-07-03T10:43:58.376Z</time>
      </trkpt>
      <trkpt lat="45.93581" lon="4.77555">
        <ele>166.600006104</ele>
        <time>2015-07-03T10:43:59.377Z</time>
      </trkpt>
      <trkpt lat="45.93578" lon="4.77546">
        <ele>166.699996948</ele>
        <time>2015-07-03T10:44:00.376Z</time>
      </trkpt>
      <trkpt lat="45.93576" lon="4.77537">
        <ele>166.600006104</ele>
        <time>2015-07-03T10:44:01.375Z</time>
      </trkpt>
      <trkpt lat="45.93574" lon="4.77528">
        <ele>166.600006104</ele>
        <time>2015-07-03T10:44:02.376Z</time>
      </trkpt>
      <trkpt lat="45.93572" lon="4.77518">
        <ele>166.600006104</ele>
        <time>2015-07-03T10:44:03.376Z</time>
      </trkpt>
      <trkpt lat="45.9357" lon="4.77509">
        <ele>167</ele>
        <time>2015-07-03T10:44:04.377Z</time>
      </trkpt>
      <trkpt lat="45.93568" lon="4.775">
        <ele>167.5</ele>
        <time>2015-07-03T10:44:05.376Z</time>
      </trkpt>
      <trkpt lat="45.93565" lon="4.77491">
        <ele>167.800003052</ele>
        <time>2015-07-03T10:44:06.377Z</time>
      </trkpt>
      <trkpt lat="45.93562" lon="4.77481">
        <ele>167.800003052</ele>
        <time>2015-07-03T10:44:07.375Z</time>
      </trkpt>
      <trkpt lat="45.9356" lon="4.77472">
        <ele>168</ele>
        <time>2015-07-03T10:44:08.375Z</time>
      </trkpt>
      <trkpt lat="45.93559" lon="4.77462">
        <ele>168.300003052</ele>
        <time>2015-07-03T10:44:09.376Z</time>
      </trkpt>
      <trkpt lat="45.93557" lon="4.77452">
        <ele>168.399993896</ele>
        <time>2015-07-03T10:44:10.375Z</time>
      </trkpt>
      <trkpt lat="45.93555" lon="4.77443">
        <ele>168.600006104</ele>
        <time>2015-07-03T10:44:11.377Z</time>
      </trkpt>
      <trkpt lat="45.93555" lon="4.77433">
        <ele>168.300003052</ele>
        <time>2015-07-03T10:44:12.377Z</time>
      </trkpt>
      <trkpt lat="45.93552" lon="4.77423">
        <ele>168.300003052</ele>
        <time>2015-07-03T10:44:13.412Z</time>
      </trkpt>
      <trkpt lat="45.93549" lon="4.77413">
        <ele>168.600006104</ele>
        <time>2015-07-03T10:44:14.4Z</time>
      </trkpt>
      <trkpt lat="45.93547" lon="4.77403">
        <ele>168.399993896</ele>
        <time>2015-07-03T10:44:15.376Z</time>
      </trkpt>
      <trkpt lat="45.93545" lon="4.77394">
        <ele>168.399993896</ele>
        <time>2015-07-03T10:44:16.374Z</time>
      </trkpt>
      <trkpt lat="45.93543" lon="4.77385">
        <ele>168.399993896</ele>
        <time>2015-07-03T10:44:17.376Z</time>
      </trkpt>
      <trkpt lat="45.9354" lon="4.77375">
        <ele>168.399993896</ele>
        <time>2015-07-03T10:44:18.377Z</time>
      </trkpt>
      <trkpt lat="45.93537" lon="4.77366">
        <ele>168.399993896</ele>
        <time>2015-07-03T10:44:19.375Z</time>
      </trkpt>
      <trkpt lat="45.93535" lon="4.77356">
        <ele>168.399993896</ele>
        <time>2015-07-03T10:44:20.376Z</time>
      </trkpt>
      <trkpt lat="45.93533" lon="4.77346">
        <ele>168.5</ele>
        <time>2015-07-03T10:44:21.376Z</time>
      </trkpt>
      <trkpt lat="45.93531" lon="4.77336">
        <ele>168.5</ele>
        <time>2015-07-03T10:44:22.377Z</time>
      </trkpt>
      <trkpt lat="45.93529" lon="4.77326">
        <ele>168.199996948</ele>
        <time>2015-07-03T10:44:23.367Z</time>
      </trkpt>
      <trkpt lat="45.93527" lon="4.77317">
        <ele>168</ele>
        <time>2015-07-03T10:44:24.376Z</time>
      </trkpt>
      <trkpt lat="45.93525" lon="4.77307">
        <ele>167.899993896</ele>
        <time>2015-07-03T10:44:25.377Z</time>
      </trkpt>
      <trkpt lat="45.93522" lon="4.77297">
        <ele>168</ele>
        <time>2015-07-03T10:44:26.416Z</time>
      </trkpt>
      <trkpt lat="45.9352" lon="4.77288">
        <ele>168.199996948</ele>
        <time>2015-07-03T10:44:27.378Z</time>
      </trkpt>
      <trkpt lat="45.93518" lon="4.77278">
        <ele>168.5</ele>
        <time>2015-07-03T10:44:28.379Z</time>
      </trkpt>
      <trkpt lat="45.93516" lon="4.77267">
        <ele>168.600006104</ele>
        <time>2015-07-03T10:44:29.377Z</time>
      </trkpt>
      <trkpt lat="45.93513" lon="4.77258">
        <ele>168.899993896</ele>
        <time>2015-07-03T10:44:30.377Z</time>
      </trkpt>
      <trkpt lat="45.93511" lon="4.77248">
        <ele>169</ele>
        <time>2015-07-03T10:44:31.376Z</time>
      </trkpt>
      <trkpt lat="45.9351" lon="4.77239">
        <ele>169.199996948</ele>
        <time>2015-07-03T10:44:32.374Z</time>
      </trkpt>
      <trkpt lat="45.93508" lon="4.7723">
        <ele>169.100006104</ele>
        <time>2015-07-03T10:44:33.376Z</time>
      </trkpt>
      <trkpt lat="45.93507" lon="4.7722">
        <ele>169.100006104</ele>
        <time>2015-07-03T10:44:34.392Z</time>
      </trkpt>
      <trkpt lat="45.93505" lon="4.77212">
        <ele>169.100006104</ele>
        <time>2015-07-03T10:44:35.375Z</time>
      </trkpt>
      <trkpt lat="45.93503" lon="4.77204">
        <ele>169.100006104</ele>
        <time>2015-07-03T10:44:36.376Z</time>
      </trkpt>
      <trkpt lat="45.93501" lon="4.77196">
        <ele>169.100006104</ele>
        <time>2015-07-03T10:44:37.377Z</time>
      </trkpt>
      <trkpt lat="45.93499" lon="4.77187">
        <ele>169</ele>
        <time>2015-07-03T10:44:38.373Z</time>
      </trkpt>
      <trkpt lat="45.93497" lon="4.77179">
        <ele>168.899993896</ele>
        <time>2015-07-03T10:44:39.376Z</time>
      </trkpt>
      <trkpt lat="45.93495" lon="4.7717">
        <ele>168.699996948</ele>
        <time>2015-07-03T10:44:40.376Z</time>
      </trkpt>
      <trkpt lat="45.93493" lon="4.77161">
        <ele>168.899993896</ele>
        <time>2015-07-03T10:44:41.39Z</time>
      </trkpt>
      <trkpt lat="45.93491" lon="4.77153">
        <ele>168.800003052</ele>
        <time>2015-07-03T10:44:42.378Z</time>
      </trkpt>
      <trkpt lat="45.9349" lon="4.77145">
        <ele>168.800003052</ele>
        <time>2015-07-03T10:44:43.378Z</time>
      </trkpt>
      <trkpt lat="45.93487" lon="4.77135">
        <ele>168.899993896</ele>
        <time>2015-07-03T10:44:44.419Z</time>
      </trkpt>
      <trkpt lat="45.93484" lon="4.77126">
        <ele>168.800003052</ele>
        <time>2015-07-03T10:44:45.375Z</time>
      </trkpt>
      <trkpt lat="45.93483" lon="4.77116">
        <ele>168.699996948</ele>
        <time>2015-07-03T10:44:46.377Z</time>
      </trkpt>
      <trkpt lat="45.93481" lon="4.77106">
        <ele>168.699996948</ele>
        <time>2015-07-03T10:44:47.376Z</time>
      </trkpt>
      <trkpt lat="45.93479" lon="4.77096">
        <ele>168.899993896</ele>
        <time>2015-07-03T10:44:48.376Z</time>
      </trkpt>
      <trkpt lat="45.93478" lon="4.77086">
        <ele>169.100006104</ele>
        <time>2015-07-03T10:44:49.376Z</time>
      </trkpt>
      <trkpt lat="45.93476" lon="4.77076">
        <ele>169</ele>
        <time>2015-07-03T10:44:50.375Z</time>
      </trkpt>
      <trkpt lat="45.93474" lon="4.77066">
        <ele>169.199996948</ele>
        <time>2015-07-03T10:44:51.377Z</time>
      </trkpt>
      <trkpt lat="45.93472" lon="4.77056">
        <ele>169.399993896</ele>
        <time>2015-07-03T10:44:52.374Z</time>
      </trkpt>
      <trkpt lat="45.93471" lon="4.77046">
        <ele>169.699996948</ele>
        <time>2015-07-03T10:44:53.377Z</time>
      </trkpt>
      <trkpt lat="45.93469" lon="4.77036">
        <ele>169.5</ele>
        <time>2015-07-03T10:44:54.401Z</time>
      </trkpt>
      <trkpt lat="45.93468" lon="4.77025">
        <ele>169.800003052</ele>
        <time>2015-07-03T10:44:55.392Z</time>
      </trkpt>
      <trkpt lat="45.93466" lon="4.77015">
        <ele>170</ele>
        <time>2015-07-03T10:44:56.376Z</time>
      </trkpt>
      <trkpt lat="45.93466" lon="4.77004">
        <ele>170</ele>
        <time>2015-07-03T10:44:57.376Z</time>
      </trkpt>
      <trkpt lat="45.93466" lon="4.76993">
        <ele>170.199996948</ele>
        <time>2015-07-03T10:44:58.377Z</time>
      </trkpt>
      <trkpt lat="45.93465" lon="4.76983">
        <ele>170.300003052</ele>
        <time>2015-07-03T10:44:59.374Z</time>
      </trkpt>
      <trkpt lat="45.93464" lon="4.76973">
        <ele>170.300003052</ele>
        <time>2015-07-03T10:45:00.378Z</time>
      </trkpt>
      <trkpt lat="45.93463" lon="4.76963">
        <ele>170</ele>
        <time>2015-07-03T10:45:01.377Z</time>
      </trkpt>
      <trkpt lat="45.93461" lon="4.76955">
        <ele>169.800003052</ele>
        <time>2015-07-03T10:45:02.384Z</time>
      </trkpt>
      <trkpt lat="45.93459" lon="4.76946">
        <ele>169.699996948</ele>
        <time>2015-07-03T10:45:03.376Z</time>
      </trkpt>
      <trkpt lat="45.93457" lon="4.76938">
        <ele>169.399993896</ele>
        <time>2015-07-03T10:45:04.377Z</time>
      </trkpt>
      <trkpt lat="45.93456" lon="4.7693">
        <ele>169.300003052</ele>
        <time>2015-07-03T10:45:05.377Z</time>
      </trkpt>
      <trkpt lat="45.93454" lon="4.76921">
        <ele>169.300003052</ele>
        <time>2015-07-03T10:45:06.378Z</time>
      </trkpt>
      <trkpt lat="45.93452" lon="4.76912">
        <ele>169.399993896</ele>
        <time>2015-07-03T10:45:07.376Z</time>
      </trkpt>
      <trkpt lat="45.9345" lon="4.76904">
        <ele>169.699996948</ele>
        <time>2015-07-03T10:45:08.373Z</time>
      </trkpt>
      <trkpt lat="45.93448" lon="4.76895">
        <ele>169.699996948</ele>
        <time>2015-07-03T10:45:09.376Z</time>
      </trkpt>
      <trkpt lat="45.93445" lon="4.76887">
        <ele>169.600006104</ele>
        <time>2015-07-03T10:45:10.375Z</time>
      </trkpt>
      <trkpt lat="45.93443" lon="4.76878">
        <ele>169.300003052</ele>
        <time>2015-07-03T10:45:11.391Z</time>
      </trkpt>
      <trkpt lat="45.9344" lon="4.7687">
        <ele>168.800003052</ele>
        <time>2015-07-03T10:45:12.376Z</time>
      </trkpt>
      <trkpt lat="45.93437" lon="4.76862">
        <ele>168.600006104</ele>
        <time>2015-07-03T10:45:13.377Z</time>
      </trkpt>
      <trkpt lat="45.93433" lon="4.76854">
        <ele>168.600006104</ele>
        <time>2015-07-03T10:45:14.387Z</time>
      </trkpt>
      <trkpt lat="45.9343" lon="4.76847">
        <ele>168.399993896</ele>
        <time>2015-07-03T10:45:15.377Z</time>
      </trkpt>
      <trkpt lat="45.93426" lon="4.76839">
        <ele>168.300003052</ele>
        <time>2015-07-03T10:45:16.374Z</time>
      </trkpt>
      <trkpt lat="45.93421" lon="4.76831">
        <ele>168</ele>
        <time>2015-07-03T10:45:17.375Z</time>
      </trkpt>
      <trkpt lat="45.93417" lon="4.76824">
        <ele>168.199996948</ele>
        <time>2015-07-03T10:45:18.376Z</time>
      </trkpt>
      <trkpt lat="45.93412" lon="4.76817">
        <ele>168.199996948</ele>
        <time>2015-07-03T10:45:19.374Z</time>
      </trkpt>
      <trkpt lat="45.93407" lon="4.7681">
        <ele>168.100006104</ele>
        <time>2015-07-03T10:45:20.376Z</time>
      </trkpt>
      <trkpt lat="45.93402" lon="4.76804">
        <ele>168</ele>
        <time>2015-07-03T10:45:21.372Z</time>
      </trkpt>
      <trkpt lat="45.93397" lon="4.76797">
        <ele>168</ele>
        <time>2015-07-03T10:45:22.377Z</time>
      </trkpt>
      <trkpt lat="45.93392" lon="4.7679">
        <ele>167.800003052</ele>
        <time>2015-07-03T10:45:23.374Z</time>
      </trkpt>
      <trkpt lat="45.93386" lon="4.76785">
        <ele>167.699996948</ele>
        <time>2015-07-03T10:45:24.376Z</time>
      </trkpt>
      <trkpt lat="45.93381" lon="4.76779">
        <ele>167.699996948</ele>
        <time>2015-07-03T10:45:25.373Z</time>
      </trkpt>
      <trkpt lat="45.93375" lon="4.76773">
        <ele>167.399993896</ele>
        <time>2015-07-03T10:45:26.374Z</time>
      </trkpt>
      <trkpt lat="45.93369" lon="4.76768">
        <ele>167.300003052</ele>
        <time>2015-07-03T10:45:27.377Z</time>
      </trkpt>
      <trkpt lat="45.93364" lon="4.76762">
        <ele>167.199996948</ele>
        <time>2015-07-03T10:45:28.373Z</time>
      </trkpt>
      <trkpt lat="45.93358" lon="4.76757">
        <ele>167.399993896</ele>
        <time>2015-07-03T10:45:29.377Z</time>
      </trkpt>
      <trkpt lat="45.93353" lon="4.76753">
        <ele>167.399993896</ele>
        <time>2015-07-03T10:45:30.376Z</time>
      </trkpt>
      <trkpt lat="45.93348" lon="4.76748">
        <ele>167.600006104</ele>
        <time>2015-07-03T10:45:31.373Z</time>
      </trkpt>
      <trkpt lat="45.93343" lon="4.76743">
        <ele>168</ele>
        <time>2015-07-03T10:45:32.376Z</time>
      </trkpt>
      <trkpt lat="45.93337" lon="4.76737">
        <ele>168.199996948</ele>
        <time>2015-07-03T10:45:33.374Z</time>
      </trkpt>
      <trkpt lat="45.93332" lon="4.76732">
        <ele>168.300003052</ele>
        <time>2015-07-03T10:45:34.373Z</time>
      </trkpt>
      <trkpt lat="45.93328" lon="4.76728">
        <ele>168.199996948</ele>
        <time>2015-07-03T10:45:35.373Z</time>
      </trkpt>
      <trkpt lat="45.93323" lon="4.76724">
        <ele>168.300003052</ele>
        <time>2015-07-03T10:45:36.415Z</time>
      </trkpt>
      <trkpt lat="45.93318" lon="4.76719">
        <ele>168.5</ele>
        <time>2015-07-03T10:45:37.426Z</time>
      </trkpt>
      <trkpt lat="45.93313" lon="4.76714">
        <ele>168.399993896</ele>
        <time>2015-07-03T10:45:38.382Z</time>
      </trkpt>
      <trkpt lat="45.93309" lon="4.76709">
        <ele>168.600006104</ele>
        <time>2015-07-03T10:45:39.373Z</time>
      </trkpt>
      <trkpt lat="45.93304" lon="4.76704">
        <ele>168.399993896</ele>
        <time>2015-07-03T10:45:40.373Z</time>
      </trkpt>
      <trkpt lat="45.93298" lon="4.76699">
        <ele>168</ele>
        <time>2015-07-03T10:45:41.373Z</time>
      </trkpt>
      <trkpt lat="45.93293" lon="4.76694">
        <ele>168</ele>
        <time>2015-07-03T10:45:42.378Z</time>
      </trkpt>
      <trkpt lat="45.93287" lon="4.7669">
        <ele>167.399993896</ele>
        <time>2015-07-03T10:45:43.374Z</time>
      </trkpt>
      <trkpt lat="45.93281" lon="4.76685">
        <ele>167.800003052</ele>
        <time>2015-07-03T10:45:44.374Z</time>
      </trkpt>
      <trkpt lat="45.93276" lon="4.7668">
        <ele>167.899993896</ele>
        <time>2015-07-03T10:45:45.376Z</time>
      </trkpt>
      <trkpt lat="45.9327" lon="4.76675">
        <ele>168.100006104</ele>
        <time>2015-07-03T10:45:46.374Z</time>
      </trkpt>
      <trkpt lat="45.93266" lon="4.7667">
        <ele>168.100006104</ele>
        <time>2015-07-03T10:45:47.374Z</time>
      </trkpt>
      <trkpt lat="45.93261" lon="4.76664">
        <ele>168.100006104</ele>
        <time>2015-07-03T10:45:48.379Z</time>
      </trkpt>
      <trkpt lat="45.93256" lon="4.76659">
        <ele>168.100006104</ele>
        <time>2015-07-03T10:45:49.375Z</time>
      </trkpt>
      <trkpt lat="45.93252" lon="4.76654">
        <ele>168.100006104</ele>
        <time>2015-07-03T10:45:50.422Z</time>
      </trkpt>
      <trkpt lat="45.93247" lon="4.76649">
        <ele>168</ele>
        <time>2015-07-03T10:45:51.383Z</time>
      </trkpt>
      <trkpt lat="45.93243" lon="4.76644">
        <ele>168.100006104</ele>
        <time>2015-07-03T10:45:52.38Z</time>
      </trkpt>
      <trkpt lat="45.93239" lon="4.7664">
        <ele>168.5</ele>
        <time>2015-07-03T10:45:53.403Z</time>
      </trkpt>
      <trkpt lat="45.93235" lon="4.76635">
        <ele>168.800003052</ele>
        <time>2015-07-03T10:45:54.382Z</time>
      </trkpt>
      <trkpt lat="45.9323" lon="4.7663">
        <ele>169.100006104</ele>
        <time>2015-07-03T10:45:55.381Z</time>
      </trkpt>
      <trkpt lat="45.93226" lon="4.76624">
        <ele>169.300003052</ele>
        <time>2015-07-03T10:45:56.383Z</time>
      </trkpt>
      <trkpt lat="45.9322" lon="4.7662">
        <ele>169.199996948</ele>
        <time>2015-07-03T10:45:57.379Z</time>
      </trkpt>
      <trkpt lat="45.93213" lon="4.76614">
        <ele>168.699996948</ele>
        <time>2015-07-03T10:45:58.383Z</time>
      </trkpt>
      <trkpt lat="45.93209" lon="4.76609">
        <ele>168.699996948</ele>
        <time>2015-07-03T10:45:59.379Z</time>
      </trkpt>
      <trkpt lat="45.93204" lon="4.76603">
        <ele>168.800003052</ele>
        <time>2015-07-03T10:46:00.403Z</time>
      </trkpt>
      <trkpt lat="45.93199" lon="4.76598">
        <ele>168.699996948</ele>
        <time>2015-07-03T10:46:01.382Z</time>
      </trkpt>
      <trkpt lat="45.93194" lon="4.76592">
        <ele>168.899993896</ele>
        <time>2015-07-03T10:46:02.382Z</time>
      </trkpt>
      <trkpt lat="45.93188" lon="4.76587">
        <ele>169.100006104</ele>
        <time>2015-07-03T10:46:03.421Z</time>
      </trkpt>
      <trkpt lat="45.93183" lon="4.76582">
        <ele>169.199996948</ele>
        <time>2015-07-03T10:46:04.378Z</time>
      </trkpt>
      <trkpt lat="45.93178" lon="4.76575">
        <ele>169.399993896</ele>
        <time>2015-07-03T10:46:05.381Z</time>
      </trkpt>
      <trkpt lat="45.93172" lon="4.7657">
        <ele>169.600006104</ele>
        <time>2015-07-03T10:46:06.382Z</time>
      </trkpt>
      <trkpt lat="45.93167" lon="4.76565">
        <ele>169.800003052</ele>
        <time>2015-07-03T10:46:07.379Z</time>
      </trkpt>
      <trkpt lat="45.93162" lon="4.7656">
        <ele>169.800003052</ele>
        <time>2015-07-03T10:46:08.377Z</time>
      </trkpt>
      <trkpt lat="45.93157" lon="4.76556">
        <ele>169.800003052</ele>
        <time>2015-07-03T10:46:09.405Z</time>
      </trkpt>
      <trkpt lat="45.93153" lon="4.76551">
        <ele>170</ele>
        <time>2015-07-03T10:46:10.377Z</time>
      </trkpt>
      <trkpt lat="45.93149" lon="4.76546">
        <ele>170.199996948</ele>
        <time>2015-07-03T10:46:11.377Z</time>
      </trkpt>
      <trkpt lat="45.93144" lon="4.76541">
        <ele>170.399993896</ele>
        <time>2015-07-03T10:46:12.383Z</time>
      </trkpt>
      <trkpt lat="45.93137" lon="4.76535">
        <ele>170.600006104</ele>
        <time>2015-07-03T10:46:13.379Z</time>
      </trkpt>
      <trkpt lat="45.93134" lon="4.76528">
        <ele>170.800003052</ele>
        <time>2015-07-03T10:46:14.376Z</time>
      </trkpt>
      <trkpt lat="45.93129" lon="4.76524">
        <ele>171.100006104</ele>
        <time>2015-07-03T10:46:15.379Z</time>
      </trkpt>
      <trkpt lat="45.93124" lon="4.76519">
        <ele>171.199996948</ele>
        <time>2015-07-03T10:46:16.377Z</time>
      </trkpt>
      <trkpt lat="45.93118" lon="4.76514">
        <ele>171.399993896</ele>
        <time>2015-07-03T10:46:17.379Z</time>
      </trkpt>
      <trkpt lat="45.93113" lon="4.76509">
        <ele>171.5</ele>
        <time>2015-07-03T10:46:18.378Z</time>
      </trkpt>
      <trkpt lat="45.93108" lon="4.76503">
        <ele>171.600006104</ele>
        <time>2015-07-03T10:46:19.372Z</time>
      </trkpt>
      <trkpt lat="45.93102" lon="4.76498">
        <ele>171.699996948</ele>
        <time>2015-07-03T10:46:20.378Z</time>
      </trkpt>
      <trkpt lat="45.93097" lon="4.76493">
        <ele>171.800003052</ele>
        <time>2015-07-03T10:46:21.376Z</time>
      </trkpt>
      <trkpt lat="45.93092" lon="4.76488">
        <ele>172</ele>
        <time>2015-07-03T10:46:22.374Z</time>
      </trkpt>
      <trkpt lat="45.93088" lon="4.76484">
        <ele>172.100006104</ele>
        <time>2015-07-03T10:46:23.376Z</time>
      </trkpt>
      <trkpt lat="45.93082" lon="4.76479">
        <ele>172.300003052</ele>
        <time>2015-07-03T10:46:24.378Z</time>
      </trkpt>
      <trkpt lat="45.93077" lon="4.76474">
        <ele>172.399993896</ele>
        <time>2015-07-03T10:46:25.457Z</time>
      </trkpt>
      <trkpt lat="45.93071" lon="4.76469">
        <ele>172.600006104</ele>
        <time>2015-07-03T10:46:26.377Z</time>
      </trkpt>
      <trkpt lat="45.93066" lon="4.76464">
        <ele>172.800003052</ele>
        <time>2015-07-03T10:46:27.379Z</time>
      </trkpt>
      <trkpt lat="45.93061" lon="4.76459">
        <ele>173</ele>
        <time>2015-07-03T10:46:28.378Z</time>
      </trkpt>
      <trkpt lat="45.93056" lon="4.76454">
        <ele>173.100006104</ele>
        <time>2015-07-03T10:46:29.377Z</time>
      </trkpt>
      <trkpt lat="45.93051" lon="4.7645">
        <ele>173.300003052</ele>
        <time>2015-07-03T10:46:30.422Z</time>
      </trkpt>
      <trkpt lat="45.93045" lon="4.76444">
        <ele>173.300003052</ele>
        <time>2015-07-03T10:46:31.377Z</time>
      </trkpt>
      <trkpt lat="45.93039" lon="4.76438">
        <ele>173.399993896</ele>
        <time>2015-07-03T10:46:32.375Z</time>
      </trkpt>
      <trkpt lat="45.93033" lon="4.76433">
        <ele>173.300003052</ele>
        <time>2015-07-03T10:46:33.377Z</time>
      </trkpt>
      <trkpt lat="45.93027" lon="4.76427">
        <ele>173.300003052</ele>
        <time>2015-07-03T10:46:34.377Z</time>
      </trkpt>
      <trkpt lat="45.93021" lon="4.76422">
        <ele>173.300003052</ele>
        <time>2015-07-03T10:46:35.378Z</time>
      </trkpt>
      <trkpt lat="45.93015" lon="4.76416">
        <ele>173.399993896</ele>
        <time>2015-07-03T10:46:36.377Z</time>
      </trkpt>
      <trkpt lat="45.9301" lon="4.7641">
        <ele>173.399993896</ele>
        <time>2015-07-03T10:46:37.426Z</time>
      </trkpt>
      <trkpt lat="45.93005" lon="4.76404">
        <ele>173.300003052</ele>
        <time>2015-07-03T10:46:38.381Z</time>
      </trkpt>
      <trkpt lat="45.93" lon="4.764">
        <ele>173.300003052</ele>
        <time>2015-07-03T10:46:39.377Z</time>
      </trkpt>
      <trkpt lat="45.92994" lon="4.76396">
        <ele>173.300003052</ele>
        <time>2015-07-03T10:46:40.375Z</time>
      </trkpt>
      <trkpt lat="45.9299" lon="4.76391">
        <ele>173.5</ele>
        <time>2015-07-03T10:46:41.377Z</time>
      </trkpt>
      <trkpt lat="45.92985" lon="4.76386">
        <ele>173.600006104</ele>
        <time>2015-07-03T10:46:42.377Z</time>
      </trkpt>
      <trkpt lat="45.9298" lon="4.76381">
        <ele>173.899993896</ele>
        <time>2015-07-03T10:46:43.374Z</time>
      </trkpt>
      <trkpt lat="45.92975" lon="4.76376">
        <ele>174.100006104</ele>
        <time>2015-07-03T10:46:44.375Z</time>
      </trkpt>
      <trkpt lat="45.9297" lon="4.76371">
        <ele>174.399993896</ele>
        <time>2015-07-03T10:46:45.377Z</time>
      </trkpt>
      <trkpt lat="45.92966" lon="4.76367">
        <ele>174.600006104</ele>
        <time>2015-07-03T10:46:46.393Z</time>
      </trkpt>
      <trkpt lat="45.92961" lon="4.76363">
        <ele>174.800003052</ele>
        <time>2015-07-03T10:46:47.377Z</time>
      </trkpt>
      <trkpt lat="45.92956" lon="4.76358">
        <ele>174.899993896</ele>
        <time>2015-07-03T10:46:48.378Z</time>
      </trkpt>
      <trkpt lat="45.92952" lon="4.76353">
        <ele>174.800003052</ele>
        <time>2015-07-03T10:46:49.416Z</time>
      </trkpt>
      <trkpt lat="45.92946" lon="4.76348">
        <ele>174.699996948</ele>
        <time>2015-07-03T10:46:50.376Z</time>
      </trkpt>
      <trkpt lat="45.92942" lon="4.76343">
        <ele>174.899993896</ele>
        <time>2015-07-03T10:46:51.376Z</time>
      </trkpt>
      <trkpt lat="45.92937" lon="4.76338">
        <ele>174.899993896</ele>
        <time>2015-07-03T10:46:52.376Z</time>
      </trkpt>
      <trkpt lat="45.92931" lon="4.76333">
        <ele>175.100006104</ele>
        <time>2015-07-03T10:46:53.377Z</time>
      </trkpt>
      <trkpt lat="45.92926" lon="4.76327">
        <ele>175.399993896</ele>
        <time>2015-07-03T10:46:54.397Z</time>
      </trkpt>
      <trkpt lat="45.9292" lon="4.76323">
        <ele>175.5</ele>
        <time>2015-07-03T10:46:55.376Z</time>
      </trkpt>
      <trkpt lat="45.92915" lon="4.76317">
        <ele>175.699996948</ele>
        <time>2015-07-03T10:46:56.377Z</time>
      </trkpt>
      <trkpt lat="45.92909" lon="4.76312">
        <ele>175.800003052</ele>
        <time>2015-07-03T10:46:57.377Z</time>
      </trkpt>
      <trkpt lat="45.92903" lon="4.76307">
        <ele>176</ele>
        <time>2015-07-03T10:46:58.368Z</time>
      </trkpt>
      <trkpt lat="45.92898" lon="4.76301">
        <ele>176</ele>
        <time>2015-07-03T10:46:59.376Z</time>
      </trkpt>
      <trkpt lat="45.92892" lon="4.76296">
        <ele>176</ele>
        <time>2015-07-03T10:47:00.376Z</time>
      </trkpt>
      <trkpt lat="45.92887" lon="4.7629">
        <ele>176.100006104</ele>
        <time>2015-07-03T10:47:01.377Z</time>
      </trkpt>
      <trkpt lat="45.92881" lon="4.76284">
        <ele>176.199996948</ele>
        <time>2015-07-03T10:47:02.375Z</time>
      </trkpt>
      <trkpt lat="45.92876" lon="4.76279">
        <ele>176.300003052</ele>
        <time>2015-07-03T10:47:03.376Z</time>
      </trkpt>
      <trkpt lat="45.92871" lon="4.76274">
        <ele>176.100006104</ele>
        <time>2015-07-03T10:47:04.382Z</time>
      </trkpt>
      <trkpt lat="45.92866" lon="4.76267">
        <ele>176.199996948</ele>
        <time>2015-07-03T10:47:05.374Z</time>
      </trkpt>
      <trkpt lat="45.92861" lon="4.76261">
        <ele>176.199996948</ele>
        <time>2015-07-03T10:47:06.377Z</time>
      </trkpt>
      <trkpt lat="45.92856" lon="4.76256">
        <ele>176.100006104</ele>
        <time>2015-07-03T10:47:07.39Z</time>
      </trkpt>
      <trkpt lat="45.92851" lon="4.76251">
        <ele>176.100006104</ele>
        <time>2015-07-03T10:47:08.416Z</time>
      </trkpt>
      <trkpt lat="45.92845" lon="4.76246">
        <ele>176.100006104</ele>
        <time>2015-07-03T10:47:09.377Z</time>
      </trkpt>
      <trkpt lat="45.9284" lon="4.7624">
        <ele>176</ele>
        <time>2015-07-03T10:47:10.377Z</time>
      </trkpt>
      <trkpt lat="45.92835" lon="4.76235">
        <ele>175.800003052</ele>
        <time>2015-07-03T10:47:11.373Z</time>
      </trkpt>
      <trkpt lat="45.9283" lon="4.76229">
        <ele>175.600006104</ele>
        <time>2015-07-03T10:47:12.376Z</time>
      </trkpt>
      <trkpt lat="45.92824" lon="4.76224">
        <ele>175.699996948</ele>
        <time>2015-07-03T10:47:13.374Z</time>
      </trkpt>
      <trkpt lat="45.9282" lon="4.76219">
        <ele>175.5</ele>
        <time>2015-07-03T10:47:14.377Z</time>
      </trkpt>
      <trkpt lat="45.92813" lon="4.76212">
        <ele>175.5</ele>
        <time>2015-07-03T10:47:15.378Z</time>
      </trkpt>
      <trkpt lat="45.92807" lon="4.76205">
        <ele>175.300003052</ele>
        <time>2015-07-03T10:47:16.378Z</time>
      </trkpt>
      <trkpt lat="45.92802" lon="4.762">
        <ele>175.100006104</ele>
        <time>2015-07-03T10:47:17.373Z</time>
      </trkpt>
      <trkpt lat="45.92796" lon="4.76194">
        <ele>174.600006104</ele>
        <time>2015-07-03T10:47:18.377Z</time>
      </trkpt>
      <trkpt lat="45.92791" lon="4.76189">
        <ele>174.399993896</ele>
        <time>2015-07-03T10:47:19.373Z</time>
      </trkpt>
      <trkpt lat="45.92786" lon="4.76184">
        <ele>174.399993896</ele>
        <time>2015-07-03T10:47:20.378Z</time>
      </trkpt>
      <trkpt lat="45.92781" lon="4.76179">
        <ele>174.399993896</ele>
        <time>2015-07-03T10:47:21.376Z</time>
      </trkpt>
      <trkpt lat="45.92775" lon="4.76175">
        <ele>174.399993896</ele>
        <time>2015-07-03T10:47:22.377Z</time>
      </trkpt>
      <trkpt lat="45.9277" lon="4.76171">
        <ele>174.300003052</ele>
        <time>2015-07-03T10:47:23.377Z</time>
      </trkpt>
      <trkpt lat="45.92764" lon="4.76167">
        <ele>174.199996948</ele>
        <time>2015-07-03T10:47:24.406Z</time>
      </trkpt>
      <trkpt lat="45.92758" lon="4.76162">
        <ele>173.699996948</ele>
        <time>2015-07-03T10:47:25.376Z</time>
      </trkpt>
      <trkpt lat="45.92752" lon="4.76158">
        <ele>173.399993896</ele>
        <time>2015-07-03T10:47:26.375Z</time>
      </trkpt>
      <trkpt lat="45.92747" lon="4.76154">
        <ele>173.399993896</ele>
        <time>2015-07-03T10:47:27.376Z</time>
      </trkpt>
      <trkpt lat="45.92741" lon="4.76149">
        <ele>173.399993896</ele>
        <time>2015-07-03T10:47:28.391Z</time>
      </trkpt>
      <trkpt lat="45.92736" lon="4.76143">
        <ele>173.600006104</ele>
        <time>2015-07-03T10:47:29.375Z</time>
      </trkpt>
      <trkpt lat="45.92731" lon="4.76137">
        <ele>173.699996948</ele>
        <time>2015-07-03T10:47:30.383Z</time>
      </trkpt>
      <trkpt lat="45.92726" lon="4.76133">
        <ele>173.5</ele>
        <time>2015-07-03T10:47:31.377Z</time>
      </trkpt>
      <trkpt lat="45.92721" lon="4.76129">
        <ele>173.5</ele>
        <time>2015-07-03T10:47:32.373Z</time>
      </trkpt>
      <trkpt lat="45.92715" lon="4.76126">
        <ele>173.5</ele>
        <time>2015-07-03T10:47:33.376Z</time>
      </trkpt>
      <trkpt lat="45.92711" lon="4.76122">
        <ele>173.600006104</ele>
        <time>2015-07-03T10:47:34.375Z</time>
      </trkpt>
      <trkpt lat="45.92705" lon="4.7612">
        <ele>173.300003052</ele>
        <time>2015-07-03T10:47:35.377Z</time>
      </trkpt>
      <trkpt lat="45.92701" lon="4.76117">
        <ele>173.100006104</ele>
        <time>2015-07-03T10:47:36.406Z</time>
      </trkpt>
      <trkpt lat="45.92695" lon="4.76114">
        <ele>173.100006104</ele>
        <time>2015-07-03T10:47:37.378Z</time>
      </trkpt>
      <trkpt lat="45.9269" lon="4.76111">
        <ele>173</ele>
        <time>2015-07-03T10:47:38.375Z</time>
      </trkpt>
      <trkpt lat="45.92685" lon="4.76107">
        <ele>172.800003052</ele>
        <time>2015-07-03T10:47:39.376Z</time>
      </trkpt>
      <trkpt lat="45.9268" lon="4.76104">
        <ele>172.699996948</ele>
        <time>2015-07-03T10:47:40.376Z</time>
      </trkpt>
      <trkpt lat="45.92675" lon="4.76101">
        <ele>172.5</ele>
        <time>2015-07-03T10:47:41.376Z</time>
      </trkpt>
      <trkpt lat="45.92671" lon="4.76098">
        <ele>172.600006104</ele>
        <time>2015-07-03T10:47:42.378Z</time>
      </trkpt>
      <trkpt lat="45.92666" lon="4.76095">
        <ele>172.699996948</ele>
        <time>2015-07-03T10:47:43.377Z</time>
      </trkpt>
      <trkpt lat="45.92661" lon="4.76091">
        <ele>172.699996948</ele>
        <time>2015-07-03T10:47:44.375Z</time>
      </trkpt>
      <trkpt lat="45.92657" lon="4.76087">
        <ele>173.100006104</ele>
        <time>2015-07-03T10:47:45.378Z</time>
      </trkpt>
      <trkpt lat="45.92653" lon="4.76083">
        <ele>173</ele>
        <time>2015-07-03T10:47:46.373Z</time>
      </trkpt>
      <trkpt lat="45.92648" lon="4.76079">
        <ele>172.800003052</ele>
        <time>2015-07-03T10:47:47.373Z</time>
      </trkpt>
      <trkpt lat="45.92644" lon="4.76075">
        <ele>172.600006104</ele>
        <time>2015-07-03T10:47:48.376Z</time>
      </trkpt>
      <trkpt lat="45.92639" lon="4.76072">
        <ele>172.399993896</ele>
        <time>2015-07-03T10:47:49.392Z</time>
      </trkpt>
      <trkpt lat="45.92635" lon="4.76068">
        <ele>172.100006104</ele>
        <time>2015-07-03T10:47:50.375Z</time>
      </trkpt>
      <trkpt lat="45.92631" lon="4.76065">
        <ele>172</ele>
        <time>2015-07-03T10:47:51.376Z</time>
      </trkpt>
      <trkpt lat="45.92627" lon="4.76062">
        <ele>172</ele>
        <time>2015-07-03T10:47:52.377Z</time>
      </trkpt>
      <trkpt lat="45.92623" lon="4.76059">
        <ele>171.699996948</ele>
        <time>2015-07-03T10:47:53.374Z</time>
      </trkpt>
      <trkpt lat="45.92619" lon="4.76056">
        <ele>171.699996948</ele>
        <time>2015-07-03T10:47:54.377Z</time>
      </trkpt>
      <trkpt lat="45.92615" lon="4.76053">
        <ele>171.600006104</ele>
        <time>2015-07-03T10:47:55.376Z</time>
      </trkpt>
      <trkpt lat="45.9261" lon="4.7605">
        <ele>171.699996948</ele>
        <time>2015-07-03T10:47:56.369Z</time>
      </trkpt>
      <trkpt lat="45.92606" lon="4.76047">
        <ele>171.699996948</ele>
        <time>2015-07-03T10:47:57.376Z</time>
      </trkpt>
      <trkpt lat="45.92602" lon="4.76045">
        <ele>171.600006104</ele>
        <time>2015-07-03T10:47:58.377Z</time>
      </trkpt>
      <trkpt lat="45.92598" lon="4.76042">
        <ele>171.199996948</ele>
        <time>2015-07-03T10:47:59.376Z</time>
      </trkpt>
      <trkpt lat="45.9259" lon="4.76037">
        <ele>171.100006104</ele>
        <time>2015-07-03T10:48:01.376Z</time>
      </trkpt>
      <trkpt lat="45.92586" lon="4.76035">
        <ele>171</ele>
        <time>2015-07-03T10:48:02.375Z</time>
      </trkpt>
      <trkpt lat="45.92582" lon="4.76032">
        <ele>171</ele>
        <time>2015-07-03T10:48:03.376Z</time>
      </trkpt>
      <trkpt lat="45.92578" lon="4.76029">
        <ele>170.899993896</ele>
        <time>2015-07-03T10:48:04.378Z</time>
      </trkpt>
      <trkpt lat="45.92574" lon="4.76026">
        <ele>170.899993896</ele>
        <time>2015-07-03T10:48:05.373Z</time>
      </trkpt>
      <trkpt lat="45.92569" lon="4.76023">
        <ele>170.899993896</ele>
        <time>2015-07-03T10:48:06.38Z</time>
      </trkpt>
      <trkpt lat="45.92565" lon="4.76021">
        <ele>170.899993896</ele>
        <time>2015-07-03T10:48:07.375Z</time>
      </trkpt>
      <trkpt lat="45.92561" lon="4.76018">
        <ele>171.199996948</ele>
        <time>2015-07-03T10:48:08.375Z</time>
      </trkpt>
      <trkpt lat="45.92556" lon="4.76015">
        <ele>171.300003052</ele>
        <time>2015-07-03T10:48:09.376Z</time>
      </trkpt>
      <trkpt lat="45.92552" lon="4.76012">
        <ele>171.699996948</ele>
        <time>2015-07-03T10:48:10.433Z</time>
      </trkpt>
      <trkpt lat="45.92548" lon="4.76009">
        <ele>171.600006104</ele>
        <time>2015-07-03T10:48:11.374Z</time>
      </trkpt>
      <trkpt lat="45.92544" lon="4.76005">
        <ele>171.699996948</ele>
        <time>2015-07-03T10:48:12.414Z</time>
      </trkpt>
      <trkpt lat="45.92536" lon="4.76">
        <ele>172.300003052</ele>
        <time>2015-07-03T10:48:14.376Z</time>
      </trkpt>
      <trkpt lat="45.92533" lon="4.75997">
        <ele>172.899993896</ele>
        <time>2015-07-03T10:48:15.372Z</time>
      </trkpt>
      <trkpt lat="45.92528" lon="4.75994">
        <ele>173.5</ele>
        <time>2015-07-03T10:48:16.378Z</time>
      </trkpt>
      <trkpt lat="45.92524" lon="4.75991">
        <ele>173.5</ele>
        <time>2015-07-03T10:48:17.378Z</time>
      </trkpt>
      <trkpt lat="45.92519" lon="4.75988">
        <ele>173.699996948</ele>
        <time>2015-07-03T10:48:18.408Z</time>
      </trkpt>
      <trkpt lat="45.92514" lon="4.75984">
        <ele>173.600006104</ele>
        <time>2015-07-03T10:48:19.377Z</time>
      </trkpt>
      <trkpt lat="45.92509" lon="4.7598">
        <ele>173.600006104</ele>
        <time>2015-07-03T10:48:20.375Z</time>
      </trkpt>
      <trkpt lat="45.92505" lon="4.75977">
        <ele>173.600006104</ele>
        <time>2015-07-03T10:48:21.376Z</time>
      </trkpt>
      <trkpt lat="45.925" lon="4.75973">
        <ele>173.5</ele>
        <time>2015-07-03T10:48:22.376Z</time>
      </trkpt>
      <trkpt lat="45.92496" lon="4.7597">
        <ele>173.600006104</ele>
        <time>2015-07-03T10:48:23.375Z</time>
      </trkpt>
      <trkpt lat="45.92491" lon="4.75967">
        <ele>173.699996948</ele>
        <time>2015-07-03T10:48:24.406Z</time>
      </trkpt>
      <trkpt lat="45.92486" lon="4.75964">
        <ele>173.5</ele>
        <time>2015-07-03T10:48:25.376Z</time>
      </trkpt>
      <trkpt lat="45.92482" lon="4.75961">
        <ele>173.300003052</ele>
        <time>2015-07-03T10:48:26.393Z</time>
      </trkpt>
      <trkpt lat="45.92477" lon="4.75958">
        <ele>173.300003052</ele>
        <time>2015-07-03T10:48:27.376Z</time>
      </trkpt>
      <trkpt lat="45.92472" lon="4.75955">
        <ele>173.100006104</ele>
        <time>2015-07-03T10:48:28.376Z</time>
      </trkpt>
      <trkpt lat="45.92467" lon="4.75952">
        <ele>173</ele>
        <time>2015-07-03T10:48:29.373Z</time>
      </trkpt>
      <trkpt lat="45.92461" lon="4.75949">
        <ele>173.600006104</ele>
        <time>2015-07-03T10:48:30.377Z</time>
      </trkpt>
      <trkpt lat="45.92457" lon="4.75946">
        <ele>174</ele>
        <time>2015-07-03T10:48:31.373Z</time>
      </trkpt>
      <trkpt lat="45.92451" lon="4.75943">
        <ele>174.300003052</ele>
        <time>2015-07-03T10:48:32.379Z</time>
      </trkpt>
      <trkpt lat="45.92446" lon="4.75939">
        <ele>174.600006104</ele>
        <time>2015-07-03T10:48:33.374Z</time>
      </trkpt>
      <trkpt lat="45.9244" lon="4.75935">
        <ele>174.600006104</ele>
        <time>2015-07-03T10:48:34.377Z</time>
      </trkpt>
      <trkpt lat="45.92434" lon="4.75931">
        <ele>174.800003052</ele>
        <time>2015-07-03T10:48:35.377Z</time>
      </trkpt>
      <trkpt lat="45.92428" lon="4.75927">
        <ele>174.699996948</ele>
        <time>2015-07-03T10:48:36.416Z</time>
      </trkpt>
      <trkpt lat="45.92422" lon="4.75923">
        <ele>174.600006104</ele>
        <time>2015-07-03T10:48:37.376Z</time>
      </trkpt>
      <trkpt lat="45.92415" lon="4.75919">
        <ele>173.899993896</ele>
        <time>2015-07-03T10:48:38.374Z</time>
      </trkpt>
      <trkpt lat="45.92409" lon="4.75914">
        <ele>173.300003052</ele>
        <time>2015-07-03T10:48:39.374Z</time>
      </trkpt>
      <trkpt lat="45.92402" lon="4.75909">
        <ele>172.600006104</ele>
        <time>2015-07-03T10:48:40.374Z</time>
      </trkpt>
      <trkpt lat="45.92396" lon="4.75905">
        <ele>172.100006104</ele>
        <time>2015-07-03T10:48:41.398Z</time>
      </trkpt>
      <trkpt lat="45.9239" lon="4.75901">
        <ele>171.800003052</ele>
        <time>2015-07-03T10:48:42.376Z</time>
      </trkpt>
      <trkpt lat="45.92383" lon="4.75896">
        <ele>171.5</ele>
        <time>2015-07-03T10:48:43.375Z</time>
      </trkpt>
      <trkpt lat="45.92377" lon="4.75892">
        <ele>171.300003052</ele>
        <time>2015-07-03T10:48:44.376Z</time>
      </trkpt>
      <trkpt lat="45.92371" lon="4.75888">
        <ele>170.600006104</ele>
        <time>2015-07-03T10:48:45.376Z</time>
      </trkpt>
      <trkpt lat="45.92366" lon="4.75883">
        <ele>170.699996948</ele>
        <time>2015-07-03T10:48:46.376Z</time>
      </trkpt>
      <trkpt lat="45.92361" lon="4.75879">
        <ele>170.5</ele>
        <time>2015-07-03T10:48:47.391Z</time>
      </trkpt>
      <trkpt lat="45.92356" lon="4.75875">
        <ele>170.399993896</ele>
        <time>2015-07-03T10:48:48.408Z</time>
      </trkpt>
      <trkpt lat="45.9235" lon="4.75872">
        <ele>170.399993896</ele>
        <time>2015-07-03T10:48:49.377Z</time>
      </trkpt>
      <trkpt lat="45.92345" lon="4.75868">
        <ele>170.399993896</ele>
        <time>2015-07-03T10:48:50.373Z</time>
      </trkpt>
      <trkpt lat="45.92339" lon="4.75865">
        <ele>170.300003052</ele>
        <time>2015-07-03T10:48:51.377Z</time>
      </trkpt>
      <trkpt lat="45.92334" lon="4.75861">
        <ele>170.199996948</ele>
        <time>2015-07-03T10:48:52.377Z</time>
      </trkpt>
      <trkpt lat="45.92329" lon="4.75858">
        <ele>170.100006104</ele>
        <time>2015-07-03T10:48:53.374Z</time>
      </trkpt>
      <trkpt lat="45.92323" lon="4.75855">
        <ele>170.100006104</ele>
        <time>2015-07-03T10:48:54.37Z</time>
      </trkpt>
      <trkpt lat="45.92318" lon="4.75852">
        <ele>170.100006104</ele>
        <time>2015-07-03T10:48:55.373Z</time>
      </trkpt>
      <trkpt lat="45.92313" lon="4.75848">
        <ele>170</ele>
        <time>2015-07-03T10:48:56.376Z</time>
      </trkpt>
      <trkpt lat="45.92307" lon="4.75844">
        <ele>170</ele>
        <time>2015-07-03T10:48:57.377Z</time>
      </trkpt>
      <trkpt lat="45.92301" lon="4.75841">
        <ele>169.899993896</ele>
        <time>2015-07-03T10:48:58.377Z</time>
      </trkpt>
      <trkpt lat="45.92295" lon="4.75838">
        <ele>169.699996948</ele>
        <time>2015-07-03T10:48:59.374Z</time>
      </trkpt>
      <trkpt lat="45.92289" lon="4.75834">
        <ele>169.600006104</ele>
        <time>2015-07-03T10:49:00.452Z</time>
      </trkpt>
      <trkpt lat="45.92283" lon="4.75831">
        <ele>169.600006104</ele>
        <time>2015-07-03T10:49:01.374Z</time>
      </trkpt>
      <trkpt lat="45.92278" lon="4.75828">
        <ele>169.600006104</ele>
        <time>2015-07-03T10:49:02.376Z</time>
      </trkpt>
      <trkpt lat="45.92273" lon="4.75824">
        <ele>169.5</ele>
        <time>2015-07-03T10:49:03.373Z</time>
      </trkpt>
      <trkpt lat="45.92268" lon="4.75818">
        <ele>169.600006104</ele>
        <time>2015-07-03T10:49:04.377Z</time>
      </trkpt>
      <trkpt lat="45.92264" lon="4.75812">
        <ele>169.600006104</ele>
        <time>2015-07-03T10:49:05.373Z</time>
      </trkpt>
      <trkpt lat="45.9226" lon="4.75804">
        <ele>169.600006104</ele>
        <time>2015-07-03T10:49:06.376Z</time>
      </trkpt>
      <trkpt lat="45.92258" lon="4.75796">
        <ele>169.399993896</ele>
        <time>2015-07-03T10:49:07.375Z</time>
      </trkpt>
      <trkpt lat="45.92256" lon="4.75788">
        <ele>169.399993896</ele>
        <time>2015-07-03T10:49:08.39Z</time>
      </trkpt>
      <trkpt lat="45.92254" lon="4.75779">
        <ele>169.399993896</ele>
        <time>2015-07-03T10:49:09.374Z</time>
      </trkpt>
      <trkpt lat="45.92253" lon="4.7577">
        <ele>169.5</ele>
        <time>2015-07-03T10:49:10.373Z</time>
      </trkpt>
      <trkpt lat="45.92251" lon="4.75761">
        <ele>169.600006104</ele>
        <time>2015-07-03T10:49:11.376Z</time>
      </trkpt>
      <trkpt lat="45.92249" lon="4.75752">
        <ele>169.5</ele>
        <time>2015-07-03T10:49:12.378Z</time>
      </trkpt>
      <trkpt lat="45.92248" lon="4.75743">
        <ele>169.699996948</ele>
        <time>2015-07-03T10:49:13.373Z</time>
      </trkpt>
      <trkpt lat="45.92245" lon="4.75735">
        <ele>170</ele>
        <time>2015-07-03T10:49:14.377Z</time>
      </trkpt>
      <trkpt lat="45.92243" lon="4.75727">
        <ele>170</ele>
        <time>2015-07-03T10:49:15.418Z</time>
      </trkpt>
      <trkpt lat="45.92241" lon="4.75718">
        <ele>169.899993896</ele>
        <time>2015-07-03T10:49:16.377Z</time>
      </trkpt>
      <trkpt lat="45.92238" lon="4.75711">
        <ele>170.199996948</ele>
        <time>2015-07-03T10:49:17.387Z</time>
      </trkpt>
      <trkpt lat="45.92235" lon="4.75705">
        <ele>170</ele>
        <time>2015-07-03T10:49:18.375Z</time>
      </trkpt>
      <trkpt lat="45.92231" lon="4.75699">
        <ele>169.899993896</ele>
        <time>2015-07-03T10:49:19.38Z</time>
      </trkpt>
      <trkpt lat="45.92225" lon="4.75693">
        <ele>169.899993896</ele>
        <time>2015-07-03T10:49:20.376Z</time>
      </trkpt>
      <trkpt lat="45.9222" lon="4.75688">
        <ele>169.399993896</ele>
        <time>2015-07-03T10:49:21.377Z</time>
      </trkpt>
      <trkpt lat="45.92214" lon="4.75683">
        <ele>169.100006104</ele>
        <time>2015-07-03T10:49:22.373Z</time>
      </trkpt>
      <trkpt lat="45.92209" lon="4.75678">
        <ele>168.899993896</ele>
        <time>2015-07-03T10:49:23.374Z</time>
      </trkpt>
      <trkpt lat="45.92203" lon="4.75673">
        <ele>168.899993896</ele>
        <time>2015-07-03T10:49:24.445Z</time>
      </trkpt>
      <trkpt lat="45.92198" lon="4.75667">
        <ele>168.699996948</ele>
        <time>2015-07-03T10:49:25.373Z</time>
      </trkpt>
      <trkpt lat="45.92192" lon="4.75662">
        <ele>168.600006104</ele>
        <time>2015-07-03T10:49:26.377Z</time>
      </trkpt>
      <trkpt lat="45.92187" lon="4.75656">
        <ele>168.199996948</ele>
        <time>2015-07-03T10:49:27.38Z</time>
      </trkpt>
      <trkpt lat="45.92181" lon="4.75651">
        <ele>167.699996948</ele>
        <time>2015-07-03T10:49:28.376Z</time>
      </trkpt>
      <trkpt lat="45.92176" lon="4.75645">
        <ele>167.600006104</ele>
        <time>2015-07-03T10:49:29.373Z</time>
      </trkpt>
      <trkpt lat="45.92171" lon="4.7564">
        <ele>167.399993896</ele>
        <time>2015-07-03T10:49:30.409Z</time>
      </trkpt>
      <trkpt lat="45.92167" lon="4.75639">
        <ele>167.199996948</ele>
        <time>2015-07-03T10:49:31.372Z</time>
      </trkpt>
      <trkpt lat="45.92162" lon="4.75632">
        <ele>167.199996948</ele>
        <time>2015-07-03T10:49:32.375Z</time>
      </trkpt>
      <trkpt lat="45.92156" lon="4.75627">
        <ele>166.899993896</ele>
        <time>2015-07-03T10:49:33.375Z</time>
      </trkpt>
      <trkpt lat="45.9215" lon="4.75621">
        <ele>167.100006104</ele>
        <time>2015-07-03T10:49:34.378Z</time>
      </trkpt>
      <trkpt lat="45.92145" lon="4.75616">
        <ele>166.899993896</ele>
        <time>2015-07-03T10:49:35.416Z</time>
      </trkpt>
      <trkpt lat="45.9214" lon="4.75611">
        <ele>166.699996948</ele>
        <time>2015-07-03T10:49:36.375Z</time>
      </trkpt>
      <trkpt lat="45.92135" lon="4.75606">
        <ele>166.399993896</ele>
        <time>2015-07-03T10:49:37.373Z</time>
      </trkpt>
      <trkpt lat="45.9213" lon="4.75601">
        <ele>166.300003052</ele>
        <time>2015-07-03T10:49:38.377Z</time>
      </trkpt>
      <trkpt lat="45.92125" lon="4.75595">
        <ele>166.100006104</ele>
        <time>2015-07-03T10:49:39.373Z</time>
      </trkpt>
      <trkpt lat="45.92121" lon="4.75589">
        <ele>165.800003052</ele>
        <time>2015-07-03T10:49:40.373Z</time>
      </trkpt>
      <trkpt lat="45.92116" lon="4.75584">
        <ele>165.800003052</ele>
        <time>2015-07-03T10:49:41.377Z</time>
      </trkpt>
      <trkpt lat="45.92113" lon="4.75577">
        <ele>165.699996948</ele>
        <time>2015-07-03T10:49:42.374Z</time>
      </trkpt>
      <trkpt lat="45.92112" lon="4.75572">
        <ele>165.800003052</ele>
        <time>2015-07-03T10:49:43.373Z</time>
      </trkpt>
      <trkpt lat="45.92115" lon="4.7556">
        <ele>165.800003052</ele>
        <time>2015-07-03T10:49:45.375Z</time>
      </trkpt>
      <trkpt lat="45.92117" lon="4.75555">
        <ele>166</ele>
        <time>2015-07-03T10:49:46.393Z</time>
      </trkpt>
      <trkpt lat="45.92121" lon="4.7555">
        <ele>165.899993896</ele>
        <time>2015-07-03T10:49:47.374Z</time>
      </trkpt>
      <trkpt lat="45.92124" lon="4.75544">
        <ele>166.600006104</ele>
        <time>2015-07-03T10:49:48.375Z</time>
      </trkpt>
      <trkpt lat="45.92127" lon="4.75537">
        <ele>166.899993896</ele>
        <time>2015-07-03T10:49:49.383Z</time>
      </trkpt>
      <trkpt lat="45.92131" lon="4.75531">
        <ele>167</ele>
        <time>2015-07-03T10:49:50.376Z</time>
      </trkpt>
      <trkpt lat="45.92134" lon="4.75524">
        <ele>167.199996948</ele>
        <time>2015-07-03T10:49:51.372Z</time>
      </trkpt>
      <trkpt lat="45.92138" lon="4.75517">
        <ele>167.300003052</ele>
        <time>2015-07-03T10:49:52.403Z</time>
      </trkpt>
      <trkpt lat="45.92141" lon="4.7551">
        <ele>167.5</ele>
        <time>2015-07-03T10:49:53.374Z</time>
      </trkpt>
      <trkpt lat="45.92144" lon="4.75502">
        <ele>168</ele>
        <time>2015-07-03T10:49:54.375Z</time>
      </trkpt>
      <trkpt lat="45.92147" lon="4.75495">
        <ele>168.100006104</ele>
        <time>2015-07-03T10:49:55.372Z</time>
      </trkpt>
      <trkpt lat="45.92149" lon="4.75488">
        <ele>168.399993896</ele>
        <time>2015-07-03T10:49:56.376Z</time>
      </trkpt>
      <trkpt lat="45.92152" lon="4.7548">
        <ele>168.600006104</ele>
        <time>2015-07-03T10:49:57.373Z</time>
      </trkpt>
      <trkpt lat="45.92155" lon="4.75473">
        <ele>168.699996948</ele>
        <time>2015-07-03T10:49:58.376Z</time>
      </trkpt>
      <trkpt lat="45.92158" lon="4.75465">
        <ele>169</ele>
        <time>2015-07-03T10:49:59.373Z</time>
      </trkpt>
      <trkpt lat="45.92162" lon="4.75456">
        <ele>169.300003052</ele>
        <time>2015-07-03T10:50:00.377Z</time>
      </trkpt>
      <trkpt lat="45.92166" lon="4.75448">
        <ele>169.399993896</ele>
        <time>2015-07-03T10:50:01.376Z</time>
      </trkpt>
      <trkpt lat="45.92168" lon="4.75441">
        <ele>169.600006104</ele>
        <time>2015-07-03T10:50:02.377Z</time>
      </trkpt>
      <trkpt lat="45.92171" lon="4.75433">
        <ele>170</ele>
        <time>2015-07-03T10:50:03.374Z</time>
      </trkpt>
      <trkpt lat="45.92174" lon="4.75426">
        <ele>170.199996948</ele>
        <time>2015-07-03T10:50:04.373Z</time>
      </trkpt>
      <trkpt lat="45.92177" lon="4.75418">
        <ele>170.5</ele>
        <time>2015-07-03T10:50:05.373Z</time>
      </trkpt>
      <trkpt lat="45.9218" lon="4.7541">
        <ele>171</ele>
        <time>2015-07-03T10:50:06.375Z</time>
      </trkpt>
      <trkpt lat="45.92183" lon="4.75402">
        <ele>171.300003052</ele>
        <time>2015-07-03T10:50:07.391Z</time>
      </trkpt>
      <trkpt lat="45.92186" lon="4.75394">
        <ele>171.5</ele>
        <time>2015-07-03T10:50:08.377Z</time>
      </trkpt>
      <trkpt lat="45.92189" lon="4.75386">
        <ele>171.899993896</ele>
        <time>2015-07-03T10:50:09.376Z</time>
      </trkpt>
      <trkpt lat="45.92192" lon="4.75378">
        <ele>172</ele>
        <time>2015-07-03T10:50:10.372Z</time>
      </trkpt>
      <trkpt lat="45.92197" lon="4.75369">
        <ele>172.100006104</ele>
        <time>2015-07-03T10:50:11.368Z</time>
      </trkpt>
      <trkpt lat="45.92201" lon="4.75361">
        <ele>172.300003052</ele>
        <time>2015-07-03T10:50:12.375Z</time>
      </trkpt>
      <trkpt lat="45.92203" lon="4.75352">
        <ele>172.699996948</ele>
        <time>2015-07-03T10:50:13.373Z</time>
      </trkpt>
      <trkpt lat="45.92205" lon="4.75343">
        <ele>172.800003052</ele>
        <time>2015-07-03T10:50:14.373Z</time>
      </trkpt>
      <trkpt lat="45.92207" lon="4.75333">
        <ele>172.699996948</ele>
        <time>2015-07-03T10:50:15.373Z</time>
      </trkpt>
      <trkpt lat="45.92208" lon="4.75324">
        <ele>172.600006104</ele>
        <time>2015-07-03T10:50:16.372Z</time>
      </trkpt>
      <trkpt lat="45.92209" lon="4.75315">
        <ele>172.600006104</ele>
        <time>2015-07-03T10:50:17.373Z</time>
      </trkpt>
      <trkpt lat="45.9221" lon="4.75305">
        <ele>172.100006104</ele>
        <time>2015-07-03T10:50:18.428Z</time>
      </trkpt>
      <trkpt lat="45.9221" lon="4.75295">
        <ele>171.800003052</ele>
        <time>2015-07-03T10:50:19.417Z</time>
      </trkpt>
      <trkpt lat="45.9221" lon="4.75285">
        <ele>171.800003052</ele>
        <time>2015-07-03T10:50:20.377Z</time>
      </trkpt>
      <trkpt lat="45.9221" lon="4.75276">
        <ele>171.600006104</ele>
        <time>2015-07-03T10:50:21.373Z</time>
      </trkpt>
      <trkpt lat="45.92211" lon="4.75266">
        <ele>171.5</ele>
        <time>2015-07-03T10:50:22.373Z</time>
      </trkpt>
      <trkpt lat="45.92211" lon="4.75256">
        <ele>171.399993896</ele>
        <time>2015-07-03T10:50:23.374Z</time>
      </trkpt>
      <trkpt lat="45.92212" lon="4.75246">
        <ele>171.100006104</ele>
        <time>2015-07-03T10:50:24.376Z</time>
      </trkpt>
      <trkpt lat="45.92213" lon="4.75236">
        <ele>171.100006104</ele>
        <time>2015-07-03T10:50:25.377Z</time>
      </trkpt>
      <trkpt lat="45.92214" lon="4.75226">
        <ele>171.100006104</ele>
        <time>2015-07-03T10:50:26.376Z</time>
      </trkpt>
      <trkpt lat="45.92215" lon="4.75215">
        <ele>170.899993896</ele>
        <time>2015-07-03T10:50:27.379Z</time>
      </trkpt>
      <trkpt lat="45.92216" lon="4.75205">
        <ele>170.899993896</ele>
        <time>2015-07-03T10:50:28.373Z</time>
      </trkpt>
      <trkpt lat="45.92219" lon="4.75195">
        <ele>170.899993896</ele>
        <time>2015-07-03T10:50:29.411Z</time>
      </trkpt>
      <trkpt lat="45.92221" lon="4.75186">
        <ele>171.100006104</ele>
        <time>2015-07-03T10:50:30.375Z</time>
      </trkpt>
      <trkpt lat="45.92224" lon="4.75177">
        <ele>171.300003052</ele>
        <time>2015-07-03T10:50:31.406Z</time>
      </trkpt>
      <trkpt lat="45.92227" lon="4.75168">
        <ele>171</ele>
        <time>2015-07-03T10:50:32.374Z</time>
      </trkpt>
      <trkpt lat="45.92231" lon="4.7516">
        <ele>171</ele>
        <time>2015-07-03T10:50:33.374Z</time>
      </trkpt>
      <trkpt lat="45.92235" lon="4.75151">
        <ele>171.199996948</ele>
        <time>2015-07-03T10:50:34.374Z</time>
      </trkpt>
      <trkpt lat="45.92239" lon="4.75143">
        <ele>171.5</ele>
        <time>2015-07-03T10:50:35.374Z</time>
      </trkpt>
      <trkpt lat="45.92245" lon="4.75136">
        <ele>171.199996948</ele>
        <time>2015-07-03T10:50:36.374Z</time>
      </trkpt>
      <trkpt lat="45.9225" lon="4.75129">
        <ele>171.399993896</ele>
        <time>2015-07-03T10:50:37.376Z</time>
      </trkpt>
      <trkpt lat="45.92255" lon="4.75123">
        <ele>171.300003052</ele>
        <time>2015-07-03T10:50:38.376Z</time>
      </trkpt>
      <trkpt lat="45.92261" lon="4.75117">
        <ele>171.399993896</ele>
        <time>2015-07-03T10:50:39.373Z</time>
      </trkpt>
      <trkpt lat="45.92266" lon="4.75112">
        <ele>171.699996948</ele>
        <time>2015-07-03T10:50:40.39Z</time>
      </trkpt>
      <trkpt lat="45.92271" lon="4.75106">
        <ele>171.800003052</ele>
        <time>2015-07-03T10:50:41.373Z</time>
      </trkpt>
      <trkpt lat="45.92278" lon="4.75101">
        <ele>171.800003052</ele>
        <time>2015-07-03T10:50:42.376Z</time>
      </trkpt>
      <trkpt lat="45.92283" lon="4.75095">
        <ele>171.800003052</ele>
        <time>2015-07-03T10:50:43.394Z</time>
      </trkpt>
      <trkpt lat="45.92289" lon="4.7509">
        <ele>171.699996948</ele>
        <time>2015-07-03T10:50:44.374Z</time>
      </trkpt>
      <trkpt lat="45.92294" lon="4.75084">
        <ele>171.800003052</ele>
        <time>2015-07-03T10:50:45.372Z</time>
      </trkpt>
      <trkpt lat="45.923" lon="4.75078">
        <ele>172.100006104</ele>
        <time>2015-07-03T10:50:46.371Z</time>
      </trkpt>
      <trkpt lat="45.92305" lon="4.75071">
        <ele>172.300003052</ele>
        <time>2015-07-03T10:50:47.372Z</time>
      </trkpt>
      <trkpt lat="45.9231" lon="4.75066">
        <ele>172.699996948</ele>
        <time>2015-07-03T10:50:48.375Z</time>
      </trkpt>
      <trkpt lat="45.92314" lon="4.75059">
        <ele>172.600006104</ele>
        <time>2015-07-03T10:50:49.374Z</time>
      </trkpt>
      <trkpt lat="45.92318" lon="4.75052">
        <ele>172.699996948</ele>
        <time>2015-07-03T10:50:50.373Z</time>
      </trkpt>
      <trkpt lat="45.92321" lon="4.75045">
        <ele>172.600006104</ele>
        <time>2015-07-03T10:50:51.373Z</time>
      </trkpt>
      <trkpt lat="45.92324" lon="4.75039">
        <ele>172.899993896</ele>
        <time>2015-07-03T10:50:52.372Z</time>
      </trkpt>
      <trkpt lat="45.92328" lon="4.75032">
        <ele>173.100006104</ele>
        <time>2015-07-03T10:50:53.375Z</time>
      </trkpt>
      <trkpt lat="45.92332" lon="4.75026">
        <ele>173.199996948</ele>
        <time>2015-07-03T10:50:54.377Z</time>
      </trkpt>
      <trkpt lat="45.92335" lon="4.7502">
        <ele>173.300003052</ele>
        <time>2015-07-03T10:50:55.373Z</time>
      </trkpt>
      <trkpt lat="45.92339" lon="4.75013">
        <ele>173.5</ele>
        <time>2015-07-03T10:50:56.376Z</time>
      </trkpt>
      <trkpt lat="45.92342" lon="4.75006">
        <ele>173.699996948</ele>
        <time>2015-07-03T10:50:57.398Z</time>
      </trkpt>
      <trkpt lat="45.92344" lon="4.74999">
        <ele>174.199996948</ele>
        <time>2015-07-03T10:50:58.376Z</time>
      </trkpt>
      <trkpt lat="45.92347" lon="4.74992">
        <ele>174.100006104</ele>
        <time>2015-07-03T10:50:59.374Z</time>
      </trkpt>
      <trkpt lat="45.9235" lon="4.74984">
        <ele>174.399993896</ele>
        <time>2015-07-03T10:51:00.375Z</time>
      </trkpt>
      <trkpt lat="45.92354" lon="4.74976">
        <ele>174.5</ele>
        <time>2015-07-03T10:51:01.376Z</time>
      </trkpt>
      <trkpt lat="45.92357" lon="4.74969">
        <ele>175.100006104</ele>
        <time>2015-07-03T10:51:02.376Z</time>
      </trkpt>
      <trkpt lat="45.92359" lon="4.74962">
        <ele>175.600006104</ele>
        <time>2015-07-03T10:51:03.361Z</time>
      </trkpt>
      <trkpt lat="45.92361" lon="4.74954">
        <ele>175.800003052</ele>
        <time>2015-07-03T10:51:04.372Z</time>
      </trkpt>
      <trkpt lat="45.92364" lon="4.74945">
        <ele>176</ele>
        <time>2015-07-03T10:51:05.375Z</time>
      </trkpt>
      <trkpt lat="45.92367" lon="4.74936">
        <ele>175.899993896</ele>
        <time>2015-07-03T10:51:06.391Z</time>
      </trkpt>
      <trkpt lat="45.9237" lon="4.74928">
        <ele>176.100006104</ele>
        <time>2015-07-03T10:51:07.372Z</time>
      </trkpt>
      <trkpt lat="45.92373" lon="4.7492">
        <ele>176.300003052</ele>
        <time>2015-07-03T10:51:08.373Z</time>
      </trkpt>
      <trkpt lat="45.92375" lon="4.74912">
        <ele>176.399993896</ele>
        <time>2015-07-03T10:51:09.428Z</time>
      </trkpt>
      <trkpt lat="45.92378" lon="4.74904">
        <ele>176.5</ele>
        <time>2015-07-03T10:51:10.375Z</time>
      </trkpt>
      <trkpt lat="45.92381" lon="4.74896">
        <ele>176.800003052</ele>
        <time>2015-07-03T10:51:11.371Z</time>
      </trkpt>
      <trkpt lat="45.92384" lon="4.74888">
        <ele>177.100006104</ele>
        <time>2015-07-03T10:51:12.374Z</time>
      </trkpt>
      <trkpt lat="45.92386" lon="4.74882">
        <ele>177.300003052</ele>
        <time>2015-07-03T10:51:13.379Z</time>
      </trkpt>
      <trkpt lat="45.92389" lon="4.74874">
        <ele>177.5</ele>
        <time>2015-07-03T10:51:14.372Z</time>
      </trkpt>
      <trkpt lat="45.92391" lon="4.74867">
        <ele>177.399993896</ele>
        <time>2015-07-03T10:51:15.406Z</time>
      </trkpt>
      <trkpt lat="45.92394" lon="4.74859">
        <ele>177.800003052</ele>
        <time>2015-07-03T10:51:16.372Z</time>
      </trkpt>
      <trkpt lat="45.92395" lon="4.7485">
        <ele>177.300003052</ele>
        <time>2015-07-03T10:51:17.372Z</time>
      </trkpt>
      <trkpt lat="45.92397" lon="4.74843">
        <ele>177.600006104</ele>
        <time>2015-07-03T10:51:18.374Z</time>
      </trkpt>
      <trkpt lat="45.92398" lon="4.74835">
        <ele>177.300003052</ele>
        <time>2015-07-03T10:51:19.386Z</time>
      </trkpt>
      <trkpt lat="45.92401" lon="4.74826">
        <ele>177</ele>
        <time>2015-07-03T10:51:20.372Z</time>
      </trkpt>
      <trkpt lat="45.92403" lon="4.74817">
        <ele>177.199996948</ele>
        <time>2015-07-03T10:51:21.411Z</time>
      </trkpt>
      <trkpt lat="45.92405" lon="4.74808">
        <ele>177.199996948</ele>
        <time>2015-07-03T10:51:22.388Z</time>
      </trkpt>
      <trkpt lat="45.92407" lon="4.74799">
        <ele>177.300003052</ele>
        <time>2015-07-03T10:51:23.4Z</time>
      </trkpt>
      <trkpt lat="45.92409" lon="4.7479">
        <ele>177.300003052</ele>
        <time>2015-07-03T10:51:24.374Z</time>
      </trkpt>
      <trkpt lat="45.92411" lon="4.74781">
        <ele>177.300003052</ele>
        <time>2015-07-03T10:51:25.406Z</time>
      </trkpt>
      <trkpt lat="45.92413" lon="4.74772">
        <ele>177.300003052</ele>
        <time>2015-07-03T10:51:26.397Z</time>
      </trkpt>
      <trkpt lat="45.92416" lon="4.74763">
        <ele>177.300003052</ele>
        <time>2015-07-03T10:51:27.375Z</time>
      </trkpt>
      <trkpt lat="45.92419" lon="4.74754">
        <ele>177.199996948</ele>
        <time>2015-07-03T10:51:28.369Z</time>
      </trkpt>
      <trkpt lat="45.92422" lon="4.74744">
        <ele>176.800003052</ele>
        <time>2015-07-03T10:51:29.372Z</time>
      </trkpt>
      <trkpt lat="45.92424" lon="4.74736">
        <ele>176.600006104</ele>
        <time>2015-07-03T10:51:30.375Z</time>
      </trkpt>
      <trkpt lat="45.92427" lon="4.74727">
        <ele>176.399993896</ele>
        <time>2015-07-03T10:51:31.374Z</time>
      </trkpt>
      <trkpt lat="45.9243" lon="4.74717">
        <ele>176</ele>
        <time>2015-07-03T10:51:32.373Z</time>
      </trkpt>
      <trkpt lat="45.92434" lon="4.7471">
        <ele>175.699996948</ele>
        <time>2015-07-03T10:51:33.389Z</time>
      </trkpt>
      <trkpt lat="45.92438" lon="4.74701">
        <ele>175.199996948</ele>
        <time>2015-07-03T10:51:34.372Z</time>
      </trkpt>
      <trkpt lat="45.92442" lon="4.74692">
        <ele>174.800003052</ele>
        <time>2015-07-03T10:51:35.373Z</time>
      </trkpt>
      <trkpt lat="45.92446" lon="4.74683">
        <ele>174.5</ele>
        <time>2015-07-03T10:51:36.374Z</time>
      </trkpt>
      <trkpt lat="45.9245" lon="4.74675">
        <ele>174.199996948</ele>
        <time>2015-07-03T10:51:37.395Z</time>
      </trkpt>
      <trkpt lat="45.92454" lon="4.74667">
        <ele>174</ele>
        <time>2015-07-03T10:51:38.409Z</time>
      </trkpt>
      <trkpt lat="45.92457" lon="4.74661">
        <ele>173.899993896</ele>
        <time>2015-07-03T10:51:39.49Z</time>
      </trkpt>
      <trkpt lat="45.92461" lon="4.74654">
        <ele>173.699996948</ele>
        <time>2015-07-03T10:51:40.396Z</time>
      </trkpt>
      <trkpt lat="45.92463" lon="4.74647">
        <ele>173.399993896</ele>
        <time>2015-07-03T10:51:41.407Z</time>
      </trkpt>
      <trkpt lat="45.92467" lon="4.74641">
        <ele>173.100006104</ele>
        <time>2015-07-03T10:51:42.389Z</time>
      </trkpt>
      <trkpt lat="45.92474" lon="4.74635">
        <ele>173</ele>
        <time>2015-07-03T10:51:43.656Z</time>
      </trkpt>
      <trkpt lat="45.92485" lon="4.74628">
        <ele>172.399993896</ele>
        <time>2015-07-03T10:51:44.378Z</time>
      </trkpt>
      <trkpt lat="45.9249" lon="4.7462">
        <ele>171.800003052</ele>
        <time>2015-07-03T10:51:45.504Z</time>
      </trkpt>
      <trkpt lat="45.92495" lon="4.74613">
        <ele>171.199996948</ele>
        <time>2015-07-03T10:51:46.39Z</time>
      </trkpt>
      <trkpt lat="45.925" lon="4.74606">
        <ele>170.699996948</ele>
        <time>2015-07-03T10:51:47.426Z</time>
      </trkpt>
      <trkpt lat="45.92506" lon="4.746">
        <ele>170.5</ele>
        <time>2015-07-03T10:51:48.394Z</time>
      </trkpt>
      <trkpt lat="45.92511" lon="4.74594">
        <ele>170.199996948</ele>
        <time>2015-07-03T10:51:49.376Z</time>
      </trkpt>
      <trkpt lat="45.92516" lon="4.74587">
        <ele>169.899993896</ele>
        <time>2015-07-03T10:51:50.387Z</time>
      </trkpt>
      <trkpt lat="45.9252" lon="4.74581">
        <ele>169.699996948</ele>
        <time>2015-07-03T10:51:51.456Z</time>
      </trkpt>
      <trkpt lat="45.92525" lon="4.74575">
        <ele>169.199996948</ele>
        <time>2015-07-03T10:51:52.388Z</time>
      </trkpt>
      <trkpt lat="45.9253" lon="4.74569">
        <ele>169</ele>
        <time>2015-07-03T10:51:53.474Z</time>
      </trkpt>
      <trkpt lat="45.92534" lon="4.74563">
        <ele>168.899993896</ele>
        <time>2015-07-03T10:51:54.393Z</time>
      </trkpt>
      <trkpt lat="45.92539" lon="4.74556">
        <ele>168.899993896</ele>
        <time>2015-07-03T10:51:55.506Z</time>
      </trkpt>
      <trkpt lat="45.92543" lon="4.74549">
        <ele>169.199996948</ele>
        <time>2015-07-03T10:51:56.386Z</time>
      </trkpt>
      <trkpt lat="45.92548" lon="4.74541">
        <ele>169.199996948</ele>
        <time>2015-07-03T10:51:57.386Z</time>
      </trkpt>
      <trkpt lat="45.92552" lon="4.74533">
        <ele>169.100006104</ele>
        <time>2015-07-03T10:51:58.401Z</time>
      </trkpt>
      <trkpt lat="45.92556" lon="4.74525">
        <ele>169.100006104</ele>
        <time>2015-07-03T10:51:59.397Z</time>
      </trkpt>
      <trkpt lat="45.9256" lon="4.74517">
        <ele>169.199996948</ele>
        <time>2015-07-03T10:52:00.396Z</time>
      </trkpt>
      <trkpt lat="45.92565" lon="4.74509">
        <ele>169.199996948</ele>
        <time>2015-07-03T10:52:01.407Z</time>
      </trkpt>
      <trkpt lat="45.92569" lon="4.74501">
        <ele>169</ele>
        <time>2015-07-03T10:52:02.371Z</time>
      </trkpt>
      <trkpt lat="45.92573" lon="4.74493">
        <ele>168.699996948</ele>
        <time>2015-07-03T10:52:03.435Z</time>
      </trkpt>
      <trkpt lat="45.92577" lon="4.74486">
        <ele>168.699996948</ele>
        <time>2015-07-03T10:52:04.374Z</time>
      </trkpt>
      <trkpt lat="45.92581" lon="4.74478">
        <ele>168.699996948</ele>
        <time>2015-07-03T10:52:05.372Z</time>
      </trkpt>
      <trkpt lat="45.92586" lon="4.74468">
        <ele>168.600006104</ele>
        <time>2015-07-03T10:52:06.401Z</time>
      </trkpt>
      <trkpt lat="45.9259" lon="4.7446">
        <ele>168.5</ele>
        <time>2015-07-03T10:52:07.372Z</time>
      </trkpt>
      <trkpt lat="45.92595" lon="4.74452">
        <ele>168.300003052</ele>
        <time>2015-07-03T10:52:08.373Z</time>
      </trkpt>
      <trkpt lat="45.92599" lon="4.74444">
        <ele>168.199996948</ele>
        <time>2015-07-03T10:52:09.371Z</time>
      </trkpt>
      <trkpt lat="45.92604" lon="4.74436">
        <ele>168.100006104</ele>
        <time>2015-07-03T10:52:10.389Z</time>
      </trkpt>
      <trkpt lat="45.92609" lon="4.74428">
        <ele>168.199996948</ele>
        <time>2015-07-03T10:52:11.372Z</time>
      </trkpt>
      <trkpt lat="45.92613" lon="4.7442">
        <ele>168.100006104</ele>
        <time>2015-07-03T10:52:12.374Z</time>
      </trkpt>
      <trkpt lat="45.92618" lon="4.74411">
        <ele>168.300003052</ele>
        <time>2015-07-03T10:52:13.389Z</time>
      </trkpt>
      <trkpt lat="45.92623" lon="4.74403">
        <ele>168.300003052</ele>
        <time>2015-07-03T10:52:14.372Z</time>
      </trkpt>
      <trkpt lat="45.92626" lon="4.74396">
        <ele>168.300003052</ele>
        <time>2015-07-03T10:52:15.371Z</time>
      </trkpt>
      <trkpt lat="45.92631" lon="4.74388">
        <ele>168.5</ele>
        <time>2015-07-03T10:52:16.371Z</time>
      </trkpt>
      <trkpt lat="45.92635" lon="4.7438">
        <ele>168.399993896</ele>
        <time>2015-07-03T10:52:17.406Z</time>
      </trkpt>
      <trkpt lat="45.9264" lon="4.74372">
        <ele>168.5</ele>
        <time>2015-07-03T10:52:18.376Z</time>
      </trkpt>
      <trkpt lat="45.92644" lon="4.74365">
        <ele>168.600006104</ele>
        <time>2015-07-03T10:52:19.373Z</time>
      </trkpt>
      <trkpt lat="45.92648" lon="4.74358">
        <ele>168.899993896</ele>
        <time>2015-07-03T10:52:20.372Z</time>
      </trkpt>
      <trkpt lat="45.92652" lon="4.74351">
        <ele>169.100006104</ele>
        <time>2015-07-03T10:52:21.371Z</time>
      </trkpt>
      <trkpt lat="45.92656" lon="4.74344">
        <ele>169.399993896</ele>
        <time>2015-07-03T10:52:22.371Z</time>
      </trkpt>
      <trkpt lat="45.9266" lon="4.74337">
        <ele>169.399993896</ele>
        <time>2015-07-03T10:52:23.386Z</time>
      </trkpt>
      <trkpt lat="45.92664" lon="4.7433">
        <ele>169.399993896</ele>
        <time>2015-07-03T10:52:24.374Z</time>
      </trkpt>
      <trkpt lat="45.92668" lon="4.74323">
        <ele>169.699996948</ele>
        <time>2015-07-03T10:52:25.371Z</time>
      </trkpt>
      <trkpt lat="45.92672" lon="4.74316">
        <ele>170.199996948</ele>
        <time>2015-07-03T10:52:26.39Z</time>
      </trkpt>
      <trkpt lat="45.92676" lon="4.74308">
        <ele>170.300003052</ele>
        <time>2015-07-03T10:52:27.374Z</time>
      </trkpt>
      <trkpt lat="45.92679" lon="4.743">
        <ele>170.199996948</ele>
        <time>2015-07-03T10:52:28.371Z</time>
      </trkpt>
      <trkpt lat="45.92683" lon="4.74293">
        <ele>170.199996948</ele>
        <time>2015-07-03T10:52:29.373Z</time>
      </trkpt>
      <trkpt lat="45.92687" lon="4.74285">
        <ele>170.199996948</ele>
        <time>2015-07-03T10:52:30.373Z</time>
      </trkpt>
      <trkpt lat="45.92691" lon="4.74277">
        <ele>170.199996948</ele>
        <time>2015-07-03T10:52:31.371Z</time>
      </trkpt>
      <trkpt lat="45.92696" lon="4.74269">
        <ele>170.199996948</ele>
        <time>2015-07-03T10:52:32.372Z</time>
      </trkpt>
      <trkpt lat="45.927" lon="4.74262">
        <ele>170.399993896</ele>
        <time>2015-07-03T10:52:33.374Z</time>
      </trkpt>
      <trkpt lat="45.92705" lon="4.74255">
        <ele>170.399993896</ele>
        <time>2015-07-03T10:52:34.371Z</time>
      </trkpt>
      <trkpt lat="45.9271" lon="4.74248">
        <ele>170.600006104</ele>
        <time>2015-07-03T10:52:35.373Z</time>
      </trkpt>
      <trkpt lat="45.92715" lon="4.7424">
        <ele>170.899993896</ele>
        <time>2015-07-03T10:52:36.373Z</time>
      </trkpt>
      <trkpt lat="45.9272" lon="4.74232">
        <ele>171</ele>
        <time>2015-07-03T10:52:37.373Z</time>
      </trkpt>
      <trkpt lat="45.92724" lon="4.74224">
        <ele>171.100006104</ele>
        <time>2015-07-03T10:52:38.372Z</time>
      </trkpt>
      <trkpt lat="45.9273" lon="4.74217">
        <ele>171.199996948</ele>
        <time>2015-07-03T10:52:39.371Z</time>
      </trkpt>
      <trkpt lat="45.92735" lon="4.74209">
        <ele>171.100006104</ele>
        <time>2015-07-03T10:52:40.371Z</time>
      </trkpt>
      <trkpt lat="45.9274" lon="4.74202">
        <ele>171.199996948</ele>
        <time>2015-07-03T10:52:41.373Z</time>
      </trkpt>
      <trkpt lat="45.92746" lon="4.74195">
        <ele>171.5</ele>
        <time>2015-07-03T10:52:42.391Z</time>
      </trkpt>
      <trkpt lat="45.92752" lon="4.74188">
        <ele>171.600006104</ele>
        <time>2015-07-03T10:52:43.405Z</time>
      </trkpt>
      <trkpt lat="45.92758" lon="4.74181">
        <ele>171.600006104</ele>
        <time>2015-07-03T10:52:44.372Z</time>
      </trkpt>
      <trkpt lat="45.92764" lon="4.74174">
        <ele>171.600006104</ele>
        <time>2015-07-03T10:52:45.371Z</time>
      </trkpt>
      <trkpt lat="45.92771" lon="4.74167">
        <ele>171.399993896</ele>
        <time>2015-07-03T10:52:46.371Z</time>
      </trkpt>
      <trkpt lat="45.92777" lon="4.74161">
        <ele>171.399993896</ele>
        <time>2015-07-03T10:52:47.375Z</time>
      </trkpt>
      <trkpt lat="45.92783" lon="4.74155">
        <ele>171.5</ele>
        <time>2015-07-03T10:52:48.375Z</time>
      </trkpt>
      <trkpt lat="45.92789" lon="4.7415">
        <ele>171.399993896</ele>
        <time>2015-07-03T10:52:49.371Z</time>
      </trkpt>
      <trkpt lat="45.92794" lon="4.74145">
        <ele>172.100006104</ele>
        <time>2015-07-03T10:52:50.374Z</time>
      </trkpt>
      <trkpt lat="45.92799" lon="4.74138">
        <ele>172.300003052</ele>
        <time>2015-07-03T10:52:51.371Z</time>
      </trkpt>
      <trkpt lat="45.92805" lon="4.74133">
        <ele>172.5</ele>
        <time>2015-07-03T10:52:52.37Z</time>
      </trkpt>
      <trkpt lat="45.9281" lon="4.74127">
        <ele>172.699996948</ele>
        <time>2015-07-03T10:52:53.42Z</time>
      </trkpt>
      <trkpt lat="45.92815" lon="4.74121">
        <ele>172.699996948</ele>
        <time>2015-07-03T10:52:54.375Z</time>
      </trkpt>
      <trkpt lat="45.92821" lon="4.74115">
        <ele>172.899993896</ele>
        <time>2015-07-03T10:52:55.371Z</time>
      </trkpt>
      <trkpt lat="45.92827" lon="4.74109">
        <ele>172.699996948</ele>
        <time>2015-07-03T10:52:56.372Z</time>
      </trkpt>
      <trkpt lat="45.92832" lon="4.74103">
        <ele>172.699996948</ele>
        <time>2015-07-03T10:52:57.371Z</time>
      </trkpt>
      <trkpt lat="45.92838" lon="4.74096">
        <ele>172.800003052</ele>
        <time>2015-07-03T10:52:58.371Z</time>
      </trkpt>
      <trkpt lat="45.92843" lon="4.74089">
        <ele>172.800003052</ele>
        <time>2015-07-03T10:52:59.371Z</time>
      </trkpt>
      <trkpt lat="45.92849" lon="4.74083">
        <ele>172.800003052</ele>
        <time>2015-07-03T10:53:00.374Z</time>
      </trkpt>
      <trkpt lat="45.92854" lon="4.74076">
        <ele>172.699996948</ele>
        <time>2015-07-03T10:53:01.371Z</time>
      </trkpt>
      <trkpt lat="45.92859" lon="4.74069">
        <ele>172.300003052</ele>
        <time>2015-07-03T10:53:02.373Z</time>
      </trkpt>
      <trkpt lat="45.92865" lon="4.74064">
        <ele>172.800003052</ele>
        <time>2015-07-03T10:53:03.419Z</time>
      </trkpt>
      <trkpt lat="45.9287" lon="4.74058">
        <ele>172.600006104</ele>
        <time>2015-07-03T10:53:04.375Z</time>
      </trkpt>
      <trkpt lat="45.92876" lon="4.74054">
        <ele>172.800003052</ele>
        <time>2015-07-03T10:53:05.371Z</time>
      </trkpt>
      <trkpt lat="45.92882" lon="4.7405">
        <ele>172.899993896</ele>
        <time>2015-07-03T10:53:06.374Z</time>
      </trkpt>
      <trkpt lat="45.92888" lon="4.74048">
        <ele>172.699996948</ele>
        <time>2015-07-03T10:53:07.371Z</time>
      </trkpt>
      <trkpt lat="45.92894" lon="4.74048">
        <ele>172.800003052</ele>
        <time>2015-07-03T10:53:08.373Z</time>
      </trkpt>
      <trkpt lat="45.929" lon="4.74046">
        <ele>172.699996948</ele>
        <time>2015-07-03T10:53:09.409Z</time>
      </trkpt>
      <trkpt lat="45.92905" lon="4.74043">
        <ele>173.100006104</ele>
        <time>2015-07-03T10:53:10.394Z</time>
      </trkpt>
      <trkpt lat="45.92911" lon="4.74039">
        <ele>173.300003052</ele>
        <time>2015-07-03T10:53:11.373Z</time>
      </trkpt>
      <trkpt lat="45.92915" lon="4.74032">
        <ele>173.300003052</ele>
        <time>2015-07-03T10:53:12.373Z</time>
      </trkpt>
      <trkpt lat="45.92918" lon="4.74022">
        <ele>172.899993896</ele>
        <time>2015-07-03T10:53:13.391Z</time>
      </trkpt>
      <trkpt lat="45.92917" lon="4.74012">
        <ele>172.600006104</ele>
        <time>2015-07-03T10:53:14.389Z</time>
      </trkpt>
      <trkpt lat="45.92916" lon="4.74001">
        <ele>172.199996948</ele>
        <time>2015-07-03T10:53:15.371Z</time>
      </trkpt>
      <trkpt lat="45.92911" lon="4.73993">
        <ele>171.899993896</ele>
        <time>2015-07-03T10:53:16.374Z</time>
      </trkpt>
      <trkpt lat="45.92906" lon="4.73985">
        <ele>172</ele>
        <time>2015-07-03T10:53:17.374Z</time>
      </trkpt>
      <trkpt lat="45.92901" lon="4.73979">
        <ele>171.800003052</ele>
        <time>2015-07-03T10:53:18.373Z</time>
      </trkpt>
      <trkpt lat="45.92895" lon="4.73973">
        <ele>171.699996948</ele>
        <time>2015-07-03T10:53:19.371Z</time>
      </trkpt>
      <trkpt lat="45.92891" lon="4.73965">
        <ele>171.699996948</ele>
        <time>2015-07-03T10:53:20.377Z</time>
      </trkpt>
      <trkpt lat="45.92887" lon="4.73956">
        <ele>171.600006104</ele>
        <time>2015-07-03T10:53:21.371Z</time>
      </trkpt>
      <trkpt lat="45.92885" lon="4.73947">
        <ele>171.5</ele>
        <time>2015-07-03T10:53:22.374Z</time>
      </trkpt>
      <trkpt lat="45.92884" lon="4.73938">
        <ele>171.199996948</ele>
        <time>2015-07-03T10:53:23.484Z</time>
      </trkpt>
      <trkpt lat="45.92883" lon="4.73928">
        <ele>170.800003052</ele>
        <time>2015-07-03T10:53:24.374Z</time>
      </trkpt>
      <trkpt lat="45.92882" lon="4.73917">
        <ele>170.600006104</ele>
        <time>2015-07-03T10:53:25.387Z</time>
      </trkpt>
      <trkpt lat="45.9288" lon="4.73907">
        <ele>170.300003052</ele>
        <time>2015-07-03T10:53:26.373Z</time>
      </trkpt>
      <trkpt lat="45.92878" lon="4.73896">
        <ele>170</ele>
        <time>2015-07-03T10:53:27.374Z</time>
      </trkpt>
      <trkpt lat="45.92876" lon="4.73886">
        <ele>169.699996948</ele>
        <time>2015-07-03T10:53:28.373Z</time>
      </trkpt>
      <trkpt lat="45.92875" lon="4.73876">
        <ele>169.699996948</ele>
        <time>2015-07-03T10:53:29.374Z</time>
      </trkpt>
      <trkpt lat="45.92873" lon="4.73865">
        <ele>169.800003052</ele>
        <time>2015-07-03T10:53:30.372Z</time>
      </trkpt>
      <trkpt lat="45.9287" lon="4.73855">
        <ele>169.800003052</ele>
        <time>2015-07-03T10:53:31.374Z</time>
      </trkpt>
      <trkpt lat="45.92868" lon="4.73846">
        <ele>169.800003052</ele>
        <time>2015-07-03T10:53:32.373Z</time>
      </trkpt>
      <trkpt lat="45.92866" lon="4.73836">
        <ele>169.899993896</ele>
        <time>2015-07-03T10:53:33.388Z</time>
      </trkpt>
      <trkpt lat="45.92864" lon="4.73827">
        <ele>170</ele>
        <time>2015-07-03T10:53:34.375Z</time>
      </trkpt>
      <trkpt lat="45.92862" lon="4.73817">
        <ele>170.199996948</ele>
        <time>2015-07-03T10:53:35.374Z</time>
      </trkpt>
      <trkpt lat="45.92859" lon="4.73809">
        <ele>170.300003052</ele>
        <time>2015-07-03T10:53:36.385Z</time>
      </trkpt>
      <trkpt lat="45.92855" lon="4.73801">
        <ele>170.199996948</ele>
        <time>2015-07-03T10:53:37.396Z</time>
      </trkpt>
      <trkpt lat="45.9285" lon="4.73793">
        <ele>169.899993896</ele>
        <time>2015-07-03T10:53:38.372Z</time>
      </trkpt>
      <trkpt lat="45.92844" lon="4.73787">
        <ele>169.5</ele>
        <time>2015-07-03T10:53:39.387Z</time>
      </trkpt>
      <trkpt lat="45.92838" lon="4.73782">
        <ele>169.5</ele>
        <time>2015-07-03T10:53:40.374Z</time>
      </trkpt>
      <trkpt lat="45.92832" lon="4.73777">
        <ele>169.399993896</ele>
        <time>2015-07-03T10:53:41.375Z</time>
      </trkpt>
      <trkpt lat="45.92826" lon="4.73774">
        <ele>169.300003052</ele>
        <time>2015-07-03T10:53:42.373Z</time>
      </trkpt>
      <trkpt lat="45.9282" lon="4.7377">
        <ele>169.399993896</ele>
        <time>2015-07-03T10:53:43.438Z</time>
      </trkpt>
      <trkpt lat="45.92815" lon="4.73767">
        <ele>169.5</ele>
        <time>2015-07-03T10:53:44.373Z</time>
      </trkpt>
      <trkpt lat="45.9281" lon="4.73764">
        <ele>169.600006104</ele>
        <time>2015-07-03T10:53:45.373Z</time>
      </trkpt>
      <trkpt lat="45.92805" lon="4.73762">
        <ele>169.699996948</ele>
        <time>2015-07-03T10:53:46.398Z</time>
      </trkpt>
      <trkpt lat="45.928" lon="4.73759">
        <ele>169.800003052</ele>
        <time>2015-07-03T10:53:47.371Z</time>
      </trkpt>
      <trkpt lat="45.92795" lon="4.73752">
        <ele>170</ele>
        <time>2015-07-03T10:53:48.372Z</time>
      </trkpt>
      <trkpt lat="45.92792" lon="4.73747">
        <ele>170.199996948</ele>
        <time>2015-07-03T10:53:49.371Z</time>
      </trkpt>
      <trkpt lat="45.92787" lon="4.73743">
        <ele>170.300003052</ele>
        <time>2015-07-03T10:53:50.373Z</time>
      </trkpt>
      <trkpt lat="45.92784" lon="4.73737">
        <ele>170.300003052</ele>
        <time>2015-07-03T10:53:51.406Z</time>
      </trkpt>
      <trkpt lat="45.92781" lon="4.73733">
        <ele>170</ele>
        <time>2015-07-03T10:53:52.371Z</time>
      </trkpt>
      <trkpt lat="45.92777" lon="4.73729">
        <ele>169.600006104</ele>
        <time>2015-07-03T10:53:53.391Z</time>
      </trkpt>
      <trkpt lat="45.92772" lon="4.73726">
        <ele>169.899993896</ele>
        <time>2015-07-03T10:53:54.374Z</time>
      </trkpt>
      <trkpt lat="45.92767" lon="4.73724">
        <ele>169.899993896</ele>
        <time>2015-07-03T10:53:55.374Z</time>
      </trkpt>
      <trkpt lat="45.92762" lon="4.73722">
        <ele>169.600006104</ele>
        <time>2015-07-03T10:53:56.372Z</time>
      </trkpt>
      <trkpt lat="45.92756" lon="4.73719">
        <ele>169.600006104</ele>
        <time>2015-07-03T10:53:57.374Z</time>
      </trkpt>
      <trkpt lat="45.92751" lon="4.73717">
        <ele>169.600006104</ele>
        <time>2015-07-03T10:53:58.371Z</time>
      </trkpt>
      <trkpt lat="45.92745" lon="4.73714">
        <ele>169.5</ele>
        <time>2015-07-03T10:53:59.371Z</time>
      </trkpt>
      <trkpt lat="45.92739" lon="4.7371">
        <ele>169.5</ele>
        <time>2015-07-03T10:54:00.374Z</time>
      </trkpt>
      <trkpt lat="45.92733" lon="4.73708">
        <ele>169.399993896</ele>
        <time>2015-07-03T10:54:01.372Z</time>
      </trkpt>
      <trkpt lat="45.92727" lon="4.73706">
        <ele>169.300003052</ele>
        <time>2015-07-03T10:54:02.39Z</time>
      </trkpt>
      <trkpt lat="45.92721" lon="4.73704">
        <ele>169.199996948</ele>
        <time>2015-07-03T10:54:03.456Z</time>
      </trkpt>
      <trkpt lat="45.92716" lon="4.73704">
        <ele>168.899993896</ele>
        <time>2015-07-03T10:54:04.414Z</time>
      </trkpt>
      <trkpt lat="45.92709" lon="4.73704">
        <ele>168</ele>
        <time>2015-07-03T10:54:07.196Z</time>
      </trkpt>
      <trkpt lat="45.92703" lon="4.73702">
        <ele>167.800003052</ele>
        <time>2015-07-03T10:54:07.581Z</time>
      </trkpt>
      <trkpt lat="45.92698" lon="4.73702">
        <ele>167.699996948</ele>
        <time>2015-07-03T10:54:08.416Z</time>
      </trkpt>
      <trkpt lat="45.92693" lon="4.73704">
        <ele>167.5</ele>
        <time>2015-07-03T10:54:09.495Z</time>
      </trkpt>
      <trkpt lat="45.92689" lon="4.73708">
        <ele>167.399993896</ele>
        <time>2015-07-03T10:54:10.726Z</time>
      </trkpt>
      <trkpt lat="45.92685" lon="4.73714">
        <ele>167.300003052</ele>
        <time>2015-07-03T10:54:11.381Z</time>
      </trkpt>
      <trkpt lat="45.92677" lon="4.73718">
        <ele>167.300003052</ele>
        <time>2015-07-03T10:54:13.387Z</time>
      </trkpt>
      <trkpt lat="45.92671" lon="4.73721">
        <ele>168.199996948</ele>
        <time>2015-07-03T10:54:14.371Z</time>
      </trkpt>
      <trkpt lat="45.92662" lon="4.73725">
        <ele>167.699996948</ele>
        <time>2015-07-03T10:54:16.371Z</time>
      </trkpt>
      <trkpt lat="45.92657" lon="4.73724">
        <ele>167</ele>
        <time>2015-07-03T10:54:17.37Z</time>
      </trkpt>
      <trkpt lat="45.92652" lon="4.73714">
        <ele>166.5</ele>
        <time>2015-07-03T10:54:18.375Z</time>
      </trkpt>
      <trkpt lat="45.92646" lon="4.73706">
        <ele>165.800003052</ele>
        <time>2015-07-03T10:54:19.371Z</time>
      </trkpt>
      <trkpt lat="45.92642" lon="4.73699">
        <ele>165.199996948</ele>
        <time>2015-07-03T10:54:20.373Z</time>
      </trkpt>
      <trkpt lat="45.92635" lon="4.73681">
        <ele>165.100006104</ele>
        <time>2015-07-03T10:54:21.372Z</time>
      </trkpt>
      <trkpt lat="45.92632" lon="4.73672">
        <ele>164.800003052</ele>
        <time>2015-07-03T10:54:22.371Z</time>
      </trkpt>
      <trkpt lat="45.92628" lon="4.73662">
        <ele>164.399993896</ele>
        <time>2015-07-03T10:54:23.405Z</time>
      </trkpt>
      <trkpt lat="45.92623" lon="4.73651">
        <ele>163.899993896</ele>
        <time>2015-07-03T10:54:24.373Z</time>
      </trkpt>
      <trkpt lat="45.92616" lon="4.73639">
        <ele>163.800003052</ele>
        <time>2015-07-03T10:54:25.371Z</time>
      </trkpt>
      <trkpt lat="45.9261" lon="4.73632">
        <ele>163.600006104</ele>
        <time>2015-07-03T10:54:26.37Z</time>
      </trkpt>
      <trkpt lat="45.92603" lon="4.7363">
        <ele>164.100006104</ele>
        <time>2015-07-03T10:54:27.426Z</time>
      </trkpt>
      <trkpt lat="45.92596" lon="4.73628">
        <ele>163.899993896</ele>
        <time>2015-07-03T10:54:28.37Z</time>
      </trkpt>
      <trkpt lat="45.9259" lon="4.73628">
        <ele>163.600006104</ele>
        <time>2015-07-03T10:54:29.369Z</time>
      </trkpt>
      <trkpt lat="45.92585" lon="4.73628">
        <ele>163.399993896</ele>
        <time>2015-07-03T10:54:30.372Z</time>
      </trkpt>
      <trkpt lat="45.9258" lon="4.73627">
        <ele>163.399993896</ele>
        <time>2015-07-03T10:54:31.374Z</time>
      </trkpt>
      <trkpt lat="45.92574" lon="4.73627">
        <ele>163.199996948</ele>
        <time>2015-07-03T10:54:32.371Z</time>
      </trkpt>
      <trkpt lat="45.92569" lon="4.73628">
        <ele>162.899993896</ele>
        <time>2015-07-03T10:54:33.374Z</time>
      </trkpt>
      <trkpt lat="45.92564" lon="4.7363">
        <ele>162.699996948</ele>
        <time>2015-07-03T10:54:34.371Z</time>
      </trkpt>
      <trkpt lat="45.92559" lon="4.7363">
        <ele>162.699996948</ele>
        <time>2015-07-03T10:54:35.371Z</time>
      </trkpt>
      <trkpt lat="45.92553" lon="4.73631">
        <ele>162.5</ele>
        <time>2015-07-03T10:54:36.372Z</time>
      </trkpt>
      <trkpt lat="45.92549" lon="4.73631">
        <ele>162.300003052</ele>
        <time>2015-07-03T10:54:37.364Z</time>
      </trkpt>
      <trkpt lat="45.92544" lon="4.7363">
        <ele>162.199996948</ele>
        <time>2015-07-03T10:54:38.371Z</time>
      </trkpt>
      <trkpt lat="45.92539" lon="4.7363">
        <ele>161.899993896</ele>
        <time>2015-07-03T10:54:39.388Z</time>
      </trkpt>
      <trkpt lat="45.92534" lon="4.7363">
        <ele>161.699996948</ele>
        <time>2015-07-03T10:54:40.371Z</time>
      </trkpt>
      <trkpt lat="45.92528" lon="4.73632">
        <ele>161.5</ele>
        <time>2015-07-03T10:54:41.37Z</time>
      </trkpt>
      <trkpt lat="45.92522" lon="4.73634">
        <ele>161.600006104</ele>
        <time>2015-07-03T10:54:42.372Z</time>
      </trkpt>
      <trkpt lat="45.92516" lon="4.73636">
        <ele>161.899993896</ele>
        <time>2015-07-03T10:54:43.374Z</time>
      </trkpt>
      <trkpt lat="45.9251" lon="4.73636">
        <ele>161.800003052</ele>
        <time>2015-07-03T10:54:44.402Z</time>
      </trkpt>
      <trkpt lat="45.92505" lon="4.73636">
        <ele>161.699996948</ele>
        <time>2015-07-03T10:54:45.507Z</time>
      </trkpt>
      <trkpt lat="45.92499" lon="4.73636">
        <ele>161.5</ele>
        <time>2015-07-03T10:54:47.406Z</time>
      </trkpt>
      <trkpt lat="45.92494" lon="4.73639">
        <ele>161.800003052</ele>
        <time>2015-07-03T10:54:48.419Z</time>
      </trkpt>
      <trkpt lat="45.92488" lon="4.7364">
        <ele>161.800003052</ele>
        <time>2015-07-03T10:54:49.548Z</time>
      </trkpt>
      <trkpt lat="45.92483" lon="4.73639">
        <ele>161.699996948</ele>
        <time>2015-07-03T10:54:50.446Z</time>
      </trkpt>
      <trkpt lat="45.92477" lon="4.73636">
        <ele>161.800003052</ele>
        <time>2015-07-03T10:54:51.503Z</time>
      </trkpt>
      <trkpt lat="45.92471" lon="4.73632">
        <ele>161.800003052</ele>
        <time>2015-07-03T10:54:52.388Z</time>
      </trkpt>
      <trkpt lat="45.92466" lon="4.73632">
        <ele>161.800003052</ele>
        <time>2015-07-03T10:54:53.418Z</time>
      </trkpt>
      <trkpt lat="45.92462" lon="4.73632">
        <ele>161.699996948</ele>
        <time>2015-07-03T10:54:54.377Z</time>
      </trkpt>
      <trkpt lat="45.92461" lon="4.73641">
        <ele>162</ele>
        <time>2015-07-03T10:54:56.372Z</time>
      </trkpt>
      <trkpt lat="45.92461" lon="4.73647">
        <ele>162.100006104</ele>
        <time>2015-07-03T10:54:57.377Z</time>
      </trkpt>
      <trkpt lat="45.92461" lon="4.73656">
        <ele>162.199996948</ele>
        <time>2015-07-03T10:54:58.436Z</time>
      </trkpt>
      <trkpt lat="45.92461" lon="4.73665">
        <ele>162.399993896</ele>
        <time>2015-07-03T10:54:59.373Z</time>
      </trkpt>
      <trkpt lat="45.92462" lon="4.73673">
        <ele>162.5</ele>
        <time>2015-07-03T10:55:00.373Z</time>
      </trkpt>
      <trkpt lat="45.9246" lon="4.73681">
        <ele>162.399993896</ele>
        <time>2015-07-03T10:55:01.372Z</time>
      </trkpt>
      <trkpt lat="45.92459" lon="4.73691">
        <ele>162.5</ele>
        <time>2015-07-03T10:55:03.877Z</time>
      </trkpt>
      <trkpt lat="45.92458" lon="4.73694">
        <ele>162.5</ele>
        <time>2015-07-03T10:55:04.503Z</time>
      </trkpt>
      <trkpt lat="45.92459" lon="4.73697">
        <ele>162.399993896</ele>
        <time>2015-07-03T10:55:05.413Z</time>
      </trkpt>
      <trkpt lat="45.9246" lon="4.73701">
        <ele>162.800003052</ele>
        <time>2015-07-03T10:55:06.38Z</time>
      </trkpt>
      <trkpt lat="45.92457" lon="4.73708">
        <ele>163</ele>
        <time>2015-07-03T10:55:14.374Z</time>
      </trkpt>
      <trkpt lat="45.92454" lon="4.73709">
        <ele>163</ele>
        <time>2015-07-03T10:55:15.37Z</time>
      </trkpt>
      <trkpt lat="45.92453" lon="4.73714">
        <ele>163</ele>
        <time>2015-07-03T10:55:18.374Z</time>
      </trkpt>
      <trkpt lat="45.92457" lon="4.73712">
        <ele>162.699996948</ele>
        <time>2015-07-03T10:55:19.369Z</time>
      </trkpt>
      <trkpt lat="45.92457" lon="4.73705">
        <ele>161.800003052</ele>
        <time>2015-07-03T10:55:23.402Z</time>
      </trkpt>
      <trkpt lat="45.92458" lon="4.73703">
        <ele>161.600006104</ele>
        <time>2015-07-03T10:55:24.373Z</time>
      </trkpt>
      <trkpt lat="45.9246" lon="4.73703">
        <ele>161.5</ele>
        <time>2015-07-03T10:55:25.418Z</time>
      </trkpt>
      <trkpt lat="45.92459" lon="4.73704">
        <ele>162.300003052</ele>
        <time>2015-07-03T10:55:33.814Z</time>
      </trkpt>
    </trkseg>
  </trk>
</gpx>